<?xml version="1.0" encoding="UTF-8"?>
<gpx xmlns:gpxdata="http://www.cluetrust.com/XML/GPXDATA/1/0" xmlns:xsi="http://www.w3.org/2001/XMLSchema-instance" xmlns="http://www.topografix.com/GPX/1/1" version="1.1" creator="http://ridewithgps.com/" xsi:schemaLocation="http://www.topografix.com/GPX/1/1 http://www.topografix.com/GPX/1/1/gpx.xsd http://www.cluetrust.com/XML/GPXDATA/1/0 http://www.cluetrust.com/Schemas/gpxdata10.xsd">
  <metadata>
    <name>10/07/20</name>
    <link href="https://ridewithgps.com/trips/52230321">
      <text>10/07/20</text>
    </link>
    <time>2020-07-10T08:05:36Z</time>
  </metadata>
  <trk>
    <name>10/07/20</name>
    <trkseg>
      <trkpt lat="49.316426" lon="6.743412">
        <ele>208.0</ele>
        <time>2020-07-10T06:05:36Z</time>
      </trkpt>
      <trkpt lat="49.316469" lon="6.741923">
        <ele>235.0</ele>
        <time>2020-07-10T06:05:38Z</time>
      </trkpt>
      <trkpt lat="49.316365" lon="6.743482">
        <ele>233.0</ele>
        <time>2020-07-10T06:05:40Z</time>
      </trkpt>
      <trkpt lat="49.316395" lon="6.743473">
        <ele>223.0</ele>
        <time>2020-07-10T06:05:42Z</time>
      </trkpt>
      <trkpt lat="49.316408" lon="6.743457">
        <ele>220.0</ele>
        <time>2020-07-10T06:05:44Z</time>
      </trkpt>
      <trkpt lat="49.316408" lon="6.743457">
        <ele>220.0</ele>
        <time>2020-07-10T06:05:46Z</time>
      </trkpt>
      <trkpt lat="49.316424" lon="6.743457">
        <ele>222.0</ele>
        <time>2020-07-10T06:05:48Z</time>
      </trkpt>
      <trkpt lat="49.316434" lon="6.743448">
        <ele>220.0</ele>
        <time>2020-07-10T06:05:50Z</time>
      </trkpt>
      <trkpt lat="49.316459" lon="6.743448">
        <ele>222.0</ele>
        <time>2020-07-10T06:05:52Z</time>
      </trkpt>
      <trkpt lat="49.316507" lon="6.74347">
        <ele>223.0</ele>
        <time>2020-07-10T06:05:54Z</time>
      </trkpt>
      <trkpt lat="49.316545" lon="6.743483">
        <ele>224.0</ele>
        <time>2020-07-10T06:05:56Z</time>
      </trkpt>
      <trkpt lat="49.316601" lon="6.743484">
        <ele>224.0</ele>
        <time>2020-07-10T06:05:58Z</time>
      </trkpt>
      <trkpt lat="49.316633" lon="6.743543">
        <ele>224.0</ele>
        <time>2020-07-10T06:06:00Z</time>
      </trkpt>
      <trkpt lat="49.316649" lon="6.743593">
        <ele>224.0</ele>
        <time>2020-07-10T06:06:02Z</time>
      </trkpt>
      <trkpt lat="49.31666" lon="6.743661">
        <ele>225.0</ele>
        <time>2020-07-10T06:06:04Z</time>
      </trkpt>
      <trkpt lat="49.31667" lon="6.743725">
        <ele>226.0</ele>
        <time>2020-07-10T06:06:06Z</time>
      </trkpt>
      <trkpt lat="49.316681" lon="6.743789">
        <ele>227.0</ele>
        <time>2020-07-10T06:06:08Z</time>
      </trkpt>
      <trkpt lat="49.3167" lon="6.743864">
        <ele>227.0</ele>
        <time>2020-07-10T06:06:10Z</time>
      </trkpt>
      <trkpt lat="49.31672" lon="6.743936">
        <ele>226.0</ele>
        <time>2020-07-10T06:06:12Z</time>
      </trkpt>
      <trkpt lat="49.316744" lon="6.744007">
        <ele>225.0</ele>
        <time>2020-07-10T06:06:14Z</time>
      </trkpt>
      <trkpt lat="49.316773" lon="6.744056">
        <ele>225.0</ele>
        <time>2020-07-10T06:06:16Z</time>
      </trkpt>
      <trkpt lat="49.316797" lon="6.744085">
        <ele>225.0</ele>
        <time>2020-07-10T06:06:18Z</time>
      </trkpt>
      <trkpt lat="49.316801" lon="6.744122">
        <ele>225.0</ele>
        <time>2020-07-10T06:06:20Z</time>
      </trkpt>
      <trkpt lat="49.316825" lon="6.744115">
        <ele>225.0</ele>
        <time>2020-07-10T06:06:22Z</time>
      </trkpt>
      <trkpt lat="49.316841" lon="6.744104">
        <ele>226.0</ele>
        <time>2020-07-10T06:06:24Z</time>
      </trkpt>
      <trkpt lat="49.316864" lon="6.74409">
        <ele>227.0</ele>
        <time>2020-07-10T06:06:26Z</time>
      </trkpt>
      <trkpt lat="49.316898" lon="6.744083">
        <ele>228.0</ele>
        <time>2020-07-10T06:06:28Z</time>
      </trkpt>
      <trkpt lat="49.316922" lon="6.744074">
        <ele>228.0</ele>
        <time>2020-07-10T06:06:30Z</time>
      </trkpt>
      <trkpt lat="49.316947" lon="6.744061">
        <ele>228.0</ele>
        <time>2020-07-10T06:06:32Z</time>
      </trkpt>
      <trkpt lat="49.316967" lon="6.744009">
        <ele>227.0</ele>
        <time>2020-07-10T06:06:35Z</time>
      </trkpt>
      <trkpt lat="49.316979" lon="6.743981">
        <ele>228.0</ele>
        <time>2020-07-10T06:06:37Z</time>
      </trkpt>
      <trkpt lat="49.316997" lon="6.743966">
        <ele>228.0</ele>
        <time>2020-07-10T06:06:39Z</time>
      </trkpt>
      <trkpt lat="49.317014" lon="6.74392">
        <ele>228.0</ele>
        <time>2020-07-10T06:06:41Z</time>
      </trkpt>
      <trkpt lat="49.317022" lon="6.743892">
        <ele>229.0</ele>
        <time>2020-07-10T06:06:42Z</time>
      </trkpt>
      <trkpt lat="49.317064" lon="6.743833">
        <ele>230.0</ele>
        <time>2020-07-10T06:06:45Z</time>
      </trkpt>
      <trkpt lat="49.317106" lon="6.743802">
        <ele>231.0</ele>
        <time>2020-07-10T06:06:47Z</time>
      </trkpt>
      <trkpt lat="49.317147" lon="6.743755">
        <ele>231.0</ele>
        <time>2020-07-10T06:06:49Z</time>
      </trkpt>
      <trkpt lat="49.317175" lon="6.743687">
        <ele>231.0</ele>
        <time>2020-07-10T06:06:51Z</time>
      </trkpt>
      <trkpt lat="49.317176" lon="6.743607">
        <ele>232.0</ele>
        <time>2020-07-10T06:06:53Z</time>
      </trkpt>
      <trkpt lat="49.317194" lon="6.743531">
        <ele>231.0</ele>
        <time>2020-07-10T06:06:55Z</time>
      </trkpt>
      <trkpt lat="49.317238" lon="6.743483">
        <ele>229.0</ele>
        <time>2020-07-10T06:06:57Z</time>
      </trkpt>
      <trkpt lat="49.317264" lon="6.74346">
        <ele>229.0</ele>
        <time>2020-07-10T06:06:58Z</time>
      </trkpt>
      <trkpt lat="49.317344" lon="6.743432">
        <ele>230.0</ele>
        <time>2020-07-10T06:07:01Z</time>
      </trkpt>
      <trkpt lat="49.317397" lon="6.743416">
        <ele>229.0</ele>
        <time>2020-07-10T06:07:03Z</time>
      </trkpt>
      <trkpt lat="49.317455" lon="6.743393">
        <ele>228.0</ele>
        <time>2020-07-10T06:07:05Z</time>
      </trkpt>
      <trkpt lat="49.317525" lon="6.743365">
        <ele>228.0</ele>
        <time>2020-07-10T06:07:07Z</time>
      </trkpt>
      <trkpt lat="49.317591" lon="6.74334">
        <ele>227.0</ele>
        <time>2020-07-10T06:07:09Z</time>
      </trkpt>
      <trkpt lat="49.317654" lon="6.743324">
        <ele>227.0</ele>
        <time>2020-07-10T06:07:11Z</time>
      </trkpt>
      <trkpt lat="49.31771" lon="6.743305">
        <ele>227.0</ele>
        <time>2020-07-10T06:07:13Z</time>
      </trkpt>
      <trkpt lat="49.31777" lon="6.743291">
        <ele>227.0</ele>
        <time>2020-07-10T06:07:15Z</time>
      </trkpt>
      <trkpt lat="49.317834" lon="6.743275">
        <ele>226.0</ele>
        <time>2020-07-10T06:07:17Z</time>
      </trkpt>
      <trkpt lat="49.317895" lon="6.743276">
        <ele>225.0</ele>
        <time>2020-07-10T06:07:19Z</time>
      </trkpt>
      <trkpt lat="49.317956" lon="6.743302">
        <ele>224.0</ele>
        <time>2020-07-10T06:07:21Z</time>
      </trkpt>
      <trkpt lat="49.318014" lon="6.743344">
        <ele>224.0</ele>
        <time>2020-07-10T06:07:23Z</time>
      </trkpt>
      <trkpt lat="49.318068" lon="6.743396">
        <ele>224.0</ele>
        <time>2020-07-10T06:07:25Z</time>
      </trkpt>
      <trkpt lat="49.318121" lon="6.74343">
        <ele>224.0</ele>
        <time>2020-07-10T06:07:27Z</time>
      </trkpt>
      <trkpt lat="49.318174" lon="6.743465">
        <ele>224.0</ele>
        <time>2020-07-10T06:07:29Z</time>
      </trkpt>
      <trkpt lat="49.318223" lon="6.74351">
        <ele>226.0</ele>
        <time>2020-07-10T06:07:31Z</time>
      </trkpt>
      <trkpt lat="49.318265" lon="6.743551">
        <ele>227.0</ele>
        <time>2020-07-10T06:07:33Z</time>
      </trkpt>
      <trkpt lat="49.318305" lon="6.743595">
        <ele>227.0</ele>
        <time>2020-07-10T06:07:35Z</time>
      </trkpt>
      <trkpt lat="49.318354" lon="6.74365">
        <ele>228.0</ele>
        <time>2020-07-10T06:07:37Z</time>
      </trkpt>
      <trkpt lat="49.318407" lon="6.743704">
        <ele>230.0</ele>
        <time>2020-07-10T06:07:39Z</time>
      </trkpt>
      <trkpt lat="49.31846" lon="6.743756">
        <ele>230.0</ele>
        <time>2020-07-10T06:07:41Z</time>
      </trkpt>
      <trkpt lat="49.31851" lon="6.743806">
        <ele>229.0</ele>
        <time>2020-07-10T06:07:43Z</time>
      </trkpt>
      <trkpt lat="49.318563" lon="6.743868">
        <ele>228.0</ele>
        <time>2020-07-10T06:07:45Z</time>
      </trkpt>
      <trkpt lat="49.318618" lon="6.74393">
        <ele>227.0</ele>
        <time>2020-07-10T06:07:47Z</time>
      </trkpt>
      <trkpt lat="49.318675" lon="6.743983">
        <ele>227.0</ele>
        <time>2020-07-10T06:07:49Z</time>
      </trkpt>
      <trkpt lat="49.318731" lon="6.744049">
        <ele>226.0</ele>
        <time>2020-07-10T06:07:51Z</time>
      </trkpt>
      <trkpt lat="49.318793" lon="6.744123">
        <ele>225.0</ele>
        <time>2020-07-10T06:07:53Z</time>
      </trkpt>
      <trkpt lat="49.318846" lon="6.744212">
        <ele>225.0</ele>
        <time>2020-07-10T06:07:55Z</time>
      </trkpt>
      <trkpt lat="49.318896" lon="6.744279">
        <ele>224.0</ele>
        <time>2020-07-10T06:07:57Z</time>
      </trkpt>
      <trkpt lat="49.318953" lon="6.744327">
        <ele>224.0</ele>
        <time>2020-07-10T06:07:59Z</time>
      </trkpt>
      <trkpt lat="49.319015" lon="6.744372">
        <ele>223.0</ele>
        <time>2020-07-10T06:08:01Z</time>
      </trkpt>
      <trkpt lat="49.319085" lon="6.744407">
        <ele>223.0</ele>
        <time>2020-07-10T06:08:03Z</time>
      </trkpt>
      <trkpt lat="49.319151" lon="6.744433">
        <ele>223.0</ele>
        <time>2020-07-10T06:08:05Z</time>
      </trkpt>
      <trkpt lat="49.319214" lon="6.74446">
        <ele>223.0</ele>
        <time>2020-07-10T06:08:07Z</time>
      </trkpt>
      <trkpt lat="49.319276" lon="6.744503">
        <ele>224.0</ele>
        <time>2020-07-10T06:08:09Z</time>
      </trkpt>
      <trkpt lat="49.319339" lon="6.744549">
        <ele>224.0</ele>
        <time>2020-07-10T06:08:11Z</time>
      </trkpt>
      <trkpt lat="49.31939" lon="6.744562">
        <ele>223.0</ele>
        <time>2020-07-10T06:08:13Z</time>
      </trkpt>
      <trkpt lat="49.319444" lon="6.744582">
        <ele>223.0</ele>
        <time>2020-07-10T06:08:15Z</time>
      </trkpt>
      <trkpt lat="49.319497" lon="6.744669">
        <ele>222.0</ele>
        <time>2020-07-10T06:08:17Z</time>
      </trkpt>
      <trkpt lat="49.319546" lon="6.744769">
        <ele>221.0</ele>
        <time>2020-07-10T06:08:19Z</time>
      </trkpt>
      <trkpt lat="49.319597" lon="6.744876">
        <ele>221.0</ele>
        <time>2020-07-10T06:08:21Z</time>
      </trkpt>
      <trkpt lat="49.319659" lon="6.744997">
        <ele>220.0</ele>
        <time>2020-07-10T06:08:23Z</time>
      </trkpt>
      <trkpt lat="49.319744" lon="6.745114">
        <ele>222.0</ele>
        <time>2020-07-10T06:08:25Z</time>
      </trkpt>
      <trkpt lat="49.319788" lon="6.745219">
        <ele>222.0</ele>
        <time>2020-07-10T06:08:27Z</time>
      </trkpt>
      <trkpt lat="49.319821" lon="6.745311">
        <ele>222.0</ele>
        <time>2020-07-10T06:08:29Z</time>
      </trkpt>
      <trkpt lat="49.319855" lon="6.745424">
        <ele>222.0</ele>
        <time>2020-07-10T06:08:31Z</time>
      </trkpt>
      <trkpt lat="49.319886" lon="6.745544">
        <ele>223.0</ele>
        <time>2020-07-10T06:08:33Z</time>
      </trkpt>
      <trkpt lat="49.319911" lon="6.745678">
        <ele>225.0</ele>
        <time>2020-07-10T06:08:35Z</time>
      </trkpt>
      <trkpt lat="49.3199" lon="6.745779">
        <ele>225.0</ele>
        <time>2020-07-10T06:08:37Z</time>
      </trkpt>
      <trkpt lat="49.319857" lon="6.745801">
        <ele>227.0</ele>
        <time>2020-07-10T06:08:39Z</time>
      </trkpt>
      <trkpt lat="49.319794" lon="6.745779">
        <ele>227.0</ele>
        <time>2020-07-10T06:08:41Z</time>
      </trkpt>
      <trkpt lat="49.319716" lon="6.745762">
        <ele>228.0</ele>
        <time>2020-07-10T06:08:43Z</time>
      </trkpt>
      <trkpt lat="49.31964" lon="6.745755">
        <ele>229.0</ele>
        <time>2020-07-10T06:08:45Z</time>
      </trkpt>
      <trkpt lat="49.319565" lon="6.74575">
        <ele>229.0</ele>
        <time>2020-07-10T06:08:47Z</time>
      </trkpt>
      <trkpt lat="49.319496" lon="6.745762">
        <ele>229.0</ele>
        <time>2020-07-10T06:08:49Z</time>
      </trkpt>
      <trkpt lat="49.319419" lon="6.745784">
        <ele>230.0</ele>
        <time>2020-07-10T06:08:51Z</time>
      </trkpt>
      <trkpt lat="49.319339" lon="6.745773">
        <ele>230.0</ele>
        <time>2020-07-10T06:08:53Z</time>
      </trkpt>
      <trkpt lat="49.319243" lon="6.745757">
        <ele>230.0</ele>
        <time>2020-07-10T06:08:55Z</time>
      </trkpt>
      <trkpt lat="49.31915" lon="6.745749">
        <ele>230.0</ele>
        <time>2020-07-10T06:08:57Z</time>
      </trkpt>
      <trkpt lat="49.31906" lon="6.745746">
        <ele>230.0</ele>
        <time>2020-07-10T06:08:59Z</time>
      </trkpt>
      <trkpt lat="49.318979" lon="6.745756">
        <ele>230.0</ele>
        <time>2020-07-10T06:09:01Z</time>
      </trkpt>
      <trkpt lat="49.3189" lon="6.745801">
        <ele>229.0</ele>
        <time>2020-07-10T06:09:03Z</time>
      </trkpt>
      <trkpt lat="49.318814" lon="6.74587">
        <ele>229.0</ele>
        <time>2020-07-10T06:09:05Z</time>
      </trkpt>
      <trkpt lat="49.318734" lon="6.745944">
        <ele>229.0</ele>
        <time>2020-07-10T06:09:07Z</time>
      </trkpt>
      <trkpt lat="49.318654" lon="6.746035">
        <ele>228.0</ele>
        <time>2020-07-10T06:09:09Z</time>
      </trkpt>
      <trkpt lat="49.318579" lon="6.746121">
        <ele>228.0</ele>
        <time>2020-07-10T06:09:11Z</time>
      </trkpt>
      <trkpt lat="49.318513" lon="6.746214">
        <ele>228.0</ele>
        <time>2020-07-10T06:09:13Z</time>
      </trkpt>
      <trkpt lat="49.318447" lon="6.746308">
        <ele>229.0</ele>
        <time>2020-07-10T06:09:15Z</time>
      </trkpt>
      <trkpt lat="49.318377" lon="6.746391">
        <ele>228.0</ele>
        <time>2020-07-10T06:09:17Z</time>
      </trkpt>
      <trkpt lat="49.318256" lon="6.746519">
        <ele>228.0</ele>
        <time>2020-07-10T06:09:20Z</time>
      </trkpt>
      <trkpt lat="49.31818" lon="6.746614">
        <ele>228.0</ele>
        <time>2020-07-10T06:09:22Z</time>
      </trkpt>
      <trkpt lat="49.318114" lon="6.746711">
        <ele>228.0</ele>
        <time>2020-07-10T06:09:24Z</time>
      </trkpt>
      <trkpt lat="49.318049" lon="6.746808">
        <ele>228.0</ele>
        <time>2020-07-10T06:09:26Z</time>
      </trkpt>
      <trkpt lat="49.31799" lon="6.746916">
        <ele>228.0</ele>
        <time>2020-07-10T06:09:28Z</time>
      </trkpt>
      <trkpt lat="49.317927" lon="6.747018">
        <ele>228.0</ele>
        <time>2020-07-10T06:09:30Z</time>
      </trkpt>
      <trkpt lat="49.317865" lon="6.747105">
        <ele>229.0</ele>
        <time>2020-07-10T06:09:32Z</time>
      </trkpt>
      <trkpt lat="49.317791" lon="6.747183">
        <ele>229.0</ele>
        <time>2020-07-10T06:09:34Z</time>
      </trkpt>
      <trkpt lat="49.31773" lon="6.747259">
        <ele>228.0</ele>
        <time>2020-07-10T06:09:36Z</time>
      </trkpt>
      <trkpt lat="49.31767" lon="6.747332">
        <ele>228.0</ele>
        <time>2020-07-10T06:09:38Z</time>
      </trkpt>
      <trkpt lat="49.317619" lon="6.747402">
        <ele>227.0</ele>
        <time>2020-07-10T06:09:40Z</time>
      </trkpt>
      <trkpt lat="49.317573" lon="6.747473">
        <ele>227.0</ele>
        <time>2020-07-10T06:09:42Z</time>
      </trkpt>
      <trkpt lat="49.317516" lon="6.747549">
        <ele>228.0</ele>
        <time>2020-07-10T06:09:44Z</time>
      </trkpt>
      <trkpt lat="49.317461" lon="6.747635">
        <ele>228.0</ele>
        <time>2020-07-10T06:09:46Z</time>
      </trkpt>
      <trkpt lat="49.317408" lon="6.747714">
        <ele>228.0</ele>
        <time>2020-07-10T06:09:48Z</time>
      </trkpt>
      <trkpt lat="49.317357" lon="6.74779">
        <ele>228.0</ele>
        <time>2020-07-10T06:09:50Z</time>
      </trkpt>
      <trkpt lat="49.317308" lon="6.747878">
        <ele>228.0</ele>
        <time>2020-07-10T06:09:52Z</time>
      </trkpt>
      <trkpt lat="49.317251" lon="6.747959">
        <ele>229.0</ele>
        <time>2020-07-10T06:09:54Z</time>
      </trkpt>
      <trkpt lat="49.317197" lon="6.748048">
        <ele>228.0</ele>
        <time>2020-07-10T06:09:56Z</time>
      </trkpt>
      <trkpt lat="49.317139" lon="6.748128">
        <ele>229.0</ele>
        <time>2020-07-10T06:09:58Z</time>
      </trkpt>
      <trkpt lat="49.317095" lon="6.748163">
        <ele>230.0</ele>
        <time>2020-07-10T06:10:00Z</time>
      </trkpt>
      <trkpt lat="49.31707" lon="6.748184">
        <ele>230.0</ele>
        <time>2020-07-10T06:10:02Z</time>
      </trkpt>
      <trkpt lat="49.317059" lon="6.748191">
        <ele>230.0</ele>
        <time>2020-07-10T06:10:04Z</time>
      </trkpt>
      <trkpt lat="49.317061" lon="6.748193">
        <ele>230.0</ele>
        <time>2020-07-10T06:10:06Z</time>
      </trkpt>
      <trkpt lat="49.317061" lon="6.748194">
        <ele>230.0</ele>
        <time>2020-07-10T06:10:08Z</time>
      </trkpt>
      <trkpt lat="49.317061" lon="6.748194">
        <ele>230.0</ele>
        <time>2020-07-10T06:10:10Z</time>
      </trkpt>
      <trkpt lat="49.317046" lon="6.748219">
        <ele>231.0</ele>
        <time>2020-07-10T06:10:52Z</time>
      </trkpt>
      <trkpt lat="49.317046" lon="6.748219">
        <ele>231.0</ele>
        <time>2020-07-10T06:10:54Z</time>
      </trkpt>
      <trkpt lat="49.317046" lon="6.748219">
        <ele>231.0</ele>
        <time>2020-07-10T06:10:56Z</time>
      </trkpt>
      <trkpt lat="49.317046" lon="6.748219">
        <ele>231.0</ele>
        <time>2020-07-10T06:10:58Z</time>
      </trkpt>
      <trkpt lat="49.317046" lon="6.748219">
        <ele>231.0</ele>
        <time>2020-07-10T06:11:00Z</time>
      </trkpt>
      <trkpt lat="49.317046" lon="6.748219">
        <ele>231.0</ele>
        <time>2020-07-10T06:11:02Z</time>
      </trkpt>
      <trkpt lat="49.317046" lon="6.748219">
        <ele>231.0</ele>
        <time>2020-07-10T06:11:04Z</time>
      </trkpt>
      <trkpt lat="49.317046" lon="6.748219">
        <ele>231.0</ele>
        <time>2020-07-10T06:11:06Z</time>
      </trkpt>
      <trkpt lat="49.317046" lon="6.748219">
        <ele>231.0</ele>
        <time>2020-07-10T06:11:08Z</time>
      </trkpt>
      <trkpt lat="49.317046" lon="6.748219">
        <ele>231.0</ele>
        <time>2020-07-10T06:11:10Z</time>
      </trkpt>
      <trkpt lat="49.317046" lon="6.748219">
        <ele>231.0</ele>
        <time>2020-07-10T06:11:12Z</time>
      </trkpt>
      <trkpt lat="49.317046" lon="6.748219">
        <ele>231.0</ele>
        <time>2020-07-10T06:11:14Z</time>
      </trkpt>
      <trkpt lat="49.317026" lon="6.748239">
        <ele>231.0</ele>
        <time>2020-07-10T06:11:16Z</time>
      </trkpt>
      <trkpt lat="49.317004" lon="6.748279">
        <ele>230.0</ele>
        <time>2020-07-10T06:11:18Z</time>
      </trkpt>
      <trkpt lat="49.316954" lon="6.748331">
        <ele>230.0</ele>
        <time>2020-07-10T06:11:20Z</time>
      </trkpt>
      <trkpt lat="49.316898" lon="6.748403">
        <ele>229.0</ele>
        <time>2020-07-10T06:11:22Z</time>
      </trkpt>
      <trkpt lat="49.316854" lon="6.748489">
        <ele>229.0</ele>
        <time>2020-07-10T06:11:24Z</time>
      </trkpt>
      <trkpt lat="49.316799" lon="6.748587">
        <ele>229.0</ele>
        <time>2020-07-10T06:11:26Z</time>
      </trkpt>
      <trkpt lat="49.316748" lon="6.748673">
        <ele>229.0</ele>
        <time>2020-07-10T06:11:28Z</time>
      </trkpt>
      <trkpt lat="49.316719" lon="6.748748">
        <ele>229.0</ele>
        <time>2020-07-10T06:11:30Z</time>
      </trkpt>
      <trkpt lat="49.316721" lon="6.748794">
        <ele>228.0</ele>
        <time>2020-07-10T06:11:32Z</time>
      </trkpt>
      <trkpt lat="49.316716" lon="6.74879">
        <ele>228.0</ele>
        <time>2020-07-10T06:11:34Z</time>
      </trkpt>
      <trkpt lat="49.316717" lon="6.74879">
        <ele>228.0</ele>
        <time>2020-07-10T06:11:36Z</time>
      </trkpt>
      <trkpt lat="49.316717" lon="6.74879">
        <ele>228.0</ele>
        <time>2020-07-10T06:11:38Z</time>
      </trkpt>
      <trkpt lat="49.316717" lon="6.74879">
        <ele>228.0</ele>
        <time>2020-07-10T06:11:40Z</time>
      </trkpt>
      <trkpt lat="49.316717" lon="6.74879">
        <ele>228.0</ele>
        <time>2020-07-10T06:11:42Z</time>
      </trkpt>
      <trkpt lat="49.316717" lon="6.74879">
        <ele>228.0</ele>
        <time>2020-07-10T06:11:44Z</time>
      </trkpt>
      <trkpt lat="49.31672" lon="6.748796">
        <ele>228.0</ele>
        <time>2020-07-10T06:11:46Z</time>
      </trkpt>
      <trkpt lat="49.31674" lon="6.748841">
        <ele>228.0</ele>
        <time>2020-07-10T06:11:48Z</time>
      </trkpt>
      <trkpt lat="49.316755" lon="6.748899">
        <ele>228.0</ele>
        <time>2020-07-10T06:11:50Z</time>
      </trkpt>
      <trkpt lat="49.316782" lon="6.748948">
        <ele>228.0</ele>
        <time>2020-07-10T06:11:52Z</time>
      </trkpt>
      <trkpt lat="49.316811" lon="6.748994">
        <ele>228.0</ele>
        <time>2020-07-10T06:11:54Z</time>
      </trkpt>
      <trkpt lat="49.316847" lon="6.74905">
        <ele>228.0</ele>
        <time>2020-07-10T06:11:56Z</time>
      </trkpt>
      <trkpt lat="49.316882" lon="6.749086">
        <ele>228.0</ele>
        <time>2020-07-10T06:11:58Z</time>
      </trkpt>
      <trkpt lat="49.31689" lon="6.749118">
        <ele>228.0</ele>
        <time>2020-07-10T06:12:00Z</time>
      </trkpt>
      <trkpt lat="49.316853" lon="6.749091">
        <ele>228.0</ele>
        <time>2020-07-10T06:12:02Z</time>
      </trkpt>
      <trkpt lat="49.31681" lon="6.749034">
        <ele>228.0</ele>
        <time>2020-07-10T06:12:04Z</time>
      </trkpt>
      <trkpt lat="49.316796" lon="6.748968">
        <ele>228.0</ele>
        <time>2020-07-10T06:12:06Z</time>
      </trkpt>
      <trkpt lat="49.316859" lon="6.748929">
        <ele>227.0</ele>
        <time>2020-07-10T06:12:08Z</time>
      </trkpt>
      <trkpt lat="49.316907" lon="6.748893">
        <ele>227.0</ele>
        <time>2020-07-10T06:12:10Z</time>
      </trkpt>
      <trkpt lat="49.316968" lon="6.748868">
        <ele>227.0</ele>
        <time>2020-07-10T06:12:12Z</time>
      </trkpt>
      <trkpt lat="49.317022" lon="6.748835">
        <ele>227.0</ele>
        <time>2020-07-10T06:12:14Z</time>
      </trkpt>
      <trkpt lat="49.317098" lon="6.748772">
        <ele>227.0</ele>
        <time>2020-07-10T06:12:17Z</time>
      </trkpt>
      <trkpt lat="49.317131" lon="6.748789">
        <ele>227.0</ele>
        <time>2020-07-10T06:12:19Z</time>
      </trkpt>
      <trkpt lat="49.31716" lon="6.748845">
        <ele>227.0</ele>
        <time>2020-07-10T06:12:21Z</time>
      </trkpt>
      <trkpt lat="49.3172" lon="6.7489">
        <ele>228.0</ele>
        <time>2020-07-10T06:12:23Z</time>
      </trkpt>
      <trkpt lat="49.317239" lon="6.748972">
        <ele>228.0</ele>
        <time>2020-07-10T06:12:25Z</time>
      </trkpt>
      <trkpt lat="49.317283" lon="6.749061">
        <ele>228.0</ele>
        <time>2020-07-10T06:12:27Z</time>
      </trkpt>
      <trkpt lat="49.317329" lon="6.749138">
        <ele>228.0</ele>
        <time>2020-07-10T06:12:29Z</time>
      </trkpt>
      <trkpt lat="49.31738" lon="6.749203">
        <ele>228.0</ele>
        <time>2020-07-10T06:12:31Z</time>
      </trkpt>
      <trkpt lat="49.317444" lon="6.749259">
        <ele>228.0</ele>
        <time>2020-07-10T06:12:33Z</time>
      </trkpt>
      <trkpt lat="49.317504" lon="6.74935">
        <ele>227.0</ele>
        <time>2020-07-10T06:12:35Z</time>
      </trkpt>
      <trkpt lat="49.317568" lon="6.749439">
        <ele>228.0</ele>
        <time>2020-07-10T06:12:37Z</time>
      </trkpt>
      <trkpt lat="49.317635" lon="6.749522">
        <ele>228.0</ele>
        <time>2020-07-10T06:12:39Z</time>
      </trkpt>
      <trkpt lat="49.317695" lon="6.749621">
        <ele>228.0</ele>
        <time>2020-07-10T06:12:41Z</time>
      </trkpt>
      <trkpt lat="49.317774" lon="6.749718">
        <ele>229.0</ele>
        <time>2020-07-10T06:12:43Z</time>
      </trkpt>
      <trkpt lat="49.317849" lon="6.749816">
        <ele>229.0</ele>
        <time>2020-07-10T06:12:45Z</time>
      </trkpt>
      <trkpt lat="49.317923" lon="6.749918">
        <ele>230.0</ele>
        <time>2020-07-10T06:12:47Z</time>
      </trkpt>
      <trkpt lat="49.317998" lon="6.750019">
        <ele>229.0</ele>
        <time>2020-07-10T06:12:49Z</time>
      </trkpt>
      <trkpt lat="49.318076" lon="6.750126">
        <ele>229.0</ele>
        <time>2020-07-10T06:12:51Z</time>
      </trkpt>
      <trkpt lat="49.318162" lon="6.750239">
        <ele>229.0</ele>
        <time>2020-07-10T06:12:53Z</time>
      </trkpt>
      <trkpt lat="49.318245" lon="6.750349">
        <ele>229.0</ele>
        <time>2020-07-10T06:12:55Z</time>
      </trkpt>
      <trkpt lat="49.318328" lon="6.750465">
        <ele>229.0</ele>
        <time>2020-07-10T06:12:57Z</time>
      </trkpt>
      <trkpt lat="49.318406" lon="6.750584">
        <ele>229.0</ele>
        <time>2020-07-10T06:12:59Z</time>
      </trkpt>
      <trkpt lat="49.318468" lon="6.750723">
        <ele>229.0</ele>
        <time>2020-07-10T06:13:01Z</time>
      </trkpt>
      <trkpt lat="49.318507" lon="6.750875">
        <ele>229.0</ele>
        <time>2020-07-10T06:13:03Z</time>
      </trkpt>
      <trkpt lat="49.318518" lon="6.751039">
        <ele>229.0</ele>
        <time>2020-07-10T06:13:05Z</time>
      </trkpt>
      <trkpt lat="49.318512" lon="6.751199">
        <ele>229.0</ele>
        <time>2020-07-10T06:13:07Z</time>
      </trkpt>
      <trkpt lat="49.31848" lon="6.751359">
        <ele>229.0</ele>
        <time>2020-07-10T06:13:09Z</time>
      </trkpt>
      <trkpt lat="49.318427" lon="6.751497">
        <ele>228.0</ele>
        <time>2020-07-10T06:13:11Z</time>
      </trkpt>
      <trkpt lat="49.318363" lon="6.751617">
        <ele>229.0</ele>
        <time>2020-07-10T06:13:13Z</time>
      </trkpt>
      <trkpt lat="49.318301" lon="6.751737">
        <ele>229.0</ele>
        <time>2020-07-10T06:13:15Z</time>
      </trkpt>
      <trkpt lat="49.318239" lon="6.75186">
        <ele>229.0</ele>
        <time>2020-07-10T06:13:17Z</time>
      </trkpt>
      <trkpt lat="49.318176" lon="6.751993">
        <ele>230.0</ele>
        <time>2020-07-10T06:13:19Z</time>
      </trkpt>
      <trkpt lat="49.318112" lon="6.752133">
        <ele>230.0</ele>
        <time>2020-07-10T06:13:21Z</time>
      </trkpt>
      <trkpt lat="49.31805" lon="6.752266">
        <ele>230.0</ele>
        <time>2020-07-10T06:13:23Z</time>
      </trkpt>
      <trkpt lat="49.318" lon="6.752401">
        <ele>229.0</ele>
        <time>2020-07-10T06:13:25Z</time>
      </trkpt>
      <trkpt lat="49.317952" lon="6.752534">
        <ele>229.0</ele>
        <time>2020-07-10T06:13:27Z</time>
      </trkpt>
      <trkpt lat="49.317922" lon="6.752671">
        <ele>229.0</ele>
        <time>2020-07-10T06:13:29Z</time>
      </trkpt>
      <trkpt lat="49.317884" lon="6.752803">
        <ele>228.0</ele>
        <time>2020-07-10T06:13:31Z</time>
      </trkpt>
      <trkpt lat="49.317851" lon="6.752955">
        <ele>228.0</ele>
        <time>2020-07-10T06:13:33Z</time>
      </trkpt>
      <trkpt lat="49.317817" lon="6.753106">
        <ele>229.0</ele>
        <time>2020-07-10T06:13:35Z</time>
      </trkpt>
      <trkpt lat="49.317791" lon="6.753255">
        <ele>229.0</ele>
        <time>2020-07-10T06:13:37Z</time>
      </trkpt>
      <trkpt lat="49.317767" lon="6.753405">
        <ele>229.0</ele>
        <time>2020-07-10T06:13:39Z</time>
      </trkpt>
      <trkpt lat="49.317732" lon="6.753552">
        <ele>229.0</ele>
        <time>2020-07-10T06:13:41Z</time>
      </trkpt>
      <trkpt lat="49.317693" lon="6.753692">
        <ele>229.0</ele>
        <time>2020-07-10T06:13:43Z</time>
      </trkpt>
      <trkpt lat="49.317661" lon="6.753837">
        <ele>228.0</ele>
        <time>2020-07-10T06:13:45Z</time>
      </trkpt>
      <trkpt lat="49.317635" lon="6.753987">
        <ele>229.0</ele>
        <time>2020-07-10T06:13:47Z</time>
      </trkpt>
      <trkpt lat="49.317604" lon="6.754118">
        <ele>229.0</ele>
        <time>2020-07-10T06:13:49Z</time>
      </trkpt>
      <trkpt lat="49.31757" lon="6.754226">
        <ele>230.0</ele>
        <time>2020-07-10T06:13:51Z</time>
      </trkpt>
      <trkpt lat="49.317533" lon="6.75434">
        <ele>230.0</ele>
        <time>2020-07-10T06:13:53Z</time>
      </trkpt>
      <trkpt lat="49.317492" lon="6.754445">
        <ele>230.0</ele>
        <time>2020-07-10T06:13:55Z</time>
      </trkpt>
      <trkpt lat="49.317448" lon="6.754528">
        <ele>231.0</ele>
        <time>2020-07-10T06:13:57Z</time>
      </trkpt>
      <trkpt lat="49.31742" lon="6.754582">
        <ele>230.0</ele>
        <time>2020-07-10T06:13:59Z</time>
      </trkpt>
      <trkpt lat="49.317428" lon="6.754613">
        <ele>230.0</ele>
        <time>2020-07-10T06:14:01Z</time>
      </trkpt>
      <trkpt lat="49.317451" lon="6.754636">
        <ele>230.0</ele>
        <time>2020-07-10T06:14:03Z</time>
      </trkpt>
      <trkpt lat="49.317446" lon="6.754651">
        <ele>229.0</ele>
        <time>2020-07-10T06:14:05Z</time>
      </trkpt>
      <trkpt lat="49.317441" lon="6.754654">
        <ele>229.0</ele>
        <time>2020-07-10T06:14:07Z</time>
      </trkpt>
      <trkpt lat="49.317442" lon="6.754652">
        <ele>229.0</ele>
        <time>2020-07-10T06:14:09Z</time>
      </trkpt>
      <trkpt lat="49.317442" lon="6.754652">
        <ele>229.0</ele>
        <time>2020-07-10T06:14:11Z</time>
      </trkpt>
      <trkpt lat="49.317442" lon="6.754652">
        <ele>229.0</ele>
        <time>2020-07-10T06:16:12Z</time>
      </trkpt>
      <trkpt lat="49.317442" lon="6.754652">
        <ele>229.0</ele>
        <time>2020-07-10T06:16:14Z</time>
      </trkpt>
      <trkpt lat="49.317442" lon="6.754652">
        <ele>229.0</ele>
        <time>2020-07-10T06:16:16Z</time>
      </trkpt>
      <trkpt lat="49.317442" lon="6.754652">
        <ele>229.0</ele>
        <time>2020-07-10T06:16:18Z</time>
      </trkpt>
      <trkpt lat="49.317442" lon="6.754652">
        <ele>229.0</ele>
        <time>2020-07-10T06:16:20Z</time>
      </trkpt>
      <trkpt lat="49.317442" lon="6.754652">
        <ele>229.0</ele>
        <time>2020-07-10T06:16:22Z</time>
      </trkpt>
      <trkpt lat="49.317442" lon="6.754652">
        <ele>229.0</ele>
        <time>2020-07-10T06:16:24Z</time>
      </trkpt>
      <trkpt lat="49.317442" lon="6.754652">
        <ele>229.0</ele>
        <time>2020-07-10T06:16:26Z</time>
      </trkpt>
      <trkpt lat="49.317442" lon="6.754652">
        <ele>229.0</ele>
        <time>2020-07-10T06:16:28Z</time>
      </trkpt>
      <trkpt lat="49.317442" lon="6.754652">
        <ele>229.0</ele>
        <time>2020-07-10T06:16:30Z</time>
      </trkpt>
      <trkpt lat="49.317442" lon="6.754652">
        <ele>229.0</ele>
        <time>2020-07-10T06:16:32Z</time>
      </trkpt>
      <trkpt lat="49.317436" lon="6.75465">
        <ele>228.0</ele>
        <time>2020-07-10T06:16:34Z</time>
      </trkpt>
      <trkpt lat="49.317423" lon="6.754635">
        <ele>228.0</ele>
        <time>2020-07-10T06:16:36Z</time>
      </trkpt>
      <trkpt lat="49.317411" lon="6.754598">
        <ele>228.0</ele>
        <time>2020-07-10T06:16:38Z</time>
      </trkpt>
      <trkpt lat="49.317412" lon="6.754567">
        <ele>228.0</ele>
        <time>2020-07-10T06:16:40Z</time>
      </trkpt>
      <trkpt lat="49.317387" lon="6.75456">
        <ele>228.0</ele>
        <time>2020-07-10T06:16:42Z</time>
      </trkpt>
      <trkpt lat="49.317374" lon="6.754569">
        <ele>229.0</ele>
        <time>2020-07-10T06:16:44Z</time>
      </trkpt>
      <trkpt lat="49.317374" lon="6.754571">
        <ele>229.0</ele>
        <time>2020-07-10T06:16:46Z</time>
      </trkpt>
      <trkpt lat="49.317374" lon="6.754571">
        <ele>229.0</ele>
        <time>2020-07-10T06:16:48Z</time>
      </trkpt>
      <trkpt lat="49.317374" lon="6.754571">
        <ele>229.0</ele>
        <time>2020-07-10T06:16:50Z</time>
      </trkpt>
      <trkpt lat="49.317374" lon="6.754571">
        <ele>229.0</ele>
        <time>2020-07-10T06:17:20Z</time>
      </trkpt>
      <trkpt lat="49.317374" lon="6.754571">
        <ele>229.0</ele>
        <time>2020-07-10T06:17:22Z</time>
      </trkpt>
      <trkpt lat="49.317374" lon="6.754571">
        <ele>229.0</ele>
        <time>2020-07-10T06:17:24Z</time>
      </trkpt>
      <trkpt lat="49.317374" lon="6.754571">
        <ele>229.0</ele>
        <time>2020-07-10T06:17:26Z</time>
      </trkpt>
      <trkpt lat="49.317374" lon="6.754571">
        <ele>229.0</ele>
        <time>2020-07-10T06:17:28Z</time>
      </trkpt>
      <trkpt lat="49.317374" lon="6.754571">
        <ele>229.0</ele>
        <time>2020-07-10T06:17:30Z</time>
      </trkpt>
      <trkpt lat="49.317374" lon="6.754571">
        <ele>229.0</ele>
        <time>2020-07-10T06:17:32Z</time>
      </trkpt>
      <trkpt lat="49.317374" lon="6.754571">
        <ele>229.0</ele>
        <time>2020-07-10T06:17:34Z</time>
      </trkpt>
      <trkpt lat="49.317374" lon="6.754571">
        <ele>229.0</ele>
        <time>2020-07-10T06:17:36Z</time>
      </trkpt>
      <trkpt lat="49.317374" lon="6.754571">
        <ele>229.0</ele>
        <time>2020-07-10T06:17:38Z</time>
      </trkpt>
      <trkpt lat="49.317374" lon="6.754571">
        <ele>229.0</ele>
        <time>2020-07-10T06:17:40Z</time>
      </trkpt>
      <trkpt lat="49.317374" lon="6.754571">
        <ele>229.0</ele>
        <time>2020-07-10T06:17:42Z</time>
      </trkpt>
      <trkpt lat="49.317369" lon="6.754572">
        <ele>228.0</ele>
        <time>2020-07-10T06:17:44Z</time>
      </trkpt>
      <trkpt lat="49.317352" lon="6.754601">
        <ele>228.0</ele>
        <time>2020-07-10T06:17:46Z</time>
      </trkpt>
      <trkpt lat="49.317309" lon="6.754643">
        <ele>228.0</ele>
        <time>2020-07-10T06:17:48Z</time>
      </trkpt>
      <trkpt lat="49.31726" lon="6.754703">
        <ele>228.0</ele>
        <time>2020-07-10T06:17:50Z</time>
      </trkpt>
      <trkpt lat="49.317203" lon="6.754773">
        <ele>229.0</ele>
        <time>2020-07-10T06:17:52Z</time>
      </trkpt>
      <trkpt lat="49.317142" lon="6.75485">
        <ele>228.0</ele>
        <time>2020-07-10T06:17:54Z</time>
      </trkpt>
      <trkpt lat="49.317069" lon="6.754906">
        <ele>228.0</ele>
        <time>2020-07-10T06:17:56Z</time>
      </trkpt>
      <trkpt lat="49.316985" lon="6.754954">
        <ele>228.0</ele>
        <time>2020-07-10T06:17:58Z</time>
      </trkpt>
      <trkpt lat="49.316891" lon="6.75498">
        <ele>228.0</ele>
        <time>2020-07-10T06:18:00Z</time>
      </trkpt>
      <trkpt lat="49.316793" lon="6.754983">
        <ele>228.0</ele>
        <time>2020-07-10T06:18:02Z</time>
      </trkpt>
      <trkpt lat="49.316698" lon="6.754979">
        <ele>229.0</ele>
        <time>2020-07-10T06:18:04Z</time>
      </trkpt>
      <trkpt lat="49.316605" lon="6.75498">
        <ele>229.0</ele>
        <time>2020-07-10T06:18:06Z</time>
      </trkpt>
      <trkpt lat="49.316504" lon="6.754979">
        <ele>229.0</ele>
        <time>2020-07-10T06:18:08Z</time>
      </trkpt>
      <trkpt lat="49.316403" lon="6.754974">
        <ele>229.0</ele>
        <time>2020-07-10T06:18:10Z</time>
      </trkpt>
      <trkpt lat="49.316303" lon="6.754972">
        <ele>230.0</ele>
        <time>2020-07-10T06:18:12Z</time>
      </trkpt>
      <trkpt lat="49.316203" lon="6.754971">
        <ele>231.0</ele>
        <time>2020-07-10T06:18:14Z</time>
      </trkpt>
      <trkpt lat="49.316108" lon="6.754968">
        <ele>231.0</ele>
        <time>2020-07-10T06:18:16Z</time>
      </trkpt>
      <trkpt lat="49.316016" lon="6.754977">
        <ele>232.0</ele>
        <time>2020-07-10T06:18:18Z</time>
      </trkpt>
      <trkpt lat="49.315926" lon="6.75497">
        <ele>232.0</ele>
        <time>2020-07-10T06:18:20Z</time>
      </trkpt>
      <trkpt lat="49.315836" lon="6.754981">
        <ele>232.0</ele>
        <time>2020-07-10T06:18:22Z</time>
      </trkpt>
      <trkpt lat="49.315746" lon="6.75501">
        <ele>232.0</ele>
        <time>2020-07-10T06:18:24Z</time>
      </trkpt>
      <trkpt lat="49.315614" lon="6.75509">
        <ele>232.0</ele>
        <time>2020-07-10T06:18:27Z</time>
      </trkpt>
      <trkpt lat="49.315571" lon="6.755118">
        <ele>232.0</ele>
        <time>2020-07-10T06:18:28Z</time>
      </trkpt>
      <trkpt lat="49.31544" lon="6.755205">
        <ele>232.0</ele>
        <time>2020-07-10T06:18:31Z</time>
      </trkpt>
      <trkpt lat="49.315355" lon="6.755272">
        <ele>232.0</ele>
        <time>2020-07-10T06:18:33Z</time>
      </trkpt>
      <trkpt lat="49.315267" lon="6.755334">
        <ele>233.0</ele>
        <time>2020-07-10T06:18:35Z</time>
      </trkpt>
      <trkpt lat="49.31518" lon="6.755391">
        <ele>233.0</ele>
        <time>2020-07-10T06:18:37Z</time>
      </trkpt>
      <trkpt lat="49.315086" lon="6.755454">
        <ele>233.0</ele>
        <time>2020-07-10T06:18:39Z</time>
      </trkpt>
      <trkpt lat="49.314993" lon="6.755513">
        <ele>233.0</ele>
        <time>2020-07-10T06:18:41Z</time>
      </trkpt>
      <trkpt lat="49.314894" lon="6.755583">
        <ele>233.0</ele>
        <time>2020-07-10T06:18:43Z</time>
      </trkpt>
      <trkpt lat="49.314791" lon="6.755662">
        <ele>233.0</ele>
        <time>2020-07-10T06:18:45Z</time>
      </trkpt>
      <trkpt lat="49.314694" lon="6.755722">
        <ele>233.0</ele>
        <time>2020-07-10T06:18:47Z</time>
      </trkpt>
      <trkpt lat="49.314595" lon="6.755789">
        <ele>233.0</ele>
        <time>2020-07-10T06:18:49Z</time>
      </trkpt>
      <trkpt lat="49.314499" lon="6.755854">
        <ele>233.0</ele>
        <time>2020-07-10T06:18:51Z</time>
      </trkpt>
      <trkpt lat="49.314392" lon="6.75592">
        <ele>233.0</ele>
        <time>2020-07-10T06:18:53Z</time>
      </trkpt>
      <trkpt lat="49.314294" lon="6.755977">
        <ele>233.0</ele>
        <time>2020-07-10T06:18:55Z</time>
      </trkpt>
      <trkpt lat="49.314197" lon="6.756027">
        <ele>233.0</ele>
        <time>2020-07-10T06:18:57Z</time>
      </trkpt>
      <trkpt lat="49.314089" lon="6.756071">
        <ele>233.0</ele>
        <time>2020-07-10T06:18:59Z</time>
      </trkpt>
      <trkpt lat="49.313969" lon="6.756095">
        <ele>233.0</ele>
        <time>2020-07-10T06:19:01Z</time>
      </trkpt>
      <trkpt lat="49.313854" lon="6.756093">
        <ele>234.0</ele>
        <time>2020-07-10T06:19:03Z</time>
      </trkpt>
      <trkpt lat="49.313741" lon="6.756061">
        <ele>233.0</ele>
        <time>2020-07-10T06:19:05Z</time>
      </trkpt>
      <trkpt lat="49.313633" lon="6.756014">
        <ele>232.0</ele>
        <time>2020-07-10T06:19:07Z</time>
      </trkpt>
      <trkpt lat="49.313522" lon="6.75596">
        <ele>233.0</ele>
        <time>2020-07-10T06:19:09Z</time>
      </trkpt>
      <trkpt lat="49.313409" lon="6.755918">
        <ele>233.0</ele>
        <time>2020-07-10T06:19:11Z</time>
      </trkpt>
      <trkpt lat="49.313298" lon="6.75587">
        <ele>232.0</ele>
        <time>2020-07-10T06:19:13Z</time>
      </trkpt>
      <trkpt lat="49.313185" lon="6.755834">
        <ele>232.0</ele>
        <time>2020-07-10T06:19:15Z</time>
      </trkpt>
      <trkpt lat="49.313077" lon="6.755804">
        <ele>232.0</ele>
        <time>2020-07-10T06:19:17Z</time>
      </trkpt>
      <trkpt lat="49.312974" lon="6.755767">
        <ele>231.0</ele>
        <time>2020-07-10T06:19:19Z</time>
      </trkpt>
      <trkpt lat="49.312874" lon="6.755715">
        <ele>231.0</ele>
        <time>2020-07-10T06:19:21Z</time>
      </trkpt>
      <trkpt lat="49.312785" lon="6.755668">
        <ele>231.0</ele>
        <time>2020-07-10T06:19:23Z</time>
      </trkpt>
      <trkpt lat="49.312689" lon="6.755614">
        <ele>230.0</ele>
        <time>2020-07-10T06:19:25Z</time>
      </trkpt>
      <trkpt lat="49.312594" lon="6.755546">
        <ele>231.0</ele>
        <time>2020-07-10T06:19:27Z</time>
      </trkpt>
      <trkpt lat="49.312506" lon="6.755485">
        <ele>230.0</ele>
        <time>2020-07-10T06:19:29Z</time>
      </trkpt>
      <trkpt lat="49.31241" lon="6.755464">
        <ele>231.0</ele>
        <time>2020-07-10T06:19:31Z</time>
      </trkpt>
      <trkpt lat="49.312314" lon="6.755429">
        <ele>231.0</ele>
        <time>2020-07-10T06:19:33Z</time>
      </trkpt>
      <trkpt lat="49.312232" lon="6.755361">
        <ele>232.0</ele>
        <time>2020-07-10T06:19:35Z</time>
      </trkpt>
      <trkpt lat="49.312157" lon="6.75529">
        <ele>233.0</ele>
        <time>2020-07-10T06:19:37Z</time>
      </trkpt>
      <trkpt lat="49.312098" lon="6.755195">
        <ele>233.0</ele>
        <time>2020-07-10T06:19:39Z</time>
      </trkpt>
      <trkpt lat="49.312059" lon="6.755082">
        <ele>233.0</ele>
        <time>2020-07-10T06:19:41Z</time>
      </trkpt>
      <trkpt lat="49.312034" lon="6.754971">
        <ele>233.0</ele>
        <time>2020-07-10T06:19:43Z</time>
      </trkpt>
      <trkpt lat="49.312003" lon="6.754869">
        <ele>233.0</ele>
        <time>2020-07-10T06:19:45Z</time>
      </trkpt>
      <trkpt lat="49.311996" lon="6.754808">
        <ele>233.0</ele>
        <time>2020-07-10T06:19:47Z</time>
      </trkpt>
      <trkpt lat="49.312001" lon="6.754801">
        <ele>233.0</ele>
        <time>2020-07-10T06:19:49Z</time>
      </trkpt>
      <trkpt lat="49.312006" lon="6.754799">
        <ele>234.0</ele>
        <time>2020-07-10T06:19:51Z</time>
      </trkpt>
      <trkpt lat="49.312007" lon="6.7548">
        <ele>234.0</ele>
        <time>2020-07-10T06:19:53Z</time>
      </trkpt>
      <trkpt lat="49.312007" lon="6.7548">
        <ele>234.0</ele>
        <time>2020-07-10T06:19:55Z</time>
      </trkpt>
      <trkpt lat="49.312007" lon="6.7548">
        <ele>234.0</ele>
        <time>2020-07-10T06:20:21Z</time>
      </trkpt>
      <trkpt lat="49.312007" lon="6.7548">
        <ele>234.0</ele>
        <time>2020-07-10T06:20:23Z</time>
      </trkpt>
      <trkpt lat="49.312007" lon="6.7548">
        <ele>234.0</ele>
        <time>2020-07-10T06:20:25Z</time>
      </trkpt>
      <trkpt lat="49.312007" lon="6.7548">
        <ele>234.0</ele>
        <time>2020-07-10T06:20:27Z</time>
      </trkpt>
      <trkpt lat="49.312007" lon="6.7548">
        <ele>234.0</ele>
        <time>2020-07-10T06:20:29Z</time>
      </trkpt>
      <trkpt lat="49.312007" lon="6.7548">
        <ele>234.0</ele>
        <time>2020-07-10T06:20:31Z</time>
      </trkpt>
      <trkpt lat="49.312007" lon="6.7548">
        <ele>234.0</ele>
        <time>2020-07-10T06:20:33Z</time>
      </trkpt>
      <trkpt lat="49.312007" lon="6.7548">
        <ele>234.0</ele>
        <time>2020-07-10T06:20:35Z</time>
      </trkpt>
      <trkpt lat="49.312007" lon="6.7548">
        <ele>234.0</ele>
        <time>2020-07-10T06:20:37Z</time>
      </trkpt>
      <trkpt lat="49.312007" lon="6.7548">
        <ele>234.0</ele>
        <time>2020-07-10T06:20:39Z</time>
      </trkpt>
      <trkpt lat="49.312007" lon="6.7548">
        <ele>234.0</ele>
        <time>2020-07-10T06:20:41Z</time>
      </trkpt>
      <trkpt lat="49.312007" lon="6.7548">
        <ele>234.0</ele>
        <time>2020-07-10T06:20:43Z</time>
      </trkpt>
      <trkpt lat="49.312008" lon="6.754783">
        <ele>233.0</ele>
        <time>2020-07-10T06:20:45Z</time>
      </trkpt>
      <trkpt lat="49.311998" lon="6.754728">
        <ele>234.0</ele>
        <time>2020-07-10T06:20:47Z</time>
      </trkpt>
      <trkpt lat="49.311981" lon="6.754679">
        <ele>234.0</ele>
        <time>2020-07-10T06:20:49Z</time>
      </trkpt>
      <trkpt lat="49.311965" lon="6.754622">
        <ele>234.0</ele>
        <time>2020-07-10T06:20:51Z</time>
      </trkpt>
      <trkpt lat="49.311948" lon="6.75458">
        <ele>234.0</ele>
        <time>2020-07-10T06:20:53Z</time>
      </trkpt>
      <trkpt lat="49.311935" lon="6.754549">
        <ele>235.0</ele>
        <time>2020-07-10T06:20:55Z</time>
      </trkpt>
      <trkpt lat="49.31191" lon="6.754509">
        <ele>235.0</ele>
        <time>2020-07-10T06:20:57Z</time>
      </trkpt>
      <trkpt lat="49.311863" lon="6.754514">
        <ele>234.0</ele>
        <time>2020-07-10T06:20:59Z</time>
      </trkpt>
      <trkpt lat="49.311797" lon="6.754586">
        <ele>234.0</ele>
        <time>2020-07-10T06:21:01Z</time>
      </trkpt>
      <trkpt lat="49.311716" lon="6.754622">
        <ele>234.0</ele>
        <time>2020-07-10T06:21:03Z</time>
      </trkpt>
      <trkpt lat="49.311637" lon="6.754654">
        <ele>234.0</ele>
        <time>2020-07-10T06:21:05Z</time>
      </trkpt>
      <trkpt lat="49.311562" lon="6.754685">
        <ele>234.0</ele>
        <time>2020-07-10T06:21:07Z</time>
      </trkpt>
      <trkpt lat="49.311469" lon="6.754725">
        <ele>234.0</ele>
        <time>2020-07-10T06:21:09Z</time>
      </trkpt>
      <trkpt lat="49.31139" lon="6.75476">
        <ele>234.0</ele>
        <time>2020-07-10T06:21:11Z</time>
      </trkpt>
      <trkpt lat="49.311307" lon="6.754784">
        <ele>234.0</ele>
        <time>2020-07-10T06:21:13Z</time>
      </trkpt>
      <trkpt lat="49.311221" lon="6.754828">
        <ele>234.0</ele>
        <time>2020-07-10T06:21:15Z</time>
      </trkpt>
      <trkpt lat="49.311144" lon="6.754861">
        <ele>234.0</ele>
        <time>2020-07-10T06:21:17Z</time>
      </trkpt>
      <trkpt lat="49.311058" lon="6.754896">
        <ele>234.0</ele>
        <time>2020-07-10T06:21:19Z</time>
      </trkpt>
      <trkpt lat="49.310968" lon="6.754935">
        <ele>233.0</ele>
        <time>2020-07-10T06:21:21Z</time>
      </trkpt>
      <trkpt lat="49.310882" lon="6.754971">
        <ele>234.0</ele>
        <time>2020-07-10T06:21:23Z</time>
      </trkpt>
      <trkpt lat="49.310741" lon="6.75503">
        <ele>234.0</ele>
        <time>2020-07-10T06:21:26Z</time>
      </trkpt>
      <trkpt lat="49.310694" lon="6.75506">
        <ele>234.0</ele>
        <time>2020-07-10T06:21:27Z</time>
      </trkpt>
      <trkpt lat="49.310561" lon="6.755159">
        <ele>236.0</ele>
        <time>2020-07-10T06:21:30Z</time>
      </trkpt>
      <trkpt lat="49.310468" lon="6.755198">
        <ele>237.0</ele>
        <time>2020-07-10T06:21:32Z</time>
      </trkpt>
      <trkpt lat="49.310371" lon="6.755246">
        <ele>237.0</ele>
        <time>2020-07-10T06:21:34Z</time>
      </trkpt>
      <trkpt lat="49.310276" lon="6.755273">
        <ele>237.0</ele>
        <time>2020-07-10T06:21:36Z</time>
      </trkpt>
      <trkpt lat="49.310173" lon="6.755307">
        <ele>238.0</ele>
        <time>2020-07-10T06:21:38Z</time>
      </trkpt>
      <trkpt lat="49.310066" lon="6.755347">
        <ele>237.0</ele>
        <time>2020-07-10T06:21:40Z</time>
      </trkpt>
      <trkpt lat="49.309966" lon="6.755404">
        <ele>238.0</ele>
        <time>2020-07-10T06:21:42Z</time>
      </trkpt>
      <trkpt lat="49.30986" lon="6.755461">
        <ele>237.0</ele>
        <time>2020-07-10T06:21:44Z</time>
      </trkpt>
      <trkpt lat="49.309752" lon="6.755513">
        <ele>237.0</ele>
        <time>2020-07-10T06:21:46Z</time>
      </trkpt>
      <trkpt lat="49.30964" lon="6.75557">
        <ele>237.0</ele>
        <time>2020-07-10T06:21:48Z</time>
      </trkpt>
      <trkpt lat="49.309533" lon="6.75561">
        <ele>237.0</ele>
        <time>2020-07-10T06:21:50Z</time>
      </trkpt>
      <trkpt lat="49.309422" lon="6.755639">
        <ele>237.0</ele>
        <time>2020-07-10T06:21:52Z</time>
      </trkpt>
      <trkpt lat="49.309318" lon="6.755685">
        <ele>237.0</ele>
        <time>2020-07-10T06:21:54Z</time>
      </trkpt>
      <trkpt lat="49.309217" lon="6.75574">
        <ele>238.0</ele>
        <time>2020-07-10T06:21:56Z</time>
      </trkpt>
      <trkpt lat="49.309118" lon="6.755785">
        <ele>237.0</ele>
        <time>2020-07-10T06:21:58Z</time>
      </trkpt>
      <trkpt lat="49.309016" lon="6.755828">
        <ele>237.0</ele>
        <time>2020-07-10T06:22:00Z</time>
      </trkpt>
      <trkpt lat="49.308916" lon="6.755871">
        <ele>235.0</ele>
        <time>2020-07-10T06:22:02Z</time>
      </trkpt>
      <trkpt lat="49.308802" lon="6.755913">
        <ele>235.0</ele>
        <time>2020-07-10T06:22:04Z</time>
      </trkpt>
      <trkpt lat="49.308696" lon="6.755963">
        <ele>235.0</ele>
        <time>2020-07-10T06:22:06Z</time>
      </trkpt>
      <trkpt lat="49.308588" lon="6.756003">
        <ele>236.0</ele>
        <time>2020-07-10T06:22:08Z</time>
      </trkpt>
      <trkpt lat="49.30848" lon="6.756051">
        <ele>237.0</ele>
        <time>2020-07-10T06:22:10Z</time>
      </trkpt>
      <trkpt lat="49.308386" lon="6.756084">
        <ele>237.0</ele>
        <time>2020-07-10T06:22:12Z</time>
      </trkpt>
      <trkpt lat="49.308288" lon="6.75612">
        <ele>236.0</ele>
        <time>2020-07-10T06:22:14Z</time>
      </trkpt>
      <trkpt lat="49.30818" lon="6.756161">
        <ele>236.0</ele>
        <time>2020-07-10T06:22:16Z</time>
      </trkpt>
      <trkpt lat="49.308076" lon="6.756208">
        <ele>236.0</ele>
        <time>2020-07-10T06:22:18Z</time>
      </trkpt>
      <trkpt lat="49.307976" lon="6.756253">
        <ele>236.0</ele>
        <time>2020-07-10T06:22:20Z</time>
      </trkpt>
      <trkpt lat="49.307879" lon="6.756296">
        <ele>236.0</ele>
        <time>2020-07-10T06:22:22Z</time>
      </trkpt>
      <trkpt lat="49.307778" lon="6.756346">
        <ele>235.0</ele>
        <time>2020-07-10T06:22:24Z</time>
      </trkpt>
      <trkpt lat="49.307678" lon="6.756394">
        <ele>235.0</ele>
        <time>2020-07-10T06:22:26Z</time>
      </trkpt>
      <trkpt lat="49.307581" lon="6.756444">
        <ele>235.0</ele>
        <time>2020-07-10T06:22:28Z</time>
      </trkpt>
      <trkpt lat="49.307478" lon="6.756495">
        <ele>235.0</ele>
        <time>2020-07-10T06:22:30Z</time>
      </trkpt>
      <trkpt lat="49.30738" lon="6.756536">
        <ele>235.0</ele>
        <time>2020-07-10T06:22:32Z</time>
      </trkpt>
      <trkpt lat="49.307285" lon="6.756578">
        <ele>235.0</ele>
        <time>2020-07-10T06:22:34Z</time>
      </trkpt>
      <trkpt lat="49.307189" lon="6.756627">
        <ele>235.0</ele>
        <time>2020-07-10T06:22:36Z</time>
      </trkpt>
      <trkpt lat="49.307087" lon="6.756666">
        <ele>234.0</ele>
        <time>2020-07-10T06:22:38Z</time>
      </trkpt>
      <trkpt lat="49.306992" lon="6.756701">
        <ele>234.0</ele>
        <time>2020-07-10T06:22:40Z</time>
      </trkpt>
      <trkpt lat="49.306896" lon="6.756746">
        <ele>235.0</ele>
        <time>2020-07-10T06:22:42Z</time>
      </trkpt>
      <trkpt lat="49.306799" lon="6.75679">
        <ele>235.0</ele>
        <time>2020-07-10T06:22:44Z</time>
      </trkpt>
      <trkpt lat="49.306705" lon="6.756838">
        <ele>235.0</ele>
        <time>2020-07-10T06:22:46Z</time>
      </trkpt>
      <trkpt lat="49.306607" lon="6.756876">
        <ele>235.0</ele>
        <time>2020-07-10T06:22:48Z</time>
      </trkpt>
      <trkpt lat="49.306507" lon="6.756916">
        <ele>236.0</ele>
        <time>2020-07-10T06:22:50Z</time>
      </trkpt>
      <trkpt lat="49.306415" lon="6.75696">
        <ele>236.0</ele>
        <time>2020-07-10T06:22:52Z</time>
      </trkpt>
      <trkpt lat="49.306321" lon="6.757">
        <ele>235.0</ele>
        <time>2020-07-10T06:22:54Z</time>
      </trkpt>
      <trkpt lat="49.306229" lon="6.757036">
        <ele>235.0</ele>
        <time>2020-07-10T06:22:56Z</time>
      </trkpt>
      <trkpt lat="49.306132" lon="6.757089">
        <ele>235.0</ele>
        <time>2020-07-10T06:22:58Z</time>
      </trkpt>
      <trkpt lat="49.306032" lon="6.757133">
        <ele>235.0</ele>
        <time>2020-07-10T06:23:00Z</time>
      </trkpt>
      <trkpt lat="49.305925" lon="6.757179">
        <ele>235.0</ele>
        <time>2020-07-10T06:23:02Z</time>
      </trkpt>
      <trkpt lat="49.305825" lon="6.757224">
        <ele>235.0</ele>
        <time>2020-07-10T06:23:04Z</time>
      </trkpt>
      <trkpt lat="49.305724" lon="6.757274">
        <ele>235.0</ele>
        <time>2020-07-10T06:23:06Z</time>
      </trkpt>
      <trkpt lat="49.305631" lon="6.757312">
        <ele>235.0</ele>
        <time>2020-07-10T06:23:08Z</time>
      </trkpt>
      <trkpt lat="49.305538" lon="6.757358">
        <ele>235.0</ele>
        <time>2020-07-10T06:23:10Z</time>
      </trkpt>
      <trkpt lat="49.305438" lon="6.757406">
        <ele>235.0</ele>
        <time>2020-07-10T06:23:12Z</time>
      </trkpt>
      <trkpt lat="49.305339" lon="6.757448">
        <ele>235.0</ele>
        <time>2020-07-10T06:23:14Z</time>
      </trkpt>
      <trkpt lat="49.305239" lon="6.757503">
        <ele>234.0</ele>
        <time>2020-07-10T06:23:16Z</time>
      </trkpt>
      <trkpt lat="49.305135" lon="6.757552">
        <ele>235.0</ele>
        <time>2020-07-10T06:23:18Z</time>
      </trkpt>
      <trkpt lat="49.30503" lon="6.757599">
        <ele>236.0</ele>
        <time>2020-07-10T06:23:20Z</time>
      </trkpt>
      <trkpt lat="49.304924" lon="6.757646">
        <ele>236.0</ele>
        <time>2020-07-10T06:23:22Z</time>
      </trkpt>
      <trkpt lat="49.304818" lon="6.757683">
        <ele>236.0</ele>
        <time>2020-07-10T06:23:24Z</time>
      </trkpt>
      <trkpt lat="49.304715" lon="6.757734">
        <ele>237.0</ele>
        <time>2020-07-10T06:23:26Z</time>
      </trkpt>
      <trkpt lat="49.304614" lon="6.757777">
        <ele>237.0</ele>
        <time>2020-07-10T06:23:28Z</time>
      </trkpt>
      <trkpt lat="49.304514" lon="6.75782">
        <ele>236.0</ele>
        <time>2020-07-10T06:23:30Z</time>
      </trkpt>
      <trkpt lat="49.30441" lon="6.757867">
        <ele>236.0</ele>
        <time>2020-07-10T06:23:32Z</time>
      </trkpt>
      <trkpt lat="49.304317" lon="6.757923">
        <ele>236.0</ele>
        <time>2020-07-10T06:23:34Z</time>
      </trkpt>
      <trkpt lat="49.30422" lon="6.757974">
        <ele>237.0</ele>
        <time>2020-07-10T06:23:36Z</time>
      </trkpt>
      <trkpt lat="49.304119" lon="6.758021">
        <ele>236.0</ele>
        <time>2020-07-10T06:23:38Z</time>
      </trkpt>
      <trkpt lat="49.304023" lon="6.75806">
        <ele>236.0</ele>
        <time>2020-07-10T06:23:40Z</time>
      </trkpt>
      <trkpt lat="49.303925" lon="6.75811">
        <ele>236.0</ele>
        <time>2020-07-10T06:23:42Z</time>
      </trkpt>
      <trkpt lat="49.303818" lon="6.758164">
        <ele>236.0</ele>
        <time>2020-07-10T06:23:44Z</time>
      </trkpt>
      <trkpt lat="49.303716" lon="6.758221">
        <ele>237.0</ele>
        <time>2020-07-10T06:23:46Z</time>
      </trkpt>
      <trkpt lat="49.303613" lon="6.758275">
        <ele>238.0</ele>
        <time>2020-07-10T06:23:48Z</time>
      </trkpt>
      <trkpt lat="49.303509" lon="6.758317">
        <ele>238.0</ele>
        <time>2020-07-10T06:23:50Z</time>
      </trkpt>
      <trkpt lat="49.3034" lon="6.758362">
        <ele>238.0</ele>
        <time>2020-07-10T06:23:52Z</time>
      </trkpt>
      <trkpt lat="49.3033" lon="6.758411">
        <ele>238.0</ele>
        <time>2020-07-10T06:23:54Z</time>
      </trkpt>
      <trkpt lat="49.303195" lon="6.758467">
        <ele>238.0</ele>
        <time>2020-07-10T06:23:56Z</time>
      </trkpt>
      <trkpt lat="49.303096" lon="6.758506">
        <ele>237.0</ele>
        <time>2020-07-10T06:23:58Z</time>
      </trkpt>
      <trkpt lat="49.302999" lon="6.758547">
        <ele>237.0</ele>
        <time>2020-07-10T06:24:00Z</time>
      </trkpt>
      <trkpt lat="49.302911" lon="6.75858">
        <ele>237.0</ele>
        <time>2020-07-10T06:24:02Z</time>
      </trkpt>
      <trkpt lat="49.302856" lon="6.758591">
        <ele>237.0</ele>
        <time>2020-07-10T06:24:04Z</time>
      </trkpt>
      <trkpt lat="49.302826" lon="6.758596">
        <ele>237.0</ele>
        <time>2020-07-10T06:24:06Z</time>
      </trkpt>
      <trkpt lat="49.302819" lon="6.758611">
        <ele>236.0</ele>
        <time>2020-07-10T06:24:08Z</time>
      </trkpt>
      <trkpt lat="49.302819" lon="6.758618">
        <ele>236.0</ele>
        <time>2020-07-10T06:24:10Z</time>
      </trkpt>
      <trkpt lat="49.302819" lon="6.758618">
        <ele>236.0</ele>
        <time>2020-07-10T06:24:12Z</time>
      </trkpt>
      <trkpt lat="49.302819" lon="6.758618">
        <ele>236.0</ele>
        <time>2020-07-10T06:24:14Z</time>
      </trkpt>
      <trkpt lat="49.302819" lon="6.758618">
        <ele>236.0</ele>
        <time>2020-07-10T06:24:16Z</time>
      </trkpt>
      <trkpt lat="49.302819" lon="6.758618">
        <ele>236.0</ele>
        <time>2020-07-10T06:24:18Z</time>
      </trkpt>
      <trkpt lat="49.302819" lon="6.758618">
        <ele>236.0</ele>
        <time>2020-07-10T06:24:20Z</time>
      </trkpt>
      <trkpt lat="49.302812" lon="6.758622">
        <ele>236.0</ele>
        <time>2020-07-10T06:24:22Z</time>
      </trkpt>
      <trkpt lat="49.302759" lon="6.758649">
        <ele>235.0</ele>
        <time>2020-07-10T06:24:25Z</time>
      </trkpt>
      <trkpt lat="49.302699" lon="6.758668">
        <ele>235.0</ele>
        <time>2020-07-10T06:24:27Z</time>
      </trkpt>
      <trkpt lat="49.302629" lon="6.758689">
        <ele>235.0</ele>
        <time>2020-07-10T06:24:29Z</time>
      </trkpt>
      <trkpt lat="49.302538" lon="6.758724">
        <ele>234.0</ele>
        <time>2020-07-10T06:24:31Z</time>
      </trkpt>
      <trkpt lat="49.302453" lon="6.758759">
        <ele>234.0</ele>
        <time>2020-07-10T06:24:33Z</time>
      </trkpt>
      <trkpt lat="49.302374" lon="6.75879">
        <ele>233.0</ele>
        <time>2020-07-10T06:24:35Z</time>
      </trkpt>
      <trkpt lat="49.302286" lon="6.758835">
        <ele>234.0</ele>
        <time>2020-07-10T06:24:37Z</time>
      </trkpt>
      <trkpt lat="49.302196" lon="6.758878">
        <ele>234.0</ele>
        <time>2020-07-10T06:24:39Z</time>
      </trkpt>
      <trkpt lat="49.302101" lon="6.758925">
        <ele>234.0</ele>
        <time>2020-07-10T06:24:41Z</time>
      </trkpt>
      <trkpt lat="49.30201" lon="6.758966">
        <ele>235.0</ele>
        <time>2020-07-10T06:24:43Z</time>
      </trkpt>
      <trkpt lat="49.301914" lon="6.759007">
        <ele>234.0</ele>
        <time>2020-07-10T06:24:45Z</time>
      </trkpt>
      <trkpt lat="49.301828" lon="6.759049">
        <ele>235.0</ele>
        <time>2020-07-10T06:24:47Z</time>
      </trkpt>
      <trkpt lat="49.301731" lon="6.759105">
        <ele>235.0</ele>
        <time>2020-07-10T06:24:49Z</time>
      </trkpt>
      <trkpt lat="49.301635" lon="6.759156">
        <ele>235.0</ele>
        <time>2020-07-10T06:24:51Z</time>
      </trkpt>
      <trkpt lat="49.301537" lon="6.759192">
        <ele>236.0</ele>
        <time>2020-07-10T06:24:53Z</time>
      </trkpt>
      <trkpt lat="49.301431" lon="6.759231">
        <ele>236.0</ele>
        <time>2020-07-10T06:24:55Z</time>
      </trkpt>
      <trkpt lat="49.301331" lon="6.759268">
        <ele>236.0</ele>
        <time>2020-07-10T06:24:57Z</time>
      </trkpt>
      <trkpt lat="49.301241" lon="6.759298">
        <ele>236.0</ele>
        <time>2020-07-10T06:24:59Z</time>
      </trkpt>
      <trkpt lat="49.301145" lon="6.759338">
        <ele>236.0</ele>
        <time>2020-07-10T06:25:01Z</time>
      </trkpt>
      <trkpt lat="49.301053" lon="6.759392">
        <ele>236.0</ele>
        <time>2020-07-10T06:25:03Z</time>
      </trkpt>
      <trkpt lat="49.300956" lon="6.759442">
        <ele>237.0</ele>
        <time>2020-07-10T06:25:05Z</time>
      </trkpt>
      <trkpt lat="49.300856" lon="6.75948">
        <ele>237.0</ele>
        <time>2020-07-10T06:25:07Z</time>
      </trkpt>
      <trkpt lat="49.300757" lon="6.759525">
        <ele>237.0</ele>
        <time>2020-07-10T06:25:09Z</time>
      </trkpt>
      <trkpt lat="49.300656" lon="6.759563">
        <ele>237.0</ele>
        <time>2020-07-10T06:25:11Z</time>
      </trkpt>
      <trkpt lat="49.300558" lon="6.759602">
        <ele>237.0</ele>
        <time>2020-07-10T06:25:13Z</time>
      </trkpt>
      <trkpt lat="49.300461" lon="6.759644">
        <ele>237.0</ele>
        <time>2020-07-10T06:25:15Z</time>
      </trkpt>
      <trkpt lat="49.30037" lon="6.759682">
        <ele>236.0</ele>
        <time>2020-07-10T06:25:17Z</time>
      </trkpt>
      <trkpt lat="49.30027" lon="6.759725">
        <ele>236.0</ele>
        <time>2020-07-10T06:25:19Z</time>
      </trkpt>
      <trkpt lat="49.30017" lon="6.759769">
        <ele>236.0</ele>
        <time>2020-07-10T06:25:21Z</time>
      </trkpt>
      <trkpt lat="49.300063" lon="6.759811">
        <ele>235.0</ele>
        <time>2020-07-10T06:25:23Z</time>
      </trkpt>
      <trkpt lat="49.299969" lon="6.75986">
        <ele>236.0</ele>
        <time>2020-07-10T06:25:25Z</time>
      </trkpt>
      <trkpt lat="49.299876" lon="6.759912">
        <ele>236.0</ele>
        <time>2020-07-10T06:25:27Z</time>
      </trkpt>
      <trkpt lat="49.299782" lon="6.759959">
        <ele>236.0</ele>
        <time>2020-07-10T06:25:29Z</time>
      </trkpt>
      <trkpt lat="49.299679" lon="6.760006">
        <ele>236.0</ele>
        <time>2020-07-10T06:25:31Z</time>
      </trkpt>
      <trkpt lat="49.299578" lon="6.760048">
        <ele>236.0</ele>
        <time>2020-07-10T06:25:33Z</time>
      </trkpt>
      <trkpt lat="49.299482" lon="6.760091">
        <ele>236.0</ele>
        <time>2020-07-10T06:25:35Z</time>
      </trkpt>
      <trkpt lat="49.299383" lon="6.760137">
        <ele>236.0</ele>
        <time>2020-07-10T06:25:37Z</time>
      </trkpt>
      <trkpt lat="49.299282" lon="6.760184">
        <ele>236.0</ele>
        <time>2020-07-10T06:25:39Z</time>
      </trkpt>
      <trkpt lat="49.299177" lon="6.760232">
        <ele>237.0</ele>
        <time>2020-07-10T06:25:41Z</time>
      </trkpt>
      <trkpt lat="49.299063" lon="6.760273">
        <ele>236.0</ele>
        <time>2020-07-10T06:25:43Z</time>
      </trkpt>
      <trkpt lat="49.298952" lon="6.760306">
        <ele>236.0</ele>
        <time>2020-07-10T06:25:45Z</time>
      </trkpt>
      <trkpt lat="49.298842" lon="6.760324">
        <ele>236.0</ele>
        <time>2020-07-10T06:25:47Z</time>
      </trkpt>
      <trkpt lat="49.298729" lon="6.760344">
        <ele>236.0</ele>
        <time>2020-07-10T06:25:49Z</time>
      </trkpt>
      <trkpt lat="49.298617" lon="6.760347">
        <ele>236.0</ele>
        <time>2020-07-10T06:25:51Z</time>
      </trkpt>
      <trkpt lat="49.2985" lon="6.76034">
        <ele>236.0</ele>
        <time>2020-07-10T06:25:53Z</time>
      </trkpt>
      <trkpt lat="49.298387" lon="6.760329">
        <ele>235.0</ele>
        <time>2020-07-10T06:25:55Z</time>
      </trkpt>
      <trkpt lat="49.298272" lon="6.760306">
        <ele>235.0</ele>
        <time>2020-07-10T06:25:57Z</time>
      </trkpt>
      <trkpt lat="49.298158" lon="6.760279">
        <ele>235.0</ele>
        <time>2020-07-10T06:25:59Z</time>
      </trkpt>
      <trkpt lat="49.298044" lon="6.76026">
        <ele>234.0</ele>
        <time>2020-07-10T06:26:01Z</time>
      </trkpt>
      <trkpt lat="49.297938" lon="6.760239">
        <ele>233.0</ele>
        <time>2020-07-10T06:26:03Z</time>
      </trkpt>
      <trkpt lat="49.29783" lon="6.760216">
        <ele>232.0</ele>
        <time>2020-07-10T06:26:05Z</time>
      </trkpt>
      <trkpt lat="49.297723" lon="6.760168">
        <ele>232.0</ele>
        <time>2020-07-10T06:26:07Z</time>
      </trkpt>
      <trkpt lat="49.297624" lon="6.760134">
        <ele>232.0</ele>
        <time>2020-07-10T06:26:09Z</time>
      </trkpt>
      <trkpt lat="49.297532" lon="6.760172">
        <ele>233.0</ele>
        <time>2020-07-10T06:26:11Z</time>
      </trkpt>
      <trkpt lat="49.297442" lon="6.760245">
        <ele>233.0</ele>
        <time>2020-07-10T06:26:13Z</time>
      </trkpt>
      <trkpt lat="49.297362" lon="6.760334">
        <ele>233.0</ele>
        <time>2020-07-10T06:26:15Z</time>
      </trkpt>
      <trkpt lat="49.297278" lon="6.760398">
        <ele>233.0</ele>
        <time>2020-07-10T06:26:17Z</time>
      </trkpt>
      <trkpt lat="49.29718" lon="6.760446">
        <ele>234.0</ele>
        <time>2020-07-10T06:26:19Z</time>
      </trkpt>
      <trkpt lat="49.297076" lon="6.7605">
        <ele>234.0</ele>
        <time>2020-07-10T06:26:21Z</time>
      </trkpt>
      <trkpt lat="49.29698" lon="6.760561">
        <ele>233.0</ele>
        <time>2020-07-10T06:26:23Z</time>
      </trkpt>
      <trkpt lat="49.296886" lon="6.760634">
        <ele>233.0</ele>
        <time>2020-07-10T06:26:25Z</time>
      </trkpt>
      <trkpt lat="49.296791" lon="6.760731">
        <ele>233.0</ele>
        <time>2020-07-10T06:26:27Z</time>
      </trkpt>
      <trkpt lat="49.296701" lon="6.760846">
        <ele>233.0</ele>
        <time>2020-07-10T06:26:29Z</time>
      </trkpt>
      <trkpt lat="49.296612" lon="6.760971">
        <ele>233.0</ele>
        <time>2020-07-10T06:26:31Z</time>
      </trkpt>
      <trkpt lat="49.296529" lon="6.761098">
        <ele>232.0</ele>
        <time>2020-07-10T06:26:33Z</time>
      </trkpt>
      <trkpt lat="49.296451" lon="6.761228">
        <ele>232.0</ele>
        <time>2020-07-10T06:26:35Z</time>
      </trkpt>
      <trkpt lat="49.29638" lon="6.76135">
        <ele>231.0</ele>
        <time>2020-07-10T06:26:37Z</time>
      </trkpt>
      <trkpt lat="49.296307" lon="6.761474">
        <ele>231.0</ele>
        <time>2020-07-10T06:26:39Z</time>
      </trkpt>
      <trkpt lat="49.296236" lon="6.761597">
        <ele>231.0</ele>
        <time>2020-07-10T06:26:41Z</time>
      </trkpt>
      <trkpt lat="49.296162" lon="6.761717">
        <ele>230.0</ele>
        <time>2020-07-10T06:26:43Z</time>
      </trkpt>
      <trkpt lat="49.296098" lon="6.761828">
        <ele>230.0</ele>
        <time>2020-07-10T06:26:45Z</time>
      </trkpt>
      <trkpt lat="49.296025" lon="6.761934">
        <ele>229.0</ele>
        <time>2020-07-10T06:26:47Z</time>
      </trkpt>
      <trkpt lat="49.295958" lon="6.762042">
        <ele>229.0</ele>
        <time>2020-07-10T06:26:49Z</time>
      </trkpt>
      <trkpt lat="49.295877" lon="6.762149">
        <ele>229.0</ele>
        <time>2020-07-10T06:26:51Z</time>
      </trkpt>
      <trkpt lat="49.295804" lon="6.762237">
        <ele>229.0</ele>
        <time>2020-07-10T06:26:53Z</time>
      </trkpt>
      <trkpt lat="49.295752" lon="6.762308">
        <ele>229.0</ele>
        <time>2020-07-10T06:26:55Z</time>
      </trkpt>
      <trkpt lat="49.295774" lon="6.762377">
        <ele>230.0</ele>
        <time>2020-07-10T06:26:57Z</time>
      </trkpt>
      <trkpt lat="49.295825" lon="6.762438">
        <ele>230.0</ele>
        <time>2020-07-10T06:26:59Z</time>
      </trkpt>
      <trkpt lat="49.295879" lon="6.762509">
        <ele>230.0</ele>
        <time>2020-07-10T06:27:01Z</time>
      </trkpt>
      <trkpt lat="49.295922" lon="6.762614">
        <ele>230.0</ele>
        <time>2020-07-10T06:27:03Z</time>
      </trkpt>
      <trkpt lat="49.295915" lon="6.76275">
        <ele>230.0</ele>
        <time>2020-07-10T06:27:05Z</time>
      </trkpt>
      <trkpt lat="49.295899" lon="6.762884">
        <ele>230.0</ele>
        <time>2020-07-10T06:27:07Z</time>
      </trkpt>
      <trkpt lat="49.295891" lon="6.76302">
        <ele>231.0</ele>
        <time>2020-07-10T06:27:09Z</time>
      </trkpt>
      <trkpt lat="49.295883" lon="6.763171">
        <ele>230.0</ele>
        <time>2020-07-10T06:27:11Z</time>
      </trkpt>
      <trkpt lat="49.29588" lon="6.763325">
        <ele>229.0</ele>
        <time>2020-07-10T06:27:13Z</time>
      </trkpt>
      <trkpt lat="49.295903" lon="6.763452">
        <ele>230.0</ele>
        <time>2020-07-10T06:27:15Z</time>
      </trkpt>
      <trkpt lat="49.295938" lon="6.763533">
        <ele>230.0</ele>
        <time>2020-07-10T06:27:17Z</time>
      </trkpt>
      <trkpt lat="49.295949" lon="6.763616">
        <ele>231.0</ele>
        <time>2020-07-10T06:27:19Z</time>
      </trkpt>
      <trkpt lat="49.295942" lon="6.763753">
        <ele>231.0</ele>
        <time>2020-07-10T06:27:22Z</time>
      </trkpt>
      <trkpt lat="49.295936" lon="6.763805">
        <ele>230.0</ele>
        <time>2020-07-10T06:27:23Z</time>
      </trkpt>
      <trkpt lat="49.295925" lon="6.76393">
        <ele>230.0</ele>
        <time>2020-07-10T06:27:25Z</time>
      </trkpt>
      <trkpt lat="49.295891" lon="6.764071">
        <ele>230.0</ele>
        <time>2020-07-10T06:27:28Z</time>
      </trkpt>
      <trkpt lat="49.295871" lon="6.764157">
        <ele>230.0</ele>
        <time>2020-07-10T06:27:30Z</time>
      </trkpt>
      <trkpt lat="49.295828" lon="6.764218">
        <ele>230.0</ele>
        <time>2020-07-10T06:27:32Z</time>
      </trkpt>
      <trkpt lat="49.295777" lon="6.764269">
        <ele>230.0</ele>
        <time>2020-07-10T06:27:34Z</time>
      </trkpt>
      <trkpt lat="49.29572" lon="6.764284">
        <ele>231.0</ele>
        <time>2020-07-10T06:27:36Z</time>
      </trkpt>
      <trkpt lat="49.295666" lon="6.764291">
        <ele>231.0</ele>
        <time>2020-07-10T06:27:38Z</time>
      </trkpt>
      <trkpt lat="49.29562" lon="6.764302">
        <ele>231.0</ele>
        <time>2020-07-10T06:27:40Z</time>
      </trkpt>
      <trkpt lat="49.295572" lon="6.764313">
        <ele>231.0</ele>
        <time>2020-07-10T06:27:42Z</time>
      </trkpt>
      <trkpt lat="49.295523" lon="6.764322">
        <ele>231.0</ele>
        <time>2020-07-10T06:27:44Z</time>
      </trkpt>
      <trkpt lat="49.29547" lon="6.764335">
        <ele>231.0</ele>
        <time>2020-07-10T06:27:46Z</time>
      </trkpt>
      <trkpt lat="49.29542" lon="6.76434">
        <ele>232.0</ele>
        <time>2020-07-10T06:27:48Z</time>
      </trkpt>
      <trkpt lat="49.295368" lon="6.76434">
        <ele>232.0</ele>
        <time>2020-07-10T06:27:50Z</time>
      </trkpt>
      <trkpt lat="49.295315" lon="6.764341">
        <ele>231.0</ele>
        <time>2020-07-10T06:27:52Z</time>
      </trkpt>
      <trkpt lat="49.295263" lon="6.764342">
        <ele>231.0</ele>
        <time>2020-07-10T06:27:54Z</time>
      </trkpt>
      <trkpt lat="49.295216" lon="6.764338">
        <ele>231.0</ele>
        <time>2020-07-10T06:27:56Z</time>
      </trkpt>
      <trkpt lat="49.295172" lon="6.764349">
        <ele>231.0</ele>
        <time>2020-07-10T06:27:58Z</time>
      </trkpt>
      <trkpt lat="49.295131" lon="6.764358">
        <ele>231.0</ele>
        <time>2020-07-10T06:28:00Z</time>
      </trkpt>
      <trkpt lat="49.295093" lon="6.764367">
        <ele>232.0</ele>
        <time>2020-07-10T06:28:02Z</time>
      </trkpt>
      <trkpt lat="49.295051" lon="6.764391">
        <ele>231.0</ele>
        <time>2020-07-10T06:28:04Z</time>
      </trkpt>
      <trkpt lat="49.295009" lon="6.764413">
        <ele>232.0</ele>
        <time>2020-07-10T06:28:06Z</time>
      </trkpt>
      <trkpt lat="49.294965" lon="6.764431">
        <ele>232.0</ele>
        <time>2020-07-10T06:28:08Z</time>
      </trkpt>
      <trkpt lat="49.294919" lon="6.764447">
        <ele>232.0</ele>
        <time>2020-07-10T06:28:10Z</time>
      </trkpt>
      <trkpt lat="49.294879" lon="6.764461">
        <ele>232.0</ele>
        <time>2020-07-10T06:28:12Z</time>
      </trkpt>
      <trkpt lat="49.294836" lon="6.764473">
        <ele>232.0</ele>
        <time>2020-07-10T06:28:14Z</time>
      </trkpt>
      <trkpt lat="49.29479" lon="6.76449">
        <ele>232.0</ele>
        <time>2020-07-10T06:28:16Z</time>
      </trkpt>
      <trkpt lat="49.294745" lon="6.764511">
        <ele>232.0</ele>
        <time>2020-07-10T06:28:18Z</time>
      </trkpt>
      <trkpt lat="49.294706" lon="6.764524">
        <ele>231.0</ele>
        <time>2020-07-10T06:28:20Z</time>
      </trkpt>
      <trkpt lat="49.294667" lon="6.764539">
        <ele>232.0</ele>
        <time>2020-07-10T06:28:22Z</time>
      </trkpt>
      <trkpt lat="49.294627" lon="6.764549">
        <ele>232.0</ele>
        <time>2020-07-10T06:28:24Z</time>
      </trkpt>
      <trkpt lat="49.294587" lon="6.764555">
        <ele>232.0</ele>
        <time>2020-07-10T06:28:26Z</time>
      </trkpt>
      <trkpt lat="49.294538" lon="6.764558">
        <ele>232.0</ele>
        <time>2020-07-10T06:28:28Z</time>
      </trkpt>
      <trkpt lat="49.294493" lon="6.764563">
        <ele>232.0</ele>
        <time>2020-07-10T06:28:30Z</time>
      </trkpt>
      <trkpt lat="49.294437" lon="6.764574">
        <ele>232.0</ele>
        <time>2020-07-10T06:28:32Z</time>
      </trkpt>
      <trkpt lat="49.294377" lon="6.764582">
        <ele>233.0</ele>
        <time>2020-07-10T06:28:34Z</time>
      </trkpt>
      <trkpt lat="49.294321" lon="6.764568">
        <ele>233.0</ele>
        <time>2020-07-10T06:28:36Z</time>
      </trkpt>
      <trkpt lat="49.294272" lon="6.764565">
        <ele>234.0</ele>
        <time>2020-07-10T06:28:38Z</time>
      </trkpt>
      <trkpt lat="49.294217" lon="6.764571">
        <ele>233.0</ele>
        <time>2020-07-10T06:28:40Z</time>
      </trkpt>
      <trkpt lat="49.294147" lon="6.764571">
        <ele>232.0</ele>
        <time>2020-07-10T06:28:42Z</time>
      </trkpt>
      <trkpt lat="49.294075" lon="6.76458">
        <ele>231.0</ele>
        <time>2020-07-10T06:28:44Z</time>
      </trkpt>
      <trkpt lat="49.294003" lon="6.76457">
        <ele>231.0</ele>
        <time>2020-07-10T06:28:46Z</time>
      </trkpt>
      <trkpt lat="49.293929" lon="6.764562">
        <ele>232.0</ele>
        <time>2020-07-10T06:28:48Z</time>
      </trkpt>
      <trkpt lat="49.293861" lon="6.76455">
        <ele>232.0</ele>
        <time>2020-07-10T06:28:50Z</time>
      </trkpt>
      <trkpt lat="49.293788" lon="6.764548">
        <ele>232.0</ele>
        <time>2020-07-10T06:28:52Z</time>
      </trkpt>
      <trkpt lat="49.293703" lon="6.764544">
        <ele>233.0</ele>
        <time>2020-07-10T06:28:54Z</time>
      </trkpt>
      <trkpt lat="49.29363" lon="6.764541">
        <ele>233.0</ele>
        <time>2020-07-10T06:28:56Z</time>
      </trkpt>
      <trkpt lat="49.29355" lon="6.764539">
        <ele>232.0</ele>
        <time>2020-07-10T06:28:58Z</time>
      </trkpt>
      <trkpt lat="49.293467" lon="6.764545">
        <ele>232.0</ele>
        <time>2020-07-10T06:29:00Z</time>
      </trkpt>
      <trkpt lat="49.293379" lon="6.764544">
        <ele>233.0</ele>
        <time>2020-07-10T06:29:02Z</time>
      </trkpt>
      <trkpt lat="49.293285" lon="6.764533">
        <ele>233.0</ele>
        <time>2020-07-10T06:29:04Z</time>
      </trkpt>
      <trkpt lat="49.293204" lon="6.76453">
        <ele>233.0</ele>
        <time>2020-07-10T06:29:06Z</time>
      </trkpt>
      <trkpt lat="49.293116" lon="6.76454">
        <ele>233.0</ele>
        <time>2020-07-10T06:29:08Z</time>
      </trkpt>
      <trkpt lat="49.293027" lon="6.764544">
        <ele>233.0</ele>
        <time>2020-07-10T06:29:10Z</time>
      </trkpt>
      <trkpt lat="49.292929" lon="6.764535">
        <ele>234.0</ele>
        <time>2020-07-10T06:29:12Z</time>
      </trkpt>
      <trkpt lat="49.29286" lon="6.764537">
        <ele>234.0</ele>
        <time>2020-07-10T06:29:14Z</time>
      </trkpt>
      <trkpt lat="49.292786" lon="6.764534">
        <ele>233.0</ele>
        <time>2020-07-10T06:29:16Z</time>
      </trkpt>
      <trkpt lat="49.292699" lon="6.764534">
        <ele>233.0</ele>
        <time>2020-07-10T06:29:18Z</time>
      </trkpt>
      <trkpt lat="49.292607" lon="6.764531">
        <ele>232.0</ele>
        <time>2020-07-10T06:29:20Z</time>
      </trkpt>
      <trkpt lat="49.292504" lon="6.764543">
        <ele>232.0</ele>
        <time>2020-07-10T06:29:22Z</time>
      </trkpt>
      <trkpt lat="49.292423" lon="6.764538">
        <ele>232.0</ele>
        <time>2020-07-10T06:29:24Z</time>
      </trkpt>
      <trkpt lat="49.292339" lon="6.764544">
        <ele>232.0</ele>
        <time>2020-07-10T06:29:26Z</time>
      </trkpt>
      <trkpt lat="49.292258" lon="6.764539">
        <ele>232.0</ele>
        <time>2020-07-10T06:29:28Z</time>
      </trkpt>
      <trkpt lat="49.29217" lon="6.764515">
        <ele>231.0</ele>
        <time>2020-07-10T06:29:30Z</time>
      </trkpt>
      <trkpt lat="49.292081" lon="6.764498">
        <ele>231.0</ele>
        <time>2020-07-10T06:29:32Z</time>
      </trkpt>
      <trkpt lat="49.291988" lon="6.764496">
        <ele>231.0</ele>
        <time>2020-07-10T06:29:34Z</time>
      </trkpt>
      <trkpt lat="49.291894" lon="6.764499">
        <ele>231.0</ele>
        <time>2020-07-10T06:29:36Z</time>
      </trkpt>
      <trkpt lat="49.291807" lon="6.764503">
        <ele>230.0</ele>
        <time>2020-07-10T06:29:38Z</time>
      </trkpt>
      <trkpt lat="49.291715" lon="6.764509">
        <ele>230.0</ele>
        <time>2020-07-10T06:29:40Z</time>
      </trkpt>
      <trkpt lat="49.291622" lon="6.764507">
        <ele>230.0</ele>
        <time>2020-07-10T06:29:42Z</time>
      </trkpt>
      <trkpt lat="49.291533" lon="6.764519">
        <ele>230.0</ele>
        <time>2020-07-10T06:29:44Z</time>
      </trkpt>
      <trkpt lat="49.291447" lon="6.764524">
        <ele>230.0</ele>
        <time>2020-07-10T06:29:46Z</time>
      </trkpt>
      <trkpt lat="49.291362" lon="6.764514">
        <ele>230.0</ele>
        <time>2020-07-10T06:29:48Z</time>
      </trkpt>
      <trkpt lat="49.291268" lon="6.764509">
        <ele>229.0</ele>
        <time>2020-07-10T06:29:50Z</time>
      </trkpt>
      <trkpt lat="49.291173" lon="6.764521">
        <ele>229.0</ele>
        <time>2020-07-10T06:29:52Z</time>
      </trkpt>
      <trkpt lat="49.29108" lon="6.764532">
        <ele>229.0</ele>
        <time>2020-07-10T06:29:54Z</time>
      </trkpt>
      <trkpt lat="49.290995" lon="6.764558">
        <ele>229.0</ele>
        <time>2020-07-10T06:29:56Z</time>
      </trkpt>
      <trkpt lat="49.290901" lon="6.76457">
        <ele>230.0</ele>
        <time>2020-07-10T06:29:58Z</time>
      </trkpt>
      <trkpt lat="49.290813" lon="6.764572">
        <ele>230.0</ele>
        <time>2020-07-10T06:30:00Z</time>
      </trkpt>
      <trkpt lat="49.29072" lon="6.764577">
        <ele>230.0</ele>
        <time>2020-07-10T06:30:02Z</time>
      </trkpt>
      <trkpt lat="49.290579" lon="6.764592">
        <ele>230.0</ele>
        <time>2020-07-10T06:30:05Z</time>
      </trkpt>
      <trkpt lat="49.290529" lon="6.764595">
        <ele>230.0</ele>
        <time>2020-07-10T06:30:06Z</time>
      </trkpt>
      <trkpt lat="49.290429" lon="6.764589">
        <ele>229.0</ele>
        <time>2020-07-10T06:30:08Z</time>
      </trkpt>
      <trkpt lat="49.290329" lon="6.764595">
        <ele>229.0</ele>
        <time>2020-07-10T06:30:10Z</time>
      </trkpt>
      <trkpt lat="49.290232" lon="6.76459">
        <ele>229.0</ele>
        <time>2020-07-10T06:30:12Z</time>
      </trkpt>
      <trkpt lat="49.290131" lon="6.764597">
        <ele>229.0</ele>
        <time>2020-07-10T06:30:14Z</time>
      </trkpt>
      <trkpt lat="49.290033" lon="6.764594">
        <ele>229.0</ele>
        <time>2020-07-10T06:30:16Z</time>
      </trkpt>
      <trkpt lat="49.289885" lon="6.764576">
        <ele>229.0</ele>
        <time>2020-07-10T06:30:19Z</time>
      </trkpt>
      <trkpt lat="49.289791" lon="6.764567">
        <ele>227.0</ele>
        <time>2020-07-10T06:30:21Z</time>
      </trkpt>
      <trkpt lat="49.289698" lon="6.764579">
        <ele>227.0</ele>
        <time>2020-07-10T06:30:23Z</time>
      </trkpt>
      <trkpt lat="49.289605" lon="6.764582">
        <ele>227.0</ele>
        <time>2020-07-10T06:30:25Z</time>
      </trkpt>
      <trkpt lat="49.28951" lon="6.764581">
        <ele>227.0</ele>
        <time>2020-07-10T06:30:27Z</time>
      </trkpt>
      <trkpt lat="49.289419" lon="6.764592">
        <ele>227.0</ele>
        <time>2020-07-10T06:30:29Z</time>
      </trkpt>
      <trkpt lat="49.289283" lon="6.764619">
        <ele>228.0</ele>
        <time>2020-07-10T06:30:32Z</time>
      </trkpt>
      <trkpt lat="49.289199" lon="6.76465">
        <ele>228.0</ele>
        <time>2020-07-10T06:30:34Z</time>
      </trkpt>
      <trkpt lat="49.289115" lon="6.764675">
        <ele>228.0</ele>
        <time>2020-07-10T06:30:36Z</time>
      </trkpt>
      <trkpt lat="49.289018" lon="6.76468">
        <ele>229.0</ele>
        <time>2020-07-10T06:30:38Z</time>
      </trkpt>
      <trkpt lat="49.288924" lon="6.764693">
        <ele>228.0</ele>
        <time>2020-07-10T06:30:40Z</time>
      </trkpt>
      <trkpt lat="49.288834" lon="6.764703">
        <ele>228.0</ele>
        <time>2020-07-10T06:30:42Z</time>
      </trkpt>
      <trkpt lat="49.288736" lon="6.764715">
        <ele>228.0</ele>
        <time>2020-07-10T06:30:44Z</time>
      </trkpt>
      <trkpt lat="49.28864" lon="6.76473">
        <ele>228.0</ele>
        <time>2020-07-10T06:30:46Z</time>
      </trkpt>
      <trkpt lat="49.288541" lon="6.764747">
        <ele>228.0</ele>
        <time>2020-07-10T06:30:48Z</time>
      </trkpt>
      <trkpt lat="49.288448" lon="6.764787">
        <ele>228.0</ele>
        <time>2020-07-10T06:30:50Z</time>
      </trkpt>
      <trkpt lat="49.288356" lon="6.764833">
        <ele>228.0</ele>
        <time>2020-07-10T06:30:52Z</time>
      </trkpt>
      <trkpt lat="49.288266" lon="6.764889">
        <ele>228.0</ele>
        <time>2020-07-10T06:30:54Z</time>
      </trkpt>
      <trkpt lat="49.288143" lon="6.764936">
        <ele>229.0</ele>
        <time>2020-07-10T06:30:57Z</time>
      </trkpt>
      <trkpt lat="49.288053" lon="6.764951">
        <ele>229.0</ele>
        <time>2020-07-10T06:30:59Z</time>
      </trkpt>
      <trkpt lat="49.287968" lon="6.764973">
        <ele>229.0</ele>
        <time>2020-07-10T06:31:01Z</time>
      </trkpt>
      <trkpt lat="49.287931" lon="6.764981">
        <ele>229.0</ele>
        <time>2020-07-10T06:31:02Z</time>
      </trkpt>
      <trkpt lat="49.287788" lon="6.764984">
        <ele>228.0</ele>
        <time>2020-07-10T06:31:05Z</time>
      </trkpt>
      <trkpt lat="49.287686" lon="6.765012">
        <ele>228.0</ele>
        <time>2020-07-10T06:31:07Z</time>
      </trkpt>
      <trkpt lat="49.287635" lon="6.765026">
        <ele>227.0</ele>
        <time>2020-07-10T06:31:08Z</time>
      </trkpt>
      <trkpt lat="49.287426" lon="6.765075">
        <ele>227.0</ele>
        <time>2020-07-10T06:31:12Z</time>
      </trkpt>
      <trkpt lat="49.287313" lon="6.765096">
        <ele>227.0</ele>
        <time>2020-07-10T06:31:14Z</time>
      </trkpt>
      <trkpt lat="49.287211" lon="6.765117">
        <ele>226.0</ele>
        <time>2020-07-10T06:31:16Z</time>
      </trkpt>
      <trkpt lat="49.287109" lon="6.765139">
        <ele>225.0</ele>
        <time>2020-07-10T06:31:18Z</time>
      </trkpt>
      <trkpt lat="49.287004" lon="6.765171">
        <ele>225.0</ele>
        <time>2020-07-10T06:31:20Z</time>
      </trkpt>
      <trkpt lat="49.2869" lon="6.765205">
        <ele>225.0</ele>
        <time>2020-07-10T06:31:22Z</time>
      </trkpt>
      <trkpt lat="49.286796" lon="6.765236">
        <ele>224.0</ele>
        <time>2020-07-10T06:31:24Z</time>
      </trkpt>
      <trkpt lat="49.286698" lon="6.765262">
        <ele>224.0</ele>
        <time>2020-07-10T06:31:26Z</time>
      </trkpt>
      <trkpt lat="49.286587" lon="6.765294">
        <ele>224.0</ele>
        <time>2020-07-10T06:31:28Z</time>
      </trkpt>
      <trkpt lat="49.286478" lon="6.765316">
        <ele>224.0</ele>
        <time>2020-07-10T06:31:30Z</time>
      </trkpt>
      <trkpt lat="49.286375" lon="6.765338">
        <ele>224.0</ele>
        <time>2020-07-10T06:31:32Z</time>
      </trkpt>
      <trkpt lat="49.286243" lon="6.765364">
        <ele>223.0</ele>
        <time>2020-07-10T06:31:35Z</time>
      </trkpt>
      <trkpt lat="49.286206" lon="6.765378">
        <ele>222.0</ele>
        <time>2020-07-10T06:31:36Z</time>
      </trkpt>
      <trkpt lat="49.286114" lon="6.765404">
        <ele>222.0</ele>
        <time>2020-07-10T06:31:38Z</time>
      </trkpt>
      <trkpt lat="49.285967" lon="6.765432">
        <ele>221.0</ele>
        <time>2020-07-10T06:31:41Z</time>
      </trkpt>
      <trkpt lat="49.28593" lon="6.765446">
        <ele>221.0</ele>
        <time>2020-07-10T06:31:42Z</time>
      </trkpt>
      <trkpt lat="49.285802" lon="6.765511">
        <ele>221.0</ele>
        <time>2020-07-10T06:31:45Z</time>
      </trkpt>
      <trkpt lat="49.285701" lon="6.765571">
        <ele>220.0</ele>
        <time>2020-07-10T06:31:47Z</time>
      </trkpt>
      <trkpt lat="49.285595" lon="6.765625">
        <ele>219.0</ele>
        <time>2020-07-10T06:31:49Z</time>
      </trkpt>
      <trkpt lat="49.285501" lon="6.765696">
        <ele>219.0</ele>
        <time>2020-07-10T06:31:51Z</time>
      </trkpt>
      <trkpt lat="49.285407" lon="6.765747">
        <ele>219.0</ele>
        <time>2020-07-10T06:31:53Z</time>
      </trkpt>
      <trkpt lat="49.2853" lon="6.765802">
        <ele>219.0</ele>
        <time>2020-07-10T06:31:55Z</time>
      </trkpt>
      <trkpt lat="49.285176" lon="6.765863">
        <ele>220.0</ele>
        <time>2020-07-10T06:31:57Z</time>
      </trkpt>
      <trkpt lat="49.284966" lon="6.765972">
        <ele>222.0</ele>
        <time>2020-07-10T06:32:00Z</time>
      </trkpt>
      <trkpt lat="49.284847" lon="6.766077">
        <ele>224.0</ele>
        <time>2020-07-10T06:32:02Z</time>
      </trkpt>
      <trkpt lat="49.284746" lon="6.766193">
        <ele>225.0</ele>
        <time>2020-07-10T06:32:04Z</time>
      </trkpt>
      <trkpt lat="49.284636" lon="6.766297">
        <ele>226.0</ele>
        <time>2020-07-10T06:32:06Z</time>
      </trkpt>
      <trkpt lat="49.284531" lon="6.766356">
        <ele>225.0</ele>
        <time>2020-07-10T06:32:08Z</time>
      </trkpt>
      <trkpt lat="49.284432" lon="6.766418">
        <ele>228.0</ele>
        <time>2020-07-10T06:32:10Z</time>
      </trkpt>
      <trkpt lat="49.284385" lon="6.76645">
        <ele>228.0</ele>
        <time>2020-07-10T06:32:11Z</time>
      </trkpt>
      <trkpt lat="49.28424" lon="6.766555">
        <ele>229.0</ele>
        <time>2020-07-10T06:32:14Z</time>
      </trkpt>
      <trkpt lat="49.284142" lon="6.766641">
        <ele>230.0</ele>
        <time>2020-07-10T06:32:16Z</time>
      </trkpt>
      <trkpt lat="49.284046" lon="6.7667">
        <ele>230.0</ele>
        <time>2020-07-10T06:32:18Z</time>
      </trkpt>
      <trkpt lat="49.283995" lon="6.766729">
        <ele>230.0</ele>
        <time>2020-07-10T06:32:19Z</time>
      </trkpt>
      <trkpt lat="49.283709" lon="6.766831">
        <ele>229.0</ele>
        <time>2020-07-10T06:32:25Z</time>
      </trkpt>
      <trkpt lat="49.283624" lon="6.766897">
        <ele>230.0</ele>
        <time>2020-07-10T06:32:27Z</time>
      </trkpt>
      <trkpt lat="49.283544" lon="6.766982">
        <ele>230.0</ele>
        <time>2020-07-10T06:32:29Z</time>
      </trkpt>
      <trkpt lat="49.283464" lon="6.767068">
        <ele>230.0</ele>
        <time>2020-07-10T06:32:31Z</time>
      </trkpt>
      <trkpt lat="49.283377" lon="6.767145">
        <ele>231.0</ele>
        <time>2020-07-10T06:32:33Z</time>
      </trkpt>
      <trkpt lat="49.283297" lon="6.767231">
        <ele>232.0</ele>
        <time>2020-07-10T06:32:35Z</time>
      </trkpt>
      <trkpt lat="49.283216" lon="6.767324">
        <ele>232.0</ele>
        <time>2020-07-10T06:32:37Z</time>
      </trkpt>
      <trkpt lat="49.283128" lon="6.767415">
        <ele>232.0</ele>
        <time>2020-07-10T06:32:39Z</time>
      </trkpt>
      <trkpt lat="49.28304" lon="6.767498">
        <ele>232.0</ele>
        <time>2020-07-10T06:32:41Z</time>
      </trkpt>
      <trkpt lat="49.28295" lon="6.767587">
        <ele>231.0</ele>
        <time>2020-07-10T06:32:43Z</time>
      </trkpt>
      <trkpt lat="49.282856" lon="6.767674">
        <ele>231.0</ele>
        <time>2020-07-10T06:32:45Z</time>
      </trkpt>
      <trkpt lat="49.282764" lon="6.767769">
        <ele>231.0</ele>
        <time>2020-07-10T06:32:47Z</time>
      </trkpt>
      <trkpt lat="49.282667" lon="6.767861">
        <ele>231.0</ele>
        <time>2020-07-10T06:32:49Z</time>
      </trkpt>
      <trkpt lat="49.282569" lon="6.767954">
        <ele>231.0</ele>
        <time>2020-07-10T06:32:51Z</time>
      </trkpt>
      <trkpt lat="49.282474" lon="6.768054">
        <ele>231.0</ele>
        <time>2020-07-10T06:32:53Z</time>
      </trkpt>
      <trkpt lat="49.282384" lon="6.768146">
        <ele>231.0</ele>
        <time>2020-07-10T06:32:55Z</time>
      </trkpt>
      <trkpt lat="49.282295" lon="6.768239">
        <ele>230.0</ele>
        <time>2020-07-10T06:32:57Z</time>
      </trkpt>
      <trkpt lat="49.282202" lon="6.768342">
        <ele>231.0</ele>
        <time>2020-07-10T06:32:59Z</time>
      </trkpt>
      <trkpt lat="49.282106" lon="6.768453">
        <ele>230.0</ele>
        <time>2020-07-10T06:33:01Z</time>
      </trkpt>
      <trkpt lat="49.282004" lon="6.768556">
        <ele>230.0</ele>
        <time>2020-07-10T06:33:03Z</time>
      </trkpt>
      <trkpt lat="49.281905" lon="6.768668">
        <ele>230.0</ele>
        <time>2020-07-10T06:33:05Z</time>
      </trkpt>
      <trkpt lat="49.281807" lon="6.768776">
        <ele>230.0</ele>
        <time>2020-07-10T06:33:07Z</time>
      </trkpt>
      <trkpt lat="49.28171" lon="6.768889">
        <ele>230.0</ele>
        <time>2020-07-10T06:33:09Z</time>
      </trkpt>
      <trkpt lat="49.281622" lon="6.768999">
        <ele>231.0</ele>
        <time>2020-07-10T06:33:11Z</time>
      </trkpt>
      <trkpt lat="49.281536" lon="6.769106">
        <ele>231.0</ele>
        <time>2020-07-10T06:33:13Z</time>
      </trkpt>
      <trkpt lat="49.281441" lon="6.769207">
        <ele>231.0</ele>
        <time>2020-07-10T06:33:15Z</time>
      </trkpt>
      <trkpt lat="49.28135" lon="6.769319">
        <ele>231.0</ele>
        <time>2020-07-10T06:33:17Z</time>
      </trkpt>
      <trkpt lat="49.281259" lon="6.76944">
        <ele>231.0</ele>
        <time>2020-07-10T06:33:19Z</time>
      </trkpt>
      <trkpt lat="49.281166" lon="6.769545">
        <ele>232.0</ele>
        <time>2020-07-10T06:33:21Z</time>
      </trkpt>
      <trkpt lat="49.281075" lon="6.769645">
        <ele>231.0</ele>
        <time>2020-07-10T06:33:23Z</time>
      </trkpt>
      <trkpt lat="49.280978" lon="6.769751">
        <ele>232.0</ele>
        <time>2020-07-10T06:33:25Z</time>
      </trkpt>
      <trkpt lat="49.280893" lon="6.769859">
        <ele>231.0</ele>
        <time>2020-07-10T06:33:27Z</time>
      </trkpt>
      <trkpt lat="49.280809" lon="6.76997">
        <ele>231.0</ele>
        <time>2020-07-10T06:33:29Z</time>
      </trkpt>
      <trkpt lat="49.280718" lon="6.770087">
        <ele>231.0</ele>
        <time>2020-07-10T06:33:31Z</time>
      </trkpt>
      <trkpt lat="49.280616" lon="6.7702">
        <ele>231.0</ele>
        <time>2020-07-10T06:33:33Z</time>
      </trkpt>
      <trkpt lat="49.280522" lon="6.770307">
        <ele>231.0</ele>
        <time>2020-07-10T06:33:35Z</time>
      </trkpt>
      <trkpt lat="49.280435" lon="6.770413">
        <ele>232.0</ele>
        <time>2020-07-10T06:33:37Z</time>
      </trkpt>
      <trkpt lat="49.280343" lon="6.770514">
        <ele>231.0</ele>
        <time>2020-07-10T06:33:39Z</time>
      </trkpt>
      <trkpt lat="49.280248" lon="6.770626">
        <ele>231.0</ele>
        <time>2020-07-10T06:33:41Z</time>
      </trkpt>
      <trkpt lat="49.280157" lon="6.770736">
        <ele>232.0</ele>
        <time>2020-07-10T06:33:43Z</time>
      </trkpt>
      <trkpt lat="49.280072" lon="6.770844">
        <ele>232.0</ele>
        <time>2020-07-10T06:33:45Z</time>
      </trkpt>
      <trkpt lat="49.27999" lon="6.770946">
        <ele>232.0</ele>
        <time>2020-07-10T06:33:47Z</time>
      </trkpt>
      <trkpt lat="49.27992" lon="6.771041">
        <ele>232.0</ele>
        <time>2020-07-10T06:33:49Z</time>
      </trkpt>
      <trkpt lat="49.279846" lon="6.771124">
        <ele>232.0</ele>
        <time>2020-07-10T06:33:51Z</time>
      </trkpt>
      <trkpt lat="49.279764" lon="6.771199">
        <ele>232.0</ele>
        <time>2020-07-10T06:33:53Z</time>
      </trkpt>
      <trkpt lat="49.27968" lon="6.771309">
        <ele>232.0</ele>
        <time>2020-07-10T06:33:55Z</time>
      </trkpt>
      <trkpt lat="49.279592" lon="6.771423">
        <ele>232.0</ele>
        <time>2020-07-10T06:33:57Z</time>
      </trkpt>
      <trkpt lat="49.279512" lon="6.771543">
        <ele>232.0</ele>
        <time>2020-07-10T06:33:59Z</time>
      </trkpt>
      <trkpt lat="49.279422" lon="6.771647">
        <ele>232.0</ele>
        <time>2020-07-10T06:34:01Z</time>
      </trkpt>
      <trkpt lat="49.279336" lon="6.771753">
        <ele>232.0</ele>
        <time>2020-07-10T06:34:03Z</time>
      </trkpt>
      <trkpt lat="49.279248" lon="6.771861">
        <ele>232.0</ele>
        <time>2020-07-10T06:34:05Z</time>
      </trkpt>
      <trkpt lat="49.279163" lon="6.771965">
        <ele>232.0</ele>
        <time>2020-07-10T06:34:07Z</time>
      </trkpt>
      <trkpt lat="49.27908" lon="6.772072">
        <ele>232.0</ele>
        <time>2020-07-10T06:34:09Z</time>
      </trkpt>
      <trkpt lat="49.278997" lon="6.772171">
        <ele>232.0</ele>
        <time>2020-07-10T06:34:11Z</time>
      </trkpt>
      <trkpt lat="49.278874" lon="6.772325">
        <ele>231.0</ele>
        <time>2020-07-10T06:34:14Z</time>
      </trkpt>
      <trkpt lat="49.27879" lon="6.772439">
        <ele>231.0</ele>
        <time>2020-07-10T06:34:16Z</time>
      </trkpt>
      <trkpt lat="49.278702" lon="6.772552">
        <ele>231.0</ele>
        <time>2020-07-10T06:34:18Z</time>
      </trkpt>
      <trkpt lat="49.278617" lon="6.772663">
        <ele>231.0</ele>
        <time>2020-07-10T06:34:20Z</time>
      </trkpt>
      <trkpt lat="49.278534" lon="6.772774">
        <ele>231.0</ele>
        <time>2020-07-10T06:34:22Z</time>
      </trkpt>
      <trkpt lat="49.278452" lon="6.772882">
        <ele>231.0</ele>
        <time>2020-07-10T06:34:24Z</time>
      </trkpt>
      <trkpt lat="49.278367" lon="6.773002">
        <ele>232.0</ele>
        <time>2020-07-10T06:34:26Z</time>
      </trkpt>
      <trkpt lat="49.278288" lon="6.773113">
        <ele>231.0</ele>
        <time>2020-07-10T06:34:28Z</time>
      </trkpt>
      <trkpt lat="49.278202" lon="6.773229">
        <ele>231.0</ele>
        <time>2020-07-10T06:34:30Z</time>
      </trkpt>
      <trkpt lat="49.278118" lon="6.773349">
        <ele>231.0</ele>
        <time>2020-07-10T06:34:32Z</time>
      </trkpt>
      <trkpt lat="49.278035" lon="6.773458">
        <ele>231.0</ele>
        <time>2020-07-10T06:34:34Z</time>
      </trkpt>
      <trkpt lat="49.277943" lon="6.773562">
        <ele>231.0</ele>
        <time>2020-07-10T06:34:36Z</time>
      </trkpt>
      <trkpt lat="49.277853" lon="6.77366">
        <ele>231.0</ele>
        <time>2020-07-10T06:34:38Z</time>
      </trkpt>
      <trkpt lat="49.277773" lon="6.77377">
        <ele>232.0</ele>
        <time>2020-07-10T06:34:40Z</time>
      </trkpt>
      <trkpt lat="49.277697" lon="6.773877">
        <ele>232.0</ele>
        <time>2020-07-10T06:34:42Z</time>
      </trkpt>
      <trkpt lat="49.27762" lon="6.773982">
        <ele>232.0</ele>
        <time>2020-07-10T06:34:44Z</time>
      </trkpt>
      <trkpt lat="49.277539" lon="6.774072">
        <ele>232.0</ele>
        <time>2020-07-10T06:34:46Z</time>
      </trkpt>
      <trkpt lat="49.277466" lon="6.774173">
        <ele>233.0</ele>
        <time>2020-07-10T06:34:48Z</time>
      </trkpt>
      <trkpt lat="49.277392" lon="6.774261">
        <ele>233.0</ele>
        <time>2020-07-10T06:34:50Z</time>
      </trkpt>
      <trkpt lat="49.277319" lon="6.774334">
        <ele>233.0</ele>
        <time>2020-07-10T06:34:52Z</time>
      </trkpt>
      <trkpt lat="49.277249" lon="6.774414">
        <ele>233.0</ele>
        <time>2020-07-10T06:34:54Z</time>
      </trkpt>
      <trkpt lat="49.277173" lon="6.774501">
        <ele>233.0</ele>
        <time>2020-07-10T06:34:56Z</time>
      </trkpt>
      <trkpt lat="49.277096" lon="6.774586">
        <ele>233.0</ele>
        <time>2020-07-10T06:34:58Z</time>
      </trkpt>
      <trkpt lat="49.277013" lon="6.774687">
        <ele>233.0</ele>
        <time>2020-07-10T06:35:00Z</time>
      </trkpt>
      <trkpt lat="49.276935" lon="6.774791">
        <ele>232.0</ele>
        <time>2020-07-10T06:35:02Z</time>
      </trkpt>
      <trkpt lat="49.276857" lon="6.774895">
        <ele>233.0</ele>
        <time>2020-07-10T06:35:04Z</time>
      </trkpt>
      <trkpt lat="49.276765" lon="6.774993">
        <ele>233.0</ele>
        <time>2020-07-10T06:35:06Z</time>
      </trkpt>
      <trkpt lat="49.276686" lon="6.775096">
        <ele>233.0</ele>
        <time>2020-07-10T06:35:08Z</time>
      </trkpt>
      <trkpt lat="49.276602" lon="6.775193">
        <ele>233.0</ele>
        <time>2020-07-10T06:35:10Z</time>
      </trkpt>
      <trkpt lat="49.276529" lon="6.775296">
        <ele>233.0</ele>
        <time>2020-07-10T06:35:12Z</time>
      </trkpt>
      <trkpt lat="49.276446" lon="6.775394">
        <ele>234.0</ele>
        <time>2020-07-10T06:35:14Z</time>
      </trkpt>
      <trkpt lat="49.276367" lon="6.775502">
        <ele>234.0</ele>
        <time>2020-07-10T06:35:16Z</time>
      </trkpt>
      <trkpt lat="49.276283" lon="6.775592">
        <ele>234.0</ele>
        <time>2020-07-10T06:35:18Z</time>
      </trkpt>
      <trkpt lat="49.276194" lon="6.775679">
        <ele>234.0</ele>
        <time>2020-07-10T06:35:20Z</time>
      </trkpt>
      <trkpt lat="49.276104" lon="6.775774">
        <ele>234.0</ele>
        <time>2020-07-10T06:35:22Z</time>
      </trkpt>
      <trkpt lat="49.276008" lon="6.775856">
        <ele>234.0</ele>
        <time>2020-07-10T06:35:24Z</time>
      </trkpt>
      <trkpt lat="49.27591" lon="6.775934">
        <ele>234.0</ele>
        <time>2020-07-10T06:35:26Z</time>
      </trkpt>
      <trkpt lat="49.275815" lon="6.776003">
        <ele>234.0</ele>
        <time>2020-07-10T06:35:28Z</time>
      </trkpt>
      <trkpt lat="49.275728" lon="6.77606">
        <ele>234.0</ele>
        <time>2020-07-10T06:35:30Z</time>
      </trkpt>
      <trkpt lat="49.275648" lon="6.776105">
        <ele>234.0</ele>
        <time>2020-07-10T06:35:32Z</time>
      </trkpt>
      <trkpt lat="49.27557" lon="6.776183">
        <ele>234.0</ele>
        <time>2020-07-10T06:35:34Z</time>
      </trkpt>
      <trkpt lat="49.275505" lon="6.776272">
        <ele>234.0</ele>
        <time>2020-07-10T06:35:36Z</time>
      </trkpt>
      <trkpt lat="49.275439" lon="6.776368">
        <ele>234.0</ele>
        <time>2020-07-10T06:35:38Z</time>
      </trkpt>
      <trkpt lat="49.275396" lon="6.776424">
        <ele>234.0</ele>
        <time>2020-07-10T06:35:39Z</time>
      </trkpt>
      <trkpt lat="49.275257" lon="6.776603">
        <ele>233.0</ele>
        <time>2020-07-10T06:35:42Z</time>
      </trkpt>
      <trkpt lat="49.275153" lon="6.776719">
        <ele>233.0</ele>
        <time>2020-07-10T06:35:44Z</time>
      </trkpt>
      <trkpt lat="49.275052" lon="6.776821">
        <ele>233.0</ele>
        <time>2020-07-10T06:35:46Z</time>
      </trkpt>
      <trkpt lat="49.274946" lon="6.7769">
        <ele>233.0</ele>
        <time>2020-07-10T06:35:48Z</time>
      </trkpt>
      <trkpt lat="49.274842" lon="6.776993">
        <ele>233.0</ele>
        <time>2020-07-10T06:35:50Z</time>
      </trkpt>
      <trkpt lat="49.274746" lon="6.777079">
        <ele>233.0</ele>
        <time>2020-07-10T06:35:52Z</time>
      </trkpt>
      <trkpt lat="49.274656" lon="6.777168">
        <ele>233.0</ele>
        <time>2020-07-10T06:35:54Z</time>
      </trkpt>
      <trkpt lat="49.274568" lon="6.77726">
        <ele>233.0</ele>
        <time>2020-07-10T06:35:56Z</time>
      </trkpt>
      <trkpt lat="49.274484" lon="6.777363">
        <ele>233.0</ele>
        <time>2020-07-10T06:35:58Z</time>
      </trkpt>
      <trkpt lat="49.274413" lon="6.777477">
        <ele>233.0</ele>
        <time>2020-07-10T06:36:00Z</time>
      </trkpt>
      <trkpt lat="49.274335" lon="6.777581">
        <ele>232.0</ele>
        <time>2020-07-10T06:36:02Z</time>
      </trkpt>
      <trkpt lat="49.274207" lon="6.777727">
        <ele>231.0</ele>
        <time>2020-07-10T06:36:05Z</time>
      </trkpt>
      <trkpt lat="49.274122" lon="6.777833">
        <ele>231.0</ele>
        <time>2020-07-10T06:36:07Z</time>
      </trkpt>
      <trkpt lat="49.274041" lon="6.777951">
        <ele>230.0</ele>
        <time>2020-07-10T06:36:09Z</time>
      </trkpt>
      <trkpt lat="49.273977" lon="6.778082">
        <ele>230.0</ele>
        <time>2020-07-10T06:36:11Z</time>
      </trkpt>
      <trkpt lat="49.273918" lon="6.778216">
        <ele>230.0</ele>
        <time>2020-07-10T06:36:13Z</time>
      </trkpt>
      <trkpt lat="49.273864" lon="6.778352">
        <ele>229.0</ele>
        <time>2020-07-10T06:36:15Z</time>
      </trkpt>
      <trkpt lat="49.273808" lon="6.778488">
        <ele>229.0</ele>
        <time>2020-07-10T06:36:17Z</time>
      </trkpt>
      <trkpt lat="49.273773" lon="6.778631">
        <ele>230.0</ele>
        <time>2020-07-10T06:36:19Z</time>
      </trkpt>
      <trkpt lat="49.273734" lon="6.778777">
        <ele>230.0</ele>
        <time>2020-07-10T06:36:21Z</time>
      </trkpt>
      <trkpt lat="49.273693" lon="6.778921">
        <ele>230.0</ele>
        <time>2020-07-10T06:36:23Z</time>
      </trkpt>
      <trkpt lat="49.273665" lon="6.779066">
        <ele>230.0</ele>
        <time>2020-07-10T06:36:25Z</time>
      </trkpt>
      <trkpt lat="49.273649" lon="6.779215">
        <ele>231.0</ele>
        <time>2020-07-10T06:36:27Z</time>
      </trkpt>
      <trkpt lat="49.273634" lon="6.779383">
        <ele>231.0</ele>
        <time>2020-07-10T06:36:29Z</time>
      </trkpt>
      <trkpt lat="49.273625" lon="6.779543">
        <ele>231.0</ele>
        <time>2020-07-10T06:36:31Z</time>
      </trkpt>
      <trkpt lat="49.273627" lon="6.77969">
        <ele>232.0</ele>
        <time>2020-07-10T06:36:33Z</time>
      </trkpt>
      <trkpt lat="49.27363" lon="6.77984">
        <ele>232.0</ele>
        <time>2020-07-10T06:36:35Z</time>
      </trkpt>
      <trkpt lat="49.273633" lon="6.779917">
        <ele>232.0</ele>
        <time>2020-07-10T06:36:36Z</time>
      </trkpt>
      <trkpt lat="49.273634" lon="6.780152">
        <ele>232.0</ele>
        <time>2020-07-10T06:36:39Z</time>
      </trkpt>
      <trkpt lat="49.273636" lon="6.780395">
        <ele>232.0</ele>
        <time>2020-07-10T06:36:42Z</time>
      </trkpt>
      <trkpt lat="49.273632" lon="6.780554">
        <ele>231.0</ele>
        <time>2020-07-10T06:36:44Z</time>
      </trkpt>
      <trkpt lat="49.273624" lon="6.780728">
        <ele>230.0</ele>
        <time>2020-07-10T06:36:46Z</time>
      </trkpt>
      <trkpt lat="49.273628" lon="6.780896">
        <ele>230.0</ele>
        <time>2020-07-10T06:36:48Z</time>
      </trkpt>
      <trkpt lat="49.273631" lon="6.781053">
        <ele>230.0</ele>
        <time>2020-07-10T06:36:50Z</time>
      </trkpt>
      <trkpt lat="49.273643" lon="6.781216">
        <ele>229.0</ele>
        <time>2020-07-10T06:36:52Z</time>
      </trkpt>
      <trkpt lat="49.273653" lon="6.781374">
        <ele>228.0</ele>
        <time>2020-07-10T06:36:54Z</time>
      </trkpt>
      <trkpt lat="49.273669" lon="6.781533">
        <ele>228.0</ele>
        <time>2020-07-10T06:36:56Z</time>
      </trkpt>
      <trkpt lat="49.273697" lon="6.781684">
        <ele>228.0</ele>
        <time>2020-07-10T06:36:58Z</time>
      </trkpt>
      <trkpt lat="49.273726" lon="6.781824">
        <ele>227.0</ele>
        <time>2020-07-10T06:37:00Z</time>
      </trkpt>
      <trkpt lat="49.273751" lon="6.781972">
        <ele>227.0</ele>
        <time>2020-07-10T06:37:02Z</time>
      </trkpt>
      <trkpt lat="49.273767" lon="6.782127">
        <ele>227.0</ele>
        <time>2020-07-10T06:37:04Z</time>
      </trkpt>
      <trkpt lat="49.273778" lon="6.782275">
        <ele>227.0</ele>
        <time>2020-07-10T06:37:06Z</time>
      </trkpt>
      <trkpt lat="49.273785" lon="6.782425">
        <ele>228.0</ele>
        <time>2020-07-10T06:37:08Z</time>
      </trkpt>
      <trkpt lat="49.273786" lon="6.782583">
        <ele>228.0</ele>
        <time>2020-07-10T06:37:10Z</time>
      </trkpt>
      <trkpt lat="49.273787" lon="6.782725">
        <ele>229.0</ele>
        <time>2020-07-10T06:37:12Z</time>
      </trkpt>
      <trkpt lat="49.273772" lon="6.782854">
        <ele>229.0</ele>
        <time>2020-07-10T06:37:14Z</time>
      </trkpt>
      <trkpt lat="49.273769" lon="6.78301">
        <ele>230.0</ele>
        <time>2020-07-10T06:37:16Z</time>
      </trkpt>
      <trkpt lat="49.273759" lon="6.783255">
        <ele>231.0</ele>
        <time>2020-07-10T06:37:19Z</time>
      </trkpt>
      <trkpt lat="49.273753" lon="6.78341">
        <ele>232.0</ele>
        <time>2020-07-10T06:37:21Z</time>
      </trkpt>
      <trkpt lat="49.273753" lon="6.78357">
        <ele>232.0</ele>
        <time>2020-07-10T06:37:23Z</time>
      </trkpt>
      <trkpt lat="49.273752" lon="6.783725">
        <ele>232.0</ele>
        <time>2020-07-10T06:37:25Z</time>
      </trkpt>
      <trkpt lat="49.273744" lon="6.783885">
        <ele>233.0</ele>
        <time>2020-07-10T06:37:27Z</time>
      </trkpt>
      <trkpt lat="49.273733" lon="6.784048">
        <ele>233.0</ele>
        <time>2020-07-10T06:37:29Z</time>
      </trkpt>
      <trkpt lat="49.27372" lon="6.784212">
        <ele>233.0</ele>
        <time>2020-07-10T06:37:31Z</time>
      </trkpt>
      <trkpt lat="49.273703" lon="6.784371">
        <ele>232.0</ele>
        <time>2020-07-10T06:37:33Z</time>
      </trkpt>
      <trkpt lat="49.273701" lon="6.784534">
        <ele>232.0</ele>
        <time>2020-07-10T06:37:35Z</time>
      </trkpt>
      <trkpt lat="49.273688" lon="6.784694">
        <ele>232.0</ele>
        <time>2020-07-10T06:37:37Z</time>
      </trkpt>
      <trkpt lat="49.273682" lon="6.784779">
        <ele>232.0</ele>
        <time>2020-07-10T06:37:38Z</time>
      </trkpt>
      <trkpt lat="49.273638" lon="6.785089">
        <ele>233.0</ele>
        <time>2020-07-10T06:37:42Z</time>
      </trkpt>
      <trkpt lat="49.273622" lon="6.785227">
        <ele>233.0</ele>
        <time>2020-07-10T06:37:44Z</time>
      </trkpt>
      <trkpt lat="49.273605" lon="6.785366">
        <ele>233.0</ele>
        <time>2020-07-10T06:37:46Z</time>
      </trkpt>
      <trkpt lat="49.273603" lon="6.785518">
        <ele>233.0</ele>
        <time>2020-07-10T06:37:48Z</time>
      </trkpt>
      <trkpt lat="49.273617" lon="6.785684">
        <ele>233.0</ele>
        <time>2020-07-10T06:37:50Z</time>
      </trkpt>
      <trkpt lat="49.273638" lon="6.785858">
        <ele>232.0</ele>
        <time>2020-07-10T06:37:52Z</time>
      </trkpt>
      <trkpt lat="49.273657" lon="6.786055">
        <ele>232.0</ele>
        <time>2020-07-10T06:37:54Z</time>
      </trkpt>
      <trkpt lat="49.27366" lon="6.786252">
        <ele>232.0</ele>
        <time>2020-07-10T06:37:56Z</time>
      </trkpt>
      <trkpt lat="49.273653" lon="6.786434">
        <ele>232.0</ele>
        <time>2020-07-10T06:37:58Z</time>
      </trkpt>
      <trkpt lat="49.273648" lon="6.786608">
        <ele>232.0</ele>
        <time>2020-07-10T06:38:00Z</time>
      </trkpt>
      <trkpt lat="49.273641" lon="6.786789">
        <ele>232.0</ele>
        <time>2020-07-10T06:38:02Z</time>
      </trkpt>
      <trkpt lat="49.273632" lon="6.786964">
        <ele>232.0</ele>
        <time>2020-07-10T06:38:04Z</time>
      </trkpt>
      <trkpt lat="49.273618" lon="6.78713">
        <ele>232.0</ele>
        <time>2020-07-10T06:38:06Z</time>
      </trkpt>
      <trkpt lat="49.273613" lon="6.787297">
        <ele>231.0</ele>
        <time>2020-07-10T06:38:08Z</time>
      </trkpt>
      <trkpt lat="49.273607" lon="6.787471">
        <ele>232.0</ele>
        <time>2020-07-10T06:38:10Z</time>
      </trkpt>
      <trkpt lat="49.273602" lon="6.787639">
        <ele>232.0</ele>
        <time>2020-07-10T06:38:12Z</time>
      </trkpt>
      <trkpt lat="49.273595" lon="6.787798">
        <ele>231.0</ele>
        <time>2020-07-10T06:38:14Z</time>
      </trkpt>
      <trkpt lat="49.273587" lon="6.78796">
        <ele>231.0</ele>
        <time>2020-07-10T06:38:16Z</time>
      </trkpt>
      <trkpt lat="49.273578" lon="6.788127">
        <ele>231.0</ele>
        <time>2020-07-10T06:38:18Z</time>
      </trkpt>
      <trkpt lat="49.273572" lon="6.788302">
        <ele>231.0</ele>
        <time>2020-07-10T06:38:20Z</time>
      </trkpt>
      <trkpt lat="49.273563" lon="6.788475">
        <ele>231.0</ele>
        <time>2020-07-10T06:38:22Z</time>
      </trkpt>
      <trkpt lat="49.273555" lon="6.788648">
        <ele>231.0</ele>
        <time>2020-07-10T06:38:24Z</time>
      </trkpt>
      <trkpt lat="49.27355" lon="6.78882">
        <ele>231.0</ele>
        <time>2020-07-10T06:38:26Z</time>
      </trkpt>
      <trkpt lat="49.273544" lon="6.788996">
        <ele>231.0</ele>
        <time>2020-07-10T06:38:28Z</time>
      </trkpt>
      <trkpt lat="49.273529" lon="6.789257">
        <ele>231.0</ele>
        <time>2020-07-10T06:38:31Z</time>
      </trkpt>
      <trkpt lat="49.273528" lon="6.789429">
        <ele>231.0</ele>
        <time>2020-07-10T06:38:33Z</time>
      </trkpt>
      <trkpt lat="49.273522" lon="6.789603">
        <ele>231.0</ele>
        <time>2020-07-10T06:38:35Z</time>
      </trkpt>
      <trkpt lat="49.273521" lon="6.789773">
        <ele>232.0</ele>
        <time>2020-07-10T06:38:37Z</time>
      </trkpt>
      <trkpt lat="49.273517" lon="6.78994">
        <ele>232.0</ele>
        <time>2020-07-10T06:38:39Z</time>
      </trkpt>
      <trkpt lat="49.273509" lon="6.790118">
        <ele>232.0</ele>
        <time>2020-07-10T06:38:41Z</time>
      </trkpt>
      <trkpt lat="49.273499" lon="6.790308">
        <ele>232.0</ele>
        <time>2020-07-10T06:38:43Z</time>
      </trkpt>
      <trkpt lat="49.273469" lon="6.790497">
        <ele>232.0</ele>
        <time>2020-07-10T06:38:45Z</time>
      </trkpt>
      <trkpt lat="49.273417" lon="6.790674">
        <ele>232.0</ele>
        <time>2020-07-10T06:38:47Z</time>
      </trkpt>
      <trkpt lat="49.273364" lon="6.790847">
        <ele>231.0</ele>
        <time>2020-07-10T06:38:49Z</time>
      </trkpt>
      <trkpt lat="49.273311" lon="6.791012">
        <ele>232.0</ele>
        <time>2020-07-10T06:38:51Z</time>
      </trkpt>
      <trkpt lat="49.273257" lon="6.791174">
        <ele>232.0</ele>
        <time>2020-07-10T06:38:53Z</time>
      </trkpt>
      <trkpt lat="49.273223" lon="6.791336">
        <ele>232.0</ele>
        <time>2020-07-10T06:38:55Z</time>
      </trkpt>
      <trkpt lat="49.273201" lon="6.79151">
        <ele>231.0</ele>
        <time>2020-07-10T06:38:57Z</time>
      </trkpt>
      <trkpt lat="49.273188" lon="6.791678">
        <ele>231.0</ele>
        <time>2020-07-10T06:38:59Z</time>
      </trkpt>
      <trkpt lat="49.273173" lon="6.791853">
        <ele>231.0</ele>
        <time>2020-07-10T06:39:01Z</time>
      </trkpt>
      <trkpt lat="49.273154" lon="6.792028">
        <ele>231.0</ele>
        <time>2020-07-10T06:39:03Z</time>
      </trkpt>
      <trkpt lat="49.273136" lon="6.792202">
        <ele>231.0</ele>
        <time>2020-07-10T06:39:05Z</time>
      </trkpt>
      <trkpt lat="49.273095" lon="6.792451">
        <ele>231.0</ele>
        <time>2020-07-10T06:39:08Z</time>
      </trkpt>
      <trkpt lat="49.273085" lon="6.792533">
        <ele>231.0</ele>
        <time>2020-07-10T06:39:09Z</time>
      </trkpt>
      <trkpt lat="49.273055" lon="6.792779">
        <ele>230.0</ele>
        <time>2020-07-10T06:39:12Z</time>
      </trkpt>
      <trkpt lat="49.273037" lon="6.792942">
        <ele>231.0</ele>
        <time>2020-07-10T06:39:14Z</time>
      </trkpt>
      <trkpt lat="49.273023" lon="6.793093">
        <ele>230.0</ele>
        <time>2020-07-10T06:39:16Z</time>
      </trkpt>
      <trkpt lat="49.273016" lon="6.793245">
        <ele>230.0</ele>
        <time>2020-07-10T06:39:18Z</time>
      </trkpt>
      <trkpt lat="49.273015" lon="6.793413">
        <ele>229.0</ele>
        <time>2020-07-10T06:39:20Z</time>
      </trkpt>
      <trkpt lat="49.273046" lon="6.793577">
        <ele>230.0</ele>
        <time>2020-07-10T06:39:22Z</time>
      </trkpt>
      <trkpt lat="49.273071" lon="6.793723">
        <ele>229.0</ele>
        <time>2020-07-10T06:39:24Z</time>
      </trkpt>
      <trkpt lat="49.273065" lon="6.793872">
        <ele>229.0</ele>
        <time>2020-07-10T06:39:26Z</time>
      </trkpt>
      <trkpt lat="49.273024" lon="6.79411">
        <ele>230.0</ele>
        <time>2020-07-10T06:39:29Z</time>
      </trkpt>
      <trkpt lat="49.273006" lon="6.794273">
        <ele>230.0</ele>
        <time>2020-07-10T06:39:31Z</time>
      </trkpt>
      <trkpt lat="49.272998" lon="6.794359">
        <ele>230.0</ele>
        <time>2020-07-10T06:39:32Z</time>
      </trkpt>
      <trkpt lat="49.272954" lon="6.794575">
        <ele>230.0</ele>
        <time>2020-07-10T06:39:35Z</time>
      </trkpt>
      <trkpt lat="49.272929" lon="6.794706">
        <ele>230.0</ele>
        <time>2020-07-10T06:39:37Z</time>
      </trkpt>
      <trkpt lat="49.272866" lon="6.794918">
        <ele>230.0</ele>
        <time>2020-07-10T06:39:40Z</time>
      </trkpt>
      <trkpt lat="49.272823" lon="6.795055">
        <ele>229.0</ele>
        <time>2020-07-10T06:39:42Z</time>
      </trkpt>
      <trkpt lat="49.272784" lon="6.795192">
        <ele>229.0</ele>
        <time>2020-07-10T06:39:44Z</time>
      </trkpt>
      <trkpt lat="49.272741" lon="6.795311">
        <ele>228.0</ele>
        <time>2020-07-10T06:39:46Z</time>
      </trkpt>
      <trkpt lat="49.272707" lon="6.79543">
        <ele>228.0</ele>
        <time>2020-07-10T06:39:48Z</time>
      </trkpt>
      <trkpt lat="49.27267" lon="6.795563">
        <ele>228.0</ele>
        <time>2020-07-10T06:39:50Z</time>
      </trkpt>
      <trkpt lat="49.272637" lon="6.795688">
        <ele>227.0</ele>
        <time>2020-07-10T06:39:52Z</time>
      </trkpt>
      <trkpt lat="49.2726" lon="6.79582">
        <ele>227.0</ele>
        <time>2020-07-10T06:39:54Z</time>
      </trkpt>
      <trkpt lat="49.272561" lon="6.795954">
        <ele>227.0</ele>
        <time>2020-07-10T06:39:56Z</time>
      </trkpt>
      <trkpt lat="49.272522" lon="6.796078">
        <ele>227.0</ele>
        <time>2020-07-10T06:39:58Z</time>
      </trkpt>
      <trkpt lat="49.27248" lon="6.796205">
        <ele>228.0</ele>
        <time>2020-07-10T06:40:00Z</time>
      </trkpt>
      <trkpt lat="49.272433" lon="6.796326">
        <ele>227.0</ele>
        <time>2020-07-10T06:40:02Z</time>
      </trkpt>
      <trkpt lat="49.272386" lon="6.796462">
        <ele>227.0</ele>
        <time>2020-07-10T06:40:04Z</time>
      </trkpt>
      <trkpt lat="49.272342" lon="6.796623">
        <ele>228.0</ele>
        <time>2020-07-10T06:40:06Z</time>
      </trkpt>
      <trkpt lat="49.272293" lon="6.796763">
        <ele>228.0</ele>
        <time>2020-07-10T06:40:08Z</time>
      </trkpt>
      <trkpt lat="49.272243" lon="6.796923">
        <ele>228.0</ele>
        <time>2020-07-10T06:40:10Z</time>
      </trkpt>
      <trkpt lat="49.2722" lon="6.797101">
        <ele>228.0</ele>
        <time>2020-07-10T06:40:12Z</time>
      </trkpt>
      <trkpt lat="49.272145" lon="6.79737">
        <ele>229.0</ele>
        <time>2020-07-10T06:40:15Z</time>
      </trkpt>
      <trkpt lat="49.272104" lon="6.797536">
        <ele>229.0</ele>
        <time>2020-07-10T06:40:17Z</time>
      </trkpt>
      <trkpt lat="49.272071" lon="6.7977">
        <ele>229.0</ele>
        <time>2020-07-10T06:40:19Z</time>
      </trkpt>
      <trkpt lat="49.272052" lon="6.79778">
        <ele>229.0</ele>
        <time>2020-07-10T06:40:20Z</time>
      </trkpt>
      <trkpt lat="49.271975" lon="6.798039">
        <ele>228.0</ele>
        <time>2020-07-10T06:40:23Z</time>
      </trkpt>
      <trkpt lat="49.271893" lon="6.798296">
        <ele>228.0</ele>
        <time>2020-07-10T06:40:26Z</time>
      </trkpt>
      <trkpt lat="49.271867" lon="6.79838">
        <ele>228.0</ele>
        <time>2020-07-10T06:40:27Z</time>
      </trkpt>
      <trkpt lat="49.271809" lon="6.79854">
        <ele>228.0</ele>
        <time>2020-07-10T06:40:29Z</time>
      </trkpt>
      <trkpt lat="49.271733" lon="6.798769">
        <ele>228.0</ele>
        <time>2020-07-10T06:40:32Z</time>
      </trkpt>
      <trkpt lat="49.271679" lon="6.798911">
        <ele>228.0</ele>
        <time>2020-07-10T06:40:34Z</time>
      </trkpt>
      <trkpt lat="49.271637" lon="6.799058">
        <ele>228.0</ele>
        <time>2020-07-10T06:40:36Z</time>
      </trkpt>
      <trkpt lat="49.271592" lon="6.799212">
        <ele>228.0</ele>
        <time>2020-07-10T06:40:38Z</time>
      </trkpt>
      <trkpt lat="49.271541" lon="6.799361">
        <ele>228.0</ele>
        <time>2020-07-10T06:40:40Z</time>
      </trkpt>
      <trkpt lat="49.271465" lon="6.799569">
        <ele>228.0</ele>
        <time>2020-07-10T06:40:43Z</time>
      </trkpt>
      <trkpt lat="49.27141" lon="6.799694">
        <ele>228.0</ele>
        <time>2020-07-10T06:40:45Z</time>
      </trkpt>
      <trkpt lat="49.27136" lon="6.799801">
        <ele>228.0</ele>
        <time>2020-07-10T06:40:47Z</time>
      </trkpt>
      <trkpt lat="49.271312" lon="6.799899">
        <ele>228.0</ele>
        <time>2020-07-10T06:40:49Z</time>
      </trkpt>
      <trkpt lat="49.271278" lon="6.799997">
        <ele>229.0</ele>
        <time>2020-07-10T06:40:51Z</time>
      </trkpt>
      <trkpt lat="49.271243" lon="6.800091">
        <ele>228.0</ele>
        <time>2020-07-10T06:40:53Z</time>
      </trkpt>
      <trkpt lat="49.271205" lon="6.800199">
        <ele>229.0</ele>
        <time>2020-07-10T06:40:55Z</time>
      </trkpt>
      <trkpt lat="49.271166" lon="6.800317">
        <ele>230.0</ele>
        <time>2020-07-10T06:40:57Z</time>
      </trkpt>
      <trkpt lat="49.271133" lon="6.800435">
        <ele>230.0</ele>
        <time>2020-07-10T06:40:59Z</time>
      </trkpt>
      <trkpt lat="49.271098" lon="6.800555">
        <ele>230.0</ele>
        <time>2020-07-10T06:41:01Z</time>
      </trkpt>
      <trkpt lat="49.271081" lon="6.800617">
        <ele>231.0</ele>
        <time>2020-07-10T06:41:02Z</time>
      </trkpt>
      <trkpt lat="49.271017" lon="6.80079">
        <ele>231.0</ele>
        <time>2020-07-10T06:41:05Z</time>
      </trkpt>
      <trkpt lat="49.270992" lon="6.80091">
        <ele>231.0</ele>
        <time>2020-07-10T06:41:07Z</time>
      </trkpt>
      <trkpt lat="49.270958" lon="6.801027">
        <ele>231.0</ele>
        <time>2020-07-10T06:41:09Z</time>
      </trkpt>
      <trkpt lat="49.27092" lon="6.801159">
        <ele>231.0</ele>
        <time>2020-07-10T06:41:11Z</time>
      </trkpt>
      <trkpt lat="49.270887" lon="6.801295">
        <ele>230.0</ele>
        <time>2020-07-10T06:41:13Z</time>
      </trkpt>
      <trkpt lat="49.270842" lon="6.801436">
        <ele>230.0</ele>
        <time>2020-07-10T06:41:15Z</time>
      </trkpt>
      <trkpt lat="49.270771" lon="6.801656">
        <ele>229.0</ele>
        <time>2020-07-10T06:41:18Z</time>
      </trkpt>
      <trkpt lat="49.270726" lon="6.801808">
        <ele>229.0</ele>
        <time>2020-07-10T06:41:20Z</time>
      </trkpt>
      <trkpt lat="49.27068" lon="6.801961">
        <ele>228.0</ele>
        <time>2020-07-10T06:41:22Z</time>
      </trkpt>
      <trkpt lat="49.270623" lon="6.80222">
        <ele>229.0</ele>
        <time>2020-07-10T06:41:25Z</time>
      </trkpt>
      <trkpt lat="49.270601" lon="6.802311">
        <ele>229.0</ele>
        <time>2020-07-10T06:41:26Z</time>
      </trkpt>
      <trkpt lat="49.270549" lon="6.802596">
        <ele>229.0</ele>
        <time>2020-07-10T06:41:29Z</time>
      </trkpt>
      <trkpt lat="49.27053" lon="6.802694">
        <ele>229.0</ele>
        <time>2020-07-10T06:41:30Z</time>
      </trkpt>
      <trkpt lat="49.27045" lon="6.803102">
        <ele>229.0</ele>
        <time>2020-07-10T06:41:34Z</time>
      </trkpt>
      <trkpt lat="49.270408" lon="6.803301">
        <ele>229.0</ele>
        <time>2020-07-10T06:41:36Z</time>
      </trkpt>
      <trkpt lat="49.270368" lon="6.803501">
        <ele>229.0</ele>
        <time>2020-07-10T06:41:38Z</time>
      </trkpt>
      <trkpt lat="49.270326" lon="6.803702">
        <ele>228.0</ele>
        <time>2020-07-10T06:41:40Z</time>
      </trkpt>
      <trkpt lat="49.270287" lon="6.803894">
        <ele>228.0</ele>
        <time>2020-07-10T06:41:42Z</time>
      </trkpt>
      <trkpt lat="49.270251" lon="6.804086">
        <ele>228.0</ele>
        <time>2020-07-10T06:41:44Z</time>
      </trkpt>
      <trkpt lat="49.270222" lon="6.804277">
        <ele>229.0</ele>
        <time>2020-07-10T06:41:46Z</time>
      </trkpt>
      <trkpt lat="49.270194" lon="6.804457">
        <ele>229.0</ele>
        <time>2020-07-10T06:41:48Z</time>
      </trkpt>
      <trkpt lat="49.270158" lon="6.804635">
        <ele>229.0</ele>
        <time>2020-07-10T06:41:50Z</time>
      </trkpt>
      <trkpt lat="49.270127" lon="6.804809">
        <ele>229.0</ele>
        <time>2020-07-10T06:41:52Z</time>
      </trkpt>
      <trkpt lat="49.270098" lon="6.804975">
        <ele>228.0</ele>
        <time>2020-07-10T06:41:54Z</time>
      </trkpt>
      <trkpt lat="49.270077" lon="6.805137">
        <ele>227.0</ele>
        <time>2020-07-10T06:41:56Z</time>
      </trkpt>
      <trkpt lat="49.270057" lon="6.805301">
        <ele>227.0</ele>
        <time>2020-07-10T06:41:58Z</time>
      </trkpt>
      <trkpt lat="49.270039" lon="6.805474">
        <ele>227.0</ele>
        <time>2020-07-10T06:42:00Z</time>
      </trkpt>
      <trkpt lat="49.27003" lon="6.805662">
        <ele>228.0</ele>
        <time>2020-07-10T06:42:02Z</time>
      </trkpt>
      <trkpt lat="49.270018" lon="6.805847">
        <ele>229.0</ele>
        <time>2020-07-10T06:42:04Z</time>
      </trkpt>
      <trkpt lat="49.270001" lon="6.80602">
        <ele>229.0</ele>
        <time>2020-07-10T06:42:06Z</time>
      </trkpt>
      <trkpt lat="49.26998" lon="6.806187">
        <ele>230.0</ele>
        <time>2020-07-10T06:42:08Z</time>
      </trkpt>
      <trkpt lat="49.269966" lon="6.806453">
        <ele>230.0</ele>
        <time>2020-07-10T06:42:11Z</time>
      </trkpt>
      <trkpt lat="49.269951" lon="6.806625">
        <ele>231.0</ele>
        <time>2020-07-10T06:42:13Z</time>
      </trkpt>
      <trkpt lat="49.269924" lon="6.806799">
        <ele>231.0</ele>
        <time>2020-07-10T06:42:15Z</time>
      </trkpt>
      <trkpt lat="49.269909" lon="6.806977">
        <ele>231.0</ele>
        <time>2020-07-10T06:42:17Z</time>
      </trkpt>
      <trkpt lat="49.269896" lon="6.807154">
        <ele>231.0</ele>
        <time>2020-07-10T06:42:19Z</time>
      </trkpt>
      <trkpt lat="49.269876" lon="6.80733">
        <ele>232.0</ele>
        <time>2020-07-10T06:42:21Z</time>
      </trkpt>
      <trkpt lat="49.269857" lon="6.807496">
        <ele>232.0</ele>
        <time>2020-07-10T06:42:23Z</time>
      </trkpt>
      <trkpt lat="49.269844" lon="6.807658">
        <ele>232.0</ele>
        <time>2020-07-10T06:42:25Z</time>
      </trkpt>
      <trkpt lat="49.269837" lon="6.807812">
        <ele>231.0</ele>
        <time>2020-07-10T06:42:27Z</time>
      </trkpt>
      <trkpt lat="49.269819" lon="6.807972">
        <ele>232.0</ele>
        <time>2020-07-10T06:42:29Z</time>
      </trkpt>
      <trkpt lat="49.269814" lon="6.80805">
        <ele>232.0</ele>
        <time>2020-07-10T06:42:30Z</time>
      </trkpt>
      <trkpt lat="49.269798" lon="6.80829">
        <ele>231.0</ele>
        <time>2020-07-10T06:42:33Z</time>
      </trkpt>
      <trkpt lat="49.269775" lon="6.808452">
        <ele>231.0</ele>
        <time>2020-07-10T06:42:35Z</time>
      </trkpt>
      <trkpt lat="49.269757" lon="6.808613">
        <ele>231.0</ele>
        <time>2020-07-10T06:42:37Z</time>
      </trkpt>
      <trkpt lat="49.26974" lon="6.808779">
        <ele>231.0</ele>
        <time>2020-07-10T06:42:39Z</time>
      </trkpt>
      <trkpt lat="49.26973" lon="6.809039">
        <ele>231.0</ele>
        <time>2020-07-10T06:42:42Z</time>
      </trkpt>
      <trkpt lat="49.26972" lon="6.809211">
        <ele>231.0</ele>
        <time>2020-07-10T06:42:44Z</time>
      </trkpt>
      <trkpt lat="49.269722" lon="6.809398">
        <ele>231.0</ele>
        <time>2020-07-10T06:42:46Z</time>
      </trkpt>
      <trkpt lat="49.269719" lon="6.809579">
        <ele>231.0</ele>
        <time>2020-07-10T06:42:48Z</time>
      </trkpt>
      <trkpt lat="49.269712" lon="6.809757">
        <ele>231.0</ele>
        <time>2020-07-10T06:42:50Z</time>
      </trkpt>
      <trkpt lat="49.269709" lon="6.809934">
        <ele>232.0</ele>
        <time>2020-07-10T06:42:52Z</time>
      </trkpt>
      <trkpt lat="49.2697" lon="6.810117">
        <ele>231.0</ele>
        <time>2020-07-10T06:42:54Z</time>
      </trkpt>
      <trkpt lat="49.269693" lon="6.810293">
        <ele>231.0</ele>
        <time>2020-07-10T06:42:56Z</time>
      </trkpt>
      <trkpt lat="49.269692" lon="6.810468">
        <ele>231.0</ele>
        <time>2020-07-10T06:42:58Z</time>
      </trkpt>
      <trkpt lat="49.269691" lon="6.810647">
        <ele>231.0</ele>
        <time>2020-07-10T06:43:00Z</time>
      </trkpt>
      <trkpt lat="49.26969" lon="6.810818">
        <ele>231.0</ele>
        <time>2020-07-10T06:43:02Z</time>
      </trkpt>
      <trkpt lat="49.269684" lon="6.810995">
        <ele>232.0</ele>
        <time>2020-07-10T06:43:04Z</time>
      </trkpt>
      <trkpt lat="49.269685" lon="6.811174">
        <ele>232.0</ele>
        <time>2020-07-10T06:43:06Z</time>
      </trkpt>
      <trkpt lat="49.269683" lon="6.811354">
        <ele>232.0</ele>
        <time>2020-07-10T06:43:08Z</time>
      </trkpt>
      <trkpt lat="49.269679" lon="6.811534">
        <ele>232.0</ele>
        <time>2020-07-10T06:43:10Z</time>
      </trkpt>
      <trkpt lat="49.269679" lon="6.811719">
        <ele>232.0</ele>
        <time>2020-07-10T06:43:12Z</time>
      </trkpt>
      <trkpt lat="49.269673" lon="6.811896">
        <ele>232.0</ele>
        <time>2020-07-10T06:43:14Z</time>
      </trkpt>
      <trkpt lat="49.269663" lon="6.81207">
        <ele>232.0</ele>
        <time>2020-07-10T06:43:16Z</time>
      </trkpt>
      <trkpt lat="49.269647" lon="6.812244">
        <ele>233.0</ele>
        <time>2020-07-10T06:43:18Z</time>
      </trkpt>
      <trkpt lat="49.269634" lon="6.812416">
        <ele>233.0</ele>
        <time>2020-07-10T06:43:20Z</time>
      </trkpt>
      <trkpt lat="49.269615" lon="6.812587">
        <ele>233.0</ele>
        <time>2020-07-10T06:43:22Z</time>
      </trkpt>
      <trkpt lat="49.269597" lon="6.81276">
        <ele>233.0</ele>
        <time>2020-07-10T06:43:24Z</time>
      </trkpt>
      <trkpt lat="49.269568" lon="6.813012">
        <ele>232.0</ele>
        <time>2020-07-10T06:43:27Z</time>
      </trkpt>
      <trkpt lat="49.269561" lon="6.813179">
        <ele>232.0</ele>
        <time>2020-07-10T06:43:29Z</time>
      </trkpt>
      <trkpt lat="49.269555" lon="6.813263">
        <ele>232.0</ele>
        <time>2020-07-10T06:43:30Z</time>
      </trkpt>
      <trkpt lat="49.269547" lon="6.813429">
        <ele>232.0</ele>
        <time>2020-07-10T06:43:32Z</time>
      </trkpt>
      <trkpt lat="49.26954" lon="6.813704">
        <ele>232.0</ele>
        <time>2020-07-10T06:43:35Z</time>
      </trkpt>
      <trkpt lat="49.269536" lon="6.813793">
        <ele>232.0</ele>
        <time>2020-07-10T06:43:36Z</time>
      </trkpt>
      <trkpt lat="49.269538" lon="6.814147">
        <ele>233.0</ele>
        <time>2020-07-10T06:43:40Z</time>
      </trkpt>
      <trkpt lat="49.26953" lon="6.814322">
        <ele>233.0</ele>
        <time>2020-07-10T06:43:42Z</time>
      </trkpt>
      <trkpt lat="49.269525" lon="6.814497">
        <ele>232.0</ele>
        <time>2020-07-10T06:43:44Z</time>
      </trkpt>
      <trkpt lat="49.269526" lon="6.814676">
        <ele>232.0</ele>
        <time>2020-07-10T06:43:46Z</time>
      </trkpt>
      <trkpt lat="49.26953" lon="6.81486">
        <ele>231.0</ele>
        <time>2020-07-10T06:43:48Z</time>
      </trkpt>
      <trkpt lat="49.269527" lon="6.815028">
        <ele>231.0</ele>
        <time>2020-07-10T06:43:50Z</time>
      </trkpt>
      <trkpt lat="49.26953" lon="6.815206">
        <ele>231.0</ele>
        <time>2020-07-10T06:43:52Z</time>
      </trkpt>
      <trkpt lat="49.269535" lon="6.815297">
        <ele>231.0</ele>
        <time>2020-07-10T06:43:53Z</time>
      </trkpt>
      <trkpt lat="49.269534" lon="6.815558">
        <ele>231.0</ele>
        <time>2020-07-10T06:43:56Z</time>
      </trkpt>
      <trkpt lat="49.269532" lon="6.815722">
        <ele>231.0</ele>
        <time>2020-07-10T06:43:58Z</time>
      </trkpt>
      <trkpt lat="49.269534" lon="6.815974">
        <ele>231.0</ele>
        <time>2020-07-10T06:44:01Z</time>
      </trkpt>
      <trkpt lat="49.269536" lon="6.816055">
        <ele>231.0</ele>
        <time>2020-07-10T06:44:02Z</time>
      </trkpt>
      <trkpt lat="49.269535" lon="6.816216">
        <ele>232.0</ele>
        <time>2020-07-10T06:44:04Z</time>
      </trkpt>
      <trkpt lat="49.26952" lon="6.816388">
        <ele>232.0</ele>
        <time>2020-07-10T06:44:06Z</time>
      </trkpt>
      <trkpt lat="49.269503" lon="6.816645">
        <ele>231.0</ele>
        <time>2020-07-10T06:44:09Z</time>
      </trkpt>
      <trkpt lat="49.26952" lon="6.816731">
        <ele>231.0</ele>
        <time>2020-07-10T06:44:10Z</time>
      </trkpt>
      <trkpt lat="49.269548" lon="6.817011">
        <ele>230.0</ele>
        <time>2020-07-10T06:44:13Z</time>
      </trkpt>
      <trkpt lat="49.269545" lon="6.817194">
        <ele>230.0</ele>
        <time>2020-07-10T06:44:15Z</time>
      </trkpt>
      <trkpt lat="49.269533" lon="6.817375">
        <ele>230.0</ele>
        <time>2020-07-10T06:44:17Z</time>
      </trkpt>
      <trkpt lat="49.269528" lon="6.817564">
        <ele>230.0</ele>
        <time>2020-07-10T06:44:19Z</time>
      </trkpt>
      <trkpt lat="49.269515" lon="6.81774">
        <ele>230.0</ele>
        <time>2020-07-10T06:44:21Z</time>
      </trkpt>
      <trkpt lat="49.2695" lon="6.817922">
        <ele>230.0</ele>
        <time>2020-07-10T06:44:23Z</time>
      </trkpt>
      <trkpt lat="49.269476" lon="6.818098">
        <ele>230.0</ele>
        <time>2020-07-10T06:44:25Z</time>
      </trkpt>
      <trkpt lat="49.269452" lon="6.818269">
        <ele>229.0</ele>
        <time>2020-07-10T06:44:27Z</time>
      </trkpt>
      <trkpt lat="49.269427" lon="6.818445">
        <ele>229.0</ele>
        <time>2020-07-10T06:44:29Z</time>
      </trkpt>
      <trkpt lat="49.26941" lon="6.818614">
        <ele>229.0</ele>
        <time>2020-07-10T06:44:31Z</time>
      </trkpt>
      <trkpt lat="49.269395" lon="6.818784">
        <ele>229.0</ele>
        <time>2020-07-10T06:44:33Z</time>
      </trkpt>
      <trkpt lat="49.269378" lon="6.818952">
        <ele>229.0</ele>
        <time>2020-07-10T06:44:35Z</time>
      </trkpt>
      <trkpt lat="49.269361" lon="6.819116">
        <ele>229.0</ele>
        <time>2020-07-10T06:44:37Z</time>
      </trkpt>
      <trkpt lat="49.269334" lon="6.819285">
        <ele>229.0</ele>
        <time>2020-07-10T06:44:39Z</time>
      </trkpt>
      <trkpt lat="49.269311" lon="6.819468">
        <ele>230.0</ele>
        <time>2020-07-10T06:44:41Z</time>
      </trkpt>
      <trkpt lat="49.26929" lon="6.819647">
        <ele>229.0</ele>
        <time>2020-07-10T06:44:43Z</time>
      </trkpt>
      <trkpt lat="49.269268" lon="6.819817">
        <ele>230.0</ele>
        <time>2020-07-10T06:44:45Z</time>
      </trkpt>
      <trkpt lat="49.269234" lon="6.819986">
        <ele>230.0</ele>
        <time>2020-07-10T06:44:47Z</time>
      </trkpt>
      <trkpt lat="49.269195" lon="6.820149">
        <ele>230.0</ele>
        <time>2020-07-10T06:44:49Z</time>
      </trkpt>
      <trkpt lat="49.269151" lon="6.820308">
        <ele>229.0</ele>
        <time>2020-07-10T06:44:51Z</time>
      </trkpt>
      <trkpt lat="49.269089" lon="6.820541">
        <ele>228.0</ele>
        <time>2020-07-10T06:44:54Z</time>
      </trkpt>
      <trkpt lat="49.269045" lon="6.82069">
        <ele>228.0</ele>
        <time>2020-07-10T06:44:56Z</time>
      </trkpt>
      <trkpt lat="49.268994" lon="6.820833">
        <ele>228.0</ele>
        <time>2020-07-10T06:44:58Z</time>
      </trkpt>
      <trkpt lat="49.268945" lon="6.820966">
        <ele>228.0</ele>
        <time>2020-07-10T06:45:00Z</time>
      </trkpt>
      <trkpt lat="49.268906" lon="6.821082">
        <ele>228.0</ele>
        <time>2020-07-10T06:45:02Z</time>
      </trkpt>
      <trkpt lat="49.268853" lon="6.82128">
        <ele>228.0</ele>
        <time>2020-07-10T06:45:05Z</time>
      </trkpt>
      <trkpt lat="49.268823" lon="6.821452">
        <ele>229.0</ele>
        <time>2020-07-10T06:45:07Z</time>
      </trkpt>
      <trkpt lat="49.268786" lon="6.82164">
        <ele>229.0</ele>
        <time>2020-07-10T06:45:09Z</time>
      </trkpt>
      <trkpt lat="49.268708" lon="6.821892">
        <ele>230.0</ele>
        <time>2020-07-10T06:45:12Z</time>
      </trkpt>
      <trkpt lat="49.268648" lon="6.822043">
        <ele>230.0</ele>
        <time>2020-07-10T06:45:14Z</time>
      </trkpt>
      <trkpt lat="49.268592" lon="6.822198">
        <ele>230.0</ele>
        <time>2020-07-10T06:45:16Z</time>
      </trkpt>
      <trkpt lat="49.268528" lon="6.822355">
        <ele>230.0</ele>
        <time>2020-07-10T06:45:18Z</time>
      </trkpt>
      <trkpt lat="49.268463" lon="6.822511">
        <ele>230.0</ele>
        <time>2020-07-10T06:45:20Z</time>
      </trkpt>
      <trkpt lat="49.268403" lon="6.822657">
        <ele>229.0</ele>
        <time>2020-07-10T06:45:22Z</time>
      </trkpt>
      <trkpt lat="49.268308" lon="6.822864">
        <ele>229.0</ele>
        <time>2020-07-10T06:45:25Z</time>
      </trkpt>
      <trkpt lat="49.268248" lon="6.823001">
        <ele>229.0</ele>
        <time>2020-07-10T06:45:27Z</time>
      </trkpt>
      <trkpt lat="49.268187" lon="6.823143">
        <ele>229.0</ele>
        <time>2020-07-10T06:45:29Z</time>
      </trkpt>
      <trkpt lat="49.268119" lon="6.82329">
        <ele>230.0</ele>
        <time>2020-07-10T06:45:31Z</time>
      </trkpt>
      <trkpt lat="49.268062" lon="6.823429">
        <ele>229.0</ele>
        <time>2020-07-10T06:45:33Z</time>
      </trkpt>
      <trkpt lat="49.268003" lon="6.823568">
        <ele>229.0</ele>
        <time>2020-07-10T06:45:35Z</time>
      </trkpt>
      <trkpt lat="49.267943" lon="6.823695">
        <ele>228.0</ele>
        <time>2020-07-10T06:45:37Z</time>
      </trkpt>
      <trkpt lat="49.267833" lon="6.823905">
        <ele>228.0</ele>
        <time>2020-07-10T06:45:40Z</time>
      </trkpt>
      <trkpt lat="49.267796" lon="6.823969">
        <ele>228.0</ele>
        <time>2020-07-10T06:45:41Z</time>
      </trkpt>
      <trkpt lat="49.267693" lon="6.824164">
        <ele>229.0</ele>
        <time>2020-07-10T06:45:44Z</time>
      </trkpt>
      <trkpt lat="49.267629" lon="6.82429">
        <ele>229.0</ele>
        <time>2020-07-10T06:45:46Z</time>
      </trkpt>
      <trkpt lat="49.267511" lon="6.824472">
        <ele>230.0</ele>
        <time>2020-07-10T06:45:49Z</time>
      </trkpt>
      <trkpt lat="49.267387" lon="6.824644">
        <ele>230.0</ele>
        <time>2020-07-10T06:45:52Z</time>
      </trkpt>
      <trkpt lat="49.267311" lon="6.824768">
        <ele>231.0</ele>
        <time>2020-07-10T06:45:54Z</time>
      </trkpt>
      <trkpt lat="49.267197" lon="6.824941">
        <ele>230.0</ele>
        <time>2020-07-10T06:45:57Z</time>
      </trkpt>
      <trkpt lat="49.267115" lon="6.825058">
        <ele>229.0</ele>
        <time>2020-07-10T06:45:59Z</time>
      </trkpt>
      <trkpt lat="49.267039" lon="6.825172">
        <ele>230.0</ele>
        <time>2020-07-10T06:46:01Z</time>
      </trkpt>
      <trkpt lat="49.266999" lon="6.825232">
        <ele>230.0</ele>
        <time>2020-07-10T06:46:02Z</time>
      </trkpt>
      <trkpt lat="49.266917" lon="6.825341">
        <ele>230.0</ele>
        <time>2020-07-10T06:46:04Z</time>
      </trkpt>
      <trkpt lat="49.266834" lon="6.825459">
        <ele>231.0</ele>
        <time>2020-07-10T06:46:06Z</time>
      </trkpt>
      <trkpt lat="49.266745" lon="6.825579">
        <ele>231.0</ele>
        <time>2020-07-10T06:46:08Z</time>
      </trkpt>
      <trkpt lat="49.266615" lon="6.825745">
        <ele>230.0</ele>
        <time>2020-07-10T06:46:11Z</time>
      </trkpt>
      <trkpt lat="49.266524" lon="6.825851">
        <ele>230.0</ele>
        <time>2020-07-10T06:46:13Z</time>
      </trkpt>
      <trkpt lat="49.266433" lon="6.825962">
        <ele>230.0</ele>
        <time>2020-07-10T06:46:15Z</time>
      </trkpt>
      <trkpt lat="49.266351" lon="6.826069">
        <ele>230.0</ele>
        <time>2020-07-10T06:46:17Z</time>
      </trkpt>
      <trkpt lat="49.266264" lon="6.826169">
        <ele>230.0</ele>
        <time>2020-07-10T06:46:19Z</time>
      </trkpt>
      <trkpt lat="49.266176" lon="6.826268">
        <ele>230.0</ele>
        <time>2020-07-10T06:46:21Z</time>
      </trkpt>
      <trkpt lat="49.266095" lon="6.826366">
        <ele>231.0</ele>
        <time>2020-07-10T06:46:23Z</time>
      </trkpt>
      <trkpt lat="49.266012" lon="6.82647">
        <ele>231.0</ele>
        <time>2020-07-10T06:46:25Z</time>
      </trkpt>
      <trkpt lat="49.265928" lon="6.826567">
        <ele>230.0</ele>
        <time>2020-07-10T06:46:27Z</time>
      </trkpt>
      <trkpt lat="49.26584" lon="6.826668">
        <ele>230.0</ele>
        <time>2020-07-10T06:46:29Z</time>
      </trkpt>
      <trkpt lat="49.265747" lon="6.826772">
        <ele>230.0</ele>
        <time>2020-07-10T06:46:31Z</time>
      </trkpt>
      <trkpt lat="49.265668" lon="6.826868">
        <ele>230.0</ele>
        <time>2020-07-10T06:46:33Z</time>
      </trkpt>
      <trkpt lat="49.26559" lon="6.826966">
        <ele>230.0</ele>
        <time>2020-07-10T06:46:35Z</time>
      </trkpt>
      <trkpt lat="49.265501" lon="6.827074">
        <ele>229.0</ele>
        <time>2020-07-10T06:46:37Z</time>
      </trkpt>
      <trkpt lat="49.265405" lon="6.827175">
        <ele>228.0</ele>
        <time>2020-07-10T06:46:39Z</time>
      </trkpt>
      <trkpt lat="49.2653" lon="6.827266">
        <ele>228.0</ele>
        <time>2020-07-10T06:46:41Z</time>
      </trkpt>
      <trkpt lat="49.265213" lon="6.827357">
        <ele>227.0</ele>
        <time>2020-07-10T06:46:43Z</time>
      </trkpt>
      <trkpt lat="49.265075" lon="6.827513">
        <ele>226.0</ele>
        <time>2020-07-10T06:46:46Z</time>
      </trkpt>
      <trkpt lat="49.264981" lon="6.827614">
        <ele>226.0</ele>
        <time>2020-07-10T06:46:48Z</time>
      </trkpt>
      <trkpt lat="49.264893" lon="6.827719">
        <ele>226.0</ele>
        <time>2020-07-10T06:46:50Z</time>
      </trkpt>
      <trkpt lat="49.264817" lon="6.827824">
        <ele>226.0</ele>
        <time>2020-07-10T06:46:52Z</time>
      </trkpt>
      <trkpt lat="49.264751" lon="6.827963">
        <ele>225.0</ele>
        <time>2020-07-10T06:46:54Z</time>
      </trkpt>
      <trkpt lat="49.264722" lon="6.828036">
        <ele>225.0</ele>
        <time>2020-07-10T06:46:55Z</time>
      </trkpt>
      <trkpt lat="49.264611" lon="6.828234">
        <ele>226.0</ele>
        <time>2020-07-10T06:46:58Z</time>
      </trkpt>
      <trkpt lat="49.264529" lon="6.82835">
        <ele>226.0</ele>
        <time>2020-07-10T06:47:00Z</time>
      </trkpt>
      <trkpt lat="49.264448" lon="6.828462">
        <ele>227.0</ele>
        <time>2020-07-10T06:47:02Z</time>
      </trkpt>
      <trkpt lat="49.264358" lon="6.828552">
        <ele>227.0</ele>
        <time>2020-07-10T06:47:04Z</time>
      </trkpt>
      <trkpt lat="49.264279" lon="6.82863">
        <ele>227.0</ele>
        <time>2020-07-10T06:47:06Z</time>
      </trkpt>
      <trkpt lat="49.264217" lon="6.828719">
        <ele>228.0</ele>
        <time>2020-07-10T06:47:08Z</time>
      </trkpt>
      <trkpt lat="49.264141" lon="6.828798">
        <ele>229.0</ele>
        <time>2020-07-10T06:47:10Z</time>
      </trkpt>
      <trkpt lat="49.264067" lon="6.828885">
        <ele>229.0</ele>
        <time>2020-07-10T06:47:12Z</time>
      </trkpt>
      <trkpt lat="49.263992" lon="6.828989">
        <ele>230.0</ele>
        <time>2020-07-10T06:47:14Z</time>
      </trkpt>
      <trkpt lat="49.26391" lon="6.829089">
        <ele>230.0</ele>
        <time>2020-07-10T06:47:16Z</time>
      </trkpt>
      <trkpt lat="49.263834" lon="6.829182">
        <ele>230.0</ele>
        <time>2020-07-10T06:47:18Z</time>
      </trkpt>
      <trkpt lat="49.263753" lon="6.829282">
        <ele>231.0</ele>
        <time>2020-07-10T06:47:20Z</time>
      </trkpt>
      <trkpt lat="49.263671" lon="6.82938">
        <ele>231.0</ele>
        <time>2020-07-10T06:47:22Z</time>
      </trkpt>
      <trkpt lat="49.263584" lon="6.829462">
        <ele>231.0</ele>
        <time>2020-07-10T06:47:24Z</time>
      </trkpt>
      <trkpt lat="49.263506" lon="6.829561">
        <ele>232.0</ele>
        <time>2020-07-10T06:47:26Z</time>
      </trkpt>
      <trkpt lat="49.263426" lon="6.829658">
        <ele>231.0</ele>
        <time>2020-07-10T06:47:28Z</time>
      </trkpt>
      <trkpt lat="49.263355" lon="6.829749">
        <ele>231.0</ele>
        <time>2020-07-10T06:47:30Z</time>
      </trkpt>
      <trkpt lat="49.263268" lon="6.829857">
        <ele>231.0</ele>
        <time>2020-07-10T06:47:32Z</time>
      </trkpt>
      <trkpt lat="49.263174" lon="6.829967">
        <ele>231.0</ele>
        <time>2020-07-10T06:47:34Z</time>
      </trkpt>
      <trkpt lat="49.263073" lon="6.830094">
        <ele>231.0</ele>
        <time>2020-07-10T06:47:36Z</time>
      </trkpt>
      <trkpt lat="49.262981" lon="6.830206">
        <ele>231.0</ele>
        <time>2020-07-10T06:47:38Z</time>
      </trkpt>
      <trkpt lat="49.262883" lon="6.830323">
        <ele>231.0</ele>
        <time>2020-07-10T06:47:40Z</time>
      </trkpt>
      <trkpt lat="49.262791" lon="6.830435">
        <ele>231.0</ele>
        <time>2020-07-10T06:47:42Z</time>
      </trkpt>
      <trkpt lat="49.262696" lon="6.830532">
        <ele>231.0</ele>
        <time>2020-07-10T06:47:44Z</time>
      </trkpt>
      <trkpt lat="49.262652" lon="6.830582">
        <ele>231.0</ele>
        <time>2020-07-10T06:47:45Z</time>
      </trkpt>
      <trkpt lat="49.262461" lon="6.830808">
        <ele>231.0</ele>
        <time>2020-07-10T06:47:49Z</time>
      </trkpt>
      <trkpt lat="49.262376" lon="6.83091">
        <ele>231.0</ele>
        <time>2020-07-10T06:47:51Z</time>
      </trkpt>
      <trkpt lat="49.262288" lon="6.831022">
        <ele>231.0</ele>
        <time>2020-07-10T06:47:53Z</time>
      </trkpt>
      <trkpt lat="49.262196" lon="6.831119">
        <ele>230.0</ele>
        <time>2020-07-10T06:47:55Z</time>
      </trkpt>
      <trkpt lat="49.262046" lon="6.831224">
        <ele>231.0</ele>
        <time>2020-07-10T06:47:58Z</time>
      </trkpt>
      <trkpt lat="49.261996" lon="6.831253">
        <ele>230.0</ele>
        <time>2020-07-10T06:47:59Z</time>
      </trkpt>
      <trkpt lat="49.261836" lon="6.831324">
        <ele>230.0</ele>
        <time>2020-07-10T06:48:02Z</time>
      </trkpt>
      <trkpt lat="49.261744" lon="6.831377">
        <ele>230.0</ele>
        <time>2020-07-10T06:48:04Z</time>
      </trkpt>
      <trkpt lat="49.261655" lon="6.831418">
        <ele>230.0</ele>
        <time>2020-07-10T06:48:06Z</time>
      </trkpt>
      <trkpt lat="49.261575" lon="6.831452">
        <ele>230.0</ele>
        <time>2020-07-10T06:48:08Z</time>
      </trkpt>
      <trkpt lat="49.261501" lon="6.831486">
        <ele>230.0</ele>
        <time>2020-07-10T06:48:10Z</time>
      </trkpt>
      <trkpt lat="49.261436" lon="6.831527">
        <ele>230.0</ele>
        <time>2020-07-10T06:48:12Z</time>
      </trkpt>
      <trkpt lat="49.261369" lon="6.831564">
        <ele>230.0</ele>
        <time>2020-07-10T06:48:14Z</time>
      </trkpt>
      <trkpt lat="49.261312" lon="6.831597">
        <ele>230.0</ele>
        <time>2020-07-10T06:48:16Z</time>
      </trkpt>
      <trkpt lat="49.261261" lon="6.831619">
        <ele>230.0</ele>
        <time>2020-07-10T06:48:18Z</time>
      </trkpt>
      <trkpt lat="49.261207" lon="6.831654">
        <ele>230.0</ele>
        <time>2020-07-10T06:48:20Z</time>
      </trkpt>
      <trkpt lat="49.261152" lon="6.831683">
        <ele>230.0</ele>
        <time>2020-07-10T06:48:22Z</time>
      </trkpt>
      <trkpt lat="49.261094" lon="6.831722">
        <ele>230.0</ele>
        <time>2020-07-10T06:48:24Z</time>
      </trkpt>
      <trkpt lat="49.261034" lon="6.83177">
        <ele>230.0</ele>
        <time>2020-07-10T06:48:26Z</time>
      </trkpt>
      <trkpt lat="49.260971" lon="6.83182">
        <ele>230.0</ele>
        <time>2020-07-10T06:48:28Z</time>
      </trkpt>
      <trkpt lat="49.260903" lon="6.83187">
        <ele>230.0</ele>
        <time>2020-07-10T06:48:30Z</time>
      </trkpt>
      <trkpt lat="49.260834" lon="6.831925">
        <ele>230.0</ele>
        <time>2020-07-10T06:48:32Z</time>
      </trkpt>
      <trkpt lat="49.260756" lon="6.831993">
        <ele>229.0</ele>
        <time>2020-07-10T06:48:34Z</time>
      </trkpt>
      <trkpt lat="49.260661" lon="6.832083">
        <ele>230.0</ele>
        <time>2020-07-10T06:48:36Z</time>
      </trkpt>
      <trkpt lat="49.260564" lon="6.832162">
        <ele>229.0</ele>
        <time>2020-07-10T06:48:38Z</time>
      </trkpt>
      <trkpt lat="49.260461" lon="6.832238">
        <ele>230.0</ele>
        <time>2020-07-10T06:48:40Z</time>
      </trkpt>
      <trkpt lat="49.260376" lon="6.832317">
        <ele>230.0</ele>
        <time>2020-07-10T06:48:42Z</time>
      </trkpt>
      <trkpt lat="49.2603" lon="6.832391">
        <ele>231.0</ele>
        <time>2020-07-10T06:48:44Z</time>
      </trkpt>
      <trkpt lat="49.260195" lon="6.832469">
        <ele>231.0</ele>
        <time>2020-07-10T06:48:47Z</time>
      </trkpt>
      <trkpt lat="49.260132" lon="6.832512">
        <ele>231.0</ele>
        <time>2020-07-10T06:48:49Z</time>
      </trkpt>
      <trkpt lat="49.260062" lon="6.832571">
        <ele>231.0</ele>
        <time>2020-07-10T06:48:51Z</time>
      </trkpt>
      <trkpt lat="49.259981" lon="6.832636">
        <ele>231.0</ele>
        <time>2020-07-10T06:48:53Z</time>
      </trkpt>
      <trkpt lat="49.259895" lon="6.832713">
        <ele>230.0</ele>
        <time>2020-07-10T06:48:55Z</time>
      </trkpt>
      <trkpt lat="49.2598" lon="6.8328">
        <ele>231.0</ele>
        <time>2020-07-10T06:48:57Z</time>
      </trkpt>
      <trkpt lat="49.259703" lon="6.832895">
        <ele>231.0</ele>
        <time>2020-07-10T06:49:00Z</time>
      </trkpt>
      <trkpt lat="49.25963" lon="6.832948">
        <ele>232.0</ele>
        <time>2020-07-10T06:49:02Z</time>
      </trkpt>
      <trkpt lat="49.259526" lon="6.833024">
        <ele>231.0</ele>
        <time>2020-07-10T06:49:04Z</time>
      </trkpt>
      <trkpt lat="49.259426" lon="6.833114">
        <ele>231.0</ele>
        <time>2020-07-10T06:49:06Z</time>
      </trkpt>
      <trkpt lat="49.259284" lon="6.833223">
        <ele>231.0</ele>
        <time>2020-07-10T06:49:09Z</time>
      </trkpt>
      <trkpt lat="49.25919" lon="6.833285">
        <ele>231.0</ele>
        <time>2020-07-10T06:49:11Z</time>
      </trkpt>
      <trkpt lat="49.259093" lon="6.833371">
        <ele>231.0</ele>
        <time>2020-07-10T06:49:13Z</time>
      </trkpt>
      <trkpt lat="49.258993" lon="6.833475">
        <ele>229.0</ele>
        <time>2020-07-10T06:49:15Z</time>
      </trkpt>
      <trkpt lat="49.258883" lon="6.833594">
        <ele>228.0</ele>
        <time>2020-07-10T06:49:17Z</time>
      </trkpt>
      <trkpt lat="49.258792" lon="6.833692">
        <ele>228.0</ele>
        <time>2020-07-10T06:49:19Z</time>
      </trkpt>
      <trkpt lat="49.258739" lon="6.833829">
        <ele>228.0</ele>
        <time>2020-07-10T06:49:21Z</time>
      </trkpt>
      <trkpt lat="49.258719" lon="6.834021">
        <ele>231.0</ele>
        <time>2020-07-10T06:49:23Z</time>
      </trkpt>
      <trkpt lat="49.258709" lon="6.834198">
        <ele>233.0</ele>
        <time>2020-07-10T06:49:25Z</time>
      </trkpt>
      <trkpt lat="49.258721" lon="6.834375">
        <ele>234.0</ele>
        <time>2020-07-10T06:49:27Z</time>
      </trkpt>
      <trkpt lat="49.258734" lon="6.834565">
        <ele>234.0</ele>
        <time>2020-07-10T06:49:29Z</time>
      </trkpt>
      <trkpt lat="49.258665" lon="6.834739">
        <ele>234.0</ele>
        <time>2020-07-10T06:49:31Z</time>
      </trkpt>
      <trkpt lat="49.258555" lon="6.834831">
        <ele>233.0</ele>
        <time>2020-07-10T06:49:33Z</time>
      </trkpt>
      <trkpt lat="49.258454" lon="6.834929">
        <ele>233.0</ele>
        <time>2020-07-10T06:49:35Z</time>
      </trkpt>
      <trkpt lat="49.25836" lon="6.835023">
        <ele>232.0</ele>
        <time>2020-07-10T06:49:37Z</time>
      </trkpt>
      <trkpt lat="49.258258" lon="6.835129">
        <ele>232.0</ele>
        <time>2020-07-10T06:49:39Z</time>
      </trkpt>
      <trkpt lat="49.258164" lon="6.835222">
        <ele>232.0</ele>
        <time>2020-07-10T06:49:41Z</time>
      </trkpt>
      <trkpt lat="49.258075" lon="6.835316">
        <ele>232.0</ele>
        <time>2020-07-10T06:49:43Z</time>
      </trkpt>
      <trkpt lat="49.258033" lon="6.835365">
        <ele>233.0</ele>
        <time>2020-07-10T06:49:44Z</time>
      </trkpt>
      <trkpt lat="49.257898" lon="6.835497">
        <ele>233.0</ele>
        <time>2020-07-10T06:49:47Z</time>
      </trkpt>
      <trkpt lat="49.257824" lon="6.835615">
        <ele>233.0</ele>
        <time>2020-07-10T06:49:49Z</time>
      </trkpt>
      <trkpt lat="49.257775" lon="6.835746">
        <ele>233.0</ele>
        <time>2020-07-10T06:49:51Z</time>
      </trkpt>
      <trkpt lat="49.257719" lon="6.835871">
        <ele>233.0</ele>
        <time>2020-07-10T06:49:53Z</time>
      </trkpt>
      <trkpt lat="49.257636" lon="6.835965">
        <ele>234.0</ele>
        <time>2020-07-10T06:49:55Z</time>
      </trkpt>
      <trkpt lat="49.257538" lon="6.836014">
        <ele>234.0</ele>
        <time>2020-07-10T06:49:57Z</time>
      </trkpt>
      <trkpt lat="49.257446" lon="6.836053">
        <ele>234.0</ele>
        <time>2020-07-10T06:49:59Z</time>
      </trkpt>
      <trkpt lat="49.257359" lon="6.836103">
        <ele>233.0</ele>
        <time>2020-07-10T06:50:01Z</time>
      </trkpt>
      <trkpt lat="49.257286" lon="6.83617">
        <ele>234.0</ele>
        <time>2020-07-10T06:50:03Z</time>
      </trkpt>
      <trkpt lat="49.257253" lon="6.836209">
        <ele>234.0</ele>
        <time>2020-07-10T06:50:04Z</time>
      </trkpt>
      <trkpt lat="49.256955" lon="6.836495">
        <ele>234.0</ele>
        <time>2020-07-10T06:50:13Z</time>
      </trkpt>
      <trkpt lat="49.25689" lon="6.836569">
        <ele>234.0</ele>
        <time>2020-07-10T06:50:15Z</time>
      </trkpt>
      <trkpt lat="49.256797" lon="6.836666">
        <ele>233.0</ele>
        <time>2020-07-10T06:50:18Z</time>
      </trkpt>
      <trkpt lat="49.256743" lon="6.836764">
        <ele>233.0</ele>
        <time>2020-07-10T06:50:20Z</time>
      </trkpt>
      <trkpt lat="49.256707" lon="6.836799">
        <ele>233.0</ele>
        <time>2020-07-10T06:50:21Z</time>
      </trkpt>
      <trkpt lat="49.256599" lon="6.836907">
        <ele>233.0</ele>
        <time>2020-07-10T06:50:24Z</time>
      </trkpt>
      <trkpt lat="49.256527" lon="6.836981">
        <ele>233.0</ele>
        <time>2020-07-10T06:50:26Z</time>
      </trkpt>
      <trkpt lat="49.25646" lon="6.83705">
        <ele>233.0</ele>
        <time>2020-07-10T06:50:28Z</time>
      </trkpt>
      <trkpt lat="49.256388" lon="6.837112">
        <ele>234.0</ele>
        <time>2020-07-10T06:50:30Z</time>
      </trkpt>
      <trkpt lat="49.256312" lon="6.837184">
        <ele>233.0</ele>
        <time>2020-07-10T06:50:32Z</time>
      </trkpt>
      <trkpt lat="49.25623" lon="6.837269">
        <ele>233.0</ele>
        <time>2020-07-10T06:50:34Z</time>
      </trkpt>
      <trkpt lat="49.256143" lon="6.837347">
        <ele>233.0</ele>
        <time>2020-07-10T06:50:36Z</time>
      </trkpt>
      <trkpt lat="49.25606" lon="6.837432">
        <ele>233.0</ele>
        <time>2020-07-10T06:50:38Z</time>
      </trkpt>
      <trkpt lat="49.255978" lon="6.837524">
        <ele>233.0</ele>
        <time>2020-07-10T06:50:40Z</time>
      </trkpt>
      <trkpt lat="49.255898" lon="6.837612">
        <ele>234.0</ele>
        <time>2020-07-10T06:50:42Z</time>
      </trkpt>
      <trkpt lat="49.255814" lon="6.837697">
        <ele>233.0</ele>
        <time>2020-07-10T06:50:44Z</time>
      </trkpt>
      <trkpt lat="49.255735" lon="6.837793">
        <ele>233.0</ele>
        <time>2020-07-10T06:50:46Z</time>
      </trkpt>
      <trkpt lat="49.255651" lon="6.83788">
        <ele>233.0</ele>
        <time>2020-07-10T06:50:48Z</time>
      </trkpt>
      <trkpt lat="49.255561" lon="6.837974">
        <ele>233.0</ele>
        <time>2020-07-10T06:50:50Z</time>
      </trkpt>
      <trkpt lat="49.255475" lon="6.838065">
        <ele>233.0</ele>
        <time>2020-07-10T06:50:52Z</time>
      </trkpt>
      <trkpt lat="49.255387" lon="6.83815">
        <ele>233.0</ele>
        <time>2020-07-10T06:50:54Z</time>
      </trkpt>
      <trkpt lat="49.255303" lon="6.838224">
        <ele>233.0</ele>
        <time>2020-07-10T06:50:56Z</time>
      </trkpt>
      <trkpt lat="49.255222" lon="6.8383">
        <ele>233.0</ele>
        <time>2020-07-10T06:50:58Z</time>
      </trkpt>
      <trkpt lat="49.255141" lon="6.838396">
        <ele>233.0</ele>
        <time>2020-07-10T06:51:00Z</time>
      </trkpt>
      <trkpt lat="49.2551" lon="6.838439">
        <ele>233.0</ele>
        <time>2020-07-10T06:51:01Z</time>
      </trkpt>
      <trkpt lat="49.254971" lon="6.838574">
        <ele>232.0</ele>
        <time>2020-07-10T06:51:04Z</time>
      </trkpt>
      <trkpt lat="49.25488" lon="6.838663">
        <ele>233.0</ele>
        <time>2020-07-10T06:51:06Z</time>
      </trkpt>
      <trkpt lat="49.254752" lon="6.838805">
        <ele>233.0</ele>
        <time>2020-07-10T06:51:09Z</time>
      </trkpt>
      <trkpt lat="49.254663" lon="6.838903">
        <ele>232.0</ele>
        <time>2020-07-10T06:51:11Z</time>
      </trkpt>
      <trkpt lat="49.25462" lon="6.838954">
        <ele>232.0</ele>
        <time>2020-07-10T06:51:12Z</time>
      </trkpt>
      <trkpt lat="49.254538" lon="6.839041">
        <ele>233.0</ele>
        <time>2020-07-10T06:51:14Z</time>
      </trkpt>
      <trkpt lat="49.254419" lon="6.83918">
        <ele>233.0</ele>
        <time>2020-07-10T06:51:17Z</time>
      </trkpt>
      <trkpt lat="49.254337" lon="6.839262">
        <ele>233.0</ele>
        <time>2020-07-10T06:51:19Z</time>
      </trkpt>
      <trkpt lat="49.254299" lon="6.839304">
        <ele>233.0</ele>
        <time>2020-07-10T06:51:20Z</time>
      </trkpt>
      <trkpt lat="49.254193" lon="6.839412">
        <ele>233.0</ele>
        <time>2020-07-10T06:51:23Z</time>
      </trkpt>
      <trkpt lat="49.254139" lon="6.839486">
        <ele>234.0</ele>
        <time>2020-07-10T06:51:25Z</time>
      </trkpt>
      <trkpt lat="49.254084" lon="6.839597">
        <ele>233.0</ele>
        <time>2020-07-10T06:51:27Z</time>
      </trkpt>
      <trkpt lat="49.254034" lon="6.839716">
        <ele>232.0</ele>
        <time>2020-07-10T06:51:29Z</time>
      </trkpt>
      <trkpt lat="49.253965" lon="6.839807">
        <ele>232.0</ele>
        <time>2020-07-10T06:51:31Z</time>
      </trkpt>
      <trkpt lat="49.253877" lon="6.839854">
        <ele>232.0</ele>
        <time>2020-07-10T06:51:33Z</time>
      </trkpt>
      <trkpt lat="49.253789" lon="6.839895">
        <ele>231.0</ele>
        <time>2020-07-10T06:51:35Z</time>
      </trkpt>
      <trkpt lat="49.253748" lon="6.839905">
        <ele>231.0</ele>
        <time>2020-07-10T06:51:36Z</time>
      </trkpt>
      <trkpt lat="49.253631" lon="6.839921">
        <ele>231.0</ele>
        <time>2020-07-10T06:51:39Z</time>
      </trkpt>
      <trkpt lat="49.253567" lon="6.839911">
        <ele>231.0</ele>
        <time>2020-07-10T06:51:41Z</time>
      </trkpt>
      <trkpt lat="49.253503" lon="6.839895">
        <ele>231.0</ele>
        <time>2020-07-10T06:51:43Z</time>
      </trkpt>
      <trkpt lat="49.253439" lon="6.839873">
        <ele>231.0</ele>
        <time>2020-07-10T06:51:45Z</time>
      </trkpt>
      <trkpt lat="49.253336" lon="6.839801">
        <ele>231.0</ele>
        <time>2020-07-10T06:51:49Z</time>
      </trkpt>
      <trkpt lat="49.253298" lon="6.839754">
        <ele>231.0</ele>
        <time>2020-07-10T06:51:51Z</time>
      </trkpt>
      <trkpt lat="49.253278" lon="6.839683">
        <ele>232.0</ele>
        <time>2020-07-10T06:51:53Z</time>
      </trkpt>
      <trkpt lat="49.253282" lon="6.839614">
        <ele>232.0</ele>
        <time>2020-07-10T06:51:55Z</time>
      </trkpt>
      <trkpt lat="49.253299" lon="6.839554">
        <ele>233.0</ele>
        <time>2020-07-10T06:51:57Z</time>
      </trkpt>
      <trkpt lat="49.253304" lon="6.839499">
        <ele>233.0</ele>
        <time>2020-07-10T06:51:59Z</time>
      </trkpt>
      <trkpt lat="49.253299" lon="6.839439">
        <ele>234.0</ele>
        <time>2020-07-10T06:52:01Z</time>
      </trkpt>
      <trkpt lat="49.253281" lon="6.8394">
        <ele>234.0</ele>
        <time>2020-07-10T06:52:03Z</time>
      </trkpt>
      <trkpt lat="49.253254" lon="6.839374">
        <ele>234.0</ele>
        <time>2020-07-10T06:52:05Z</time>
      </trkpt>
      <trkpt lat="49.253215" lon="6.839365">
        <ele>234.0</ele>
        <time>2020-07-10T06:52:07Z</time>
      </trkpt>
      <trkpt lat="49.25316" lon="6.839367">
        <ele>234.0</ele>
        <time>2020-07-10T06:52:09Z</time>
      </trkpt>
      <trkpt lat="49.253105" lon="6.839368">
        <ele>235.0</ele>
        <time>2020-07-10T06:52:11Z</time>
      </trkpt>
      <trkpt lat="49.253045" lon="6.839368">
        <ele>235.0</ele>
        <time>2020-07-10T06:52:13Z</time>
      </trkpt>
      <trkpt lat="49.252992" lon="6.839374">
        <ele>235.0</ele>
        <time>2020-07-10T06:52:15Z</time>
      </trkpt>
      <trkpt lat="49.252917" lon="6.839369">
        <ele>235.0</ele>
        <time>2020-07-10T06:52:17Z</time>
      </trkpt>
      <trkpt lat="49.252842" lon="6.839347">
        <ele>236.0</ele>
        <time>2020-07-10T06:52:19Z</time>
      </trkpt>
      <trkpt lat="49.252736" lon="6.839333">
        <ele>236.0</ele>
        <time>2020-07-10T06:52:22Z</time>
      </trkpt>
      <trkpt lat="49.252665" lon="6.839324">
        <ele>236.0</ele>
        <time>2020-07-10T06:52:24Z</time>
      </trkpt>
      <trkpt lat="49.252593" lon="6.839305">
        <ele>236.0</ele>
        <time>2020-07-10T06:52:26Z</time>
      </trkpt>
      <trkpt lat="49.252476" lon="6.839296">
        <ele>238.0</ele>
        <time>2020-07-10T06:52:29Z</time>
      </trkpt>
      <trkpt lat="49.252396" lon="6.839258">
        <ele>239.0</ele>
        <time>2020-07-10T06:52:31Z</time>
      </trkpt>
      <trkpt lat="49.252271" lon="6.839213">
        <ele>239.0</ele>
        <time>2020-07-10T06:52:34Z</time>
      </trkpt>
      <trkpt lat="49.252144" lon="6.839182">
        <ele>239.0</ele>
        <time>2020-07-10T06:52:37Z</time>
      </trkpt>
      <trkpt lat="49.252014" lon="6.839155">
        <ele>241.0</ele>
        <time>2020-07-10T06:52:40Z</time>
      </trkpt>
      <trkpt lat="49.251913" lon="6.839143">
        <ele>240.0</ele>
        <time>2020-07-10T06:52:42Z</time>
      </trkpt>
      <trkpt lat="49.251825" lon="6.83911">
        <ele>240.0</ele>
        <time>2020-07-10T06:52:44Z</time>
      </trkpt>
      <trkpt lat="49.251743" lon="6.839079">
        <ele>239.0</ele>
        <time>2020-07-10T06:52:46Z</time>
      </trkpt>
      <trkpt lat="49.251666" lon="6.839042">
        <ele>239.0</ele>
        <time>2020-07-10T06:52:48Z</time>
      </trkpt>
      <trkpt lat="49.251589" lon="6.839011">
        <ele>238.0</ele>
        <time>2020-07-10T06:52:50Z</time>
      </trkpt>
      <trkpt lat="49.251507" lon="6.838994">
        <ele>237.0</ele>
        <time>2020-07-10T06:52:52Z</time>
      </trkpt>
      <trkpt lat="49.25142" lon="6.838994">
        <ele>237.0</ele>
        <time>2020-07-10T06:52:54Z</time>
      </trkpt>
      <trkpt lat="49.25138" lon="6.839002">
        <ele>237.0</ele>
        <time>2020-07-10T06:52:55Z</time>
      </trkpt>
      <trkpt lat="49.251249" lon="6.839034">
        <ele>236.0</ele>
        <time>2020-07-10T06:52:58Z</time>
      </trkpt>
      <trkpt lat="49.251153" lon="6.83902">
        <ele>236.0</ele>
        <time>2020-07-10T06:53:00Z</time>
      </trkpt>
      <trkpt lat="49.251065" lon="6.839038">
        <ele>236.0</ele>
        <time>2020-07-10T06:53:02Z</time>
      </trkpt>
      <trkpt lat="49.251008" lon="6.839106">
        <ele>236.0</ele>
        <time>2020-07-10T06:53:04Z</time>
      </trkpt>
      <trkpt lat="49.250933" lon="6.839173">
        <ele>236.0</ele>
        <time>2020-07-10T06:53:06Z</time>
      </trkpt>
      <trkpt lat="49.250819" lon="6.839218">
        <ele>236.0</ele>
        <time>2020-07-10T06:53:08Z</time>
      </trkpt>
      <trkpt lat="49.250675" lon="6.839204">
        <ele>235.0</ele>
        <time>2020-07-10T06:53:10Z</time>
      </trkpt>
      <trkpt lat="49.250538" lon="6.839157">
        <ele>235.0</ele>
        <time>2020-07-10T06:53:12Z</time>
      </trkpt>
      <trkpt lat="49.250416" lon="6.839104">
        <ele>235.0</ele>
        <time>2020-07-10T06:53:14Z</time>
      </trkpt>
      <trkpt lat="49.250315" lon="6.839059">
        <ele>235.0</ele>
        <time>2020-07-10T06:53:16Z</time>
      </trkpt>
      <trkpt lat="49.250217" lon="6.839022">
        <ele>234.0</ele>
        <time>2020-07-10T06:53:18Z</time>
      </trkpt>
      <trkpt lat="49.250128" lon="6.838988">
        <ele>234.0</ele>
        <time>2020-07-10T06:53:20Z</time>
      </trkpt>
      <trkpt lat="49.250031" lon="6.838951">
        <ele>234.0</ele>
        <time>2020-07-10T06:53:22Z</time>
      </trkpt>
      <trkpt lat="49.249934" lon="6.838908">
        <ele>234.0</ele>
        <time>2020-07-10T06:53:24Z</time>
      </trkpt>
      <trkpt lat="49.249843" lon="6.838863">
        <ele>233.0</ele>
        <time>2020-07-10T06:53:26Z</time>
      </trkpt>
      <trkpt lat="49.249755" lon="6.838834">
        <ele>232.0</ele>
        <time>2020-07-10T06:53:28Z</time>
      </trkpt>
      <trkpt lat="49.24967" lon="6.838807">
        <ele>233.0</ele>
        <time>2020-07-10T06:53:30Z</time>
      </trkpt>
      <trkpt lat="49.249541" lon="6.838775">
        <ele>233.0</ele>
        <time>2020-07-10T06:53:33Z</time>
      </trkpt>
      <trkpt lat="49.249495" lon="6.83876">
        <ele>232.0</ele>
        <time>2020-07-10T06:53:34Z</time>
      </trkpt>
      <trkpt lat="49.249404" lon="6.838738">
        <ele>232.0</ele>
        <time>2020-07-10T06:53:36Z</time>
      </trkpt>
      <trkpt lat="49.249261" lon="6.838729">
        <ele>232.0</ele>
        <time>2020-07-10T06:53:39Z</time>
      </trkpt>
      <trkpt lat="49.249169" lon="6.838725">
        <ele>232.0</ele>
        <time>2020-07-10T06:53:41Z</time>
      </trkpt>
      <trkpt lat="49.24908" lon="6.838719">
        <ele>232.0</ele>
        <time>2020-07-10T06:53:43Z</time>
      </trkpt>
      <trkpt lat="49.248983" lon="6.838712">
        <ele>233.0</ele>
        <time>2020-07-10T06:53:45Z</time>
      </trkpt>
      <trkpt lat="49.248896" lon="6.838713">
        <ele>232.0</ele>
        <time>2020-07-10T06:53:47Z</time>
      </trkpt>
      <trkpt lat="49.248735" lon="6.838734">
        <ele>232.0</ele>
        <time>2020-07-10T06:53:50Z</time>
      </trkpt>
      <trkpt lat="49.248634" lon="6.838752">
        <ele>232.0</ele>
        <time>2020-07-10T06:53:52Z</time>
      </trkpt>
      <trkpt lat="49.248525" lon="6.838767">
        <ele>232.0</ele>
        <time>2020-07-10T06:53:54Z</time>
      </trkpt>
      <trkpt lat="49.248408" lon="6.838781">
        <ele>232.0</ele>
        <time>2020-07-10T06:53:56Z</time>
      </trkpt>
      <trkpt lat="49.248291" lon="6.838822">
        <ele>231.0</ele>
        <time>2020-07-10T06:53:58Z</time>
      </trkpt>
      <trkpt lat="49.248114" lon="6.838861">
        <ele>231.0</ele>
        <time>2020-07-10T06:54:01Z</time>
      </trkpt>
      <trkpt lat="49.247997" lon="6.838886">
        <ele>231.0</ele>
        <time>2020-07-10T06:54:03Z</time>
      </trkpt>
      <trkpt lat="49.247873" lon="6.838903">
        <ele>232.0</ele>
        <time>2020-07-10T06:54:05Z</time>
      </trkpt>
      <trkpt lat="49.247695" lon="6.838923">
        <ele>232.0</ele>
        <time>2020-07-10T06:54:08Z</time>
      </trkpt>
      <trkpt lat="49.247571" lon="6.838905">
        <ele>232.0</ele>
        <time>2020-07-10T06:54:10Z</time>
      </trkpt>
      <trkpt lat="49.247455" lon="6.838903">
        <ele>232.0</ele>
        <time>2020-07-10T06:54:12Z</time>
      </trkpt>
      <trkpt lat="49.247333" lon="6.838926">
        <ele>231.0</ele>
        <time>2020-07-10T06:54:14Z</time>
      </trkpt>
      <trkpt lat="49.247222" lon="6.838935">
        <ele>231.0</ele>
        <time>2020-07-10T06:54:16Z</time>
      </trkpt>
      <trkpt lat="49.247119" lon="6.838937">
        <ele>231.0</ele>
        <time>2020-07-10T06:54:18Z</time>
      </trkpt>
      <trkpt lat="49.247021" lon="6.838953">
        <ele>231.0</ele>
        <time>2020-07-10T06:54:20Z</time>
      </trkpt>
      <trkpt lat="49.246874" lon="6.838973">
        <ele>231.0</ele>
        <time>2020-07-10T06:54:23Z</time>
      </trkpt>
      <trkpt lat="49.246774" lon="6.838998">
        <ele>231.0</ele>
        <time>2020-07-10T06:54:25Z</time>
      </trkpt>
      <trkpt lat="49.246671" lon="6.839018">
        <ele>231.0</ele>
        <time>2020-07-10T06:54:27Z</time>
      </trkpt>
      <trkpt lat="49.246578" lon="6.83904">
        <ele>231.0</ele>
        <time>2020-07-10T06:54:29Z</time>
      </trkpt>
      <trkpt lat="49.246484" lon="6.839085">
        <ele>232.0</ele>
        <time>2020-07-10T06:54:31Z</time>
      </trkpt>
      <trkpt lat="49.246337" lon="6.839187">
        <ele>232.0</ele>
        <time>2020-07-10T06:54:34Z</time>
      </trkpt>
      <trkpt lat="49.246254" lon="6.839277">
        <ele>231.0</ele>
        <time>2020-07-10T06:54:36Z</time>
      </trkpt>
      <trkpt lat="49.24618" lon="6.839379">
        <ele>231.0</ele>
        <time>2020-07-10T06:54:38Z</time>
      </trkpt>
      <trkpt lat="49.246136" lon="6.839424">
        <ele>231.0</ele>
        <time>2020-07-10T06:54:39Z</time>
      </trkpt>
      <trkpt lat="49.245923" lon="6.83951">
        <ele>230.0</ele>
        <time>2020-07-10T06:54:43Z</time>
      </trkpt>
      <trkpt lat="49.245879" lon="6.839501">
        <ele>230.0</ele>
        <time>2020-07-10T06:54:44Z</time>
      </trkpt>
      <trkpt lat="49.245779" lon="6.839384">
        <ele>231.0</ele>
        <time>2020-07-10T06:54:47Z</time>
      </trkpt>
      <trkpt lat="49.245742" lon="6.839295">
        <ele>232.0</ele>
        <time>2020-07-10T06:54:49Z</time>
      </trkpt>
      <trkpt lat="49.245672" lon="6.83919">
        <ele>232.0</ele>
        <time>2020-07-10T06:54:52Z</time>
      </trkpt>
      <trkpt lat="49.245618" lon="6.839192">
        <ele>233.0</ele>
        <time>2020-07-10T06:54:54Z</time>
      </trkpt>
      <trkpt lat="49.24556" lon="6.839267">
        <ele>233.0</ele>
        <time>2020-07-10T06:54:56Z</time>
      </trkpt>
      <trkpt lat="49.245506" lon="6.839354">
        <ele>233.0</ele>
        <time>2020-07-10T06:54:58Z</time>
      </trkpt>
      <trkpt lat="49.245474" lon="6.839395">
        <ele>234.0</ele>
        <time>2020-07-10T06:54:59Z</time>
      </trkpt>
      <trkpt lat="49.245388" lon="6.839549">
        <ele>234.0</ele>
        <time>2020-07-10T06:55:02Z</time>
      </trkpt>
      <trkpt lat="49.245328" lon="6.83965">
        <ele>234.0</ele>
        <time>2020-07-10T06:55:04Z</time>
      </trkpt>
      <trkpt lat="49.245327" lon="6.839655">
        <ele>234.0</ele>
        <time>2020-07-10T06:55:06Z</time>
      </trkpt>
      <trkpt lat="49.245239" lon="6.839779">
        <ele>234.0</ele>
        <time>2020-07-10T06:55:08Z</time>
      </trkpt>
      <trkpt lat="49.24508" lon="6.839992">
        <ele>233.0</ele>
        <time>2020-07-10T06:55:11Z</time>
      </trkpt>
      <trkpt lat="49.244925" lon="6.840199">
        <ele>232.0</ele>
        <time>2020-07-10T06:55:14Z</time>
      </trkpt>
      <trkpt lat="49.244875" lon="6.840265">
        <ele>232.0</ele>
        <time>2020-07-10T06:55:15Z</time>
      </trkpt>
      <trkpt lat="49.244716" lon="6.840446">
        <ele>232.0</ele>
        <time>2020-07-10T06:55:18Z</time>
      </trkpt>
      <trkpt lat="49.244613" lon="6.84056">
        <ele>231.0</ele>
        <time>2020-07-10T06:55:20Z</time>
      </trkpt>
      <trkpt lat="49.244523" lon="6.840675">
        <ele>231.0</ele>
        <time>2020-07-10T06:55:22Z</time>
      </trkpt>
      <trkpt lat="49.244428" lon="6.840788">
        <ele>232.0</ele>
        <time>2020-07-10T06:55:24Z</time>
      </trkpt>
      <trkpt lat="49.244338" lon="6.840903">
        <ele>232.0</ele>
        <time>2020-07-10T06:55:26Z</time>
      </trkpt>
      <trkpt lat="49.244249" lon="6.841014">
        <ele>232.0</ele>
        <time>2020-07-10T06:55:28Z</time>
      </trkpt>
      <trkpt lat="49.24412" lon="6.841174">
        <ele>232.0</ele>
        <time>2020-07-10T06:55:31Z</time>
      </trkpt>
      <trkpt lat="49.244032" lon="6.841289">
        <ele>232.0</ele>
        <time>2020-07-10T06:55:33Z</time>
      </trkpt>
      <trkpt lat="49.24394" lon="6.841402">
        <ele>232.0</ele>
        <time>2020-07-10T06:55:35Z</time>
      </trkpt>
      <trkpt lat="49.243854" lon="6.841538">
        <ele>232.0</ele>
        <time>2020-07-10T06:55:37Z</time>
      </trkpt>
      <trkpt lat="49.243766" lon="6.841668">
        <ele>233.0</ele>
        <time>2020-07-10T06:55:39Z</time>
      </trkpt>
      <trkpt lat="49.24368" lon="6.841811">
        <ele>233.0</ele>
        <time>2020-07-10T06:55:41Z</time>
      </trkpt>
      <trkpt lat="49.243592" lon="6.841946">
        <ele>233.0</ele>
        <time>2020-07-10T06:55:43Z</time>
      </trkpt>
      <trkpt lat="49.24351" lon="6.842068">
        <ele>233.0</ele>
        <time>2020-07-10T06:55:45Z</time>
      </trkpt>
      <trkpt lat="49.243436" lon="6.842189">
        <ele>232.0</ele>
        <time>2020-07-10T06:55:47Z</time>
      </trkpt>
      <trkpt lat="49.243335" lon="6.842393">
        <ele>232.0</ele>
        <time>2020-07-10T06:55:50Z</time>
      </trkpt>
      <trkpt lat="49.24327" lon="6.842532">
        <ele>232.0</ele>
        <time>2020-07-10T06:55:52Z</time>
      </trkpt>
      <trkpt lat="49.243205" lon="6.842675">
        <ele>232.0</ele>
        <time>2020-07-10T06:55:54Z</time>
      </trkpt>
      <trkpt lat="49.243143" lon="6.842806">
        <ele>232.0</ele>
        <time>2020-07-10T06:55:56Z</time>
      </trkpt>
      <trkpt lat="49.24308" lon="6.842948">
        <ele>232.0</ele>
        <time>2020-07-10T06:55:58Z</time>
      </trkpt>
      <trkpt lat="49.243019" lon="6.843088">
        <ele>232.0</ele>
        <time>2020-07-10T06:56:00Z</time>
      </trkpt>
      <trkpt lat="49.242966" lon="6.843229">
        <ele>232.0</ele>
        <time>2020-07-10T06:56:02Z</time>
      </trkpt>
      <trkpt lat="49.242909" lon="6.843371">
        <ele>233.0</ele>
        <time>2020-07-10T06:56:04Z</time>
      </trkpt>
      <trkpt lat="49.242854" lon="6.843521">
        <ele>233.0</ele>
        <time>2020-07-10T06:56:06Z</time>
      </trkpt>
      <trkpt lat="49.242795" lon="6.843665">
        <ele>233.0</ele>
        <time>2020-07-10T06:56:08Z</time>
      </trkpt>
      <trkpt lat="49.242741" lon="6.843826">
        <ele>233.0</ele>
        <time>2020-07-10T06:56:10Z</time>
      </trkpt>
      <trkpt lat="49.242665" lon="6.844074">
        <ele>232.0</ele>
        <time>2020-07-10T06:56:13Z</time>
      </trkpt>
      <trkpt lat="49.242612" lon="6.844236">
        <ele>232.0</ele>
        <time>2020-07-10T06:56:15Z</time>
      </trkpt>
      <trkpt lat="49.242569" lon="6.844388">
        <ele>231.0</ele>
        <time>2020-07-10T06:56:17Z</time>
      </trkpt>
      <trkpt lat="49.242529" lon="6.844563">
        <ele>231.0</ele>
        <time>2020-07-10T06:56:19Z</time>
      </trkpt>
      <trkpt lat="49.242459" lon="6.844811">
        <ele>231.0</ele>
        <time>2020-07-10T06:56:22Z</time>
      </trkpt>
      <trkpt lat="49.242411" lon="6.844979">
        <ele>230.0</ele>
        <time>2020-07-10T06:56:24Z</time>
      </trkpt>
      <trkpt lat="49.242392" lon="6.845061">
        <ele>231.0</ele>
        <time>2020-07-10T06:56:25Z</time>
      </trkpt>
      <trkpt lat="49.242335" lon="6.845314">
        <ele>231.0</ele>
        <time>2020-07-10T06:56:28Z</time>
      </trkpt>
      <trkpt lat="49.242306" lon="6.84547">
        <ele>231.0</ele>
        <time>2020-07-10T06:56:30Z</time>
      </trkpt>
      <trkpt lat="49.242259" lon="6.845737">
        <ele>232.0</ele>
        <time>2020-07-10T06:56:33Z</time>
      </trkpt>
      <trkpt lat="49.242228" lon="6.845913">
        <ele>232.0</ele>
        <time>2020-07-10T06:56:35Z</time>
      </trkpt>
      <trkpt lat="49.24219" lon="6.846077">
        <ele>231.0</ele>
        <time>2020-07-10T06:56:37Z</time>
      </trkpt>
      <trkpt lat="49.24216" lon="6.846243">
        <ele>230.0</ele>
        <time>2020-07-10T06:56:39Z</time>
      </trkpt>
      <trkpt lat="49.242131" lon="6.846409">
        <ele>230.0</ele>
        <time>2020-07-10T06:56:41Z</time>
      </trkpt>
      <trkpt lat="49.242081" lon="6.84666">
        <ele>230.0</ele>
        <time>2020-07-10T06:56:44Z</time>
      </trkpt>
      <trkpt lat="49.242062" lon="6.846823">
        <ele>231.0</ele>
        <time>2020-07-10T06:56:46Z</time>
      </trkpt>
      <trkpt lat="49.242051" lon="6.846909">
        <ele>231.0</ele>
        <time>2020-07-10T06:56:47Z</time>
      </trkpt>
      <trkpt lat="49.242011" lon="6.847174">
        <ele>231.0</ele>
        <time>2020-07-10T06:56:50Z</time>
      </trkpt>
      <trkpt lat="49.242" lon="6.84726">
        <ele>231.0</ele>
        <time>2020-07-10T06:56:51Z</time>
      </trkpt>
      <trkpt lat="49.241976" lon="6.847525">
        <ele>231.0</ele>
        <time>2020-07-10T06:56:54Z</time>
      </trkpt>
      <trkpt lat="49.241953" lon="6.8477">
        <ele>231.0</ele>
        <time>2020-07-10T06:56:56Z</time>
      </trkpt>
      <trkpt lat="49.241925" lon="6.847952">
        <ele>232.0</ele>
        <time>2020-07-10T06:56:59Z</time>
      </trkpt>
      <trkpt lat="49.241909" lon="6.848143">
        <ele>232.0</ele>
        <time>2020-07-10T06:57:01Z</time>
      </trkpt>
      <trkpt lat="49.241885" lon="6.848311">
        <ele>232.0</ele>
        <time>2020-07-10T06:57:03Z</time>
      </trkpt>
      <trkpt lat="49.241861" lon="6.848467">
        <ele>232.0</ele>
        <time>2020-07-10T06:57:05Z</time>
      </trkpt>
      <trkpt lat="49.241846" lon="6.848634">
        <ele>232.0</ele>
        <time>2020-07-10T06:57:07Z</time>
      </trkpt>
      <trkpt lat="49.24183" lon="6.848807">
        <ele>232.0</ele>
        <time>2020-07-10T06:57:09Z</time>
      </trkpt>
      <trkpt lat="49.241808" lon="6.84898">
        <ele>231.0</ele>
        <time>2020-07-10T06:57:11Z</time>
      </trkpt>
      <trkpt lat="49.241775" lon="6.849252">
        <ele>231.0</ele>
        <time>2020-07-10T06:57:14Z</time>
      </trkpt>
      <trkpt lat="49.241768" lon="6.849338">
        <ele>231.0</ele>
        <time>2020-07-10T06:57:15Z</time>
      </trkpt>
      <trkpt lat="49.241738" lon="6.849592">
        <ele>231.0</ele>
        <time>2020-07-10T06:57:18Z</time>
      </trkpt>
      <trkpt lat="49.241725" lon="6.849677">
        <ele>231.0</ele>
        <time>2020-07-10T06:57:19Z</time>
      </trkpt>
      <trkpt lat="49.241703" lon="6.849928">
        <ele>231.0</ele>
        <time>2020-07-10T06:57:22Z</time>
      </trkpt>
      <trkpt lat="49.241696" lon="6.85009">
        <ele>231.0</ele>
        <time>2020-07-10T06:57:24Z</time>
      </trkpt>
      <trkpt lat="49.241683" lon="6.850254">
        <ele>230.0</ele>
        <time>2020-07-10T06:57:26Z</time>
      </trkpt>
      <trkpt lat="49.241675" lon="6.850414">
        <ele>231.0</ele>
        <time>2020-07-10T06:57:28Z</time>
      </trkpt>
      <trkpt lat="49.24166" lon="6.850657">
        <ele>231.0</ele>
        <time>2020-07-10T06:57:31Z</time>
      </trkpt>
      <trkpt lat="49.241659" lon="6.850823">
        <ele>231.0</ele>
        <time>2020-07-10T06:57:33Z</time>
      </trkpt>
      <trkpt lat="49.241659" lon="6.850996">
        <ele>231.0</ele>
        <time>2020-07-10T06:57:35Z</time>
      </trkpt>
      <trkpt lat="49.241648" lon="6.85117">
        <ele>231.0</ele>
        <time>2020-07-10T06:57:37Z</time>
      </trkpt>
      <trkpt lat="49.241642" lon="6.851415">
        <ele>231.0</ele>
        <time>2020-07-10T06:57:40Z</time>
      </trkpt>
      <trkpt lat="49.241659" lon="6.851587">
        <ele>230.0</ele>
        <time>2020-07-10T06:57:42Z</time>
      </trkpt>
      <trkpt lat="49.241655" lon="6.851761">
        <ele>229.0</ele>
        <time>2020-07-10T06:57:44Z</time>
      </trkpt>
      <trkpt lat="49.241633" lon="6.85194">
        <ele>228.0</ele>
        <time>2020-07-10T06:57:46Z</time>
      </trkpt>
      <trkpt lat="49.24162" lon="6.852216">
        <ele>227.0</ele>
        <time>2020-07-10T06:57:49Z</time>
      </trkpt>
      <trkpt lat="49.241614" lon="6.852303">
        <ele>227.0</ele>
        <time>2020-07-10T06:57:50Z</time>
      </trkpt>
      <trkpt lat="49.2416" lon="6.852569">
        <ele>226.0</ele>
        <time>2020-07-10T06:57:53Z</time>
      </trkpt>
      <trkpt lat="49.241595" lon="6.852744">
        <ele>226.0</ele>
        <time>2020-07-10T06:57:55Z</time>
      </trkpt>
      <trkpt lat="49.24158" lon="6.852925">
        <ele>227.0</ele>
        <time>2020-07-10T06:57:57Z</time>
      </trkpt>
      <trkpt lat="49.241582" lon="6.853103">
        <ele>227.0</ele>
        <time>2020-07-10T06:57:59Z</time>
      </trkpt>
      <trkpt lat="49.241567" lon="6.853291">
        <ele>227.0</ele>
        <time>2020-07-10T06:58:01Z</time>
      </trkpt>
      <trkpt lat="49.241544" lon="6.853471">
        <ele>228.0</ele>
        <time>2020-07-10T06:58:03Z</time>
      </trkpt>
      <trkpt lat="49.241523" lon="6.853653">
        <ele>229.0</ele>
        <time>2020-07-10T06:58:05Z</time>
      </trkpt>
      <trkpt lat="49.241503" lon="6.853828">
        <ele>229.0</ele>
        <time>2020-07-10T06:58:07Z</time>
      </trkpt>
      <trkpt lat="49.241493" lon="6.854007">
        <ele>229.0</ele>
        <time>2020-07-10T06:58:09Z</time>
      </trkpt>
      <trkpt lat="49.241476" lon="6.854181">
        <ele>229.0</ele>
        <time>2020-07-10T06:58:11Z</time>
      </trkpt>
      <trkpt lat="49.241463" lon="6.85435">
        <ele>229.0</ele>
        <time>2020-07-10T06:58:13Z</time>
      </trkpt>
      <trkpt lat="49.241452" lon="6.854535">
        <ele>230.0</ele>
        <time>2020-07-10T06:58:15Z</time>
      </trkpt>
      <trkpt lat="49.241448" lon="6.854719">
        <ele>230.0</ele>
        <time>2020-07-10T06:58:17Z</time>
      </trkpt>
      <trkpt lat="49.241444" lon="6.85491">
        <ele>230.0</ele>
        <time>2020-07-10T06:58:19Z</time>
      </trkpt>
      <trkpt lat="49.241441" lon="6.855088">
        <ele>231.0</ele>
        <time>2020-07-10T06:58:21Z</time>
      </trkpt>
      <trkpt lat="49.241448" lon="6.855269">
        <ele>231.0</ele>
        <time>2020-07-10T06:58:23Z</time>
      </trkpt>
      <trkpt lat="49.241458" lon="6.855452">
        <ele>231.0</ele>
        <time>2020-07-10T06:58:25Z</time>
      </trkpt>
      <trkpt lat="49.241478" lon="6.855633">
        <ele>231.0</ele>
        <time>2020-07-10T06:58:27Z</time>
      </trkpt>
      <trkpt lat="49.241494" lon="6.855812">
        <ele>231.0</ele>
        <time>2020-07-10T06:58:29Z</time>
      </trkpt>
      <trkpt lat="49.241526" lon="6.856065">
        <ele>231.0</ele>
        <time>2020-07-10T06:58:32Z</time>
      </trkpt>
      <trkpt lat="49.24154" lon="6.856235">
        <ele>230.0</ele>
        <time>2020-07-10T06:58:34Z</time>
      </trkpt>
      <trkpt lat="49.241578" lon="6.856399">
        <ele>230.0</ele>
        <time>2020-07-10T06:58:36Z</time>
      </trkpt>
      <trkpt lat="49.241615" lon="6.856566">
        <ele>230.0</ele>
        <time>2020-07-10T06:58:38Z</time>
      </trkpt>
      <trkpt lat="49.241641" lon="6.85673">
        <ele>230.0</ele>
        <time>2020-07-10T06:58:40Z</time>
      </trkpt>
      <trkpt lat="49.241675" lon="6.856898">
        <ele>230.0</ele>
        <time>2020-07-10T06:58:42Z</time>
      </trkpt>
      <trkpt lat="49.241711" lon="6.857073">
        <ele>231.0</ele>
        <time>2020-07-10T06:58:44Z</time>
      </trkpt>
      <trkpt lat="49.241752" lon="6.857243">
        <ele>230.0</ele>
        <time>2020-07-10T06:58:46Z</time>
      </trkpt>
      <trkpt lat="49.241795" lon="6.857411">
        <ele>230.0</ele>
        <time>2020-07-10T06:58:48Z</time>
      </trkpt>
      <trkpt lat="49.241838" lon="6.857571">
        <ele>229.0</ele>
        <time>2020-07-10T06:58:50Z</time>
      </trkpt>
      <trkpt lat="49.24189" lon="6.857727">
        <ele>230.0</ele>
        <time>2020-07-10T06:58:52Z</time>
      </trkpt>
      <trkpt lat="49.241949" lon="6.857883">
        <ele>229.0</ele>
        <time>2020-07-10T06:58:54Z</time>
      </trkpt>
      <trkpt lat="49.24201" lon="6.858048">
        <ele>229.0</ele>
        <time>2020-07-10T06:58:56Z</time>
      </trkpt>
      <trkpt lat="49.242072" lon="6.8582">
        <ele>230.0</ele>
        <time>2020-07-10T06:58:58Z</time>
      </trkpt>
      <trkpt lat="49.242133" lon="6.858348">
        <ele>230.0</ele>
        <time>2020-07-10T06:59:00Z</time>
      </trkpt>
      <trkpt lat="49.242237" lon="6.858566">
        <ele>230.0</ele>
        <time>2020-07-10T06:59:03Z</time>
      </trkpt>
      <trkpt lat="49.242298" lon="6.858726">
        <ele>230.0</ele>
        <time>2020-07-10T06:59:05Z</time>
      </trkpt>
      <trkpt lat="49.242326" lon="6.858809">
        <ele>229.0</ele>
        <time>2020-07-10T06:59:06Z</time>
      </trkpt>
      <trkpt lat="49.242398" lon="6.859023">
        <ele>230.0</ele>
        <time>2020-07-10T06:59:09Z</time>
      </trkpt>
      <trkpt lat="49.24245" lon="6.859146">
        <ele>230.0</ele>
        <time>2020-07-10T06:59:11Z</time>
      </trkpt>
      <trkpt lat="49.242507" lon="6.859254">
        <ele>229.0</ele>
        <time>2020-07-10T06:59:13Z</time>
      </trkpt>
      <trkpt lat="49.24257" lon="6.859356">
        <ele>230.0</ele>
        <time>2020-07-10T06:59:15Z</time>
      </trkpt>
      <trkpt lat="49.242624" lon="6.859451">
        <ele>231.0</ele>
        <time>2020-07-10T06:59:17Z</time>
      </trkpt>
      <trkpt lat="49.242683" lon="6.859548">
        <ele>231.0</ele>
        <time>2020-07-10T06:59:19Z</time>
      </trkpt>
      <trkpt lat="49.242748" lon="6.859637">
        <ele>232.0</ele>
        <time>2020-07-10T06:59:21Z</time>
      </trkpt>
      <trkpt lat="49.242825" lon="6.859735">
        <ele>233.0</ele>
        <time>2020-07-10T06:59:23Z</time>
      </trkpt>
      <trkpt lat="49.242902" lon="6.859831">
        <ele>233.0</ele>
        <time>2020-07-10T06:59:25Z</time>
      </trkpt>
      <trkpt lat="49.242978" lon="6.859924">
        <ele>233.0</ele>
        <time>2020-07-10T06:59:27Z</time>
      </trkpt>
      <trkpt lat="49.243098" lon="6.860055">
        <ele>233.0</ele>
        <time>2020-07-10T06:59:30Z</time>
      </trkpt>
      <trkpt lat="49.243184" lon="6.860143">
        <ele>233.0</ele>
        <time>2020-07-10T06:59:32Z</time>
      </trkpt>
      <trkpt lat="49.243308" lon="6.860254">
        <ele>233.0</ele>
        <time>2020-07-10T06:59:35Z</time>
      </trkpt>
      <trkpt lat="49.243392" lon="6.860328">
        <ele>233.0</ele>
        <time>2020-07-10T06:59:37Z</time>
      </trkpt>
      <trkpt lat="49.243482" lon="6.860399">
        <ele>234.0</ele>
        <time>2020-07-10T06:59:39Z</time>
      </trkpt>
      <trkpt lat="49.243613" lon="6.860495">
        <ele>234.0</ele>
        <time>2020-07-10T06:59:42Z</time>
      </trkpt>
      <trkpt lat="49.243708" lon="6.860544">
        <ele>234.0</ele>
        <time>2020-07-10T06:59:44Z</time>
      </trkpt>
      <trkpt lat="49.243752" lon="6.860567">
        <ele>234.0</ele>
        <time>2020-07-10T06:59:45Z</time>
      </trkpt>
      <trkpt lat="49.243886" lon="6.86065">
        <ele>234.0</ele>
        <time>2020-07-10T06:59:48Z</time>
      </trkpt>
      <trkpt lat="49.243978" lon="6.860709">
        <ele>234.0</ele>
        <time>2020-07-10T06:59:50Z</time>
      </trkpt>
      <trkpt lat="49.244069" lon="6.860769">
        <ele>234.0</ele>
        <time>2020-07-10T06:59:52Z</time>
      </trkpt>
      <trkpt lat="49.24421" lon="6.860849">
        <ele>234.0</ele>
        <time>2020-07-10T06:59:55Z</time>
      </trkpt>
      <trkpt lat="49.244306" lon="6.860911">
        <ele>234.0</ele>
        <time>2020-07-10T06:59:57Z</time>
      </trkpt>
      <trkpt lat="49.244408" lon="6.860966">
        <ele>234.0</ele>
        <time>2020-07-10T06:59:59Z</time>
      </trkpt>
      <trkpt lat="49.244503" lon="6.861012">
        <ele>234.0</ele>
        <time>2020-07-10T07:00:01Z</time>
      </trkpt>
      <trkpt lat="49.244601" lon="6.861064">
        <ele>234.0</ele>
        <time>2020-07-10T07:00:03Z</time>
      </trkpt>
      <trkpt lat="49.244696" lon="6.861111">
        <ele>233.0</ele>
        <time>2020-07-10T07:00:05Z</time>
      </trkpt>
      <trkpt lat="49.244847" lon="6.861167">
        <ele>233.0</ele>
        <time>2020-07-10T07:00:08Z</time>
      </trkpt>
      <trkpt lat="49.244954" lon="6.861202">
        <ele>234.0</ele>
        <time>2020-07-10T07:00:10Z</time>
      </trkpt>
      <trkpt lat="49.245007" lon="6.861219">
        <ele>234.0</ele>
        <time>2020-07-10T07:00:11Z</time>
      </trkpt>
      <trkpt lat="49.245172" lon="6.861263">
        <ele>233.0</ele>
        <time>2020-07-10T07:00:14Z</time>
      </trkpt>
      <trkpt lat="49.245331" lon="6.861292">
        <ele>233.0</ele>
        <time>2020-07-10T07:00:17Z</time>
      </trkpt>
      <trkpt lat="49.245425" lon="6.861321">
        <ele>233.0</ele>
        <time>2020-07-10T07:00:19Z</time>
      </trkpt>
      <trkpt lat="49.245518" lon="6.861401">
        <ele>232.0</ele>
        <time>2020-07-10T07:00:21Z</time>
      </trkpt>
      <trkpt lat="49.245556" lon="6.861475">
        <ele>233.0</ele>
        <time>2020-07-10T07:00:22Z</time>
      </trkpt>
      <trkpt lat="49.245556" lon="6.861647">
        <ele>233.0</ele>
        <time>2020-07-10T07:00:24Z</time>
      </trkpt>
      <trkpt lat="49.245613" lon="6.861892">
        <ele>234.0</ele>
        <time>2020-07-10T07:00:27Z</time>
      </trkpt>
      <trkpt lat="49.245663" lon="6.862022">
        <ele>234.0</ele>
        <time>2020-07-10T07:00:29Z</time>
      </trkpt>
      <trkpt lat="49.24572" lon="6.862117">
        <ele>234.0</ele>
        <time>2020-07-10T07:00:31Z</time>
      </trkpt>
      <trkpt lat="49.245829" lon="6.862246">
        <ele>235.0</ele>
        <time>2020-07-10T07:00:34Z</time>
      </trkpt>
      <trkpt lat="49.24591" lon="6.862343">
        <ele>235.0</ele>
        <time>2020-07-10T07:00:36Z</time>
      </trkpt>
      <trkpt lat="49.24599" lon="6.862444">
        <ele>234.0</ele>
        <time>2020-07-10T07:00:38Z</time>
      </trkpt>
      <trkpt lat="49.246065" lon="6.862539">
        <ele>234.0</ele>
        <time>2020-07-10T07:00:40Z</time>
      </trkpt>
      <trkpt lat="49.246142" lon="6.862633">
        <ele>234.0</ele>
        <time>2020-07-10T07:00:42Z</time>
      </trkpt>
      <trkpt lat="49.246241" lon="6.862719">
        <ele>235.0</ele>
        <time>2020-07-10T07:00:44Z</time>
      </trkpt>
      <trkpt lat="49.246322" lon="6.862808">
        <ele>235.0</ele>
        <time>2020-07-10T07:00:46Z</time>
      </trkpt>
      <trkpt lat="49.246402" lon="6.862907">
        <ele>235.0</ele>
        <time>2020-07-10T07:00:48Z</time>
      </trkpt>
      <trkpt lat="49.246484" lon="6.863008">
        <ele>235.0</ele>
        <time>2020-07-10T07:00:50Z</time>
      </trkpt>
      <trkpt lat="49.246602" lon="6.863148">
        <ele>235.0</ele>
        <time>2020-07-10T07:00:53Z</time>
      </trkpt>
      <trkpt lat="49.246685" lon="6.863246">
        <ele>235.0</ele>
        <time>2020-07-10T07:00:55Z</time>
      </trkpt>
      <trkpt lat="49.246727" lon="6.863299">
        <ele>235.0</ele>
        <time>2020-07-10T07:00:56Z</time>
      </trkpt>
      <trkpt lat="49.246886" lon="6.863495">
        <ele>235.0</ele>
        <time>2020-07-10T07:01:00Z</time>
      </trkpt>
      <trkpt lat="49.246968" lon="6.863593">
        <ele>235.0</ele>
        <time>2020-07-10T07:01:02Z</time>
      </trkpt>
      <trkpt lat="49.247047" lon="6.863689">
        <ele>235.0</ele>
        <time>2020-07-10T07:01:04Z</time>
      </trkpt>
      <trkpt lat="49.24717" lon="6.863839">
        <ele>236.0</ele>
        <time>2020-07-10T07:01:07Z</time>
      </trkpt>
      <trkpt lat="49.24721" lon="6.863892">
        <ele>236.0</ele>
        <time>2020-07-10T07:01:08Z</time>
      </trkpt>
      <trkpt lat="49.247329" lon="6.864053">
        <ele>235.0</ele>
        <time>2020-07-10T07:01:11Z</time>
      </trkpt>
      <trkpt lat="49.247407" lon="6.864156">
        <ele>235.0</ele>
        <time>2020-07-10T07:01:13Z</time>
      </trkpt>
      <trkpt lat="49.247486" lon="6.864273">
        <ele>235.0</ele>
        <time>2020-07-10T07:01:15Z</time>
      </trkpt>
      <trkpt lat="49.247562" lon="6.864381">
        <ele>235.0</ele>
        <time>2020-07-10T07:01:17Z</time>
      </trkpt>
      <trkpt lat="49.247641" lon="6.864499">
        <ele>234.0</ele>
        <time>2020-07-10T07:01:19Z</time>
      </trkpt>
      <trkpt lat="49.247717" lon="6.864615">
        <ele>233.0</ele>
        <time>2020-07-10T07:01:21Z</time>
      </trkpt>
      <trkpt lat="49.247794" lon="6.864738">
        <ele>233.0</ele>
        <time>2020-07-10T07:01:23Z</time>
      </trkpt>
      <trkpt lat="49.247864" lon="6.864857">
        <ele>233.0</ele>
        <time>2020-07-10T07:01:25Z</time>
      </trkpt>
      <trkpt lat="49.247957" lon="6.865067">
        <ele>234.0</ele>
        <time>2020-07-10T07:01:28Z</time>
      </trkpt>
      <trkpt lat="49.248035" lon="6.865197">
        <ele>234.0</ele>
        <time>2020-07-10T07:01:30Z</time>
      </trkpt>
      <trkpt lat="49.24811" lon="6.865323">
        <ele>234.0</ele>
        <time>2020-07-10T07:01:32Z</time>
      </trkpt>
      <trkpt lat="49.248181" lon="6.86546">
        <ele>234.0</ele>
        <time>2020-07-10T07:01:34Z</time>
      </trkpt>
      <trkpt lat="49.248279" lon="6.865667">
        <ele>233.0</ele>
        <time>2020-07-10T07:01:37Z</time>
      </trkpt>
      <trkpt lat="49.248351" lon="6.865807">
        <ele>234.0</ele>
        <time>2020-07-10T07:01:39Z</time>
      </trkpt>
      <trkpt lat="49.248421" lon="6.865946">
        <ele>234.0</ele>
        <time>2020-07-10T07:01:41Z</time>
      </trkpt>
      <trkpt lat="49.248484" lon="6.866089">
        <ele>235.0</ele>
        <time>2020-07-10T07:01:43Z</time>
      </trkpt>
      <trkpt lat="49.248576" lon="6.866294">
        <ele>235.0</ele>
        <time>2020-07-10T07:01:46Z</time>
      </trkpt>
      <trkpt lat="49.248651" lon="6.866414">
        <ele>235.0</ele>
        <time>2020-07-10T07:01:48Z</time>
      </trkpt>
      <trkpt lat="49.248745" lon="6.866496">
        <ele>235.0</ele>
        <time>2020-07-10T07:01:50Z</time>
      </trkpt>
      <trkpt lat="49.248884" lon="6.866656">
        <ele>235.0</ele>
        <time>2020-07-10T07:01:53Z</time>
      </trkpt>
      <trkpt lat="49.248998" lon="6.866715">
        <ele>235.0</ele>
        <time>2020-07-10T07:01:55Z</time>
      </trkpt>
      <trkpt lat="49.249114" lon="6.86676">
        <ele>235.0</ele>
        <time>2020-07-10T07:01:57Z</time>
      </trkpt>
      <trkpt lat="49.249208" lon="6.866866">
        <ele>235.0</ele>
        <time>2020-07-10T07:01:59Z</time>
      </trkpt>
      <trkpt lat="49.249284" lon="6.867022">
        <ele>235.0</ele>
        <time>2020-07-10T07:02:01Z</time>
      </trkpt>
      <trkpt lat="49.24934" lon="6.867184">
        <ele>235.0</ele>
        <time>2020-07-10T07:02:03Z</time>
      </trkpt>
      <trkpt lat="49.249416" lon="6.867428">
        <ele>235.0</ele>
        <time>2020-07-10T07:02:06Z</time>
      </trkpt>
      <trkpt lat="49.24947" lon="6.867585">
        <ele>235.0</ele>
        <time>2020-07-10T07:02:08Z</time>
      </trkpt>
      <trkpt lat="49.249531" lon="6.867742">
        <ele>235.0</ele>
        <time>2020-07-10T07:02:10Z</time>
      </trkpt>
      <trkpt lat="49.249589" lon="6.867893">
        <ele>235.0</ele>
        <time>2020-07-10T07:02:12Z</time>
      </trkpt>
      <trkpt lat="49.249642" lon="6.868046">
        <ele>235.0</ele>
        <time>2020-07-10T07:02:14Z</time>
      </trkpt>
      <trkpt lat="49.249698" lon="6.868194">
        <ele>235.0</ele>
        <time>2020-07-10T07:02:16Z</time>
      </trkpt>
      <trkpt lat="49.249756" lon="6.868326">
        <ele>235.0</ele>
        <time>2020-07-10T07:02:18Z</time>
      </trkpt>
      <trkpt lat="49.249817" lon="6.868472">
        <ele>235.0</ele>
        <time>2020-07-10T07:02:20Z</time>
      </trkpt>
      <trkpt lat="49.249878" lon="6.868716">
        <ele>235.0</ele>
        <time>2020-07-10T07:02:23Z</time>
      </trkpt>
      <trkpt lat="49.249885" lon="6.86888">
        <ele>235.0</ele>
        <time>2020-07-10T07:02:25Z</time>
      </trkpt>
      <trkpt lat="49.249858" lon="6.868959">
        <ele>235.0</ele>
        <time>2020-07-10T07:02:26Z</time>
      </trkpt>
      <trkpt lat="49.249747" lon="6.869133">
        <ele>235.0</ele>
        <time>2020-07-10T07:02:29Z</time>
      </trkpt>
      <trkpt lat="49.249673" lon="6.869238">
        <ele>235.0</ele>
        <time>2020-07-10T07:02:31Z</time>
      </trkpt>
      <trkpt lat="49.249672" lon="6.869455">
        <ele>235.0</ele>
        <time>2020-07-10T07:02:34Z</time>
      </trkpt>
      <trkpt lat="49.249689" lon="6.869526">
        <ele>235.0</ele>
        <time>2020-07-10T07:02:35Z</time>
      </trkpt>
      <trkpt lat="49.24974" lon="6.869733">
        <ele>236.0</ele>
        <time>2020-07-10T07:02:38Z</time>
      </trkpt>
      <trkpt lat="49.249772" lon="6.869883">
        <ele>236.0</ele>
        <time>2020-07-10T07:02:40Z</time>
      </trkpt>
      <trkpt lat="49.249814" lon="6.870107">
        <ele>236.0</ele>
        <time>2020-07-10T07:02:43Z</time>
      </trkpt>
      <trkpt lat="49.24984" lon="6.870254">
        <ele>236.0</ele>
        <time>2020-07-10T07:02:45Z</time>
      </trkpt>
      <trkpt lat="49.249861" lon="6.870405">
        <ele>236.0</ele>
        <time>2020-07-10T07:02:47Z</time>
      </trkpt>
      <trkpt lat="49.249889" lon="6.87056">
        <ele>236.0</ele>
        <time>2020-07-10T07:02:49Z</time>
      </trkpt>
      <trkpt lat="49.249923" lon="6.870715">
        <ele>236.0</ele>
        <time>2020-07-10T07:02:51Z</time>
      </trkpt>
      <trkpt lat="49.249953" lon="6.870872">
        <ele>236.0</ele>
        <time>2020-07-10T07:02:53Z</time>
      </trkpt>
      <trkpt lat="49.249989" lon="6.871034">
        <ele>236.0</ele>
        <time>2020-07-10T07:02:55Z</time>
      </trkpt>
      <trkpt lat="49.250044" lon="6.871264">
        <ele>236.0</ele>
        <time>2020-07-10T07:02:58Z</time>
      </trkpt>
      <trkpt lat="49.250083" lon="6.87142">
        <ele>236.0</ele>
        <time>2020-07-10T07:03:00Z</time>
      </trkpt>
      <trkpt lat="49.250121" lon="6.871566">
        <ele>236.0</ele>
        <time>2020-07-10T07:03:02Z</time>
      </trkpt>
      <trkpt lat="49.250167" lon="6.87172">
        <ele>236.0</ele>
        <time>2020-07-10T07:03:04Z</time>
      </trkpt>
      <trkpt lat="49.250207" lon="6.871883">
        <ele>236.0</ele>
        <time>2020-07-10T07:03:06Z</time>
      </trkpt>
      <trkpt lat="49.250277" lon="6.872129">
        <ele>236.0</ele>
        <time>2020-07-10T07:03:09Z</time>
      </trkpt>
      <trkpt lat="49.250331" lon="6.872295">
        <ele>235.0</ele>
        <time>2020-07-10T07:03:11Z</time>
      </trkpt>
      <trkpt lat="49.250363" lon="6.872385">
        <ele>235.0</ele>
        <time>2020-07-10T07:03:12Z</time>
      </trkpt>
      <trkpt lat="49.250477" lon="6.872649">
        <ele>235.0</ele>
        <time>2020-07-10T07:03:15Z</time>
      </trkpt>
      <trkpt lat="49.250627" lon="6.872851">
        <ele>234.0</ele>
        <time>2020-07-10T07:03:18Z</time>
      </trkpt>
      <trkpt lat="49.250687" lon="6.873">
        <ele>234.0</ele>
        <time>2020-07-10T07:03:20Z</time>
      </trkpt>
      <trkpt lat="49.250692" lon="6.873176">
        <ele>233.0</ele>
        <time>2020-07-10T07:03:22Z</time>
      </trkpt>
      <trkpt lat="49.250706" lon="6.873358">
        <ele>233.0</ele>
        <time>2020-07-10T07:03:24Z</time>
      </trkpt>
      <trkpt lat="49.250739" lon="6.873542">
        <ele>233.0</ele>
        <time>2020-07-10T07:03:26Z</time>
      </trkpt>
      <trkpt lat="49.250785" lon="6.873725">
        <ele>233.0</ele>
        <time>2020-07-10T07:03:28Z</time>
      </trkpt>
      <trkpt lat="49.250852" lon="6.873993">
        <ele>232.0</ele>
        <time>2020-07-10T07:03:31Z</time>
      </trkpt>
      <trkpt lat="49.250896" lon="6.874169">
        <ele>232.0</ele>
        <time>2020-07-10T07:03:33Z</time>
      </trkpt>
      <trkpt lat="49.250935" lon="6.874338">
        <ele>232.0</ele>
        <time>2020-07-10T07:03:35Z</time>
      </trkpt>
      <trkpt lat="49.250977" lon="6.874512">
        <ele>232.0</ele>
        <time>2020-07-10T07:03:37Z</time>
      </trkpt>
      <trkpt lat="49.251015" lon="6.87468">
        <ele>233.0</ele>
        <time>2020-07-10T07:03:39Z</time>
      </trkpt>
      <trkpt lat="49.251049" lon="6.874854">
        <ele>233.0</ele>
        <time>2020-07-10T07:03:41Z</time>
      </trkpt>
      <trkpt lat="49.251086" lon="6.875027">
        <ele>233.0</ele>
        <time>2020-07-10T07:03:43Z</time>
      </trkpt>
      <trkpt lat="49.251116" lon="6.875193">
        <ele>233.0</ele>
        <time>2020-07-10T07:03:45Z</time>
      </trkpt>
      <trkpt lat="49.251151" lon="6.875363">
        <ele>232.0</ele>
        <time>2020-07-10T07:03:47Z</time>
      </trkpt>
      <trkpt lat="49.251183" lon="6.875532">
        <ele>232.0</ele>
        <time>2020-07-10T07:03:49Z</time>
      </trkpt>
      <trkpt lat="49.251206" lon="6.875705">
        <ele>232.0</ele>
        <time>2020-07-10T07:03:51Z</time>
      </trkpt>
      <trkpt lat="49.251226" lon="6.875875">
        <ele>232.0</ele>
        <time>2020-07-10T07:03:53Z</time>
      </trkpt>
      <trkpt lat="49.251246" lon="6.876041">
        <ele>233.0</ele>
        <time>2020-07-10T07:03:55Z</time>
      </trkpt>
      <trkpt lat="49.251266" lon="6.87622">
        <ele>233.0</ele>
        <time>2020-07-10T07:03:57Z</time>
      </trkpt>
      <trkpt lat="49.251291" lon="6.876388">
        <ele>232.0</ele>
        <time>2020-07-10T07:03:59Z</time>
      </trkpt>
      <trkpt lat="49.251313" lon="6.876569">
        <ele>232.0</ele>
        <time>2020-07-10T07:04:01Z</time>
      </trkpt>
      <trkpt lat="49.251328" lon="6.876742">
        <ele>233.0</ele>
        <time>2020-07-10T07:04:03Z</time>
      </trkpt>
      <trkpt lat="49.25134" lon="6.876918">
        <ele>233.0</ele>
        <time>2020-07-10T07:04:05Z</time>
      </trkpt>
      <trkpt lat="49.251341" lon="6.877099">
        <ele>233.0</ele>
        <time>2020-07-10T07:04:07Z</time>
      </trkpt>
      <trkpt lat="49.25135" lon="6.877383">
        <ele>233.0</ele>
        <time>2020-07-10T07:04:10Z</time>
      </trkpt>
      <trkpt lat="49.251355" lon="6.877557">
        <ele>233.0</ele>
        <time>2020-07-10T07:04:12Z</time>
      </trkpt>
      <trkpt lat="49.251355" lon="6.877733">
        <ele>233.0</ele>
        <time>2020-07-10T07:04:14Z</time>
      </trkpt>
      <trkpt lat="49.251358" lon="6.877906">
        <ele>232.0</ele>
        <time>2020-07-10T07:04:16Z</time>
      </trkpt>
      <trkpt lat="49.251358" lon="6.878077">
        <ele>232.0</ele>
        <time>2020-07-10T07:04:18Z</time>
      </trkpt>
      <trkpt lat="49.251346" lon="6.878238">
        <ele>232.0</ele>
        <time>2020-07-10T07:04:20Z</time>
      </trkpt>
      <trkpt lat="49.251335" lon="6.878475">
        <ele>232.0</ele>
        <time>2020-07-10T07:04:23Z</time>
      </trkpt>
      <trkpt lat="49.251327" lon="6.87863">
        <ele>232.0</ele>
        <time>2020-07-10T07:04:25Z</time>
      </trkpt>
      <trkpt lat="49.251315" lon="6.878783">
        <ele>232.0</ele>
        <time>2020-07-10T07:04:27Z</time>
      </trkpt>
      <trkpt lat="49.251299" lon="6.878931">
        <ele>233.0</ele>
        <time>2020-07-10T07:04:29Z</time>
      </trkpt>
      <trkpt lat="49.251285" lon="6.879083">
        <ele>233.0</ele>
        <time>2020-07-10T07:04:31Z</time>
      </trkpt>
      <trkpt lat="49.251274" lon="6.879233">
        <ele>232.0</ele>
        <time>2020-07-10T07:04:33Z</time>
      </trkpt>
      <trkpt lat="49.251268" lon="6.87939">
        <ele>233.0</ele>
        <time>2020-07-10T07:04:35Z</time>
      </trkpt>
      <trkpt lat="49.251255" lon="6.879535">
        <ele>233.0</ele>
        <time>2020-07-10T07:04:37Z</time>
      </trkpt>
      <trkpt lat="49.251232" lon="6.879747">
        <ele>233.0</ele>
        <time>2020-07-10T07:04:40Z</time>
      </trkpt>
      <trkpt lat="49.251221" lon="6.87988">
        <ele>232.0</ele>
        <time>2020-07-10T07:04:42Z</time>
      </trkpt>
      <trkpt lat="49.251201" lon="6.880033">
        <ele>233.0</ele>
        <time>2020-07-10T07:04:44Z</time>
      </trkpt>
      <trkpt lat="49.251181" lon="6.880189">
        <ele>233.0</ele>
        <time>2020-07-10T07:04:46Z</time>
      </trkpt>
      <trkpt lat="49.25115" lon="6.880425">
        <ele>233.0</ele>
        <time>2020-07-10T07:04:49Z</time>
      </trkpt>
      <trkpt lat="49.251126" lon="6.880599">
        <ele>233.0</ele>
        <time>2020-07-10T07:04:51Z</time>
      </trkpt>
      <trkpt lat="49.251103" lon="6.880749">
        <ele>233.0</ele>
        <time>2020-07-10T07:04:53Z</time>
      </trkpt>
      <trkpt lat="49.25108" lon="6.880892">
        <ele>233.0</ele>
        <time>2020-07-10T07:04:55Z</time>
      </trkpt>
      <trkpt lat="49.251036" lon="6.88111">
        <ele>234.0</ele>
        <time>2020-07-10T07:04:58Z</time>
      </trkpt>
      <trkpt lat="49.251001" lon="6.881261">
        <ele>234.0</ele>
        <time>2020-07-10T07:05:00Z</time>
      </trkpt>
      <trkpt lat="49.250965" lon="6.881397">
        <ele>234.0</ele>
        <time>2020-07-10T07:05:02Z</time>
      </trkpt>
      <trkpt lat="49.250933" lon="6.881536">
        <ele>235.0</ele>
        <time>2020-07-10T07:05:04Z</time>
      </trkpt>
      <trkpt lat="49.250904" lon="6.881681">
        <ele>235.0</ele>
        <time>2020-07-10T07:05:06Z</time>
      </trkpt>
      <trkpt lat="49.25086" lon="6.881905">
        <ele>234.0</ele>
        <time>2020-07-10T07:05:09Z</time>
      </trkpt>
      <trkpt lat="49.250824" lon="6.882051">
        <ele>234.0</ele>
        <time>2020-07-10T07:05:11Z</time>
      </trkpt>
      <trkpt lat="49.250796" lon="6.882199">
        <ele>233.0</ele>
        <time>2020-07-10T07:05:13Z</time>
      </trkpt>
      <trkpt lat="49.250771" lon="6.882347">
        <ele>233.0</ele>
        <time>2020-07-10T07:05:15Z</time>
      </trkpt>
      <trkpt lat="49.250744" lon="6.88249">
        <ele>234.0</ele>
        <time>2020-07-10T07:05:17Z</time>
      </trkpt>
      <trkpt lat="49.250727" lon="6.882564">
        <ele>233.0</ele>
        <time>2020-07-10T07:05:18Z</time>
      </trkpt>
      <trkpt lat="49.250676" lon="6.882768">
        <ele>233.0</ele>
        <time>2020-07-10T07:05:21Z</time>
      </trkpt>
      <trkpt lat="49.250636" lon="6.882909">
        <ele>234.0</ele>
        <time>2020-07-10T07:05:23Z</time>
      </trkpt>
      <trkpt lat="49.250586" lon="6.883114">
        <ele>233.0</ele>
        <time>2020-07-10T07:05:26Z</time>
      </trkpt>
      <trkpt lat="49.250545" lon="6.883251">
        <ele>233.0</ele>
        <time>2020-07-10T07:05:28Z</time>
      </trkpt>
      <trkpt lat="49.250515" lon="6.883405">
        <ele>233.0</ele>
        <time>2020-07-10T07:05:30Z</time>
      </trkpt>
      <trkpt lat="49.250536" lon="6.883709">
        <ele>232.0</ele>
        <time>2020-07-10T07:05:33Z</time>
      </trkpt>
      <trkpt lat="49.250514" lon="6.883961">
        <ele>232.0</ele>
        <time>2020-07-10T07:05:35Z</time>
      </trkpt>
      <trkpt lat="49.250467" lon="6.884157">
        <ele>233.0</ele>
        <time>2020-07-10T07:05:37Z</time>
      </trkpt>
      <trkpt lat="49.250412" lon="6.884326">
        <ele>233.0</ele>
        <time>2020-07-10T07:05:39Z</time>
      </trkpt>
      <trkpt lat="49.250353" lon="6.884486">
        <ele>232.0</ele>
        <time>2020-07-10T07:05:41Z</time>
      </trkpt>
      <trkpt lat="49.250262" lon="6.884732">
        <ele>232.0</ele>
        <time>2020-07-10T07:05:44Z</time>
      </trkpt>
      <trkpt lat="49.250206" lon="6.884897">
        <ele>231.0</ele>
        <time>2020-07-10T07:05:46Z</time>
      </trkpt>
      <trkpt lat="49.250151" lon="6.885045">
        <ele>230.0</ele>
        <time>2020-07-10T07:05:48Z</time>
      </trkpt>
      <trkpt lat="49.250125" lon="6.885125">
        <ele>230.0</ele>
        <time>2020-07-10T07:05:49Z</time>
      </trkpt>
      <trkpt lat="49.250015" lon="6.885432">
        <ele>231.0</ele>
        <time>2020-07-10T07:05:53Z</time>
      </trkpt>
      <trkpt lat="49.249962" lon="6.885594">
        <ele>231.0</ele>
        <time>2020-07-10T07:05:55Z</time>
      </trkpt>
      <trkpt lat="49.249907" lon="6.885748">
        <ele>231.0</ele>
        <time>2020-07-10T07:05:57Z</time>
      </trkpt>
      <trkpt lat="49.249849" lon="6.885893">
        <ele>230.0</ele>
        <time>2020-07-10T07:05:59Z</time>
      </trkpt>
      <trkpt lat="49.249788" lon="6.88603">
        <ele>230.0</ele>
        <time>2020-07-10T07:06:01Z</time>
      </trkpt>
      <trkpt lat="49.249723" lon="6.88616">
        <ele>231.0</ele>
        <time>2020-07-10T07:06:03Z</time>
      </trkpt>
      <trkpt lat="49.249696" lon="6.886219">
        <ele>230.0</ele>
        <time>2020-07-10T07:06:04Z</time>
      </trkpt>
      <trkpt lat="49.249629" lon="6.886368">
        <ele>232.0</ele>
        <time>2020-07-10T07:06:07Z</time>
      </trkpt>
      <trkpt lat="49.24961" lon="6.886414">
        <ele>233.0</ele>
        <time>2020-07-10T07:06:08Z</time>
      </trkpt>
      <trkpt lat="49.249546" lon="6.886573">
        <ele>233.0</ele>
        <time>2020-07-10T07:06:11Z</time>
      </trkpt>
      <trkpt lat="49.249502" lon="6.886697">
        <ele>233.0</ele>
        <time>2020-07-10T07:06:13Z</time>
      </trkpt>
      <trkpt lat="49.249461" lon="6.886817">
        <ele>233.0</ele>
        <time>2020-07-10T07:06:15Z</time>
      </trkpt>
      <trkpt lat="49.249417" lon="6.886945">
        <ele>233.0</ele>
        <time>2020-07-10T07:06:17Z</time>
      </trkpt>
      <trkpt lat="49.249346" lon="6.88714">
        <ele>233.0</ele>
        <time>2020-07-10T07:06:20Z</time>
      </trkpt>
      <trkpt lat="49.2493" lon="6.887276">
        <ele>233.0</ele>
        <time>2020-07-10T07:06:22Z</time>
      </trkpt>
      <trkpt lat="49.249256" lon="6.88741">
        <ele>233.0</ele>
        <time>2020-07-10T07:06:24Z</time>
      </trkpt>
      <trkpt lat="49.249233" lon="6.887474">
        <ele>233.0</ele>
        <time>2020-07-10T07:06:25Z</time>
      </trkpt>
      <trkpt lat="49.249143" lon="6.887745">
        <ele>233.0</ele>
        <time>2020-07-10T07:06:29Z</time>
      </trkpt>
      <trkpt lat="49.249093" lon="6.887881">
        <ele>232.0</ele>
        <time>2020-07-10T07:06:31Z</time>
      </trkpt>
      <trkpt lat="49.249045" lon="6.888021">
        <ele>232.0</ele>
        <time>2020-07-10T07:06:33Z</time>
      </trkpt>
      <trkpt lat="49.248997" lon="6.888164">
        <ele>232.0</ele>
        <time>2020-07-10T07:06:35Z</time>
      </trkpt>
      <trkpt lat="49.248949" lon="6.888306">
        <ele>232.0</ele>
        <time>2020-07-10T07:06:37Z</time>
      </trkpt>
      <trkpt lat="49.24891" lon="6.888448">
        <ele>232.0</ele>
        <time>2020-07-10T07:06:39Z</time>
      </trkpt>
      <trkpt lat="49.248862" lon="6.888599">
        <ele>232.0</ele>
        <time>2020-07-10T07:06:41Z</time>
      </trkpt>
      <trkpt lat="49.248809" lon="6.88875">
        <ele>233.0</ele>
        <time>2020-07-10T07:06:43Z</time>
      </trkpt>
      <trkpt lat="49.248742" lon="6.888971">
        <ele>232.0</ele>
        <time>2020-07-10T07:06:46Z</time>
      </trkpt>
      <trkpt lat="49.248697" lon="6.889119">
        <ele>233.0</ele>
        <time>2020-07-10T07:06:48Z</time>
      </trkpt>
      <trkpt lat="49.248653" lon="6.889273">
        <ele>233.0</ele>
        <time>2020-07-10T07:06:50Z</time>
      </trkpt>
      <trkpt lat="49.248607" lon="6.889428">
        <ele>232.0</ele>
        <time>2020-07-10T07:06:52Z</time>
      </trkpt>
      <trkpt lat="49.24859" lon="6.889506">
        <ele>232.0</ele>
        <time>2020-07-10T07:06:53Z</time>
      </trkpt>
      <trkpt lat="49.248504" lon="6.889826">
        <ele>232.0</ele>
        <time>2020-07-10T07:06:57Z</time>
      </trkpt>
      <trkpt lat="49.248465" lon="6.889982">
        <ele>232.0</ele>
        <time>2020-07-10T07:06:59Z</time>
      </trkpt>
      <trkpt lat="49.248426" lon="6.890142">
        <ele>232.0</ele>
        <time>2020-07-10T07:07:01Z</time>
      </trkpt>
      <trkpt lat="49.248387" lon="6.890303">
        <ele>232.0</ele>
        <time>2020-07-10T07:07:03Z</time>
      </trkpt>
      <trkpt lat="49.248345" lon="6.890457">
        <ele>232.0</ele>
        <time>2020-07-10T07:07:05Z</time>
      </trkpt>
      <trkpt lat="49.248284" lon="6.890689">
        <ele>232.0</ele>
        <time>2020-07-10T07:07:08Z</time>
      </trkpt>
      <trkpt lat="49.248244" lon="6.89084">
        <ele>232.0</ele>
        <time>2020-07-10T07:07:10Z</time>
      </trkpt>
      <trkpt lat="49.2482" lon="6.890995">
        <ele>232.0</ele>
        <time>2020-07-10T07:07:12Z</time>
      </trkpt>
      <trkpt lat="49.248167" lon="6.89115">
        <ele>231.0</ele>
        <time>2020-07-10T07:07:14Z</time>
      </trkpt>
      <trkpt lat="49.248115" lon="6.891392">
        <ele>232.0</ele>
        <time>2020-07-10T07:07:17Z</time>
      </trkpt>
      <trkpt lat="49.248089" lon="6.891565">
        <ele>232.0</ele>
        <time>2020-07-10T07:07:19Z</time>
      </trkpt>
      <trkpt lat="49.248045" lon="6.891845">
        <ele>231.0</ele>
        <time>2020-07-10T07:07:22Z</time>
      </trkpt>
      <trkpt lat="49.248028" lon="6.891941">
        <ele>231.0</ele>
        <time>2020-07-10T07:07:23Z</time>
      </trkpt>
      <trkpt lat="49.247973" lon="6.892233">
        <ele>231.0</ele>
        <time>2020-07-10T07:07:26Z</time>
      </trkpt>
      <trkpt lat="49.247943" lon="6.892413">
        <ele>231.0</ele>
        <time>2020-07-10T07:07:28Z</time>
      </trkpt>
      <trkpt lat="49.247913" lon="6.892594">
        <ele>231.0</ele>
        <time>2020-07-10T07:07:30Z</time>
      </trkpt>
      <trkpt lat="49.247885" lon="6.892786">
        <ele>230.0</ele>
        <time>2020-07-10T07:07:32Z</time>
      </trkpt>
      <trkpt lat="49.247856" lon="6.892977">
        <ele>230.0</ele>
        <time>2020-07-10T07:07:34Z</time>
      </trkpt>
      <trkpt lat="49.247832" lon="6.893167">
        <ele>230.0</ele>
        <time>2020-07-10T07:07:36Z</time>
      </trkpt>
      <trkpt lat="49.247805" lon="6.893346">
        <ele>229.0</ele>
        <time>2020-07-10T07:07:38Z</time>
      </trkpt>
      <trkpt lat="49.247775" lon="6.893528">
        <ele>230.0</ele>
        <time>2020-07-10T07:07:40Z</time>
      </trkpt>
      <trkpt lat="49.247735" lon="6.89379">
        <ele>231.0</ele>
        <time>2020-07-10T07:07:43Z</time>
      </trkpt>
      <trkpt lat="49.247704" lon="6.893964">
        <ele>231.0</ele>
        <time>2020-07-10T07:07:45Z</time>
      </trkpt>
      <trkpt lat="49.247681" lon="6.894146">
        <ele>231.0</ele>
        <time>2020-07-10T07:07:47Z</time>
      </trkpt>
      <trkpt lat="49.247652" lon="6.894314">
        <ele>231.0</ele>
        <time>2020-07-10T07:07:49Z</time>
      </trkpt>
      <trkpt lat="49.247631" lon="6.894486">
        <ele>230.0</ele>
        <time>2020-07-10T07:07:51Z</time>
      </trkpt>
      <trkpt lat="49.247621" lon="6.894567">
        <ele>230.0</ele>
        <time>2020-07-10T07:07:52Z</time>
      </trkpt>
      <trkpt lat="49.247586" lon="6.894823">
        <ele>230.0</ele>
        <time>2020-07-10T07:07:55Z</time>
      </trkpt>
      <trkpt lat="49.247569" lon="6.895002">
        <ele>230.0</ele>
        <time>2020-07-10T07:07:57Z</time>
      </trkpt>
      <trkpt lat="49.247542" lon="6.895262">
        <ele>230.0</ele>
        <time>2020-07-10T07:08:00Z</time>
      </trkpt>
      <trkpt lat="49.247516" lon="6.895438">
        <ele>230.0</ele>
        <time>2020-07-10T07:08:02Z</time>
      </trkpt>
      <trkpt lat="49.247493" lon="6.895608">
        <ele>231.0</ele>
        <time>2020-07-10T07:08:04Z</time>
      </trkpt>
      <trkpt lat="49.247471" lon="6.895785">
        <ele>231.0</ele>
        <time>2020-07-10T07:08:06Z</time>
      </trkpt>
      <trkpt lat="49.247443" lon="6.895968">
        <ele>231.0</ele>
        <time>2020-07-10T07:08:08Z</time>
      </trkpt>
      <trkpt lat="49.247421" lon="6.896144">
        <ele>231.0</ele>
        <time>2020-07-10T07:08:10Z</time>
      </trkpt>
      <trkpt lat="49.247398" lon="6.896318">
        <ele>231.0</ele>
        <time>2020-07-10T07:08:12Z</time>
      </trkpt>
      <trkpt lat="49.247379" lon="6.89649">
        <ele>230.0</ele>
        <time>2020-07-10T07:08:14Z</time>
      </trkpt>
      <trkpt lat="49.247358" lon="6.896671">
        <ele>230.0</ele>
        <time>2020-07-10T07:08:16Z</time>
      </trkpt>
      <trkpt lat="49.247332" lon="6.896849">
        <ele>230.0</ele>
        <time>2020-07-10T07:08:18Z</time>
      </trkpt>
      <trkpt lat="49.247309" lon="6.897023">
        <ele>230.0</ele>
        <time>2020-07-10T07:08:20Z</time>
      </trkpt>
      <trkpt lat="49.247294" lon="6.897198">
        <ele>231.0</ele>
        <time>2020-07-10T07:08:22Z</time>
      </trkpt>
      <trkpt lat="49.24727" lon="6.897368">
        <ele>231.0</ele>
        <time>2020-07-10T07:08:24Z</time>
      </trkpt>
      <trkpt lat="49.247239" lon="6.897538">
        <ele>230.0</ele>
        <time>2020-07-10T07:08:26Z</time>
      </trkpt>
      <trkpt lat="49.24721" lon="6.897706">
        <ele>230.0</ele>
        <time>2020-07-10T07:08:28Z</time>
      </trkpt>
      <trkpt lat="49.247187" lon="6.897876">
        <ele>230.0</ele>
        <time>2020-07-10T07:08:30Z</time>
      </trkpt>
      <trkpt lat="49.247167" lon="6.898051">
        <ele>230.0</ele>
        <time>2020-07-10T07:08:32Z</time>
      </trkpt>
      <trkpt lat="49.247142" lon="6.898226">
        <ele>230.0</ele>
        <time>2020-07-10T07:08:34Z</time>
      </trkpt>
      <trkpt lat="49.247115" lon="6.898391">
        <ele>229.0</ele>
        <time>2020-07-10T07:08:36Z</time>
      </trkpt>
      <trkpt lat="49.247093" lon="6.898553">
        <ele>229.0</ele>
        <time>2020-07-10T07:08:38Z</time>
      </trkpt>
      <trkpt lat="49.247069" lon="6.898719">
        <ele>230.0</ele>
        <time>2020-07-10T07:08:40Z</time>
      </trkpt>
      <trkpt lat="49.247041" lon="6.898886">
        <ele>230.0</ele>
        <time>2020-07-10T07:08:42Z</time>
      </trkpt>
      <trkpt lat="49.247014" lon="6.899046">
        <ele>230.0</ele>
        <time>2020-07-10T07:08:44Z</time>
      </trkpt>
      <trkpt lat="49.24699" lon="6.899198">
        <ele>230.0</ele>
        <time>2020-07-10T07:08:46Z</time>
      </trkpt>
      <trkpt lat="49.246965" lon="6.899346">
        <ele>230.0</ele>
        <time>2020-07-10T07:08:48Z</time>
      </trkpt>
      <trkpt lat="49.246946" lon="6.899493">
        <ele>230.0</ele>
        <time>2020-07-10T07:08:50Z</time>
      </trkpt>
      <trkpt lat="49.246924" lon="6.899622">
        <ele>231.0</ele>
        <time>2020-07-10T07:08:52Z</time>
      </trkpt>
      <trkpt lat="49.246906" lon="6.899734">
        <ele>231.0</ele>
        <time>2020-07-10T07:08:54Z</time>
      </trkpt>
      <trkpt lat="49.246886" lon="6.899854">
        <ele>231.0</ele>
        <time>2020-07-10T07:08:56Z</time>
      </trkpt>
      <trkpt lat="49.246862" lon="6.899979">
        <ele>231.0</ele>
        <time>2020-07-10T07:08:58Z</time>
      </trkpt>
      <trkpt lat="49.246845" lon="6.900112">
        <ele>231.0</ele>
        <time>2020-07-10T07:09:00Z</time>
      </trkpt>
      <trkpt lat="49.246832" lon="6.900252">
        <ele>231.0</ele>
        <time>2020-07-10T07:09:02Z</time>
      </trkpt>
      <trkpt lat="49.246822" lon="6.90038">
        <ele>232.0</ele>
        <time>2020-07-10T07:09:04Z</time>
      </trkpt>
      <trkpt lat="49.246805" lon="6.900511">
        <ele>232.0</ele>
        <time>2020-07-10T07:09:06Z</time>
      </trkpt>
      <trkpt lat="49.246785" lon="6.900627">
        <ele>231.0</ele>
        <time>2020-07-10T07:09:08Z</time>
      </trkpt>
      <trkpt lat="49.246768" lon="6.900731">
        <ele>231.0</ele>
        <time>2020-07-10T07:09:10Z</time>
      </trkpt>
      <trkpt lat="49.246753" lon="6.900839">
        <ele>231.0</ele>
        <time>2020-07-10T07:09:12Z</time>
      </trkpt>
      <trkpt lat="49.246738" lon="6.900951">
        <ele>232.0</ele>
        <time>2020-07-10T07:09:14Z</time>
      </trkpt>
      <trkpt lat="49.246715" lon="6.901067">
        <ele>232.0</ele>
        <time>2020-07-10T07:09:16Z</time>
      </trkpt>
      <trkpt lat="49.24669" lon="6.901189">
        <ele>232.0</ele>
        <time>2020-07-10T07:09:18Z</time>
      </trkpt>
      <trkpt lat="49.246681" lon="6.901308">
        <ele>232.0</ele>
        <time>2020-07-10T07:09:20Z</time>
      </trkpt>
      <trkpt lat="49.246664" lon="6.901431">
        <ele>232.0</ele>
        <time>2020-07-10T07:09:22Z</time>
      </trkpt>
      <trkpt lat="49.246639" lon="6.901541">
        <ele>232.0</ele>
        <time>2020-07-10T07:09:24Z</time>
      </trkpt>
      <trkpt lat="49.246619" lon="6.901654">
        <ele>232.0</ele>
        <time>2020-07-10T07:09:26Z</time>
      </trkpt>
      <trkpt lat="49.24661" lon="6.901762">
        <ele>232.0</ele>
        <time>2020-07-10T07:09:28Z</time>
      </trkpt>
      <trkpt lat="49.246594" lon="6.901865">
        <ele>231.0</ele>
        <time>2020-07-10T07:09:30Z</time>
      </trkpt>
      <trkpt lat="49.246575" lon="6.901959">
        <ele>231.0</ele>
        <time>2020-07-10T07:09:32Z</time>
      </trkpt>
      <trkpt lat="49.24656" lon="6.90205">
        <ele>231.0</ele>
        <time>2020-07-10T07:09:34Z</time>
      </trkpt>
      <trkpt lat="49.246547" lon="6.902143">
        <ele>230.0</ele>
        <time>2020-07-10T07:09:36Z</time>
      </trkpt>
      <trkpt lat="49.246535" lon="6.902245">
        <ele>230.0</ele>
        <time>2020-07-10T07:09:38Z</time>
      </trkpt>
      <trkpt lat="49.24652" lon="6.902347">
        <ele>230.0</ele>
        <time>2020-07-10T07:09:40Z</time>
      </trkpt>
      <trkpt lat="49.246507" lon="6.902473">
        <ele>230.0</ele>
        <time>2020-07-10T07:09:42Z</time>
      </trkpt>
      <trkpt lat="49.246492" lon="6.902593">
        <ele>230.0</ele>
        <time>2020-07-10T07:09:44Z</time>
      </trkpt>
      <trkpt lat="49.246484" lon="6.902705">
        <ele>230.0</ele>
        <time>2020-07-10T07:09:46Z</time>
      </trkpt>
      <trkpt lat="49.246465" lon="6.902824">
        <ele>230.0</ele>
        <time>2020-07-10T07:09:48Z</time>
      </trkpt>
      <trkpt lat="49.246447" lon="6.902934">
        <ele>230.0</ele>
        <time>2020-07-10T07:09:50Z</time>
      </trkpt>
      <trkpt lat="49.246443" lon="6.903044">
        <ele>230.0</ele>
        <time>2020-07-10T07:09:52Z</time>
      </trkpt>
      <trkpt lat="49.246428" lon="6.903162">
        <ele>230.0</ele>
        <time>2020-07-10T07:09:54Z</time>
      </trkpt>
      <trkpt lat="49.246415" lon="6.903295">
        <ele>231.0</ele>
        <time>2020-07-10T07:09:56Z</time>
      </trkpt>
      <trkpt lat="49.246395" lon="6.903455">
        <ele>231.0</ele>
        <time>2020-07-10T07:09:58Z</time>
      </trkpt>
      <trkpt lat="49.24637" lon="6.903713">
        <ele>231.0</ele>
        <time>2020-07-10T07:10:01Z</time>
      </trkpt>
      <trkpt lat="49.246347" lon="6.903875">
        <ele>231.0</ele>
        <time>2020-07-10T07:10:03Z</time>
      </trkpt>
      <trkpt lat="49.246327" lon="6.904033">
        <ele>231.0</ele>
        <time>2020-07-10T07:10:05Z</time>
      </trkpt>
      <trkpt lat="49.246294" lon="6.904267">
        <ele>231.0</ele>
        <time>2020-07-10T07:10:08Z</time>
      </trkpt>
      <trkpt lat="49.246269" lon="6.904401">
        <ele>231.0</ele>
        <time>2020-07-10T07:10:10Z</time>
      </trkpt>
      <trkpt lat="49.246267" lon="6.904462">
        <ele>231.0</ele>
        <time>2020-07-10T07:10:11Z</time>
      </trkpt>
      <trkpt lat="49.246259" lon="6.904652">
        <ele>231.0</ele>
        <time>2020-07-10T07:10:14Z</time>
      </trkpt>
      <trkpt lat="49.246239" lon="6.904794">
        <ele>231.0</ele>
        <time>2020-07-10T07:10:16Z</time>
      </trkpt>
      <trkpt lat="49.246218" lon="6.904944">
        <ele>232.0</ele>
        <time>2020-07-10T07:10:18Z</time>
      </trkpt>
      <trkpt lat="49.246189" lon="6.905164">
        <ele>232.0</ele>
        <time>2020-07-10T07:10:21Z</time>
      </trkpt>
      <trkpt lat="49.246175" lon="6.905309">
        <ele>231.0</ele>
        <time>2020-07-10T07:10:23Z</time>
      </trkpt>
      <trkpt lat="49.246151" lon="6.90546">
        <ele>232.0</ele>
        <time>2020-07-10T07:10:25Z</time>
      </trkpt>
      <trkpt lat="49.246135" lon="6.905613">
        <ele>232.0</ele>
        <time>2020-07-10T07:10:27Z</time>
      </trkpt>
      <trkpt lat="49.246109" lon="6.905749">
        <ele>232.0</ele>
        <time>2020-07-10T07:10:29Z</time>
      </trkpt>
      <trkpt lat="49.246089" lon="6.905876">
        <ele>232.0</ele>
        <time>2020-07-10T07:10:31Z</time>
      </trkpt>
      <trkpt lat="49.246061" lon="6.905988">
        <ele>232.0</ele>
        <time>2020-07-10T07:10:33Z</time>
      </trkpt>
      <trkpt lat="49.246035" lon="6.906097">
        <ele>233.0</ele>
        <time>2020-07-10T07:10:35Z</time>
      </trkpt>
      <trkpt lat="49.246004" lon="6.906203">
        <ele>233.0</ele>
        <time>2020-07-10T07:10:37Z</time>
      </trkpt>
      <trkpt lat="49.245987" lon="6.906313">
        <ele>233.0</ele>
        <time>2020-07-10T07:10:39Z</time>
      </trkpt>
      <trkpt lat="49.245964" lon="6.906426">
        <ele>233.0</ele>
        <time>2020-07-10T07:10:41Z</time>
      </trkpt>
      <trkpt lat="49.245927" lon="6.906544">
        <ele>233.0</ele>
        <time>2020-07-10T07:10:43Z</time>
      </trkpt>
      <trkpt lat="49.245874" lon="6.906679">
        <ele>233.0</ele>
        <time>2020-07-10T07:10:45Z</time>
      </trkpt>
      <trkpt lat="49.245801" lon="6.906871">
        <ele>233.0</ele>
        <time>2020-07-10T07:10:48Z</time>
      </trkpt>
      <trkpt lat="49.245766" lon="6.907006">
        <ele>233.0</ele>
        <time>2020-07-10T07:10:50Z</time>
      </trkpt>
      <trkpt lat="49.245733" lon="6.90716">
        <ele>232.0</ele>
        <time>2020-07-10T07:10:52Z</time>
      </trkpt>
      <trkpt lat="49.2457" lon="6.907302">
        <ele>232.0</ele>
        <time>2020-07-10T07:10:54Z</time>
      </trkpt>
      <trkpt lat="49.245676" lon="6.907524">
        <ele>232.0</ele>
        <time>2020-07-10T07:10:57Z</time>
      </trkpt>
      <trkpt lat="49.24566" lon="6.907688">
        <ele>232.0</ele>
        <time>2020-07-10T07:10:59Z</time>
      </trkpt>
      <trkpt lat="49.245643" lon="6.907849">
        <ele>231.0</ele>
        <time>2020-07-10T07:11:01Z</time>
      </trkpt>
      <trkpt lat="49.245638" lon="6.90793">
        <ele>231.0</ele>
        <time>2020-07-10T07:11:02Z</time>
      </trkpt>
      <trkpt lat="49.245627" lon="6.908189">
        <ele>231.0</ele>
        <time>2020-07-10T07:11:05Z</time>
      </trkpt>
      <trkpt lat="49.245622" lon="6.908359">
        <ele>232.0</ele>
        <time>2020-07-10T07:11:07Z</time>
      </trkpt>
      <trkpt lat="49.245611" lon="6.90852">
        <ele>232.0</ele>
        <time>2020-07-10T07:11:09Z</time>
      </trkpt>
      <trkpt lat="49.245601" lon="6.90868">
        <ele>232.0</ele>
        <time>2020-07-10T07:11:11Z</time>
      </trkpt>
      <trkpt lat="49.245581" lon="6.908847">
        <ele>232.0</ele>
        <time>2020-07-10T07:11:13Z</time>
      </trkpt>
      <trkpt lat="49.245554" lon="6.909004">
        <ele>232.0</ele>
        <time>2020-07-10T07:11:15Z</time>
      </trkpt>
      <trkpt lat="49.245522" lon="6.909153">
        <ele>233.0</ele>
        <time>2020-07-10T07:11:17Z</time>
      </trkpt>
      <trkpt lat="49.245496" lon="6.909308">
        <ele>233.0</ele>
        <time>2020-07-10T07:11:19Z</time>
      </trkpt>
      <trkpt lat="49.245474" lon="6.909459">
        <ele>233.0</ele>
        <time>2020-07-10T07:11:21Z</time>
      </trkpt>
      <trkpt lat="49.245453" lon="6.9096">
        <ele>233.0</ele>
        <time>2020-07-10T07:11:23Z</time>
      </trkpt>
      <trkpt lat="49.245429" lon="6.909752">
        <ele>233.0</ele>
        <time>2020-07-10T07:11:25Z</time>
      </trkpt>
      <trkpt lat="49.245402" lon="6.91">
        <ele>233.0</ele>
        <time>2020-07-10T07:11:28Z</time>
      </trkpt>
      <trkpt lat="49.245386" lon="6.910182">
        <ele>232.0</ele>
        <time>2020-07-10T07:11:30Z</time>
      </trkpt>
      <trkpt lat="49.245365" lon="6.910363">
        <ele>232.0</ele>
        <time>2020-07-10T07:11:32Z</time>
      </trkpt>
      <trkpt lat="49.245353" lon="6.910454">
        <ele>232.0</ele>
        <time>2020-07-10T07:11:33Z</time>
      </trkpt>
      <trkpt lat="49.245312" lon="6.910752">
        <ele>231.0</ele>
        <time>2020-07-10T07:11:36Z</time>
      </trkpt>
      <trkpt lat="49.245272" lon="6.910944">
        <ele>231.0</ele>
        <time>2020-07-10T07:11:38Z</time>
      </trkpt>
      <trkpt lat="49.245222" lon="6.911139">
        <ele>231.0</ele>
        <time>2020-07-10T07:11:40Z</time>
      </trkpt>
      <trkpt lat="49.245145" lon="6.911435">
        <ele>231.0</ele>
        <time>2020-07-10T07:11:43Z</time>
      </trkpt>
      <trkpt lat="49.24509" lon="6.911621">
        <ele>231.0</ele>
        <time>2020-07-10T07:11:45Z</time>
      </trkpt>
      <trkpt lat="49.245041" lon="6.911815">
        <ele>231.0</ele>
        <time>2020-07-10T07:11:47Z</time>
      </trkpt>
      <trkpt lat="49.245002" lon="6.912">
        <ele>231.0</ele>
        <time>2020-07-10T07:11:49Z</time>
      </trkpt>
      <trkpt lat="49.244961" lon="6.912189">
        <ele>231.0</ele>
        <time>2020-07-10T07:11:51Z</time>
      </trkpt>
      <trkpt lat="49.244926" lon="6.912387">
        <ele>231.0</ele>
        <time>2020-07-10T07:11:53Z</time>
      </trkpt>
      <trkpt lat="49.244894" lon="6.912586">
        <ele>231.0</ele>
        <time>2020-07-10T07:11:55Z</time>
      </trkpt>
      <trkpt lat="49.24487" lon="6.912783">
        <ele>231.0</ele>
        <time>2020-07-10T07:11:57Z</time>
      </trkpt>
      <trkpt lat="49.244852" lon="6.912979">
        <ele>230.0</ele>
        <time>2020-07-10T07:11:59Z</time>
      </trkpt>
      <trkpt lat="49.244842" lon="6.913175">
        <ele>231.0</ele>
        <time>2020-07-10T07:12:01Z</time>
      </trkpt>
      <trkpt lat="49.244827" lon="6.913376">
        <ele>231.0</ele>
        <time>2020-07-10T07:12:03Z</time>
      </trkpt>
      <trkpt lat="49.244814" lon="6.913581">
        <ele>231.0</ele>
        <time>2020-07-10T07:12:05Z</time>
      </trkpt>
      <trkpt lat="49.244793" lon="6.913797">
        <ele>230.0</ele>
        <time>2020-07-10T07:12:07Z</time>
      </trkpt>
      <trkpt lat="49.244746" lon="6.91402">
        <ele>230.0</ele>
        <time>2020-07-10T07:12:09Z</time>
      </trkpt>
      <trkpt lat="49.24472" lon="6.914134">
        <ele>230.0</ele>
        <time>2020-07-10T07:12:10Z</time>
      </trkpt>
      <trkpt lat="49.244637" lon="6.914442">
        <ele>230.0</ele>
        <time>2020-07-10T07:12:13Z</time>
      </trkpt>
      <trkpt lat="49.244615" lon="6.914545">
        <ele>230.0</ele>
        <time>2020-07-10T07:12:14Z</time>
      </trkpt>
      <trkpt lat="49.244555" lon="6.91484">
        <ele>230.0</ele>
        <time>2020-07-10T07:12:17Z</time>
      </trkpt>
      <trkpt lat="49.244531" lon="6.914934">
        <ele>230.0</ele>
        <time>2020-07-10T07:12:18Z</time>
      </trkpt>
      <trkpt lat="49.24448" lon="6.915127">
        <ele>230.0</ele>
        <time>2020-07-10T07:12:20Z</time>
      </trkpt>
      <trkpt lat="49.244405" lon="6.915403">
        <ele>229.0</ele>
        <time>2020-07-10T07:12:23Z</time>
      </trkpt>
      <trkpt lat="49.244349" lon="6.915589">
        <ele>229.0</ele>
        <time>2020-07-10T07:12:25Z</time>
      </trkpt>
      <trkpt lat="49.2443" lon="6.915774">
        <ele>229.0</ele>
        <time>2020-07-10T07:12:27Z</time>
      </trkpt>
      <trkpt lat="49.244246" lon="6.915951">
        <ele>229.0</ele>
        <time>2020-07-10T07:12:29Z</time>
      </trkpt>
      <trkpt lat="49.244193" lon="6.916124">
        <ele>229.0</ele>
        <time>2020-07-10T07:12:31Z</time>
      </trkpt>
      <trkpt lat="49.24414" lon="6.916295">
        <ele>230.0</ele>
        <time>2020-07-10T07:12:33Z</time>
      </trkpt>
      <trkpt lat="49.244063" lon="6.91654">
        <ele>231.0</ele>
        <time>2020-07-10T07:12:36Z</time>
      </trkpt>
      <trkpt lat="49.244016" lon="6.916694">
        <ele>231.0</ele>
        <time>2020-07-10T07:12:38Z</time>
      </trkpt>
      <trkpt lat="49.243965" lon="6.916834">
        <ele>231.0</ele>
        <time>2020-07-10T07:12:40Z</time>
      </trkpt>
      <trkpt lat="49.243936" lon="6.916895">
        <ele>231.0</ele>
        <time>2020-07-10T07:12:41Z</time>
      </trkpt>
      <trkpt lat="49.243842" lon="6.91706">
        <ele>232.0</ele>
        <time>2020-07-10T07:12:44Z</time>
      </trkpt>
      <trkpt lat="49.243774" lon="6.917172">
        <ele>232.0</ele>
        <time>2020-07-10T07:12:46Z</time>
      </trkpt>
      <trkpt lat="49.243705" lon="6.917274">
        <ele>232.0</ele>
        <time>2020-07-10T07:12:48Z</time>
      </trkpt>
      <trkpt lat="49.243641" lon="6.917376">
        <ele>232.0</ele>
        <time>2020-07-10T07:12:50Z</time>
      </trkpt>
      <trkpt lat="49.243579" lon="6.917482">
        <ele>232.0</ele>
        <time>2020-07-10T07:12:52Z</time>
      </trkpt>
      <trkpt lat="49.243514" lon="6.917592">
        <ele>232.0</ele>
        <time>2020-07-10T07:12:54Z</time>
      </trkpt>
      <trkpt lat="49.243456" lon="6.917703">
        <ele>232.0</ele>
        <time>2020-07-10T07:12:56Z</time>
      </trkpt>
      <trkpt lat="49.243401" lon="6.917819">
        <ele>232.0</ele>
        <time>2020-07-10T07:12:58Z</time>
      </trkpt>
      <trkpt lat="49.243339" lon="6.917941">
        <ele>232.0</ele>
        <time>2020-07-10T07:13:00Z</time>
      </trkpt>
      <trkpt lat="49.243279" lon="6.918066">
        <ele>233.0</ele>
        <time>2020-07-10T07:13:02Z</time>
      </trkpt>
      <trkpt lat="49.243219" lon="6.918193">
        <ele>233.0</ele>
        <time>2020-07-10T07:13:04Z</time>
      </trkpt>
      <trkpt lat="49.243186" lon="6.918253">
        <ele>233.0</ele>
        <time>2020-07-10T07:13:05Z</time>
      </trkpt>
      <trkpt lat="49.243069" lon="6.918497">
        <ele>232.0</ele>
        <time>2020-07-10T07:13:09Z</time>
      </trkpt>
      <trkpt lat="49.243011" lon="6.918631">
        <ele>232.0</ele>
        <time>2020-07-10T07:13:11Z</time>
      </trkpt>
      <trkpt lat="49.242952" lon="6.918765">
        <ele>232.0</ele>
        <time>2020-07-10T07:13:13Z</time>
      </trkpt>
      <trkpt lat="49.242892" lon="6.9189">
        <ele>232.0</ele>
        <time>2020-07-10T07:13:15Z</time>
      </trkpt>
      <trkpt lat="49.242834" lon="6.919027">
        <ele>232.0</ele>
        <time>2020-07-10T07:13:17Z</time>
      </trkpt>
      <trkpt lat="49.242788" lon="6.919161">
        <ele>232.0</ele>
        <time>2020-07-10T07:13:19Z</time>
      </trkpt>
      <trkpt lat="49.242748" lon="6.919299">
        <ele>232.0</ele>
        <time>2020-07-10T07:13:21Z</time>
      </trkpt>
      <trkpt lat="49.242703" lon="6.919454">
        <ele>232.0</ele>
        <time>2020-07-10T07:13:23Z</time>
      </trkpt>
      <trkpt lat="49.24266" lon="6.919611">
        <ele>231.0</ele>
        <time>2020-07-10T07:13:25Z</time>
      </trkpt>
      <trkpt lat="49.242617" lon="6.919773">
        <ele>232.0</ele>
        <time>2020-07-10T07:13:27Z</time>
      </trkpt>
      <trkpt lat="49.242575" lon="6.919932">
        <ele>232.0</ele>
        <time>2020-07-10T07:13:29Z</time>
      </trkpt>
      <trkpt lat="49.242534" lon="6.920081">
        <ele>233.0</ele>
        <time>2020-07-10T07:13:31Z</time>
      </trkpt>
      <trkpt lat="49.242493" lon="6.920237">
        <ele>232.0</ele>
        <time>2020-07-10T07:13:33Z</time>
      </trkpt>
      <trkpt lat="49.242453" lon="6.92039">
        <ele>233.0</ele>
        <time>2020-07-10T07:13:35Z</time>
      </trkpt>
      <trkpt lat="49.24241" lon="6.920545">
        <ele>233.0</ele>
        <time>2020-07-10T07:13:37Z</time>
      </trkpt>
      <trkpt lat="49.242365" lon="6.920703">
        <ele>232.0</ele>
        <time>2020-07-10T07:13:39Z</time>
      </trkpt>
      <trkpt lat="49.242315" lon="6.920856">
        <ele>232.0</ele>
        <time>2020-07-10T07:13:41Z</time>
      </trkpt>
      <trkpt lat="49.242268" lon="6.921005">
        <ele>232.0</ele>
        <time>2020-07-10T07:13:43Z</time>
      </trkpt>
      <trkpt lat="49.242225" lon="6.921148">
        <ele>232.0</ele>
        <time>2020-07-10T07:13:45Z</time>
      </trkpt>
      <trkpt lat="49.242181" lon="6.921298">
        <ele>232.0</ele>
        <time>2020-07-10T07:13:47Z</time>
      </trkpt>
      <trkpt lat="49.242115" lon="6.921531">
        <ele>232.0</ele>
        <time>2020-07-10T07:13:50Z</time>
      </trkpt>
      <trkpt lat="49.242074" lon="6.92169">
        <ele>232.0</ele>
        <time>2020-07-10T07:13:52Z</time>
      </trkpt>
      <trkpt lat="49.242031" lon="6.921853">
        <ele>232.0</ele>
        <time>2020-07-10T07:13:54Z</time>
      </trkpt>
      <trkpt lat="49.241964" lon="6.922101">
        <ele>232.0</ele>
        <time>2020-07-10T07:13:57Z</time>
      </trkpt>
      <trkpt lat="49.241924" lon="6.922247">
        <ele>232.0</ele>
        <time>2020-07-10T07:13:59Z</time>
      </trkpt>
      <trkpt lat="49.241877" lon="6.922402">
        <ele>232.0</ele>
        <time>2020-07-10T07:14:01Z</time>
      </trkpt>
      <trkpt lat="49.241838" lon="6.922553">
        <ele>232.0</ele>
        <time>2020-07-10T07:14:03Z</time>
      </trkpt>
      <trkpt lat="49.241806" lon="6.922701">
        <ele>232.0</ele>
        <time>2020-07-10T07:14:05Z</time>
      </trkpt>
      <trkpt lat="49.241745" lon="6.922927">
        <ele>232.0</ele>
        <time>2020-07-10T07:14:08Z</time>
      </trkpt>
      <trkpt lat="49.2417" lon="6.923067">
        <ele>232.0</ele>
        <time>2020-07-10T07:14:10Z</time>
      </trkpt>
      <trkpt lat="49.241659" lon="6.923213">
        <ele>233.0</ele>
        <time>2020-07-10T07:14:12Z</time>
      </trkpt>
      <trkpt lat="49.241636" lon="6.923287">
        <ele>233.0</ele>
        <time>2020-07-10T07:14:13Z</time>
      </trkpt>
      <trkpt lat="49.241566" lon="6.923505">
        <ele>233.0</ele>
        <time>2020-07-10T07:14:16Z</time>
      </trkpt>
      <trkpt lat="49.241517" lon="6.923643">
        <ele>234.0</ele>
        <time>2020-07-10T07:14:18Z</time>
      </trkpt>
      <trkpt lat="49.241464" lon="6.92379">
        <ele>234.0</ele>
        <time>2020-07-10T07:14:20Z</time>
      </trkpt>
      <trkpt lat="49.241407" lon="6.923935">
        <ele>233.0</ele>
        <time>2020-07-10T07:14:22Z</time>
      </trkpt>
      <trkpt lat="49.241349" lon="6.924076">
        <ele>233.0</ele>
        <time>2020-07-10T07:14:24Z</time>
      </trkpt>
      <trkpt lat="49.2413" lon="6.924217">
        <ele>233.0</ele>
        <time>2020-07-10T07:14:26Z</time>
      </trkpt>
      <trkpt lat="49.24122" lon="6.924425">
        <ele>233.0</ele>
        <time>2020-07-10T07:14:29Z</time>
      </trkpt>
      <trkpt lat="49.241168" lon="6.924554">
        <ele>233.0</ele>
        <time>2020-07-10T07:14:31Z</time>
      </trkpt>
      <trkpt lat="49.241118" lon="6.924694">
        <ele>233.0</ele>
        <time>2020-07-10T07:14:33Z</time>
      </trkpt>
      <trkpt lat="49.241063" lon="6.924843">
        <ele>233.0</ele>
        <time>2020-07-10T07:14:35Z</time>
      </trkpt>
      <trkpt lat="49.240993" lon="6.925065">
        <ele>233.0</ele>
        <time>2020-07-10T07:14:38Z</time>
      </trkpt>
      <trkpt lat="49.240924" lon="6.925282">
        <ele>233.0</ele>
        <time>2020-07-10T07:14:41Z</time>
      </trkpt>
      <trkpt lat="49.240839" lon="6.92558">
        <ele>233.0</ele>
        <time>2020-07-10T07:14:45Z</time>
      </trkpt>
      <trkpt lat="49.240795" lon="6.925728">
        <ele>233.0</ele>
        <time>2020-07-10T07:14:47Z</time>
      </trkpt>
      <trkpt lat="49.24076" lon="6.92588">
        <ele>233.0</ele>
        <time>2020-07-10T07:14:49Z</time>
      </trkpt>
      <trkpt lat="49.24072" lon="6.92603">
        <ele>234.0</ele>
        <time>2020-07-10T07:14:51Z</time>
      </trkpt>
      <trkpt lat="49.240695" lon="6.926103">
        <ele>234.0</ele>
        <time>2020-07-10T07:14:52Z</time>
      </trkpt>
      <trkpt lat="49.240625" lon="6.926316">
        <ele>234.0</ele>
        <time>2020-07-10T07:14:55Z</time>
      </trkpt>
      <trkpt lat="49.240582" lon="6.926463">
        <ele>234.0</ele>
        <time>2020-07-10T07:14:57Z</time>
      </trkpt>
      <trkpt lat="49.240542" lon="6.926608">
        <ele>234.0</ele>
        <time>2020-07-10T07:14:59Z</time>
      </trkpt>
      <trkpt lat="49.240476" lon="6.926834">
        <ele>234.0</ele>
        <time>2020-07-10T07:15:02Z</time>
      </trkpt>
      <trkpt lat="49.240426" lon="6.926985">
        <ele>234.0</ele>
        <time>2020-07-10T07:15:04Z</time>
      </trkpt>
      <trkpt lat="49.240382" lon="6.927135">
        <ele>234.0</ele>
        <time>2020-07-10T07:15:06Z</time>
      </trkpt>
      <trkpt lat="49.24034" lon="6.927286">
        <ele>234.0</ele>
        <time>2020-07-10T07:15:08Z</time>
      </trkpt>
      <trkpt lat="49.240297" lon="6.927426">
        <ele>235.0</ele>
        <time>2020-07-10T07:15:10Z</time>
      </trkpt>
      <trkpt lat="49.240243" lon="6.927607">
        <ele>236.0</ele>
        <time>2020-07-10T07:15:13Z</time>
      </trkpt>
      <trkpt lat="49.240224" lon="6.927655">
        <ele>236.0</ele>
        <time>2020-07-10T07:15:14Z</time>
      </trkpt>
      <trkpt lat="49.240189" lon="6.927811">
        <ele>236.0</ele>
        <time>2020-07-10T07:15:17Z</time>
      </trkpt>
      <trkpt lat="49.240158" lon="6.927902">
        <ele>236.0</ele>
        <time>2020-07-10T07:15:19Z</time>
      </trkpt>
      <trkpt lat="49.240117" lon="6.928045">
        <ele>237.0</ele>
        <time>2020-07-10T07:15:22Z</time>
      </trkpt>
      <trkpt lat="49.240101" lon="6.928088">
        <ele>237.0</ele>
        <time>2020-07-10T07:15:23Z</time>
      </trkpt>
      <trkpt lat="49.240054" lon="6.928219">
        <ele>237.0</ele>
        <time>2020-07-10T07:15:26Z</time>
      </trkpt>
      <trkpt lat="49.240012" lon="6.928353">
        <ele>236.0</ele>
        <time>2020-07-10T07:15:29Z</time>
      </trkpt>
      <trkpt lat="49.239974" lon="6.928475">
        <ele>236.0</ele>
        <time>2020-07-10T07:15:32Z</time>
      </trkpt>
      <trkpt lat="49.239954" lon="6.928554">
        <ele>237.0</ele>
        <time>2020-07-10T07:15:34Z</time>
      </trkpt>
      <trkpt lat="49.239932" lon="6.928638">
        <ele>236.0</ele>
        <time>2020-07-10T07:15:36Z</time>
      </trkpt>
      <trkpt lat="49.23991" lon="6.92872">
        <ele>236.0</ele>
        <time>2020-07-10T07:15:38Z</time>
      </trkpt>
      <trkpt lat="49.239888" lon="6.928801">
        <ele>236.0</ele>
        <time>2020-07-10T07:15:40Z</time>
      </trkpt>
      <trkpt lat="49.239863" lon="6.928877">
        <ele>236.0</ele>
        <time>2020-07-10T07:15:42Z</time>
      </trkpt>
      <trkpt lat="49.239843" lon="6.92895">
        <ele>237.0</ele>
        <time>2020-07-10T07:15:44Z</time>
      </trkpt>
      <trkpt lat="49.239834" lon="6.928991">
        <ele>237.0</ele>
        <time>2020-07-10T07:15:45Z</time>
      </trkpt>
      <trkpt lat="49.239807" lon="6.929096">
        <ele>237.0</ele>
        <time>2020-07-10T07:15:48Z</time>
      </trkpt>
      <trkpt lat="49.239796" lon="6.929155">
        <ele>237.0</ele>
        <time>2020-07-10T07:15:50Z</time>
      </trkpt>
      <trkpt lat="49.239783" lon="6.929196">
        <ele>237.0</ele>
        <time>2020-07-10T07:15:52Z</time>
      </trkpt>
      <trkpt lat="49.239774" lon="6.92924">
        <ele>237.0</ele>
        <time>2020-07-10T07:15:54Z</time>
      </trkpt>
      <trkpt lat="49.239754" lon="6.929302">
        <ele>237.0</ele>
        <time>2020-07-10T07:15:56Z</time>
      </trkpt>
      <trkpt lat="49.239704" lon="6.9295">
        <ele>238.0</ele>
        <time>2020-07-10T07:16:00Z</time>
      </trkpt>
      <trkpt lat="49.239653" lon="6.929644">
        <ele>239.0</ele>
        <time>2020-07-10T07:16:02Z</time>
      </trkpt>
      <trkpt lat="49.239599" lon="6.929828">
        <ele>239.0</ele>
        <time>2020-07-10T07:16:04Z</time>
      </trkpt>
      <trkpt lat="49.239549" lon="6.930024">
        <ele>238.0</ele>
        <time>2020-07-10T07:16:06Z</time>
      </trkpt>
      <trkpt lat="49.239506" lon="6.930237">
        <ele>237.0</ele>
        <time>2020-07-10T07:16:08Z</time>
      </trkpt>
      <trkpt lat="49.239472" lon="6.93046">
        <ele>236.0</ele>
        <time>2020-07-10T07:16:10Z</time>
      </trkpt>
      <trkpt lat="49.239417" lon="6.930799">
        <ele>236.0</ele>
        <time>2020-07-10T07:16:13Z</time>
      </trkpt>
      <trkpt lat="49.239398" lon="6.93092">
        <ele>236.0</ele>
        <time>2020-07-10T07:16:14Z</time>
      </trkpt>
      <trkpt lat="49.239348" lon="6.931274">
        <ele>235.0</ele>
        <time>2020-07-10T07:16:17Z</time>
      </trkpt>
      <trkpt lat="49.239305" lon="6.931602">
        <ele>235.0</ele>
        <time>2020-07-10T07:16:20Z</time>
      </trkpt>
      <trkpt lat="49.239286" lon="6.93181">
        <ele>235.0</ele>
        <time>2020-07-10T07:16:22Z</time>
      </trkpt>
      <trkpt lat="49.239263" lon="6.932015">
        <ele>235.0</ele>
        <time>2020-07-10T07:16:24Z</time>
      </trkpt>
      <trkpt lat="49.239246" lon="6.932219">
        <ele>235.0</ele>
        <time>2020-07-10T07:16:26Z</time>
      </trkpt>
      <trkpt lat="49.239232" lon="6.932417">
        <ele>235.0</ele>
        <time>2020-07-10T07:16:28Z</time>
      </trkpt>
      <trkpt lat="49.239225" lon="6.932615">
        <ele>235.0</ele>
        <time>2020-07-10T07:16:30Z</time>
      </trkpt>
      <trkpt lat="49.239214" lon="6.932808">
        <ele>235.0</ele>
        <time>2020-07-10T07:16:32Z</time>
      </trkpt>
      <trkpt lat="49.239204" lon="6.933">
        <ele>235.0</ele>
        <time>2020-07-10T07:16:34Z</time>
      </trkpt>
      <trkpt lat="49.2392" lon="6.933191">
        <ele>235.0</ele>
        <time>2020-07-10T07:16:36Z</time>
      </trkpt>
      <trkpt lat="49.2392" lon="6.933389">
        <ele>235.0</ele>
        <time>2020-07-10T07:16:38Z</time>
      </trkpt>
      <trkpt lat="49.2392" lon="6.933586">
        <ele>235.0</ele>
        <time>2020-07-10T07:16:40Z</time>
      </trkpt>
      <trkpt lat="49.2392" lon="6.933872">
        <ele>234.0</ele>
        <time>2020-07-10T07:16:43Z</time>
      </trkpt>
      <trkpt lat="49.239201" lon="6.934068">
        <ele>234.0</ele>
        <time>2020-07-10T07:16:45Z</time>
      </trkpt>
      <trkpt lat="49.239198" lon="6.934256">
        <ele>233.0</ele>
        <time>2020-07-10T07:16:47Z</time>
      </trkpt>
      <trkpt lat="49.239195" lon="6.934454">
        <ele>233.0</ele>
        <time>2020-07-10T07:16:49Z</time>
      </trkpt>
      <trkpt lat="49.239197" lon="6.934651">
        <ele>233.0</ele>
        <time>2020-07-10T07:16:51Z</time>
      </trkpt>
      <trkpt lat="49.239199" lon="6.934942">
        <ele>234.0</ele>
        <time>2020-07-10T07:16:54Z</time>
      </trkpt>
      <trkpt lat="49.2392" lon="6.935137">
        <ele>234.0</ele>
        <time>2020-07-10T07:16:56Z</time>
      </trkpt>
      <trkpt lat="49.239201" lon="6.935416">
        <ele>235.0</ele>
        <time>2020-07-10T07:16:59Z</time>
      </trkpt>
      <trkpt lat="49.239197" lon="6.935601">
        <ele>234.0</ele>
        <time>2020-07-10T07:17:01Z</time>
      </trkpt>
      <trkpt lat="49.239191" lon="6.935787">
        <ele>234.0</ele>
        <time>2020-07-10T07:17:03Z</time>
      </trkpt>
      <trkpt lat="49.23918" lon="6.935981">
        <ele>234.0</ele>
        <time>2020-07-10T07:17:05Z</time>
      </trkpt>
      <trkpt lat="49.239166" lon="6.93616">
        <ele>234.0</ele>
        <time>2020-07-10T07:17:07Z</time>
      </trkpt>
      <trkpt lat="49.239153" lon="6.936353">
        <ele>234.0</ele>
        <time>2020-07-10T07:17:09Z</time>
      </trkpt>
      <trkpt lat="49.239144" lon="6.936542">
        <ele>234.0</ele>
        <time>2020-07-10T07:17:11Z</time>
      </trkpt>
      <trkpt lat="49.23912" lon="6.93682">
        <ele>234.0</ele>
        <time>2020-07-10T07:17:14Z</time>
      </trkpt>
      <trkpt lat="49.239095" lon="6.937002">
        <ele>234.0</ele>
        <time>2020-07-10T07:17:16Z</time>
      </trkpt>
      <trkpt lat="49.239076" lon="6.937179">
        <ele>234.0</ele>
        <time>2020-07-10T07:17:18Z</time>
      </trkpt>
      <trkpt lat="49.239055" lon="6.93736">
        <ele>233.0</ele>
        <time>2020-07-10T07:17:20Z</time>
      </trkpt>
      <trkpt lat="49.239033" lon="6.937539">
        <ele>233.0</ele>
        <time>2020-07-10T07:17:22Z</time>
      </trkpt>
      <trkpt lat="49.239004" lon="6.93772">
        <ele>233.0</ele>
        <time>2020-07-10T07:17:24Z</time>
      </trkpt>
      <trkpt lat="49.238979" lon="6.9379">
        <ele>233.0</ele>
        <time>2020-07-10T07:17:26Z</time>
      </trkpt>
      <trkpt lat="49.238943" lon="6.93808">
        <ele>234.0</ele>
        <time>2020-07-10T07:17:28Z</time>
      </trkpt>
      <trkpt lat="49.238912" lon="6.938259">
        <ele>234.0</ele>
        <time>2020-07-10T07:17:30Z</time>
      </trkpt>
      <trkpt lat="49.238875" lon="6.938431">
        <ele>234.0</ele>
        <time>2020-07-10T07:17:32Z</time>
      </trkpt>
      <trkpt lat="49.23886" lon="6.938518">
        <ele>234.0</ele>
        <time>2020-07-10T07:17:33Z</time>
      </trkpt>
      <trkpt lat="49.238787" lon="6.938877">
        <ele>235.0</ele>
        <time>2020-07-10T07:17:37Z</time>
      </trkpt>
      <trkpt lat="49.238747" lon="6.939046">
        <ele>235.0</ele>
        <time>2020-07-10T07:17:39Z</time>
      </trkpt>
      <trkpt lat="49.238709" lon="6.939227">
        <ele>235.0</ele>
        <time>2020-07-10T07:17:41Z</time>
      </trkpt>
      <trkpt lat="49.238674" lon="6.939406">
        <ele>235.0</ele>
        <time>2020-07-10T07:17:43Z</time>
      </trkpt>
      <trkpt lat="49.23861" lon="6.939672">
        <ele>235.0</ele>
        <time>2020-07-10T07:17:46Z</time>
      </trkpt>
      <trkpt lat="49.238572" lon="6.939845">
        <ele>236.0</ele>
        <time>2020-07-10T07:17:48Z</time>
      </trkpt>
      <trkpt lat="49.23853" lon="6.940024">
        <ele>236.0</ele>
        <time>2020-07-10T07:17:50Z</time>
      </trkpt>
      <trkpt lat="49.238486" lon="6.940196">
        <ele>236.0</ele>
        <time>2020-07-10T07:17:52Z</time>
      </trkpt>
      <trkpt lat="49.238464" lon="6.940283">
        <ele>236.0</ele>
        <time>2020-07-10T07:17:53Z</time>
      </trkpt>
      <trkpt lat="49.238405" lon="6.940534">
        <ele>235.0</ele>
        <time>2020-07-10T07:17:56Z</time>
      </trkpt>
      <trkpt lat="49.238349" lon="6.940784">
        <ele>235.0</ele>
        <time>2020-07-10T07:17:59Z</time>
      </trkpt>
      <trkpt lat="49.238327" lon="6.940869">
        <ele>235.0</ele>
        <time>2020-07-10T07:18:00Z</time>
      </trkpt>
      <trkpt lat="49.238255" lon="6.941134">
        <ele>235.0</ele>
        <time>2020-07-10T07:18:03Z</time>
      </trkpt>
      <trkpt lat="49.238205" lon="6.941317">
        <ele>235.0</ele>
        <time>2020-07-10T07:18:05Z</time>
      </trkpt>
      <trkpt lat="49.238163" lon="6.94149">
        <ele>235.0</ele>
        <time>2020-07-10T07:18:07Z</time>
      </trkpt>
      <trkpt lat="49.238122" lon="6.941656">
        <ele>235.0</ele>
        <time>2020-07-10T07:18:09Z</time>
      </trkpt>
      <trkpt lat="49.238078" lon="6.941831">
        <ele>235.0</ele>
        <time>2020-07-10T07:18:11Z</time>
      </trkpt>
      <trkpt lat="49.238033" lon="6.941998">
        <ele>236.0</ele>
        <time>2020-07-10T07:18:13Z</time>
      </trkpt>
      <trkpt lat="49.237991" lon="6.94217">
        <ele>236.0</ele>
        <time>2020-07-10T07:18:15Z</time>
      </trkpt>
      <trkpt lat="49.237934" lon="6.942347">
        <ele>235.0</ele>
        <time>2020-07-10T07:18:17Z</time>
      </trkpt>
      <trkpt lat="49.237891" lon="6.942534">
        <ele>236.0</ele>
        <time>2020-07-10T07:18:19Z</time>
      </trkpt>
      <trkpt lat="49.23786" lon="6.942721">
        <ele>236.0</ele>
        <time>2020-07-10T07:18:21Z</time>
      </trkpt>
      <trkpt lat="49.237817" lon="6.942903">
        <ele>236.0</ele>
        <time>2020-07-10T07:18:23Z</time>
      </trkpt>
      <trkpt lat="49.23779" lon="6.943094">
        <ele>236.0</ele>
        <time>2020-07-10T07:18:25Z</time>
      </trkpt>
      <trkpt lat="49.237763" lon="6.943264">
        <ele>236.0</ele>
        <time>2020-07-10T07:18:27Z</time>
      </trkpt>
      <trkpt lat="49.23772" lon="6.943451">
        <ele>236.0</ele>
        <time>2020-07-10T07:18:29Z</time>
      </trkpt>
      <trkpt lat="49.237666" lon="6.943642">
        <ele>235.0</ele>
        <time>2020-07-10T07:18:31Z</time>
      </trkpt>
      <trkpt lat="49.2376" lon="6.943828">
        <ele>235.0</ele>
        <time>2020-07-10T07:18:33Z</time>
      </trkpt>
      <trkpt lat="49.237532" lon="6.944003">
        <ele>235.0</ele>
        <time>2020-07-10T07:18:35Z</time>
      </trkpt>
      <trkpt lat="49.237457" lon="6.944167">
        <ele>234.0</ele>
        <time>2020-07-10T07:18:37Z</time>
      </trkpt>
      <trkpt lat="49.237335" lon="6.944391">
        <ele>234.0</ele>
        <time>2020-07-10T07:18:40Z</time>
      </trkpt>
      <trkpt lat="49.237262" lon="6.94454">
        <ele>235.0</ele>
        <time>2020-07-10T07:18:42Z</time>
      </trkpt>
      <trkpt lat="49.237203" lon="6.9447">
        <ele>235.0</ele>
        <time>2020-07-10T07:18:44Z</time>
      </trkpt>
      <trkpt lat="49.23711" lon="6.944943">
        <ele>235.0</ele>
        <time>2020-07-10T07:18:47Z</time>
      </trkpt>
      <trkpt lat="49.237049" lon="6.945109">
        <ele>234.0</ele>
        <time>2020-07-10T07:18:49Z</time>
      </trkpt>
      <trkpt lat="49.236983" lon="6.945273">
        <ele>234.0</ele>
        <time>2020-07-10T07:18:51Z</time>
      </trkpt>
      <trkpt lat="49.236917" lon="6.945439">
        <ele>234.0</ele>
        <time>2020-07-10T07:18:53Z</time>
      </trkpt>
      <trkpt lat="49.236849" lon="6.945597">
        <ele>234.0</ele>
        <time>2020-07-10T07:18:55Z</time>
      </trkpt>
      <trkpt lat="49.236819" lon="6.945682">
        <ele>234.0</ele>
        <time>2020-07-10T07:18:56Z</time>
      </trkpt>
      <trkpt lat="49.236723" lon="6.945922">
        <ele>234.0</ele>
        <time>2020-07-10T07:18:59Z</time>
      </trkpt>
      <trkpt lat="49.236655" lon="6.946082">
        <ele>234.0</ele>
        <time>2020-07-10T07:19:01Z</time>
      </trkpt>
      <trkpt lat="49.236588" lon="6.946237">
        <ele>234.0</ele>
        <time>2020-07-10T07:19:03Z</time>
      </trkpt>
      <trkpt lat="49.236483" lon="6.946468">
        <ele>234.0</ele>
        <time>2020-07-10T07:19:06Z</time>
      </trkpt>
      <trkpt lat="49.236418" lon="6.946623">
        <ele>234.0</ele>
        <time>2020-07-10T07:19:08Z</time>
      </trkpt>
      <trkpt lat="49.236358" lon="6.946788">
        <ele>235.0</ele>
        <time>2020-07-10T07:19:10Z</time>
      </trkpt>
      <trkpt lat="49.236325" lon="6.946869">
        <ele>235.0</ele>
        <time>2020-07-10T07:19:11Z</time>
      </trkpt>
      <trkpt lat="49.236198" lon="6.947187">
        <ele>234.0</ele>
        <time>2020-07-10T07:19:15Z</time>
      </trkpt>
      <trkpt lat="49.236132" lon="6.947351">
        <ele>234.0</ele>
        <time>2020-07-10T07:19:17Z</time>
      </trkpt>
      <trkpt lat="49.236038" lon="6.947599">
        <ele>235.0</ele>
        <time>2020-07-10T07:19:20Z</time>
      </trkpt>
      <trkpt lat="49.23598" lon="6.947752">
        <ele>235.0</ele>
        <time>2020-07-10T07:19:22Z</time>
      </trkpt>
      <trkpt lat="49.235921" lon="6.94791">
        <ele>235.0</ele>
        <time>2020-07-10T07:19:24Z</time>
      </trkpt>
      <trkpt lat="49.23586" lon="6.948075">
        <ele>235.0</ele>
        <time>2020-07-10T07:19:26Z</time>
      </trkpt>
      <trkpt lat="49.235769" lon="6.948305">
        <ele>235.0</ele>
        <time>2020-07-10T07:19:29Z</time>
      </trkpt>
      <trkpt lat="49.235711" lon="6.948453">
        <ele>235.0</ele>
        <time>2020-07-10T07:19:31Z</time>
      </trkpt>
      <trkpt lat="49.235636" lon="6.948658">
        <ele>235.0</ele>
        <time>2020-07-10T07:19:34Z</time>
      </trkpt>
      <trkpt lat="49.235574" lon="6.948807">
        <ele>235.0</ele>
        <time>2020-07-10T07:19:36Z</time>
      </trkpt>
      <trkpt lat="49.235508" lon="6.948948">
        <ele>235.0</ele>
        <time>2020-07-10T07:19:38Z</time>
      </trkpt>
      <trkpt lat="49.235436" lon="6.94908">
        <ele>235.0</ele>
        <time>2020-07-10T07:19:40Z</time>
      </trkpt>
      <trkpt lat="49.235371" lon="6.94921">
        <ele>235.0</ele>
        <time>2020-07-10T07:19:42Z</time>
      </trkpt>
      <trkpt lat="49.235304" lon="6.949358">
        <ele>236.0</ele>
        <time>2020-07-10T07:19:44Z</time>
      </trkpt>
      <trkpt lat="49.235235" lon="6.949499">
        <ele>236.0</ele>
        <time>2020-07-10T07:19:46Z</time>
      </trkpt>
      <trkpt lat="49.235156" lon="6.949646">
        <ele>236.0</ele>
        <time>2020-07-10T07:19:48Z</time>
      </trkpt>
      <trkpt lat="49.235084" lon="6.949791">
        <ele>236.0</ele>
        <time>2020-07-10T07:19:50Z</time>
      </trkpt>
      <trkpt lat="49.235007" lon="6.949927">
        <ele>237.0</ele>
        <time>2020-07-10T07:19:52Z</time>
      </trkpt>
      <trkpt lat="49.234939" lon="6.950069">
        <ele>236.0</ele>
        <time>2020-07-10T07:19:54Z</time>
      </trkpt>
      <trkpt lat="49.234864" lon="6.950216">
        <ele>236.0</ele>
        <time>2020-07-10T07:19:56Z</time>
      </trkpt>
      <trkpt lat="49.234784" lon="6.950352">
        <ele>237.0</ele>
        <time>2020-07-10T07:19:58Z</time>
      </trkpt>
      <trkpt lat="49.234714" lon="6.950505">
        <ele>238.0</ele>
        <time>2020-07-10T07:20:00Z</time>
      </trkpt>
      <trkpt lat="49.234631" lon="6.950649">
        <ele>238.0</ele>
        <time>2020-07-10T07:20:02Z</time>
      </trkpt>
      <trkpt lat="49.234542" lon="6.950782">
        <ele>239.0</ele>
        <time>2020-07-10T07:20:04Z</time>
      </trkpt>
      <trkpt lat="49.234418" lon="6.950989">
        <ele>240.0</ele>
        <time>2020-07-10T07:20:07Z</time>
      </trkpt>
      <trkpt lat="49.234337" lon="6.951137">
        <ele>239.0</ele>
        <time>2020-07-10T07:20:09Z</time>
      </trkpt>
      <trkpt lat="49.234222" lon="6.951341">
        <ele>240.0</ele>
        <time>2020-07-10T07:20:12Z</time>
      </trkpt>
      <trkpt lat="49.23415" lon="6.951495">
        <ele>240.0</ele>
        <time>2020-07-10T07:20:14Z</time>
      </trkpt>
      <trkpt lat="49.234034" lon="6.951728">
        <ele>240.0</ele>
        <time>2020-07-10T07:20:17Z</time>
      </trkpt>
      <trkpt lat="49.233957" lon="6.951884">
        <ele>241.0</ele>
        <time>2020-07-10T07:20:19Z</time>
      </trkpt>
      <trkpt lat="49.233896" lon="6.95203">
        <ele>240.0</ele>
        <time>2020-07-10T07:20:21Z</time>
      </trkpt>
      <trkpt lat="49.23383" lon="6.952193">
        <ele>239.0</ele>
        <time>2020-07-10T07:20:23Z</time>
      </trkpt>
      <trkpt lat="49.233767" lon="6.952353">
        <ele>239.0</ele>
        <time>2020-07-10T07:20:25Z</time>
      </trkpt>
      <trkpt lat="49.233716" lon="6.952517">
        <ele>239.0</ele>
        <time>2020-07-10T07:20:27Z</time>
      </trkpt>
      <trkpt lat="49.233671" lon="6.95268">
        <ele>238.0</ele>
        <time>2020-07-10T07:20:29Z</time>
      </trkpt>
      <trkpt lat="49.233627" lon="6.952864">
        <ele>238.0</ele>
        <time>2020-07-10T07:20:31Z</time>
      </trkpt>
      <trkpt lat="49.233582" lon="6.953142">
        <ele>237.0</ele>
        <time>2020-07-10T07:20:34Z</time>
      </trkpt>
      <trkpt lat="49.233566" lon="6.953234">
        <ele>237.0</ele>
        <time>2020-07-10T07:20:35Z</time>
      </trkpt>
      <trkpt lat="49.23353" lon="6.953509">
        <ele>236.0</ele>
        <time>2020-07-10T07:20:38Z</time>
      </trkpt>
      <trkpt lat="49.23352" lon="6.953676">
        <ele>236.0</ele>
        <time>2020-07-10T07:20:40Z</time>
      </trkpt>
      <trkpt lat="49.233514" lon="6.953838">
        <ele>236.0</ele>
        <time>2020-07-10T07:20:42Z</time>
      </trkpt>
      <trkpt lat="49.233521" lon="6.954095">
        <ele>236.0</ele>
        <time>2020-07-10T07:20:45Z</time>
      </trkpt>
      <trkpt lat="49.233523" lon="6.954181">
        <ele>236.0</ele>
        <time>2020-07-10T07:20:46Z</time>
      </trkpt>
      <trkpt lat="49.233532" lon="6.954539">
        <ele>235.0</ele>
        <time>2020-07-10T07:20:50Z</time>
      </trkpt>
      <trkpt lat="49.233537" lon="6.954707">
        <ele>236.0</ele>
        <time>2020-07-10T07:20:52Z</time>
      </trkpt>
      <trkpt lat="49.233544" lon="6.954875">
        <ele>235.0</ele>
        <time>2020-07-10T07:20:54Z</time>
      </trkpt>
      <trkpt lat="49.233552" lon="6.95505">
        <ele>235.0</ele>
        <time>2020-07-10T07:20:56Z</time>
      </trkpt>
      <trkpt lat="49.233561" lon="6.955212">
        <ele>236.0</ele>
        <time>2020-07-10T07:20:58Z</time>
      </trkpt>
      <trkpt lat="49.233569" lon="6.955471">
        <ele>236.0</ele>
        <time>2020-07-10T07:21:01Z</time>
      </trkpt>
      <trkpt lat="49.233591" lon="6.955641">
        <ele>235.0</ele>
        <time>2020-07-10T07:21:03Z</time>
      </trkpt>
      <trkpt lat="49.233604" lon="6.955818">
        <ele>236.0</ele>
        <time>2020-07-10T07:21:05Z</time>
      </trkpt>
      <trkpt lat="49.233613" lon="6.955984">
        <ele>236.0</ele>
        <time>2020-07-10T07:21:07Z</time>
      </trkpt>
      <trkpt lat="49.23362" lon="6.956061">
        <ele>235.0</ele>
        <time>2020-07-10T07:21:08Z</time>
      </trkpt>
      <trkpt lat="49.233632" lon="6.956301">
        <ele>236.0</ele>
        <time>2020-07-10T07:21:11Z</time>
      </trkpt>
      <trkpt lat="49.233646" lon="6.956467">
        <ele>237.0</ele>
        <time>2020-07-10T07:21:13Z</time>
      </trkpt>
      <trkpt lat="49.233652" lon="6.956628">
        <ele>237.0</ele>
        <time>2020-07-10T07:21:15Z</time>
      </trkpt>
      <trkpt lat="49.233656" lon="6.956803">
        <ele>237.0</ele>
        <time>2020-07-10T07:21:17Z</time>
      </trkpt>
      <trkpt lat="49.233668" lon="6.956969">
        <ele>236.0</ele>
        <time>2020-07-10T07:21:19Z</time>
      </trkpt>
      <trkpt lat="49.233668" lon="6.957144">
        <ele>236.0</ele>
        <time>2020-07-10T07:21:21Z</time>
      </trkpt>
      <trkpt lat="49.233681" lon="6.957326">
        <ele>236.0</ele>
        <time>2020-07-10T07:21:23Z</time>
      </trkpt>
      <trkpt lat="49.233685" lon="6.957576">
        <ele>236.0</ele>
        <time>2020-07-10T07:21:26Z</time>
      </trkpt>
      <trkpt lat="49.233693" lon="6.957743">
        <ele>236.0</ele>
        <time>2020-07-10T07:21:28Z</time>
      </trkpt>
      <trkpt lat="49.2337" lon="6.957996">
        <ele>237.0</ele>
        <time>2020-07-10T07:21:31Z</time>
      </trkpt>
      <trkpt lat="49.233703" lon="6.95808">
        <ele>236.0</ele>
        <time>2020-07-10T07:21:32Z</time>
      </trkpt>
      <trkpt lat="49.233706" lon="6.958315">
        <ele>236.0</ele>
        <time>2020-07-10T07:21:35Z</time>
      </trkpt>
      <trkpt lat="49.233713" lon="6.958555">
        <ele>236.0</ele>
        <time>2020-07-10T07:21:38Z</time>
      </trkpt>
      <trkpt lat="49.233724" lon="6.958724">
        <ele>236.0</ele>
        <time>2020-07-10T07:21:40Z</time>
      </trkpt>
      <trkpt lat="49.233733" lon="6.9589">
        <ele>235.0</ele>
        <time>2020-07-10T07:21:42Z</time>
      </trkpt>
      <trkpt lat="49.233744" lon="6.959163">
        <ele>236.0</ele>
        <time>2020-07-10T07:21:45Z</time>
      </trkpt>
      <trkpt lat="49.233747" lon="6.959248">
        <ele>236.0</ele>
        <time>2020-07-10T07:21:46Z</time>
      </trkpt>
      <trkpt lat="49.23375" lon="6.959522">
        <ele>236.0</ele>
        <time>2020-07-10T07:21:49Z</time>
      </trkpt>
      <trkpt lat="49.23376" lon="6.959712">
        <ele>237.0</ele>
        <time>2020-07-10T07:21:51Z</time>
      </trkpt>
      <trkpt lat="49.233767" lon="6.959895">
        <ele>237.0</ele>
        <time>2020-07-10T07:21:53Z</time>
      </trkpt>
      <trkpt lat="49.233769" lon="6.96008">
        <ele>236.0</ele>
        <time>2020-07-10T07:21:55Z</time>
      </trkpt>
      <trkpt lat="49.233773" lon="6.960259">
        <ele>236.0</ele>
        <time>2020-07-10T07:21:57Z</time>
      </trkpt>
      <trkpt lat="49.233779" lon="6.960431">
        <ele>236.0</ele>
        <time>2020-07-10T07:21:59Z</time>
      </trkpt>
      <trkpt lat="49.233787" lon="6.960607">
        <ele>236.0</ele>
        <time>2020-07-10T07:22:01Z</time>
      </trkpt>
      <trkpt lat="49.233795" lon="6.960793">
        <ele>236.0</ele>
        <time>2020-07-10T07:22:03Z</time>
      </trkpt>
      <trkpt lat="49.233802" lon="6.961067">
        <ele>236.0</ele>
        <time>2020-07-10T07:22:06Z</time>
      </trkpt>
      <trkpt lat="49.233819" lon="6.96125">
        <ele>235.0</ele>
        <time>2020-07-10T07:22:08Z</time>
      </trkpt>
      <trkpt lat="49.233852" lon="6.96142">
        <ele>235.0</ele>
        <time>2020-07-10T07:22:10Z</time>
      </trkpt>
      <trkpt lat="49.233875" lon="6.961595">
        <ele>235.0</ele>
        <time>2020-07-10T07:22:12Z</time>
      </trkpt>
      <trkpt lat="49.233879" lon="6.961776">
        <ele>235.0</ele>
        <time>2020-07-10T07:22:14Z</time>
      </trkpt>
      <trkpt lat="49.233897" lon="6.961989">
        <ele>234.0</ele>
        <time>2020-07-10T07:22:16Z</time>
      </trkpt>
      <trkpt lat="49.233863" lon="6.962172">
        <ele>235.0</ele>
        <time>2020-07-10T07:22:18Z</time>
      </trkpt>
      <trkpt lat="49.233822" lon="6.962439">
        <ele>236.0</ele>
        <time>2020-07-10T07:22:21Z</time>
      </trkpt>
      <trkpt lat="49.233842" lon="6.962629">
        <ele>235.0</ele>
        <time>2020-07-10T07:22:23Z</time>
      </trkpt>
      <trkpt lat="49.233884" lon="6.962824">
        <ele>236.0</ele>
        <time>2020-07-10T07:22:25Z</time>
      </trkpt>
      <trkpt lat="49.233917" lon="6.96301">
        <ele>236.0</ele>
        <time>2020-07-10T07:22:27Z</time>
      </trkpt>
      <trkpt lat="49.233947" lon="6.963198">
        <ele>235.0</ele>
        <time>2020-07-10T07:22:29Z</time>
      </trkpt>
      <trkpt lat="49.233993" lon="6.963456">
        <ele>235.0</ele>
        <time>2020-07-10T07:22:32Z</time>
      </trkpt>
      <trkpt lat="49.234025" lon="6.963625">
        <ele>235.0</ele>
        <time>2020-07-10T07:22:34Z</time>
      </trkpt>
      <trkpt lat="49.23405" lon="6.963791">
        <ele>235.0</ele>
        <time>2020-07-10T07:22:36Z</time>
      </trkpt>
      <trkpt lat="49.23406" lon="6.963953">
        <ele>236.0</ele>
        <time>2020-07-10T07:22:38Z</time>
      </trkpt>
      <trkpt lat="49.23405" lon="6.964114">
        <ele>236.0</ele>
        <time>2020-07-10T07:22:40Z</time>
      </trkpt>
      <trkpt lat="49.234049" lon="6.964272">
        <ele>236.0</ele>
        <time>2020-07-10T07:22:42Z</time>
      </trkpt>
      <trkpt lat="49.234058" lon="6.96442">
        <ele>236.0</ele>
        <time>2020-07-10T07:22:44Z</time>
      </trkpt>
      <trkpt lat="49.234073" lon="6.964565">
        <ele>235.0</ele>
        <time>2020-07-10T07:22:46Z</time>
      </trkpt>
      <trkpt lat="49.234105" lon="6.9647">
        <ele>236.0</ele>
        <time>2020-07-10T07:22:48Z</time>
      </trkpt>
      <trkpt lat="49.234203" lon="6.96487">
        <ele>236.0</ele>
        <time>2020-07-10T07:22:51Z</time>
      </trkpt>
      <trkpt lat="49.234252" lon="6.965007">
        <ele>236.0</ele>
        <time>2020-07-10T07:22:53Z</time>
      </trkpt>
      <trkpt lat="49.23427" lon="6.965085">
        <ele>237.0</ele>
        <time>2020-07-10T07:22:54Z</time>
      </trkpt>
      <trkpt lat="49.234315" lon="6.965333">
        <ele>237.0</ele>
        <time>2020-07-10T07:22:57Z</time>
      </trkpt>
      <trkpt lat="49.234362" lon="6.965595">
        <ele>236.0</ele>
        <time>2020-07-10T07:23:00Z</time>
      </trkpt>
      <trkpt lat="49.234397" lon="6.965746">
        <ele>236.0</ele>
        <time>2020-07-10T07:23:02Z</time>
      </trkpt>
      <trkpt lat="49.234436" lon="6.965894">
        <ele>237.0</ele>
        <time>2020-07-10T07:23:04Z</time>
      </trkpt>
      <trkpt lat="49.234454" lon="6.965976">
        <ele>237.0</ele>
        <time>2020-07-10T07:23:05Z</time>
      </trkpt>
      <trkpt lat="49.234502" lon="6.966223">
        <ele>236.0</ele>
        <time>2020-07-10T07:23:08Z</time>
      </trkpt>
      <trkpt lat="49.234564" lon="6.966469">
        <ele>236.0</ele>
        <time>2020-07-10T07:23:11Z</time>
      </trkpt>
      <trkpt lat="49.234606" lon="6.966616">
        <ele>235.0</ele>
        <time>2020-07-10T07:23:13Z</time>
      </trkpt>
      <trkpt lat="49.234647" lon="6.966757">
        <ele>235.0</ele>
        <time>2020-07-10T07:23:15Z</time>
      </trkpt>
      <trkpt lat="49.234714" lon="6.966986">
        <ele>236.0</ele>
        <time>2020-07-10T07:23:18Z</time>
      </trkpt>
      <trkpt lat="49.234766" lon="6.96713">
        <ele>236.0</ele>
        <time>2020-07-10T07:23:20Z</time>
      </trkpt>
      <trkpt lat="49.234814" lon="6.967274">
        <ele>236.0</ele>
        <time>2020-07-10T07:23:22Z</time>
      </trkpt>
      <trkpt lat="49.234841" lon="6.967351">
        <ele>236.0</ele>
        <time>2020-07-10T07:23:23Z</time>
      </trkpt>
      <trkpt lat="49.234926" lon="6.967571">
        <ele>236.0</ele>
        <time>2020-07-10T07:23:26Z</time>
      </trkpt>
      <trkpt lat="49.234978" lon="6.967717">
        <ele>235.0</ele>
        <time>2020-07-10T07:23:28Z</time>
      </trkpt>
      <trkpt lat="49.235031" lon="6.967856">
        <ele>236.0</ele>
        <time>2020-07-10T07:23:30Z</time>
      </trkpt>
      <trkpt lat="49.235089" lon="6.967996">
        <ele>236.0</ele>
        <time>2020-07-10T07:23:32Z</time>
      </trkpt>
      <trkpt lat="49.235175" lon="6.96821">
        <ele>236.0</ele>
        <time>2020-07-10T07:23:35Z</time>
      </trkpt>
      <trkpt lat="49.23524" lon="6.968371">
        <ele>236.0</ele>
        <time>2020-07-10T07:23:37Z</time>
      </trkpt>
      <trkpt lat="49.235303" lon="6.96852">
        <ele>236.0</ele>
        <time>2020-07-10T07:23:39Z</time>
      </trkpt>
      <trkpt lat="49.23537" lon="6.968659">
        <ele>235.0</ele>
        <time>2020-07-10T07:23:41Z</time>
      </trkpt>
      <trkpt lat="49.23546" lon="6.96887">
        <ele>236.0</ele>
        <time>2020-07-10T07:23:44Z</time>
      </trkpt>
      <trkpt lat="49.235519" lon="6.969017">
        <ele>236.0</ele>
        <time>2020-07-10T07:23:46Z</time>
      </trkpt>
      <trkpt lat="49.235551" lon="6.969093">
        <ele>236.0</ele>
        <time>2020-07-10T07:23:47Z</time>
      </trkpt>
      <trkpt lat="49.235648" lon="6.969327">
        <ele>236.0</ele>
        <time>2020-07-10T07:23:50Z</time>
      </trkpt>
      <trkpt lat="49.235749" lon="6.969556">
        <ele>236.0</ele>
        <time>2020-07-10T07:23:53Z</time>
      </trkpt>
      <trkpt lat="49.23581" lon="6.969705">
        <ele>235.0</ele>
        <time>2020-07-10T07:23:55Z</time>
      </trkpt>
      <trkpt lat="49.235894" lon="6.969904">
        <ele>235.0</ele>
        <time>2020-07-10T07:23:58Z</time>
      </trkpt>
      <trkpt lat="49.235913" lon="6.969955">
        <ele>235.0</ele>
        <time>2020-07-10T07:23:59Z</time>
      </trkpt>
      <trkpt lat="49.235934" lon="6.970038">
        <ele>236.0</ele>
        <time>2020-07-10T07:24:02Z</time>
      </trkpt>
      <trkpt lat="49.235934" lon="6.970052">
        <ele>235.0</ele>
        <time>2020-07-10T07:24:04Z</time>
      </trkpt>
      <trkpt lat="49.235933" lon="6.970051">
        <ele>235.0</ele>
        <time>2020-07-10T07:24:05Z</time>
      </trkpt>
      <trkpt lat="49.235933" lon="6.970057">
        <ele>235.0</ele>
        <time>2020-07-10T07:24:07Z</time>
      </trkpt>
      <trkpt lat="49.235933" lon="6.970057">
        <ele>235.0</ele>
        <time>2020-07-10T07:24:10Z</time>
      </trkpt>
      <trkpt lat="49.235918" lon="6.970097">
        <ele>234.0</ele>
        <time>2020-07-10T07:33:35Z</time>
      </trkpt>
      <trkpt lat="49.235919" lon="6.970098">
        <ele>235.0</ele>
        <time>2020-07-10T07:33:37Z</time>
      </trkpt>
      <trkpt lat="49.235919" lon="6.970098">
        <ele>235.0</ele>
        <time>2020-07-10T07:33:40Z</time>
      </trkpt>
      <trkpt lat="49.235919" lon="6.970098">
        <ele>235.0</ele>
        <time>2020-07-10T07:33:42Z</time>
      </trkpt>
      <trkpt lat="49.23591" lon="6.970101">
        <ele>234.0</ele>
        <time>2020-07-10T07:33:44Z</time>
      </trkpt>
      <trkpt lat="49.235914" lon="6.970099">
        <ele>235.0</ele>
        <time>2020-07-10T07:33:46Z</time>
      </trkpt>
      <trkpt lat="49.235914" lon="6.97009">
        <ele>235.0</ele>
        <time>2020-07-10T07:33:48Z</time>
      </trkpt>
      <trkpt lat="49.235915" lon="6.970065">
        <ele>236.0</ele>
        <time>2020-07-10T07:33:50Z</time>
      </trkpt>
      <trkpt lat="49.235921" lon="6.970087">
        <ele>235.0</ele>
        <time>2020-07-10T07:33:52Z</time>
      </trkpt>
      <trkpt lat="49.235922" lon="6.970085">
        <ele>235.0</ele>
        <time>2020-07-10T07:33:54Z</time>
      </trkpt>
      <trkpt lat="49.235922" lon="6.970084">
        <ele>235.0</ele>
        <time>2020-07-10T07:33:56Z</time>
      </trkpt>
      <trkpt lat="49.235926" lon="6.970083">
        <ele>234.0</ele>
        <time>2020-07-10T07:33:59Z</time>
      </trkpt>
      <trkpt lat="49.235942" lon="6.970111">
        <ele>234.0</ele>
        <time>2020-07-10T07:34:01Z</time>
      </trkpt>
      <trkpt lat="49.235968" lon="6.970181">
        <ele>234.0</ele>
        <time>2020-07-10T07:34:03Z</time>
      </trkpt>
      <trkpt lat="49.235991" lon="6.970256">
        <ele>234.0</ele>
        <time>2020-07-10T07:34:05Z</time>
      </trkpt>
      <trkpt lat="49.236032" lon="6.970359">
        <ele>234.0</ele>
        <time>2020-07-10T07:34:08Z</time>
      </trkpt>
      <trkpt lat="49.236066" lon="6.970443">
        <ele>233.0</ele>
        <time>2020-07-10T07:34:10Z</time>
      </trkpt>
      <trkpt lat="49.236101" lon="6.97055">
        <ele>234.0</ele>
        <time>2020-07-10T07:34:12Z</time>
      </trkpt>
      <trkpt lat="49.236138" lon="6.970677">
        <ele>235.0</ele>
        <time>2020-07-10T07:34:14Z</time>
      </trkpt>
      <trkpt lat="49.236171" lon="6.970814">
        <ele>236.0</ele>
        <time>2020-07-10T07:34:16Z</time>
      </trkpt>
      <trkpt lat="49.236202" lon="6.970964">
        <ele>237.0</ele>
        <time>2020-07-10T07:34:18Z</time>
      </trkpt>
      <trkpt lat="49.236231" lon="6.971104">
        <ele>237.0</ele>
        <time>2020-07-10T07:34:20Z</time>
      </trkpt>
      <trkpt lat="49.236283" lon="6.971321">
        <ele>237.0</ele>
        <time>2020-07-10T07:34:23Z</time>
      </trkpt>
      <trkpt lat="49.23632" lon="6.971476">
        <ele>237.0</ele>
        <time>2020-07-10T07:34:25Z</time>
      </trkpt>
      <trkpt lat="49.236382" lon="6.971716">
        <ele>236.0</ele>
        <time>2020-07-10T07:34:28Z</time>
      </trkpt>
      <trkpt lat="49.236413" lon="6.971893">
        <ele>237.0</ele>
        <time>2020-07-10T07:34:30Z</time>
      </trkpt>
      <trkpt lat="49.23645" lon="6.972053">
        <ele>236.0</ele>
        <time>2020-07-10T07:34:32Z</time>
      </trkpt>
      <trkpt lat="49.236483" lon="6.972218">
        <ele>237.0</ele>
        <time>2020-07-10T07:34:34Z</time>
      </trkpt>
      <trkpt lat="49.236531" lon="6.972462">
        <ele>237.0</ele>
        <time>2020-07-10T07:34:37Z</time>
      </trkpt>
      <trkpt lat="49.236564" lon="6.972628">
        <ele>237.0</ele>
        <time>2020-07-10T07:34:39Z</time>
      </trkpt>
      <trkpt lat="49.236612" lon="6.972877">
        <ele>237.0</ele>
        <time>2020-07-10T07:34:42Z</time>
      </trkpt>
      <trkpt lat="49.236641" lon="6.973041">
        <ele>237.0</ele>
        <time>2020-07-10T07:34:44Z</time>
      </trkpt>
      <trkpt lat="49.236663" lon="6.973199">
        <ele>237.0</ele>
        <time>2020-07-10T07:34:46Z</time>
      </trkpt>
      <trkpt lat="49.236688" lon="6.973359">
        <ele>237.0</ele>
        <time>2020-07-10T07:34:48Z</time>
      </trkpt>
      <trkpt lat="49.236713" lon="6.973529">
        <ele>237.0</ele>
        <time>2020-07-10T07:34:50Z</time>
      </trkpt>
      <trkpt lat="49.236735" lon="6.973692">
        <ele>237.0</ele>
        <time>2020-07-10T07:34:52Z</time>
      </trkpt>
      <trkpt lat="49.236755" lon="6.973855">
        <ele>237.0</ele>
        <time>2020-07-10T07:34:54Z</time>
      </trkpt>
      <trkpt lat="49.236784" lon="6.974093">
        <ele>237.0</ele>
        <time>2020-07-10T07:34:57Z</time>
      </trkpt>
      <trkpt lat="49.236807" lon="6.974263">
        <ele>236.0</ele>
        <time>2020-07-10T07:34:59Z</time>
      </trkpt>
      <trkpt lat="49.236819" lon="6.974453">
        <ele>236.0</ele>
        <time>2020-07-10T07:35:01Z</time>
      </trkpt>
      <trkpt lat="49.236827" lon="6.974648">
        <ele>237.0</ele>
        <time>2020-07-10T07:35:03Z</time>
      </trkpt>
      <trkpt lat="49.236832" lon="6.974837">
        <ele>236.0</ele>
        <time>2020-07-10T07:35:05Z</time>
      </trkpt>
      <trkpt lat="49.236836" lon="6.975118">
        <ele>236.0</ele>
        <time>2020-07-10T07:35:08Z</time>
      </trkpt>
      <trkpt lat="49.236838" lon="6.975308">
        <ele>236.0</ele>
        <time>2020-07-10T07:35:10Z</time>
      </trkpt>
      <trkpt lat="49.236842" lon="6.975492">
        <ele>235.0</ele>
        <time>2020-07-10T07:35:12Z</time>
      </trkpt>
      <trkpt lat="49.236837" lon="6.975683">
        <ele>235.0</ele>
        <time>2020-07-10T07:35:14Z</time>
      </trkpt>
      <trkpt lat="49.236823" lon="6.975869">
        <ele>235.0</ele>
        <time>2020-07-10T07:35:16Z</time>
      </trkpt>
      <trkpt lat="49.236788" lon="6.976147">
        <ele>234.0</ele>
        <time>2020-07-10T07:35:19Z</time>
      </trkpt>
      <trkpt lat="49.236773" lon="6.976328">
        <ele>234.0</ele>
        <time>2020-07-10T07:35:21Z</time>
      </trkpt>
      <trkpt lat="49.236763" lon="6.976506">
        <ele>234.0</ele>
        <time>2020-07-10T07:35:23Z</time>
      </trkpt>
      <trkpt lat="49.236754" lon="6.976593">
        <ele>234.0</ele>
        <time>2020-07-10T07:35:24Z</time>
      </trkpt>
      <trkpt lat="49.236729" lon="6.976873">
        <ele>234.0</ele>
        <time>2020-07-10T07:35:27Z</time>
      </trkpt>
      <trkpt lat="49.236711" lon="6.977058">
        <ele>234.0</ele>
        <time>2020-07-10T07:35:29Z</time>
      </trkpt>
      <trkpt lat="49.236704" lon="6.977238">
        <ele>235.0</ele>
        <time>2020-07-10T07:35:31Z</time>
      </trkpt>
      <trkpt lat="49.236683" lon="6.977501">
        <ele>235.0</ele>
        <time>2020-07-10T07:35:34Z</time>
      </trkpt>
      <trkpt lat="49.236667" lon="6.977676">
        <ele>235.0</ele>
        <time>2020-07-10T07:35:36Z</time>
      </trkpt>
      <trkpt lat="49.236653" lon="6.977851">
        <ele>235.0</ele>
        <time>2020-07-10T07:35:38Z</time>
      </trkpt>
      <trkpt lat="49.236641" lon="6.978019">
        <ele>235.0</ele>
        <time>2020-07-10T07:35:40Z</time>
      </trkpt>
      <trkpt lat="49.236632" lon="6.978101">
        <ele>235.0</ele>
        <time>2020-07-10T07:35:41Z</time>
      </trkpt>
      <trkpt lat="49.236614" lon="6.978336">
        <ele>236.0</ele>
        <time>2020-07-10T07:35:44Z</time>
      </trkpt>
      <trkpt lat="49.236602" lon="6.978501">
        <ele>236.0</ele>
        <time>2020-07-10T07:35:46Z</time>
      </trkpt>
      <trkpt lat="49.236554" lon="6.978665">
        <ele>235.0</ele>
        <time>2020-07-10T07:35:48Z</time>
      </trkpt>
      <trkpt lat="49.236478" lon="6.97877">
        <ele>236.0</ele>
        <time>2020-07-10T07:35:50Z</time>
      </trkpt>
      <trkpt lat="49.236396" lon="6.978894">
        <ele>236.0</ele>
        <time>2020-07-10T07:35:52Z</time>
      </trkpt>
      <trkpt lat="49.236325" lon="6.979043">
        <ele>236.0</ele>
        <time>2020-07-10T07:35:54Z</time>
      </trkpt>
      <trkpt lat="49.23631" lon="6.979212">
        <ele>236.0</ele>
        <time>2020-07-10T07:35:56Z</time>
      </trkpt>
      <trkpt lat="49.236322" lon="6.979463">
        <ele>236.0</ele>
        <time>2020-07-10T07:35:59Z</time>
      </trkpt>
      <trkpt lat="49.236353" lon="6.979538">
        <ele>236.0</ele>
        <time>2020-07-10T07:36:00Z</time>
      </trkpt>
      <trkpt lat="49.236484" lon="6.979707">
        <ele>236.0</ele>
        <time>2020-07-10T07:36:03Z</time>
      </trkpt>
      <trkpt lat="49.236542" lon="6.979839">
        <ele>236.0</ele>
        <time>2020-07-10T07:36:05Z</time>
      </trkpt>
      <trkpt lat="49.236551" lon="6.980022">
        <ele>235.0</ele>
        <time>2020-07-10T07:36:07Z</time>
      </trkpt>
      <trkpt lat="49.236555" lon="6.980303">
        <ele>235.0</ele>
        <time>2020-07-10T07:36:10Z</time>
      </trkpt>
      <trkpt lat="49.236545" lon="6.980489">
        <ele>235.0</ele>
        <time>2020-07-10T07:36:12Z</time>
      </trkpt>
      <trkpt lat="49.236539" lon="6.980671">
        <ele>235.0</ele>
        <time>2020-07-10T07:36:14Z</time>
      </trkpt>
      <trkpt lat="49.236538" lon="6.980852">
        <ele>235.0</ele>
        <time>2020-07-10T07:36:16Z</time>
      </trkpt>
      <trkpt lat="49.236539" lon="6.980947">
        <ele>235.0</ele>
        <time>2020-07-10T07:36:17Z</time>
      </trkpt>
      <trkpt lat="49.236543" lon="6.981232">
        <ele>235.0</ele>
        <time>2020-07-10T07:36:20Z</time>
      </trkpt>
      <trkpt lat="49.23655" lon="6.981419">
        <ele>235.0</ele>
        <time>2020-07-10T07:36:22Z</time>
      </trkpt>
      <trkpt lat="49.236563" lon="6.981602">
        <ele>235.0</ele>
        <time>2020-07-10T07:36:24Z</time>
      </trkpt>
      <trkpt lat="49.236587" lon="6.981969">
        <ele>235.0</ele>
        <time>2020-07-10T07:36:28Z</time>
      </trkpt>
      <trkpt lat="49.236594" lon="6.982154">
        <ele>235.0</ele>
        <time>2020-07-10T07:36:30Z</time>
      </trkpt>
      <trkpt lat="49.2366" lon="6.982344">
        <ele>235.0</ele>
        <time>2020-07-10T07:36:32Z</time>
      </trkpt>
      <trkpt lat="49.236614" lon="6.982608">
        <ele>235.0</ele>
        <time>2020-07-10T07:36:35Z</time>
      </trkpt>
      <trkpt lat="49.236619" lon="6.9827">
        <ele>235.0</ele>
        <time>2020-07-10T07:36:36Z</time>
      </trkpt>
      <trkpt lat="49.236622" lon="6.98298">
        <ele>235.0</ele>
        <time>2020-07-10T07:36:39Z</time>
      </trkpt>
      <trkpt lat="49.236627" lon="6.983075">
        <ele>235.0</ele>
        <time>2020-07-10T07:36:40Z</time>
      </trkpt>
      <trkpt lat="49.236639" lon="6.983353">
        <ele>235.0</ele>
        <time>2020-07-10T07:36:43Z</time>
      </trkpt>
      <trkpt lat="49.236646" lon="6.983539">
        <ele>235.0</ele>
        <time>2020-07-10T07:36:45Z</time>
      </trkpt>
      <trkpt lat="49.236641" lon="6.983738">
        <ele>236.0</ele>
        <time>2020-07-10T07:36:47Z</time>
      </trkpt>
      <trkpt lat="49.236634" lon="6.983937">
        <ele>236.0</ele>
        <time>2020-07-10T07:36:49Z</time>
      </trkpt>
      <trkpt lat="49.236627" lon="6.984129">
        <ele>236.0</ele>
        <time>2020-07-10T07:36:51Z</time>
      </trkpt>
      <trkpt lat="49.236623" lon="6.984314">
        <ele>235.0</ele>
        <time>2020-07-10T07:36:53Z</time>
      </trkpt>
      <trkpt lat="49.236617" lon="6.984504">
        <ele>236.0</ele>
        <time>2020-07-10T07:36:55Z</time>
      </trkpt>
      <trkpt lat="49.23661" lon="6.984689">
        <ele>235.0</ele>
        <time>2020-07-10T07:36:57Z</time>
      </trkpt>
      <trkpt lat="49.236602" lon="6.98487">
        <ele>235.0</ele>
        <time>2020-07-10T07:36:59Z</time>
      </trkpt>
      <trkpt lat="49.236596" lon="6.985128">
        <ele>235.0</ele>
        <time>2020-07-10T07:37:02Z</time>
      </trkpt>
      <trkpt lat="49.236594" lon="6.98521">
        <ele>235.0</ele>
        <time>2020-07-10T07:37:03Z</time>
      </trkpt>
      <trkpt lat="49.236597" lon="6.985452">
        <ele>235.0</ele>
        <time>2020-07-10T07:37:06Z</time>
      </trkpt>
      <trkpt lat="49.236596" lon="6.985706">
        <ele>234.0</ele>
        <time>2020-07-10T07:37:09Z</time>
      </trkpt>
      <trkpt lat="49.236586" lon="6.985873">
        <ele>234.0</ele>
        <time>2020-07-10T07:37:11Z</time>
      </trkpt>
      <trkpt lat="49.236586" lon="6.986028">
        <ele>233.0</ele>
        <time>2020-07-10T07:37:13Z</time>
      </trkpt>
      <trkpt lat="49.236588" lon="6.98627">
        <ele>232.0</ele>
        <time>2020-07-10T07:37:16Z</time>
      </trkpt>
      <trkpt lat="49.236587" lon="6.986433">
        <ele>232.0</ele>
        <time>2020-07-10T07:37:18Z</time>
      </trkpt>
      <trkpt lat="49.236586" lon="6.986587">
        <ele>232.0</ele>
        <time>2020-07-10T07:37:20Z</time>
      </trkpt>
      <trkpt lat="49.236589" lon="6.98675">
        <ele>231.0</ele>
        <time>2020-07-10T07:37:22Z</time>
      </trkpt>
      <trkpt lat="49.236593" lon="6.986919">
        <ele>231.0</ele>
        <time>2020-07-10T07:37:24Z</time>
      </trkpt>
      <trkpt lat="49.236589" lon="6.987093">
        <ele>231.0</ele>
        <time>2020-07-10T07:37:26Z</time>
      </trkpt>
      <trkpt lat="49.236576" lon="6.987273">
        <ele>232.0</ele>
        <time>2020-07-10T07:37:28Z</time>
      </trkpt>
      <trkpt lat="49.236562" lon="6.987454">
        <ele>233.0</ele>
        <time>2020-07-10T07:37:30Z</time>
      </trkpt>
      <trkpt lat="49.236551" lon="6.987626">
        <ele>234.0</ele>
        <time>2020-07-10T07:37:32Z</time>
      </trkpt>
      <trkpt lat="49.23655" lon="6.987794">
        <ele>234.0</ele>
        <time>2020-07-10T07:37:34Z</time>
      </trkpt>
      <trkpt lat="49.236545" lon="6.987952">
        <ele>235.0</ele>
        <time>2020-07-10T07:37:36Z</time>
      </trkpt>
      <trkpt lat="49.236533" lon="6.988198">
        <ele>236.0</ele>
        <time>2020-07-10T07:37:39Z</time>
      </trkpt>
      <trkpt lat="49.236525" lon="6.988376">
        <ele>236.0</ele>
        <time>2020-07-10T07:37:41Z</time>
      </trkpt>
      <trkpt lat="49.236515" lon="6.988549">
        <ele>236.0</ele>
        <time>2020-07-10T07:37:43Z</time>
      </trkpt>
      <trkpt lat="49.236512" lon="6.988636">
        <ele>236.0</ele>
        <time>2020-07-10T07:37:44Z</time>
      </trkpt>
      <trkpt lat="49.236503" lon="6.988899">
        <ele>237.0</ele>
        <time>2020-07-10T07:37:47Z</time>
      </trkpt>
      <trkpt lat="49.2365" lon="6.989158">
        <ele>237.0</ele>
        <time>2020-07-10T07:37:50Z</time>
      </trkpt>
      <trkpt lat="49.236486" lon="6.989327">
        <ele>237.0</ele>
        <time>2020-07-10T07:37:52Z</time>
      </trkpt>
      <trkpt lat="49.236456" lon="6.989592">
        <ele>237.0</ele>
        <time>2020-07-10T07:37:55Z</time>
      </trkpt>
      <trkpt lat="49.236424" lon="6.989763">
        <ele>237.0</ele>
        <time>2020-07-10T07:37:57Z</time>
      </trkpt>
      <trkpt lat="49.236399" lon="6.989915">
        <ele>237.0</ele>
        <time>2020-07-10T07:37:59Z</time>
      </trkpt>
      <trkpt lat="49.236385" lon="6.989996">
        <ele>237.0</ele>
        <time>2020-07-10T07:38:00Z</time>
      </trkpt>
      <trkpt lat="49.236248" lon="6.990334">
        <ele>236.0</ele>
        <time>2020-07-10T07:38:04Z</time>
      </trkpt>
      <trkpt lat="49.236167" lon="6.990489">
        <ele>235.0</ele>
        <time>2020-07-10T07:38:06Z</time>
      </trkpt>
      <trkpt lat="49.236048" lon="6.990719">
        <ele>236.0</ele>
        <time>2020-07-10T07:38:09Z</time>
      </trkpt>
      <trkpt lat="49.235967" lon="6.99085">
        <ele>236.0</ele>
        <time>2020-07-10T07:38:11Z</time>
      </trkpt>
      <trkpt lat="49.235883" lon="6.990962">
        <ele>237.0</ele>
        <time>2020-07-10T07:38:13Z</time>
      </trkpt>
      <trkpt lat="49.235805" lon="6.991071">
        <ele>236.0</ele>
        <time>2020-07-10T07:38:15Z</time>
      </trkpt>
      <trkpt lat="49.235727" lon="6.991165">
        <ele>236.0</ele>
        <time>2020-07-10T07:38:17Z</time>
      </trkpt>
      <trkpt lat="49.235641" lon="6.991264">
        <ele>235.0</ele>
        <time>2020-07-10T07:38:19Z</time>
      </trkpt>
      <trkpt lat="49.235566" lon="6.991314">
        <ele>235.0</ele>
        <time>2020-07-10T07:38:21Z</time>
      </trkpt>
      <trkpt lat="49.235485" lon="6.991367">
        <ele>236.0</ele>
        <time>2020-07-10T07:38:23Z</time>
      </trkpt>
      <trkpt lat="49.235417" lon="6.991403">
        <ele>237.0</ele>
        <time>2020-07-10T07:38:25Z</time>
      </trkpt>
      <trkpt lat="49.235381" lon="6.991422">
        <ele>237.0</ele>
        <time>2020-07-10T07:38:26Z</time>
      </trkpt>
      <trkpt lat="49.235266" lon="6.991497">
        <ele>238.0</ele>
        <time>2020-07-10T07:38:29Z</time>
      </trkpt>
      <trkpt lat="49.235212" lon="6.991528">
        <ele>238.0</ele>
        <time>2020-07-10T07:38:31Z</time>
      </trkpt>
      <trkpt lat="49.235172" lon="6.991539">
        <ele>238.0</ele>
        <time>2020-07-10T07:38:33Z</time>
      </trkpt>
      <trkpt lat="49.23514" lon="6.991552">
        <ele>238.0</ele>
        <time>2020-07-10T07:38:35Z</time>
      </trkpt>
      <trkpt lat="49.23506" lon="6.991558">
        <ele>238.0</ele>
        <time>2020-07-10T07:38:39Z</time>
      </trkpt>
      <trkpt lat="49.234961" lon="6.991595">
        <ele>238.0</ele>
        <time>2020-07-10T07:38:42Z</time>
      </trkpt>
      <trkpt lat="49.234879" lon="6.991608">
        <ele>239.0</ele>
        <time>2020-07-10T07:38:44Z</time>
      </trkpt>
      <trkpt lat="49.234795" lon="6.99163">
        <ele>240.0</ele>
        <time>2020-07-10T07:38:46Z</time>
      </trkpt>
      <trkpt lat="49.234715" lon="6.991667">
        <ele>241.0</ele>
        <time>2020-07-10T07:38:48Z</time>
      </trkpt>
      <trkpt lat="49.234624" lon="6.991708">
        <ele>242.0</ele>
        <time>2020-07-10T07:38:50Z</time>
      </trkpt>
      <trkpt lat="49.234525" lon="6.991725">
        <ele>242.0</ele>
        <time>2020-07-10T07:38:52Z</time>
      </trkpt>
      <trkpt lat="49.234429" lon="6.991743">
        <ele>241.0</ele>
        <time>2020-07-10T07:38:54Z</time>
      </trkpt>
      <trkpt lat="49.234327" lon="6.991764">
        <ele>241.0</ele>
        <time>2020-07-10T07:38:56Z</time>
      </trkpt>
      <trkpt lat="49.234219" lon="6.991776">
        <ele>240.0</ele>
        <time>2020-07-10T07:38:58Z</time>
      </trkpt>
      <trkpt lat="49.234115" lon="6.991787">
        <ele>239.0</ele>
        <time>2020-07-10T07:39:00Z</time>
      </trkpt>
      <trkpt lat="49.234015" lon="6.991795">
        <ele>239.0</ele>
        <time>2020-07-10T07:39:02Z</time>
      </trkpt>
      <trkpt lat="49.233914" lon="6.991824">
        <ele>239.0</ele>
        <time>2020-07-10T07:39:04Z</time>
      </trkpt>
      <trkpt lat="49.233862" lon="6.991841">
        <ele>238.0</ele>
        <time>2020-07-10T07:39:05Z</time>
      </trkpt>
      <trkpt lat="49.233711" lon="6.991894">
        <ele>238.0</ele>
        <time>2020-07-10T07:39:08Z</time>
      </trkpt>
      <trkpt lat="49.2336" lon="6.99193">
        <ele>239.0</ele>
        <time>2020-07-10T07:39:10Z</time>
      </trkpt>
      <trkpt lat="49.233401" lon="6.991981">
        <ele>238.0</ele>
        <time>2020-07-10T07:39:14Z</time>
      </trkpt>
      <trkpt lat="49.233317" lon="6.992014">
        <ele>238.0</ele>
        <time>2020-07-10T07:39:16Z</time>
      </trkpt>
      <trkpt lat="49.233205" lon="6.992044">
        <ele>237.0</ele>
        <time>2020-07-10T07:39:18Z</time>
      </trkpt>
      <trkpt lat="49.233108" lon="6.99208">
        <ele>237.0</ele>
        <time>2020-07-10T07:39:20Z</time>
      </trkpt>
      <trkpt lat="49.233012" lon="6.992132">
        <ele>237.0</ele>
        <time>2020-07-10T07:39:22Z</time>
      </trkpt>
      <trkpt lat="49.232961" lon="6.992153">
        <ele>237.0</ele>
        <time>2020-07-10T07:39:23Z</time>
      </trkpt>
      <trkpt lat="49.232816" lon="6.992222">
        <ele>237.0</ele>
        <time>2020-07-10T07:39:26Z</time>
      </trkpt>
      <trkpt lat="49.232719" lon="6.992273">
        <ele>237.0</ele>
        <time>2020-07-10T07:39:28Z</time>
      </trkpt>
      <trkpt lat="49.232627" lon="6.992343">
        <ele>237.0</ele>
        <time>2020-07-10T07:39:30Z</time>
      </trkpt>
      <trkpt lat="49.232523" lon="6.9924">
        <ele>236.0</ele>
        <time>2020-07-10T07:39:32Z</time>
      </trkpt>
      <trkpt lat="49.232422" lon="6.992451">
        <ele>236.0</ele>
        <time>2020-07-10T07:39:34Z</time>
      </trkpt>
      <trkpt lat="49.232321" lon="6.992507">
        <ele>236.0</ele>
        <time>2020-07-10T07:39:36Z</time>
      </trkpt>
      <trkpt lat="49.232222" lon="6.992558">
        <ele>237.0</ele>
        <time>2020-07-10T07:39:38Z</time>
      </trkpt>
      <trkpt lat="49.232121" lon="6.992623">
        <ele>236.0</ele>
        <time>2020-07-10T07:39:40Z</time>
      </trkpt>
      <trkpt lat="49.232018" lon="6.992676">
        <ele>236.0</ele>
        <time>2020-07-10T07:39:42Z</time>
      </trkpt>
      <trkpt lat="49.231916" lon="6.992726">
        <ele>236.0</ele>
        <time>2020-07-10T07:39:44Z</time>
      </trkpt>
      <trkpt lat="49.231822" lon="6.992782">
        <ele>236.0</ele>
        <time>2020-07-10T07:39:46Z</time>
      </trkpt>
      <trkpt lat="49.231722" lon="6.992836">
        <ele>236.0</ele>
        <time>2020-07-10T07:39:48Z</time>
      </trkpt>
      <trkpt lat="49.231627" lon="6.992895">
        <ele>236.0</ele>
        <time>2020-07-10T07:39:50Z</time>
      </trkpt>
      <trkpt lat="49.23153" lon="6.992948">
        <ele>237.0</ele>
        <time>2020-07-10T07:39:52Z</time>
      </trkpt>
      <trkpt lat="49.23144" lon="6.993013">
        <ele>237.0</ele>
        <time>2020-07-10T07:39:54Z</time>
      </trkpt>
      <trkpt lat="49.231337" lon="6.993059">
        <ele>237.0</ele>
        <time>2020-07-10T07:39:56Z</time>
      </trkpt>
      <trkpt lat="49.231242" lon="6.993092">
        <ele>237.0</ele>
        <time>2020-07-10T07:39:58Z</time>
      </trkpt>
      <trkpt lat="49.231152" lon="6.993157">
        <ele>237.0</ele>
        <time>2020-07-10T07:40:00Z</time>
      </trkpt>
      <trkpt lat="49.231058" lon="6.993212">
        <ele>237.0</ele>
        <time>2020-07-10T07:40:02Z</time>
      </trkpt>
      <trkpt lat="49.230972" lon="6.99327">
        <ele>238.0</ele>
        <time>2020-07-10T07:40:04Z</time>
      </trkpt>
      <trkpt lat="49.23093" lon="6.993292">
        <ele>237.0</ele>
        <time>2020-07-10T07:40:05Z</time>
      </trkpt>
      <trkpt lat="49.230807" lon="6.993404">
        <ele>237.0</ele>
        <time>2020-07-10T07:40:08Z</time>
      </trkpt>
      <trkpt lat="49.230717" lon="6.99349">
        <ele>237.0</ele>
        <time>2020-07-10T07:40:10Z</time>
      </trkpt>
      <trkpt lat="49.230625" lon="6.993579">
        <ele>237.0</ele>
        <time>2020-07-10T07:40:12Z</time>
      </trkpt>
      <trkpt lat="49.230545" lon="6.993693">
        <ele>237.0</ele>
        <time>2020-07-10T07:40:14Z</time>
      </trkpt>
      <trkpt lat="49.230459" lon="6.993805">
        <ele>237.0</ele>
        <time>2020-07-10T07:40:16Z</time>
      </trkpt>
      <trkpt lat="49.230378" lon="6.993924">
        <ele>237.0</ele>
        <time>2020-07-10T07:40:18Z</time>
      </trkpt>
      <trkpt lat="49.230291" lon="6.994043">
        <ele>237.0</ele>
        <time>2020-07-10T07:40:20Z</time>
      </trkpt>
      <trkpt lat="49.230212" lon="6.994159">
        <ele>236.0</ele>
        <time>2020-07-10T07:40:22Z</time>
      </trkpt>
      <trkpt lat="49.230139" lon="6.994293">
        <ele>236.0</ele>
        <time>2020-07-10T07:40:24Z</time>
      </trkpt>
      <trkpt lat="49.230069" lon="6.994433">
        <ele>237.0</ele>
        <time>2020-07-10T07:40:26Z</time>
      </trkpt>
      <trkpt lat="49.23" lon="6.994568">
        <ele>237.0</ele>
        <time>2020-07-10T07:40:28Z</time>
      </trkpt>
      <trkpt lat="49.229929" lon="6.994699">
        <ele>237.0</ele>
        <time>2020-07-10T07:40:30Z</time>
      </trkpt>
      <trkpt lat="49.229863" lon="6.994837">
        <ele>237.0</ele>
        <time>2020-07-10T07:40:32Z</time>
      </trkpt>
      <trkpt lat="49.229793" lon="6.994974">
        <ele>238.0</ele>
        <time>2020-07-10T07:40:34Z</time>
      </trkpt>
      <trkpt lat="49.229702" lon="6.995192">
        <ele>239.0</ele>
        <time>2020-07-10T07:40:37Z</time>
      </trkpt>
      <trkpt lat="49.229646" lon="6.995354">
        <ele>239.0</ele>
        <time>2020-07-10T07:40:39Z</time>
      </trkpt>
      <trkpt lat="49.229581" lon="6.995509">
        <ele>239.0</ele>
        <time>2020-07-10T07:40:41Z</time>
      </trkpt>
      <trkpt lat="49.229519" lon="6.995667">
        <ele>239.0</ele>
        <time>2020-07-10T07:40:43Z</time>
      </trkpt>
      <trkpt lat="49.229463" lon="6.995821">
        <ele>239.0</ele>
        <time>2020-07-10T07:40:45Z</time>
      </trkpt>
      <trkpt lat="49.229406" lon="6.995985">
        <ele>240.0</ele>
        <time>2020-07-10T07:40:47Z</time>
      </trkpt>
      <trkpt lat="49.229355" lon="6.996147">
        <ele>240.0</ele>
        <time>2020-07-10T07:40:49Z</time>
      </trkpt>
      <trkpt lat="49.229305" lon="6.996317">
        <ele>240.0</ele>
        <time>2020-07-10T07:40:51Z</time>
      </trkpt>
      <trkpt lat="49.229264" lon="6.996481">
        <ele>240.0</ele>
        <time>2020-07-10T07:40:53Z</time>
      </trkpt>
      <trkpt lat="49.229187" lon="6.99674">
        <ele>240.0</ele>
        <time>2020-07-10T07:40:56Z</time>
      </trkpt>
      <trkpt lat="49.229155" lon="6.996915">
        <ele>239.0</ele>
        <time>2020-07-10T07:40:58Z</time>
      </trkpt>
      <trkpt lat="49.229125" lon="6.997094">
        <ele>239.0</ele>
        <time>2020-07-10T07:41:00Z</time>
      </trkpt>
      <trkpt lat="49.229096" lon="6.997276">
        <ele>239.0</ele>
        <time>2020-07-10T07:41:02Z</time>
      </trkpt>
      <trkpt lat="49.229074" lon="6.997452">
        <ele>239.0</ele>
        <time>2020-07-10T07:41:04Z</time>
      </trkpt>
      <trkpt lat="49.229056" lon="6.99771">
        <ele>238.0</ele>
        <time>2020-07-10T07:41:07Z</time>
      </trkpt>
      <trkpt lat="49.229057" lon="6.997977">
        <ele>238.0</ele>
        <time>2020-07-10T07:41:10Z</time>
      </trkpt>
      <trkpt lat="49.229058" lon="6.99815">
        <ele>238.0</ele>
        <time>2020-07-10T07:41:12Z</time>
      </trkpt>
      <trkpt lat="49.229058" lon="6.998237">
        <ele>238.0</ele>
        <time>2020-07-10T07:41:13Z</time>
      </trkpt>
      <trkpt lat="49.22905" lon="6.998507">
        <ele>238.0</ele>
        <time>2020-07-10T07:41:16Z</time>
      </trkpt>
      <trkpt lat="49.229048" lon="6.998681">
        <ele>238.0</ele>
        <time>2020-07-10T07:41:18Z</time>
      </trkpt>
      <trkpt lat="49.229049" lon="6.998862">
        <ele>238.0</ele>
        <time>2020-07-10T07:41:20Z</time>
      </trkpt>
      <trkpt lat="49.22905" lon="6.999043">
        <ele>238.0</ele>
        <time>2020-07-10T07:41:22Z</time>
      </trkpt>
      <trkpt lat="49.229049" lon="6.999226">
        <ele>239.0</ele>
        <time>2020-07-10T07:41:24Z</time>
      </trkpt>
      <trkpt lat="49.22905" lon="6.999405">
        <ele>239.0</ele>
        <time>2020-07-10T07:41:26Z</time>
      </trkpt>
      <trkpt lat="49.229054" lon="6.999577">
        <ele>239.0</ele>
        <time>2020-07-10T07:41:28Z</time>
      </trkpt>
      <trkpt lat="49.22905" lon="6.999752">
        <ele>238.0</ele>
        <time>2020-07-10T07:41:30Z</time>
      </trkpt>
      <trkpt lat="49.229035" lon="7.000024">
        <ele>237.0</ele>
        <time>2020-07-10T07:41:33Z</time>
      </trkpt>
      <trkpt lat="49.229024" lon="7.0002">
        <ele>236.0</ele>
        <time>2020-07-10T07:41:35Z</time>
      </trkpt>
      <trkpt lat="49.229008" lon="7.000385">
        <ele>236.0</ele>
        <time>2020-07-10T07:41:37Z</time>
      </trkpt>
      <trkpt lat="49.229" lon="7.000551">
        <ele>235.0</ele>
        <time>2020-07-10T07:41:39Z</time>
      </trkpt>
      <trkpt lat="49.228993" lon="7.000726">
        <ele>235.0</ele>
        <time>2020-07-10T07:41:41Z</time>
      </trkpt>
      <trkpt lat="49.228989" lon="7.000822">
        <ele>234.0</ele>
        <time>2020-07-10T07:41:42Z</time>
      </trkpt>
      <trkpt lat="49.228973" lon="7.00119">
        <ele>236.0</ele>
        <time>2020-07-10T07:41:46Z</time>
      </trkpt>
      <trkpt lat="49.228959" lon="7.001388">
        <ele>236.0</ele>
        <time>2020-07-10T07:41:48Z</time>
      </trkpt>
      <trkpt lat="49.228931" lon="7.001581">
        <ele>236.0</ele>
        <time>2020-07-10T07:41:50Z</time>
      </trkpt>
      <trkpt lat="49.228897" lon="7.001776">
        <ele>236.0</ele>
        <time>2020-07-10T07:41:52Z</time>
      </trkpt>
      <trkpt lat="49.22885" lon="7.001943">
        <ele>236.0</ele>
        <time>2020-07-10T07:41:54Z</time>
      </trkpt>
      <trkpt lat="49.228792" lon="7.00211">
        <ele>235.0</ele>
        <time>2020-07-10T07:41:56Z</time>
      </trkpt>
      <trkpt lat="49.228721" lon="7.002327">
        <ele>235.0</ele>
        <time>2020-07-10T07:41:59Z</time>
      </trkpt>
      <trkpt lat="49.228695" lon="7.002396">
        <ele>235.0</ele>
        <time>2020-07-10T07:42:00Z</time>
      </trkpt>
      <trkpt lat="49.228599" lon="7.002611">
        <ele>235.0</ele>
        <time>2020-07-10T07:42:03Z</time>
      </trkpt>
      <trkpt lat="49.228521" lon="7.002728">
        <ele>235.0</ele>
        <time>2020-07-10T07:42:05Z</time>
      </trkpt>
      <trkpt lat="49.22843" lon="7.002824">
        <ele>234.0</ele>
        <time>2020-07-10T07:42:07Z</time>
      </trkpt>
      <trkpt lat="49.228274" lon="7.002885">
        <ele>234.0</ele>
        <time>2020-07-10T07:42:10Z</time>
      </trkpt>
      <trkpt lat="49.228165" lon="7.002923">
        <ele>234.0</ele>
        <time>2020-07-10T07:42:12Z</time>
      </trkpt>
      <trkpt lat="49.228046" lon="7.002942">
        <ele>235.0</ele>
        <time>2020-07-10T07:42:14Z</time>
      </trkpt>
      <trkpt lat="49.227934" lon="7.002975">
        <ele>234.0</ele>
        <time>2020-07-10T07:42:16Z</time>
      </trkpt>
      <trkpt lat="49.227877" lon="7.002999">
        <ele>234.0</ele>
        <time>2020-07-10T07:42:17Z</time>
      </trkpt>
      <trkpt lat="49.227706" lon="7.003071">
        <ele>234.0</ele>
        <time>2020-07-10T07:42:20Z</time>
      </trkpt>
      <trkpt lat="49.227598" lon="7.003132">
        <ele>234.0</ele>
        <time>2020-07-10T07:42:22Z</time>
      </trkpt>
      <trkpt lat="49.227481" lon="7.003182">
        <ele>234.0</ele>
        <time>2020-07-10T07:42:24Z</time>
      </trkpt>
      <trkpt lat="49.227309" lon="7.003245">
        <ele>234.0</ele>
        <time>2020-07-10T07:42:27Z</time>
      </trkpt>
      <trkpt lat="49.227193" lon="7.003295">
        <ele>234.0</ele>
        <time>2020-07-10T07:42:29Z</time>
      </trkpt>
      <trkpt lat="49.227072" lon="7.003354">
        <ele>235.0</ele>
        <time>2020-07-10T07:42:31Z</time>
      </trkpt>
      <trkpt lat="49.22696" lon="7.003402">
        <ele>235.0</ele>
        <time>2020-07-10T07:42:33Z</time>
      </trkpt>
      <trkpt lat="49.22686" lon="7.00344">
        <ele>236.0</ele>
        <time>2020-07-10T07:42:35Z</time>
      </trkpt>
      <trkpt lat="49.226759" lon="7.003507">
        <ele>238.0</ele>
        <time>2020-07-10T07:42:37Z</time>
      </trkpt>
      <trkpt lat="49.226649" lon="7.003588">
        <ele>238.0</ele>
        <time>2020-07-10T07:42:39Z</time>
      </trkpt>
      <trkpt lat="49.226548" lon="7.003678">
        <ele>237.0</ele>
        <time>2020-07-10T07:42:41Z</time>
      </trkpt>
      <trkpt lat="49.226402" lon="7.003817">
        <ele>237.0</ele>
        <time>2020-07-10T07:42:44Z</time>
      </trkpt>
      <trkpt lat="49.226307" lon="7.003923">
        <ele>237.0</ele>
        <time>2020-07-10T07:42:46Z</time>
      </trkpt>
      <trkpt lat="49.226215" lon="7.004031">
        <ele>237.0</ele>
        <time>2020-07-10T07:42:48Z</time>
      </trkpt>
      <trkpt lat="49.226128" lon="7.004154">
        <ele>237.0</ele>
        <time>2020-07-10T07:42:50Z</time>
      </trkpt>
      <trkpt lat="49.226049" lon="7.004272">
        <ele>237.0</ele>
        <time>2020-07-10T07:42:52Z</time>
      </trkpt>
      <trkpt lat="49.225925" lon="7.004456">
        <ele>236.0</ele>
        <time>2020-07-10T07:42:55Z</time>
      </trkpt>
      <trkpt lat="49.225848" lon="7.004582">
        <ele>236.0</ele>
        <time>2020-07-10T07:42:57Z</time>
      </trkpt>
      <trkpt lat="49.225767" lon="7.004716">
        <ele>236.0</ele>
        <time>2020-07-10T07:42:59Z</time>
      </trkpt>
      <trkpt lat="49.225653" lon="7.004911">
        <ele>236.0</ele>
        <time>2020-07-10T07:43:02Z</time>
      </trkpt>
      <trkpt lat="49.225584" lon="7.005048">
        <ele>236.0</ele>
        <time>2020-07-10T07:43:04Z</time>
      </trkpt>
      <trkpt lat="49.225513" lon="7.005178">
        <ele>236.0</ele>
        <time>2020-07-10T07:43:06Z</time>
      </trkpt>
      <trkpt lat="49.225446" lon="7.00532">
        <ele>236.0</ele>
        <time>2020-07-10T07:43:08Z</time>
      </trkpt>
      <trkpt lat="49.225379" lon="7.005463">
        <ele>236.0</ele>
        <time>2020-07-10T07:43:10Z</time>
      </trkpt>
      <trkpt lat="49.225316" lon="7.005612">
        <ele>236.0</ele>
        <time>2020-07-10T07:43:12Z</time>
      </trkpt>
      <trkpt lat="49.225256" lon="7.005756">
        <ele>236.0</ele>
        <time>2020-07-10T07:43:14Z</time>
      </trkpt>
      <trkpt lat="49.225205" lon="7.005906">
        <ele>236.0</ele>
        <time>2020-07-10T07:43:16Z</time>
      </trkpt>
      <trkpt lat="49.225148" lon="7.006058">
        <ele>236.0</ele>
        <time>2020-07-10T07:43:18Z</time>
      </trkpt>
      <trkpt lat="49.225092" lon="7.006215">
        <ele>236.0</ele>
        <time>2020-07-10T07:43:20Z</time>
      </trkpt>
      <trkpt lat="49.225033" lon="7.006378">
        <ele>236.0</ele>
        <time>2020-07-10T07:43:22Z</time>
      </trkpt>
      <trkpt lat="49.224975" lon="7.006532">
        <ele>236.0</ele>
        <time>2020-07-10T07:43:24Z</time>
      </trkpt>
      <trkpt lat="49.224915" lon="7.006687">
        <ele>236.0</ele>
        <time>2020-07-10T07:43:26Z</time>
      </trkpt>
      <trkpt lat="49.22486" lon="7.006833">
        <ele>236.0</ele>
        <time>2020-07-10T07:43:28Z</time>
      </trkpt>
      <trkpt lat="49.224813" lon="7.006979">
        <ele>236.0</ele>
        <time>2020-07-10T07:43:30Z</time>
      </trkpt>
      <trkpt lat="49.22478" lon="7.007107">
        <ele>236.0</ele>
        <time>2020-07-10T07:43:32Z</time>
      </trkpt>
      <trkpt lat="49.22475" lon="7.007236">
        <ele>235.0</ele>
        <time>2020-07-10T07:43:34Z</time>
      </trkpt>
      <trkpt lat="49.224729" lon="7.007405">
        <ele>234.0</ele>
        <time>2020-07-10T07:43:36Z</time>
      </trkpt>
      <trkpt lat="49.22468" lon="7.007576">
        <ele>234.0</ele>
        <time>2020-07-10T07:43:38Z</time>
      </trkpt>
      <trkpt lat="49.224646" lon="7.00774">
        <ele>234.0</ele>
        <time>2020-07-10T07:43:40Z</time>
      </trkpt>
      <trkpt lat="49.224602" lon="7.007914">
        <ele>234.0</ele>
        <time>2020-07-10T07:43:42Z</time>
      </trkpt>
      <trkpt lat="49.224561" lon="7.008091">
        <ele>234.0</ele>
        <time>2020-07-10T07:43:44Z</time>
      </trkpt>
      <trkpt lat="49.224518" lon="7.00825">
        <ele>234.0</ele>
        <time>2020-07-10T07:43:46Z</time>
      </trkpt>
      <trkpt lat="49.224476" lon="7.008404">
        <ele>234.0</ele>
        <time>2020-07-10T07:43:48Z</time>
      </trkpt>
      <trkpt lat="49.224412" lon="7.008648">
        <ele>235.0</ele>
        <time>2020-07-10T07:43:51Z</time>
      </trkpt>
      <trkpt lat="49.224363" lon="7.0088">
        <ele>235.0</ele>
        <time>2020-07-10T07:43:53Z</time>
      </trkpt>
      <trkpt lat="49.22433" lon="7.008877">
        <ele>235.0</ele>
        <time>2020-07-10T07:43:54Z</time>
      </trkpt>
      <trkpt lat="49.224217" lon="7.009173">
        <ele>235.0</ele>
        <time>2020-07-10T07:43:58Z</time>
      </trkpt>
      <trkpt lat="49.224166" lon="7.009325">
        <ele>235.0</ele>
        <time>2020-07-10T07:44:00Z</time>
      </trkpt>
      <trkpt lat="49.224147" lon="7.009404">
        <ele>235.0</ele>
        <time>2020-07-10T07:44:01Z</time>
      </trkpt>
      <trkpt lat="49.224096" lon="7.009636">
        <ele>235.0</ele>
        <time>2020-07-10T07:44:04Z</time>
      </trkpt>
      <trkpt lat="49.224041" lon="7.009885">
        <ele>235.0</ele>
        <time>2020-07-10T07:44:07Z</time>
      </trkpt>
      <trkpt lat="49.224023" lon="7.009965">
        <ele>235.0</ele>
        <time>2020-07-10T07:44:08Z</time>
      </trkpt>
      <trkpt lat="49.223966" lon="7.010222">
        <ele>235.0</ele>
        <time>2020-07-10T07:44:11Z</time>
      </trkpt>
      <trkpt lat="49.223928" lon="7.010386">
        <ele>235.0</ele>
        <time>2020-07-10T07:44:13Z</time>
      </trkpt>
      <trkpt lat="49.223888" lon="7.010547">
        <ele>235.0</ele>
        <time>2020-07-10T07:44:15Z</time>
      </trkpt>
      <trkpt lat="49.223849" lon="7.010721">
        <ele>235.0</ele>
        <time>2020-07-10T07:44:17Z</time>
      </trkpt>
      <trkpt lat="49.223799" lon="7.010967">
        <ele>235.0</ele>
        <time>2020-07-10T07:44:20Z</time>
      </trkpt>
      <trkpt lat="49.223765" lon="7.01114">
        <ele>235.0</ele>
        <time>2020-07-10T07:44:22Z</time>
      </trkpt>
      <trkpt lat="49.223744" lon="7.011225">
        <ele>235.0</ele>
        <time>2020-07-10T07:44:23Z</time>
      </trkpt>
      <trkpt lat="49.223686" lon="7.011465">
        <ele>235.0</ele>
        <time>2020-07-10T07:44:26Z</time>
      </trkpt>
      <trkpt lat="49.223642" lon="7.011615">
        <ele>235.0</ele>
        <time>2020-07-10T07:44:28Z</time>
      </trkpt>
      <trkpt lat="49.223595" lon="7.011776">
        <ele>235.0</ele>
        <time>2020-07-10T07:44:30Z</time>
      </trkpt>
      <trkpt lat="49.223557" lon="7.011932">
        <ele>235.0</ele>
        <time>2020-07-10T07:44:32Z</time>
      </trkpt>
      <trkpt lat="49.223506" lon="7.012094">
        <ele>235.0</ele>
        <time>2020-07-10T07:44:34Z</time>
      </trkpt>
      <trkpt lat="49.223457" lon="7.012253">
        <ele>235.0</ele>
        <time>2020-07-10T07:44:36Z</time>
      </trkpt>
      <trkpt lat="49.223405" lon="7.012401">
        <ele>235.0</ele>
        <time>2020-07-10T07:44:38Z</time>
      </trkpt>
      <trkpt lat="49.22338" lon="7.012473">
        <ele>235.0</ele>
        <time>2020-07-10T07:44:39Z</time>
      </trkpt>
      <trkpt lat="49.223294" lon="7.012699">
        <ele>235.0</ele>
        <time>2020-07-10T07:44:42Z</time>
      </trkpt>
      <trkpt lat="49.223245" lon="7.012863">
        <ele>235.0</ele>
        <time>2020-07-10T07:44:44Z</time>
      </trkpt>
      <trkpt lat="49.22318" lon="7.013034">
        <ele>235.0</ele>
        <time>2020-07-10T07:44:46Z</time>
      </trkpt>
      <trkpt lat="49.223132" lon="7.013176">
        <ele>235.0</ele>
        <time>2020-07-10T07:44:48Z</time>
      </trkpt>
      <trkpt lat="49.223085" lon="7.013314">
        <ele>234.0</ele>
        <time>2020-07-10T07:44:50Z</time>
      </trkpt>
      <trkpt lat="49.22304" lon="7.013442">
        <ele>235.0</ele>
        <time>2020-07-10T07:44:52Z</time>
      </trkpt>
      <trkpt lat="49.222979" lon="7.013582">
        <ele>235.0</ele>
        <time>2020-07-10T07:44:54Z</time>
      </trkpt>
      <trkpt lat="49.222918" lon="7.013745">
        <ele>235.0</ele>
        <time>2020-07-10T07:44:56Z</time>
      </trkpt>
      <trkpt lat="49.222862" lon="7.013897">
        <ele>237.0</ele>
        <time>2020-07-10T07:44:58Z</time>
      </trkpt>
      <trkpt lat="49.222775" lon="7.014108">
        <ele>237.0</ele>
        <time>2020-07-10T07:45:01Z</time>
      </trkpt>
      <trkpt lat="49.222709" lon="7.014252">
        <ele>237.0</ele>
        <time>2020-07-10T07:45:03Z</time>
      </trkpt>
      <trkpt lat="49.222628" lon="7.014395">
        <ele>237.0</ele>
        <time>2020-07-10T07:45:05Z</time>
      </trkpt>
      <trkpt lat="49.222548" lon="7.014533">
        <ele>236.0</ele>
        <time>2020-07-10T07:45:07Z</time>
      </trkpt>
      <trkpt lat="49.222479" lon="7.014674">
        <ele>236.0</ele>
        <time>2020-07-10T07:45:09Z</time>
      </trkpt>
      <trkpt lat="49.222413" lon="7.014816">
        <ele>236.0</ele>
        <time>2020-07-10T07:45:11Z</time>
      </trkpt>
      <trkpt lat="49.222346" lon="7.014955">
        <ele>236.0</ele>
        <time>2020-07-10T07:45:13Z</time>
      </trkpt>
      <trkpt lat="49.222277" lon="7.015101">
        <ele>236.0</ele>
        <time>2020-07-10T07:45:15Z</time>
      </trkpt>
      <trkpt lat="49.22217" lon="7.01531">
        <ele>235.0</ele>
        <time>2020-07-10T07:45:18Z</time>
      </trkpt>
      <trkpt lat="49.222106" lon="7.015444">
        <ele>236.0</ele>
        <time>2020-07-10T07:45:20Z</time>
      </trkpt>
      <trkpt lat="49.222043" lon="7.015574">
        <ele>235.0</ele>
        <time>2020-07-10T07:45:22Z</time>
      </trkpt>
      <trkpt lat="49.221976" lon="7.015696">
        <ele>235.0</ele>
        <time>2020-07-10T07:45:24Z</time>
      </trkpt>
      <trkpt lat="49.221937" lon="7.015764">
        <ele>235.0</ele>
        <time>2020-07-10T07:45:25Z</time>
      </trkpt>
      <trkpt lat="49.221777" lon="7.016049">
        <ele>235.0</ele>
        <time>2020-07-10T07:45:29Z</time>
      </trkpt>
      <trkpt lat="49.221698" lon="7.016185">
        <ele>235.0</ele>
        <time>2020-07-10T07:45:31Z</time>
      </trkpt>
      <trkpt lat="49.221662" lon="7.016254">
        <ele>235.0</ele>
        <time>2020-07-10T07:45:32Z</time>
      </trkpt>
      <trkpt lat="49.221546" lon="7.016452">
        <ele>235.0</ele>
        <time>2020-07-10T07:45:35Z</time>
      </trkpt>
      <trkpt lat="49.221438" lon="7.016665">
        <ele>235.0</ele>
        <time>2020-07-10T07:45:38Z</time>
      </trkpt>
      <trkpt lat="49.221372" lon="7.016814">
        <ele>234.0</ele>
        <time>2020-07-10T07:45:40Z</time>
      </trkpt>
      <trkpt lat="49.221311" lon="7.016982">
        <ele>235.0</ele>
        <time>2020-07-10T07:45:42Z</time>
      </trkpt>
      <trkpt lat="49.221251" lon="7.017145">
        <ele>234.0</ele>
        <time>2020-07-10T07:45:44Z</time>
      </trkpt>
      <trkpt lat="49.221192" lon="7.017282">
        <ele>235.0</ele>
        <time>2020-07-10T07:45:46Z</time>
      </trkpt>
      <trkpt lat="49.221114" lon="7.017421">
        <ele>234.0</ele>
        <time>2020-07-10T07:45:48Z</time>
      </trkpt>
      <trkpt lat="49.221073" lon="7.017481">
        <ele>234.0</ele>
        <time>2020-07-10T07:45:49Z</time>
      </trkpt>
      <trkpt lat="49.220967" lon="7.017568">
        <ele>235.0</ele>
        <time>2020-07-10T07:45:51Z</time>
      </trkpt>
      <trkpt lat="49.220789" lon="7.017692">
        <ele>235.0</ele>
        <time>2020-07-10T07:45:54Z</time>
      </trkpt>
      <trkpt lat="49.220638" lon="7.017823">
        <ele>236.0</ele>
        <time>2020-07-10T07:45:57Z</time>
      </trkpt>
      <trkpt lat="49.220545" lon="7.017923">
        <ele>235.0</ele>
        <time>2020-07-10T07:45:59Z</time>
      </trkpt>
      <trkpt lat="49.220458" lon="7.018028">
        <ele>236.0</ele>
        <time>2020-07-10T07:46:01Z</time>
      </trkpt>
      <trkpt lat="49.220361" lon="7.018131">
        <ele>235.0</ele>
        <time>2020-07-10T07:46:03Z</time>
      </trkpt>
      <trkpt lat="49.220264" lon="7.018246">
        <ele>236.0</ele>
        <time>2020-07-10T07:46:05Z</time>
      </trkpt>
      <trkpt lat="49.220175" lon="7.018352">
        <ele>236.0</ele>
        <time>2020-07-10T07:46:07Z</time>
      </trkpt>
      <trkpt lat="49.220029" lon="7.018518">
        <ele>236.0</ele>
        <time>2020-07-10T07:46:10Z</time>
      </trkpt>
      <trkpt lat="49.219933" lon="7.018613">
        <ele>237.0</ele>
        <time>2020-07-10T07:46:12Z</time>
      </trkpt>
      <trkpt lat="49.219846" lon="7.018716">
        <ele>237.0</ele>
        <time>2020-07-10T07:46:14Z</time>
      </trkpt>
      <trkpt lat="49.219753" lon="7.01882">
        <ele>237.0</ele>
        <time>2020-07-10T07:46:16Z</time>
      </trkpt>
      <trkpt lat="49.219663" lon="7.018926">
        <ele>236.0</ele>
        <time>2020-07-10T07:46:18Z</time>
      </trkpt>
      <trkpt lat="49.219557" lon="7.01901">
        <ele>236.0</ele>
        <time>2020-07-10T07:46:20Z</time>
      </trkpt>
      <trkpt lat="49.219456" lon="7.019098">
        <ele>236.0</ele>
        <time>2020-07-10T07:46:22Z</time>
      </trkpt>
      <trkpt lat="49.219358" lon="7.019189">
        <ele>236.0</ele>
        <time>2020-07-10T07:46:24Z</time>
      </trkpt>
      <trkpt lat="49.219261" lon="7.019276">
        <ele>236.0</ele>
        <time>2020-07-10T07:46:26Z</time>
      </trkpt>
      <trkpt lat="49.219167" lon="7.019359">
        <ele>237.0</ele>
        <time>2020-07-10T07:46:28Z</time>
      </trkpt>
      <trkpt lat="49.219012" lon="7.019472">
        <ele>237.0</ele>
        <time>2020-07-10T07:46:31Z</time>
      </trkpt>
      <trkpt lat="49.218904" lon="7.019547">
        <ele>236.0</ele>
        <time>2020-07-10T07:46:33Z</time>
      </trkpt>
      <trkpt lat="49.218758" lon="7.019671">
        <ele>237.0</ele>
        <time>2020-07-10T07:46:36Z</time>
      </trkpt>
      <trkpt lat="49.218657" lon="7.019746">
        <ele>237.0</ele>
        <time>2020-07-10T07:46:38Z</time>
      </trkpt>
      <trkpt lat="49.218554" lon="7.01982">
        <ele>236.0</ele>
        <time>2020-07-10T07:46:40Z</time>
      </trkpt>
      <trkpt lat="49.218406" lon="7.019922">
        <ele>237.0</ele>
        <time>2020-07-10T07:46:43Z</time>
      </trkpt>
      <trkpt lat="49.218299" lon="7.020001">
        <ele>236.0</ele>
        <time>2020-07-10T07:46:45Z</time>
      </trkpt>
      <trkpt lat="49.218199" lon="7.020062">
        <ele>237.0</ele>
        <time>2020-07-10T07:46:47Z</time>
      </trkpt>
      <trkpt lat="49.218096" lon="7.020127">
        <ele>237.0</ele>
        <time>2020-07-10T07:46:49Z</time>
      </trkpt>
      <trkpt lat="49.217991" lon="7.020182">
        <ele>237.0</ele>
        <time>2020-07-10T07:46:51Z</time>
      </trkpt>
      <trkpt lat="49.217888" lon="7.020239">
        <ele>236.0</ele>
        <time>2020-07-10T07:46:53Z</time>
      </trkpt>
      <trkpt lat="49.217779" lon="7.0203">
        <ele>236.0</ele>
        <time>2020-07-10T07:46:55Z</time>
      </trkpt>
      <trkpt lat="49.217613" lon="7.020401">
        <ele>236.0</ele>
        <time>2020-07-10T07:46:58Z</time>
      </trkpt>
      <trkpt lat="49.217503" lon="7.020461">
        <ele>236.0</ele>
        <time>2020-07-10T07:47:00Z</time>
      </trkpt>
      <trkpt lat="49.217385" lon="7.020522">
        <ele>237.0</ele>
        <time>2020-07-10T07:47:02Z</time>
      </trkpt>
      <trkpt lat="49.217271" lon="7.020591">
        <ele>237.0</ele>
        <time>2020-07-10T07:47:04Z</time>
      </trkpt>
      <trkpt lat="49.217156" lon="7.020664">
        <ele>237.0</ele>
        <time>2020-07-10T07:47:06Z</time>
      </trkpt>
      <trkpt lat="49.217042" lon="7.020719">
        <ele>237.0</ele>
        <time>2020-07-10T07:47:08Z</time>
      </trkpt>
      <trkpt lat="49.216987" lon="7.020753">
        <ele>237.0</ele>
        <time>2020-07-10T07:47:09Z</time>
      </trkpt>
      <trkpt lat="49.216822" lon="7.020847">
        <ele>239.0</ele>
        <time>2020-07-10T07:47:12Z</time>
      </trkpt>
      <trkpt lat="49.216705" lon="7.020895">
        <ele>238.0</ele>
        <time>2020-07-10T07:47:14Z</time>
      </trkpt>
      <trkpt lat="49.216536" lon="7.020963">
        <ele>238.0</ele>
        <time>2020-07-10T07:47:17Z</time>
      </trkpt>
      <trkpt lat="49.216429" lon="7.021016">
        <ele>238.0</ele>
        <time>2020-07-10T07:47:19Z</time>
      </trkpt>
      <trkpt lat="49.216272" lon="7.021082">
        <ele>238.0</ele>
        <time>2020-07-10T07:47:22Z</time>
      </trkpt>
      <trkpt lat="49.216173" lon="7.021115">
        <ele>238.0</ele>
        <time>2020-07-10T07:47:24Z</time>
      </trkpt>
      <trkpt lat="49.216076" lon="7.021152">
        <ele>238.0</ele>
        <time>2020-07-10T07:47:26Z</time>
      </trkpt>
      <trkpt lat="49.215925" lon="7.021232">
        <ele>238.0</ele>
        <time>2020-07-10T07:47:29Z</time>
      </trkpt>
      <trkpt lat="49.215823" lon="7.02127">
        <ele>238.0</ele>
        <time>2020-07-10T07:47:31Z</time>
      </trkpt>
      <trkpt lat="49.21572" lon="7.021325">
        <ele>238.0</ele>
        <time>2020-07-10T07:47:33Z</time>
      </trkpt>
      <trkpt lat="49.215557" lon="7.021406">
        <ele>238.0</ele>
        <time>2020-07-10T07:47:36Z</time>
      </trkpt>
      <trkpt lat="49.215441" lon="7.02148">
        <ele>238.0</ele>
        <time>2020-07-10T07:47:38Z</time>
      </trkpt>
      <trkpt lat="49.215327" lon="7.021534">
        <ele>238.0</ele>
        <time>2020-07-10T07:47:40Z</time>
      </trkpt>
      <trkpt lat="49.215217" lon="7.021601">
        <ele>238.0</ele>
        <time>2020-07-10T07:47:42Z</time>
      </trkpt>
      <trkpt lat="49.215057" lon="7.021691">
        <ele>238.0</ele>
        <time>2020-07-10T07:47:45Z</time>
      </trkpt>
      <trkpt lat="49.215001" lon="7.021724">
        <ele>238.0</ele>
        <time>2020-07-10T07:47:46Z</time>
      </trkpt>
      <trkpt lat="49.214841" lon="7.0218">
        <ele>238.0</ele>
        <time>2020-07-10T07:47:49Z</time>
      </trkpt>
      <trkpt lat="49.214737" lon="7.021847">
        <ele>239.0</ele>
        <time>2020-07-10T07:47:51Z</time>
      </trkpt>
      <trkpt lat="49.214578" lon="7.021924">
        <ele>239.0</ele>
        <time>2020-07-10T07:47:54Z</time>
      </trkpt>
      <trkpt lat="49.214526" lon="7.021951">
        <ele>239.0</ele>
        <time>2020-07-10T07:47:55Z</time>
      </trkpt>
      <trkpt lat="49.214422" lon="7.02201">
        <ele>239.0</ele>
        <time>2020-07-10T07:47:57Z</time>
      </trkpt>
      <trkpt lat="49.214269" lon="7.022081">
        <ele>239.0</ele>
        <time>2020-07-10T07:48:00Z</time>
      </trkpt>
      <trkpt lat="49.214163" lon="7.022109">
        <ele>239.0</ele>
        <time>2020-07-10T07:48:02Z</time>
      </trkpt>
      <trkpt lat="49.214065" lon="7.022157">
        <ele>239.0</ele>
        <time>2020-07-10T07:48:04Z</time>
      </trkpt>
      <trkpt lat="49.213948" lon="7.022211">
        <ele>238.0</ele>
        <time>2020-07-10T07:48:06Z</time>
      </trkpt>
      <trkpt lat="49.213829" lon="7.02226">
        <ele>237.0</ele>
        <time>2020-07-10T07:48:08Z</time>
      </trkpt>
      <trkpt lat="49.213716" lon="7.02231">
        <ele>237.0</ele>
        <time>2020-07-10T07:48:10Z</time>
      </trkpt>
      <trkpt lat="49.213618" lon="7.022376">
        <ele>237.0</ele>
        <time>2020-07-10T07:48:12Z</time>
      </trkpt>
      <trkpt lat="49.213514" lon="7.022442">
        <ele>236.0</ele>
        <time>2020-07-10T07:48:14Z</time>
      </trkpt>
      <trkpt lat="49.213401" lon="7.022482">
        <ele>236.0</ele>
        <time>2020-07-10T07:48:16Z</time>
      </trkpt>
      <trkpt lat="49.213289" lon="7.022525">
        <ele>236.0</ele>
        <time>2020-07-10T07:48:18Z</time>
      </trkpt>
      <trkpt lat="49.213185" lon="7.022558">
        <ele>235.0</ele>
        <time>2020-07-10T07:48:20Z</time>
      </trkpt>
      <trkpt lat="49.21308" lon="7.022603">
        <ele>236.0</ele>
        <time>2020-07-10T07:48:22Z</time>
      </trkpt>
      <trkpt lat="49.212973" lon="7.022651">
        <ele>236.0</ele>
        <time>2020-07-10T07:48:24Z</time>
      </trkpt>
      <trkpt lat="49.212864" lon="7.022675">
        <ele>237.0</ele>
        <time>2020-07-10T07:48:26Z</time>
      </trkpt>
      <trkpt lat="49.212743" lon="7.022696">
        <ele>237.0</ele>
        <time>2020-07-10T07:48:28Z</time>
      </trkpt>
      <trkpt lat="49.212633" lon="7.0227">
        <ele>237.0</ele>
        <time>2020-07-10T07:48:30Z</time>
      </trkpt>
      <trkpt lat="49.212528" lon="7.022705">
        <ele>237.0</ele>
        <time>2020-07-10T07:48:32Z</time>
      </trkpt>
      <trkpt lat="49.212418" lon="7.022682">
        <ele>237.0</ele>
        <time>2020-07-10T07:48:34Z</time>
      </trkpt>
      <trkpt lat="49.212256" lon="7.022673">
        <ele>237.0</ele>
        <time>2020-07-10T07:48:37Z</time>
      </trkpt>
      <trkpt lat="49.212146" lon="7.022663">
        <ele>237.0</ele>
        <time>2020-07-10T07:48:39Z</time>
      </trkpt>
      <trkpt lat="49.212038" lon="7.022648">
        <ele>237.0</ele>
        <time>2020-07-10T07:48:41Z</time>
      </trkpt>
      <trkpt lat="49.211926" lon="7.022632">
        <ele>237.0</ele>
        <time>2020-07-10T07:48:43Z</time>
      </trkpt>
      <trkpt lat="49.211815" lon="7.022609">
        <ele>238.0</ele>
        <time>2020-07-10T07:48:45Z</time>
      </trkpt>
      <trkpt lat="49.211701" lon="7.022586">
        <ele>237.0</ele>
        <time>2020-07-10T07:48:47Z</time>
      </trkpt>
      <trkpt lat="49.211593" lon="7.022556">
        <ele>237.0</ele>
        <time>2020-07-10T07:48:49Z</time>
      </trkpt>
      <trkpt lat="49.211446" lon="7.022479">
        <ele>237.0</ele>
        <time>2020-07-10T07:48:52Z</time>
      </trkpt>
      <trkpt lat="49.211393" lon="7.022453">
        <ele>238.0</ele>
        <time>2020-07-10T07:48:53Z</time>
      </trkpt>
      <trkpt lat="49.211177" lon="7.022367">
        <ele>238.0</ele>
        <time>2020-07-10T07:48:57Z</time>
      </trkpt>
      <trkpt lat="49.211064" lon="7.022361">
        <ele>238.0</ele>
        <time>2020-07-10T07:48:59Z</time>
      </trkpt>
      <trkpt lat="49.211006" lon="7.02238">
        <ele>238.0</ele>
        <time>2020-07-10T07:49:00Z</time>
      </trkpt>
      <trkpt lat="49.210836" lon="7.022367">
        <ele>237.0</ele>
        <time>2020-07-10T07:49:03Z</time>
      </trkpt>
      <trkpt lat="49.210739" lon="7.022287">
        <ele>236.0</ele>
        <time>2020-07-10T07:49:05Z</time>
      </trkpt>
      <trkpt lat="49.210642" lon="7.022198">
        <ele>235.0</ele>
        <time>2020-07-10T07:49:07Z</time>
      </trkpt>
      <trkpt lat="49.210537" lon="7.022129">
        <ele>235.0</ele>
        <time>2020-07-10T07:49:09Z</time>
      </trkpt>
      <trkpt lat="49.210437" lon="7.022045">
        <ele>236.0</ele>
        <time>2020-07-10T07:49:11Z</time>
      </trkpt>
      <trkpt lat="49.21029" lon="7.021931">
        <ele>236.0</ele>
        <time>2020-07-10T07:49:14Z</time>
      </trkpt>
      <trkpt lat="49.210189" lon="7.021847">
        <ele>236.0</ele>
        <time>2020-07-10T07:49:16Z</time>
      </trkpt>
      <trkpt lat="49.210091" lon="7.021761">
        <ele>235.0</ele>
        <time>2020-07-10T07:49:18Z</time>
      </trkpt>
      <trkpt lat="49.209998" lon="7.021669">
        <ele>235.0</ele>
        <time>2020-07-10T07:49:20Z</time>
      </trkpt>
      <trkpt lat="49.209906" lon="7.021584">
        <ele>236.0</ele>
        <time>2020-07-10T07:49:22Z</time>
      </trkpt>
      <trkpt lat="49.209856" lon="7.021536">
        <ele>236.0</ele>
        <time>2020-07-10T07:49:23Z</time>
      </trkpt>
      <trkpt lat="49.209715" lon="7.021399">
        <ele>235.0</ele>
        <time>2020-07-10T07:49:26Z</time>
      </trkpt>
      <trkpt lat="49.209619" lon="7.021317">
        <ele>235.0</ele>
        <time>2020-07-10T07:49:28Z</time>
      </trkpt>
      <trkpt lat="49.209529" lon="7.021239">
        <ele>236.0</ele>
        <time>2020-07-10T07:49:30Z</time>
      </trkpt>
      <trkpt lat="49.209445" lon="7.021155">
        <ele>236.0</ele>
        <time>2020-07-10T07:49:32Z</time>
      </trkpt>
      <trkpt lat="49.209281" lon="7.021043">
        <ele>235.0</ele>
        <time>2020-07-10T07:49:36Z</time>
      </trkpt>
      <trkpt lat="49.209202" lon="7.020983">
        <ele>235.0</ele>
        <time>2020-07-10T07:49:38Z</time>
      </trkpt>
      <trkpt lat="49.209159" lon="7.020946">
        <ele>235.0</ele>
        <time>2020-07-10T07:49:39Z</time>
      </trkpt>
      <trkpt lat="49.209014" lon="7.020818">
        <ele>237.0</ele>
        <time>2020-07-10T07:49:42Z</time>
      </trkpt>
      <trkpt lat="49.208917" lon="7.020721">
        <ele>237.0</ele>
        <time>2020-07-10T07:49:44Z</time>
      </trkpt>
      <trkpt lat="49.208821" lon="7.020632">
        <ele>236.0</ele>
        <time>2020-07-10T07:49:46Z</time>
      </trkpt>
      <trkpt lat="49.208717" lon="7.020536">
        <ele>237.0</ele>
        <time>2020-07-10T07:49:48Z</time>
      </trkpt>
      <trkpt lat="49.208627" lon="7.02044">
        <ele>237.0</ele>
        <time>2020-07-10T07:49:50Z</time>
      </trkpt>
      <trkpt lat="49.208573" lon="7.020393">
        <ele>237.0</ele>
        <time>2020-07-10T07:49:51Z</time>
      </trkpt>
      <trkpt lat="49.208378" lon="7.02024">
        <ele>236.0</ele>
        <time>2020-07-10T07:49:55Z</time>
      </trkpt>
      <trkpt lat="49.208291" lon="7.020146">
        <ele>236.0</ele>
        <time>2020-07-10T07:49:57Z</time>
      </trkpt>
      <trkpt lat="49.208198" lon="7.020073">
        <ele>236.0</ele>
        <time>2020-07-10T07:49:59Z</time>
      </trkpt>
      <trkpt lat="49.208103" lon="7.019988">
        <ele>236.0</ele>
        <time>2020-07-10T07:50:01Z</time>
      </trkpt>
      <trkpt lat="49.207938" lon="7.019855">
        <ele>237.0</ele>
        <time>2020-07-10T07:50:04Z</time>
      </trkpt>
      <trkpt lat="49.207883" lon="7.019819">
        <ele>237.0</ele>
        <time>2020-07-10T07:50:05Z</time>
      </trkpt>
      <trkpt lat="49.207682" lon="7.019633">
        <ele>238.0</ele>
        <time>2020-07-10T07:50:09Z</time>
      </trkpt>
      <trkpt lat="49.207587" lon="7.019545">
        <ele>238.0</ele>
        <time>2020-07-10T07:50:11Z</time>
      </trkpt>
      <trkpt lat="49.207492" lon="7.019455">
        <ele>238.0</ele>
        <time>2020-07-10T07:50:13Z</time>
      </trkpt>
      <trkpt lat="49.207394" lon="7.019369">
        <ele>239.0</ele>
        <time>2020-07-10T07:50:15Z</time>
      </trkpt>
      <trkpt lat="49.207293" lon="7.019289">
        <ele>239.0</ele>
        <time>2020-07-10T07:50:17Z</time>
      </trkpt>
      <trkpt lat="49.207198" lon="7.019209">
        <ele>239.0</ele>
        <time>2020-07-10T07:50:19Z</time>
      </trkpt>
      <trkpt lat="49.207153" lon="7.019163">
        <ele>239.0</ele>
        <time>2020-07-10T07:50:20Z</time>
      </trkpt>
      <trkpt lat="49.20701" lon="7.019021">
        <ele>239.0</ele>
        <time>2020-07-10T07:50:23Z</time>
      </trkpt>
      <trkpt lat="49.206912" lon="7.018945">
        <ele>239.0</ele>
        <time>2020-07-10T07:50:25Z</time>
      </trkpt>
      <trkpt lat="49.206816" lon="7.018871">
        <ele>239.0</ele>
        <time>2020-07-10T07:50:27Z</time>
      </trkpt>
      <trkpt lat="49.206655" lon="7.018768">
        <ele>240.0</ele>
        <time>2020-07-10T07:50:30Z</time>
      </trkpt>
      <trkpt lat="49.206552" lon="7.0187">
        <ele>240.0</ele>
        <time>2020-07-10T07:50:32Z</time>
      </trkpt>
      <trkpt lat="49.206447" lon="7.018638">
        <ele>240.0</ele>
        <time>2020-07-10T07:50:34Z</time>
      </trkpt>
      <trkpt lat="49.206345" lon="7.018577">
        <ele>239.0</ele>
        <time>2020-07-10T07:50:36Z</time>
      </trkpt>
      <trkpt lat="49.206244" lon="7.018514">
        <ele>239.0</ele>
        <time>2020-07-10T07:50:38Z</time>
      </trkpt>
      <trkpt lat="49.206138" lon="7.018452">
        <ele>239.0</ele>
        <time>2020-07-10T07:50:40Z</time>
      </trkpt>
      <trkpt lat="49.205964" lon="7.018375">
        <ele>238.0</ele>
        <time>2020-07-10T07:50:43Z</time>
      </trkpt>
      <trkpt lat="49.20586" lon="7.018321">
        <ele>238.0</ele>
        <time>2020-07-10T07:50:45Z</time>
      </trkpt>
      <trkpt lat="49.205751" lon="7.018279">
        <ele>239.0</ele>
        <time>2020-07-10T07:50:47Z</time>
      </trkpt>
      <trkpt lat="49.205647" lon="7.018227">
        <ele>238.0</ele>
        <time>2020-07-10T07:50:49Z</time>
      </trkpt>
      <trkpt lat="49.205542" lon="7.018172">
        <ele>238.0</ele>
        <time>2020-07-10T07:50:51Z</time>
      </trkpt>
      <trkpt lat="49.205434" lon="7.018125">
        <ele>238.0</ele>
        <time>2020-07-10T07:50:53Z</time>
      </trkpt>
      <trkpt lat="49.205279" lon="7.018047">
        <ele>238.0</ele>
        <time>2020-07-10T07:50:56Z</time>
      </trkpt>
      <trkpt lat="49.205172" lon="7.018013">
        <ele>238.0</ele>
        <time>2020-07-10T07:50:58Z</time>
      </trkpt>
      <trkpt lat="49.205117" lon="7.01801">
        <ele>238.0</ele>
        <time>2020-07-10T07:50:59Z</time>
      </trkpt>
      <trkpt lat="49.204948" lon="7.018042">
        <ele>237.0</ele>
        <time>2020-07-10T07:51:02Z</time>
      </trkpt>
      <trkpt lat="49.204848" lon="7.018081">
        <ele>237.0</ele>
        <time>2020-07-10T07:51:04Z</time>
      </trkpt>
      <trkpt lat="49.204749" lon="7.018119">
        <ele>238.0</ele>
        <time>2020-07-10T07:51:06Z</time>
      </trkpt>
      <trkpt lat="49.20465" lon="7.018175">
        <ele>239.0</ele>
        <time>2020-07-10T07:51:08Z</time>
      </trkpt>
      <trkpt lat="49.204506" lon="7.018276">
        <ele>239.0</ele>
        <time>2020-07-10T07:51:11Z</time>
      </trkpt>
      <trkpt lat="49.204405" lon="7.018363">
        <ele>239.0</ele>
        <time>2020-07-10T07:51:13Z</time>
      </trkpt>
      <trkpt lat="49.204312" lon="7.018443">
        <ele>239.0</ele>
        <time>2020-07-10T07:51:15Z</time>
      </trkpt>
      <trkpt lat="49.204228" lon="7.01853">
        <ele>239.0</ele>
        <time>2020-07-10T07:51:17Z</time>
      </trkpt>
      <trkpt lat="49.204144" lon="7.018621">
        <ele>238.0</ele>
        <time>2020-07-10T07:51:19Z</time>
      </trkpt>
      <trkpt lat="49.204013" lon="7.018761">
        <ele>239.0</ele>
        <time>2020-07-10T07:51:22Z</time>
      </trkpt>
      <trkpt lat="49.203941" lon="7.018869">
        <ele>239.0</ele>
        <time>2020-07-10T07:51:24Z</time>
      </trkpt>
      <trkpt lat="49.203863" lon="7.018978">
        <ele>239.0</ele>
        <time>2020-07-10T07:51:26Z</time>
      </trkpt>
      <trkpt lat="49.203755" lon="7.019128">
        <ele>238.0</ele>
        <time>2020-07-10T07:51:29Z</time>
      </trkpt>
      <trkpt lat="49.20368" lon="7.019216">
        <ele>238.0</ele>
        <time>2020-07-10T07:51:31Z</time>
      </trkpt>
      <trkpt lat="49.203603" lon="7.019325">
        <ele>238.0</ele>
        <time>2020-07-10T07:51:33Z</time>
      </trkpt>
      <trkpt lat="49.203505" lon="7.019426">
        <ele>239.0</ele>
        <time>2020-07-10T07:51:35Z</time>
      </trkpt>
      <trkpt lat="49.20335" lon="7.019589">
        <ele>238.0</ele>
        <time>2020-07-10T07:51:38Z</time>
      </trkpt>
      <trkpt lat="49.203242" lon="7.019698">
        <ele>237.0</ele>
        <time>2020-07-10T07:51:40Z</time>
      </trkpt>
      <trkpt lat="49.203132" lon="7.019831">
        <ele>237.0</ele>
        <time>2020-07-10T07:51:42Z</time>
      </trkpt>
      <trkpt lat="49.203046" lon="7.019988">
        <ele>237.0</ele>
        <time>2020-07-10T07:51:44Z</time>
      </trkpt>
      <trkpt lat="49.202955" lon="7.020098">
        <ele>238.0</ele>
        <time>2020-07-10T07:51:46Z</time>
      </trkpt>
      <trkpt lat="49.202877" lon="7.020224">
        <ele>239.0</ele>
        <time>2020-07-10T07:51:48Z</time>
      </trkpt>
      <trkpt lat="49.202799" lon="7.020353">
        <ele>238.0</ele>
        <time>2020-07-10T07:51:50Z</time>
      </trkpt>
      <trkpt lat="49.202722" lon="7.020467">
        <ele>239.0</ele>
        <time>2020-07-10T07:51:52Z</time>
      </trkpt>
      <trkpt lat="49.202642" lon="7.020575">
        <ele>239.0</ele>
        <time>2020-07-10T07:51:54Z</time>
      </trkpt>
      <trkpt lat="49.202563" lon="7.020675">
        <ele>240.0</ele>
        <time>2020-07-10T07:51:56Z</time>
      </trkpt>
      <trkpt lat="49.202478" lon="7.02077">
        <ele>239.0</ele>
        <time>2020-07-10T07:51:58Z</time>
      </trkpt>
      <trkpt lat="49.202382" lon="7.020847">
        <ele>239.0</ele>
        <time>2020-07-10T07:52:00Z</time>
      </trkpt>
      <trkpt lat="49.202278" lon="7.0209">
        <ele>239.0</ele>
        <time>2020-07-10T07:52:02Z</time>
      </trkpt>
      <trkpt lat="49.202174" lon="7.020957">
        <ele>238.0</ele>
        <time>2020-07-10T07:52:04Z</time>
      </trkpt>
      <trkpt lat="49.202015" lon="7.021032">
        <ele>238.0</ele>
        <time>2020-07-10T07:52:07Z</time>
      </trkpt>
      <trkpt lat="49.201913" lon="7.021088">
        <ele>238.0</ele>
        <time>2020-07-10T07:52:09Z</time>
      </trkpt>
      <trkpt lat="49.201814" lon="7.021153">
        <ele>238.0</ele>
        <time>2020-07-10T07:52:11Z</time>
      </trkpt>
      <trkpt lat="49.20167" lon="7.021261">
        <ele>238.0</ele>
        <time>2020-07-10T07:52:14Z</time>
      </trkpt>
      <trkpt lat="49.201587" lon="7.021334">
        <ele>238.0</ele>
        <time>2020-07-10T07:52:16Z</time>
      </trkpt>
      <trkpt lat="49.201487" lon="7.021411">
        <ele>238.0</ele>
        <time>2020-07-10T07:52:18Z</time>
      </trkpt>
      <trkpt lat="49.201353" lon="7.021557">
        <ele>237.0</ele>
        <time>2020-07-10T07:52:21Z</time>
      </trkpt>
      <trkpt lat="49.201257" lon="7.02166">
        <ele>237.0</ele>
        <time>2020-07-10T07:52:23Z</time>
      </trkpt>
      <trkpt lat="49.201168" lon="7.021778">
        <ele>237.0</ele>
        <time>2020-07-10T07:52:25Z</time>
      </trkpt>
      <trkpt lat="49.20108" lon="7.021901">
        <ele>237.0</ele>
        <time>2020-07-10T07:52:27Z</time>
      </trkpt>
      <trkpt lat="49.200994" lon="7.022007">
        <ele>236.0</ele>
        <time>2020-07-10T07:52:29Z</time>
      </trkpt>
      <trkpt lat="49.20091" lon="7.022131">
        <ele>236.0</ele>
        <time>2020-07-10T07:52:31Z</time>
      </trkpt>
      <trkpt lat="49.200832" lon="7.022257">
        <ele>236.0</ele>
        <time>2020-07-10T07:52:33Z</time>
      </trkpt>
      <trkpt lat="49.20071" lon="7.022435">
        <ele>236.0</ele>
        <time>2020-07-10T07:52:36Z</time>
      </trkpt>
      <trkpt lat="49.200628" lon="7.022544">
        <ele>236.0</ele>
        <time>2020-07-10T07:52:38Z</time>
      </trkpt>
      <trkpt lat="49.200541" lon="7.022651">
        <ele>235.0</ele>
        <time>2020-07-10T07:52:40Z</time>
      </trkpt>
      <trkpt lat="49.200462" lon="7.022758">
        <ele>235.0</ele>
        <time>2020-07-10T07:52:42Z</time>
      </trkpt>
      <trkpt lat="49.200396" lon="7.022872">
        <ele>235.0</ele>
        <time>2020-07-10T07:52:44Z</time>
      </trkpt>
      <trkpt lat="49.200329" lon="7.022998">
        <ele>234.0</ele>
        <time>2020-07-10T07:52:46Z</time>
      </trkpt>
      <trkpt lat="49.200263" lon="7.023112">
        <ele>235.0</ele>
        <time>2020-07-10T07:52:48Z</time>
      </trkpt>
      <trkpt lat="49.20017" lon="7.023304">
        <ele>235.0</ele>
        <time>2020-07-10T07:52:51Z</time>
      </trkpt>
      <trkpt lat="49.200109" lon="7.023413">
        <ele>236.0</ele>
        <time>2020-07-10T07:52:53Z</time>
      </trkpt>
      <trkpt lat="49.200028" lon="7.023565">
        <ele>236.0</ele>
        <time>2020-07-10T07:52:56Z</time>
      </trkpt>
      <trkpt lat="49.199995" lon="7.023602">
        <ele>236.0</ele>
        <time>2020-07-10T07:52:57Z</time>
      </trkpt>
      <trkpt lat="49.199895" lon="7.023681">
        <ele>237.0</ele>
        <time>2020-07-10T07:53:00Z</time>
      </trkpt>
      <trkpt lat="49.199847" lon="7.023721">
        <ele>237.0</ele>
        <time>2020-07-10T07:53:02Z</time>
      </trkpt>
      <trkpt lat="49.199773" lon="7.023795">
        <ele>238.0</ele>
        <time>2020-07-10T07:53:05Z</time>
      </trkpt>
      <trkpt lat="49.199687" lon="7.023871">
        <ele>237.0</ele>
        <time>2020-07-10T07:53:08Z</time>
      </trkpt>
      <trkpt lat="49.199629" lon="7.023939">
        <ele>237.0</ele>
        <time>2020-07-10T07:53:10Z</time>
      </trkpt>
      <trkpt lat="49.199599" lon="7.02397">
        <ele>237.0</ele>
        <time>2020-07-10T07:53:11Z</time>
      </trkpt>
      <trkpt lat="49.199493" lon="7.024069">
        <ele>239.0</ele>
        <time>2020-07-10T07:53:14Z</time>
      </trkpt>
      <trkpt lat="49.19942" lon="7.02413">
        <ele>240.0</ele>
        <time>2020-07-10T07:53:16Z</time>
      </trkpt>
      <trkpt lat="49.199343" lon="7.024186">
        <ele>240.0</ele>
        <time>2020-07-10T07:53:18Z</time>
      </trkpt>
      <trkpt lat="49.199267" lon="7.024249">
        <ele>240.0</ele>
        <time>2020-07-10T07:53:20Z</time>
      </trkpt>
      <trkpt lat="49.199199" lon="7.024317">
        <ele>240.0</ele>
        <time>2020-07-10T07:53:22Z</time>
      </trkpt>
      <trkpt lat="49.199132" lon="7.024382">
        <ele>240.0</ele>
        <time>2020-07-10T07:53:24Z</time>
      </trkpt>
      <trkpt lat="49.199068" lon="7.024454">
        <ele>240.0</ele>
        <time>2020-07-10T07:53:26Z</time>
      </trkpt>
      <trkpt lat="49.198965" lon="7.024568">
        <ele>241.0</ele>
        <time>2020-07-10T07:53:29Z</time>
      </trkpt>
      <trkpt lat="49.19889" lon="7.024642">
        <ele>242.0</ele>
        <time>2020-07-10T07:53:31Z</time>
      </trkpt>
      <trkpt lat="49.198817" lon="7.024714">
        <ele>242.0</ele>
        <time>2020-07-10T07:53:33Z</time>
      </trkpt>
      <trkpt lat="49.198741" lon="7.024792">
        <ele>242.0</ele>
        <time>2020-07-10T07:53:35Z</time>
      </trkpt>
      <trkpt lat="49.198668" lon="7.024872">
        <ele>242.0</ele>
        <time>2020-07-10T07:53:37Z</time>
      </trkpt>
      <trkpt lat="49.198578" lon="7.025037">
        <ele>242.0</ele>
        <time>2020-07-10T07:53:40Z</time>
      </trkpt>
      <trkpt lat="49.198529" lon="7.025271">
        <ele>241.0</ele>
        <time>2020-07-10T07:53:43Z</time>
      </trkpt>
      <trkpt lat="49.198473" lon="7.025435">
        <ele>240.0</ele>
        <time>2020-07-10T07:53:45Z</time>
      </trkpt>
      <trkpt lat="49.198375" lon="7.025554">
        <ele>240.0</ele>
        <time>2020-07-10T07:53:47Z</time>
      </trkpt>
      <trkpt lat="49.198279" lon="7.025661">
        <ele>240.0</ele>
        <time>2020-07-10T07:53:49Z</time>
      </trkpt>
      <trkpt lat="49.198185" lon="7.025784">
        <ele>240.0</ele>
        <time>2020-07-10T07:53:51Z</time>
      </trkpt>
      <trkpt lat="49.198044" lon="7.025935">
        <ele>240.0</ele>
        <time>2020-07-10T07:53:54Z</time>
      </trkpt>
      <trkpt lat="49.197952" lon="7.026042">
        <ele>240.0</ele>
        <time>2020-07-10T07:53:56Z</time>
      </trkpt>
      <trkpt lat="49.197869" lon="7.026154">
        <ele>240.0</ele>
        <time>2020-07-10T07:53:58Z</time>
      </trkpt>
      <trkpt lat="49.197831" lon="7.026219">
        <ele>241.0</ele>
        <time>2020-07-10T07:53:59Z</time>
      </trkpt>
      <trkpt lat="49.197716" lon="7.026395">
        <ele>241.0</ele>
        <time>2020-07-10T07:54:02Z</time>
      </trkpt>
      <trkpt lat="49.197646" lon="7.026528">
        <ele>241.0</ele>
        <time>2020-07-10T07:54:04Z</time>
      </trkpt>
      <trkpt lat="49.197539" lon="7.026738">
        <ele>241.0</ele>
        <time>2020-07-10T07:54:07Z</time>
      </trkpt>
      <trkpt lat="49.197479" lon="7.026886">
        <ele>241.0</ele>
        <time>2020-07-10T07:54:09Z</time>
      </trkpt>
      <trkpt lat="49.197416" lon="7.027018">
        <ele>241.0</ele>
        <time>2020-07-10T07:54:11Z</time>
      </trkpt>
      <trkpt lat="49.197347" lon="7.027164">
        <ele>241.0</ele>
        <time>2020-07-10T07:54:13Z</time>
      </trkpt>
      <trkpt lat="49.197315" lon="7.027232">
        <ele>241.0</ele>
        <time>2020-07-10T07:54:14Z</time>
      </trkpt>
      <trkpt lat="49.197174" lon="7.02752">
        <ele>241.0</ele>
        <time>2020-07-10T07:54:18Z</time>
      </trkpt>
      <trkpt lat="49.197103" lon="7.027664">
        <ele>240.0</ele>
        <time>2020-07-10T07:54:20Z</time>
      </trkpt>
      <trkpt lat="49.197034" lon="7.027798">
        <ele>240.0</ele>
        <time>2020-07-10T07:54:22Z</time>
      </trkpt>
      <trkpt lat="49.196964" lon="7.027926">
        <ele>240.0</ele>
        <time>2020-07-10T07:54:24Z</time>
      </trkpt>
      <trkpt lat="49.196931" lon="7.027992">
        <ele>240.0</ele>
        <time>2020-07-10T07:54:25Z</time>
      </trkpt>
      <trkpt lat="49.196803" lon="7.02817">
        <ele>240.0</ele>
        <time>2020-07-10T07:54:28Z</time>
      </trkpt>
      <trkpt lat="49.196722" lon="7.028276">
        <ele>240.0</ele>
        <time>2020-07-10T07:54:30Z</time>
      </trkpt>
      <trkpt lat="49.196589" lon="7.028429">
        <ele>240.0</ele>
        <time>2020-07-10T07:54:33Z</time>
      </trkpt>
      <trkpt lat="49.196506" lon="7.028536">
        <ele>240.0</ele>
        <time>2020-07-10T07:54:35Z</time>
      </trkpt>
      <trkpt lat="49.196424" lon="7.028641">
        <ele>239.0</ele>
        <time>2020-07-10T07:54:37Z</time>
      </trkpt>
      <trkpt lat="49.196348" lon="7.028748">
        <ele>240.0</ele>
        <time>2020-07-10T07:54:39Z</time>
      </trkpt>
      <trkpt lat="49.196231" lon="7.0289">
        <ele>240.0</ele>
        <time>2020-07-10T07:54:42Z</time>
      </trkpt>
      <trkpt lat="49.196148" lon="7.028993">
        <ele>240.0</ele>
        <time>2020-07-10T07:54:44Z</time>
      </trkpt>
      <trkpt lat="49.196018" lon="7.029154">
        <ele>240.0</ele>
        <time>2020-07-10T07:54:47Z</time>
      </trkpt>
      <trkpt lat="49.195931" lon="7.02926">
        <ele>240.0</ele>
        <time>2020-07-10T07:54:49Z</time>
      </trkpt>
      <trkpt lat="49.195849" lon="7.029364">
        <ele>239.0</ele>
        <time>2020-07-10T07:54:51Z</time>
      </trkpt>
      <trkpt lat="49.195766" lon="7.029465">
        <ele>239.0</ele>
        <time>2020-07-10T07:54:53Z</time>
      </trkpt>
      <trkpt lat="49.195681" lon="7.029578">
        <ele>239.0</ele>
        <time>2020-07-10T07:54:55Z</time>
      </trkpt>
      <trkpt lat="49.195603" lon="7.029689">
        <ele>239.0</ele>
        <time>2020-07-10T07:54:57Z</time>
      </trkpt>
      <trkpt lat="49.195523" lon="7.029792">
        <ele>239.0</ele>
        <time>2020-07-10T07:54:59Z</time>
      </trkpt>
      <trkpt lat="49.195437" lon="7.029893">
        <ele>239.0</ele>
        <time>2020-07-10T07:55:01Z</time>
      </trkpt>
      <trkpt lat="49.195302" lon="7.030054">
        <ele>239.0</ele>
        <time>2020-07-10T07:55:04Z</time>
      </trkpt>
      <trkpt lat="49.195212" lon="7.030157">
        <ele>239.0</ele>
        <time>2020-07-10T07:55:06Z</time>
      </trkpt>
      <trkpt lat="49.195129" lon="7.03027">
        <ele>240.0</ele>
        <time>2020-07-10T07:55:08Z</time>
      </trkpt>
      <trkpt lat="49.195049" lon="7.03038">
        <ele>240.0</ele>
        <time>2020-07-10T07:55:10Z</time>
      </trkpt>
      <trkpt lat="49.194962" lon="7.030483">
        <ele>240.0</ele>
        <time>2020-07-10T07:55:12Z</time>
      </trkpt>
      <trkpt lat="49.194881" lon="7.030582">
        <ele>240.0</ele>
        <time>2020-07-10T07:55:14Z</time>
      </trkpt>
      <trkpt lat="49.194776" lon="7.03074">
        <ele>241.0</ele>
        <time>2020-07-10T07:55:17Z</time>
      </trkpt>
      <trkpt lat="49.194744" lon="7.030788">
        <ele>241.0</ele>
        <time>2020-07-10T07:55:18Z</time>
      </trkpt>
      <trkpt lat="49.194595" lon="7.030978">
        <ele>240.0</ele>
        <time>2020-07-10T07:55:22Z</time>
      </trkpt>
      <trkpt lat="49.194524" lon="7.031083">
        <ele>239.0</ele>
        <time>2020-07-10T07:55:24Z</time>
      </trkpt>
      <trkpt lat="49.194416" lon="7.03125">
        <ele>239.0</ele>
        <time>2020-07-10T07:55:27Z</time>
      </trkpt>
      <trkpt lat="49.194351" lon="7.031359">
        <ele>239.0</ele>
        <time>2020-07-10T07:55:29Z</time>
      </trkpt>
      <trkpt lat="49.194284" lon="7.03147">
        <ele>238.0</ele>
        <time>2020-07-10T07:55:31Z</time>
      </trkpt>
      <trkpt lat="49.194214" lon="7.031586">
        <ele>238.0</ele>
        <time>2020-07-10T07:55:33Z</time>
      </trkpt>
      <trkpt lat="49.194152" lon="7.031705">
        <ele>237.0</ele>
        <time>2020-07-10T07:55:35Z</time>
      </trkpt>
      <trkpt lat="49.194026" lon="7.0319">
        <ele>236.0</ele>
        <time>2020-07-10T07:55:38Z</time>
      </trkpt>
      <trkpt lat="49.193977" lon="7.031985">
        <ele>237.0</ele>
        <time>2020-07-10T07:55:39Z</time>
      </trkpt>
      <trkpt lat="49.193857" lon="7.032189">
        <ele>238.0</ele>
        <time>2020-07-10T07:55:42Z</time>
      </trkpt>
      <trkpt lat="49.193792" lon="7.032305">
        <ele>239.0</ele>
        <time>2020-07-10T07:55:44Z</time>
      </trkpt>
      <trkpt lat="49.193731" lon="7.03242">
        <ele>239.0</ele>
        <time>2020-07-10T07:55:46Z</time>
      </trkpt>
      <trkpt lat="49.193697" lon="7.032478">
        <ele>238.0</ele>
        <time>2020-07-10T07:55:47Z</time>
      </trkpt>
      <trkpt lat="49.193606" lon="7.032618">
        <ele>238.0</ele>
        <time>2020-07-10T07:55:50Z</time>
      </trkpt>
      <trkpt lat="49.193537" lon="7.032728">
        <ele>237.0</ele>
        <time>2020-07-10T07:55:52Z</time>
      </trkpt>
      <trkpt lat="49.193472" lon="7.032826">
        <ele>237.0</ele>
        <time>2020-07-10T07:55:54Z</time>
      </trkpt>
      <trkpt lat="49.193364" lon="7.032982">
        <ele>236.0</ele>
        <time>2020-07-10T07:55:57Z</time>
      </trkpt>
      <trkpt lat="49.193326" lon="7.03303">
        <ele>236.0</ele>
        <time>2020-07-10T07:55:58Z</time>
      </trkpt>
      <trkpt lat="49.193198" lon="7.033187">
        <ele>235.0</ele>
        <time>2020-07-10T07:56:01Z</time>
      </trkpt>
      <trkpt lat="49.193104" lon="7.033296">
        <ele>235.0</ele>
        <time>2020-07-10T07:56:03Z</time>
      </trkpt>
      <trkpt lat="49.193014" lon="7.03341">
        <ele>234.0</ele>
        <time>2020-07-10T07:56:05Z</time>
      </trkpt>
      <trkpt lat="49.192869" lon="7.033585">
        <ele>233.0</ele>
        <time>2020-07-10T07:56:08Z</time>
      </trkpt>
      <trkpt lat="49.192768" lon="7.033702">
        <ele>233.0</ele>
        <time>2020-07-10T07:56:10Z</time>
      </trkpt>
      <trkpt lat="49.192671" lon="7.033813">
        <ele>233.0</ele>
        <time>2020-07-10T07:56:12Z</time>
      </trkpt>
      <trkpt lat="49.192523" lon="7.033985">
        <ele>232.0</ele>
        <time>2020-07-10T07:56:15Z</time>
      </trkpt>
      <trkpt lat="49.192424" lon="7.034095">
        <ele>232.0</ele>
        <time>2020-07-10T07:56:17Z</time>
      </trkpt>
      <trkpt lat="49.192327" lon="7.034219">
        <ele>231.0</ele>
        <time>2020-07-10T07:56:19Z</time>
      </trkpt>
      <trkpt lat="49.192235" lon="7.034315">
        <ele>231.0</ele>
        <time>2020-07-10T07:56:21Z</time>
      </trkpt>
      <trkpt lat="49.192084" lon="7.034435">
        <ele>232.0</ele>
        <time>2020-07-10T07:56:24Z</time>
      </trkpt>
      <trkpt lat="49.191955" lon="7.034536">
        <ele>232.0</ele>
        <time>2020-07-10T07:56:26Z</time>
      </trkpt>
      <trkpt lat="49.191834" lon="7.034594">
        <ele>233.0</ele>
        <time>2020-07-10T07:56:28Z</time>
      </trkpt>
      <trkpt lat="49.191713" lon="7.034627">
        <ele>234.0</ele>
        <time>2020-07-10T07:56:30Z</time>
      </trkpt>
      <trkpt lat="49.191642" lon="7.03463">
        <ele>234.0</ele>
        <time>2020-07-10T07:56:31Z</time>
      </trkpt>
      <trkpt lat="49.191377" lon="7.034613">
        <ele>234.0</ele>
        <time>2020-07-10T07:56:35Z</time>
      </trkpt>
      <trkpt lat="49.191255" lon="7.034599">
        <ele>235.0</ele>
        <time>2020-07-10T07:56:37Z</time>
      </trkpt>
      <trkpt lat="49.191144" lon="7.034567">
        <ele>236.0</ele>
        <time>2020-07-10T07:56:39Z</time>
      </trkpt>
      <trkpt lat="49.19103" lon="7.034544">
        <ele>236.0</ele>
        <time>2020-07-10T07:56:41Z</time>
      </trkpt>
      <trkpt lat="49.190923" lon="7.034514">
        <ele>237.0</ele>
        <time>2020-07-10T07:56:43Z</time>
      </trkpt>
      <trkpt lat="49.190821" lon="7.034471">
        <ele>236.0</ele>
        <time>2020-07-10T07:56:45Z</time>
      </trkpt>
      <trkpt lat="49.190727" lon="7.034423">
        <ele>236.0</ele>
        <time>2020-07-10T07:56:47Z</time>
      </trkpt>
      <trkpt lat="49.190635" lon="7.034373">
        <ele>237.0</ele>
        <time>2020-07-10T07:56:49Z</time>
      </trkpt>
      <trkpt lat="49.190551" lon="7.034305">
        <ele>238.0</ele>
        <time>2020-07-10T07:56:51Z</time>
      </trkpt>
      <trkpt lat="49.190467" lon="7.034223">
        <ele>237.0</ele>
        <time>2020-07-10T07:56:53Z</time>
      </trkpt>
      <trkpt lat="49.190376" lon="7.034152">
        <ele>237.0</ele>
        <time>2020-07-10T07:56:55Z</time>
      </trkpt>
      <trkpt lat="49.190252" lon="7.034035">
        <ele>237.0</ele>
        <time>2020-07-10T07:56:58Z</time>
      </trkpt>
      <trkpt lat="49.190197" lon="7.033996">
        <ele>237.0</ele>
        <time>2020-07-10T07:56:59Z</time>
      </trkpt>
      <trkpt lat="49.190045" lon="7.033887">
        <ele>236.0</ele>
        <time>2020-07-10T07:57:02Z</time>
      </trkpt>
      <trkpt lat="49.189944" lon="7.033819">
        <ele>235.0</ele>
        <time>2020-07-10T07:57:04Z</time>
      </trkpt>
      <trkpt lat="49.189844" lon="7.033767">
        <ele>236.0</ele>
        <time>2020-07-10T07:57:06Z</time>
      </trkpt>
      <trkpt lat="49.189687" lon="7.0337">
        <ele>237.0</ele>
        <time>2020-07-10T07:57:09Z</time>
      </trkpt>
      <trkpt lat="49.18964" lon="7.03367">
        <ele>237.0</ele>
        <time>2020-07-10T07:57:10Z</time>
      </trkpt>
      <trkpt lat="49.189481" lon="7.033585">
        <ele>237.0</ele>
        <time>2020-07-10T07:57:13Z</time>
      </trkpt>
      <trkpt lat="49.18937" lon="7.033519">
        <ele>237.0</ele>
        <time>2020-07-10T07:57:15Z</time>
      </trkpt>
      <trkpt lat="49.189253" lon="7.033454">
        <ele>237.0</ele>
        <time>2020-07-10T07:57:17Z</time>
      </trkpt>
      <trkpt lat="49.189091" lon="7.033362">
        <ele>237.0</ele>
        <time>2020-07-10T07:57:20Z</time>
      </trkpt>
      <trkpt lat="49.188992" lon="7.033304">
        <ele>238.0</ele>
        <time>2020-07-10T07:57:22Z</time>
      </trkpt>
      <trkpt lat="49.188891" lon="7.033246">
        <ele>238.0</ele>
        <time>2020-07-10T07:57:24Z</time>
      </trkpt>
      <trkpt lat="49.18879" lon="7.033187">
        <ele>238.0</ele>
        <time>2020-07-10T07:57:26Z</time>
      </trkpt>
      <trkpt lat="49.188689" lon="7.033133">
        <ele>238.0</ele>
        <time>2020-07-10T07:57:28Z</time>
      </trkpt>
      <trkpt lat="49.188545" lon="7.033081">
        <ele>237.0</ele>
        <time>2020-07-10T07:57:31Z</time>
      </trkpt>
      <trkpt lat="49.188442" lon="7.033074">
        <ele>238.0</ele>
        <time>2020-07-10T07:57:33Z</time>
      </trkpt>
      <trkpt lat="49.188341" lon="7.033054">
        <ele>238.0</ele>
        <time>2020-07-10T07:57:35Z</time>
      </trkpt>
      <trkpt lat="49.188238" lon="7.033036">
        <ele>238.0</ele>
        <time>2020-07-10T07:57:37Z</time>
      </trkpt>
      <trkpt lat="49.188083" lon="7.032999">
        <ele>237.0</ele>
        <time>2020-07-10T07:57:40Z</time>
      </trkpt>
      <trkpt lat="49.18798" lon="7.03298">
        <ele>237.0</ele>
        <time>2020-07-10T07:57:42Z</time>
      </trkpt>
      <trkpt lat="49.187874" lon="7.032956">
        <ele>237.0</ele>
        <time>2020-07-10T07:57:44Z</time>
      </trkpt>
      <trkpt lat="49.187714" lon="7.032939">
        <ele>237.0</ele>
        <time>2020-07-10T07:57:47Z</time>
      </trkpt>
      <trkpt lat="49.187606" lon="7.032927">
        <ele>238.0</ele>
        <time>2020-07-10T07:57:49Z</time>
      </trkpt>
      <trkpt lat="49.187496" lon="7.032914">
        <ele>237.0</ele>
        <time>2020-07-10T07:57:51Z</time>
      </trkpt>
      <trkpt lat="49.187389" lon="7.032906">
        <ele>237.0</ele>
        <time>2020-07-10T07:57:53Z</time>
      </trkpt>
      <trkpt lat="49.187225" lon="7.032897">
        <ele>238.0</ele>
        <time>2020-07-10T07:57:56Z</time>
      </trkpt>
      <trkpt lat="49.187044" lon="7.032902">
        <ele>237.0</ele>
        <time>2020-07-10T07:57:59Z</time>
      </trkpt>
      <trkpt lat="49.186936" lon="7.032922">
        <ele>238.0</ele>
        <time>2020-07-10T07:58:01Z</time>
      </trkpt>
      <trkpt lat="49.186821" lon="7.032945">
        <ele>238.0</ele>
        <time>2020-07-10T07:58:03Z</time>
      </trkpt>
      <trkpt lat="49.186769" lon="7.032958">
        <ele>239.0</ele>
        <time>2020-07-10T07:58:04Z</time>
      </trkpt>
      <trkpt lat="49.186598" lon="7.033">
        <ele>239.0</ele>
        <time>2020-07-10T07:58:07Z</time>
      </trkpt>
      <trkpt lat="49.186482" lon="7.033024">
        <ele>239.0</ele>
        <time>2020-07-10T07:58:09Z</time>
      </trkpt>
      <trkpt lat="49.186372" lon="7.033037">
        <ele>240.0</ele>
        <time>2020-07-10T07:58:11Z</time>
      </trkpt>
      <trkpt lat="49.186261" lon="7.033053">
        <ele>240.0</ele>
        <time>2020-07-10T07:58:13Z</time>
      </trkpt>
      <trkpt lat="49.186156" lon="7.033068">
        <ele>240.0</ele>
        <time>2020-07-10T07:58:15Z</time>
      </trkpt>
      <trkpt lat="49.185992" lon="7.033094">
        <ele>240.0</ele>
        <time>2020-07-10T07:58:18Z</time>
      </trkpt>
      <trkpt lat="49.185883" lon="7.033113">
        <ele>240.0</ele>
        <time>2020-07-10T07:58:20Z</time>
      </trkpt>
      <trkpt lat="49.185776" lon="7.03312">
        <ele>240.0</ele>
        <time>2020-07-10T07:58:22Z</time>
      </trkpt>
      <trkpt lat="49.185667" lon="7.033134">
        <ele>239.0</ele>
        <time>2020-07-10T07:58:24Z</time>
      </trkpt>
      <trkpt lat="49.185557" lon="7.033127">
        <ele>239.0</ele>
        <time>2020-07-10T07:58:26Z</time>
      </trkpt>
      <trkpt lat="49.185446" lon="7.033124">
        <ele>240.0</ele>
        <time>2020-07-10T07:58:28Z</time>
      </trkpt>
      <trkpt lat="49.185336" lon="7.033116">
        <ele>239.0</ele>
        <time>2020-07-10T07:58:30Z</time>
      </trkpt>
      <trkpt lat="49.185176" lon="7.033102">
        <ele>240.0</ele>
        <time>2020-07-10T07:58:33Z</time>
      </trkpt>
      <trkpt lat="49.185067" lon="7.033101">
        <ele>241.0</ele>
        <time>2020-07-10T07:58:35Z</time>
      </trkpt>
      <trkpt lat="49.184956" lon="7.0331">
        <ele>241.0</ele>
        <time>2020-07-10T07:58:37Z</time>
      </trkpt>
      <trkpt lat="49.184799" lon="7.033099">
        <ele>240.0</ele>
        <time>2020-07-10T07:58:40Z</time>
      </trkpt>
      <trkpt lat="49.184689" lon="7.0331">
        <ele>240.0</ele>
        <time>2020-07-10T07:58:42Z</time>
      </trkpt>
      <trkpt lat="49.18458" lon="7.033118">
        <ele>241.0</ele>
        <time>2020-07-10T07:58:44Z</time>
      </trkpt>
      <trkpt lat="49.184426" lon="7.033159">
        <ele>241.0</ele>
        <time>2020-07-10T07:58:47Z</time>
      </trkpt>
      <trkpt lat="49.184314" lon="7.033194">
        <ele>241.0</ele>
        <time>2020-07-10T07:58:49Z</time>
      </trkpt>
      <trkpt lat="49.184206" lon="7.033238">
        <ele>242.0</ele>
        <time>2020-07-10T07:58:51Z</time>
      </trkpt>
      <trkpt lat="49.184096" lon="7.033277">
        <ele>242.0</ele>
        <time>2020-07-10T07:58:53Z</time>
      </trkpt>
      <trkpt lat="49.183929" lon="7.03333">
        <ele>241.0</ele>
        <time>2020-07-10T07:58:56Z</time>
      </trkpt>
      <trkpt lat="49.183812" lon="7.033351">
        <ele>240.0</ele>
        <time>2020-07-10T07:58:58Z</time>
      </trkpt>
      <trkpt lat="49.1837" lon="7.033376">
        <ele>239.0</ele>
        <time>2020-07-10T07:59:00Z</time>
      </trkpt>
      <trkpt lat="49.183644" lon="7.033388">
        <ele>239.0</ele>
        <time>2020-07-10T07:59:01Z</time>
      </trkpt>
      <trkpt lat="49.183463" lon="7.033408">
        <ele>238.0</ele>
        <time>2020-07-10T07:59:04Z</time>
      </trkpt>
      <trkpt lat="49.183343" lon="7.033421">
        <ele>238.0</ele>
        <time>2020-07-10T07:59:06Z</time>
      </trkpt>
      <trkpt lat="49.183229" lon="7.033443">
        <ele>238.0</ele>
        <time>2020-07-10T07:59:08Z</time>
      </trkpt>
      <trkpt lat="49.183116" lon="7.033457">
        <ele>238.0</ele>
        <time>2020-07-10T07:59:10Z</time>
      </trkpt>
      <trkpt lat="49.183005" lon="7.033466">
        <ele>237.0</ele>
        <time>2020-07-10T07:59:12Z</time>
      </trkpt>
      <trkpt lat="49.182891" lon="7.03346">
        <ele>237.0</ele>
        <time>2020-07-10T07:59:14Z</time>
      </trkpt>
      <trkpt lat="49.182731" lon="7.033438">
        <ele>237.0</ele>
        <time>2020-07-10T07:59:17Z</time>
      </trkpt>
      <trkpt lat="49.182621" lon="7.033414">
        <ele>238.0</ele>
        <time>2020-07-10T07:59:19Z</time>
      </trkpt>
      <trkpt lat="49.18246" lon="7.03337">
        <ele>238.0</ele>
        <time>2020-07-10T07:59:22Z</time>
      </trkpt>
      <trkpt lat="49.18235" lon="7.033338">
        <ele>238.0</ele>
        <time>2020-07-10T07:59:24Z</time>
      </trkpt>
      <trkpt lat="49.18219" lon="7.033291">
        <ele>238.0</ele>
        <time>2020-07-10T07:59:27Z</time>
      </trkpt>
      <trkpt lat="49.182087" lon="7.033239">
        <ele>239.0</ele>
        <time>2020-07-10T07:59:29Z</time>
      </trkpt>
      <trkpt lat="49.181929" lon="7.033178">
        <ele>238.0</ele>
        <time>2020-07-10T07:59:32Z</time>
      </trkpt>
      <trkpt lat="49.18182" lon="7.03315">
        <ele>238.0</ele>
        <time>2020-07-10T07:59:34Z</time>
      </trkpt>
      <trkpt lat="49.181716" lon="7.033122">
        <ele>238.0</ele>
        <time>2020-07-10T07:59:36Z</time>
      </trkpt>
      <trkpt lat="49.181661" lon="7.033111">
        <ele>238.0</ele>
        <time>2020-07-10T07:59:37Z</time>
      </trkpt>
      <trkpt lat="49.181503" lon="7.033066">
        <ele>239.0</ele>
        <time>2020-07-10T07:59:40Z</time>
      </trkpt>
      <trkpt lat="49.181403" lon="7.033024">
        <ele>239.0</ele>
        <time>2020-07-10T07:59:42Z</time>
      </trkpt>
      <trkpt lat="49.181301" lon="7.032987">
        <ele>239.0</ele>
        <time>2020-07-10T07:59:44Z</time>
      </trkpt>
      <trkpt lat="49.181196" lon="7.032956">
        <ele>239.0</ele>
        <time>2020-07-10T07:59:46Z</time>
      </trkpt>
      <trkpt lat="49.181092" lon="7.03292">
        <ele>239.0</ele>
        <time>2020-07-10T07:59:48Z</time>
      </trkpt>
      <trkpt lat="49.180946" lon="7.032835">
        <ele>239.0</ele>
        <time>2020-07-10T07:59:51Z</time>
      </trkpt>
      <trkpt lat="49.180846" lon="7.032789">
        <ele>240.0</ele>
        <time>2020-07-10T07:59:53Z</time>
      </trkpt>
      <trkpt lat="49.180748" lon="7.032732">
        <ele>239.0</ele>
        <time>2020-07-10T07:59:55Z</time>
      </trkpt>
      <trkpt lat="49.180651" lon="7.032675">
        <ele>239.0</ele>
        <time>2020-07-10T07:59:57Z</time>
      </trkpt>
      <trkpt lat="49.18051" lon="7.032579">
        <ele>239.0</ele>
        <time>2020-07-10T08:00:00Z</time>
      </trkpt>
      <trkpt lat="49.180417" lon="7.032514">
        <ele>239.0</ele>
        <time>2020-07-10T08:00:02Z</time>
      </trkpt>
      <trkpt lat="49.180327" lon="7.032441">
        <ele>239.0</ele>
        <time>2020-07-10T08:00:04Z</time>
      </trkpt>
      <trkpt lat="49.180179" lon="7.032329">
        <ele>239.0</ele>
        <time>2020-07-10T08:00:07Z</time>
      </trkpt>
      <trkpt lat="49.180131" lon="7.032284">
        <ele>239.0</ele>
        <time>2020-07-10T08:00:08Z</time>
      </trkpt>
      <trkpt lat="49.179946" lon="7.032138">
        <ele>239.0</ele>
        <time>2020-07-10T08:00:12Z</time>
      </trkpt>
      <trkpt lat="49.179859" lon="7.032062">
        <ele>238.0</ele>
        <time>2020-07-10T08:00:14Z</time>
      </trkpt>
      <trkpt lat="49.179769" lon="7.031989">
        <ele>239.0</ele>
        <time>2020-07-10T08:00:16Z</time>
      </trkpt>
      <trkpt lat="49.179681" lon="7.031907">
        <ele>239.0</ele>
        <time>2020-07-10T08:00:18Z</time>
      </trkpt>
      <trkpt lat="49.17959" lon="7.031825">
        <ele>239.0</ele>
        <time>2020-07-10T08:00:20Z</time>
      </trkpt>
      <trkpt lat="49.179502" lon="7.031748">
        <ele>239.0</ele>
        <time>2020-07-10T08:00:22Z</time>
      </trkpt>
      <trkpt lat="49.179371" lon="7.031629">
        <ele>240.0</ele>
        <time>2020-07-10T08:00:25Z</time>
      </trkpt>
      <trkpt lat="49.179279" lon="7.031549">
        <ele>240.0</ele>
        <time>2020-07-10T08:00:27Z</time>
      </trkpt>
      <trkpt lat="49.17919" lon="7.031477">
        <ele>240.0</ele>
        <time>2020-07-10T08:00:29Z</time>
      </trkpt>
      <trkpt lat="49.179096" lon="7.031396">
        <ele>240.0</ele>
        <time>2020-07-10T08:00:31Z</time>
      </trkpt>
      <trkpt lat="49.179007" lon="7.031323">
        <ele>240.0</ele>
        <time>2020-07-10T08:00:33Z</time>
      </trkpt>
      <trkpt lat="49.178917" lon="7.031238">
        <ele>241.0</ele>
        <time>2020-07-10T08:00:35Z</time>
      </trkpt>
      <trkpt lat="49.178828" lon="7.03116">
        <ele>241.0</ele>
        <time>2020-07-10T08:00:37Z</time>
      </trkpt>
      <trkpt lat="49.178729" lon="7.031082">
        <ele>241.0</ele>
        <time>2020-07-10T08:00:39Z</time>
      </trkpt>
      <trkpt lat="49.178644" lon="7.030994">
        <ele>241.0</ele>
        <time>2020-07-10T08:00:41Z</time>
      </trkpt>
      <trkpt lat="49.178558" lon="7.030894">
        <ele>241.0</ele>
        <time>2020-07-10T08:00:43Z</time>
      </trkpt>
      <trkpt lat="49.178467" lon="7.030802">
        <ele>241.0</ele>
        <time>2020-07-10T08:00:45Z</time>
      </trkpt>
      <trkpt lat="49.178375" lon="7.030712">
        <ele>241.0</ele>
        <time>2020-07-10T08:00:47Z</time>
      </trkpt>
      <trkpt lat="49.178285" lon="7.030621">
        <ele>241.0</ele>
        <time>2020-07-10T08:00:49Z</time>
      </trkpt>
      <trkpt lat="49.178196" lon="7.030537">
        <ele>241.0</ele>
        <time>2020-07-10T08:00:51Z</time>
      </trkpt>
      <trkpt lat="49.178107" lon="7.030452">
        <ele>241.0</ele>
        <time>2020-07-10T08:00:53Z</time>
      </trkpt>
      <trkpt lat="49.177969" lon="7.030339">
        <ele>241.0</ele>
        <time>2020-07-10T08:00:56Z</time>
      </trkpt>
      <trkpt lat="49.177875" lon="7.030265">
        <ele>241.0</ele>
        <time>2020-07-10T08:00:58Z</time>
      </trkpt>
      <trkpt lat="49.17773" lon="7.030147">
        <ele>242.0</ele>
        <time>2020-07-10T08:01:01Z</time>
      </trkpt>
      <trkpt lat="49.177628" lon="7.030069">
        <ele>241.0</ele>
        <time>2020-07-10T08:01:03Z</time>
      </trkpt>
      <trkpt lat="49.177531" lon="7.029989">
        <ele>241.0</ele>
        <time>2020-07-10T08:01:05Z</time>
      </trkpt>
      <trkpt lat="49.177435" lon="7.029908">
        <ele>241.0</ele>
        <time>2020-07-10T08:01:07Z</time>
      </trkpt>
      <trkpt lat="49.177305" lon="7.02976">
        <ele>240.0</ele>
        <time>2020-07-10T08:01:10Z</time>
      </trkpt>
      <trkpt lat="49.177179" lon="7.029617">
        <ele>241.0</ele>
        <time>2020-07-10T08:01:13Z</time>
      </trkpt>
      <trkpt lat="49.177092" lon="7.029521">
        <ele>241.0</ele>
        <time>2020-07-10T08:01:15Z</time>
      </trkpt>
      <trkpt lat="49.177003" lon="7.029421">
        <ele>240.0</ele>
        <time>2020-07-10T08:01:17Z</time>
      </trkpt>
      <trkpt lat="49.176917" lon="7.029323">
        <ele>240.0</ele>
        <time>2020-07-10T08:01:19Z</time>
      </trkpt>
      <trkpt lat="49.176838" lon="7.029217">
        <ele>240.0</ele>
        <time>2020-07-10T08:01:21Z</time>
      </trkpt>
      <trkpt lat="49.176718" lon="7.02906">
        <ele>241.0</ele>
        <time>2020-07-10T08:01:24Z</time>
      </trkpt>
      <trkpt lat="49.176636" lon="7.028961">
        <ele>241.0</ele>
        <time>2020-07-10T08:01:26Z</time>
      </trkpt>
      <trkpt lat="49.17656" lon="7.028857">
        <ele>241.0</ele>
        <time>2020-07-10T08:01:28Z</time>
      </trkpt>
      <trkpt lat="49.176482" lon="7.02875">
        <ele>241.0</ele>
        <time>2020-07-10T08:01:30Z</time>
      </trkpt>
      <trkpt lat="49.176352" lon="7.028627">
        <ele>241.0</ele>
        <time>2020-07-10T08:01:33Z</time>
      </trkpt>
      <trkpt lat="49.176266" lon="7.028538">
        <ele>241.0</ele>
        <time>2020-07-10T08:01:35Z</time>
      </trkpt>
      <trkpt lat="49.176184" lon="7.02846">
        <ele>242.0</ele>
        <time>2020-07-10T08:01:37Z</time>
      </trkpt>
      <trkpt lat="49.176097" lon="7.028385">
        <ele>242.0</ele>
        <time>2020-07-10T08:01:39Z</time>
      </trkpt>
      <trkpt lat="49.176006" lon="7.028338">
        <ele>242.0</ele>
        <time>2020-07-10T08:01:41Z</time>
      </trkpt>
      <trkpt lat="49.175864" lon="7.028291">
        <ele>241.0</ele>
        <time>2020-07-10T08:01:44Z</time>
      </trkpt>
      <trkpt lat="49.175774" lon="7.028249">
        <ele>241.0</ele>
        <time>2020-07-10T08:01:46Z</time>
      </trkpt>
      <trkpt lat="49.175729" lon="7.028228">
        <ele>241.0</ele>
        <time>2020-07-10T08:01:47Z</time>
      </trkpt>
      <trkpt lat="49.175589" lon="7.02816">
        <ele>241.0</ele>
        <time>2020-07-10T08:01:50Z</time>
      </trkpt>
      <trkpt lat="49.175405" lon="7.028083">
        <ele>242.0</ele>
        <time>2020-07-10T08:01:54Z</time>
      </trkpt>
      <trkpt lat="49.17531" lon="7.02804">
        <ele>242.0</ele>
        <time>2020-07-10T08:01:56Z</time>
      </trkpt>
      <trkpt lat="49.175171" lon="7.027975">
        <ele>242.0</ele>
        <time>2020-07-10T08:01:59Z</time>
      </trkpt>
      <trkpt lat="49.175083" lon="7.027941">
        <ele>241.0</ele>
        <time>2020-07-10T08:02:01Z</time>
      </trkpt>
      <trkpt lat="49.174988" lon="7.027897">
        <ele>241.0</ele>
        <time>2020-07-10T08:02:03Z</time>
      </trkpt>
      <trkpt lat="49.174885" lon="7.027877">
        <ele>240.0</ele>
        <time>2020-07-10T08:02:05Z</time>
      </trkpt>
      <trkpt lat="49.174789" lon="7.027834">
        <ele>240.0</ele>
        <time>2020-07-10T08:02:07Z</time>
      </trkpt>
      <trkpt lat="49.174692" lon="7.027797">
        <ele>241.0</ele>
        <time>2020-07-10T08:02:09Z</time>
      </trkpt>
      <trkpt lat="49.17459" lon="7.027765">
        <ele>241.0</ele>
        <time>2020-07-10T08:02:11Z</time>
      </trkpt>
      <trkpt lat="49.17449" lon="7.027737">
        <ele>241.0</ele>
        <time>2020-07-10T08:02:13Z</time>
      </trkpt>
      <trkpt lat="49.174389" lon="7.027716">
        <ele>241.0</ele>
        <time>2020-07-10T08:02:15Z</time>
      </trkpt>
      <trkpt lat="49.174238" lon="7.02769">
        <ele>240.0</ele>
        <time>2020-07-10T08:02:18Z</time>
      </trkpt>
      <trkpt lat="49.174131" lon="7.027669">
        <ele>240.0</ele>
        <time>2020-07-10T08:02:20Z</time>
      </trkpt>
      <trkpt lat="49.174028" lon="7.027651">
        <ele>240.0</ele>
        <time>2020-07-10T08:02:22Z</time>
      </trkpt>
      <trkpt lat="49.173922" lon="7.027639">
        <ele>240.0</ele>
        <time>2020-07-10T08:02:24Z</time>
      </trkpt>
      <trkpt lat="49.173762" lon="7.027612">
        <ele>240.0</ele>
        <time>2020-07-10T08:02:27Z</time>
      </trkpt>
      <trkpt lat="49.173657" lon="7.027601">
        <ele>240.0</ele>
        <time>2020-07-10T08:02:29Z</time>
      </trkpt>
      <trkpt lat="49.173548" lon="7.027583">
        <ele>240.0</ele>
        <time>2020-07-10T08:02:31Z</time>
      </trkpt>
      <trkpt lat="49.173386" lon="7.027569">
        <ele>241.0</ele>
        <time>2020-07-10T08:02:34Z</time>
      </trkpt>
      <trkpt lat="49.173331" lon="7.027565">
        <ele>241.0</ele>
        <time>2020-07-10T08:02:35Z</time>
      </trkpt>
      <trkpt lat="49.173172" lon="7.027533">
        <ele>240.0</ele>
        <time>2020-07-10T08:02:38Z</time>
      </trkpt>
      <trkpt lat="49.173011" lon="7.027508">
        <ele>241.0</ele>
        <time>2020-07-10T08:02:41Z</time>
      </trkpt>
      <trkpt lat="49.1729" lon="7.027491">
        <ele>240.0</ele>
        <time>2020-07-10T08:02:43Z</time>
      </trkpt>
      <trkpt lat="49.172846" lon="7.02748">
        <ele>240.0</ele>
        <time>2020-07-10T08:02:44Z</time>
      </trkpt>
      <trkpt lat="49.172635" lon="7.027444">
        <ele>240.0</ele>
        <time>2020-07-10T08:02:48Z</time>
      </trkpt>
      <trkpt lat="49.172527" lon="7.02743">
        <ele>239.0</ele>
        <time>2020-07-10T08:02:50Z</time>
      </trkpt>
      <trkpt lat="49.172472" lon="7.02743">
        <ele>239.0</ele>
        <time>2020-07-10T08:02:51Z</time>
      </trkpt>
      <trkpt lat="49.172248" lon="7.027384">
        <ele>239.0</ele>
        <time>2020-07-10T08:02:55Z</time>
      </trkpt>
      <trkpt lat="49.172134" lon="7.02737">
        <ele>239.0</ele>
        <time>2020-07-10T08:02:57Z</time>
      </trkpt>
      <trkpt lat="49.172022" lon="7.027355">
        <ele>239.0</ele>
        <time>2020-07-10T08:02:59Z</time>
      </trkpt>
      <trkpt lat="49.171919" lon="7.027335">
        <ele>239.0</ele>
        <time>2020-07-10T08:03:01Z</time>
      </trkpt>
      <trkpt lat="49.171865" lon="7.027325">
        <ele>239.0</ele>
        <time>2020-07-10T08:03:02Z</time>
      </trkpt>
      <trkpt lat="49.1717" lon="7.027322">
        <ele>240.0</ele>
        <time>2020-07-10T08:03:05Z</time>
      </trkpt>
      <trkpt lat="49.171586" lon="7.027319">
        <ele>239.0</ele>
        <time>2020-07-10T08:03:07Z</time>
      </trkpt>
      <trkpt lat="49.17148" lon="7.027316">
        <ele>239.0</ele>
        <time>2020-07-10T08:03:09Z</time>
      </trkpt>
      <trkpt lat="49.171369" lon="7.027314">
        <ele>239.0</ele>
        <time>2020-07-10T08:03:11Z</time>
      </trkpt>
      <trkpt lat="49.171263" lon="7.027313">
        <ele>238.0</ele>
        <time>2020-07-10T08:03:13Z</time>
      </trkpt>
      <trkpt lat="49.171161" lon="7.027323">
        <ele>238.0</ele>
        <time>2020-07-10T08:03:15Z</time>
      </trkpt>
      <trkpt lat="49.171069" lon="7.027333">
        <ele>238.0</ele>
        <time>2020-07-10T08:03:17Z</time>
      </trkpt>
      <trkpt lat="49.170923" lon="7.027335">
        <ele>238.0</ele>
        <time>2020-07-10T08:03:20Z</time>
      </trkpt>
      <trkpt lat="49.170765" lon="7.027348">
        <ele>238.0</ele>
        <time>2020-07-10T08:03:23Z</time>
      </trkpt>
      <trkpt lat="49.170667" lon="7.027366">
        <ele>238.0</ele>
        <time>2020-07-10T08:03:25Z</time>
      </trkpt>
      <trkpt lat="49.170562" lon="7.027388">
        <ele>238.0</ele>
        <time>2020-07-10T08:03:27Z</time>
      </trkpt>
      <trkpt lat="49.170461" lon="7.0274">
        <ele>238.0</ele>
        <time>2020-07-10T08:03:29Z</time>
      </trkpt>
      <trkpt lat="49.170258" lon="7.027418">
        <ele>237.0</ele>
        <time>2020-07-10T08:03:33Z</time>
      </trkpt>
      <trkpt lat="49.170206" lon="7.027424">
        <ele>237.0</ele>
        <time>2020-07-10T08:03:34Z</time>
      </trkpt>
      <trkpt lat="49.170054" lon="7.027454">
        <ele>237.0</ele>
        <time>2020-07-10T08:03:37Z</time>
      </trkpt>
      <trkpt lat="49.170001" lon="7.027464">
        <ele>237.0</ele>
        <time>2020-07-10T08:03:38Z</time>
      </trkpt>
      <trkpt lat="49.169859" lon="7.0275">
        <ele>238.0</ele>
        <time>2020-07-10T08:03:41Z</time>
      </trkpt>
      <trkpt lat="49.169706" lon="7.027556">
        <ele>238.0</ele>
        <time>2020-07-10T08:03:44Z</time>
      </trkpt>
      <trkpt lat="49.169606" lon="7.027598">
        <ele>238.0</ele>
        <time>2020-07-10T08:03:46Z</time>
      </trkpt>
      <trkpt lat="49.169558" lon="7.027619">
        <ele>238.0</ele>
        <time>2020-07-10T08:03:47Z</time>
      </trkpt>
      <trkpt lat="49.169404" lon="7.027671">
        <ele>239.0</ele>
        <time>2020-07-10T08:03:50Z</time>
      </trkpt>
      <trkpt lat="49.16925" lon="7.027724">
        <ele>240.0</ele>
        <time>2020-07-10T08:03:53Z</time>
      </trkpt>
      <trkpt lat="49.169147" lon="7.027763">
        <ele>240.0</ele>
        <time>2020-07-10T08:03:55Z</time>
      </trkpt>
      <trkpt lat="49.169091" lon="7.027785">
        <ele>239.0</ele>
        <time>2020-07-10T08:03:56Z</time>
      </trkpt>
      <trkpt lat="49.168871" lon="7.027871">
        <ele>239.0</ele>
        <time>2020-07-10T08:04:00Z</time>
      </trkpt>
      <trkpt lat="49.16882" lon="7.027892">
        <ele>240.0</ele>
        <time>2020-07-10T08:04:01Z</time>
      </trkpt>
      <trkpt lat="49.168662" lon="7.027964">
        <ele>240.0</ele>
        <time>2020-07-10T08:04:04Z</time>
      </trkpt>
      <trkpt lat="49.168548" lon="7.028001">
        <ele>240.0</ele>
        <time>2020-07-10T08:04:06Z</time>
      </trkpt>
      <trkpt lat="49.168443" lon="7.028041">
        <ele>240.0</ele>
        <time>2020-07-10T08:04:08Z</time>
      </trkpt>
      <trkpt lat="49.168287" lon="7.028114">
        <ele>241.0</ele>
        <time>2020-07-10T08:04:11Z</time>
      </trkpt>
      <trkpt lat="49.168184" lon="7.028171">
        <ele>241.0</ele>
        <time>2020-07-10T08:04:13Z</time>
      </trkpt>
      <trkpt lat="49.168133" lon="7.028194">
        <ele>241.0</ele>
        <time>2020-07-10T08:04:14Z</time>
      </trkpt>
      <trkpt lat="49.167989" lon="7.028263">
        <ele>241.0</ele>
        <time>2020-07-10T08:04:17Z</time>
      </trkpt>
      <trkpt lat="49.167888" lon="7.028308">
        <ele>241.0</ele>
        <time>2020-07-10T08:04:19Z</time>
      </trkpt>
      <trkpt lat="49.167784" lon="7.02836">
        <ele>240.0</ele>
        <time>2020-07-10T08:04:21Z</time>
      </trkpt>
      <trkpt lat="49.167682" lon="7.028416">
        <ele>240.0</ele>
        <time>2020-07-10T08:04:23Z</time>
      </trkpt>
      <trkpt lat="49.167578" lon="7.028481">
        <ele>240.0</ele>
        <time>2020-07-10T08:04:25Z</time>
      </trkpt>
      <trkpt lat="49.167523" lon="7.02851">
        <ele>239.0</ele>
        <time>2020-07-10T08:04:26Z</time>
      </trkpt>
      <trkpt lat="49.167354" lon="7.028601">
        <ele>239.0</ele>
        <time>2020-07-10T08:04:29Z</time>
      </trkpt>
      <trkpt lat="49.167244" lon="7.028679">
        <ele>240.0</ele>
        <time>2020-07-10T08:04:31Z</time>
      </trkpt>
      <trkpt lat="49.167138" lon="7.028762">
        <ele>239.0</ele>
        <time>2020-07-10T08:04:33Z</time>
      </trkpt>
      <trkpt lat="49.16698" lon="7.028874">
        <ele>239.0</ele>
        <time>2020-07-10T08:04:36Z</time>
      </trkpt>
      <trkpt lat="49.166881" lon="7.028934">
        <ele>239.0</ele>
        <time>2020-07-10T08:04:38Z</time>
      </trkpt>
      <trkpt lat="49.166778" lon="7.028989">
        <ele>239.0</ele>
        <time>2020-07-10T08:04:40Z</time>
      </trkpt>
      <trkpt lat="49.166677" lon="7.029064">
        <ele>240.0</ele>
        <time>2020-07-10T08:04:42Z</time>
      </trkpt>
      <trkpt lat="49.166583" lon="7.029127">
        <ele>240.0</ele>
        <time>2020-07-10T08:04:44Z</time>
      </trkpt>
      <trkpt lat="49.166489" lon="7.02918">
        <ele>240.0</ele>
        <time>2020-07-10T08:04:46Z</time>
      </trkpt>
      <trkpt lat="49.166396" lon="7.029243">
        <ele>240.0</ele>
        <time>2020-07-10T08:04:49Z</time>
      </trkpt>
      <trkpt lat="49.166311" lon="7.029301">
        <ele>240.0</ele>
        <time>2020-07-10T08:04:52Z</time>
      </trkpt>
      <trkpt lat="49.166188" lon="7.029392">
        <ele>240.0</ele>
        <time>2020-07-10T08:04:54Z</time>
      </trkpt>
      <trkpt lat="49.166077" lon="7.029463">
        <ele>240.0</ele>
        <time>2020-07-10T08:04:56Z</time>
      </trkpt>
      <trkpt lat="49.165957" lon="7.029522">
        <ele>241.0</ele>
        <time>2020-07-10T08:04:58Z</time>
      </trkpt>
      <trkpt lat="49.165903" lon="7.029554">
        <ele>240.0</ele>
        <time>2020-07-10T08:04:59Z</time>
      </trkpt>
      <trkpt lat="49.165697" lon="7.029659">
        <ele>240.0</ele>
        <time>2020-07-10T08:05:03Z</time>
      </trkpt>
      <trkpt lat="49.165646" lon="7.029683">
        <ele>240.0</ele>
        <time>2020-07-10T08:05:04Z</time>
      </trkpt>
      <trkpt lat="49.165501" lon="7.029757">
        <ele>240.0</ele>
        <time>2020-07-10T08:05:07Z</time>
      </trkpt>
      <trkpt lat="49.165411" lon="7.029802">
        <ele>240.0</ele>
        <time>2020-07-10T08:05:09Z</time>
      </trkpt>
      <trkpt lat="49.165328" lon="7.029843">
        <ele>241.0</ele>
        <time>2020-07-10T08:05:11Z</time>
      </trkpt>
      <trkpt lat="49.165248" lon="7.029891">
        <ele>241.0</ele>
        <time>2020-07-10T08:05:13Z</time>
      </trkpt>
      <trkpt lat="49.165175" lon="7.029941">
        <ele>241.0</ele>
        <time>2020-07-10T08:05:15Z</time>
      </trkpt>
      <trkpt lat="49.165102" lon="7.029979">
        <ele>241.0</ele>
        <time>2020-07-10T08:05:17Z</time>
      </trkpt>
      <trkpt lat="49.165028" lon="7.030021">
        <ele>241.0</ele>
        <time>2020-07-10T08:05:19Z</time>
      </trkpt>
      <trkpt lat="49.164959" lon="7.030042">
        <ele>241.0</ele>
        <time>2020-07-10T08:05:21Z</time>
      </trkpt>
      <trkpt lat="49.164896" lon="7.030074">
        <ele>240.0</ele>
        <time>2020-07-10T08:05:23Z</time>
      </trkpt>
      <trkpt lat="49.164822" lon="7.030108">
        <ele>241.0</ele>
        <time>2020-07-10T08:05:25Z</time>
      </trkpt>
      <trkpt lat="49.164741" lon="7.030143">
        <ele>240.0</ele>
        <time>2020-07-10T08:05:27Z</time>
      </trkpt>
      <trkpt lat="49.16466" lon="7.030191">
        <ele>241.0</ele>
        <time>2020-07-10T08:05:29Z</time>
      </trkpt>
      <trkpt lat="49.164581" lon="7.030239">
        <ele>241.0</ele>
        <time>2020-07-10T08:05:31Z</time>
      </trkpt>
      <trkpt lat="49.164497" lon="7.030295">
        <ele>241.0</ele>
        <time>2020-07-10T08:05:33Z</time>
      </trkpt>
      <trkpt lat="49.164417" lon="7.030327">
        <ele>242.0</ele>
        <time>2020-07-10T08:05:35Z</time>
      </trkpt>
      <trkpt lat="49.164344" lon="7.030332">
        <ele>242.0</ele>
        <time>2020-07-10T08:05:37Z</time>
      </trkpt>
      <trkpt lat="49.164269" lon="7.030311">
        <ele>242.0</ele>
        <time>2020-07-10T08:05:39Z</time>
      </trkpt>
      <trkpt lat="49.164202" lon="7.030287">
        <ele>242.0</ele>
        <time>2020-07-10T08:05:41Z</time>
      </trkpt>
      <trkpt lat="49.164139" lon="7.030289">
        <ele>242.0</ele>
        <time>2020-07-10T08:05:43Z</time>
      </trkpt>
      <trkpt lat="49.164088" lon="7.030326">
        <ele>241.0</ele>
        <time>2020-07-10T08:05:45Z</time>
      </trkpt>
      <trkpt lat="49.164038" lon="7.030385">
        <ele>241.0</ele>
        <time>2020-07-10T08:05:47Z</time>
      </trkpt>
      <trkpt lat="49.163989" lon="7.030457">
        <ele>241.0</ele>
        <time>2020-07-10T08:05:49Z</time>
      </trkpt>
      <trkpt lat="49.163933" lon="7.030541">
        <ele>241.0</ele>
        <time>2020-07-10T08:05:51Z</time>
      </trkpt>
      <trkpt lat="49.163838" lon="7.03062">
        <ele>242.0</ele>
        <time>2020-07-10T08:05:53Z</time>
      </trkpt>
      <trkpt lat="49.163743" lon="7.030696">
        <ele>242.0</ele>
        <time>2020-07-10T08:05:55Z</time>
      </trkpt>
      <trkpt lat="49.163633" lon="7.030764">
        <ele>242.0</ele>
        <time>2020-07-10T08:05:57Z</time>
      </trkpt>
      <trkpt lat="49.163529" lon="7.030816">
        <ele>242.0</ele>
        <time>2020-07-10T08:05:59Z</time>
      </trkpt>
      <trkpt lat="49.163428" lon="7.030863">
        <ele>242.0</ele>
        <time>2020-07-10T08:06:01Z</time>
      </trkpt>
      <trkpt lat="49.163285" lon="7.03092">
        <ele>242.0</ele>
        <time>2020-07-10T08:06:04Z</time>
      </trkpt>
      <trkpt lat="49.163191" lon="7.030968">
        <ele>242.0</ele>
        <time>2020-07-10T08:06:06Z</time>
      </trkpt>
      <trkpt lat="49.16309" lon="7.031012">
        <ele>242.0</ele>
        <time>2020-07-10T08:06:08Z</time>
      </trkpt>
      <trkpt lat="49.162993" lon="7.031056">
        <ele>242.0</ele>
        <time>2020-07-10T08:06:10Z</time>
      </trkpt>
      <trkpt lat="49.162892" lon="7.031103">
        <ele>242.0</ele>
        <time>2020-07-10T08:06:12Z</time>
      </trkpt>
      <trkpt lat="49.162793" lon="7.031165">
        <ele>242.0</ele>
        <time>2020-07-10T08:06:14Z</time>
      </trkpt>
      <trkpt lat="49.16269" lon="7.031207">
        <ele>243.0</ele>
        <time>2020-07-10T08:06:16Z</time>
      </trkpt>
      <trkpt lat="49.162587" lon="7.031258">
        <ele>243.0</ele>
        <time>2020-07-10T08:06:18Z</time>
      </trkpt>
      <trkpt lat="49.16243" lon="7.031335">
        <ele>243.0</ele>
        <time>2020-07-10T08:06:21Z</time>
      </trkpt>
      <trkpt lat="49.162325" lon="7.031383">
        <ele>242.0</ele>
        <time>2020-07-10T08:06:23Z</time>
      </trkpt>
      <trkpt lat="49.162225" lon="7.031447">
        <ele>242.0</ele>
        <time>2020-07-10T08:06:25Z</time>
      </trkpt>
      <trkpt lat="49.16212" lon="7.031506">
        <ele>242.0</ele>
        <time>2020-07-10T08:06:27Z</time>
      </trkpt>
      <trkpt lat="49.162014" lon="7.031569">
        <ele>241.0</ele>
        <time>2020-07-10T08:06:29Z</time>
      </trkpt>
      <trkpt lat="49.16191" lon="7.031614">
        <ele>241.0</ele>
        <time>2020-07-10T08:06:31Z</time>
      </trkpt>
      <trkpt lat="49.1618" lon="7.031647">
        <ele>241.0</ele>
        <time>2020-07-10T08:06:33Z</time>
      </trkpt>
      <trkpt lat="49.16169" lon="7.031684">
        <ele>240.0</ele>
        <time>2020-07-10T08:06:35Z</time>
      </trkpt>
      <trkpt lat="49.161521" lon="7.03171">
        <ele>240.0</ele>
        <time>2020-07-10T08:06:38Z</time>
      </trkpt>
      <trkpt lat="49.161406" lon="7.031721">
        <ele>240.0</ele>
        <time>2020-07-10T08:06:40Z</time>
      </trkpt>
      <trkpt lat="49.161289" lon="7.031733">
        <ele>239.0</ele>
        <time>2020-07-10T08:06:42Z</time>
      </trkpt>
      <trkpt lat="49.161176" lon="7.031742">
        <ele>240.0</ele>
        <time>2020-07-10T08:06:44Z</time>
      </trkpt>
      <trkpt lat="49.161069" lon="7.031746">
        <ele>240.0</ele>
        <time>2020-07-10T08:06:46Z</time>
      </trkpt>
      <trkpt lat="49.160958" lon="7.031748">
        <ele>240.0</ele>
        <time>2020-07-10T08:06:48Z</time>
      </trkpt>
      <trkpt lat="49.160794" lon="7.031753">
        <ele>241.0</ele>
        <time>2020-07-10T08:06:51Z</time>
      </trkpt>
      <trkpt lat="49.160742" lon="7.031747">
        <ele>241.0</ele>
        <time>2020-07-10T08:06:52Z</time>
      </trkpt>
      <trkpt lat="49.160516" lon="7.031724">
        <ele>241.0</ele>
        <time>2020-07-10T08:06:56Z</time>
      </trkpt>
      <trkpt lat="49.160406" lon="7.031704">
        <ele>241.0</ele>
        <time>2020-07-10T08:06:58Z</time>
      </trkpt>
      <trkpt lat="49.160295" lon="7.031675">
        <ele>241.0</ele>
        <time>2020-07-10T08:07:00Z</time>
      </trkpt>
      <trkpt lat="49.160183" lon="7.031645">
        <ele>241.0</ele>
        <time>2020-07-10T08:07:02Z</time>
      </trkpt>
      <trkpt lat="49.160073" lon="7.031615">
        <ele>241.0</ele>
        <time>2020-07-10T08:07:04Z</time>
      </trkpt>
      <trkpt lat="49.15997" lon="7.031588">
        <ele>241.0</ele>
        <time>2020-07-10T08:07:06Z</time>
      </trkpt>
      <trkpt lat="49.159857" lon="7.031548">
        <ele>240.0</ele>
        <time>2020-07-10T08:07:08Z</time>
      </trkpt>
      <trkpt lat="49.159748" lon="7.031512">
        <ele>239.0</ele>
        <time>2020-07-10T08:07:10Z</time>
      </trkpt>
      <trkpt lat="49.159646" lon="7.031471">
        <ele>239.0</ele>
        <time>2020-07-10T08:07:12Z</time>
      </trkpt>
      <trkpt lat="49.159533" lon="7.031438">
        <ele>239.0</ele>
        <time>2020-07-10T08:07:14Z</time>
      </trkpt>
      <trkpt lat="49.159423" lon="7.031398">
        <ele>239.0</ele>
        <time>2020-07-10T08:07:16Z</time>
      </trkpt>
      <trkpt lat="49.159254" lon="7.031343">
        <ele>239.0</ele>
        <time>2020-07-10T08:07:19Z</time>
      </trkpt>
      <trkpt lat="49.159202" lon="7.031327">
        <ele>239.0</ele>
        <time>2020-07-10T08:07:20Z</time>
      </trkpt>
      <trkpt lat="49.15905" lon="7.031273">
        <ele>239.0</ele>
        <time>2020-07-10T08:07:23Z</time>
      </trkpt>
      <trkpt lat="49.15895" lon="7.031222">
        <ele>240.0</ele>
        <time>2020-07-10T08:07:25Z</time>
      </trkpt>
      <trkpt lat="49.158844" lon="7.031174">
        <ele>240.0</ele>
        <time>2020-07-10T08:07:27Z</time>
      </trkpt>
      <trkpt lat="49.15873" lon="7.031151">
        <ele>241.0</ele>
        <time>2020-07-10T08:07:29Z</time>
      </trkpt>
      <trkpt lat="49.158575" lon="7.031096">
        <ele>240.0</ele>
        <time>2020-07-10T08:07:32Z</time>
      </trkpt>
      <trkpt lat="49.158468" lon="7.031077">
        <ele>241.0</ele>
        <time>2020-07-10T08:07:34Z</time>
      </trkpt>
      <trkpt lat="49.158411" lon="7.031065">
        <ele>241.0</ele>
        <time>2020-07-10T08:07:35Z</time>
      </trkpt>
      <trkpt lat="49.158252" lon="7.031036">
        <ele>241.0</ele>
        <time>2020-07-10T08:07:38Z</time>
      </trkpt>
      <trkpt lat="49.158087" lon="7.031034">
        <ele>241.0</ele>
        <time>2020-07-10T08:07:41Z</time>
      </trkpt>
      <trkpt lat="49.158032" lon="7.031022">
        <ele>241.0</ele>
        <time>2020-07-10T08:07:42Z</time>
      </trkpt>
      <trkpt lat="49.157919" lon="7.031003">
        <ele>241.0</ele>
        <time>2020-07-10T08:07:44Z</time>
      </trkpt>
      <trkpt lat="49.157752" lon="7.031007">
        <ele>241.0</ele>
        <time>2020-07-10T08:07:47Z</time>
      </trkpt>
      <trkpt lat="49.157587" lon="7.031007">
        <ele>241.0</ele>
        <time>2020-07-10T08:07:50Z</time>
      </trkpt>
      <trkpt lat="49.15753" lon="7.031012">
        <ele>241.0</ele>
        <time>2020-07-10T08:07:51Z</time>
      </trkpt>
      <trkpt lat="49.15742" lon="7.031014">
        <ele>241.0</ele>
        <time>2020-07-10T08:07:53Z</time>
      </trkpt>
      <trkpt lat="49.157253" lon="7.031026">
        <ele>241.0</ele>
        <time>2020-07-10T08:07:56Z</time>
      </trkpt>
      <trkpt lat="49.157093" lon="7.031061">
        <ele>240.0</ele>
        <time>2020-07-10T08:07:59Z</time>
      </trkpt>
      <trkpt lat="49.156989" lon="7.031075">
        <ele>241.0</ele>
        <time>2020-07-10T08:08:01Z</time>
      </trkpt>
      <trkpt lat="49.156884" lon="7.031098">
        <ele>241.0</ele>
        <time>2020-07-10T08:08:03Z</time>
      </trkpt>
      <trkpt lat="49.156782" lon="7.031113">
        <ele>241.0</ele>
        <time>2020-07-10T08:08:05Z</time>
      </trkpt>
      <trkpt lat="49.156675" lon="7.031146">
        <ele>240.0</ele>
        <time>2020-07-10T08:08:07Z</time>
      </trkpt>
      <trkpt lat="49.156567" lon="7.031171">
        <ele>241.0</ele>
        <time>2020-07-10T08:08:09Z</time>
      </trkpt>
      <trkpt lat="49.156456" lon="7.031197">
        <ele>242.0</ele>
        <time>2020-07-10T08:08:11Z</time>
      </trkpt>
      <trkpt lat="49.156345" lon="7.031233">
        <ele>241.0</ele>
        <time>2020-07-10T08:08:13Z</time>
      </trkpt>
      <trkpt lat="49.156243" lon="7.031281">
        <ele>241.0</ele>
        <time>2020-07-10T08:08:15Z</time>
      </trkpt>
      <trkpt lat="49.156136" lon="7.031325">
        <ele>242.0</ele>
        <time>2020-07-10T08:08:17Z</time>
      </trkpt>
      <trkpt lat="49.156022" lon="7.031373">
        <ele>241.0</ele>
        <time>2020-07-10T08:08:19Z</time>
      </trkpt>
      <trkpt lat="49.155917" lon="7.031424">
        <ele>241.0</ele>
        <time>2020-07-10T08:08:21Z</time>
      </trkpt>
      <trkpt lat="49.155815" lon="7.031461">
        <ele>241.0</ele>
        <time>2020-07-10T08:08:23Z</time>
      </trkpt>
      <trkpt lat="49.155714" lon="7.031511">
        <ele>241.0</ele>
        <time>2020-07-10T08:08:25Z</time>
      </trkpt>
      <trkpt lat="49.155621" lon="7.031564">
        <ele>240.0</ele>
        <time>2020-07-10T08:08:27Z</time>
      </trkpt>
      <trkpt lat="49.155551" lon="7.031604">
        <ele>240.0</ele>
        <time>2020-07-10T08:08:29Z</time>
      </trkpt>
      <trkpt lat="49.15551" lon="7.031638">
        <ele>240.0</ele>
        <time>2020-07-10T08:08:31Z</time>
      </trkpt>
      <trkpt lat="49.15549" lon="7.031609">
        <ele>240.0</ele>
        <time>2020-07-10T08:08:33Z</time>
      </trkpt>
      <trkpt lat="49.155481" lon="7.031559">
        <ele>240.0</ele>
        <time>2020-07-10T08:08:35Z</time>
      </trkpt>
      <trkpt lat="49.155483" lon="7.031517">
        <ele>240.0</ele>
        <time>2020-07-10T08:08:37Z</time>
      </trkpt>
      <trkpt lat="49.155461" lon="7.031469">
        <ele>240.0</ele>
        <time>2020-07-10T08:08:39Z</time>
      </trkpt>
      <trkpt lat="49.155429" lon="7.031415">
        <ele>240.0</ele>
        <time>2020-07-10T08:08:41Z</time>
      </trkpt>
      <trkpt lat="49.155423" lon="7.031284">
        <ele>240.0</ele>
        <time>2020-07-10T08:08:44Z</time>
      </trkpt>
      <trkpt lat="49.155443" lon="7.031207">
        <ele>240.0</ele>
        <time>2020-07-10T08:08:46Z</time>
      </trkpt>
      <trkpt lat="49.155446" lon="7.031187">
        <ele>239.0</ele>
        <time>2020-07-10T08:08:47Z</time>
      </trkpt>
      <trkpt lat="49.155449" lon="7.031168">
        <ele>239.0</ele>
        <time>2020-07-10T08:08:49Z</time>
      </trkpt>
      <trkpt lat="49.155449" lon="7.031168">
        <ele>239.0</ele>
        <time>2020-07-10T08:08:52Z</time>
      </trkpt>
      <trkpt lat="49.155449" lon="7.031168">
        <ele>239.0</ele>
        <time>2020-07-10T08:08:54Z</time>
      </trkpt>
      <trkpt lat="49.155458" lon="7.031164">
        <ele>240.0</ele>
        <time>2020-07-10T08:30:22Z</time>
      </trkpt>
      <trkpt lat="49.155458" lon="7.031164">
        <ele>240.0</ele>
        <time>2020-07-10T08:30:24Z</time>
      </trkpt>
      <trkpt lat="49.155458" lon="7.031164">
        <ele>240.0</ele>
        <time>2020-07-10T08:30:26Z</time>
      </trkpt>
      <trkpt lat="49.155458" lon="7.031164">
        <ele>240.0</ele>
        <time>2020-07-10T08:30:28Z</time>
      </trkpt>
      <trkpt lat="49.155458" lon="7.031164">
        <ele>240.0</ele>
        <time>2020-07-10T08:30:30Z</time>
      </trkpt>
      <trkpt lat="49.155458" lon="7.031164">
        <ele>240.0</ele>
        <time>2020-07-10T08:30:32Z</time>
      </trkpt>
      <trkpt lat="49.155452" lon="7.031152">
        <ele>240.0</ele>
        <time>2020-07-10T08:30:34Z</time>
      </trkpt>
      <trkpt lat="49.15544" lon="7.031132">
        <ele>241.0</ele>
        <time>2020-07-10T08:30:36Z</time>
      </trkpt>
      <trkpt lat="49.155425" lon="7.031113">
        <ele>241.0</ele>
        <time>2020-07-10T08:30:38Z</time>
      </trkpt>
      <trkpt lat="49.155426" lon="7.031119">
        <ele>241.0</ele>
        <time>2020-07-10T08:30:40Z</time>
      </trkpt>
      <trkpt lat="49.155429" lon="7.031111">
        <ele>241.0</ele>
        <time>2020-07-10T08:30:42Z</time>
      </trkpt>
      <trkpt lat="49.155412" lon="7.031109">
        <ele>240.0</ele>
        <time>2020-07-10T08:30:44Z</time>
      </trkpt>
      <trkpt lat="49.155388" lon="7.031105">
        <ele>241.0</ele>
        <time>2020-07-10T08:30:46Z</time>
      </trkpt>
      <trkpt lat="49.155356" lon="7.031099">
        <ele>241.0</ele>
        <time>2020-07-10T08:30:48Z</time>
      </trkpt>
      <trkpt lat="49.155339" lon="7.031184">
        <ele>242.0</ele>
        <time>2020-07-10T08:30:51Z</time>
      </trkpt>
      <trkpt lat="49.155362" lon="7.031238">
        <ele>242.0</ele>
        <time>2020-07-10T08:30:53Z</time>
      </trkpt>
      <trkpt lat="49.155394" lon="7.031292">
        <ele>241.0</ele>
        <time>2020-07-10T08:30:55Z</time>
      </trkpt>
      <trkpt lat="49.155416" lon="7.031357">
        <ele>241.0</ele>
        <time>2020-07-10T08:30:57Z</time>
      </trkpt>
      <trkpt lat="49.155434" lon="7.03142">
        <ele>241.0</ele>
        <time>2020-07-10T08:30:59Z</time>
      </trkpt>
      <trkpt lat="49.155448" lon="7.031486">
        <ele>241.0</ele>
        <time>2020-07-10T08:31:01Z</time>
      </trkpt>
      <trkpt lat="49.155458" lon="7.031554">
        <ele>240.0</ele>
        <time>2020-07-10T08:31:03Z</time>
      </trkpt>
      <trkpt lat="49.15548" lon="7.0316">
        <ele>241.0</ele>
        <time>2020-07-10T08:31:05Z</time>
      </trkpt>
      <trkpt lat="49.155434" lon="7.031663">
        <ele>241.0</ele>
        <time>2020-07-10T08:31:07Z</time>
      </trkpt>
      <trkpt lat="49.15537" lon="7.031711">
        <ele>240.0</ele>
        <time>2020-07-10T08:31:09Z</time>
      </trkpt>
      <trkpt lat="49.155277" lon="7.031774">
        <ele>241.0</ele>
        <time>2020-07-10T08:31:12Z</time>
      </trkpt>
      <trkpt lat="49.155197" lon="7.031829">
        <ele>240.0</ele>
        <time>2020-07-10T08:31:14Z</time>
      </trkpt>
      <trkpt lat="49.155116" lon="7.031877">
        <ele>239.0</ele>
        <time>2020-07-10T08:31:16Z</time>
      </trkpt>
      <trkpt lat="49.15499" lon="7.031969">
        <ele>239.0</ele>
        <time>2020-07-10T08:31:19Z</time>
      </trkpt>
      <trkpt lat="49.154907" lon="7.032035">
        <ele>240.0</ele>
        <time>2020-07-10T08:31:21Z</time>
      </trkpt>
      <trkpt lat="49.154824" lon="7.032107">
        <ele>240.0</ele>
        <time>2020-07-10T08:31:23Z</time>
      </trkpt>
      <trkpt lat="49.154741" lon="7.032185">
        <ele>239.0</ele>
        <time>2020-07-10T08:31:25Z</time>
      </trkpt>
      <trkpt lat="49.154656" lon="7.032265">
        <ele>240.0</ele>
        <time>2020-07-10T08:31:27Z</time>
      </trkpt>
      <trkpt lat="49.154573" lon="7.032337">
        <ele>239.0</ele>
        <time>2020-07-10T08:31:29Z</time>
      </trkpt>
      <trkpt lat="49.154492" lon="7.032416">
        <ele>240.0</ele>
        <time>2020-07-10T08:31:31Z</time>
      </trkpt>
      <trkpt lat="49.154358" lon="7.032554">
        <ele>239.0</ele>
        <time>2020-07-10T08:31:34Z</time>
      </trkpt>
      <trkpt lat="49.154277" lon="7.032646">
        <ele>239.0</ele>
        <time>2020-07-10T08:31:36Z</time>
      </trkpt>
      <trkpt lat="49.154236" lon="7.032694">
        <ele>239.0</ele>
        <time>2020-07-10T08:31:37Z</time>
      </trkpt>
      <trkpt lat="49.154114" lon="7.032835">
        <ele>239.0</ele>
        <time>2020-07-10T08:31:40Z</time>
      </trkpt>
      <trkpt lat="49.153991" lon="7.032987">
        <ele>239.0</ele>
        <time>2020-07-10T08:31:43Z</time>
      </trkpt>
      <trkpt lat="49.153903" lon="7.033093">
        <ele>239.0</ele>
        <time>2020-07-10T08:31:45Z</time>
      </trkpt>
      <trkpt lat="49.15382" lon="7.033201">
        <ele>239.0</ele>
        <time>2020-07-10T08:31:47Z</time>
      </trkpt>
      <trkpt lat="49.15374" lon="7.033318">
        <ele>239.0</ele>
        <time>2020-07-10T08:31:49Z</time>
      </trkpt>
      <trkpt lat="49.153657" lon="7.033435">
        <ele>239.0</ele>
        <time>2020-07-10T08:31:51Z</time>
      </trkpt>
      <trkpt lat="49.153579" lon="7.033561">
        <ele>239.0</ele>
        <time>2020-07-10T08:31:53Z</time>
      </trkpt>
      <trkpt lat="49.153541" lon="7.033621">
        <ele>239.0</ele>
        <time>2020-07-10T08:31:54Z</time>
      </trkpt>
      <trkpt lat="49.153446" lon="7.033811">
        <ele>239.0</ele>
        <time>2020-07-10T08:31:57Z</time>
      </trkpt>
      <trkpt lat="49.153376" lon="7.033941">
        <ele>240.0</ele>
        <time>2020-07-10T08:31:59Z</time>
      </trkpt>
      <trkpt lat="49.153312" lon="7.03406">
        <ele>240.0</ele>
        <time>2020-07-10T08:32:01Z</time>
      </trkpt>
      <trkpt lat="49.153281" lon="7.034118">
        <ele>240.0</ele>
        <time>2020-07-10T08:32:02Z</time>
      </trkpt>
      <trkpt lat="49.15318" lon="7.034297">
        <ele>240.0</ele>
        <time>2020-07-10T08:32:05Z</time>
      </trkpt>
      <trkpt lat="49.153109" lon="7.034422">
        <ele>240.0</ele>
        <time>2020-07-10T08:32:07Z</time>
      </trkpt>
      <trkpt lat="49.153032" lon="7.034544">
        <ele>240.0</ele>
        <time>2020-07-10T08:32:09Z</time>
      </trkpt>
      <trkpt lat="49.152946" lon="7.034635">
        <ele>241.0</ele>
        <time>2020-07-10T08:32:11Z</time>
      </trkpt>
      <trkpt lat="49.152862" lon="7.034719">
        <ele>242.0</ele>
        <time>2020-07-10T08:32:13Z</time>
      </trkpt>
      <trkpt lat="49.152787" lon="7.034799">
        <ele>243.0</ele>
        <time>2020-07-10T08:32:15Z</time>
      </trkpt>
      <trkpt lat="49.152672" lon="7.034895">
        <ele>243.0</ele>
        <time>2020-07-10T08:32:18Z</time>
      </trkpt>
      <trkpt lat="49.152606" lon="7.034962">
        <ele>243.0</ele>
        <time>2020-07-10T08:32:20Z</time>
      </trkpt>
      <trkpt lat="49.152574" lon="7.034988">
        <ele>244.0</ele>
        <time>2020-07-10T08:32:21Z</time>
      </trkpt>
      <trkpt lat="49.152509" lon="7.035048">
        <ele>243.0</ele>
        <time>2020-07-10T08:32:23Z</time>
      </trkpt>
      <trkpt lat="49.152405" lon="7.035145">
        <ele>243.0</ele>
        <time>2020-07-10T08:32:26Z</time>
      </trkpt>
      <trkpt lat="49.152334" lon="7.035223">
        <ele>243.0</ele>
        <time>2020-07-10T08:32:28Z</time>
      </trkpt>
      <trkpt lat="49.152256" lon="7.035298">
        <ele>244.0</ele>
        <time>2020-07-10T08:32:30Z</time>
      </trkpt>
      <trkpt lat="49.152178" lon="7.03537">
        <ele>244.0</ele>
        <time>2020-07-10T08:32:32Z</time>
      </trkpt>
      <trkpt lat="49.152062" lon="7.03549">
        <ele>243.0</ele>
        <time>2020-07-10T08:32:35Z</time>
      </trkpt>
      <trkpt lat="49.151982" lon="7.035571">
        <ele>244.0</ele>
        <time>2020-07-10T08:32:37Z</time>
      </trkpt>
      <trkpt lat="49.151902" lon="7.035646">
        <ele>244.0</ele>
        <time>2020-07-10T08:32:39Z</time>
      </trkpt>
      <trkpt lat="49.151776" lon="7.035774">
        <ele>244.0</ele>
        <time>2020-07-10T08:32:42Z</time>
      </trkpt>
      <trkpt lat="49.151692" lon="7.035842">
        <ele>244.0</ele>
        <time>2020-07-10T08:32:44Z</time>
      </trkpt>
      <trkpt lat="49.15158" lon="7.035946">
        <ele>245.0</ele>
        <time>2020-07-10T08:32:47Z</time>
      </trkpt>
      <trkpt lat="49.1515" lon="7.036019">
        <ele>245.0</ele>
        <time>2020-07-10T08:32:49Z</time>
      </trkpt>
      <trkpt lat="49.151415" lon="7.036099">
        <ele>244.0</ele>
        <time>2020-07-10T08:32:51Z</time>
      </trkpt>
      <trkpt lat="49.151373" lon="7.036136">
        <ele>245.0</ele>
        <time>2020-07-10T08:32:52Z</time>
      </trkpt>
      <trkpt lat="49.151246" lon="7.036258">
        <ele>245.0</ele>
        <time>2020-07-10T08:32:55Z</time>
      </trkpt>
      <trkpt lat="49.151165" lon="7.036343">
        <ele>246.0</ele>
        <time>2020-07-10T08:32:57Z</time>
      </trkpt>
      <trkpt lat="49.151087" lon="7.036429">
        <ele>245.0</ele>
        <time>2020-07-10T08:32:59Z</time>
      </trkpt>
      <trkpt lat="49.151007" lon="7.036509">
        <ele>245.0</ele>
        <time>2020-07-10T08:33:01Z</time>
      </trkpt>
      <trkpt lat="49.15093" lon="7.036589">
        <ele>245.0</ele>
        <time>2020-07-10T08:33:03Z</time>
      </trkpt>
      <trkpt lat="49.150851" lon="7.036668">
        <ele>245.0</ele>
        <time>2020-07-10T08:33:05Z</time>
      </trkpt>
      <trkpt lat="49.150786" lon="7.036751">
        <ele>245.0</ele>
        <time>2020-07-10T08:33:07Z</time>
      </trkpt>
      <trkpt lat="49.150697" lon="7.03685">
        <ele>245.0</ele>
        <time>2020-07-10T08:33:09Z</time>
      </trkpt>
      <trkpt lat="49.150599" lon="7.036944">
        <ele>245.0</ele>
        <time>2020-07-10T08:33:11Z</time>
      </trkpt>
      <trkpt lat="49.150507" lon="7.037029">
        <ele>245.0</ele>
        <time>2020-07-10T08:33:13Z</time>
      </trkpt>
      <trkpt lat="49.150417" lon="7.037119">
        <ele>245.0</ele>
        <time>2020-07-10T08:33:15Z</time>
      </trkpt>
      <trkpt lat="49.150326" lon="7.037201">
        <ele>245.0</ele>
        <time>2020-07-10T08:33:17Z</time>
      </trkpt>
      <trkpt lat="49.150231" lon="7.03728">
        <ele>245.0</ele>
        <time>2020-07-10T08:33:19Z</time>
      </trkpt>
      <trkpt lat="49.150143" lon="7.037373">
        <ele>244.0</ele>
        <time>2020-07-10T08:33:21Z</time>
      </trkpt>
      <trkpt lat="49.150052" lon="7.037465">
        <ele>244.0</ele>
        <time>2020-07-10T08:33:23Z</time>
      </trkpt>
      <trkpt lat="49.149916" lon="7.037591">
        <ele>244.0</ele>
        <time>2020-07-10T08:33:26Z</time>
      </trkpt>
      <trkpt lat="49.14987" lon="7.037635">
        <ele>244.0</ele>
        <time>2020-07-10T08:33:27Z</time>
      </trkpt>
      <trkpt lat="49.149734" lon="7.037769">
        <ele>244.0</ele>
        <time>2020-07-10T08:33:30Z</time>
      </trkpt>
      <trkpt lat="49.149635" lon="7.037848">
        <ele>245.0</ele>
        <time>2020-07-10T08:33:32Z</time>
      </trkpt>
      <trkpt lat="49.149492" lon="7.037911">
        <ele>245.0</ele>
        <time>2020-07-10T08:33:35Z</time>
      </trkpt>
      <trkpt lat="49.149396" lon="7.037962">
        <ele>245.0</ele>
        <time>2020-07-10T08:33:37Z</time>
      </trkpt>
      <trkpt lat="49.149347" lon="7.037986">
        <ele>245.0</ele>
        <time>2020-07-10T08:33:38Z</time>
      </trkpt>
      <trkpt lat="49.149176" lon="7.038083">
        <ele>244.0</ele>
        <time>2020-07-10T08:33:41Z</time>
      </trkpt>
      <trkpt lat="49.149051" lon="7.038177">
        <ele>245.0</ele>
        <time>2020-07-10T08:33:43Z</time>
      </trkpt>
      <trkpt lat="49.14893" lon="7.038274">
        <ele>245.0</ele>
        <time>2020-07-10T08:33:45Z</time>
      </trkpt>
      <trkpt lat="49.148824" lon="7.038374">
        <ele>245.0</ele>
        <time>2020-07-10T08:33:47Z</time>
      </trkpt>
      <trkpt lat="49.148722" lon="7.038469">
        <ele>245.0</ele>
        <time>2020-07-10T08:33:49Z</time>
      </trkpt>
      <trkpt lat="49.148625" lon="7.03857">
        <ele>244.0</ele>
        <time>2020-07-10T08:33:51Z</time>
      </trkpt>
      <trkpt lat="49.148527" lon="7.038674">
        <ele>244.0</ele>
        <time>2020-07-10T08:33:53Z</time>
      </trkpt>
      <trkpt lat="49.148432" lon="7.038787">
        <ele>243.0</ele>
        <time>2020-07-10T08:33:55Z</time>
      </trkpt>
      <trkpt lat="49.148289" lon="7.038964">
        <ele>242.0</ele>
        <time>2020-07-10T08:33:58Z</time>
      </trkpt>
      <trkpt lat="49.148185" lon="7.03908">
        <ele>241.0</ele>
        <time>2020-07-10T08:34:00Z</time>
      </trkpt>
      <trkpt lat="49.14809" lon="7.039196">
        <ele>241.0</ele>
        <time>2020-07-10T08:34:02Z</time>
      </trkpt>
      <trkpt lat="49.147997" lon="7.039316">
        <ele>241.0</ele>
        <time>2020-07-10T08:34:04Z</time>
      </trkpt>
      <trkpt lat="49.147948" lon="7.039377">
        <ele>241.0</ele>
        <time>2020-07-10T08:34:05Z</time>
      </trkpt>
      <trkpt lat="49.147815" lon="7.039561">
        <ele>241.0</ele>
        <time>2020-07-10T08:34:08Z</time>
      </trkpt>
      <trkpt lat="49.147729" lon="7.039688">
        <ele>240.0</ele>
        <time>2020-07-10T08:34:10Z</time>
      </trkpt>
      <trkpt lat="49.147596" lon="7.039879">
        <ele>239.0</ele>
        <time>2020-07-10T08:34:13Z</time>
      </trkpt>
      <trkpt lat="49.147559" lon="7.039956">
        <ele>239.0</ele>
        <time>2020-07-10T08:34:14Z</time>
      </trkpt>
      <trkpt lat="49.147435" lon="7.040165">
        <ele>239.0</ele>
        <time>2020-07-10T08:34:17Z</time>
      </trkpt>
      <trkpt lat="49.147353" lon="7.040291">
        <ele>240.0</ele>
        <time>2020-07-10T08:34:19Z</time>
      </trkpt>
      <trkpt lat="49.147262" lon="7.04041">
        <ele>240.0</ele>
        <time>2020-07-10T08:34:21Z</time>
      </trkpt>
      <trkpt lat="49.147168" lon="7.040529">
        <ele>240.0</ele>
        <time>2020-07-10T08:34:23Z</time>
      </trkpt>
      <trkpt lat="49.147025" lon="7.040689">
        <ele>239.0</ele>
        <time>2020-07-10T08:34:26Z</time>
      </trkpt>
      <trkpt lat="49.146979" lon="7.04074">
        <ele>239.0</ele>
        <time>2020-07-10T08:34:27Z</time>
      </trkpt>
      <trkpt lat="49.146843" lon="7.040901">
        <ele>239.0</ele>
        <time>2020-07-10T08:34:30Z</time>
      </trkpt>
      <trkpt lat="49.14675" lon="7.04101">
        <ele>240.0</ele>
        <time>2020-07-10T08:34:32Z</time>
      </trkpt>
      <trkpt lat="49.146651" lon="7.041116">
        <ele>240.0</ele>
        <time>2020-07-10T08:34:34Z</time>
      </trkpt>
      <trkpt lat="49.146497" lon="7.041249">
        <ele>240.0</ele>
        <time>2020-07-10T08:34:37Z</time>
      </trkpt>
      <trkpt lat="49.146393" lon="7.041316">
        <ele>240.0</ele>
        <time>2020-07-10T08:34:39Z</time>
      </trkpt>
      <trkpt lat="49.146288" lon="7.041384">
        <ele>240.0</ele>
        <time>2020-07-10T08:34:41Z</time>
      </trkpt>
      <trkpt lat="49.146182" lon="7.041454">
        <ele>240.0</ele>
        <time>2020-07-10T08:34:43Z</time>
      </trkpt>
      <trkpt lat="49.14613" lon="7.041483">
        <ele>240.0</ele>
        <time>2020-07-10T08:34:44Z</time>
      </trkpt>
      <trkpt lat="49.145974" lon="7.041545">
        <ele>240.0</ele>
        <time>2020-07-10T08:34:47Z</time>
      </trkpt>
      <trkpt lat="49.145856" lon="7.041585">
        <ele>240.0</ele>
        <time>2020-07-10T08:34:49Z</time>
      </trkpt>
      <trkpt lat="49.145746" lon="7.041648">
        <ele>240.0</ele>
        <time>2020-07-10T08:34:51Z</time>
      </trkpt>
      <trkpt lat="49.145584" lon="7.041727">
        <ele>240.0</ele>
        <time>2020-07-10T08:34:54Z</time>
      </trkpt>
      <trkpt lat="49.14547" lon="7.041774">
        <ele>240.0</ele>
        <time>2020-07-10T08:34:56Z</time>
      </trkpt>
      <trkpt lat="49.145361" lon="7.041821">
        <ele>240.0</ele>
        <time>2020-07-10T08:34:58Z</time>
      </trkpt>
      <trkpt lat="49.145192" lon="7.0419">
        <ele>240.0</ele>
        <time>2020-07-10T08:35:01Z</time>
      </trkpt>
      <trkpt lat="49.145138" lon="7.041925">
        <ele>240.0</ele>
        <time>2020-07-10T08:35:02Z</time>
      </trkpt>
      <trkpt lat="49.144967" lon="7.042">
        <ele>240.0</ele>
        <time>2020-07-10T08:35:05Z</time>
      </trkpt>
      <trkpt lat="49.144799" lon="7.042098">
        <ele>241.0</ele>
        <time>2020-07-10T08:35:08Z</time>
      </trkpt>
      <trkpt lat="49.144633" lon="7.042183">
        <ele>241.0</ele>
        <time>2020-07-10T08:35:11Z</time>
      </trkpt>
      <trkpt lat="49.144529" lon="7.042232">
        <ele>241.0</ele>
        <time>2020-07-10T08:35:13Z</time>
      </trkpt>
      <trkpt lat="49.144418" lon="7.042282">
        <ele>241.0</ele>
        <time>2020-07-10T08:35:15Z</time>
      </trkpt>
      <trkpt lat="49.144254" lon="7.042356">
        <ele>241.0</ele>
        <time>2020-07-10T08:35:18Z</time>
      </trkpt>
      <trkpt lat="49.144138" lon="7.04241">
        <ele>241.0</ele>
        <time>2020-07-10T08:35:20Z</time>
      </trkpt>
      <trkpt lat="49.144037" lon="7.042466">
        <ele>241.0</ele>
        <time>2020-07-10T08:35:22Z</time>
      </trkpt>
      <trkpt lat="49.143929" lon="7.042513">
        <ele>241.0</ele>
        <time>2020-07-10T08:35:24Z</time>
      </trkpt>
      <trkpt lat="49.143819" lon="7.042568">
        <ele>241.0</ele>
        <time>2020-07-10T08:35:26Z</time>
      </trkpt>
      <trkpt lat="49.143717" lon="7.042628">
        <ele>241.0</ele>
        <time>2020-07-10T08:35:28Z</time>
      </trkpt>
      <trkpt lat="49.14361" lon="7.042676">
        <ele>241.0</ele>
        <time>2020-07-10T08:35:30Z</time>
      </trkpt>
      <trkpt lat="49.143452" lon="7.042737">
        <ele>240.0</ele>
        <time>2020-07-10T08:35:33Z</time>
      </trkpt>
      <trkpt lat="49.143347" lon="7.04279">
        <ele>241.0</ele>
        <time>2020-07-10T08:35:35Z</time>
      </trkpt>
      <trkpt lat="49.143246" lon="7.042837">
        <ele>241.0</ele>
        <time>2020-07-10T08:35:37Z</time>
      </trkpt>
      <trkpt lat="49.143135" lon="7.04289">
        <ele>242.0</ele>
        <time>2020-07-10T08:35:39Z</time>
      </trkpt>
      <trkpt lat="49.143078" lon="7.042918">
        <ele>242.0</ele>
        <time>2020-07-10T08:35:40Z</time>
      </trkpt>
      <trkpt lat="49.142925" lon="7.042991">
        <ele>242.0</ele>
        <time>2020-07-10T08:35:43Z</time>
      </trkpt>
      <trkpt lat="49.142823" lon="7.043037">
        <ele>242.0</ele>
        <time>2020-07-10T08:35:45Z</time>
      </trkpt>
      <trkpt lat="49.142663" lon="7.04311">
        <ele>242.0</ele>
        <time>2020-07-10T08:35:48Z</time>
      </trkpt>
      <trkpt lat="49.142613" lon="7.043129">
        <ele>242.0</ele>
        <time>2020-07-10T08:35:49Z</time>
      </trkpt>
      <trkpt lat="49.142451" lon="7.043207">
        <ele>242.0</ele>
        <time>2020-07-10T08:35:52Z</time>
      </trkpt>
      <trkpt lat="49.142344" lon="7.043261">
        <ele>242.0</ele>
        <time>2020-07-10T08:35:54Z</time>
      </trkpt>
      <trkpt lat="49.142178" lon="7.043346">
        <ele>242.0</ele>
        <time>2020-07-10T08:35:57Z</time>
      </trkpt>
      <trkpt lat="49.142069" lon="7.043404">
        <ele>242.0</ele>
        <time>2020-07-10T08:35:59Z</time>
      </trkpt>
      <trkpt lat="49.141958" lon="7.043464">
        <ele>242.0</ele>
        <time>2020-07-10T08:36:01Z</time>
      </trkpt>
      <trkpt lat="49.14185" lon="7.043519">
        <ele>242.0</ele>
        <time>2020-07-10T08:36:03Z</time>
      </trkpt>
      <trkpt lat="49.141744" lon="7.043583">
        <ele>242.0</ele>
        <time>2020-07-10T08:36:05Z</time>
      </trkpt>
      <trkpt lat="49.141632" lon="7.043649">
        <ele>242.0</ele>
        <time>2020-07-10T08:36:07Z</time>
      </trkpt>
      <trkpt lat="49.141533" lon="7.043713">
        <ele>242.0</ele>
        <time>2020-07-10T08:36:09Z</time>
      </trkpt>
      <trkpt lat="49.141436" lon="7.043773">
        <ele>242.0</ele>
        <time>2020-07-10T08:36:11Z</time>
      </trkpt>
      <trkpt lat="49.14133" lon="7.043841">
        <ele>242.0</ele>
        <time>2020-07-10T08:36:13Z</time>
      </trkpt>
      <trkpt lat="49.141222" lon="7.043907">
        <ele>242.0</ele>
        <time>2020-07-10T08:36:15Z</time>
      </trkpt>
      <trkpt lat="49.141118" lon="7.043975">
        <ele>242.0</ele>
        <time>2020-07-10T08:36:17Z</time>
      </trkpt>
      <trkpt lat="49.141015" lon="7.044045">
        <ele>242.0</ele>
        <time>2020-07-10T08:36:19Z</time>
      </trkpt>
      <trkpt lat="49.140911" lon="7.044115">
        <ele>242.0</ele>
        <time>2020-07-10T08:36:21Z</time>
      </trkpt>
      <trkpt lat="49.140806" lon="7.044171">
        <ele>242.0</ele>
        <time>2020-07-10T08:36:23Z</time>
      </trkpt>
      <trkpt lat="49.140655" lon="7.044265">
        <ele>242.0</ele>
        <time>2020-07-10T08:36:26Z</time>
      </trkpt>
      <trkpt lat="49.140556" lon="7.044321">
        <ele>242.0</ele>
        <time>2020-07-10T08:36:28Z</time>
      </trkpt>
      <trkpt lat="49.140394" lon="7.04441">
        <ele>242.0</ele>
        <time>2020-07-10T08:36:31Z</time>
      </trkpt>
      <trkpt lat="49.140295" lon="7.044474">
        <ele>242.0</ele>
        <time>2020-07-10T08:36:33Z</time>
      </trkpt>
      <trkpt lat="49.140197" lon="7.044546">
        <ele>242.0</ele>
        <time>2020-07-10T08:36:35Z</time>
      </trkpt>
      <trkpt lat="49.14" lon="7.044672">
        <ele>242.0</ele>
        <time>2020-07-10T08:36:39Z</time>
      </trkpt>
      <trkpt lat="49.139896" lon="7.04474">
        <ele>242.0</ele>
        <time>2020-07-10T08:36:41Z</time>
      </trkpt>
      <trkpt lat="49.13974" lon="7.044848">
        <ele>242.0</ele>
        <time>2020-07-10T08:36:44Z</time>
      </trkpt>
      <trkpt lat="49.139643" lon="7.044916">
        <ele>242.0</ele>
        <time>2020-07-10T08:36:46Z</time>
      </trkpt>
      <trkpt lat="49.139544" lon="7.044987">
        <ele>241.0</ele>
        <time>2020-07-10T08:36:48Z</time>
      </trkpt>
      <trkpt lat="49.139448" lon="7.045051">
        <ele>241.0</ele>
        <time>2020-07-10T08:36:50Z</time>
      </trkpt>
      <trkpt lat="49.139294" lon="7.045137">
        <ele>241.0</ele>
        <time>2020-07-10T08:36:53Z</time>
      </trkpt>
      <trkpt lat="49.139191" lon="7.045199">
        <ele>241.0</ele>
        <time>2020-07-10T08:36:55Z</time>
      </trkpt>
      <trkpt lat="49.139089" lon="7.045274">
        <ele>241.0</ele>
        <time>2020-07-10T08:36:57Z</time>
      </trkpt>
      <trkpt lat="49.13899" lon="7.045357">
        <ele>241.0</ele>
        <time>2020-07-10T08:36:59Z</time>
      </trkpt>
      <trkpt lat="49.138944" lon="7.045405">
        <ele>241.0</ele>
        <time>2020-07-10T08:37:00Z</time>
      </trkpt>
      <trkpt lat="49.138756" lon="7.045576">
        <ele>241.0</ele>
        <time>2020-07-10T08:37:04Z</time>
      </trkpt>
      <trkpt lat="49.13866" lon="7.045646">
        <ele>241.0</ele>
        <time>2020-07-10T08:37:06Z</time>
      </trkpt>
      <trkpt lat="49.138558" lon="7.045698">
        <ele>241.0</ele>
        <time>2020-07-10T08:37:08Z</time>
      </trkpt>
      <trkpt lat="49.138454" lon="7.045754">
        <ele>242.0</ele>
        <time>2020-07-10T08:37:10Z</time>
      </trkpt>
      <trkpt lat="49.138348" lon="7.045794">
        <ele>242.0</ele>
        <time>2020-07-10T08:37:12Z</time>
      </trkpt>
      <trkpt lat="49.138179" lon="7.045862">
        <ele>242.0</ele>
        <time>2020-07-10T08:37:15Z</time>
      </trkpt>
      <trkpt lat="49.138123" lon="7.045887">
        <ele>242.0</ele>
        <time>2020-07-10T08:37:16Z</time>
      </trkpt>
      <trkpt lat="49.137948" lon="7.045949">
        <ele>242.0</ele>
        <time>2020-07-10T08:37:19Z</time>
      </trkpt>
      <trkpt lat="49.137838" lon="7.045992">
        <ele>242.0</ele>
        <time>2020-07-10T08:37:21Z</time>
      </trkpt>
      <trkpt lat="49.137735" lon="7.046034">
        <ele>242.0</ele>
        <time>2020-07-10T08:37:23Z</time>
      </trkpt>
      <trkpt lat="49.137567" lon="7.046093">
        <ele>241.0</ele>
        <time>2020-07-10T08:37:26Z</time>
      </trkpt>
      <trkpt lat="49.137461" lon="7.046141">
        <ele>241.0</ele>
        <time>2020-07-10T08:37:28Z</time>
      </trkpt>
      <trkpt lat="49.137411" lon="7.046163">
        <ele>241.0</ele>
        <time>2020-07-10T08:37:29Z</time>
      </trkpt>
      <trkpt lat="49.137254" lon="7.046237">
        <ele>240.0</ele>
        <time>2020-07-10T08:37:32Z</time>
      </trkpt>
      <trkpt lat="49.137151" lon="7.046281">
        <ele>241.0</ele>
        <time>2020-07-10T08:37:34Z</time>
      </trkpt>
      <trkpt lat="49.137045" lon="7.046331">
        <ele>241.0</ele>
        <time>2020-07-10T08:37:36Z</time>
      </trkpt>
      <trkpt lat="49.136935" lon="7.046381">
        <ele>241.0</ele>
        <time>2020-07-10T08:37:38Z</time>
      </trkpt>
      <trkpt lat="49.136775" lon="7.046433">
        <ele>241.0</ele>
        <time>2020-07-10T08:37:41Z</time>
      </trkpt>
      <trkpt lat="49.13667" lon="7.046461">
        <ele>241.0</ele>
        <time>2020-07-10T08:37:43Z</time>
      </trkpt>
      <trkpt lat="49.136569" lon="7.046483">
        <ele>242.0</ele>
        <time>2020-07-10T08:37:45Z</time>
      </trkpt>
      <trkpt lat="49.136464" lon="7.046519">
        <ele>242.0</ele>
        <time>2020-07-10T08:37:47Z</time>
      </trkpt>
      <trkpt lat="49.136359" lon="7.046549">
        <ele>242.0</ele>
        <time>2020-07-10T08:37:49Z</time>
      </trkpt>
      <trkpt lat="49.136245" lon="7.04657">
        <ele>242.0</ele>
        <time>2020-07-10T08:37:51Z</time>
      </trkpt>
      <trkpt lat="49.136139" lon="7.046588">
        <ele>242.0</ele>
        <time>2020-07-10T08:37:53Z</time>
      </trkpt>
      <trkpt lat="49.136025" lon="7.046588">
        <ele>242.0</ele>
        <time>2020-07-10T08:37:55Z</time>
      </trkpt>
      <trkpt lat="49.135863" lon="7.046572">
        <ele>243.0</ele>
        <time>2020-07-10T08:37:58Z</time>
      </trkpt>
      <trkpt lat="49.135807" lon="7.046564">
        <ele>243.0</ele>
        <time>2020-07-10T08:37:59Z</time>
      </trkpt>
      <trkpt lat="49.135644" lon="7.046555">
        <ele>243.0</ele>
        <time>2020-07-10T08:38:02Z</time>
      </trkpt>
      <trkpt lat="49.135472" lon="7.046544">
        <ele>243.0</ele>
        <time>2020-07-10T08:38:05Z</time>
      </trkpt>
      <trkpt lat="49.135358" lon="7.046535">
        <ele>243.0</ele>
        <time>2020-07-10T08:38:07Z</time>
      </trkpt>
      <trkpt lat="49.135306" lon="7.046532">
        <ele>243.0</ele>
        <time>2020-07-10T08:38:08Z</time>
      </trkpt>
      <trkpt lat="49.135083" lon="7.046496">
        <ele>242.0</ele>
        <time>2020-07-10T08:38:12Z</time>
      </trkpt>
      <trkpt lat="49.134976" lon="7.046477">
        <ele>242.0</ele>
        <time>2020-07-10T08:38:14Z</time>
      </trkpt>
      <trkpt lat="49.134871" lon="7.046445">
        <ele>242.0</ele>
        <time>2020-07-10T08:38:16Z</time>
      </trkpt>
      <trkpt lat="49.134715" lon="7.046386">
        <ele>241.0</ele>
        <time>2020-07-10T08:38:19Z</time>
      </trkpt>
      <trkpt lat="49.134605" lon="7.046336">
        <ele>241.0</ele>
        <time>2020-07-10T08:38:21Z</time>
      </trkpt>
      <trkpt lat="49.134499" lon="7.046279">
        <ele>241.0</ele>
        <time>2020-07-10T08:38:23Z</time>
      </trkpt>
      <trkpt lat="49.134392" lon="7.046226">
        <ele>241.0</ele>
        <time>2020-07-10T08:38:25Z</time>
      </trkpt>
      <trkpt lat="49.134295" lon="7.04618">
        <ele>241.0</ele>
        <time>2020-07-10T08:38:27Z</time>
      </trkpt>
      <trkpt lat="49.134196" lon="7.04613">
        <ele>241.0</ele>
        <time>2020-07-10T08:38:29Z</time>
      </trkpt>
      <trkpt lat="49.13409" lon="7.046082">
        <ele>241.0</ele>
        <time>2020-07-10T08:38:31Z</time>
      </trkpt>
      <trkpt lat="49.133983" lon="7.046043">
        <ele>241.0</ele>
        <time>2020-07-10T08:38:33Z</time>
      </trkpt>
      <trkpt lat="49.133884" lon="7.045993">
        <ele>241.0</ele>
        <time>2020-07-10T08:38:35Z</time>
      </trkpt>
      <trkpt lat="49.133774" lon="7.04594">
        <ele>240.0</ele>
        <time>2020-07-10T08:38:37Z</time>
      </trkpt>
      <trkpt lat="49.133669" lon="7.045888">
        <ele>241.0</ele>
        <time>2020-07-10T08:38:39Z</time>
      </trkpt>
      <trkpt lat="49.13356" lon="7.045842">
        <ele>241.0</ele>
        <time>2020-07-10T08:38:41Z</time>
      </trkpt>
      <trkpt lat="49.133453" lon="7.045791">
        <ele>241.0</ele>
        <time>2020-07-10T08:38:43Z</time>
      </trkpt>
      <trkpt lat="49.133343" lon="7.045748">
        <ele>240.0</ele>
        <time>2020-07-10T08:38:45Z</time>
      </trkpt>
      <trkpt lat="49.133238" lon="7.045701">
        <ele>240.0</ele>
        <time>2020-07-10T08:38:47Z</time>
      </trkpt>
      <trkpt lat="49.133127" lon="7.045648">
        <ele>240.0</ele>
        <time>2020-07-10T08:38:49Z</time>
      </trkpt>
      <trkpt lat="49.133017" lon="7.045601">
        <ele>239.0</ele>
        <time>2020-07-10T08:38:51Z</time>
      </trkpt>
      <trkpt lat="49.132862" lon="7.045534">
        <ele>239.0</ele>
        <time>2020-07-10T08:38:54Z</time>
      </trkpt>
      <trkpt lat="49.132758" lon="7.045491">
        <ele>239.0</ele>
        <time>2020-07-10T08:38:56Z</time>
      </trkpt>
      <trkpt lat="49.132659" lon="7.04545">
        <ele>240.0</ele>
        <time>2020-07-10T08:38:58Z</time>
      </trkpt>
      <trkpt lat="49.132502" lon="7.04539">
        <ele>239.0</ele>
        <time>2020-07-10T08:39:01Z</time>
      </trkpt>
      <trkpt lat="49.132452" lon="7.045368">
        <ele>240.0</ele>
        <time>2020-07-10T08:39:02Z</time>
      </trkpt>
      <trkpt lat="49.132295" lon="7.045305">
        <ele>240.0</ele>
        <time>2020-07-10T08:39:05Z</time>
      </trkpt>
      <trkpt lat="49.132184" lon="7.045279">
        <ele>240.0</ele>
        <time>2020-07-10T08:39:07Z</time>
      </trkpt>
      <trkpt lat="49.13208" lon="7.045257">
        <ele>240.0</ele>
        <time>2020-07-10T08:39:09Z</time>
      </trkpt>
      <trkpt lat="49.131975" lon="7.04524">
        <ele>241.0</ele>
        <time>2020-07-10T08:39:11Z</time>
      </trkpt>
      <trkpt lat="49.131866" lon="7.045231">
        <ele>241.0</ele>
        <time>2020-07-10T08:39:13Z</time>
      </trkpt>
      <trkpt lat="49.131698" lon="7.045216">
        <ele>240.0</ele>
        <time>2020-07-10T08:39:16Z</time>
      </trkpt>
      <trkpt lat="49.131584" lon="7.045214">
        <ele>240.0</ele>
        <time>2020-07-10T08:39:18Z</time>
      </trkpt>
      <trkpt lat="49.131469" lon="7.045204">
        <ele>240.0</ele>
        <time>2020-07-10T08:39:20Z</time>
      </trkpt>
      <trkpt lat="49.131354" lon="7.045204">
        <ele>240.0</ele>
        <time>2020-07-10T08:39:22Z</time>
      </trkpt>
      <trkpt lat="49.131244" lon="7.045213">
        <ele>240.0</ele>
        <time>2020-07-10T08:39:24Z</time>
      </trkpt>
      <trkpt lat="49.131134" lon="7.045222">
        <ele>240.0</ele>
        <time>2020-07-10T08:39:26Z</time>
      </trkpt>
      <trkpt lat="49.131028" lon="7.045227">
        <ele>241.0</ele>
        <time>2020-07-10T08:39:28Z</time>
      </trkpt>
      <trkpt lat="49.130923" lon="7.04523">
        <ele>241.0</ele>
        <time>2020-07-10T08:39:30Z</time>
      </trkpt>
      <trkpt lat="49.130806" lon="7.045253">
        <ele>241.0</ele>
        <time>2020-07-10T08:39:32Z</time>
      </trkpt>
      <trkpt lat="49.130638" lon="7.045264">
        <ele>242.0</ele>
        <time>2020-07-10T08:39:35Z</time>
      </trkpt>
      <trkpt lat="49.130534" lon="7.04526">
        <ele>242.0</ele>
        <time>2020-07-10T08:39:37Z</time>
      </trkpt>
      <trkpt lat="49.130376" lon="7.045259">
        <ele>242.0</ele>
        <time>2020-07-10T08:39:40Z</time>
      </trkpt>
      <trkpt lat="49.13022" lon="7.04526">
        <ele>241.0</ele>
        <time>2020-07-10T08:39:43Z</time>
      </trkpt>
      <trkpt lat="49.130164" lon="7.045262">
        <ele>242.0</ele>
        <time>2020-07-10T08:39:44Z</time>
      </trkpt>
      <trkpt lat="49.130006" lon="7.045271">
        <ele>242.0</ele>
        <time>2020-07-10T08:39:47Z</time>
      </trkpt>
      <trkpt lat="49.129887" lon="7.045272">
        <ele>243.0</ele>
        <time>2020-07-10T08:39:49Z</time>
      </trkpt>
      <trkpt lat="49.12971" lon="7.045268">
        <ele>243.0</ele>
        <time>2020-07-10T08:39:52Z</time>
      </trkpt>
      <trkpt lat="49.129596" lon="7.045268">
        <ele>243.0</ele>
        <time>2020-07-10T08:39:54Z</time>
      </trkpt>
      <trkpt lat="49.129479" lon="7.045273">
        <ele>244.0</ele>
        <time>2020-07-10T08:39:56Z</time>
      </trkpt>
      <trkpt lat="49.129363" lon="7.045271">
        <ele>243.0</ele>
        <time>2020-07-10T08:39:58Z</time>
      </trkpt>
      <trkpt lat="49.12925" lon="7.045263">
        <ele>243.0</ele>
        <time>2020-07-10T08:40:00Z</time>
      </trkpt>
      <trkpt lat="49.129137" lon="7.045255">
        <ele>243.0</ele>
        <time>2020-07-10T08:40:02Z</time>
      </trkpt>
      <trkpt lat="49.12902" lon="7.045236">
        <ele>243.0</ele>
        <time>2020-07-10T08:40:04Z</time>
      </trkpt>
      <trkpt lat="49.128843" lon="7.045209">
        <ele>243.0</ele>
        <time>2020-07-10T08:40:07Z</time>
      </trkpt>
      <trkpt lat="49.128734" lon="7.045192">
        <ele>242.0</ele>
        <time>2020-07-10T08:40:09Z</time>
      </trkpt>
      <trkpt lat="49.128618" lon="7.045174">
        <ele>242.0</ele>
        <time>2020-07-10T08:40:11Z</time>
      </trkpt>
      <trkpt lat="49.1285" lon="7.045149">
        <ele>242.0</ele>
        <time>2020-07-10T08:40:13Z</time>
      </trkpt>
      <trkpt lat="49.12844" lon="7.045136">
        <ele>242.0</ele>
        <time>2020-07-10T08:40:14Z</time>
      </trkpt>
      <trkpt lat="49.128272" lon="7.045072">
        <ele>242.0</ele>
        <time>2020-07-10T08:40:17Z</time>
      </trkpt>
      <trkpt lat="49.128162" lon="7.045032">
        <ele>242.0</ele>
        <time>2020-07-10T08:40:19Z</time>
      </trkpt>
      <trkpt lat="49.128053" lon="7.044988">
        <ele>241.0</ele>
        <time>2020-07-10T08:40:21Z</time>
      </trkpt>
      <trkpt lat="49.127953" lon="7.044952">
        <ele>241.0</ele>
        <time>2020-07-10T08:40:23Z</time>
      </trkpt>
      <trkpt lat="49.127799" lon="7.044892">
        <ele>241.0</ele>
        <time>2020-07-10T08:40:26Z</time>
      </trkpt>
      <trkpt lat="49.127688" lon="7.044851">
        <ele>241.0</ele>
        <time>2020-07-10T08:40:28Z</time>
      </trkpt>
      <trkpt lat="49.12758" lon="7.044808">
        <ele>241.0</ele>
        <time>2020-07-10T08:40:30Z</time>
      </trkpt>
      <trkpt lat="49.127479" lon="7.044767">
        <ele>241.0</ele>
        <time>2020-07-10T08:40:32Z</time>
      </trkpt>
      <trkpt lat="49.127321" lon="7.044697">
        <ele>241.0</ele>
        <time>2020-07-10T08:40:35Z</time>
      </trkpt>
      <trkpt lat="49.127213" lon="7.044655">
        <ele>241.0</ele>
        <time>2020-07-10T08:40:37Z</time>
      </trkpt>
      <trkpt lat="49.127108" lon="7.044614">
        <ele>242.0</ele>
        <time>2020-07-10T08:40:39Z</time>
      </trkpt>
      <trkpt lat="49.126942" lon="7.044567">
        <ele>241.0</ele>
        <time>2020-07-10T08:40:42Z</time>
      </trkpt>
      <trkpt lat="49.126831" lon="7.044533">
        <ele>241.0</ele>
        <time>2020-07-10T08:40:44Z</time>
      </trkpt>
      <trkpt lat="49.12673" lon="7.0445">
        <ele>241.0</ele>
        <time>2020-07-10T08:40:46Z</time>
      </trkpt>
      <trkpt lat="49.126631" lon="7.044478">
        <ele>241.0</ele>
        <time>2020-07-10T08:40:48Z</time>
      </trkpt>
      <trkpt lat="49.126572" lon="7.044462">
        <ele>241.0</ele>
        <time>2020-07-10T08:40:49Z</time>
      </trkpt>
      <trkpt lat="49.126404" lon="7.04442">
        <ele>241.0</ele>
        <time>2020-07-10T08:40:52Z</time>
      </trkpt>
      <trkpt lat="49.1263" lon="7.044402">
        <ele>242.0</ele>
        <time>2020-07-10T08:40:54Z</time>
      </trkpt>
      <trkpt lat="49.126247" lon="7.04439">
        <ele>241.0</ele>
        <time>2020-07-10T08:40:55Z</time>
      </trkpt>
      <trkpt lat="49.126029" lon="7.044361">
        <ele>242.0</ele>
        <time>2020-07-10T08:40:59Z</time>
      </trkpt>
      <trkpt lat="49.125919" lon="7.044328">
        <ele>242.0</ele>
        <time>2020-07-10T08:41:01Z</time>
      </trkpt>
      <trkpt lat="49.125805" lon="7.044303">
        <ele>242.0</ele>
        <time>2020-07-10T08:41:03Z</time>
      </trkpt>
      <trkpt lat="49.125695" lon="7.044278">
        <ele>242.0</ele>
        <time>2020-07-10T08:41:05Z</time>
      </trkpt>
      <trkpt lat="49.125534" lon="7.044246">
        <ele>243.0</ele>
        <time>2020-07-10T08:41:08Z</time>
      </trkpt>
      <trkpt lat="49.125427" lon="7.044224">
        <ele>242.0</ele>
        <time>2020-07-10T08:41:10Z</time>
      </trkpt>
      <trkpt lat="49.125315" lon="7.044195">
        <ele>242.0</ele>
        <time>2020-07-10T08:41:12Z</time>
      </trkpt>
      <trkpt lat="49.125209" lon="7.044159">
        <ele>242.0</ele>
        <time>2020-07-10T08:41:14Z</time>
      </trkpt>
      <trkpt lat="49.125044" lon="7.044131">
        <ele>242.0</ele>
        <time>2020-07-10T08:41:17Z</time>
      </trkpt>
      <trkpt lat="49.124937" lon="7.044112">
        <ele>241.0</ele>
        <time>2020-07-10T08:41:19Z</time>
      </trkpt>
      <trkpt lat="49.124831" lon="7.04409">
        <ele>241.0</ele>
        <time>2020-07-10T08:41:21Z</time>
      </trkpt>
      <trkpt lat="49.12468" lon="7.044055">
        <ele>242.0</ele>
        <time>2020-07-10T08:41:24Z</time>
      </trkpt>
      <trkpt lat="49.124575" lon="7.044038">
        <ele>241.0</ele>
        <time>2020-07-10T08:41:26Z</time>
      </trkpt>
      <trkpt lat="49.124467" lon="7.04403">
        <ele>241.0</ele>
        <time>2020-07-10T08:41:28Z</time>
      </trkpt>
      <trkpt lat="49.124352" lon="7.044023">
        <ele>241.0</ele>
        <time>2020-07-10T08:41:30Z</time>
      </trkpt>
      <trkpt lat="49.124233" lon="7.044016">
        <ele>241.0</ele>
        <time>2020-07-10T08:41:32Z</time>
      </trkpt>
      <trkpt lat="49.124066" lon="7.044006">
        <ele>241.0</ele>
        <time>2020-07-10T08:41:35Z</time>
      </trkpt>
      <trkpt lat="49.12396" lon="7.043997">
        <ele>242.0</ele>
        <time>2020-07-10T08:41:37Z</time>
      </trkpt>
      <trkpt lat="49.123844" lon="7.04399">
        <ele>242.0</ele>
        <time>2020-07-10T08:41:39Z</time>
      </trkpt>
      <trkpt lat="49.123727" lon="7.043976">
        <ele>243.0</ele>
        <time>2020-07-10T08:41:41Z</time>
      </trkpt>
      <trkpt lat="49.12362" lon="7.043964">
        <ele>242.0</ele>
        <time>2020-07-10T08:41:43Z</time>
      </trkpt>
      <trkpt lat="49.123563" lon="7.043961">
        <ele>242.0</ele>
        <time>2020-07-10T08:41:44Z</time>
      </trkpt>
      <trkpt lat="49.123394" lon="7.043942">
        <ele>243.0</ele>
        <time>2020-07-10T08:41:47Z</time>
      </trkpt>
      <trkpt lat="49.123282" lon="7.043935">
        <ele>242.0</ele>
        <time>2020-07-10T08:41:49Z</time>
      </trkpt>
      <trkpt lat="49.123172" lon="7.043932">
        <ele>242.0</ele>
        <time>2020-07-10T08:41:51Z</time>
      </trkpt>
      <trkpt lat="49.123059" lon="7.043926">
        <ele>242.0</ele>
        <time>2020-07-10T08:41:53Z</time>
      </trkpt>
      <trkpt lat="49.122901" lon="7.043911">
        <ele>242.0</ele>
        <time>2020-07-10T08:41:56Z</time>
      </trkpt>
      <trkpt lat="49.122801" lon="7.043899">
        <ele>242.0</ele>
        <time>2020-07-10T08:41:58Z</time>
      </trkpt>
      <trkpt lat="49.122639" lon="7.043889">
        <ele>242.0</ele>
        <time>2020-07-10T08:42:01Z</time>
      </trkpt>
      <trkpt lat="49.122531" lon="7.043887">
        <ele>242.0</ele>
        <time>2020-07-10T08:42:03Z</time>
      </trkpt>
      <trkpt lat="49.12238" lon="7.04387">
        <ele>242.0</ele>
        <time>2020-07-10T08:42:06Z</time>
      </trkpt>
      <trkpt lat="49.122275" lon="7.043859">
        <ele>242.0</ele>
        <time>2020-07-10T08:42:08Z</time>
      </trkpt>
      <trkpt lat="49.122112" lon="7.043844">
        <ele>241.0</ele>
        <time>2020-07-10T08:42:11Z</time>
      </trkpt>
      <trkpt lat="49.121999" lon="7.043843">
        <ele>240.0</ele>
        <time>2020-07-10T08:42:13Z</time>
      </trkpt>
      <trkpt lat="49.121885" lon="7.043845">
        <ele>240.0</ele>
        <time>2020-07-10T08:42:15Z</time>
      </trkpt>
      <trkpt lat="49.121773" lon="7.043841">
        <ele>240.0</ele>
        <time>2020-07-10T08:42:17Z</time>
      </trkpt>
      <trkpt lat="49.121661" lon="7.043839">
        <ele>240.0</ele>
        <time>2020-07-10T08:42:19Z</time>
      </trkpt>
      <trkpt lat="49.121494" lon="7.043833">
        <ele>241.0</ele>
        <time>2020-07-10T08:42:22Z</time>
      </trkpt>
      <trkpt lat="49.121373" lon="7.043833">
        <ele>241.0</ele>
        <time>2020-07-10T08:42:24Z</time>
      </trkpt>
      <trkpt lat="49.121254" lon="7.043836">
        <ele>241.0</ele>
        <time>2020-07-10T08:42:26Z</time>
      </trkpt>
      <trkpt lat="49.121141" lon="7.043844">
        <ele>241.0</ele>
        <time>2020-07-10T08:42:28Z</time>
      </trkpt>
      <trkpt lat="49.121032" lon="7.043845">
        <ele>241.0</ele>
        <time>2020-07-10T08:42:30Z</time>
      </trkpt>
      <trkpt lat="49.120918" lon="7.043849">
        <ele>241.0</ele>
        <time>2020-07-10T08:42:32Z</time>
      </trkpt>
      <trkpt lat="49.120807" lon="7.043854">
        <ele>242.0</ele>
        <time>2020-07-10T08:42:34Z</time>
      </trkpt>
      <trkpt lat="49.120754" lon="7.043855">
        <ele>242.0</ele>
        <time>2020-07-10T08:42:35Z</time>
      </trkpt>
      <trkpt lat="49.120525" lon="7.043869">
        <ele>242.0</ele>
        <time>2020-07-10T08:42:39Z</time>
      </trkpt>
      <trkpt lat="49.120409" lon="7.043893">
        <ele>241.0</ele>
        <time>2020-07-10T08:42:41Z</time>
      </trkpt>
      <trkpt lat="49.1203" lon="7.043915">
        <ele>241.0</ele>
        <time>2020-07-10T08:42:43Z</time>
      </trkpt>
      <trkpt lat="49.12019" lon="7.043934">
        <ele>241.0</ele>
        <time>2020-07-10T08:42:45Z</time>
      </trkpt>
      <trkpt lat="49.120021" lon="7.043984">
        <ele>241.0</ele>
        <time>2020-07-10T08:42:48Z</time>
      </trkpt>
      <trkpt lat="49.119963" lon="7.043999">
        <ele>241.0</ele>
        <time>2020-07-10T08:42:49Z</time>
      </trkpt>
      <trkpt lat="49.119797" lon="7.044038">
        <ele>241.0</ele>
        <time>2020-07-10T08:42:52Z</time>
      </trkpt>
      <trkpt lat="49.119686" lon="7.044074">
        <ele>241.0</ele>
        <time>2020-07-10T08:42:54Z</time>
      </trkpt>
      <trkpt lat="49.119527" lon="7.044125">
        <ele>241.0</ele>
        <time>2020-07-10T08:42:57Z</time>
      </trkpt>
      <trkpt lat="49.119416" lon="7.044158">
        <ele>241.0</ele>
        <time>2020-07-10T08:42:59Z</time>
      </trkpt>
      <trkpt lat="49.119312" lon="7.04419">
        <ele>241.0</ele>
        <time>2020-07-10T08:43:01Z</time>
      </trkpt>
      <trkpt lat="49.119211" lon="7.044207">
        <ele>240.0</ele>
        <time>2020-07-10T08:43:03Z</time>
      </trkpt>
      <trkpt lat="49.119113" lon="7.044233">
        <ele>240.0</ele>
        <time>2020-07-10T08:43:05Z</time>
      </trkpt>
      <trkpt lat="49.119022" lon="7.044265">
        <ele>240.0</ele>
        <time>2020-07-10T08:43:07Z</time>
      </trkpt>
      <trkpt lat="49.118883" lon="7.0443">
        <ele>240.0</ele>
        <time>2020-07-10T08:43:10Z</time>
      </trkpt>
      <trkpt lat="49.118796" lon="7.044335">
        <ele>240.0</ele>
        <time>2020-07-10T08:43:12Z</time>
      </trkpt>
      <trkpt lat="49.118711" lon="7.044406">
        <ele>240.0</ele>
        <time>2020-07-10T08:43:14Z</time>
      </trkpt>
      <trkpt lat="49.118645" lon="7.04452">
        <ele>240.0</ele>
        <time>2020-07-10T08:43:16Z</time>
      </trkpt>
      <trkpt lat="49.118566" lon="7.044621">
        <ele>240.0</ele>
        <time>2020-07-10T08:43:18Z</time>
      </trkpt>
      <trkpt lat="49.118489" lon="7.044728">
        <ele>239.0</ele>
        <time>2020-07-10T08:43:20Z</time>
      </trkpt>
      <trkpt lat="49.118388" lon="7.044798">
        <ele>240.0</ele>
        <time>2020-07-10T08:43:22Z</time>
      </trkpt>
      <trkpt lat="49.11823" lon="7.044867">
        <ele>240.0</ele>
        <time>2020-07-10T08:43:25Z</time>
      </trkpt>
      <trkpt lat="49.118119" lon="7.044919">
        <ele>240.0</ele>
        <time>2020-07-10T08:43:27Z</time>
      </trkpt>
      <trkpt lat="49.118017" lon="7.044969">
        <ele>240.0</ele>
        <time>2020-07-10T08:43:29Z</time>
      </trkpt>
      <trkpt lat="49.117859" lon="7.045055">
        <ele>240.0</ele>
        <time>2020-07-10T08:43:32Z</time>
      </trkpt>
      <trkpt lat="49.117809" lon="7.045081">
        <ele>241.0</ele>
        <time>2020-07-10T08:43:33Z</time>
      </trkpt>
      <trkpt lat="49.117651" lon="7.045151">
        <ele>240.0</ele>
        <time>2020-07-10T08:43:36Z</time>
      </trkpt>
      <trkpt lat="49.117552" lon="7.045199">
        <ele>241.0</ele>
        <time>2020-07-10T08:43:38Z</time>
      </trkpt>
      <trkpt lat="49.117399" lon="7.04527">
        <ele>242.0</ele>
        <time>2020-07-10T08:43:41Z</time>
      </trkpt>
      <trkpt lat="49.117296" lon="7.045325">
        <ele>243.0</ele>
        <time>2020-07-10T08:43:43Z</time>
      </trkpt>
      <trkpt lat="49.117148" lon="7.045395">
        <ele>244.0</ele>
        <time>2020-07-10T08:43:46Z</time>
      </trkpt>
      <trkpt lat="49.117046" lon="7.045446">
        <ele>244.0</ele>
        <time>2020-07-10T08:43:48Z</time>
      </trkpt>
      <trkpt lat="49.116941" lon="7.045494">
        <ele>244.0</ele>
        <time>2020-07-10T08:43:50Z</time>
      </trkpt>
      <trkpt lat="49.116838" lon="7.045541">
        <ele>244.0</ele>
        <time>2020-07-10T08:43:52Z</time>
      </trkpt>
      <trkpt lat="49.116737" lon="7.045586">
        <ele>244.0</ele>
        <time>2020-07-10T08:43:54Z</time>
      </trkpt>
      <trkpt lat="49.116635" lon="7.04563">
        <ele>244.0</ele>
        <time>2020-07-10T08:43:56Z</time>
      </trkpt>
      <trkpt lat="49.116531" lon="7.045676">
        <ele>244.0</ele>
        <time>2020-07-10T08:43:58Z</time>
      </trkpt>
      <trkpt lat="49.11643" lon="7.045726">
        <ele>244.0</ele>
        <time>2020-07-10T08:44:00Z</time>
      </trkpt>
      <trkpt lat="49.116379" lon="7.045755">
        <ele>244.0</ele>
        <time>2020-07-10T08:44:01Z</time>
      </trkpt>
      <trkpt lat="49.116231" lon="7.045852">
        <ele>244.0</ele>
        <time>2020-07-10T08:44:04Z</time>
      </trkpt>
      <trkpt lat="49.11613" lon="7.04592">
        <ele>244.0</ele>
        <time>2020-07-10T08:44:06Z</time>
      </trkpt>
      <trkpt lat="49.116028" lon="7.046005">
        <ele>244.0</ele>
        <time>2020-07-10T08:44:08Z</time>
      </trkpt>
      <trkpt lat="49.115935" lon="7.046087">
        <ele>243.0</ele>
        <time>2020-07-10T08:44:10Z</time>
      </trkpt>
      <trkpt lat="49.115795" lon="7.046226">
        <ele>243.0</ele>
        <time>2020-07-10T08:44:13Z</time>
      </trkpt>
      <trkpt lat="49.115712" lon="7.046325">
        <ele>243.0</ele>
        <time>2020-07-10T08:44:15Z</time>
      </trkpt>
      <trkpt lat="49.115621" lon="7.046416">
        <ele>243.0</ele>
        <time>2020-07-10T08:44:17Z</time>
      </trkpt>
      <trkpt lat="49.115482" lon="7.046556">
        <ele>243.0</ele>
        <time>2020-07-10T08:44:20Z</time>
      </trkpt>
      <trkpt lat="49.115382" lon="7.046656">
        <ele>243.0</ele>
        <time>2020-07-10T08:44:22Z</time>
      </trkpt>
      <trkpt lat="49.115285" lon="7.046749">
        <ele>243.0</ele>
        <time>2020-07-10T08:44:24Z</time>
      </trkpt>
      <trkpt lat="49.115194" lon="7.04684">
        <ele>242.0</ele>
        <time>2020-07-10T08:44:26Z</time>
      </trkpt>
      <trkpt lat="49.115107" lon="7.04692">
        <ele>243.0</ele>
        <time>2020-07-10T08:44:28Z</time>
      </trkpt>
      <trkpt lat="49.11497" lon="7.047052">
        <ele>242.0</ele>
        <time>2020-07-10T08:44:31Z</time>
      </trkpt>
      <trkpt lat="49.114885" lon="7.047132">
        <ele>242.0</ele>
        <time>2020-07-10T08:44:33Z</time>
      </trkpt>
      <trkpt lat="49.1148" lon="7.047219">
        <ele>242.0</ele>
        <time>2020-07-10T08:44:35Z</time>
      </trkpt>
      <trkpt lat="49.114668" lon="7.047352">
        <ele>242.0</ele>
        <time>2020-07-10T08:44:38Z</time>
      </trkpt>
      <trkpt lat="49.11458" lon="7.047447">
        <ele>242.0</ele>
        <time>2020-07-10T08:44:40Z</time>
      </trkpt>
      <trkpt lat="49.114535" lon="7.047493">
        <ele>242.0</ele>
        <time>2020-07-10T08:44:41Z</time>
      </trkpt>
      <trkpt lat="49.114406" lon="7.047626">
        <ele>242.0</ele>
        <time>2020-07-10T08:44:44Z</time>
      </trkpt>
      <trkpt lat="49.114327" lon="7.047708">
        <ele>241.0</ele>
        <time>2020-07-10T08:44:46Z</time>
      </trkpt>
      <trkpt lat="49.11425" lon="7.047792">
        <ele>241.0</ele>
        <time>2020-07-10T08:44:48Z</time>
      </trkpt>
      <trkpt lat="49.114163" lon="7.047876">
        <ele>242.0</ele>
        <time>2020-07-10T08:44:50Z</time>
      </trkpt>
      <trkpt lat="49.114076" lon="7.047946">
        <ele>242.0</ele>
        <time>2020-07-10T08:44:52Z</time>
      </trkpt>
      <trkpt lat="49.113948" lon="7.048057">
        <ele>244.0</ele>
        <time>2020-07-10T08:44:55Z</time>
      </trkpt>
      <trkpt lat="49.113879" lon="7.048137">
        <ele>243.0</ele>
        <time>2020-07-10T08:44:57Z</time>
      </trkpt>
      <trkpt lat="49.113815" lon="7.048207">
        <ele>243.0</ele>
        <time>2020-07-10T08:44:59Z</time>
      </trkpt>
      <trkpt lat="49.11376" lon="7.048288">
        <ele>244.0</ele>
        <time>2020-07-10T08:45:01Z</time>
      </trkpt>
      <trkpt lat="49.113715" lon="7.048359">
        <ele>244.0</ele>
        <time>2020-07-10T08:45:03Z</time>
      </trkpt>
      <trkpt lat="49.113682" lon="7.048427">
        <ele>244.0</ele>
        <time>2020-07-10T08:45:05Z</time>
      </trkpt>
      <trkpt lat="49.113618" lon="7.04851">
        <ele>244.0</ele>
        <time>2020-07-10T08:45:08Z</time>
      </trkpt>
      <trkpt lat="49.113566" lon="7.04862">
        <ele>244.0</ele>
        <time>2020-07-10T08:45:10Z</time>
      </trkpt>
      <trkpt lat="49.113513" lon="7.048749">
        <ele>244.0</ele>
        <time>2020-07-10T08:45:12Z</time>
      </trkpt>
      <trkpt lat="49.113449" lon="7.048907">
        <ele>244.0</ele>
        <time>2020-07-10T08:45:14Z</time>
      </trkpt>
      <trkpt lat="49.113349" lon="7.049177">
        <ele>244.0</ele>
        <time>2020-07-10T08:45:17Z</time>
      </trkpt>
      <trkpt lat="49.113287" lon="7.049351">
        <ele>243.0</ele>
        <time>2020-07-10T08:45:19Z</time>
      </trkpt>
      <trkpt lat="49.113225" lon="7.049508">
        <ele>244.0</ele>
        <time>2020-07-10T08:45:21Z</time>
      </trkpt>
      <trkpt lat="49.11317" lon="7.049675">
        <ele>243.0</ele>
        <time>2020-07-10T08:45:23Z</time>
      </trkpt>
      <trkpt lat="49.113105" lon="7.049913">
        <ele>243.0</ele>
        <time>2020-07-10T08:45:26Z</time>
      </trkpt>
      <trkpt lat="49.113066" lon="7.05007">
        <ele>243.0</ele>
        <time>2020-07-10T08:45:28Z</time>
      </trkpt>
      <trkpt lat="49.11303" lon="7.050238">
        <ele>242.0</ele>
        <time>2020-07-10T08:45:30Z</time>
      </trkpt>
      <trkpt lat="49.112993" lon="7.050407">
        <ele>241.0</ele>
        <time>2020-07-10T08:45:32Z</time>
      </trkpt>
      <trkpt lat="49.112968" lon="7.050575">
        <ele>241.0</ele>
        <time>2020-07-10T08:45:34Z</time>
      </trkpt>
      <trkpt lat="49.112941" lon="7.050751">
        <ele>241.0</ele>
        <time>2020-07-10T08:45:36Z</time>
      </trkpt>
      <trkpt lat="49.112918" lon="7.05093">
        <ele>241.0</ele>
        <time>2020-07-10T08:45:38Z</time>
      </trkpt>
      <trkpt lat="49.112884" lon="7.051095">
        <ele>241.0</ele>
        <time>2020-07-10T08:45:40Z</time>
      </trkpt>
      <trkpt lat="49.112836" lon="7.051278">
        <ele>242.0</ele>
        <time>2020-07-10T08:45:42Z</time>
      </trkpt>
      <trkpt lat="49.112794" lon="7.051455">
        <ele>242.0</ele>
        <time>2020-07-10T08:45:44Z</time>
      </trkpt>
      <trkpt lat="49.112748" lon="7.051627">
        <ele>242.0</ele>
        <time>2020-07-10T08:45:46Z</time>
      </trkpt>
      <trkpt lat="49.112702" lon="7.051794">
        <ele>243.0</ele>
        <time>2020-07-10T08:45:48Z</time>
      </trkpt>
      <trkpt lat="49.112648" lon="7.051972">
        <ele>242.0</ele>
        <time>2020-07-10T08:45:50Z</time>
      </trkpt>
      <trkpt lat="49.112593" lon="7.052146">
        <ele>241.0</ele>
        <time>2020-07-10T08:45:52Z</time>
      </trkpt>
      <trkpt lat="49.112539" lon="7.052317">
        <ele>241.0</ele>
        <time>2020-07-10T08:45:54Z</time>
      </trkpt>
      <trkpt lat="49.11249" lon="7.052475">
        <ele>241.0</ele>
        <time>2020-07-10T08:45:56Z</time>
      </trkpt>
      <trkpt lat="49.112439" lon="7.052635">
        <ele>240.0</ele>
        <time>2020-07-10T08:45:58Z</time>
      </trkpt>
      <trkpt lat="49.112393" lon="7.052814">
        <ele>240.0</ele>
        <time>2020-07-10T08:46:00Z</time>
      </trkpt>
      <trkpt lat="49.112342" lon="7.052987">
        <ele>240.0</ele>
        <time>2020-07-10T08:46:02Z</time>
      </trkpt>
      <trkpt lat="49.112299" lon="7.053158">
        <ele>241.0</ele>
        <time>2020-07-10T08:46:04Z</time>
      </trkpt>
      <trkpt lat="49.11226" lon="7.053329">
        <ele>241.0</ele>
        <time>2020-07-10T08:46:06Z</time>
      </trkpt>
      <trkpt lat="49.112227" lon="7.053494">
        <ele>242.0</ele>
        <time>2020-07-10T08:46:08Z</time>
      </trkpt>
      <trkpt lat="49.112194" lon="7.053665">
        <ele>243.0</ele>
        <time>2020-07-10T08:46:10Z</time>
      </trkpt>
      <trkpt lat="49.11215" lon="7.053832">
        <ele>243.0</ele>
        <time>2020-07-10T08:46:12Z</time>
      </trkpt>
      <trkpt lat="49.112108" lon="7.054006">
        <ele>244.0</ele>
        <time>2020-07-10T08:46:14Z</time>
      </trkpt>
      <trkpt lat="49.112067" lon="7.054178">
        <ele>244.0</ele>
        <time>2020-07-10T08:46:16Z</time>
      </trkpt>
      <trkpt lat="49.11203" lon="7.054353">
        <ele>244.0</ele>
        <time>2020-07-10T08:46:18Z</time>
      </trkpt>
      <trkpt lat="49.111991" lon="7.054527">
        <ele>244.0</ele>
        <time>2020-07-10T08:46:20Z</time>
      </trkpt>
      <trkpt lat="49.111956" lon="7.054701">
        <ele>244.0</ele>
        <time>2020-07-10T08:46:22Z</time>
      </trkpt>
      <trkpt lat="49.111925" lon="7.054871">
        <ele>244.0</ele>
        <time>2020-07-10T08:46:24Z</time>
      </trkpt>
      <trkpt lat="49.111891" lon="7.055041">
        <ele>244.0</ele>
        <time>2020-07-10T08:46:26Z</time>
      </trkpt>
      <trkpt lat="49.111855" lon="7.055215">
        <ele>243.0</ele>
        <time>2020-07-10T08:46:28Z</time>
      </trkpt>
      <trkpt lat="49.111829" lon="7.055393">
        <ele>243.0</ele>
        <time>2020-07-10T08:46:30Z</time>
      </trkpt>
      <trkpt lat="49.111804" lon="7.055578">
        <ele>242.0</ele>
        <time>2020-07-10T08:46:32Z</time>
      </trkpt>
      <trkpt lat="49.111772" lon="7.055768">
        <ele>242.0</ele>
        <time>2020-07-10T08:46:34Z</time>
      </trkpt>
      <trkpt lat="49.111743" lon="7.055954">
        <ele>241.0</ele>
        <time>2020-07-10T08:46:36Z</time>
      </trkpt>
      <trkpt lat="49.111726" lon="7.056155">
        <ele>241.0</ele>
        <time>2020-07-10T08:46:38Z</time>
      </trkpt>
      <trkpt lat="49.111711" lon="7.056341">
        <ele>241.0</ele>
        <time>2020-07-10T08:46:40Z</time>
      </trkpt>
      <trkpt lat="49.111691" lon="7.056523">
        <ele>241.0</ele>
        <time>2020-07-10T08:46:42Z</time>
      </trkpt>
      <trkpt lat="49.111671" lon="7.056703">
        <ele>241.0</ele>
        <time>2020-07-10T08:46:44Z</time>
      </trkpt>
      <trkpt lat="49.111664" lon="7.056865">
        <ele>241.0</ele>
        <time>2020-07-10T08:46:46Z</time>
      </trkpt>
      <trkpt lat="49.111662" lon="7.057024">
        <ele>240.0</ele>
        <time>2020-07-10T08:46:48Z</time>
      </trkpt>
      <trkpt lat="49.111658" lon="7.057189">
        <ele>240.0</ele>
        <time>2020-07-10T08:46:50Z</time>
      </trkpt>
      <trkpt lat="49.11166" lon="7.057353">
        <ele>240.0</ele>
        <time>2020-07-10T08:46:52Z</time>
      </trkpt>
      <trkpt lat="49.111672" lon="7.05751">
        <ele>240.0</ele>
        <time>2020-07-10T08:46:54Z</time>
      </trkpt>
      <trkpt lat="49.111686" lon="7.057673">
        <ele>241.0</ele>
        <time>2020-07-10T08:46:56Z</time>
      </trkpt>
      <trkpt lat="49.111705" lon="7.057828">
        <ele>240.0</ele>
        <time>2020-07-10T08:46:58Z</time>
      </trkpt>
      <trkpt lat="49.111727" lon="7.057983">
        <ele>240.0</ele>
        <time>2020-07-10T08:47:00Z</time>
      </trkpt>
      <trkpt lat="49.111744" lon="7.058146">
        <ele>241.0</ele>
        <time>2020-07-10T08:47:02Z</time>
      </trkpt>
      <trkpt lat="49.11176" lon="7.058296">
        <ele>241.0</ele>
        <time>2020-07-10T08:47:04Z</time>
      </trkpt>
      <trkpt lat="49.111786" lon="7.058437">
        <ele>242.0</ele>
        <time>2020-07-10T08:47:06Z</time>
      </trkpt>
      <trkpt lat="49.111815" lon="7.058554">
        <ele>242.0</ele>
        <time>2020-07-10T08:47:08Z</time>
      </trkpt>
      <trkpt lat="49.111833" lon="7.058687">
        <ele>240.0</ele>
        <time>2020-07-10T08:47:10Z</time>
      </trkpt>
      <trkpt lat="49.111845" lon="7.05882">
        <ele>240.0</ele>
        <time>2020-07-10T08:47:12Z</time>
      </trkpt>
      <trkpt lat="49.111876" lon="7.058963">
        <ele>240.0</ele>
        <time>2020-07-10T08:47:14Z</time>
      </trkpt>
      <trkpt lat="49.111899" lon="7.059106">
        <ele>240.0</ele>
        <time>2020-07-10T08:47:16Z</time>
      </trkpt>
      <trkpt lat="49.111939" lon="7.059246">
        <ele>240.0</ele>
        <time>2020-07-10T08:47:18Z</time>
      </trkpt>
      <trkpt lat="49.111987" lon="7.059379">
        <ele>242.0</ele>
        <time>2020-07-10T08:47:20Z</time>
      </trkpt>
      <trkpt lat="49.112016" lon="7.059511">
        <ele>242.0</ele>
        <time>2020-07-10T08:47:22Z</time>
      </trkpt>
      <trkpt lat="49.112053" lon="7.059655">
        <ele>242.0</ele>
        <time>2020-07-10T08:47:24Z</time>
      </trkpt>
      <trkpt lat="49.112083" lon="7.059796">
        <ele>243.0</ele>
        <time>2020-07-10T08:47:26Z</time>
      </trkpt>
      <trkpt lat="49.112128" lon="7.059943">
        <ele>243.0</ele>
        <time>2020-07-10T08:47:28Z</time>
      </trkpt>
      <trkpt lat="49.112164" lon="7.060085">
        <ele>243.0</ele>
        <time>2020-07-10T08:47:30Z</time>
      </trkpt>
      <trkpt lat="49.112197" lon="7.060243">
        <ele>243.0</ele>
        <time>2020-07-10T08:47:32Z</time>
      </trkpt>
      <trkpt lat="49.112228" lon="7.060393">
        <ele>243.0</ele>
        <time>2020-07-10T08:47:34Z</time>
      </trkpt>
      <trkpt lat="49.112266" lon="7.060537">
        <ele>243.0</ele>
        <time>2020-07-10T08:47:36Z</time>
      </trkpt>
      <trkpt lat="49.112301" lon="7.060686">
        <ele>242.0</ele>
        <time>2020-07-10T08:47:38Z</time>
      </trkpt>
      <trkpt lat="49.112332" lon="7.060826">
        <ele>242.0</ele>
        <time>2020-07-10T08:47:40Z</time>
      </trkpt>
      <trkpt lat="49.112358" lon="7.060949">
        <ele>243.0</ele>
        <time>2020-07-10T08:47:42Z</time>
      </trkpt>
      <trkpt lat="49.11239" lon="7.061074">
        <ele>243.0</ele>
        <time>2020-07-10T08:47:44Z</time>
      </trkpt>
      <trkpt lat="49.112418" lon="7.061188">
        <ele>243.0</ele>
        <time>2020-07-10T08:47:46Z</time>
      </trkpt>
      <trkpt lat="49.112432" lon="7.061237">
        <ele>243.0</ele>
        <time>2020-07-10T08:47:48Z</time>
      </trkpt>
      <trkpt lat="49.112428" lon="7.061249">
        <ele>243.0</ele>
        <time>2020-07-10T08:47:50Z</time>
      </trkpt>
      <trkpt lat="49.112428" lon="7.061247">
        <ele>243.0</ele>
        <time>2020-07-10T08:47:52Z</time>
      </trkpt>
      <trkpt lat="49.112428" lon="7.061247">
        <ele>243.0</ele>
        <time>2020-07-10T08:47:54Z</time>
      </trkpt>
      <trkpt lat="49.112428" lon="7.061247">
        <ele>243.0</ele>
        <time>2020-07-10T08:47:56Z</time>
      </trkpt>
      <trkpt lat="49.112428" lon="7.061247">
        <ele>243.0</ele>
        <time>2020-07-10T08:49:01Z</time>
      </trkpt>
      <trkpt lat="49.112428" lon="7.061247">
        <ele>243.0</ele>
        <time>2020-07-10T08:49:03Z</time>
      </trkpt>
      <trkpt lat="49.112428" lon="7.061247">
        <ele>243.0</ele>
        <time>2020-07-10T08:49:05Z</time>
      </trkpt>
      <trkpt lat="49.112428" lon="7.061247">
        <ele>243.0</ele>
        <time>2020-07-10T08:49:07Z</time>
      </trkpt>
      <trkpt lat="49.112428" lon="7.061247">
        <ele>243.0</ele>
        <time>2020-07-10T08:49:09Z</time>
      </trkpt>
      <trkpt lat="49.112428" lon="7.061247">
        <ele>243.0</ele>
        <time>2020-07-10T08:49:11Z</time>
      </trkpt>
      <trkpt lat="49.112428" lon="7.061247">
        <ele>243.0</ele>
        <time>2020-07-10T08:49:13Z</time>
      </trkpt>
      <trkpt lat="49.112428" lon="7.061247">
        <ele>243.0</ele>
        <time>2020-07-10T08:49:15Z</time>
      </trkpt>
      <trkpt lat="49.112429" lon="7.061237">
        <ele>243.0</ele>
        <time>2020-07-10T08:49:17Z</time>
      </trkpt>
      <trkpt lat="49.11243" lon="7.061242">
        <ele>243.0</ele>
        <time>2020-07-10T08:49:19Z</time>
      </trkpt>
      <trkpt lat="49.11244" lon="7.061248">
        <ele>243.0</ele>
        <time>2020-07-10T08:49:21Z</time>
      </trkpt>
      <trkpt lat="49.112434" lon="7.061254">
        <ele>243.0</ele>
        <time>2020-07-10T08:49:23Z</time>
      </trkpt>
      <trkpt lat="49.112445" lon="7.061279">
        <ele>242.0</ele>
        <time>2020-07-10T08:49:25Z</time>
      </trkpt>
      <trkpt lat="49.112463" lon="7.06131">
        <ele>242.0</ele>
        <time>2020-07-10T08:49:27Z</time>
      </trkpt>
      <trkpt lat="49.112491" lon="7.061376">
        <ele>241.0</ele>
        <time>2020-07-10T08:49:29Z</time>
      </trkpt>
      <trkpt lat="49.112523" lon="7.061482">
        <ele>241.0</ele>
        <time>2020-07-10T08:49:31Z</time>
      </trkpt>
      <trkpt lat="49.112554" lon="7.061625">
        <ele>241.0</ele>
        <time>2020-07-10T08:49:33Z</time>
      </trkpt>
      <trkpt lat="49.112591" lon="7.061752">
        <ele>242.0</ele>
        <time>2020-07-10T08:49:35Z</time>
      </trkpt>
      <trkpt lat="49.112623" lon="7.061878">
        <ele>242.0</ele>
        <time>2020-07-10T08:49:37Z</time>
      </trkpt>
      <trkpt lat="49.112663" lon="7.06201">
        <ele>242.0</ele>
        <time>2020-07-10T08:49:39Z</time>
      </trkpt>
      <trkpt lat="49.112701" lon="7.062155">
        <ele>242.0</ele>
        <time>2020-07-10T08:49:41Z</time>
      </trkpt>
      <trkpt lat="49.112742" lon="7.062302">
        <ele>241.0</ele>
        <time>2020-07-10T08:49:43Z</time>
      </trkpt>
      <trkpt lat="49.112783" lon="7.062437">
        <ele>242.0</ele>
        <time>2020-07-10T08:49:45Z</time>
      </trkpt>
      <trkpt lat="49.112827" lon="7.062564">
        <ele>242.0</ele>
        <time>2020-07-10T08:49:47Z</time>
      </trkpt>
      <trkpt lat="49.112872" lon="7.062698">
        <ele>242.0</ele>
        <time>2020-07-10T08:49:49Z</time>
      </trkpt>
      <trkpt lat="49.11292" lon="7.062837">
        <ele>242.0</ele>
        <time>2020-07-10T08:49:51Z</time>
      </trkpt>
      <trkpt lat="49.112959" lon="7.062972">
        <ele>242.0</ele>
        <time>2020-07-10T08:49:53Z</time>
      </trkpt>
      <trkpt lat="49.11301" lon="7.063112">
        <ele>243.0</ele>
        <time>2020-07-10T08:49:55Z</time>
      </trkpt>
      <trkpt lat="49.113068" lon="7.06323">
        <ele>243.0</ele>
        <time>2020-07-10T08:49:57Z</time>
      </trkpt>
      <trkpt lat="49.11312" lon="7.063364">
        <ele>243.0</ele>
        <time>2020-07-10T08:49:59Z</time>
      </trkpt>
      <trkpt lat="49.11317" lon="7.063498">
        <ele>243.0</ele>
        <time>2020-07-10T08:50:01Z</time>
      </trkpt>
      <trkpt lat="49.113223" lon="7.063635">
        <ele>243.0</ele>
        <time>2020-07-10T08:50:03Z</time>
      </trkpt>
      <trkpt lat="49.113273" lon="7.063769">
        <ele>244.0</ele>
        <time>2020-07-10T08:50:05Z</time>
      </trkpt>
      <trkpt lat="49.113326" lon="7.0639">
        <ele>244.0</ele>
        <time>2020-07-10T08:50:07Z</time>
      </trkpt>
      <trkpt lat="49.113374" lon="7.064037">
        <ele>244.0</ele>
        <time>2020-07-10T08:50:09Z</time>
      </trkpt>
      <trkpt lat="49.113419" lon="7.064193">
        <ele>245.0</ele>
        <time>2020-07-10T08:50:11Z</time>
      </trkpt>
      <trkpt lat="49.113459" lon="7.064342">
        <ele>245.0</ele>
        <time>2020-07-10T08:50:13Z</time>
      </trkpt>
      <trkpt lat="49.113499" lon="7.064479">
        <ele>244.0</ele>
        <time>2020-07-10T08:50:15Z</time>
      </trkpt>
      <trkpt lat="49.113532" lon="7.064604">
        <ele>245.0</ele>
        <time>2020-07-10T08:50:17Z</time>
      </trkpt>
      <trkpt lat="49.113567" lon="7.064729">
        <ele>245.0</ele>
        <time>2020-07-10T08:50:19Z</time>
      </trkpt>
      <trkpt lat="49.113598" lon="7.064868">
        <ele>245.0</ele>
        <time>2020-07-10T08:50:21Z</time>
      </trkpt>
      <trkpt lat="49.113627" lon="7.065018">
        <ele>246.0</ele>
        <time>2020-07-10T08:50:23Z</time>
      </trkpt>
      <trkpt lat="49.113656" lon="7.065178">
        <ele>246.0</ele>
        <time>2020-07-10T08:50:25Z</time>
      </trkpt>
      <trkpt lat="49.113682" lon="7.065342">
        <ele>246.0</ele>
        <time>2020-07-10T08:50:27Z</time>
      </trkpt>
      <trkpt lat="49.113696" lon="7.065428">
        <ele>246.0</ele>
        <time>2020-07-10T08:50:28Z</time>
      </trkpt>
      <trkpt lat="49.113718" lon="7.065593">
        <ele>246.0</ele>
        <time>2020-07-10T08:50:30Z</time>
      </trkpt>
      <trkpt lat="49.113724" lon="7.065759">
        <ele>246.0</ele>
        <time>2020-07-10T08:50:32Z</time>
      </trkpt>
      <trkpt lat="49.113728" lon="7.06601">
        <ele>245.0</ele>
        <time>2020-07-10T08:50:35Z</time>
      </trkpt>
      <trkpt lat="49.113723" lon="7.066174">
        <ele>246.0</ele>
        <time>2020-07-10T08:50:37Z</time>
      </trkpt>
      <trkpt lat="49.1137" lon="7.06634">
        <ele>245.0</ele>
        <time>2020-07-10T08:50:39Z</time>
      </trkpt>
      <trkpt lat="49.113673" lon="7.066502">
        <ele>246.0</ele>
        <time>2020-07-10T08:50:41Z</time>
      </trkpt>
      <trkpt lat="49.113645" lon="7.066662">
        <ele>246.0</ele>
        <time>2020-07-10T08:50:43Z</time>
      </trkpt>
      <trkpt lat="49.113603" lon="7.066819">
        <ele>246.0</ele>
        <time>2020-07-10T08:50:45Z</time>
      </trkpt>
      <trkpt lat="49.113528" lon="7.067051">
        <ele>246.0</ele>
        <time>2020-07-10T08:50:48Z</time>
      </trkpt>
      <trkpt lat="49.113467" lon="7.067204">
        <ele>245.0</ele>
        <time>2020-07-10T08:50:50Z</time>
      </trkpt>
      <trkpt lat="49.113403" lon="7.067348">
        <ele>246.0</ele>
        <time>2020-07-10T08:50:52Z</time>
      </trkpt>
      <trkpt lat="49.113337" lon="7.06749">
        <ele>245.0</ele>
        <time>2020-07-10T08:50:54Z</time>
      </trkpt>
      <trkpt lat="49.113279" lon="7.067635">
        <ele>244.0</ele>
        <time>2020-07-10T08:50:56Z</time>
      </trkpt>
      <trkpt lat="49.113217" lon="7.067772">
        <ele>244.0</ele>
        <time>2020-07-10T08:50:58Z</time>
      </trkpt>
      <trkpt lat="49.113153" lon="7.06791">
        <ele>244.0</ele>
        <time>2020-07-10T08:51:00Z</time>
      </trkpt>
      <trkpt lat="49.113093" lon="7.068062">
        <ele>244.0</ele>
        <time>2020-07-10T08:51:02Z</time>
      </trkpt>
      <trkpt lat="49.11303" lon="7.068222">
        <ele>244.0</ele>
        <time>2020-07-10T08:51:04Z</time>
      </trkpt>
      <trkpt lat="49.112973" lon="7.06838">
        <ele>244.0</ele>
        <time>2020-07-10T08:51:06Z</time>
      </trkpt>
      <trkpt lat="49.112914" lon="7.068533">
        <ele>244.0</ele>
        <time>2020-07-10T08:51:08Z</time>
      </trkpt>
      <trkpt lat="49.112852" lon="7.068699">
        <ele>244.0</ele>
        <time>2020-07-10T08:51:10Z</time>
      </trkpt>
      <trkpt lat="49.112785" lon="7.068865">
        <ele>244.0</ele>
        <time>2020-07-10T08:51:12Z</time>
      </trkpt>
      <trkpt lat="49.112711" lon="7.069014">
        <ele>243.0</ele>
        <time>2020-07-10T08:51:14Z</time>
      </trkpt>
      <trkpt lat="49.112634" lon="7.069159">
        <ele>243.0</ele>
        <time>2020-07-10T08:51:16Z</time>
      </trkpt>
      <trkpt lat="49.112554" lon="7.069295">
        <ele>243.0</ele>
        <time>2020-07-10T08:51:18Z</time>
      </trkpt>
      <trkpt lat="49.112482" lon="7.069425">
        <ele>243.0</ele>
        <time>2020-07-10T08:51:20Z</time>
      </trkpt>
      <trkpt lat="49.112415" lon="7.069554">
        <ele>242.0</ele>
        <time>2020-07-10T08:51:22Z</time>
      </trkpt>
      <trkpt lat="49.112346" lon="7.069693">
        <ele>243.0</ele>
        <time>2020-07-10T08:51:24Z</time>
      </trkpt>
      <trkpt lat="49.112271" lon="7.069842">
        <ele>243.0</ele>
        <time>2020-07-10T08:51:26Z</time>
      </trkpt>
      <trkpt lat="49.112201" lon="7.06999">
        <ele>243.0</ele>
        <time>2020-07-10T08:51:28Z</time>
      </trkpt>
      <trkpt lat="49.112133" lon="7.070126">
        <ele>243.0</ele>
        <time>2020-07-10T08:51:30Z</time>
      </trkpt>
      <trkpt lat="49.112064" lon="7.070259">
        <ele>244.0</ele>
        <time>2020-07-10T08:51:32Z</time>
      </trkpt>
      <trkpt lat="49.111996" lon="7.070404">
        <ele>244.0</ele>
        <time>2020-07-10T08:51:34Z</time>
      </trkpt>
      <trkpt lat="49.111929" lon="7.070539">
        <ele>244.0</ele>
        <time>2020-07-10T08:51:36Z</time>
      </trkpt>
      <trkpt lat="49.111859" lon="7.070668">
        <ele>244.0</ele>
        <time>2020-07-10T08:51:38Z</time>
      </trkpt>
      <trkpt lat="49.11178" lon="7.070802">
        <ele>244.0</ele>
        <time>2020-07-10T08:51:40Z</time>
      </trkpt>
      <trkpt lat="49.111692" lon="7.07092">
        <ele>244.0</ele>
        <time>2020-07-10T08:51:42Z</time>
      </trkpt>
      <trkpt lat="49.1116" lon="7.071036">
        <ele>244.0</ele>
        <time>2020-07-10T08:51:44Z</time>
      </trkpt>
      <trkpt lat="49.111508" lon="7.071144">
        <ele>245.0</ele>
        <time>2020-07-10T08:51:46Z</time>
      </trkpt>
      <trkpt lat="49.111419" lon="7.071257">
        <ele>245.0</ele>
        <time>2020-07-10T08:51:48Z</time>
      </trkpt>
      <trkpt lat="49.111331" lon="7.071362">
        <ele>245.0</ele>
        <time>2020-07-10T08:51:50Z</time>
      </trkpt>
      <trkpt lat="49.111243" lon="7.071464">
        <ele>245.0</ele>
        <time>2020-07-10T08:51:52Z</time>
      </trkpt>
      <trkpt lat="49.111147" lon="7.071564">
        <ele>245.0</ele>
        <time>2020-07-10T08:51:54Z</time>
      </trkpt>
      <trkpt lat="49.111044" lon="7.071651">
        <ele>245.0</ele>
        <time>2020-07-10T08:51:56Z</time>
      </trkpt>
      <trkpt lat="49.11094" lon="7.071732">
        <ele>245.0</ele>
        <time>2020-07-10T08:51:58Z</time>
      </trkpt>
      <trkpt lat="49.110834" lon="7.071802">
        <ele>245.0</ele>
        <time>2020-07-10T08:52:00Z</time>
      </trkpt>
      <trkpt lat="49.110729" lon="7.071873">
        <ele>245.0</ele>
        <time>2020-07-10T08:52:02Z</time>
      </trkpt>
      <trkpt lat="49.110616" lon="7.071937">
        <ele>246.0</ele>
        <time>2020-07-10T08:52:04Z</time>
      </trkpt>
      <trkpt lat="49.110497" lon="7.071982">
        <ele>246.0</ele>
        <time>2020-07-10T08:52:06Z</time>
      </trkpt>
      <trkpt lat="49.110381" lon="7.072032">
        <ele>246.0</ele>
        <time>2020-07-10T08:52:08Z</time>
      </trkpt>
      <trkpt lat="49.110266" lon="7.072069">
        <ele>245.0</ele>
        <time>2020-07-10T08:52:10Z</time>
      </trkpt>
      <trkpt lat="49.110151" lon="7.072093">
        <ele>245.0</ele>
        <time>2020-07-10T08:52:12Z</time>
      </trkpt>
      <trkpt lat="49.110032" lon="7.072108">
        <ele>245.0</ele>
        <time>2020-07-10T08:52:14Z</time>
      </trkpt>
      <trkpt lat="49.109913" lon="7.072121">
        <ele>245.0</ele>
        <time>2020-07-10T08:52:16Z</time>
      </trkpt>
      <trkpt lat="49.109804" lon="7.072128">
        <ele>245.0</ele>
        <time>2020-07-10T08:52:18Z</time>
      </trkpt>
      <trkpt lat="49.10969" lon="7.072135">
        <ele>245.0</ele>
        <time>2020-07-10T08:52:20Z</time>
      </trkpt>
      <trkpt lat="49.109573" lon="7.072137">
        <ele>245.0</ele>
        <time>2020-07-10T08:52:22Z</time>
      </trkpt>
      <trkpt lat="49.109461" lon="7.072136">
        <ele>245.0</ele>
        <time>2020-07-10T08:52:24Z</time>
      </trkpt>
      <trkpt lat="49.109355" lon="7.072137">
        <ele>245.0</ele>
        <time>2020-07-10T08:52:26Z</time>
      </trkpt>
      <trkpt lat="49.109247" lon="7.072138">
        <ele>245.0</ele>
        <time>2020-07-10T08:52:28Z</time>
      </trkpt>
      <trkpt lat="49.10914" lon="7.072132">
        <ele>245.0</ele>
        <time>2020-07-10T08:52:30Z</time>
      </trkpt>
      <trkpt lat="49.109029" lon="7.072122">
        <ele>245.0</ele>
        <time>2020-07-10T08:52:32Z</time>
      </trkpt>
      <trkpt lat="49.108927" lon="7.072112">
        <ele>245.0</ele>
        <time>2020-07-10T08:52:34Z</time>
      </trkpt>
      <trkpt lat="49.108826" lon="7.072094">
        <ele>246.0</ele>
        <time>2020-07-10T08:52:36Z</time>
      </trkpt>
      <trkpt lat="49.108728" lon="7.072085">
        <ele>246.0</ele>
        <time>2020-07-10T08:52:38Z</time>
      </trkpt>
      <trkpt lat="49.108629" lon="7.072071">
        <ele>246.0</ele>
        <time>2020-07-10T08:52:40Z</time>
      </trkpt>
      <trkpt lat="49.108524" lon="7.072051">
        <ele>245.0</ele>
        <time>2020-07-10T08:52:42Z</time>
      </trkpt>
      <trkpt lat="49.108424" lon="7.072028">
        <ele>245.0</ele>
        <time>2020-07-10T08:52:44Z</time>
      </trkpt>
      <trkpt lat="49.108326" lon="7.072014">
        <ele>245.0</ele>
        <time>2020-07-10T08:52:46Z</time>
      </trkpt>
      <trkpt lat="49.108233" lon="7.072004">
        <ele>245.0</ele>
        <time>2020-07-10T08:52:48Z</time>
      </trkpt>
      <trkpt lat="49.108132" lon="7.071988">
        <ele>245.0</ele>
        <time>2020-07-10T08:52:50Z</time>
      </trkpt>
      <trkpt lat="49.108028" lon="7.071976">
        <ele>245.0</ele>
        <time>2020-07-10T08:52:52Z</time>
      </trkpt>
      <trkpt lat="49.107934" lon="7.071944">
        <ele>245.0</ele>
        <time>2020-07-10T08:52:54Z</time>
      </trkpt>
      <trkpt lat="49.107838" lon="7.071936">
        <ele>245.0</ele>
        <time>2020-07-10T08:52:56Z</time>
      </trkpt>
      <trkpt lat="49.107738" lon="7.071936">
        <ele>245.0</ele>
        <time>2020-07-10T08:52:58Z</time>
      </trkpt>
      <trkpt lat="49.107636" lon="7.071927">
        <ele>245.0</ele>
        <time>2020-07-10T08:53:00Z</time>
      </trkpt>
      <trkpt lat="49.107534" lon="7.071934">
        <ele>244.0</ele>
        <time>2020-07-10T08:53:02Z</time>
      </trkpt>
      <trkpt lat="49.107432" lon="7.071941">
        <ele>245.0</ele>
        <time>2020-07-10T08:53:04Z</time>
      </trkpt>
      <trkpt lat="49.107329" lon="7.071957">
        <ele>245.0</ele>
        <time>2020-07-10T08:53:06Z</time>
      </trkpt>
      <trkpt lat="49.107232" lon="7.071969">
        <ele>245.0</ele>
        <time>2020-07-10T08:53:08Z</time>
      </trkpt>
      <trkpt lat="49.107132" lon="7.071995">
        <ele>245.0</ele>
        <time>2020-07-10T08:53:10Z</time>
      </trkpt>
      <trkpt lat="49.107032" lon="7.072029">
        <ele>246.0</ele>
        <time>2020-07-10T08:53:12Z</time>
      </trkpt>
      <trkpt lat="49.106928" lon="7.072061">
        <ele>246.0</ele>
        <time>2020-07-10T08:53:14Z</time>
      </trkpt>
      <trkpt lat="49.106824" lon="7.072094">
        <ele>246.0</ele>
        <time>2020-07-10T08:53:16Z</time>
      </trkpt>
      <trkpt lat="49.106717" lon="7.072148">
        <ele>247.0</ele>
        <time>2020-07-10T08:53:18Z</time>
      </trkpt>
      <trkpt lat="49.10661" lon="7.072192">
        <ele>247.0</ele>
        <time>2020-07-10T08:53:20Z</time>
      </trkpt>
      <trkpt lat="49.106506" lon="7.072238">
        <ele>247.0</ele>
        <time>2020-07-10T08:53:22Z</time>
      </trkpt>
      <trkpt lat="49.106399" lon="7.072291">
        <ele>247.0</ele>
        <time>2020-07-10T08:53:24Z</time>
      </trkpt>
      <trkpt lat="49.106293" lon="7.072338">
        <ele>246.0</ele>
        <time>2020-07-10T08:53:26Z</time>
      </trkpt>
      <trkpt lat="49.106187" lon="7.072401">
        <ele>246.0</ele>
        <time>2020-07-10T08:53:28Z</time>
      </trkpt>
      <trkpt lat="49.106085" lon="7.072455">
        <ele>246.0</ele>
        <time>2020-07-10T08:53:30Z</time>
      </trkpt>
      <trkpt lat="49.105986" lon="7.072507">
        <ele>246.0</ele>
        <time>2020-07-10T08:53:32Z</time>
      </trkpt>
      <trkpt lat="49.10589" lon="7.072573">
        <ele>246.0</ele>
        <time>2020-07-10T08:53:34Z</time>
      </trkpt>
      <trkpt lat="49.105794" lon="7.072642">
        <ele>245.0</ele>
        <time>2020-07-10T08:53:36Z</time>
      </trkpt>
      <trkpt lat="49.105695" lon="7.072715">
        <ele>245.0</ele>
        <time>2020-07-10T08:53:38Z</time>
      </trkpt>
      <trkpt lat="49.105596" lon="7.072796">
        <ele>245.0</ele>
        <time>2020-07-10T08:53:40Z</time>
      </trkpt>
      <trkpt lat="49.105503" lon="7.072875">
        <ele>245.0</ele>
        <time>2020-07-10T08:53:42Z</time>
      </trkpt>
      <trkpt lat="49.105408" lon="7.072955">
        <ele>245.0</ele>
        <time>2020-07-10T08:53:44Z</time>
      </trkpt>
      <trkpt lat="49.105317" lon="7.073037">
        <ele>246.0</ele>
        <time>2020-07-10T08:53:46Z</time>
      </trkpt>
      <trkpt lat="49.105225" lon="7.07313">
        <ele>245.0</ele>
        <time>2020-07-10T08:53:48Z</time>
      </trkpt>
      <trkpt lat="49.105131" lon="7.073221">
        <ele>246.0</ele>
        <time>2020-07-10T08:53:50Z</time>
      </trkpt>
      <trkpt lat="49.105037" lon="7.073313">
        <ele>246.0</ele>
        <time>2020-07-10T08:53:52Z</time>
      </trkpt>
      <trkpt lat="49.104946" lon="7.073406">
        <ele>246.0</ele>
        <time>2020-07-10T08:53:54Z</time>
      </trkpt>
      <trkpt lat="49.104861" lon="7.073491">
        <ele>246.0</ele>
        <time>2020-07-10T08:53:56Z</time>
      </trkpt>
      <trkpt lat="49.104779" lon="7.07359">
        <ele>246.0</ele>
        <time>2020-07-10T08:53:58Z</time>
      </trkpt>
      <trkpt lat="49.104694" lon="7.073692">
        <ele>246.0</ele>
        <time>2020-07-10T08:54:00Z</time>
      </trkpt>
      <trkpt lat="49.104564" lon="7.073859">
        <ele>245.0</ele>
        <time>2020-07-10T08:54:03Z</time>
      </trkpt>
      <trkpt lat="49.104485" lon="7.07397">
        <ele>245.0</ele>
        <time>2020-07-10T08:54:05Z</time>
      </trkpt>
      <trkpt lat="49.104403" lon="7.074079">
        <ele>244.0</ele>
        <time>2020-07-10T08:54:07Z</time>
      </trkpt>
      <trkpt lat="49.104366" lon="7.074137">
        <ele>244.0</ele>
        <time>2020-07-10T08:54:08Z</time>
      </trkpt>
      <trkpt lat="49.104249" lon="7.074315">
        <ele>243.0</ele>
        <time>2020-07-10T08:54:11Z</time>
      </trkpt>
      <trkpt lat="49.104168" lon="7.074436">
        <ele>244.0</ele>
        <time>2020-07-10T08:54:13Z</time>
      </trkpt>
      <trkpt lat="49.104087" lon="7.074559">
        <ele>243.0</ele>
        <time>2020-07-10T08:54:15Z</time>
      </trkpt>
      <trkpt lat="49.104002" lon="7.074679">
        <ele>243.0</ele>
        <time>2020-07-10T08:54:17Z</time>
      </trkpt>
      <trkpt lat="49.103918" lon="7.074797">
        <ele>243.0</ele>
        <time>2020-07-10T08:54:19Z</time>
      </trkpt>
      <trkpt lat="49.10384" lon="7.07492">
        <ele>243.0</ele>
        <time>2020-07-10T08:54:21Z</time>
      </trkpt>
      <trkpt lat="49.103761" lon="7.075042">
        <ele>243.0</ele>
        <time>2020-07-10T08:54:23Z</time>
      </trkpt>
      <trkpt lat="49.103685" lon="7.075166">
        <ele>242.0</ele>
        <time>2020-07-10T08:54:25Z</time>
      </trkpt>
      <trkpt lat="49.103607" lon="7.075291">
        <ele>242.0</ele>
        <time>2020-07-10T08:54:27Z</time>
      </trkpt>
      <trkpt lat="49.103528" lon="7.075416">
        <ele>242.0</ele>
        <time>2020-07-10T08:54:29Z</time>
      </trkpt>
      <trkpt lat="49.103449" lon="7.07553">
        <ele>242.0</ele>
        <time>2020-07-10T08:54:31Z</time>
      </trkpt>
      <trkpt lat="49.103379" lon="7.075637">
        <ele>242.0</ele>
        <time>2020-07-10T08:54:33Z</time>
      </trkpt>
      <trkpt lat="49.103302" lon="7.075742">
        <ele>242.0</ele>
        <time>2020-07-10T08:54:35Z</time>
      </trkpt>
      <trkpt lat="49.103222" lon="7.075854">
        <ele>242.0</ele>
        <time>2020-07-10T08:54:37Z</time>
      </trkpt>
      <trkpt lat="49.103146" lon="7.075969">
        <ele>242.0</ele>
        <time>2020-07-10T08:54:39Z</time>
      </trkpt>
      <trkpt lat="49.103071" lon="7.07608">
        <ele>242.0</ele>
        <time>2020-07-10T08:54:41Z</time>
      </trkpt>
      <trkpt lat="49.102979" lon="7.076172">
        <ele>242.0</ele>
        <time>2020-07-10T08:54:43Z</time>
      </trkpt>
      <trkpt lat="49.102902" lon="7.076283">
        <ele>242.0</ele>
        <time>2020-07-10T08:54:45Z</time>
      </trkpt>
      <trkpt lat="49.102826" lon="7.076403">
        <ele>243.0</ele>
        <time>2020-07-10T08:54:47Z</time>
      </trkpt>
      <trkpt lat="49.102751" lon="7.076524">
        <ele>244.0</ele>
        <time>2020-07-10T08:54:49Z</time>
      </trkpt>
      <trkpt lat="49.102672" lon="7.076641">
        <ele>244.0</ele>
        <time>2020-07-10T08:54:51Z</time>
      </trkpt>
      <trkpt lat="49.102602" lon="7.076747">
        <ele>245.0</ele>
        <time>2020-07-10T08:54:53Z</time>
      </trkpt>
      <trkpt lat="49.102565" lon="7.076798">
        <ele>245.0</ele>
        <time>2020-07-10T08:54:54Z</time>
      </trkpt>
      <trkpt lat="49.10246" lon="7.076941">
        <ele>245.0</ele>
        <time>2020-07-10T08:54:57Z</time>
      </trkpt>
      <trkpt lat="49.102385" lon="7.077035">
        <ele>245.0</ele>
        <time>2020-07-10T08:54:59Z</time>
      </trkpt>
      <trkpt lat="49.102346" lon="7.077085">
        <ele>245.0</ele>
        <time>2020-07-10T08:55:00Z</time>
      </trkpt>
      <trkpt lat="49.102213" lon="7.077216">
        <ele>245.0</ele>
        <time>2020-07-10T08:55:03Z</time>
      </trkpt>
      <trkpt lat="49.102117" lon="7.077272">
        <ele>245.0</ele>
        <time>2020-07-10T08:55:05Z</time>
      </trkpt>
      <trkpt lat="49.102023" lon="7.07727">
        <ele>246.0</ele>
        <time>2020-07-10T08:55:07Z</time>
      </trkpt>
      <trkpt lat="49.101937" lon="7.077277">
        <ele>246.0</ele>
        <time>2020-07-10T08:55:09Z</time>
      </trkpt>
      <trkpt lat="49.101864" lon="7.077359">
        <ele>247.0</ele>
        <time>2020-07-10T08:55:11Z</time>
      </trkpt>
      <trkpt lat="49.101791" lon="7.077455">
        <ele>247.0</ele>
        <time>2020-07-10T08:55:13Z</time>
      </trkpt>
      <trkpt lat="49.101669" lon="7.077605">
        <ele>247.0</ele>
        <time>2020-07-10T08:55:16Z</time>
      </trkpt>
      <trkpt lat="49.1016" lon="7.077699">
        <ele>246.0</ele>
        <time>2020-07-10T08:55:18Z</time>
      </trkpt>
      <trkpt lat="49.101529" lon="7.077793">
        <ele>246.0</ele>
        <time>2020-07-10T08:55:20Z</time>
      </trkpt>
      <trkpt lat="49.101456" lon="7.077889">
        <ele>246.0</ele>
        <time>2020-07-10T08:55:22Z</time>
      </trkpt>
      <trkpt lat="49.101382" lon="7.077978">
        <ele>247.0</ele>
        <time>2020-07-10T08:55:24Z</time>
      </trkpt>
      <trkpt lat="49.101313" lon="7.078075">
        <ele>247.0</ele>
        <time>2020-07-10T08:55:26Z</time>
      </trkpt>
      <trkpt lat="49.101242" lon="7.078158">
        <ele>247.0</ele>
        <time>2020-07-10T08:55:28Z</time>
      </trkpt>
      <trkpt lat="49.101178" lon="7.078236">
        <ele>247.0</ele>
        <time>2020-07-10T08:55:30Z</time>
      </trkpt>
      <trkpt lat="49.101127" lon="7.078303">
        <ele>247.0</ele>
        <time>2020-07-10T08:55:32Z</time>
      </trkpt>
      <trkpt lat="49.101081" lon="7.078369">
        <ele>247.0</ele>
        <time>2020-07-10T08:55:34Z</time>
      </trkpt>
      <trkpt lat="49.101039" lon="7.07843">
        <ele>247.0</ele>
        <time>2020-07-10T08:55:36Z</time>
      </trkpt>
      <trkpt lat="49.101003" lon="7.078463">
        <ele>247.0</ele>
        <time>2020-07-10T08:55:38Z</time>
      </trkpt>
      <trkpt lat="49.100976" lon="7.078493">
        <ele>247.0</ele>
        <time>2020-07-10T08:55:40Z</time>
      </trkpt>
      <trkpt lat="49.100964" lon="7.078503">
        <ele>247.0</ele>
        <time>2020-07-10T08:55:42Z</time>
      </trkpt>
      <trkpt lat="49.100962" lon="7.078512">
        <ele>247.0</ele>
        <time>2020-07-10T08:55:44Z</time>
      </trkpt>
      <trkpt lat="49.100962" lon="7.078513">
        <ele>247.0</ele>
        <time>2020-07-10T08:55:46Z</time>
      </trkpt>
      <trkpt lat="49.100962" lon="7.078513">
        <ele>247.0</ele>
        <time>2020-07-10T08:55:49Z</time>
      </trkpt>
      <trkpt lat="49.100948" lon="7.078531">
        <ele>247.0</ele>
        <time>2020-07-10T08:55:51Z</time>
      </trkpt>
      <trkpt lat="49.10095" lon="7.07854">
        <ele>248.0</ele>
        <time>2020-07-10T08:55:53Z</time>
      </trkpt>
      <trkpt lat="49.100951" lon="7.078539">
        <ele>247.0</ele>
        <time>2020-07-10T08:55:55Z</time>
      </trkpt>
      <trkpt lat="49.100951" lon="7.07854">
        <ele>247.0</ele>
        <time>2020-07-10T08:55:57Z</time>
      </trkpt>
      <trkpt lat="49.100948" lon="7.078543">
        <ele>247.0</ele>
        <time>2020-07-10T08:55:59Z</time>
      </trkpt>
      <trkpt lat="49.100949" lon="7.078534">
        <ele>247.0</ele>
        <time>2020-07-10T08:56:01Z</time>
      </trkpt>
      <trkpt lat="49.100951" lon="7.078522">
        <ele>246.0</ele>
        <time>2020-07-10T08:56:03Z</time>
      </trkpt>
      <trkpt lat="49.100948" lon="7.078523">
        <ele>246.0</ele>
        <time>2020-07-10T08:56:05Z</time>
      </trkpt>
      <trkpt lat="49.100925" lon="7.078548">
        <ele>246.0</ele>
        <time>2020-07-10T08:56:07Z</time>
      </trkpt>
      <trkpt lat="49.100888" lon="7.078589">
        <ele>245.0</ele>
        <time>2020-07-10T08:56:09Z</time>
      </trkpt>
      <trkpt lat="49.100839" lon="7.078646">
        <ele>245.0</ele>
        <time>2020-07-10T08:56:11Z</time>
      </trkpt>
      <trkpt lat="49.10079" lon="7.078708">
        <ele>245.0</ele>
        <time>2020-07-10T08:56:13Z</time>
      </trkpt>
      <trkpt lat="49.100724" lon="7.07878">
        <ele>245.0</ele>
        <time>2020-07-10T08:56:15Z</time>
      </trkpt>
      <trkpt lat="49.10066" lon="7.078864">
        <ele>244.0</ele>
        <time>2020-07-10T08:56:17Z</time>
      </trkpt>
      <trkpt lat="49.100597" lon="7.078957">
        <ele>244.0</ele>
        <time>2020-07-10T08:56:19Z</time>
      </trkpt>
      <trkpt lat="49.100532" lon="7.079042">
        <ele>244.0</ele>
        <time>2020-07-10T08:56:21Z</time>
      </trkpt>
      <trkpt lat="49.100464" lon="7.079125">
        <ele>245.0</ele>
        <time>2020-07-10T08:56:23Z</time>
      </trkpt>
      <trkpt lat="49.100405" lon="7.079196">
        <ele>245.0</ele>
        <time>2020-07-10T08:56:25Z</time>
      </trkpt>
      <trkpt lat="49.100343" lon="7.079274">
        <ele>245.0</ele>
        <time>2020-07-10T08:56:27Z</time>
      </trkpt>
      <trkpt lat="49.100275" lon="7.079347">
        <ele>245.0</ele>
        <time>2020-07-10T08:56:29Z</time>
      </trkpt>
      <trkpt lat="49.1002" lon="7.07944">
        <ele>245.0</ele>
        <time>2020-07-10T08:56:31Z</time>
      </trkpt>
      <trkpt lat="49.100126" lon="7.079522">
        <ele>245.0</ele>
        <time>2020-07-10T08:56:33Z</time>
      </trkpt>
      <trkpt lat="49.100053" lon="7.079594">
        <ele>246.0</ele>
        <time>2020-07-10T08:56:35Z</time>
      </trkpt>
      <trkpt lat="49.099985" lon="7.079655">
        <ele>247.0</ele>
        <time>2020-07-10T08:56:37Z</time>
      </trkpt>
      <trkpt lat="49.099928" lon="7.07971">
        <ele>247.0</ele>
        <time>2020-07-10T08:56:39Z</time>
      </trkpt>
      <trkpt lat="49.09987" lon="7.079763">
        <ele>247.0</ele>
        <time>2020-07-10T08:56:41Z</time>
      </trkpt>
      <trkpt lat="49.099821" lon="7.079805">
        <ele>247.0</ele>
        <time>2020-07-10T08:56:43Z</time>
      </trkpt>
      <trkpt lat="49.09978" lon="7.079837">
        <ele>247.0</ele>
        <time>2020-07-10T08:56:45Z</time>
      </trkpt>
      <trkpt lat="49.099751" lon="7.079873">
        <ele>248.0</ele>
        <time>2020-07-10T08:56:47Z</time>
      </trkpt>
      <trkpt lat="49.099741" lon="7.079907">
        <ele>248.0</ele>
        <time>2020-07-10T08:56:49Z</time>
      </trkpt>
      <trkpt lat="49.099739" lon="7.07994">
        <ele>248.0</ele>
        <time>2020-07-10T08:56:51Z</time>
      </trkpt>
      <trkpt lat="49.099741" lon="7.079975">
        <ele>248.0</ele>
        <time>2020-07-10T08:56:53Z</time>
      </trkpt>
      <trkpt lat="49.099748" lon="7.080024">
        <ele>248.0</ele>
        <time>2020-07-10T08:56:55Z</time>
      </trkpt>
      <trkpt lat="49.099758" lon="7.080068">
        <ele>249.0</ele>
        <time>2020-07-10T08:56:57Z</time>
      </trkpt>
      <trkpt lat="49.099766" lon="7.080121">
        <ele>249.0</ele>
        <time>2020-07-10T08:56:59Z</time>
      </trkpt>
      <trkpt lat="49.09977" lon="7.080168">
        <ele>248.0</ele>
        <time>2020-07-10T08:57:01Z</time>
      </trkpt>
      <trkpt lat="49.099772" lon="7.080201">
        <ele>248.0</ele>
        <time>2020-07-10T08:57:03Z</time>
      </trkpt>
      <trkpt lat="49.099751" lon="7.080225">
        <ele>249.0</ele>
        <time>2020-07-10T08:57:05Z</time>
      </trkpt>
      <trkpt lat="49.099724" lon="7.080209">
        <ele>249.0</ele>
        <time>2020-07-10T08:57:07Z</time>
      </trkpt>
      <trkpt lat="49.099726" lon="7.080234">
        <ele>247.0</ele>
        <time>2020-07-10T08:57:09Z</time>
      </trkpt>
      <trkpt lat="49.099726" lon="7.080237">
        <ele>248.0</ele>
        <time>2020-07-10T08:57:11Z</time>
      </trkpt>
      <trkpt lat="49.099726" lon="7.080237">
        <ele>248.0</ele>
        <time>2020-07-10T08:57:13Z</time>
      </trkpt>
      <trkpt lat="49.099726" lon="7.080237">
        <ele>248.0</ele>
        <time>2020-07-10T08:57:15Z</time>
      </trkpt>
      <trkpt lat="49.099726" lon="7.080237">
        <ele>248.0</ele>
        <time>2020-07-10T08:57:47Z</time>
      </trkpt>
      <trkpt lat="49.099726" lon="7.080237">
        <ele>248.0</ele>
        <time>2020-07-10T08:57:49Z</time>
      </trkpt>
      <trkpt lat="49.099726" lon="7.080237">
        <ele>248.0</ele>
        <time>2020-07-10T08:57:51Z</time>
      </trkpt>
      <trkpt lat="49.099726" lon="7.080237">
        <ele>248.0</ele>
        <time>2020-07-10T08:57:53Z</time>
      </trkpt>
      <trkpt lat="49.099726" lon="7.080237">
        <ele>248.0</ele>
        <time>2020-07-10T08:57:55Z</time>
      </trkpt>
      <trkpt lat="49.099726" lon="7.080237">
        <ele>248.0</ele>
        <time>2020-07-10T08:57:57Z</time>
      </trkpt>
      <trkpt lat="49.099726" lon="7.080237">
        <ele>248.0</ele>
        <time>2020-07-10T08:57:59Z</time>
      </trkpt>
      <trkpt lat="49.099726" lon="7.080237">
        <ele>248.0</ele>
        <time>2020-07-10T08:58:01Z</time>
      </trkpt>
      <trkpt lat="49.099726" lon="7.080237">
        <ele>248.0</ele>
        <time>2020-07-10T08:58:03Z</time>
      </trkpt>
      <trkpt lat="49.099726" lon="7.080237">
        <ele>248.0</ele>
        <time>2020-07-10T08:58:05Z</time>
      </trkpt>
      <trkpt lat="49.099726" lon="7.080237">
        <ele>248.0</ele>
        <time>2020-07-10T08:58:07Z</time>
      </trkpt>
      <trkpt lat="49.099726" lon="7.080237">
        <ele>248.0</ele>
        <time>2020-07-10T08:58:09Z</time>
      </trkpt>
      <trkpt lat="49.099711" lon="7.080232">
        <ele>248.0</ele>
        <time>2020-07-10T08:58:11Z</time>
      </trkpt>
      <trkpt lat="49.099668" lon="7.080236">
        <ele>248.0</ele>
        <time>2020-07-10T08:58:14Z</time>
      </trkpt>
      <trkpt lat="49.099606" lon="7.080255">
        <ele>248.0</ele>
        <time>2020-07-10T08:58:16Z</time>
      </trkpt>
      <trkpt lat="49.099541" lon="7.080298">
        <ele>247.0</ele>
        <time>2020-07-10T08:58:18Z</time>
      </trkpt>
      <trkpt lat="49.099478" lon="7.080341">
        <ele>247.0</ele>
        <time>2020-07-10T08:58:20Z</time>
      </trkpt>
      <trkpt lat="49.099451" lon="7.080363">
        <ele>248.0</ele>
        <time>2020-07-10T08:58:21Z</time>
      </trkpt>
      <trkpt lat="49.099391" lon="7.080421">
        <ele>248.0</ele>
        <time>2020-07-10T08:58:24Z</time>
      </trkpt>
      <trkpt lat="49.099391" lon="7.080416">
        <ele>248.0</ele>
        <time>2020-07-10T08:58:25Z</time>
      </trkpt>
      <trkpt lat="49.099387" lon="7.080419">
        <ele>248.0</ele>
        <time>2020-07-10T08:58:28Z</time>
      </trkpt>
      <trkpt lat="49.099387" lon="7.080419">
        <ele>248.0</ele>
        <time>2020-07-10T08:58:30Z</time>
      </trkpt>
      <trkpt lat="49.099387" lon="7.080419">
        <ele>248.0</ele>
        <time>2020-07-10T08:58:32Z</time>
      </trkpt>
      <trkpt lat="49.099327" lon="7.080487">
        <ele>250.0</ele>
        <time>2020-07-10T08:59:26Z</time>
      </trkpt>
      <trkpt lat="49.099327" lon="7.080487">
        <ele>250.0</ele>
        <time>2020-07-10T08:59:29Z</time>
      </trkpt>
      <trkpt lat="49.099327" lon="7.080487">
        <ele>250.0</ele>
        <time>2020-07-10T08:59:31Z</time>
      </trkpt>
      <trkpt lat="49.099327" lon="7.080487">
        <ele>250.0</ele>
        <time>2020-07-10T08:59:33Z</time>
      </trkpt>
      <trkpt lat="49.099327" lon="7.080487">
        <ele>250.0</ele>
        <time>2020-07-10T08:59:35Z</time>
      </trkpt>
      <trkpt lat="49.099327" lon="7.080487">
        <ele>250.0</ele>
        <time>2020-07-10T08:59:37Z</time>
      </trkpt>
      <trkpt lat="49.099327" lon="7.080487">
        <ele>250.0</ele>
        <time>2020-07-10T08:59:39Z</time>
      </trkpt>
      <trkpt lat="49.099327" lon="7.080487">
        <ele>250.0</ele>
        <time>2020-07-10T08:59:41Z</time>
      </trkpt>
      <trkpt lat="49.099332" lon="7.080485">
        <ele>248.0</ele>
        <time>2020-07-10T08:59:43Z</time>
      </trkpt>
      <trkpt lat="49.099334" lon="7.080479">
        <ele>247.0</ele>
        <time>2020-07-10T08:59:45Z</time>
      </trkpt>
      <trkpt lat="49.099334" lon="7.080479">
        <ele>247.0</ele>
        <time>2020-07-10T08:59:47Z</time>
      </trkpt>
      <trkpt lat="49.099314" lon="7.080494">
        <ele>246.0</ele>
        <time>2020-07-10T08:59:49Z</time>
      </trkpt>
      <trkpt lat="49.099286" lon="7.080531">
        <ele>247.0</ele>
        <time>2020-07-10T08:59:51Z</time>
      </trkpt>
      <trkpt lat="49.099235" lon="7.080577">
        <ele>248.0</ele>
        <time>2020-07-10T08:59:53Z</time>
      </trkpt>
      <trkpt lat="49.099173" lon="7.080623">
        <ele>249.0</ele>
        <time>2020-07-10T08:59:55Z</time>
      </trkpt>
      <trkpt lat="49.099107" lon="7.080666">
        <ele>249.0</ele>
        <time>2020-07-10T08:59:57Z</time>
      </trkpt>
      <trkpt lat="49.099022" lon="7.080733">
        <ele>248.0</ele>
        <time>2020-07-10T08:59:59Z</time>
      </trkpt>
      <trkpt lat="49.098947" lon="7.080783">
        <ele>247.0</ele>
        <time>2020-07-10T09:00:01Z</time>
      </trkpt>
      <trkpt lat="49.098882" lon="7.080838">
        <ele>247.0</ele>
        <time>2020-07-10T09:00:03Z</time>
      </trkpt>
      <trkpt lat="49.09882" lon="7.080878">
        <ele>247.0</ele>
        <time>2020-07-10T09:00:05Z</time>
      </trkpt>
      <trkpt lat="49.098751" lon="7.080929">
        <ele>247.0</ele>
        <time>2020-07-10T09:00:07Z</time>
      </trkpt>
      <trkpt lat="49.098672" lon="7.080977">
        <ele>248.0</ele>
        <time>2020-07-10T09:00:09Z</time>
      </trkpt>
      <trkpt lat="49.098589" lon="7.081041">
        <ele>247.0</ele>
        <time>2020-07-10T09:00:11Z</time>
      </trkpt>
      <trkpt lat="49.098548" lon="7.081073">
        <ele>248.0</ele>
        <time>2020-07-10T09:00:12Z</time>
      </trkpt>
      <trkpt lat="49.098462" lon="7.081142">
        <ele>248.0</ele>
        <time>2020-07-10T09:00:14Z</time>
      </trkpt>
      <trkpt lat="49.098283" lon="7.081282">
        <ele>248.0</ele>
        <time>2020-07-10T09:00:18Z</time>
      </trkpt>
      <trkpt lat="49.098195" lon="7.081353">
        <ele>248.0</ele>
        <time>2020-07-10T09:00:20Z</time>
      </trkpt>
      <trkpt lat="49.098108" lon="7.081433">
        <ele>248.0</ele>
        <time>2020-07-10T09:00:22Z</time>
      </trkpt>
      <trkpt lat="49.098022" lon="7.081513">
        <ele>248.0</ele>
        <time>2020-07-10T09:00:24Z</time>
      </trkpt>
      <trkpt lat="49.097927" lon="7.08159">
        <ele>249.0</ele>
        <time>2020-07-10T09:00:26Z</time>
      </trkpt>
      <trkpt lat="49.097842" lon="7.081678">
        <ele>248.0</ele>
        <time>2020-07-10T09:00:28Z</time>
      </trkpt>
      <trkpt lat="49.097759" lon="7.081777">
        <ele>249.0</ele>
        <time>2020-07-10T09:00:30Z</time>
      </trkpt>
      <trkpt lat="49.097674" lon="7.081869">
        <ele>249.0</ele>
        <time>2020-07-10T09:00:32Z</time>
      </trkpt>
      <trkpt lat="49.09759" lon="7.081957">
        <ele>249.0</ele>
        <time>2020-07-10T09:00:34Z</time>
      </trkpt>
      <trkpt lat="49.097499" lon="7.082043">
        <ele>249.0</ele>
        <time>2020-07-10T09:00:36Z</time>
      </trkpt>
      <trkpt lat="49.097412" lon="7.08214">
        <ele>249.0</ele>
        <time>2020-07-10T09:00:38Z</time>
      </trkpt>
      <trkpt lat="49.097325" lon="7.082239">
        <ele>249.0</ele>
        <time>2020-07-10T09:00:40Z</time>
      </trkpt>
      <trkpt lat="49.097234" lon="7.08235">
        <ele>249.0</ele>
        <time>2020-07-10T09:00:42Z</time>
      </trkpt>
      <trkpt lat="49.097146" lon="7.082458">
        <ele>249.0</ele>
        <time>2020-07-10T09:00:44Z</time>
      </trkpt>
      <trkpt lat="49.097063" lon="7.082575">
        <ele>249.0</ele>
        <time>2020-07-10T09:00:46Z</time>
      </trkpt>
      <trkpt lat="49.09698" lon="7.08269">
        <ele>250.0</ele>
        <time>2020-07-10T09:00:48Z</time>
      </trkpt>
      <trkpt lat="49.096898" lon="7.082815">
        <ele>250.0</ele>
        <time>2020-07-10T09:00:50Z</time>
      </trkpt>
      <trkpt lat="49.096812" lon="7.082929">
        <ele>250.0</ele>
        <time>2020-07-10T09:00:52Z</time>
      </trkpt>
      <trkpt lat="49.096728" lon="7.083048">
        <ele>250.0</ele>
        <time>2020-07-10T09:00:54Z</time>
      </trkpt>
      <trkpt lat="49.096644" lon="7.083178">
        <ele>250.0</ele>
        <time>2020-07-10T09:00:56Z</time>
      </trkpt>
      <trkpt lat="49.096565" lon="7.08331">
        <ele>249.0</ele>
        <time>2020-07-10T09:00:58Z</time>
      </trkpt>
      <trkpt lat="49.096483" lon="7.083435">
        <ele>249.0</ele>
        <time>2020-07-10T09:01:00Z</time>
      </trkpt>
      <trkpt lat="49.096404" lon="7.083565">
        <ele>249.0</ele>
        <time>2020-07-10T09:01:02Z</time>
      </trkpt>
      <trkpt lat="49.096326" lon="7.083693">
        <ele>248.0</ele>
        <time>2020-07-10T09:01:04Z</time>
      </trkpt>
      <trkpt lat="49.096252" lon="7.083833">
        <ele>249.0</ele>
        <time>2020-07-10T09:01:06Z</time>
      </trkpt>
      <trkpt lat="49.09618" lon="7.08397">
        <ele>249.0</ele>
        <time>2020-07-10T09:01:08Z</time>
      </trkpt>
      <trkpt lat="49.096103" lon="7.084104">
        <ele>248.0</ele>
        <time>2020-07-10T09:01:10Z</time>
      </trkpt>
      <trkpt lat="49.09603" lon="7.084244">
        <ele>249.0</ele>
        <time>2020-07-10T09:01:12Z</time>
      </trkpt>
      <trkpt lat="49.095961" lon="7.084384">
        <ele>249.0</ele>
        <time>2020-07-10T09:01:14Z</time>
      </trkpt>
      <trkpt lat="49.09589" lon="7.084531">
        <ele>249.0</ele>
        <time>2020-07-10T09:01:16Z</time>
      </trkpt>
      <trkpt lat="49.095823" lon="7.084679">
        <ele>249.0</ele>
        <time>2020-07-10T09:01:18Z</time>
      </trkpt>
      <trkpt lat="49.095718" lon="7.084903">
        <ele>249.0</ele>
        <time>2020-07-10T09:01:21Z</time>
      </trkpt>
      <trkpt lat="49.095657" lon="7.085054">
        <ele>249.0</ele>
        <time>2020-07-10T09:01:23Z</time>
      </trkpt>
      <trkpt lat="49.095625" lon="7.08513">
        <ele>249.0</ele>
        <time>2020-07-10T09:01:24Z</time>
      </trkpt>
      <trkpt lat="49.095541" lon="7.085369">
        <ele>249.0</ele>
        <time>2020-07-10T09:01:27Z</time>
      </trkpt>
      <trkpt lat="49.095481" lon="7.085514">
        <ele>250.0</ele>
        <time>2020-07-10T09:01:29Z</time>
      </trkpt>
      <trkpt lat="49.095425" lon="7.085662">
        <ele>250.0</ele>
        <time>2020-07-10T09:01:31Z</time>
      </trkpt>
      <trkpt lat="49.09537" lon="7.085821">
        <ele>251.0</ele>
        <time>2020-07-10T09:01:33Z</time>
      </trkpt>
      <trkpt lat="49.09532" lon="7.085974">
        <ele>252.0</ele>
        <time>2020-07-10T09:01:35Z</time>
      </trkpt>
      <trkpt lat="49.095296" lon="7.086058">
        <ele>252.0</ele>
        <time>2020-07-10T09:01:36Z</time>
      </trkpt>
      <trkpt lat="49.095225" lon="7.086305">
        <ele>252.0</ele>
        <time>2020-07-10T09:01:39Z</time>
      </trkpt>
      <trkpt lat="49.095177" lon="7.08647">
        <ele>252.0</ele>
        <time>2020-07-10T09:01:41Z</time>
      </trkpt>
      <trkpt lat="49.095129" lon="7.086635">
        <ele>253.0</ele>
        <time>2020-07-10T09:01:43Z</time>
      </trkpt>
      <trkpt lat="49.095089" lon="7.086799">
        <ele>252.0</ele>
        <time>2020-07-10T09:01:45Z</time>
      </trkpt>
      <trkpt lat="49.095046" lon="7.086973">
        <ele>252.0</ele>
        <time>2020-07-10T09:01:47Z</time>
      </trkpt>
      <trkpt lat="49.094995" lon="7.087144">
        <ele>252.0</ele>
        <time>2020-07-10T09:01:49Z</time>
      </trkpt>
      <trkpt lat="49.09495" lon="7.08731">
        <ele>252.0</ele>
        <time>2020-07-10T09:01:51Z</time>
      </trkpt>
      <trkpt lat="49.094909" lon="7.087474">
        <ele>252.0</ele>
        <time>2020-07-10T09:01:53Z</time>
      </trkpt>
      <trkpt lat="49.094869" lon="7.08764">
        <ele>253.0</ele>
        <time>2020-07-10T09:01:55Z</time>
      </trkpt>
      <trkpt lat="49.094827" lon="7.087807">
        <ele>252.0</ele>
        <time>2020-07-10T09:01:57Z</time>
      </trkpt>
      <trkpt lat="49.094786" lon="7.087966">
        <ele>252.0</ele>
        <time>2020-07-10T09:01:59Z</time>
      </trkpt>
      <trkpt lat="49.094746" lon="7.088125">
        <ele>252.0</ele>
        <time>2020-07-10T09:02:01Z</time>
      </trkpt>
      <trkpt lat="49.094701" lon="7.088282">
        <ele>252.0</ele>
        <time>2020-07-10T09:02:03Z</time>
      </trkpt>
      <trkpt lat="49.094648" lon="7.088449">
        <ele>252.0</ele>
        <time>2020-07-10T09:02:05Z</time>
      </trkpt>
      <trkpt lat="49.094602" lon="7.088615">
        <ele>252.0</ele>
        <time>2020-07-10T09:02:07Z</time>
      </trkpt>
      <trkpt lat="49.094554" lon="7.088787">
        <ele>252.0</ele>
        <time>2020-07-10T09:02:09Z</time>
      </trkpt>
      <trkpt lat="49.094513" lon="7.088963">
        <ele>251.0</ele>
        <time>2020-07-10T09:02:11Z</time>
      </trkpt>
      <trkpt lat="49.094478" lon="7.089135">
        <ele>251.0</ele>
        <time>2020-07-10T09:02:13Z</time>
      </trkpt>
      <trkpt lat="49.094438" lon="7.089298">
        <ele>251.0</ele>
        <time>2020-07-10T09:02:15Z</time>
      </trkpt>
      <trkpt lat="49.094395" lon="7.08948">
        <ele>251.0</ele>
        <time>2020-07-10T09:02:17Z</time>
      </trkpt>
      <trkpt lat="49.094346" lon="7.089647">
        <ele>251.0</ele>
        <time>2020-07-10T09:02:19Z</time>
      </trkpt>
      <trkpt lat="49.094295" lon="7.089816">
        <ele>252.0</ele>
        <time>2020-07-10T09:02:21Z</time>
      </trkpt>
      <trkpt lat="49.094248" lon="7.089988">
        <ele>251.0</ele>
        <time>2020-07-10T09:02:23Z</time>
      </trkpt>
      <trkpt lat="49.094215" lon="7.090163">
        <ele>251.0</ele>
        <time>2020-07-10T09:02:25Z</time>
      </trkpt>
      <trkpt lat="49.094168" lon="7.090323">
        <ele>251.0</ele>
        <time>2020-07-10T09:02:27Z</time>
      </trkpt>
      <trkpt lat="49.094112" lon="7.090491">
        <ele>251.0</ele>
        <time>2020-07-10T09:02:29Z</time>
      </trkpt>
      <trkpt lat="49.094058" lon="7.090647">
        <ele>251.0</ele>
        <time>2020-07-10T09:02:31Z</time>
      </trkpt>
      <trkpt lat="49.094006" lon="7.090804">
        <ele>251.0</ele>
        <time>2020-07-10T09:02:33Z</time>
      </trkpt>
      <trkpt lat="49.093958" lon="7.090967">
        <ele>251.0</ele>
        <time>2020-07-10T09:02:35Z</time>
      </trkpt>
      <trkpt lat="49.0939" lon="7.091123">
        <ele>250.0</ele>
        <time>2020-07-10T09:02:37Z</time>
      </trkpt>
      <trkpt lat="49.093838" lon="7.091278">
        <ele>250.0</ele>
        <time>2020-07-10T09:02:39Z</time>
      </trkpt>
      <trkpt lat="49.093783" lon="7.091438">
        <ele>250.0</ele>
        <time>2020-07-10T09:02:41Z</time>
      </trkpt>
      <trkpt lat="49.09372" lon="7.091595">
        <ele>250.0</ele>
        <time>2020-07-10T09:02:43Z</time>
      </trkpt>
      <trkpt lat="49.09366" lon="7.091752">
        <ele>250.0</ele>
        <time>2020-07-10T09:02:45Z</time>
      </trkpt>
      <trkpt lat="49.093598" lon="7.091918">
        <ele>249.0</ele>
        <time>2020-07-10T09:02:47Z</time>
      </trkpt>
      <trkpt lat="49.093531" lon="7.092071">
        <ele>249.0</ele>
        <time>2020-07-10T09:02:49Z</time>
      </trkpt>
      <trkpt lat="49.093462" lon="7.092233">
        <ele>249.0</ele>
        <time>2020-07-10T09:02:51Z</time>
      </trkpt>
      <trkpt lat="49.093403" lon="7.092373">
        <ele>249.0</ele>
        <time>2020-07-10T09:02:53Z</time>
      </trkpt>
      <trkpt lat="49.09334" lon="7.092517">
        <ele>249.0</ele>
        <time>2020-07-10T09:02:55Z</time>
      </trkpt>
      <trkpt lat="49.093264" lon="7.092646">
        <ele>250.0</ele>
        <time>2020-07-10T09:02:57Z</time>
      </trkpt>
      <trkpt lat="49.093187" lon="7.092795">
        <ele>250.0</ele>
        <time>2020-07-10T09:02:59Z</time>
      </trkpt>
      <trkpt lat="49.093105" lon="7.092948">
        <ele>250.0</ele>
        <time>2020-07-10T09:03:01Z</time>
      </trkpt>
      <trkpt lat="49.093016" lon="7.093102">
        <ele>249.0</ele>
        <time>2020-07-10T09:03:03Z</time>
      </trkpt>
      <trkpt lat="49.092933" lon="7.093254">
        <ele>249.0</ele>
        <time>2020-07-10T09:03:05Z</time>
      </trkpt>
      <trkpt lat="49.092853" lon="7.093399">
        <ele>249.0</ele>
        <time>2020-07-10T09:03:07Z</time>
      </trkpt>
      <trkpt lat="49.092771" lon="7.093539">
        <ele>249.0</ele>
        <time>2020-07-10T09:03:09Z</time>
      </trkpt>
      <trkpt lat="49.092687" lon="7.093675">
        <ele>248.0</ele>
        <time>2020-07-10T09:03:11Z</time>
      </trkpt>
      <trkpt lat="49.0926" lon="7.093809">
        <ele>249.0</ele>
        <time>2020-07-10T09:03:13Z</time>
      </trkpt>
      <trkpt lat="49.092517" lon="7.093939">
        <ele>249.0</ele>
        <time>2020-07-10T09:03:15Z</time>
      </trkpt>
      <trkpt lat="49.092431" lon="7.094066">
        <ele>249.0</ele>
        <time>2020-07-10T09:03:17Z</time>
      </trkpt>
      <trkpt lat="49.092342" lon="7.094194">
        <ele>249.0</ele>
        <time>2020-07-10T09:03:19Z</time>
      </trkpt>
      <trkpt lat="49.092267" lon="7.094321">
        <ele>249.0</ele>
        <time>2020-07-10T09:03:21Z</time>
      </trkpt>
      <trkpt lat="49.092194" lon="7.094448">
        <ele>249.0</ele>
        <time>2020-07-10T09:03:23Z</time>
      </trkpt>
      <trkpt lat="49.092121" lon="7.094579">
        <ele>249.0</ele>
        <time>2020-07-10T09:03:25Z</time>
      </trkpt>
      <trkpt lat="49.092049" lon="7.0947">
        <ele>249.0</ele>
        <time>2020-07-10T09:03:27Z</time>
      </trkpt>
      <trkpt lat="49.091979" lon="7.094813">
        <ele>250.0</ele>
        <time>2020-07-10T09:03:29Z</time>
      </trkpt>
      <trkpt lat="49.091913" lon="7.09492">
        <ele>250.0</ele>
        <time>2020-07-10T09:03:31Z</time>
      </trkpt>
      <trkpt lat="49.091851" lon="7.095019">
        <ele>250.0</ele>
        <time>2020-07-10T09:03:33Z</time>
      </trkpt>
      <trkpt lat="49.091728" lon="7.095179">
        <ele>250.0</ele>
        <time>2020-07-10T09:03:36Z</time>
      </trkpt>
      <trkpt lat="49.091642" lon="7.095287">
        <ele>250.0</ele>
        <time>2020-07-10T09:03:38Z</time>
      </trkpt>
      <trkpt lat="49.091573" lon="7.095405">
        <ele>250.0</ele>
        <time>2020-07-10T09:03:40Z</time>
      </trkpt>
      <trkpt lat="49.091502" lon="7.095528">
        <ele>250.0</ele>
        <time>2020-07-10T09:03:42Z</time>
      </trkpt>
      <trkpt lat="49.0914" lon="7.095703">
        <ele>250.0</ele>
        <time>2020-07-10T09:03:45Z</time>
      </trkpt>
      <trkpt lat="49.091327" lon="7.095817">
        <ele>249.0</ele>
        <time>2020-07-10T09:03:47Z</time>
      </trkpt>
      <trkpt lat="49.091292" lon="7.095873">
        <ele>250.0</ele>
        <time>2020-07-10T09:03:48Z</time>
      </trkpt>
      <trkpt lat="49.091198" lon="7.096056">
        <ele>250.0</ele>
        <time>2020-07-10T09:03:51Z</time>
      </trkpt>
      <trkpt lat="49.091121" lon="7.096173">
        <ele>250.0</ele>
        <time>2020-07-10T09:03:53Z</time>
      </trkpt>
      <trkpt lat="49.091045" lon="7.096284">
        <ele>251.0</ele>
        <time>2020-07-10T09:03:55Z</time>
      </trkpt>
      <trkpt lat="49.090974" lon="7.096413">
        <ele>251.0</ele>
        <time>2020-07-10T09:03:57Z</time>
      </trkpt>
      <trkpt lat="49.090939" lon="7.096479">
        <ele>251.0</ele>
        <time>2020-07-10T09:03:58Z</time>
      </trkpt>
      <trkpt lat="49.090835" lon="7.096664">
        <ele>251.0</ele>
        <time>2020-07-10T09:04:01Z</time>
      </trkpt>
      <trkpt lat="49.090765" lon="7.096784">
        <ele>252.0</ele>
        <time>2020-07-10T09:04:03Z</time>
      </trkpt>
      <trkpt lat="49.09069" lon="7.096906">
        <ele>252.0</ele>
        <time>2020-07-10T09:04:05Z</time>
      </trkpt>
      <trkpt lat="49.090611" lon="7.097023">
        <ele>252.0</ele>
        <time>2020-07-10T09:04:07Z</time>
      </trkpt>
      <trkpt lat="49.090539" lon="7.09714">
        <ele>253.0</ele>
        <time>2020-07-10T09:04:09Z</time>
      </trkpt>
      <trkpt lat="49.090466" lon="7.09726">
        <ele>253.0</ele>
        <time>2020-07-10T09:04:11Z</time>
      </trkpt>
      <trkpt lat="49.09043" lon="7.097318">
        <ele>253.0</ele>
        <time>2020-07-10T09:04:12Z</time>
      </trkpt>
      <trkpt lat="49.090282" lon="7.097559">
        <ele>252.0</ele>
        <time>2020-07-10T09:04:16Z</time>
      </trkpt>
      <trkpt lat="49.090197" lon="7.097681">
        <ele>252.0</ele>
        <time>2020-07-10T09:04:18Z</time>
      </trkpt>
      <trkpt lat="49.090121" lon="7.09781">
        <ele>253.0</ele>
        <time>2020-07-10T09:04:20Z</time>
      </trkpt>
      <trkpt lat="49.090051" lon="7.097937">
        <ele>253.0</ele>
        <time>2020-07-10T09:04:22Z</time>
      </trkpt>
      <trkpt lat="49.089985" lon="7.098055">
        <ele>253.0</ele>
        <time>2020-07-10T09:04:24Z</time>
      </trkpt>
      <trkpt lat="49.089871" lon="7.098245">
        <ele>253.0</ele>
        <time>2020-07-10T09:04:27Z</time>
      </trkpt>
      <trkpt lat="49.089793" lon="7.098368">
        <ele>253.0</ele>
        <time>2020-07-10T09:04:29Z</time>
      </trkpt>
      <trkpt lat="49.089705" lon="7.09849">
        <ele>254.0</ele>
        <time>2020-07-10T09:04:31Z</time>
      </trkpt>
      <trkpt lat="49.089628" lon="7.098619">
        <ele>254.0</ele>
        <time>2020-07-10T09:04:33Z</time>
      </trkpt>
      <trkpt lat="49.089559" lon="7.098751">
        <ele>254.0</ele>
        <time>2020-07-10T09:04:35Z</time>
      </trkpt>
      <trkpt lat="49.089486" lon="7.098889">
        <ele>254.0</ele>
        <time>2020-07-10T09:04:37Z</time>
      </trkpt>
      <trkpt lat="49.08942" lon="7.099016">
        <ele>254.0</ele>
        <time>2020-07-10T09:04:39Z</time>
      </trkpt>
      <trkpt lat="49.089343" lon="7.099141">
        <ele>254.0</ele>
        <time>2020-07-10T09:04:41Z</time>
      </trkpt>
      <trkpt lat="49.089265" lon="7.099272">
        <ele>253.0</ele>
        <time>2020-07-10T09:04:43Z</time>
      </trkpt>
      <trkpt lat="49.089194" lon="7.099411">
        <ele>253.0</ele>
        <time>2020-07-10T09:04:45Z</time>
      </trkpt>
      <trkpt lat="49.089132" lon="7.099547">
        <ele>252.0</ele>
        <time>2020-07-10T09:04:47Z</time>
      </trkpt>
      <trkpt lat="49.089105" lon="7.099694">
        <ele>253.0</ele>
        <time>2020-07-10T09:04:49Z</time>
      </trkpt>
      <trkpt lat="49.089106" lon="7.099865">
        <ele>253.0</ele>
        <time>2020-07-10T09:04:51Z</time>
      </trkpt>
      <trkpt lat="49.089067" lon="7.10007">
        <ele>253.0</ele>
        <time>2020-07-10T09:04:54Z</time>
      </trkpt>
      <trkpt lat="49.089021" lon="7.100103">
        <ele>253.0</ele>
        <time>2020-07-10T09:04:55Z</time>
      </trkpt>
      <trkpt lat="49.088865" lon="7.100151">
        <ele>253.0</ele>
        <time>2020-07-10T09:04:58Z</time>
      </trkpt>
      <trkpt lat="49.088763" lon="7.100237">
        <ele>253.0</ele>
        <time>2020-07-10T09:05:00Z</time>
      </trkpt>
      <trkpt lat="49.088689" lon="7.100347">
        <ele>253.0</ele>
        <time>2020-07-10T09:05:02Z</time>
      </trkpt>
      <trkpt lat="49.08863" lon="7.100474">
        <ele>253.0</ele>
        <time>2020-07-10T09:05:04Z</time>
      </trkpt>
      <trkpt lat="49.088562" lon="7.100592">
        <ele>253.0</ele>
        <time>2020-07-10T09:05:06Z</time>
      </trkpt>
      <trkpt lat="49.088489" lon="7.100721">
        <ele>253.0</ele>
        <time>2020-07-10T09:05:08Z</time>
      </trkpt>
      <trkpt lat="49.088423" lon="7.100843">
        <ele>253.0</ele>
        <time>2020-07-10T09:05:10Z</time>
      </trkpt>
      <trkpt lat="49.088353" lon="7.100969">
        <ele>253.0</ele>
        <time>2020-07-10T09:05:12Z</time>
      </trkpt>
      <trkpt lat="49.088272" lon="7.101094">
        <ele>253.0</ele>
        <time>2020-07-10T09:05:14Z</time>
      </trkpt>
      <trkpt lat="49.088206" lon="7.101228">
        <ele>252.0</ele>
        <time>2020-07-10T09:05:16Z</time>
      </trkpt>
      <trkpt lat="49.088136" lon="7.101349">
        <ele>252.0</ele>
        <time>2020-07-10T09:05:18Z</time>
      </trkpt>
      <trkpt lat="49.088081" lon="7.101463">
        <ele>253.0</ele>
        <time>2020-07-10T09:05:20Z</time>
      </trkpt>
      <trkpt lat="49.08801" lon="7.101596">
        <ele>253.0</ele>
        <time>2020-07-10T09:05:22Z</time>
      </trkpt>
      <trkpt lat="49.087931" lon="7.101724">
        <ele>252.0</ele>
        <time>2020-07-10T09:05:24Z</time>
      </trkpt>
      <trkpt lat="49.087821" lon="7.101929">
        <ele>252.0</ele>
        <time>2020-07-10T09:05:27Z</time>
      </trkpt>
      <trkpt lat="49.087752" lon="7.102075">
        <ele>251.0</ele>
        <time>2020-07-10T09:05:29Z</time>
      </trkpt>
      <trkpt lat="49.087682" lon="7.102211">
        <ele>251.0</ele>
        <time>2020-07-10T09:05:31Z</time>
      </trkpt>
      <trkpt lat="49.087615" lon="7.102362">
        <ele>251.0</ele>
        <time>2020-07-10T09:05:33Z</time>
      </trkpt>
      <trkpt lat="49.087545" lon="7.102502">
        <ele>251.0</ele>
        <time>2020-07-10T09:05:35Z</time>
      </trkpt>
      <trkpt lat="49.087486" lon="7.102641">
        <ele>251.0</ele>
        <time>2020-07-10T09:05:37Z</time>
      </trkpt>
      <trkpt lat="49.087428" lon="7.10278">
        <ele>251.0</ele>
        <time>2020-07-10T09:05:39Z</time>
      </trkpt>
      <trkpt lat="49.087382" lon="7.102924">
        <ele>251.0</ele>
        <time>2020-07-10T09:05:41Z</time>
      </trkpt>
      <trkpt lat="49.087331" lon="7.10307">
        <ele>251.0</ele>
        <time>2020-07-10T09:05:43Z</time>
      </trkpt>
      <trkpt lat="49.087281" lon="7.103221">
        <ele>250.0</ele>
        <time>2020-07-10T09:05:45Z</time>
      </trkpt>
      <trkpt lat="49.087227" lon="7.103374">
        <ele>250.0</ele>
        <time>2020-07-10T09:05:47Z</time>
      </trkpt>
      <trkpt lat="49.087171" lon="7.103533">
        <ele>250.0</ele>
        <time>2020-07-10T09:05:49Z</time>
      </trkpt>
      <trkpt lat="49.087118" lon="7.103698">
        <ele>250.0</ele>
        <time>2020-07-10T09:05:51Z</time>
      </trkpt>
      <trkpt lat="49.087067" lon="7.103858">
        <ele>250.0</ele>
        <time>2020-07-10T09:05:53Z</time>
      </trkpt>
      <trkpt lat="49.087024" lon="7.104019">
        <ele>251.0</ele>
        <time>2020-07-10T09:05:55Z</time>
      </trkpt>
      <trkpt lat="49.086979" lon="7.104181">
        <ele>251.0</ele>
        <time>2020-07-10T09:05:57Z</time>
      </trkpt>
      <trkpt lat="49.086946" lon="7.104351">
        <ele>251.0</ele>
        <time>2020-07-10T09:05:59Z</time>
      </trkpt>
      <trkpt lat="49.08691" lon="7.104507">
        <ele>251.0</ele>
        <time>2020-07-10T09:06:01Z</time>
      </trkpt>
      <trkpt lat="49.086866" lon="7.10467">
        <ele>251.0</ele>
        <time>2020-07-10T09:06:03Z</time>
      </trkpt>
      <trkpt lat="49.086841" lon="7.104838">
        <ele>251.0</ele>
        <time>2020-07-10T09:06:05Z</time>
      </trkpt>
      <trkpt lat="49.086807" lon="7.105014">
        <ele>251.0</ele>
        <time>2020-07-10T09:06:07Z</time>
      </trkpt>
      <trkpt lat="49.086774" lon="7.105193">
        <ele>252.0</ele>
        <time>2020-07-10T09:06:09Z</time>
      </trkpt>
      <trkpt lat="49.086747" lon="7.105345">
        <ele>252.0</ele>
        <time>2020-07-10T09:06:11Z</time>
      </trkpt>
      <trkpt lat="49.086725" lon="7.10552">
        <ele>251.0</ele>
        <time>2020-07-10T09:06:13Z</time>
      </trkpt>
      <trkpt lat="49.086699" lon="7.10571">
        <ele>252.0</ele>
        <time>2020-07-10T09:06:15Z</time>
      </trkpt>
      <trkpt lat="49.086676" lon="7.105899">
        <ele>252.0</ele>
        <time>2020-07-10T09:06:17Z</time>
      </trkpt>
      <trkpt lat="49.086659" lon="7.106075">
        <ele>253.0</ele>
        <time>2020-07-10T09:06:19Z</time>
      </trkpt>
      <trkpt lat="49.086642" lon="7.106244">
        <ele>253.0</ele>
        <time>2020-07-10T09:06:21Z</time>
      </trkpt>
      <trkpt lat="49.086627" lon="7.106414">
        <ele>253.0</ele>
        <time>2020-07-10T09:06:23Z</time>
      </trkpt>
      <trkpt lat="49.086622" lon="7.106596">
        <ele>253.0</ele>
        <time>2020-07-10T09:06:25Z</time>
      </trkpt>
      <trkpt lat="49.08662" lon="7.106781">
        <ele>253.0</ele>
        <time>2020-07-10T09:06:27Z</time>
      </trkpt>
      <trkpt lat="49.086614" lon="7.106956">
        <ele>253.0</ele>
        <time>2020-07-10T09:06:29Z</time>
      </trkpt>
      <trkpt lat="49.086612" lon="7.107127">
        <ele>253.0</ele>
        <time>2020-07-10T09:06:31Z</time>
      </trkpt>
      <trkpt lat="49.086611" lon="7.107301">
        <ele>253.0</ele>
        <time>2020-07-10T09:06:33Z</time>
      </trkpt>
      <trkpt lat="49.086614" lon="7.107481">
        <ele>253.0</ele>
        <time>2020-07-10T09:06:35Z</time>
      </trkpt>
      <trkpt lat="49.086624" lon="7.107656">
        <ele>253.0</ele>
        <time>2020-07-10T09:06:37Z</time>
      </trkpt>
      <trkpt lat="49.086628" lon="7.107829">
        <ele>254.0</ele>
        <time>2020-07-10T09:06:39Z</time>
      </trkpt>
      <trkpt lat="49.086625" lon="7.108093">
        <ele>253.0</ele>
        <time>2020-07-10T09:06:42Z</time>
      </trkpt>
      <trkpt lat="49.086627" lon="7.108183">
        <ele>253.0</ele>
        <time>2020-07-10T09:06:43Z</time>
      </trkpt>
      <trkpt lat="49.086648" lon="7.108454">
        <ele>253.0</ele>
        <time>2020-07-10T09:06:46Z</time>
      </trkpt>
      <trkpt lat="49.086665" lon="7.108639">
        <ele>252.0</ele>
        <time>2020-07-10T09:06:48Z</time>
      </trkpt>
      <trkpt lat="49.086669" lon="7.108828">
        <ele>252.0</ele>
        <time>2020-07-10T09:06:50Z</time>
      </trkpt>
      <trkpt lat="49.086678" lon="7.109008">
        <ele>251.0</ele>
        <time>2020-07-10T09:06:52Z</time>
      </trkpt>
      <trkpt lat="49.086694" lon="7.109184">
        <ele>251.0</ele>
        <time>2020-07-10T09:06:54Z</time>
      </trkpt>
      <trkpt lat="49.086707" lon="7.109361">
        <ele>252.0</ele>
        <time>2020-07-10T09:06:56Z</time>
      </trkpt>
      <trkpt lat="49.086723" lon="7.10953">
        <ele>252.0</ele>
        <time>2020-07-10T09:06:58Z</time>
      </trkpt>
      <trkpt lat="49.086738" lon="7.109684">
        <ele>252.0</ele>
        <time>2020-07-10T09:07:00Z</time>
      </trkpt>
      <trkpt lat="49.086757" lon="7.109875">
        <ele>252.0</ele>
        <time>2020-07-10T09:07:03Z</time>
      </trkpt>
      <trkpt lat="49.086766" lon="7.109995">
        <ele>252.0</ele>
        <time>2020-07-10T09:07:05Z</time>
      </trkpt>
      <trkpt lat="49.086767" lon="7.110089">
        <ele>252.0</ele>
        <time>2020-07-10T09:07:07Z</time>
      </trkpt>
      <trkpt lat="49.08677" lon="7.110156">
        <ele>252.0</ele>
        <time>2020-07-10T09:07:09Z</time>
      </trkpt>
      <trkpt lat="49.086771" lon="7.110213">
        <ele>252.0</ele>
        <time>2020-07-10T09:07:11Z</time>
      </trkpt>
      <trkpt lat="49.086765" lon="7.110261">
        <ele>252.0</ele>
        <time>2020-07-10T09:07:13Z</time>
      </trkpt>
      <trkpt lat="49.086757" lon="7.110303">
        <ele>252.0</ele>
        <time>2020-07-10T09:07:15Z</time>
      </trkpt>
      <trkpt lat="49.086772" lon="7.110335">
        <ele>252.0</ele>
        <time>2020-07-10T09:07:17Z</time>
      </trkpt>
      <trkpt lat="49.08677" lon="7.11038">
        <ele>252.0</ele>
        <time>2020-07-10T09:07:19Z</time>
      </trkpt>
      <trkpt lat="49.086757" lon="7.110427">
        <ele>253.0</ele>
        <time>2020-07-10T09:07:21Z</time>
      </trkpt>
      <trkpt lat="49.086756" lon="7.110528">
        <ele>253.0</ele>
        <time>2020-07-10T09:07:24Z</time>
      </trkpt>
      <trkpt lat="49.086769" lon="7.110661">
        <ele>253.0</ele>
        <time>2020-07-10T09:07:27Z</time>
      </trkpt>
      <trkpt lat="49.086775" lon="7.110769">
        <ele>253.0</ele>
        <time>2020-07-10T09:07:29Z</time>
      </trkpt>
      <trkpt lat="49.086795" lon="7.110931">
        <ele>252.0</ele>
        <time>2020-07-10T09:07:32Z</time>
      </trkpt>
      <trkpt lat="49.086805" lon="7.111041">
        <ele>252.0</ele>
        <time>2020-07-10T09:07:34Z</time>
      </trkpt>
      <trkpt lat="49.086815" lon="7.111148">
        <ele>252.0</ele>
        <time>2020-07-10T09:07:36Z</time>
      </trkpt>
      <trkpt lat="49.08682" lon="7.11133">
        <ele>252.0</ele>
        <time>2020-07-10T09:07:39Z</time>
      </trkpt>
      <trkpt lat="49.086822" lon="7.111453">
        <ele>252.0</ele>
        <time>2020-07-10T09:07:41Z</time>
      </trkpt>
      <trkpt lat="49.086826" lon="7.111581">
        <ele>252.0</ele>
        <time>2020-07-10T09:07:43Z</time>
      </trkpt>
      <trkpt lat="49.086832" lon="7.111705">
        <ele>252.0</ele>
        <time>2020-07-10T09:07:45Z</time>
      </trkpt>
      <trkpt lat="49.08685" lon="7.111904">
        <ele>252.0</ele>
        <time>2020-07-10T09:07:48Z</time>
      </trkpt>
      <trkpt lat="49.086867" lon="7.112051">
        <ele>252.0</ele>
        <time>2020-07-10T09:07:50Z</time>
      </trkpt>
      <trkpt lat="49.08689" lon="7.112186">
        <ele>252.0</ele>
        <time>2020-07-10T09:07:52Z</time>
      </trkpt>
      <trkpt lat="49.086898" lon="7.112256">
        <ele>252.0</ele>
        <time>2020-07-10T09:07:53Z</time>
      </trkpt>
      <trkpt lat="49.086932" lon="7.112474">
        <ele>253.0</ele>
        <time>2020-07-10T09:07:56Z</time>
      </trkpt>
      <trkpt lat="49.086952" lon="7.11261">
        <ele>253.0</ele>
        <time>2020-07-10T09:07:58Z</time>
      </trkpt>
      <trkpt lat="49.086978" lon="7.112758">
        <ele>254.0</ele>
        <time>2020-07-10T09:08:00Z</time>
      </trkpt>
      <trkpt lat="49.086995" lon="7.112908">
        <ele>254.0</ele>
        <time>2020-07-10T09:08:02Z</time>
      </trkpt>
      <trkpt lat="49.087009" lon="7.113047">
        <ele>255.0</ele>
        <time>2020-07-10T09:08:04Z</time>
      </trkpt>
      <trkpt lat="49.087014" lon="7.113189">
        <ele>255.0</ele>
        <time>2020-07-10T09:08:06Z</time>
      </trkpt>
      <trkpt lat="49.08702" lon="7.113337">
        <ele>256.0</ele>
        <time>2020-07-10T09:08:08Z</time>
      </trkpt>
      <trkpt lat="49.087034" lon="7.113492">
        <ele>256.0</ele>
        <time>2020-07-10T09:08:10Z</time>
      </trkpt>
      <trkpt lat="49.087045" lon="7.113577">
        <ele>256.0</ele>
        <time>2020-07-10T09:08:11Z</time>
      </trkpt>
      <trkpt lat="49.087075" lon="7.113809">
        <ele>255.0</ele>
        <time>2020-07-10T09:08:14Z</time>
      </trkpt>
      <trkpt lat="49.08709" lon="7.113952">
        <ele>254.0</ele>
        <time>2020-07-10T09:08:16Z</time>
      </trkpt>
      <trkpt lat="49.0871" lon="7.114093">
        <ele>254.0</ele>
        <time>2020-07-10T09:08:18Z</time>
      </trkpt>
      <trkpt lat="49.087123" lon="7.114236">
        <ele>254.0</ele>
        <time>2020-07-10T09:08:20Z</time>
      </trkpt>
      <trkpt lat="49.087152" lon="7.114375">
        <ele>253.0</ele>
        <time>2020-07-10T09:08:22Z</time>
      </trkpt>
      <trkpt lat="49.08717" lon="7.114519">
        <ele>253.0</ele>
        <time>2020-07-10T09:08:24Z</time>
      </trkpt>
      <trkpt lat="49.087196" lon="7.114666">
        <ele>253.0</ele>
        <time>2020-07-10T09:08:26Z</time>
      </trkpt>
      <trkpt lat="49.087211" lon="7.114807">
        <ele>253.0</ele>
        <time>2020-07-10T09:08:28Z</time>
      </trkpt>
      <trkpt lat="49.08723" lon="7.114953">
        <ele>253.0</ele>
        <time>2020-07-10T09:08:30Z</time>
      </trkpt>
      <trkpt lat="49.087256" lon="7.115174">
        <ele>252.0</ele>
        <time>2020-07-10T09:08:33Z</time>
      </trkpt>
      <trkpt lat="49.087268" lon="7.115246">
        <ele>252.0</ele>
        <time>2020-07-10T09:08:34Z</time>
      </trkpt>
      <trkpt lat="49.087295" lon="7.115391">
        <ele>253.0</ele>
        <time>2020-07-10T09:08:36Z</time>
      </trkpt>
      <trkpt lat="49.087337" lon="7.115599">
        <ele>253.0</ele>
        <time>2020-07-10T09:08:39Z</time>
      </trkpt>
      <trkpt lat="49.087361" lon="7.115744">
        <ele>252.0</ele>
        <time>2020-07-10T09:08:41Z</time>
      </trkpt>
      <trkpt lat="49.087385" lon="7.1159">
        <ele>252.0</ele>
        <time>2020-07-10T09:08:43Z</time>
      </trkpt>
      <trkpt lat="49.087407" lon="7.116048">
        <ele>252.0</ele>
        <time>2020-07-10T09:08:45Z</time>
      </trkpt>
      <trkpt lat="49.087434" lon="7.116193">
        <ele>253.0</ele>
        <time>2020-07-10T09:08:47Z</time>
      </trkpt>
      <trkpt lat="49.087459" lon="7.116335">
        <ele>253.0</ele>
        <time>2020-07-10T09:08:49Z</time>
      </trkpt>
      <trkpt lat="49.087486" lon="7.116473">
        <ele>254.0</ele>
        <time>2020-07-10T09:08:51Z</time>
      </trkpt>
      <trkpt lat="49.087509" lon="7.116601">
        <ele>254.0</ele>
        <time>2020-07-10T09:08:53Z</time>
      </trkpt>
      <trkpt lat="49.087527" lon="7.116743">
        <ele>254.0</ele>
        <time>2020-07-10T09:08:55Z</time>
      </trkpt>
      <trkpt lat="49.087543" lon="7.116895">
        <ele>254.0</ele>
        <time>2020-07-10T09:08:57Z</time>
      </trkpt>
      <trkpt lat="49.087564" lon="7.117035">
        <ele>254.0</ele>
        <time>2020-07-10T09:08:59Z</time>
      </trkpt>
      <trkpt lat="49.087577" lon="7.11718">
        <ele>253.0</ele>
        <time>2020-07-10T09:09:01Z</time>
      </trkpt>
      <trkpt lat="49.087596" lon="7.117323">
        <ele>254.0</ele>
        <time>2020-07-10T09:09:03Z</time>
      </trkpt>
      <trkpt lat="49.087617" lon="7.117458">
        <ele>254.0</ele>
        <time>2020-07-10T09:09:05Z</time>
      </trkpt>
      <trkpt lat="49.087643" lon="7.117595">
        <ele>255.0</ele>
        <time>2020-07-10T09:09:07Z</time>
      </trkpt>
      <trkpt lat="49.087667" lon="7.117728">
        <ele>255.0</ele>
        <time>2020-07-10T09:09:09Z</time>
      </trkpt>
      <trkpt lat="49.087679" lon="7.117873">
        <ele>256.0</ele>
        <time>2020-07-10T09:09:11Z</time>
      </trkpt>
      <trkpt lat="49.087689" lon="7.118043">
        <ele>256.0</ele>
        <time>2020-07-10T09:09:13Z</time>
      </trkpt>
      <trkpt lat="49.087708" lon="7.118236">
        <ele>256.0</ele>
        <time>2020-07-10T09:09:15Z</time>
      </trkpt>
      <trkpt lat="49.08773" lon="7.118411">
        <ele>255.0</ele>
        <time>2020-07-10T09:09:17Z</time>
      </trkpt>
      <trkpt lat="49.08774" lon="7.118567">
        <ele>255.0</ele>
        <time>2020-07-10T09:09:19Z</time>
      </trkpt>
      <trkpt lat="49.087759" lon="7.11872">
        <ele>255.0</ele>
        <time>2020-07-10T09:09:21Z</time>
      </trkpt>
      <trkpt lat="49.087781" lon="7.118868">
        <ele>255.0</ele>
        <time>2020-07-10T09:09:23Z</time>
      </trkpt>
      <trkpt lat="49.08779" lon="7.119013">
        <ele>255.0</ele>
        <time>2020-07-10T09:09:25Z</time>
      </trkpt>
      <trkpt lat="49.087799" lon="7.119147">
        <ele>256.0</ele>
        <time>2020-07-10T09:09:27Z</time>
      </trkpt>
      <trkpt lat="49.087807" lon="7.119294">
        <ele>257.0</ele>
        <time>2020-07-10T09:09:29Z</time>
      </trkpt>
      <trkpt lat="49.087809" lon="7.119457">
        <ele>255.0</ele>
        <time>2020-07-10T09:09:31Z</time>
      </trkpt>
      <trkpt lat="49.087817" lon="7.119602">
        <ele>255.0</ele>
        <time>2020-07-10T09:09:33Z</time>
      </trkpt>
      <trkpt lat="49.087824" lon="7.119748">
        <ele>254.0</ele>
        <time>2020-07-10T09:09:35Z</time>
      </trkpt>
      <trkpt lat="49.087849" lon="7.119914">
        <ele>255.0</ele>
        <time>2020-07-10T09:09:37Z</time>
      </trkpt>
      <trkpt lat="49.087857" lon="7.120056">
        <ele>255.0</ele>
        <time>2020-07-10T09:09:39Z</time>
      </trkpt>
      <trkpt lat="49.087858" lon="7.120216">
        <ele>255.0</ele>
        <time>2020-07-10T09:09:41Z</time>
      </trkpt>
      <trkpt lat="49.087857" lon="7.120389">
        <ele>254.0</ele>
        <time>2020-07-10T09:09:43Z</time>
      </trkpt>
      <trkpt lat="49.087859" lon="7.120564">
        <ele>255.0</ele>
        <time>2020-07-10T09:09:45Z</time>
      </trkpt>
      <trkpt lat="49.08787" lon="7.120739">
        <ele>255.0</ele>
        <time>2020-07-10T09:09:47Z</time>
      </trkpt>
      <trkpt lat="49.087872" lon="7.120914">
        <ele>255.0</ele>
        <time>2020-07-10T09:09:49Z</time>
      </trkpt>
      <trkpt lat="49.087872" lon="7.121086">
        <ele>255.0</ele>
        <time>2020-07-10T09:09:51Z</time>
      </trkpt>
      <trkpt lat="49.087872" lon="7.121254">
        <ele>255.0</ele>
        <time>2020-07-10T09:09:53Z</time>
      </trkpt>
      <trkpt lat="49.08787" lon="7.121423">
        <ele>254.0</ele>
        <time>2020-07-10T09:09:55Z</time>
      </trkpt>
      <trkpt lat="49.08787" lon="7.121578">
        <ele>254.0</ele>
        <time>2020-07-10T09:09:57Z</time>
      </trkpt>
      <trkpt lat="49.087868" lon="7.121741">
        <ele>254.0</ele>
        <time>2020-07-10T09:09:59Z</time>
      </trkpt>
      <trkpt lat="49.087863" lon="7.121898">
        <ele>255.0</ele>
        <time>2020-07-10T09:10:01Z</time>
      </trkpt>
      <trkpt lat="49.087853" lon="7.122064">
        <ele>255.0</ele>
        <time>2020-07-10T09:10:03Z</time>
      </trkpt>
      <trkpt lat="49.087852" lon="7.122226">
        <ele>255.0</ele>
        <time>2020-07-10T09:10:05Z</time>
      </trkpt>
      <trkpt lat="49.087856" lon="7.122398">
        <ele>255.0</ele>
        <time>2020-07-10T09:10:07Z</time>
      </trkpt>
      <trkpt lat="49.087846" lon="7.122563">
        <ele>255.0</ele>
        <time>2020-07-10T09:10:09Z</time>
      </trkpt>
      <trkpt lat="49.087835" lon="7.12272">
        <ele>255.0</ele>
        <time>2020-07-10T09:10:11Z</time>
      </trkpt>
      <trkpt lat="49.087839" lon="7.122871">
        <ele>255.0</ele>
        <time>2020-07-10T09:10:13Z</time>
      </trkpt>
      <trkpt lat="49.087839" lon="7.123027">
        <ele>255.0</ele>
        <time>2020-07-10T09:10:15Z</time>
      </trkpt>
      <trkpt lat="49.087834" lon="7.123196">
        <ele>255.0</ele>
        <time>2020-07-10T09:10:17Z</time>
      </trkpt>
      <trkpt lat="49.087825" lon="7.123357">
        <ele>255.0</ele>
        <time>2020-07-10T09:10:19Z</time>
      </trkpt>
      <trkpt lat="49.087813" lon="7.123519">
        <ele>256.0</ele>
        <time>2020-07-10T09:10:21Z</time>
      </trkpt>
      <trkpt lat="49.087801" lon="7.123688">
        <ele>255.0</ele>
        <time>2020-07-10T09:10:23Z</time>
      </trkpt>
      <trkpt lat="49.087793" lon="7.123856">
        <ele>255.0</ele>
        <time>2020-07-10T09:10:25Z</time>
      </trkpt>
      <trkpt lat="49.087781" lon="7.12403">
        <ele>255.0</ele>
        <time>2020-07-10T09:10:27Z</time>
      </trkpt>
      <trkpt lat="49.087762" lon="7.1242">
        <ele>255.0</ele>
        <time>2020-07-10T09:10:29Z</time>
      </trkpt>
      <trkpt lat="49.087742" lon="7.124377">
        <ele>255.0</ele>
        <time>2020-07-10T09:10:31Z</time>
      </trkpt>
      <trkpt lat="49.087727" lon="7.124548">
        <ele>255.0</ele>
        <time>2020-07-10T09:10:33Z</time>
      </trkpt>
      <trkpt lat="49.087694" lon="7.124794">
        <ele>255.0</ele>
        <time>2020-07-10T09:10:36Z</time>
      </trkpt>
      <trkpt lat="49.08768" lon="7.124876">
        <ele>255.0</ele>
        <time>2020-07-10T09:10:37Z</time>
      </trkpt>
      <trkpt lat="49.087658" lon="7.125106">
        <ele>255.0</ele>
        <time>2020-07-10T09:10:40Z</time>
      </trkpt>
      <trkpt lat="49.087626" lon="7.125275">
        <ele>256.0</ele>
        <time>2020-07-10T09:10:42Z</time>
      </trkpt>
      <trkpt lat="49.087603" lon="7.125441">
        <ele>256.0</ele>
        <time>2020-07-10T09:10:44Z</time>
      </trkpt>
      <trkpt lat="49.087582" lon="7.125605">
        <ele>256.0</ele>
        <time>2020-07-10T09:10:46Z</time>
      </trkpt>
      <trkpt lat="49.087569" lon="7.125691">
        <ele>256.0</ele>
        <time>2020-07-10T09:10:47Z</time>
      </trkpt>
      <trkpt lat="49.087541" lon="7.125857">
        <ele>256.0</ele>
        <time>2020-07-10T09:10:49Z</time>
      </trkpt>
      <trkpt lat="49.087509" lon="7.126105">
        <ele>257.0</ele>
        <time>2020-07-10T09:10:52Z</time>
      </trkpt>
      <trkpt lat="49.087487" lon="7.126281">
        <ele>255.0</ele>
        <time>2020-07-10T09:10:54Z</time>
      </trkpt>
      <trkpt lat="49.08747" lon="7.126368">
        <ele>255.0</ele>
        <time>2020-07-10T09:10:55Z</time>
      </trkpt>
      <trkpt lat="49.087407" lon="7.126712">
        <ele>255.0</ele>
        <time>2020-07-10T09:10:59Z</time>
      </trkpt>
      <trkpt lat="49.08738" lon="7.126883">
        <ele>255.0</ele>
        <time>2020-07-10T09:11:01Z</time>
      </trkpt>
      <trkpt lat="49.087346" lon="7.127053">
        <ele>255.0</ele>
        <time>2020-07-10T09:11:03Z</time>
      </trkpt>
      <trkpt lat="49.087314" lon="7.127216">
        <ele>255.0</ele>
        <time>2020-07-10T09:11:05Z</time>
      </trkpt>
      <trkpt lat="49.087285" lon="7.127371">
        <ele>254.0</ele>
        <time>2020-07-10T09:11:07Z</time>
      </trkpt>
      <trkpt lat="49.087255" lon="7.127524">
        <ele>255.0</ele>
        <time>2020-07-10T09:11:09Z</time>
      </trkpt>
      <trkpt lat="49.087223" lon="7.127679">
        <ele>255.0</ele>
        <time>2020-07-10T09:11:11Z</time>
      </trkpt>
      <trkpt lat="49.087192" lon="7.127835">
        <ele>255.0</ele>
        <time>2020-07-10T09:11:13Z</time>
      </trkpt>
      <trkpt lat="49.08715" lon="7.127987">
        <ele>255.0</ele>
        <time>2020-07-10T09:11:15Z</time>
      </trkpt>
      <trkpt lat="49.087105" lon="7.128146">
        <ele>255.0</ele>
        <time>2020-07-10T09:11:17Z</time>
      </trkpt>
      <trkpt lat="49.087059" lon="7.128301">
        <ele>255.0</ele>
        <time>2020-07-10T09:11:19Z</time>
      </trkpt>
      <trkpt lat="49.087017" lon="7.128451">
        <ele>255.0</ele>
        <time>2020-07-10T09:11:21Z</time>
      </trkpt>
      <trkpt lat="49.086972" lon="7.128606">
        <ele>255.0</ele>
        <time>2020-07-10T09:11:23Z</time>
      </trkpt>
      <trkpt lat="49.086915" lon="7.128812">
        <ele>255.0</ele>
        <time>2020-07-10T09:11:26Z</time>
      </trkpt>
      <trkpt lat="49.086845" lon="7.12902">
        <ele>255.0</ele>
        <time>2020-07-10T09:11:29Z</time>
      </trkpt>
      <trkpt lat="49.086818" lon="7.129093">
        <ele>255.0</ele>
        <time>2020-07-10T09:11:30Z</time>
      </trkpt>
      <trkpt lat="49.086716" lon="7.129378">
        <ele>254.0</ele>
        <time>2020-07-10T09:11:34Z</time>
      </trkpt>
      <trkpt lat="49.086689" lon="7.129445">
        <ele>254.0</ele>
        <time>2020-07-10T09:11:35Z</time>
      </trkpt>
      <trkpt lat="49.086606" lon="7.129651">
        <ele>254.0</ele>
        <time>2020-07-10T09:11:38Z</time>
      </trkpt>
      <trkpt lat="49.086525" lon="7.129797">
        <ele>254.0</ele>
        <time>2020-07-10T09:11:40Z</time>
      </trkpt>
      <trkpt lat="49.086452" lon="7.129937">
        <ele>252.0</ele>
        <time>2020-07-10T09:11:42Z</time>
      </trkpt>
      <trkpt lat="49.086356" lon="7.13013">
        <ele>252.0</ele>
        <time>2020-07-10T09:11:45Z</time>
      </trkpt>
      <trkpt lat="49.086274" lon="7.130263">
        <ele>252.0</ele>
        <time>2020-07-10T09:11:47Z</time>
      </trkpt>
      <trkpt lat="49.086187" lon="7.130407">
        <ele>252.0</ele>
        <time>2020-07-10T09:11:49Z</time>
      </trkpt>
      <trkpt lat="49.086091" lon="7.130554">
        <ele>253.0</ele>
        <time>2020-07-10T09:11:51Z</time>
      </trkpt>
      <trkpt lat="49.086008" lon="7.130688">
        <ele>253.0</ele>
        <time>2020-07-10T09:11:53Z</time>
      </trkpt>
      <trkpt lat="49.085918" lon="7.130811">
        <ele>253.0</ele>
        <time>2020-07-10T09:11:55Z</time>
      </trkpt>
      <trkpt lat="49.085828" lon="7.130923">
        <ele>253.0</ele>
        <time>2020-07-10T09:11:57Z</time>
      </trkpt>
      <trkpt lat="49.085746" lon="7.131034">
        <ele>252.0</ele>
        <time>2020-07-10T09:11:59Z</time>
      </trkpt>
      <trkpt lat="49.085666" lon="7.131132">
        <ele>253.0</ele>
        <time>2020-07-10T09:12:01Z</time>
      </trkpt>
      <trkpt lat="49.085589" lon="7.131225">
        <ele>253.0</ele>
        <time>2020-07-10T09:12:03Z</time>
      </trkpt>
      <trkpt lat="49.085504" lon="7.131318">
        <ele>253.0</ele>
        <time>2020-07-10T09:12:05Z</time>
      </trkpt>
      <trkpt lat="49.085416" lon="7.131412">
        <ele>253.0</ele>
        <time>2020-07-10T09:12:07Z</time>
      </trkpt>
      <trkpt lat="49.085284" lon="7.131543">
        <ele>253.0</ele>
        <time>2020-07-10T09:12:10Z</time>
      </trkpt>
      <trkpt lat="49.08519" lon="7.131629">
        <ele>253.0</ele>
        <time>2020-07-10T09:12:12Z</time>
      </trkpt>
      <trkpt lat="49.085102" lon="7.131708">
        <ele>253.0</ele>
        <time>2020-07-10T09:12:14Z</time>
      </trkpt>
      <trkpt lat="49.084954" lon="7.131844">
        <ele>253.0</ele>
        <time>2020-07-10T09:12:17Z</time>
      </trkpt>
      <trkpt lat="49.084853" lon="7.131934">
        <ele>253.0</ele>
        <time>2020-07-10T09:12:19Z</time>
      </trkpt>
      <trkpt lat="49.084709" lon="7.132061">
        <ele>254.0</ele>
        <time>2020-07-10T09:12:22Z</time>
      </trkpt>
      <trkpt lat="49.084621" lon="7.132141">
        <ele>255.0</ele>
        <time>2020-07-10T09:12:24Z</time>
      </trkpt>
      <trkpt lat="49.084524" lon="7.132219">
        <ele>255.0</ele>
        <time>2020-07-10T09:12:26Z</time>
      </trkpt>
      <trkpt lat="49.084425" lon="7.132303">
        <ele>255.0</ele>
        <time>2020-07-10T09:12:28Z</time>
      </trkpt>
      <trkpt lat="49.084381" lon="7.132347">
        <ele>255.0</ele>
        <time>2020-07-10T09:12:29Z</time>
      </trkpt>
      <trkpt lat="49.084232" lon="7.132478">
        <ele>255.0</ele>
        <time>2020-07-10T09:12:32Z</time>
      </trkpt>
      <trkpt lat="49.084146" lon="7.132568">
        <ele>254.0</ele>
        <time>2020-07-10T09:12:34Z</time>
      </trkpt>
      <trkpt lat="49.084057" lon="7.132652">
        <ele>254.0</ele>
        <time>2020-07-10T09:12:36Z</time>
      </trkpt>
      <trkpt lat="49.083959" lon="7.132735">
        <ele>254.0</ele>
        <time>2020-07-10T09:12:38Z</time>
      </trkpt>
      <trkpt lat="49.083809" lon="7.132867">
        <ele>254.0</ele>
        <time>2020-07-10T09:12:41Z</time>
      </trkpt>
      <trkpt lat="49.083715" lon="7.13294">
        <ele>254.0</ele>
        <time>2020-07-10T09:12:43Z</time>
      </trkpt>
      <trkpt lat="49.083616" lon="7.133024">
        <ele>254.0</ele>
        <time>2020-07-10T09:12:45Z</time>
      </trkpt>
      <trkpt lat="49.08351" lon="7.13311">
        <ele>253.0</ele>
        <time>2020-07-10T09:12:47Z</time>
      </trkpt>
      <trkpt lat="49.083367" lon="7.133234">
        <ele>253.0</ele>
        <time>2020-07-10T09:12:50Z</time>
      </trkpt>
      <trkpt lat="49.08327" lon="7.133314">
        <ele>253.0</ele>
        <time>2020-07-10T09:12:52Z</time>
      </trkpt>
      <trkpt lat="49.083138" lon="7.133439">
        <ele>253.0</ele>
        <time>2020-07-10T09:12:55Z</time>
      </trkpt>
      <trkpt lat="49.083092" lon="7.13348">
        <ele>253.0</ele>
        <time>2020-07-10T09:12:56Z</time>
      </trkpt>
      <trkpt lat="49.082943" lon="7.133609">
        <ele>253.0</ele>
        <time>2020-07-10T09:12:59Z</time>
      </trkpt>
      <trkpt lat="49.082852" lon="7.133681">
        <ele>253.0</ele>
        <time>2020-07-10T09:13:01Z</time>
      </trkpt>
      <trkpt lat="49.082714" lon="7.13381">
        <ele>254.0</ele>
        <time>2020-07-10T09:13:04Z</time>
      </trkpt>
      <trkpt lat="49.082668" lon="7.133855">
        <ele>254.0</ele>
        <time>2020-07-10T09:13:05Z</time>
      </trkpt>
      <trkpt lat="49.082482" lon="7.134031">
        <ele>255.0</ele>
        <time>2020-07-10T09:13:09Z</time>
      </trkpt>
      <trkpt lat="49.082386" lon="7.134108">
        <ele>255.0</ele>
        <time>2020-07-10T09:13:11Z</time>
      </trkpt>
      <trkpt lat="49.082292" lon="7.13418">
        <ele>255.0</ele>
        <time>2020-07-10T09:13:13Z</time>
      </trkpt>
      <trkpt lat="49.082202" lon="7.134255">
        <ele>255.0</ele>
        <time>2020-07-10T09:13:15Z</time>
      </trkpt>
      <trkpt lat="49.082107" lon="7.134338">
        <ele>254.0</ele>
        <time>2020-07-10T09:13:17Z</time>
      </trkpt>
      <trkpt lat="49.082019" lon="7.134424">
        <ele>254.0</ele>
        <time>2020-07-10T09:13:19Z</time>
      </trkpt>
      <trkpt lat="49.081923" lon="7.134507">
        <ele>254.0</ele>
        <time>2020-07-10T09:13:21Z</time>
      </trkpt>
      <trkpt lat="49.081828" lon="7.134589">
        <ele>254.0</ele>
        <time>2020-07-10T09:13:23Z</time>
      </trkpt>
      <trkpt lat="49.081732" lon="7.134673">
        <ele>253.0</ele>
        <time>2020-07-10T09:13:25Z</time>
      </trkpt>
      <trkpt lat="49.08164" lon="7.134748">
        <ele>253.0</ele>
        <time>2020-07-10T09:13:27Z</time>
      </trkpt>
      <trkpt lat="49.081557" lon="7.134821">
        <ele>253.0</ele>
        <time>2020-07-10T09:13:29Z</time>
      </trkpt>
      <trkpt lat="49.08147" lon="7.134899">
        <ele>253.0</ele>
        <time>2020-07-10T09:13:31Z</time>
      </trkpt>
      <trkpt lat="49.08138" lon="7.134984">
        <ele>252.0</ele>
        <time>2020-07-10T09:13:33Z</time>
      </trkpt>
      <trkpt lat="49.081291" lon="7.135059">
        <ele>252.0</ele>
        <time>2020-07-10T09:13:35Z</time>
      </trkpt>
      <trkpt lat="49.0812" lon="7.135135">
        <ele>252.0</ele>
        <time>2020-07-10T09:13:37Z</time>
      </trkpt>
      <trkpt lat="49.081115" lon="7.135206">
        <ele>252.0</ele>
        <time>2020-07-10T09:13:39Z</time>
      </trkpt>
      <trkpt lat="49.081031" lon="7.135287">
        <ele>252.0</ele>
        <time>2020-07-10T09:13:41Z</time>
      </trkpt>
      <trkpt lat="49.080943" lon="7.135363">
        <ele>252.0</ele>
        <time>2020-07-10T09:13:43Z</time>
      </trkpt>
      <trkpt lat="49.080802" lon="7.135483">
        <ele>253.0</ele>
        <time>2020-07-10T09:13:46Z</time>
      </trkpt>
      <trkpt lat="49.08071" lon="7.135559">
        <ele>253.0</ele>
        <time>2020-07-10T09:13:48Z</time>
      </trkpt>
      <trkpt lat="49.080623" lon="7.135636">
        <ele>253.0</ele>
        <time>2020-07-10T09:13:50Z</time>
      </trkpt>
      <trkpt lat="49.080492" lon="7.135751">
        <ele>254.0</ele>
        <time>2020-07-10T09:13:53Z</time>
      </trkpt>
      <trkpt lat="49.080364" lon="7.135859">
        <ele>254.0</ele>
        <time>2020-07-10T09:13:56Z</time>
      </trkpt>
      <trkpt lat="49.080282" lon="7.135942">
        <ele>254.0</ele>
        <time>2020-07-10T09:13:58Z</time>
      </trkpt>
      <trkpt lat="49.080199" lon="7.136009">
        <ele>254.0</ele>
        <time>2020-07-10T09:14:00Z</time>
      </trkpt>
      <trkpt lat="49.080115" lon="7.136086">
        <ele>254.0</ele>
        <time>2020-07-10T09:14:02Z</time>
      </trkpt>
      <trkpt lat="49.08003" lon="7.136159">
        <ele>254.0</ele>
        <time>2020-07-10T09:14:04Z</time>
      </trkpt>
      <trkpt lat="49.079943" lon="7.136247">
        <ele>254.0</ele>
        <time>2020-07-10T09:14:06Z</time>
      </trkpt>
      <trkpt lat="49.07987" lon="7.136324">
        <ele>254.0</ele>
        <time>2020-07-10T09:14:08Z</time>
      </trkpt>
      <trkpt lat="49.079795" lon="7.136391">
        <ele>254.0</ele>
        <time>2020-07-10T09:14:10Z</time>
      </trkpt>
      <trkpt lat="49.079678" lon="7.136488">
        <ele>253.0</ele>
        <time>2020-07-10T09:14:13Z</time>
      </trkpt>
      <trkpt lat="49.079597" lon="7.13655">
        <ele>253.0</ele>
        <time>2020-07-10T09:14:15Z</time>
      </trkpt>
      <trkpt lat="49.079515" lon="7.136625">
        <ele>252.0</ele>
        <time>2020-07-10T09:14:17Z</time>
      </trkpt>
      <trkpt lat="49.079389" lon="7.136738">
        <ele>253.0</ele>
        <time>2020-07-10T09:14:20Z</time>
      </trkpt>
      <trkpt lat="49.079307" lon="7.136813">
        <ele>253.0</ele>
        <time>2020-07-10T09:14:22Z</time>
      </trkpt>
      <trkpt lat="49.079184" lon="7.136916">
        <ele>252.0</ele>
        <time>2020-07-10T09:14:25Z</time>
      </trkpt>
      <trkpt lat="49.079094" lon="7.136973">
        <ele>252.0</ele>
        <time>2020-07-10T09:14:27Z</time>
      </trkpt>
      <trkpt lat="49.079052" lon="7.136995">
        <ele>252.0</ele>
        <time>2020-07-10T09:14:28Z</time>
      </trkpt>
      <trkpt lat="49.078877" lon="7.13711">
        <ele>253.0</ele>
        <time>2020-07-10T09:14:32Z</time>
      </trkpt>
      <trkpt lat="49.078782" lon="7.137163">
        <ele>254.0</ele>
        <time>2020-07-10T09:14:34Z</time>
      </trkpt>
      <trkpt lat="49.078687" lon="7.137208">
        <ele>254.0</ele>
        <time>2020-07-10T09:14:36Z</time>
      </trkpt>
      <trkpt lat="49.078583" lon="7.137247">
        <ele>254.0</ele>
        <time>2020-07-10T09:14:38Z</time>
      </trkpt>
      <trkpt lat="49.078484" lon="7.137288">
        <ele>254.0</ele>
        <time>2020-07-10T09:14:40Z</time>
      </trkpt>
      <trkpt lat="49.078335" lon="7.137332">
        <ele>255.0</ele>
        <time>2020-07-10T09:14:43Z</time>
      </trkpt>
      <trkpt lat="49.078288" lon="7.137345">
        <ele>255.0</ele>
        <time>2020-07-10T09:14:44Z</time>
      </trkpt>
      <trkpt lat="49.078189" lon="7.137364">
        <ele>255.0</ele>
        <time>2020-07-10T09:14:46Z</time>
      </trkpt>
      <trkpt lat="49.078035" lon="7.137377">
        <ele>255.0</ele>
        <time>2020-07-10T09:14:49Z</time>
      </trkpt>
      <trkpt lat="49.077872" lon="7.137413">
        <ele>254.0</ele>
        <time>2020-07-10T09:14:52Z</time>
      </trkpt>
      <trkpt lat="49.07778" lon="7.13744">
        <ele>255.0</ele>
        <time>2020-07-10T09:14:54Z</time>
      </trkpt>
      <trkpt lat="49.0777" lon="7.137462">
        <ele>255.0</ele>
        <time>2020-07-10T09:14:56Z</time>
      </trkpt>
      <trkpt lat="49.077629" lon="7.137467">
        <ele>256.0</ele>
        <time>2020-07-10T09:14:58Z</time>
      </trkpt>
      <trkpt lat="49.077569" lon="7.137477">
        <ele>256.0</ele>
        <time>2020-07-10T09:15:00Z</time>
      </trkpt>
      <trkpt lat="49.077513" lon="7.137485">
        <ele>256.0</ele>
        <time>2020-07-10T09:15:02Z</time>
      </trkpt>
      <trkpt lat="49.077463" lon="7.137486">
        <ele>257.0</ele>
        <time>2020-07-10T09:15:04Z</time>
      </trkpt>
      <trkpt lat="49.077415" lon="7.137486">
        <ele>257.0</ele>
        <time>2020-07-10T09:15:06Z</time>
      </trkpt>
      <trkpt lat="49.077373" lon="7.137484">
        <ele>257.0</ele>
        <time>2020-07-10T09:15:08Z</time>
      </trkpt>
      <trkpt lat="49.077343" lon="7.137463">
        <ele>258.0</ele>
        <time>2020-07-10T09:15:10Z</time>
      </trkpt>
      <trkpt lat="49.077336" lon="7.137437">
        <ele>258.0</ele>
        <time>2020-07-10T09:15:13Z</time>
      </trkpt>
      <trkpt lat="49.077339" lon="7.137448">
        <ele>258.0</ele>
        <time>2020-07-10T09:15:14Z</time>
      </trkpt>
      <trkpt lat="49.077328" lon="7.137458">
        <ele>258.0</ele>
        <time>2020-07-10T09:15:17Z</time>
      </trkpt>
      <trkpt lat="49.077328" lon="7.137458">
        <ele>258.0</ele>
        <time>2020-07-10T09:15:19Z</time>
      </trkpt>
      <trkpt lat="49.077328" lon="7.137458">
        <ele>258.0</ele>
        <time>2020-07-10T09:15:41Z</time>
      </trkpt>
      <trkpt lat="49.077328" lon="7.137458">
        <ele>258.0</ele>
        <time>2020-07-10T09:15:43Z</time>
      </trkpt>
      <trkpt lat="49.077328" lon="7.137458">
        <ele>258.0</ele>
        <time>2020-07-10T09:15:45Z</time>
      </trkpt>
      <trkpt lat="49.077328" lon="7.137458">
        <ele>258.0</ele>
        <time>2020-07-10T09:15:46Z</time>
      </trkpt>
      <trkpt lat="49.077328" lon="7.137458">
        <ele>258.0</ele>
        <time>2020-07-10T09:15:49Z</time>
      </trkpt>
      <trkpt lat="49.077328" lon="7.137458">
        <ele>258.0</ele>
        <time>2020-07-10T09:15:51Z</time>
      </trkpt>
      <trkpt lat="49.077328" lon="7.137458">
        <ele>258.0</ele>
        <time>2020-07-10T09:15:53Z</time>
      </trkpt>
      <trkpt lat="49.077328" lon="7.137458">
        <ele>258.0</ele>
        <time>2020-07-10T09:15:55Z</time>
      </trkpt>
      <trkpt lat="49.077324" lon="7.137449">
        <ele>258.0</ele>
        <time>2020-07-10T09:15:57Z</time>
      </trkpt>
      <trkpt lat="49.077324" lon="7.137439">
        <ele>258.0</ele>
        <time>2020-07-10T09:15:59Z</time>
      </trkpt>
      <trkpt lat="49.077324" lon="7.137438">
        <ele>258.0</ele>
        <time>2020-07-10T09:16:01Z</time>
      </trkpt>
      <trkpt lat="49.077324" lon="7.137438">
        <ele>258.0</ele>
        <time>2020-07-10T09:16:04Z</time>
      </trkpt>
      <trkpt lat="49.077312" lon="7.137439">
        <ele>258.0</ele>
        <time>2020-07-10T09:16:05Z</time>
      </trkpt>
      <trkpt lat="49.077257" lon="7.137462">
        <ele>260.0</ele>
        <time>2020-07-10T09:16:08Z</time>
      </trkpt>
      <trkpt lat="49.0772" lon="7.137469">
        <ele>260.0</ele>
        <time>2020-07-10T09:16:10Z</time>
      </trkpt>
      <trkpt lat="49.077102" lon="7.137449">
        <ele>262.0</ele>
        <time>2020-07-10T09:16:12Z</time>
      </trkpt>
      <trkpt lat="49.077045" lon="7.137431">
        <ele>262.0</ele>
        <time>2020-07-10T09:16:13Z</time>
      </trkpt>
      <trkpt lat="49.076878" lon="7.13739">
        <ele>259.0</ele>
        <time>2020-07-10T09:16:16Z</time>
      </trkpt>
      <trkpt lat="49.076761" lon="7.137378">
        <ele>258.0</ele>
        <time>2020-07-10T09:16:18Z</time>
      </trkpt>
      <trkpt lat="49.076646" lon="7.137366">
        <ele>258.0</ele>
        <time>2020-07-10T09:16:20Z</time>
      </trkpt>
      <trkpt lat="49.076534" lon="7.137381">
        <ele>258.0</ele>
        <time>2020-07-10T09:16:22Z</time>
      </trkpt>
      <trkpt lat="49.076479" lon="7.137384">
        <ele>258.0</ele>
        <time>2020-07-10T09:16:23Z</time>
      </trkpt>
      <trkpt lat="49.076314" lon="7.137383">
        <ele>258.0</ele>
        <time>2020-07-10T09:16:26Z</time>
      </trkpt>
      <trkpt lat="49.076147" lon="7.137384">
        <ele>257.0</ele>
        <time>2020-07-10T09:16:29Z</time>
      </trkpt>
      <trkpt lat="49.076044" lon="7.137382">
        <ele>257.0</ele>
        <time>2020-07-10T09:16:31Z</time>
      </trkpt>
      <trkpt lat="49.075948" lon="7.137378">
        <ele>257.0</ele>
        <time>2020-07-10T09:16:33Z</time>
      </trkpt>
      <trkpt lat="49.075854" lon="7.137372">
        <ele>258.0</ele>
        <time>2020-07-10T09:16:35Z</time>
      </trkpt>
      <trkpt lat="49.07576" lon="7.137367">
        <ele>257.0</ele>
        <time>2020-07-10T09:16:37Z</time>
      </trkpt>
      <trkpt lat="49.075677" lon="7.137352">
        <ele>257.0</ele>
        <time>2020-07-10T09:16:39Z</time>
      </trkpt>
      <trkpt lat="49.075598" lon="7.137339">
        <ele>258.0</ele>
        <time>2020-07-10T09:16:41Z</time>
      </trkpt>
      <trkpt lat="49.075509" lon="7.137307">
        <ele>257.0</ele>
        <time>2020-07-10T09:16:43Z</time>
      </trkpt>
      <trkpt lat="49.075379" lon="7.137261">
        <ele>257.0</ele>
        <time>2020-07-10T09:16:46Z</time>
      </trkpt>
      <trkpt lat="49.075291" lon="7.137231">
        <ele>258.0</ele>
        <time>2020-07-10T09:16:48Z</time>
      </trkpt>
      <trkpt lat="49.075198" lon="7.137181">
        <ele>258.0</ele>
        <time>2020-07-10T09:16:50Z</time>
      </trkpt>
      <trkpt lat="49.075106" lon="7.137133">
        <ele>258.0</ele>
        <time>2020-07-10T09:16:52Z</time>
      </trkpt>
      <trkpt lat="49.075017" lon="7.137075">
        <ele>258.0</ele>
        <time>2020-07-10T09:16:54Z</time>
      </trkpt>
      <trkpt lat="49.074922" lon="7.137022">
        <ele>258.0</ele>
        <time>2020-07-10T09:16:56Z</time>
      </trkpt>
      <trkpt lat="49.074833" lon="7.136951">
        <ele>258.0</ele>
        <time>2020-07-10T09:16:58Z</time>
      </trkpt>
      <trkpt lat="49.074742" lon="7.136897">
        <ele>258.0</ele>
        <time>2020-07-10T09:17:00Z</time>
      </trkpt>
      <trkpt lat="49.074651" lon="7.136839">
        <ele>257.0</ele>
        <time>2020-07-10T09:17:02Z</time>
      </trkpt>
      <trkpt lat="49.074512" lon="7.136743">
        <ele>257.0</ele>
        <time>2020-07-10T09:17:05Z</time>
      </trkpt>
      <trkpt lat="49.074469" lon="7.136702">
        <ele>257.0</ele>
        <time>2020-07-10T09:17:06Z</time>
      </trkpt>
      <trkpt lat="49.074386" lon="7.136617">
        <ele>257.0</ele>
        <time>2020-07-10T09:17:08Z</time>
      </trkpt>
      <trkpt lat="49.074217" lon="7.136425">
        <ele>256.0</ele>
        <time>2020-07-10T09:17:12Z</time>
      </trkpt>
      <trkpt lat="49.074131" lon="7.136325">
        <ele>257.0</ele>
        <time>2020-07-10T09:17:14Z</time>
      </trkpt>
      <trkpt lat="49.074046" lon="7.136231">
        <ele>257.0</ele>
        <time>2020-07-10T09:17:16Z</time>
      </trkpt>
      <trkpt lat="49.073963" lon="7.136127">
        <ele>258.0</ele>
        <time>2020-07-10T09:17:18Z</time>
      </trkpt>
      <trkpt lat="49.073892" lon="7.136019">
        <ele>257.0</ele>
        <time>2020-07-10T09:17:20Z</time>
      </trkpt>
      <trkpt lat="49.073824" lon="7.135887">
        <ele>257.0</ele>
        <time>2020-07-10T09:17:22Z</time>
      </trkpt>
      <trkpt lat="49.073754" lon="7.135758">
        <ele>257.0</ele>
        <time>2020-07-10T09:17:24Z</time>
      </trkpt>
      <trkpt lat="49.073688" lon="7.13563">
        <ele>257.0</ele>
        <time>2020-07-10T09:17:26Z</time>
      </trkpt>
      <trkpt lat="49.073625" lon="7.135506">
        <ele>258.0</ele>
        <time>2020-07-10T09:17:28Z</time>
      </trkpt>
      <trkpt lat="49.073591" lon="7.135453">
        <ele>258.0</ele>
        <time>2020-07-10T09:17:29Z</time>
      </trkpt>
      <trkpt lat="49.073468" lon="7.135175">
        <ele>258.0</ele>
        <time>2020-07-10T09:17:33Z</time>
      </trkpt>
      <trkpt lat="49.073413" lon="7.135057">
        <ele>258.0</ele>
        <time>2020-07-10T09:17:35Z</time>
      </trkpt>
      <trkpt lat="49.073393" lon="7.134984">
        <ele>258.0</ele>
        <time>2020-07-10T09:17:36Z</time>
      </trkpt>
      <trkpt lat="49.073319" lon="7.134781">
        <ele>259.0</ele>
        <time>2020-07-10T09:17:39Z</time>
      </trkpt>
      <trkpt lat="49.073266" lon="7.134626">
        <ele>259.0</ele>
        <time>2020-07-10T09:17:41Z</time>
      </trkpt>
      <trkpt lat="49.073209" lon="7.134473">
        <ele>258.0</ele>
        <time>2020-07-10T09:17:43Z</time>
      </trkpt>
      <trkpt lat="49.073112" lon="7.134267">
        <ele>257.0</ele>
        <time>2020-07-10T09:17:46Z</time>
      </trkpt>
      <trkpt lat="49.073054" lon="7.134117">
        <ele>257.0</ele>
        <time>2020-07-10T09:17:48Z</time>
      </trkpt>
      <trkpt lat="49.072999" lon="7.133971">
        <ele>257.0</ele>
        <time>2020-07-10T09:17:50Z</time>
      </trkpt>
      <trkpt lat="49.072945" lon="7.133824">
        <ele>257.0</ele>
        <time>2020-07-10T09:17:52Z</time>
      </trkpt>
      <trkpt lat="49.072861" lon="7.133609">
        <ele>257.0</ele>
        <time>2020-07-10T09:17:55Z</time>
      </trkpt>
      <trkpt lat="49.072831" lon="7.133539">
        <ele>257.0</ele>
        <time>2020-07-10T09:17:56Z</time>
      </trkpt>
      <trkpt lat="49.072741" lon="7.133336">
        <ele>257.0</ele>
        <time>2020-07-10T09:17:59Z</time>
      </trkpt>
      <trkpt lat="49.072661" lon="7.133112">
        <ele>256.0</ele>
        <time>2020-07-10T09:18:02Z</time>
      </trkpt>
      <trkpt lat="49.072603" lon="7.132976">
        <ele>256.0</ele>
        <time>2020-07-10T09:18:04Z</time>
      </trkpt>
      <trkpt lat="49.072547" lon="7.132833">
        <ele>256.0</ele>
        <time>2020-07-10T09:18:06Z</time>
      </trkpt>
      <trkpt lat="49.072491" lon="7.132692">
        <ele>256.0</ele>
        <time>2020-07-10T09:18:08Z</time>
      </trkpt>
      <trkpt lat="49.072435" lon="7.132546">
        <ele>256.0</ele>
        <time>2020-07-10T09:18:10Z</time>
      </trkpt>
      <trkpt lat="49.072382" lon="7.132414">
        <ele>256.0</ele>
        <time>2020-07-10T09:18:12Z</time>
      </trkpt>
      <trkpt lat="49.072327" lon="7.132274">
        <ele>256.0</ele>
        <time>2020-07-10T09:18:14Z</time>
      </trkpt>
      <trkpt lat="49.072266" lon="7.132146">
        <ele>256.0</ele>
        <time>2020-07-10T09:18:16Z</time>
      </trkpt>
      <trkpt lat="49.072214" lon="7.132011">
        <ele>257.0</ele>
        <time>2020-07-10T09:18:18Z</time>
      </trkpt>
      <trkpt lat="49.072161" lon="7.131876">
        <ele>257.0</ele>
        <time>2020-07-10T09:18:20Z</time>
      </trkpt>
      <trkpt lat="49.072112" lon="7.13174">
        <ele>257.0</ele>
        <time>2020-07-10T09:18:22Z</time>
      </trkpt>
      <trkpt lat="49.072061" lon="7.131596">
        <ele>257.0</ele>
        <time>2020-07-10T09:18:24Z</time>
      </trkpt>
      <trkpt lat="49.072005" lon="7.131461">
        <ele>256.0</ele>
        <time>2020-07-10T09:18:26Z</time>
      </trkpt>
      <trkpt lat="49.071949" lon="7.131335">
        <ele>257.0</ele>
        <time>2020-07-10T09:18:28Z</time>
      </trkpt>
      <trkpt lat="49.071896" lon="7.131203">
        <ele>257.0</ele>
        <time>2020-07-10T09:18:30Z</time>
      </trkpt>
      <trkpt lat="49.071843" lon="7.131073">
        <ele>257.0</ele>
        <time>2020-07-10T09:18:32Z</time>
      </trkpt>
      <trkpt lat="49.071783" lon="7.13093">
        <ele>257.0</ele>
        <time>2020-07-10T09:18:34Z</time>
      </trkpt>
      <trkpt lat="49.071707" lon="7.130749">
        <ele>257.0</ele>
        <time>2020-07-10T09:18:37Z</time>
      </trkpt>
      <trkpt lat="49.071631" lon="7.130556">
        <ele>258.0</ele>
        <time>2020-07-10T09:18:40Z</time>
      </trkpt>
      <trkpt lat="49.071551" lon="7.13038">
        <ele>258.0</ele>
        <time>2020-07-10T09:18:43Z</time>
      </trkpt>
      <trkpt lat="49.071503" lon="7.130254">
        <ele>258.0</ele>
        <time>2020-07-10T09:18:45Z</time>
      </trkpt>
      <trkpt lat="49.071455" lon="7.130108">
        <ele>259.0</ele>
        <time>2020-07-10T09:18:47Z</time>
      </trkpt>
      <trkpt lat="49.071416" lon="7.12995">
        <ele>259.0</ele>
        <time>2020-07-10T09:18:49Z</time>
      </trkpt>
      <trkpt lat="49.071398" lon="7.129873">
        <ele>259.0</ele>
        <time>2020-07-10T09:18:50Z</time>
      </trkpt>
      <trkpt lat="49.071328" lon="7.129658">
        <ele>258.0</ele>
        <time>2020-07-10T09:18:53Z</time>
      </trkpt>
      <trkpt lat="49.071307" lon="7.129579">
        <ele>258.0</ele>
        <time>2020-07-10T09:18:54Z</time>
      </trkpt>
      <trkpt lat="49.071244" lon="7.129354">
        <ele>258.0</ele>
        <time>2020-07-10T09:18:57Z</time>
      </trkpt>
      <trkpt lat="49.071204" lon="7.1292">
        <ele>258.0</ele>
        <time>2020-07-10T09:18:59Z</time>
      </trkpt>
      <trkpt lat="49.071163" lon="7.129054">
        <ele>258.0</ele>
        <time>2020-07-10T09:19:01Z</time>
      </trkpt>
      <trkpt lat="49.071107" lon="7.12884">
        <ele>258.0</ele>
        <time>2020-07-10T09:19:04Z</time>
      </trkpt>
      <trkpt lat="49.07107" lon="7.128689">
        <ele>257.0</ele>
        <time>2020-07-10T09:19:06Z</time>
      </trkpt>
      <trkpt lat="49.07104" lon="7.128531">
        <ele>257.0</ele>
        <time>2020-07-10T09:19:08Z</time>
      </trkpt>
      <trkpt lat="49.071002" lon="7.128385">
        <ele>257.0</ele>
        <time>2020-07-10T09:19:10Z</time>
      </trkpt>
      <trkpt lat="49.070984" lon="7.128313">
        <ele>257.0</ele>
        <time>2020-07-10T09:19:11Z</time>
      </trkpt>
      <trkpt lat="49.070937" lon="7.128106">
        <ele>258.0</ele>
        <time>2020-07-10T09:19:14Z</time>
      </trkpt>
      <trkpt lat="49.07089" lon="7.127801">
        <ele>257.0</ele>
        <time>2020-07-10T09:19:18Z</time>
      </trkpt>
      <trkpt lat="49.070874" lon="7.12773">
        <ele>257.0</ele>
        <time>2020-07-10T09:19:19Z</time>
      </trkpt>
      <trkpt lat="49.070816" lon="7.12751">
        <ele>256.0</ele>
        <time>2020-07-10T09:19:22Z</time>
      </trkpt>
      <trkpt lat="49.070781" lon="7.127298">
        <ele>256.0</ele>
        <time>2020-07-10T09:19:25Z</time>
      </trkpt>
      <trkpt lat="49.07076" lon="7.127143">
        <ele>256.0</ele>
        <time>2020-07-10T09:19:27Z</time>
      </trkpt>
      <trkpt lat="49.070749" lon="7.126985">
        <ele>256.0</ele>
        <time>2020-07-10T09:19:29Z</time>
      </trkpt>
      <trkpt lat="49.070706" lon="7.126778">
        <ele>257.0</ele>
        <time>2020-07-10T09:19:32Z</time>
      </trkpt>
      <trkpt lat="49.070676" lon="7.126646">
        <ele>258.0</ele>
        <time>2020-07-10T09:19:34Z</time>
      </trkpt>
      <trkpt lat="49.070641" lon="7.126502">
        <ele>257.0</ele>
        <time>2020-07-10T09:19:36Z</time>
      </trkpt>
      <trkpt lat="49.07061" lon="7.126366">
        <ele>257.0</ele>
        <time>2020-07-10T09:19:38Z</time>
      </trkpt>
      <trkpt lat="49.070566" lon="7.126143">
        <ele>258.0</ele>
        <time>2020-07-10T09:19:41Z</time>
      </trkpt>
      <trkpt lat="49.07054" lon="7.125993">
        <ele>257.0</ele>
        <time>2020-07-10T09:19:43Z</time>
      </trkpt>
      <trkpt lat="49.070523" lon="7.125841">
        <ele>257.0</ele>
        <time>2020-07-10T09:19:45Z</time>
      </trkpt>
      <trkpt lat="49.070495" lon="7.125699">
        <ele>258.0</ele>
        <time>2020-07-10T09:19:47Z</time>
      </trkpt>
      <trkpt lat="49.070463" lon="7.125565">
        <ele>258.0</ele>
        <time>2020-07-10T09:19:49Z</time>
      </trkpt>
      <trkpt lat="49.070433" lon="7.125431">
        <ele>258.0</ele>
        <time>2020-07-10T09:19:51Z</time>
      </trkpt>
      <trkpt lat="49.070409" lon="7.125294">
        <ele>258.0</ele>
        <time>2020-07-10T09:19:53Z</time>
      </trkpt>
      <trkpt lat="49.070382" lon="7.125153">
        <ele>258.0</ele>
        <time>2020-07-10T09:19:55Z</time>
      </trkpt>
      <trkpt lat="49.070366" lon="7.125081">
        <ele>258.0</ele>
        <time>2020-07-10T09:19:56Z</time>
      </trkpt>
      <trkpt lat="49.070322" lon="7.124871">
        <ele>258.0</ele>
        <time>2020-07-10T09:19:59Z</time>
      </trkpt>
      <trkpt lat="49.07028" lon="7.124675">
        <ele>258.0</ele>
        <time>2020-07-10T09:20:02Z</time>
      </trkpt>
      <trkpt lat="49.07025" lon="7.124539">
        <ele>258.0</ele>
        <time>2020-07-10T09:20:04Z</time>
      </trkpt>
      <trkpt lat="49.070217" lon="7.124393">
        <ele>257.0</ele>
        <time>2020-07-10T09:20:06Z</time>
      </trkpt>
      <trkpt lat="49.07019" lon="7.124268">
        <ele>257.0</ele>
        <time>2020-07-10T09:20:08Z</time>
      </trkpt>
      <trkpt lat="49.070164" lon="7.124128">
        <ele>257.0</ele>
        <time>2020-07-10T09:20:10Z</time>
      </trkpt>
      <trkpt lat="49.070135" lon="7.123986">
        <ele>257.0</ele>
        <time>2020-07-10T09:20:12Z</time>
      </trkpt>
      <trkpt lat="49.070106" lon="7.123854">
        <ele>257.0</ele>
        <time>2020-07-10T09:20:14Z</time>
      </trkpt>
      <trkpt lat="49.070078" lon="7.123707">
        <ele>257.0</ele>
        <time>2020-07-10T09:20:16Z</time>
      </trkpt>
      <trkpt lat="49.070057" lon="7.123564">
        <ele>257.0</ele>
        <time>2020-07-10T09:20:18Z</time>
      </trkpt>
      <trkpt lat="49.070024" lon="7.12336">
        <ele>258.0</ele>
        <time>2020-07-10T09:20:21Z</time>
      </trkpt>
      <trkpt lat="49.070006" lon="7.123226">
        <ele>258.0</ele>
        <time>2020-07-10T09:20:23Z</time>
      </trkpt>
      <trkpt lat="49.06998" lon="7.123094">
        <ele>258.0</ele>
        <time>2020-07-10T09:20:25Z</time>
      </trkpt>
      <trkpt lat="49.06996" lon="7.12297">
        <ele>257.0</ele>
        <time>2020-07-10T09:20:27Z</time>
      </trkpt>
      <trkpt lat="49.069951" lon="7.12291">
        <ele>257.0</ele>
        <time>2020-07-10T09:20:28Z</time>
      </trkpt>
      <trkpt lat="49.069905" lon="7.122733">
        <ele>257.0</ele>
        <time>2020-07-10T09:20:31Z</time>
      </trkpt>
      <trkpt lat="49.06987" lon="7.122616">
        <ele>257.0</ele>
        <time>2020-07-10T09:20:33Z</time>
      </trkpt>
      <trkpt lat="49.06984" lon="7.122491">
        <ele>257.0</ele>
        <time>2020-07-10T09:20:35Z</time>
      </trkpt>
      <trkpt lat="49.069794" lon="7.122292">
        <ele>257.0</ele>
        <time>2020-07-10T09:20:38Z</time>
      </trkpt>
      <trkpt lat="49.069758" lon="7.122175">
        <ele>256.0</ele>
        <time>2020-07-10T09:20:40Z</time>
      </trkpt>
      <trkpt lat="49.069703" lon="7.121969">
        <ele>256.0</ele>
        <time>2020-07-10T09:20:43Z</time>
      </trkpt>
      <trkpt lat="49.069686" lon="7.121901">
        <ele>256.0</ele>
        <time>2020-07-10T09:20:44Z</time>
      </trkpt>
      <trkpt lat="49.069636" lon="7.121708">
        <ele>256.0</ele>
        <time>2020-07-10T09:20:47Z</time>
      </trkpt>
      <trkpt lat="49.069578" lon="7.121516">
        <ele>257.0</ele>
        <time>2020-07-10T09:20:50Z</time>
      </trkpt>
      <trkpt lat="49.06954" lon="7.121373">
        <ele>257.0</ele>
        <time>2020-07-10T09:20:52Z</time>
      </trkpt>
      <trkpt lat="49.069495" lon="7.121228">
        <ele>257.0</ele>
        <time>2020-07-10T09:20:54Z</time>
      </trkpt>
      <trkpt lat="49.069422" lon="7.121011">
        <ele>257.0</ele>
        <time>2020-07-10T09:20:57Z</time>
      </trkpt>
      <trkpt lat="49.069383" lon="7.120868">
        <ele>256.0</ele>
        <time>2020-07-10T09:20:59Z</time>
      </trkpt>
      <trkpt lat="49.069335" lon="7.120745">
        <ele>257.0</ele>
        <time>2020-07-10T09:21:01Z</time>
      </trkpt>
      <trkpt lat="49.069286" lon="7.120616">
        <ele>257.0</ele>
        <time>2020-07-10T09:21:03Z</time>
      </trkpt>
      <trkpt lat="49.069233" lon="7.12049">
        <ele>257.0</ele>
        <time>2020-07-10T09:21:05Z</time>
      </trkpt>
      <trkpt lat="49.069159" lon="7.120291">
        <ele>257.0</ele>
        <time>2020-07-10T09:21:08Z</time>
      </trkpt>
      <trkpt lat="49.069097" lon="7.120157">
        <ele>258.0</ele>
        <time>2020-07-10T09:21:10Z</time>
      </trkpt>
      <trkpt lat="49.069044" lon="7.120029">
        <ele>257.0</ele>
        <time>2020-07-10T09:21:12Z</time>
      </trkpt>
      <trkpt lat="49.068997" lon="7.119894">
        <ele>257.0</ele>
        <time>2020-07-10T09:21:14Z</time>
      </trkpt>
      <trkpt lat="49.068921" lon="7.1197">
        <ele>258.0</ele>
        <time>2020-07-10T09:21:17Z</time>
      </trkpt>
      <trkpt lat="49.068873" lon="7.119592">
        <ele>258.0</ele>
        <time>2020-07-10T09:21:19Z</time>
      </trkpt>
      <trkpt lat="49.068821" lon="7.119483">
        <ele>259.0</ele>
        <time>2020-07-10T09:21:21Z</time>
      </trkpt>
      <trkpt lat="49.068791" lon="7.11942">
        <ele>259.0</ele>
        <time>2020-07-10T09:21:22Z</time>
      </trkpt>
      <trkpt lat="49.068708" lon="7.119227">
        <ele>259.0</ele>
        <time>2020-07-10T09:21:25Z</time>
      </trkpt>
      <trkpt lat="49.068628" lon="7.119046">
        <ele>259.0</ele>
        <time>2020-07-10T09:21:28Z</time>
      </trkpt>
      <trkpt lat="49.06854" lon="7.118853">
        <ele>259.0</ele>
        <time>2020-07-10T09:21:31Z</time>
      </trkpt>
      <trkpt lat="49.068484" lon="7.118717">
        <ele>258.0</ele>
        <time>2020-07-10T09:21:33Z</time>
      </trkpt>
      <trkpt lat="49.068423" lon="7.11858">
        <ele>258.0</ele>
        <time>2020-07-10T09:21:35Z</time>
      </trkpt>
      <trkpt lat="49.068336" lon="7.118382">
        <ele>259.0</ele>
        <time>2020-07-10T09:21:38Z</time>
      </trkpt>
      <trkpt lat="49.068307" lon="7.118321">
        <ele>259.0</ele>
        <time>2020-07-10T09:21:39Z</time>
      </trkpt>
      <trkpt lat="49.068246" lon="7.118196">
        <ele>259.0</ele>
        <time>2020-07-10T09:21:41Z</time>
      </trkpt>
      <trkpt lat="49.06817" lon="7.117999">
        <ele>259.0</ele>
        <time>2020-07-10T09:21:44Z</time>
      </trkpt>
      <trkpt lat="49.068121" lon="7.117884">
        <ele>259.0</ele>
        <time>2020-07-10T09:21:46Z</time>
      </trkpt>
      <trkpt lat="49.06807" lon="7.117754">
        <ele>260.0</ele>
        <time>2020-07-10T09:21:48Z</time>
      </trkpt>
      <trkpt lat="49.068015" lon="7.117632">
        <ele>260.0</ele>
        <time>2020-07-10T09:21:50Z</time>
      </trkpt>
      <trkpt lat="49.06795" lon="7.117505">
        <ele>260.0</ele>
        <time>2020-07-10T09:21:52Z</time>
      </trkpt>
      <trkpt lat="49.067915" lon="7.117437">
        <ele>260.0</ele>
        <time>2020-07-10T09:21:53Z</time>
      </trkpt>
      <trkpt lat="49.067807" lon="7.117156">
        <ele>260.0</ele>
        <time>2020-07-10T09:21:57Z</time>
      </trkpt>
      <trkpt lat="49.06775" lon="7.117025">
        <ele>260.0</ele>
        <time>2020-07-10T09:21:59Z</time>
      </trkpt>
      <trkpt lat="49.067718" lon="7.11696">
        <ele>259.0</ele>
        <time>2020-07-10T09:22:00Z</time>
      </trkpt>
      <trkpt lat="49.067629" lon="7.116777">
        <ele>259.0</ele>
        <time>2020-07-10T09:22:03Z</time>
      </trkpt>
      <trkpt lat="49.067568" lon="7.116656">
        <ele>259.0</ele>
        <time>2020-07-10T09:22:05Z</time>
      </trkpt>
      <trkpt lat="49.067508" lon="7.116522">
        <ele>259.0</ele>
        <time>2020-07-10T09:22:07Z</time>
      </trkpt>
      <trkpt lat="49.067446" lon="7.116395">
        <ele>259.0</ele>
        <time>2020-07-10T09:22:09Z</time>
      </trkpt>
      <trkpt lat="49.06738" lon="7.116265">
        <ele>259.0</ele>
        <time>2020-07-10T09:22:11Z</time>
      </trkpt>
      <trkpt lat="49.067296" lon="7.116078">
        <ele>259.0</ele>
        <time>2020-07-10T09:22:14Z</time>
      </trkpt>
      <trkpt lat="49.06723" lon="7.115956">
        <ele>259.0</ele>
        <time>2020-07-10T09:22:16Z</time>
      </trkpt>
      <trkpt lat="49.067158" lon="7.115834">
        <ele>259.0</ele>
        <time>2020-07-10T09:22:18Z</time>
      </trkpt>
      <trkpt lat="49.067095" lon="7.115704">
        <ele>259.0</ele>
        <time>2020-07-10T09:22:20Z</time>
      </trkpt>
      <trkpt lat="49.066995" lon="7.115514">
        <ele>259.0</ele>
        <time>2020-07-10T09:22:23Z</time>
      </trkpt>
      <trkpt lat="49.06692" lon="7.115392">
        <ele>259.0</ele>
        <time>2020-07-10T09:22:25Z</time>
      </trkpt>
      <trkpt lat="49.066848" lon="7.115272">
        <ele>259.0</ele>
        <time>2020-07-10T09:22:27Z</time>
      </trkpt>
      <trkpt lat="49.066737" lon="7.115085">
        <ele>258.0</ele>
        <time>2020-07-10T09:22:30Z</time>
      </trkpt>
      <trkpt lat="49.066669" lon="7.114965">
        <ele>259.0</ele>
        <time>2020-07-10T09:22:32Z</time>
      </trkpt>
      <trkpt lat="49.066592" lon="7.114844">
        <ele>259.0</ele>
        <time>2020-07-10T09:22:34Z</time>
      </trkpt>
      <trkpt lat="49.066515" lon="7.11473">
        <ele>259.0</ele>
        <time>2020-07-10T09:22:36Z</time>
      </trkpt>
      <trkpt lat="49.06646" lon="7.114624">
        <ele>258.0</ele>
        <time>2020-07-10T09:22:38Z</time>
      </trkpt>
      <trkpt lat="49.066419" lon="7.114544">
        <ele>258.0</ele>
        <time>2020-07-10T09:22:40Z</time>
      </trkpt>
      <trkpt lat="49.066399" lon="7.114504">
        <ele>257.0</ele>
        <time>2020-07-10T09:22:42Z</time>
      </trkpt>
      <trkpt lat="49.066396" lon="7.114507">
        <ele>257.0</ele>
        <time>2020-07-10T09:22:44Z</time>
      </trkpt>
      <trkpt lat="49.06639" lon="7.114514">
        <ele>257.0</ele>
        <time>2020-07-10T09:22:46Z</time>
      </trkpt>
      <trkpt lat="49.06639" lon="7.114514">
        <ele>257.0</ele>
        <time>2020-07-10T09:22:48Z</time>
      </trkpt>
      <trkpt lat="49.06639" lon="7.114506">
        <ele>257.0</ele>
        <time>2020-07-10T09:22:50Z</time>
      </trkpt>
      <trkpt lat="49.066366" lon="7.114472">
        <ele>257.0</ele>
        <time>2020-07-10T09:23:57Z</time>
      </trkpt>
      <trkpt lat="49.066366" lon="7.114472">
        <ele>257.0</ele>
        <time>2020-07-10T09:23:59Z</time>
      </trkpt>
      <trkpt lat="49.066366" lon="7.114472">
        <ele>257.0</ele>
        <time>2020-07-10T09:24:01Z</time>
      </trkpt>
      <trkpt lat="49.066366" lon="7.114472">
        <ele>257.0</ele>
        <time>2020-07-10T09:24:03Z</time>
      </trkpt>
      <trkpt lat="49.066366" lon="7.114472">
        <ele>257.0</ele>
        <time>2020-07-10T09:24:05Z</time>
      </trkpt>
      <trkpt lat="49.066366" lon="7.114472">
        <ele>257.0</ele>
        <time>2020-07-10T09:24:07Z</time>
      </trkpt>
      <trkpt lat="49.066366" lon="7.114472">
        <ele>257.0</ele>
        <time>2020-07-10T09:24:09Z</time>
      </trkpt>
      <trkpt lat="49.066366" lon="7.114472">
        <ele>257.0</ele>
        <time>2020-07-10T09:24:11Z</time>
      </trkpt>
      <trkpt lat="49.066366" lon="7.114472">
        <ele>257.0</ele>
        <time>2020-07-10T09:24:13Z</time>
      </trkpt>
      <trkpt lat="49.066366" lon="7.114472">
        <ele>257.0</ele>
        <time>2020-07-10T09:24:15Z</time>
      </trkpt>
      <trkpt lat="49.066366" lon="7.114472">
        <ele>257.0</ele>
        <time>2020-07-10T09:24:17Z</time>
      </trkpt>
      <trkpt lat="49.066366" lon="7.114472">
        <ele>257.0</ele>
        <time>2020-07-10T09:24:19Z</time>
      </trkpt>
      <trkpt lat="49.066366" lon="7.114472">
        <ele>257.0</ele>
        <time>2020-07-10T09:24:20Z</time>
      </trkpt>
      <trkpt lat="49.06633" lon="7.114429">
        <ele>256.0</ele>
        <time>2020-07-10T09:24:23Z</time>
      </trkpt>
      <trkpt lat="49.066289" lon="7.114342">
        <ele>256.0</ele>
        <time>2020-07-10T09:24:26Z</time>
      </trkpt>
      <trkpt lat="49.066219" lon="7.11422">
        <ele>256.0</ele>
        <time>2020-07-10T09:24:29Z</time>
      </trkpt>
      <trkpt lat="49.066153" lon="7.114147">
        <ele>256.0</ele>
        <time>2020-07-10T09:24:31Z</time>
      </trkpt>
      <trkpt lat="49.066082" lon="7.114067">
        <ele>256.0</ele>
        <time>2020-07-10T09:24:33Z</time>
      </trkpt>
      <trkpt lat="49.06602" lon="7.113987">
        <ele>255.0</ele>
        <time>2020-07-10T09:24:35Z</time>
      </trkpt>
      <trkpt lat="49.06595" lon="7.113904">
        <ele>256.0</ele>
        <time>2020-07-10T09:24:37Z</time>
      </trkpt>
      <trkpt lat="49.065848" lon="7.113769">
        <ele>256.0</ele>
        <time>2020-07-10T09:24:40Z</time>
      </trkpt>
      <trkpt lat="49.065781" lon="7.113673">
        <ele>256.0</ele>
        <time>2020-07-10T09:24:42Z</time>
      </trkpt>
      <trkpt lat="49.065714" lon="7.113586">
        <ele>257.0</ele>
        <time>2020-07-10T09:24:44Z</time>
      </trkpt>
      <trkpt lat="49.065646" lon="7.113486">
        <ele>257.0</ele>
        <time>2020-07-10T09:24:46Z</time>
      </trkpt>
      <trkpt lat="49.065577" lon="7.113404">
        <ele>257.0</ele>
        <time>2020-07-10T09:24:48Z</time>
      </trkpt>
      <trkpt lat="49.065499" lon="7.113321">
        <ele>258.0</ele>
        <time>2020-07-10T09:24:50Z</time>
      </trkpt>
      <trkpt lat="49.065416" lon="7.113246">
        <ele>257.0</ele>
        <time>2020-07-10T09:24:52Z</time>
      </trkpt>
      <trkpt lat="49.065327" lon="7.11317">
        <ele>257.0</ele>
        <time>2020-07-10T09:24:54Z</time>
      </trkpt>
      <trkpt lat="49.065241" lon="7.113096">
        <ele>257.0</ele>
        <time>2020-07-10T09:24:56Z</time>
      </trkpt>
      <trkpt lat="49.065121" lon="7.113004">
        <ele>257.0</ele>
        <time>2020-07-10T09:24:59Z</time>
      </trkpt>
      <trkpt lat="49.065039" lon="7.11295">
        <ele>256.0</ele>
        <time>2020-07-10T09:25:01Z</time>
      </trkpt>
      <trkpt lat="49.064948" lon="7.112914">
        <ele>256.0</ele>
        <time>2020-07-10T09:25:03Z</time>
      </trkpt>
      <trkpt lat="49.064861" lon="7.112882">
        <ele>256.0</ele>
        <time>2020-07-10T09:25:05Z</time>
      </trkpt>
      <trkpt lat="49.064776" lon="7.112852">
        <ele>256.0</ele>
        <time>2020-07-10T09:25:07Z</time>
      </trkpt>
      <trkpt lat="49.064657" lon="7.112828">
        <ele>256.0</ele>
        <time>2020-07-10T09:25:10Z</time>
      </trkpt>
      <trkpt lat="49.064617" lon="7.112823">
        <ele>256.0</ele>
        <time>2020-07-10T09:25:11Z</time>
      </trkpt>
      <trkpt lat="49.064499" lon="7.112806">
        <ele>256.0</ele>
        <time>2020-07-10T09:25:14Z</time>
      </trkpt>
      <trkpt lat="49.064421" lon="7.112813">
        <ele>257.0</ele>
        <time>2020-07-10T09:25:16Z</time>
      </trkpt>
      <trkpt lat="49.064339" lon="7.112809">
        <ele>257.0</ele>
        <time>2020-07-10T09:25:18Z</time>
      </trkpt>
      <trkpt lat="49.064249" lon="7.112817">
        <ele>257.0</ele>
        <time>2020-07-10T09:25:20Z</time>
      </trkpt>
      <trkpt lat="49.0641" lon="7.112859">
        <ele>258.0</ele>
        <time>2020-07-10T09:25:23Z</time>
      </trkpt>
      <trkpt lat="49.064006" lon="7.112893">
        <ele>257.0</ele>
        <time>2020-07-10T09:25:25Z</time>
      </trkpt>
      <trkpt lat="49.063908" lon="7.112945">
        <ele>257.0</ele>
        <time>2020-07-10T09:25:27Z</time>
      </trkpt>
      <trkpt lat="49.063803" lon="7.112993">
        <ele>257.0</ele>
        <time>2020-07-10T09:25:29Z</time>
      </trkpt>
      <trkpt lat="49.063704" lon="7.113047">
        <ele>257.0</ele>
        <time>2020-07-10T09:25:31Z</time>
      </trkpt>
      <trkpt lat="49.063654" lon="7.113073">
        <ele>257.0</ele>
        <time>2020-07-10T09:25:32Z</time>
      </trkpt>
      <trkpt lat="49.063493" lon="7.113162">
        <ele>257.0</ele>
        <time>2020-07-10T09:25:35Z</time>
      </trkpt>
      <trkpt lat="49.063389" lon="7.11322">
        <ele>257.0</ele>
        <time>2020-07-10T09:25:37Z</time>
      </trkpt>
      <trkpt lat="49.063288" lon="7.113273">
        <ele>257.0</ele>
        <time>2020-07-10T09:25:39Z</time>
      </trkpt>
      <trkpt lat="49.063187" lon="7.113328">
        <ele>256.0</ele>
        <time>2020-07-10T09:25:41Z</time>
      </trkpt>
      <trkpt lat="49.063025" lon="7.113408">
        <ele>255.0</ele>
        <time>2020-07-10T09:25:44Z</time>
      </trkpt>
      <trkpt lat="49.062821" lon="7.113523">
        <ele>255.0</ele>
        <time>2020-07-10T09:25:48Z</time>
      </trkpt>
      <trkpt lat="49.062713" lon="7.113584">
        <ele>255.0</ele>
        <time>2020-07-10T09:25:50Z</time>
      </trkpt>
      <trkpt lat="49.062611" lon="7.11364">
        <ele>255.0</ele>
        <time>2020-07-10T09:25:52Z</time>
      </trkpt>
      <trkpt lat="49.062507" lon="7.113694">
        <ele>255.0</ele>
        <time>2020-07-10T09:25:54Z</time>
      </trkpt>
      <trkpt lat="49.062402" lon="7.113762">
        <ele>255.0</ele>
        <time>2020-07-10T09:25:56Z</time>
      </trkpt>
      <trkpt lat="49.062256" lon="7.113845">
        <ele>255.0</ele>
        <time>2020-07-10T09:25:59Z</time>
      </trkpt>
      <trkpt lat="49.062161" lon="7.113899">
        <ele>255.0</ele>
        <time>2020-07-10T09:26:01Z</time>
      </trkpt>
      <trkpt lat="49.062055" lon="7.113952">
        <ele>255.0</ele>
        <time>2020-07-10T09:26:03Z</time>
      </trkpt>
      <trkpt lat="49.06195" lon="7.114012">
        <ele>255.0</ele>
        <time>2020-07-10T09:26:05Z</time>
      </trkpt>
      <trkpt lat="49.061849" lon="7.114077">
        <ele>255.0</ele>
        <time>2020-07-10T09:26:07Z</time>
      </trkpt>
      <trkpt lat="49.0618" lon="7.114112">
        <ele>255.0</ele>
        <time>2020-07-10T09:26:08Z</time>
      </trkpt>
      <trkpt lat="49.061651" lon="7.11421">
        <ele>255.0</ele>
        <time>2020-07-10T09:26:11Z</time>
      </trkpt>
      <trkpt lat="49.061543" lon="7.114275">
        <ele>254.0</ele>
        <time>2020-07-10T09:26:13Z</time>
      </trkpt>
      <trkpt lat="49.061436" lon="7.114336">
        <ele>254.0</ele>
        <time>2020-07-10T09:26:15Z</time>
      </trkpt>
      <trkpt lat="49.06133" lon="7.114396">
        <ele>254.0</ele>
        <time>2020-07-10T09:26:17Z</time>
      </trkpt>
      <trkpt lat="49.061184" lon="7.114487">
        <ele>254.0</ele>
        <time>2020-07-10T09:26:20Z</time>
      </trkpt>
      <trkpt lat="49.061083" lon="7.114551">
        <ele>254.0</ele>
        <time>2020-07-10T09:26:22Z</time>
      </trkpt>
      <trkpt lat="49.060987" lon="7.114597">
        <ele>254.0</ele>
        <time>2020-07-10T09:26:24Z</time>
      </trkpt>
      <trkpt lat="49.060894" lon="7.11465">
        <ele>254.0</ele>
        <time>2020-07-10T09:26:26Z</time>
      </trkpt>
      <trkpt lat="49.060747" lon="7.114753">
        <ele>255.0</ele>
        <time>2020-07-10T09:26:29Z</time>
      </trkpt>
      <trkpt lat="49.060604" lon="7.114856">
        <ele>256.0</ele>
        <time>2020-07-10T09:26:32Z</time>
      </trkpt>
      <trkpt lat="49.060512" lon="7.114927">
        <ele>255.0</ele>
        <time>2020-07-10T09:26:34Z</time>
      </trkpt>
      <trkpt lat="49.060471" lon="7.114965">
        <ele>255.0</ele>
        <time>2020-07-10T09:26:35Z</time>
      </trkpt>
      <trkpt lat="49.060347" lon="7.115094">
        <ele>255.0</ele>
        <time>2020-07-10T09:26:38Z</time>
      </trkpt>
      <trkpt lat="49.06026" lon="7.115194">
        <ele>254.0</ele>
        <time>2020-07-10T09:26:40Z</time>
      </trkpt>
      <trkpt lat="49.060162" lon="7.115309">
        <ele>254.0</ele>
        <time>2020-07-10T09:26:42Z</time>
      </trkpt>
      <trkpt lat="49.060041" lon="7.115475">
        <ele>254.0</ele>
        <time>2020-07-10T09:26:45Z</time>
      </trkpt>
      <trkpt lat="49.060002" lon="7.115537">
        <ele>255.0</ele>
        <time>2020-07-10T09:26:46Z</time>
      </trkpt>
      <trkpt lat="49.059891" lon="7.115724">
        <ele>255.0</ele>
        <time>2020-07-10T09:26:49Z</time>
      </trkpt>
      <trkpt lat="49.05982" lon="7.115844">
        <ele>255.0</ele>
        <time>2020-07-10T09:26:51Z</time>
      </trkpt>
      <trkpt lat="49.059755" lon="7.115967">
        <ele>256.0</ele>
        <time>2020-07-10T09:26:53Z</time>
      </trkpt>
      <trkpt lat="49.059699" lon="7.116106">
        <ele>256.0</ele>
        <time>2020-07-10T09:26:55Z</time>
      </trkpt>
      <trkpt lat="49.059643" lon="7.116247">
        <ele>256.0</ele>
        <time>2020-07-10T09:26:57Z</time>
      </trkpt>
      <trkpt lat="49.059583" lon="7.116403">
        <ele>256.0</ele>
        <time>2020-07-10T09:26:59Z</time>
      </trkpt>
      <trkpt lat="49.059533" lon="7.116543">
        <ele>255.0</ele>
        <time>2020-07-10T09:27:01Z</time>
      </trkpt>
      <trkpt lat="49.059487" lon="7.116692">
        <ele>255.0</ele>
        <time>2020-07-10T09:27:03Z</time>
      </trkpt>
      <trkpt lat="49.059441" lon="7.116844">
        <ele>255.0</ele>
        <time>2020-07-10T09:27:05Z</time>
      </trkpt>
      <trkpt lat="49.0594" lon="7.117003">
        <ele>256.0</ele>
        <time>2020-07-10T09:27:07Z</time>
      </trkpt>
      <trkpt lat="49.059372" lon="7.117147">
        <ele>256.0</ele>
        <time>2020-07-10T09:27:09Z</time>
      </trkpt>
      <trkpt lat="49.059348" lon="7.117294">
        <ele>257.0</ele>
        <time>2020-07-10T09:27:11Z</time>
      </trkpt>
      <trkpt lat="49.05932" lon="7.117516">
        <ele>258.0</ele>
        <time>2020-07-10T09:27:14Z</time>
      </trkpt>
      <trkpt lat="49.059307" lon="7.117678">
        <ele>259.0</ele>
        <time>2020-07-10T09:27:16Z</time>
      </trkpt>
      <trkpt lat="49.059303" lon="7.117759">
        <ele>259.0</ele>
        <time>2020-07-10T09:27:17Z</time>
      </trkpt>
      <trkpt lat="49.059283" lon="7.118">
        <ele>259.0</ele>
        <time>2020-07-10T09:27:20Z</time>
      </trkpt>
      <trkpt lat="49.059266" lon="7.118152">
        <ele>259.0</ele>
        <time>2020-07-10T09:27:22Z</time>
      </trkpt>
      <trkpt lat="49.059265" lon="7.118387">
        <ele>260.0</ele>
        <time>2020-07-10T09:27:25Z</time>
      </trkpt>
      <trkpt lat="49.059269" lon="7.118464">
        <ele>261.0</ele>
        <time>2020-07-10T09:27:26Z</time>
      </trkpt>
      <trkpt lat="49.059285" lon="7.118697">
        <ele>261.0</ele>
        <time>2020-07-10T09:27:29Z</time>
      </trkpt>
      <trkpt lat="49.059286" lon="7.118923">
        <ele>260.0</ele>
        <time>2020-07-10T09:27:32Z</time>
      </trkpt>
      <trkpt lat="49.059282" lon="7.119107">
        <ele>259.0</ele>
        <time>2020-07-10T09:27:34Z</time>
      </trkpt>
      <trkpt lat="49.059285" lon="7.119199">
        <ele>259.0</ele>
        <time>2020-07-10T09:27:35Z</time>
      </trkpt>
      <trkpt lat="49.059296" lon="7.119455">
        <ele>259.0</ele>
        <time>2020-07-10T09:27:38Z</time>
      </trkpt>
      <trkpt lat="49.059307" lon="7.119621">
        <ele>259.0</ele>
        <time>2020-07-10T09:27:40Z</time>
      </trkpt>
      <trkpt lat="49.059313" lon="7.119797">
        <ele>258.0</ele>
        <time>2020-07-10T09:27:42Z</time>
      </trkpt>
      <trkpt lat="49.059316" lon="7.120054">
        <ele>259.0</ele>
        <time>2020-07-10T09:27:45Z</time>
      </trkpt>
      <trkpt lat="49.059313" lon="7.12024">
        <ele>259.0</ele>
        <time>2020-07-10T09:27:47Z</time>
      </trkpt>
      <trkpt lat="49.059314" lon="7.120408">
        <ele>259.0</ele>
        <time>2020-07-10T09:27:49Z</time>
      </trkpt>
      <trkpt lat="49.059321" lon="7.120585">
        <ele>258.0</ele>
        <time>2020-07-10T09:27:51Z</time>
      </trkpt>
      <trkpt lat="49.059319" lon="7.120664">
        <ele>259.0</ele>
        <time>2020-07-10T09:27:52Z</time>
      </trkpt>
      <trkpt lat="49.059315" lon="7.120913">
        <ele>258.0</ele>
        <time>2020-07-10T09:27:55Z</time>
      </trkpt>
      <trkpt lat="49.059309" lon="7.12109">
        <ele>257.0</ele>
        <time>2020-07-10T09:27:57Z</time>
      </trkpt>
      <trkpt lat="49.059313" lon="7.12126">
        <ele>257.0</ele>
        <time>2020-07-10T09:27:59Z</time>
      </trkpt>
      <trkpt lat="49.059317" lon="7.121522">
        <ele>256.0</ele>
        <time>2020-07-10T09:28:02Z</time>
      </trkpt>
      <trkpt lat="49.059323" lon="7.121695">
        <ele>255.0</ele>
        <time>2020-07-10T09:28:04Z</time>
      </trkpt>
      <trkpt lat="49.059323" lon="7.121785">
        <ele>256.0</ele>
        <time>2020-07-10T09:28:05Z</time>
      </trkpt>
      <trkpt lat="49.059307" lon="7.122107">
        <ele>255.0</ele>
        <time>2020-07-10T09:28:09Z</time>
      </trkpt>
      <trkpt lat="49.059301" lon="7.122273">
        <ele>255.0</ele>
        <time>2020-07-10T09:28:11Z</time>
      </trkpt>
      <trkpt lat="49.059286" lon="7.12245">
        <ele>255.0</ele>
        <time>2020-07-10T09:28:13Z</time>
      </trkpt>
      <trkpt lat="49.059275" lon="7.122699">
        <ele>255.0</ele>
        <time>2020-07-10T09:28:16Z</time>
      </trkpt>
      <trkpt lat="49.059269" lon="7.122859">
        <ele>255.0</ele>
        <time>2020-07-10T09:28:18Z</time>
      </trkpt>
      <trkpt lat="49.059265" lon="7.122938">
        <ele>255.0</ele>
        <time>2020-07-10T09:28:19Z</time>
      </trkpt>
      <trkpt lat="49.05925" lon="7.123182">
        <ele>255.0</ele>
        <time>2020-07-10T09:28:22Z</time>
      </trkpt>
      <trkpt lat="49.059245" lon="7.123262">
        <ele>255.0</ele>
        <time>2020-07-10T09:28:23Z</time>
      </trkpt>
      <trkpt lat="49.059225" lon="7.123604">
        <ele>255.0</ele>
        <time>2020-07-10T09:28:27Z</time>
      </trkpt>
      <trkpt lat="49.059224" lon="7.123694">
        <ele>255.0</ele>
        <time>2020-07-10T09:28:28Z</time>
      </trkpt>
      <trkpt lat="49.059206" lon="7.124038">
        <ele>255.0</ele>
        <time>2020-07-10T09:28:32Z</time>
      </trkpt>
      <trkpt lat="49.059188" lon="7.124203">
        <ele>255.0</ele>
        <time>2020-07-10T09:28:34Z</time>
      </trkpt>
      <trkpt lat="49.059167" lon="7.124374">
        <ele>256.0</ele>
        <time>2020-07-10T09:28:36Z</time>
      </trkpt>
      <trkpt lat="49.059147" lon="7.124543">
        <ele>256.0</ele>
        <time>2020-07-10T09:28:38Z</time>
      </trkpt>
      <trkpt lat="49.059139" lon="7.124623">
        <ele>256.0</ele>
        <time>2020-07-10T09:28:39Z</time>
      </trkpt>
      <trkpt lat="49.059118" lon="7.124878">
        <ele>257.0</ele>
        <time>2020-07-10T09:28:42Z</time>
      </trkpt>
      <trkpt lat="49.059095" lon="7.125046">
        <ele>257.0</ele>
        <time>2020-07-10T09:28:44Z</time>
      </trkpt>
      <trkpt lat="49.059067" lon="7.125305">
        <ele>257.0</ele>
        <time>2020-07-10T09:28:47Z</time>
      </trkpt>
      <trkpt lat="49.059057" lon="7.125391">
        <ele>257.0</ele>
        <time>2020-07-10T09:28:48Z</time>
      </trkpt>
      <trkpt lat="49.059017" lon="7.125643">
        <ele>256.0</ele>
        <time>2020-07-10T09:28:51Z</time>
      </trkpt>
      <trkpt lat="49.059002" lon="7.125804">
        <ele>256.0</ele>
        <time>2020-07-10T09:28:53Z</time>
      </trkpt>
      <trkpt lat="49.058983" lon="7.125979">
        <ele>256.0</ele>
        <time>2020-07-10T09:28:55Z</time>
      </trkpt>
      <trkpt lat="49.058959" lon="7.12615">
        <ele>256.0</ele>
        <time>2020-07-10T09:28:57Z</time>
      </trkpt>
      <trkpt lat="49.058935" lon="7.126317">
        <ele>256.0</ele>
        <time>2020-07-10T09:28:59Z</time>
      </trkpt>
      <trkpt lat="49.05889" lon="7.126559">
        <ele>256.0</ele>
        <time>2020-07-10T09:29:02Z</time>
      </trkpt>
      <trkpt lat="49.05887" lon="7.126715">
        <ele>256.0</ele>
        <time>2020-07-10T09:29:04Z</time>
      </trkpt>
      <trkpt lat="49.058847" lon="7.126869">
        <ele>256.0</ele>
        <time>2020-07-10T09:29:06Z</time>
      </trkpt>
      <trkpt lat="49.058823" lon="7.127025">
        <ele>256.0</ele>
        <time>2020-07-10T09:29:08Z</time>
      </trkpt>
      <trkpt lat="49.05881" lon="7.127185">
        <ele>256.0</ele>
        <time>2020-07-10T09:29:10Z</time>
      </trkpt>
      <trkpt lat="49.058774" lon="7.127422">
        <ele>257.0</ele>
        <time>2020-07-10T09:29:13Z</time>
      </trkpt>
      <trkpt lat="49.058768" lon="7.127505">
        <ele>257.0</ele>
        <time>2020-07-10T09:29:14Z</time>
      </trkpt>
      <trkpt lat="49.058718" lon="7.127843">
        <ele>255.0</ele>
        <time>2020-07-10T09:29:18Z</time>
      </trkpt>
      <trkpt lat="49.058695" lon="7.128006">
        <ele>256.0</ele>
        <time>2020-07-10T09:29:20Z</time>
      </trkpt>
      <trkpt lat="49.058671" lon="7.128165">
        <ele>255.0</ele>
        <time>2020-07-10T09:29:22Z</time>
      </trkpt>
      <trkpt lat="49.058656" lon="7.128245">
        <ele>256.0</ele>
        <time>2020-07-10T09:29:23Z</time>
      </trkpt>
      <trkpt lat="49.058623" lon="7.128508">
        <ele>255.0</ele>
        <time>2020-07-10T09:29:26Z</time>
      </trkpt>
      <trkpt lat="49.058599" lon="7.12868">
        <ele>254.0</ele>
        <time>2020-07-10T09:29:28Z</time>
      </trkpt>
      <trkpt lat="49.058574" lon="7.128841">
        <ele>254.0</ele>
        <time>2020-07-10T09:29:30Z</time>
      </trkpt>
      <trkpt lat="49.058546" lon="7.129007">
        <ele>255.0</ele>
        <time>2020-07-10T09:29:32Z</time>
      </trkpt>
      <trkpt lat="49.058527" lon="7.129084">
        <ele>255.0</ele>
        <time>2020-07-10T09:29:33Z</time>
      </trkpt>
      <trkpt lat="49.058481" lon="7.129333">
        <ele>256.0</ele>
        <time>2020-07-10T09:29:36Z</time>
      </trkpt>
      <trkpt lat="49.05846" lon="7.129491">
        <ele>255.0</ele>
        <time>2020-07-10T09:29:38Z</time>
      </trkpt>
      <trkpt lat="49.05843" lon="7.12965">
        <ele>255.0</ele>
        <time>2020-07-10T09:29:40Z</time>
      </trkpt>
      <trkpt lat="49.058396" lon="7.129891">
        <ele>255.0</ele>
        <time>2020-07-10T09:29:43Z</time>
      </trkpt>
      <trkpt lat="49.058387" lon="7.12997">
        <ele>255.0</ele>
        <time>2020-07-10T09:29:44Z</time>
      </trkpt>
      <trkpt lat="49.058354" lon="7.130218">
        <ele>255.0</ele>
        <time>2020-07-10T09:29:47Z</time>
      </trkpt>
      <trkpt lat="49.058312" lon="7.130469">
        <ele>256.0</ele>
        <time>2020-07-10T09:29:50Z</time>
      </trkpt>
      <trkpt lat="49.058296" lon="7.130632">
        <ele>256.0</ele>
        <time>2020-07-10T09:29:52Z</time>
      </trkpt>
      <trkpt lat="49.058267" lon="7.130789">
        <ele>256.0</ele>
        <time>2020-07-10T09:29:54Z</time>
      </trkpt>
      <trkpt lat="49.058247" lon="7.130944">
        <ele>256.0</ele>
        <time>2020-07-10T09:29:56Z</time>
      </trkpt>
      <trkpt lat="49.058224" lon="7.131177">
        <ele>255.0</ele>
        <time>2020-07-10T09:29:59Z</time>
      </trkpt>
      <trkpt lat="49.0582" lon="7.13134">
        <ele>255.0</ele>
        <time>2020-07-10T09:30:01Z</time>
      </trkpt>
      <trkpt lat="49.058155" lon="7.131577">
        <ele>255.0</ele>
        <time>2020-07-10T09:30:04Z</time>
      </trkpt>
      <trkpt lat="49.058129" lon="7.131745">
        <ele>255.0</ele>
        <time>2020-07-10T09:30:06Z</time>
      </trkpt>
      <trkpt lat="49.058106" lon="7.131915">
        <ele>255.0</ele>
        <time>2020-07-10T09:30:08Z</time>
      </trkpt>
      <trkpt lat="49.058088" lon="7.132076">
        <ele>255.0</ele>
        <time>2020-07-10T09:30:10Z</time>
      </trkpt>
      <trkpt lat="49.058075" lon="7.132157">
        <ele>255.0</ele>
        <time>2020-07-10T09:30:11Z</time>
      </trkpt>
      <trkpt lat="49.05803" lon="7.1324">
        <ele>255.0</ele>
        <time>2020-07-10T09:30:14Z</time>
      </trkpt>
      <trkpt lat="49.058007" lon="7.13257">
        <ele>255.0</ele>
        <time>2020-07-10T09:30:16Z</time>
      </trkpt>
      <trkpt lat="49.057978" lon="7.13273">
        <ele>256.0</ele>
        <time>2020-07-10T09:30:18Z</time>
      </trkpt>
      <trkpt lat="49.057947" lon="7.132897">
        <ele>256.0</ele>
        <time>2020-07-10T09:30:20Z</time>
      </trkpt>
      <trkpt lat="49.057909" lon="7.133156">
        <ele>257.0</ele>
        <time>2020-07-10T09:30:23Z</time>
      </trkpt>
      <trkpt lat="49.057887" lon="7.133332">
        <ele>256.0</ele>
        <time>2020-07-10T09:30:25Z</time>
      </trkpt>
      <trkpt lat="49.057861" lon="7.1335">
        <ele>256.0</ele>
        <time>2020-07-10T09:30:27Z</time>
      </trkpt>
      <trkpt lat="49.05784" lon="7.133673">
        <ele>256.0</ele>
        <time>2020-07-10T09:30:29Z</time>
      </trkpt>
      <trkpt lat="49.057789" lon="7.133928">
        <ele>256.0</ele>
        <time>2020-07-10T09:30:32Z</time>
      </trkpt>
      <trkpt lat="49.057759" lon="7.134099">
        <ele>256.0</ele>
        <time>2020-07-10T09:30:34Z</time>
      </trkpt>
      <trkpt lat="49.057741" lon="7.134269">
        <ele>256.0</ele>
        <time>2020-07-10T09:30:36Z</time>
      </trkpt>
      <trkpt lat="49.057717" lon="7.134441">
        <ele>256.0</ele>
        <time>2020-07-10T09:30:38Z</time>
      </trkpt>
      <trkpt lat="49.057707" lon="7.134524">
        <ele>256.0</ele>
        <time>2020-07-10T09:30:39Z</time>
      </trkpt>
      <trkpt lat="49.057654" lon="7.134867">
        <ele>256.0</ele>
        <time>2020-07-10T09:30:43Z</time>
      </trkpt>
      <trkpt lat="49.057627" lon="7.135042">
        <ele>256.0</ele>
        <time>2020-07-10T09:30:45Z</time>
      </trkpt>
      <trkpt lat="49.057608" lon="7.135204">
        <ele>256.0</ele>
        <time>2020-07-10T09:30:47Z</time>
      </trkpt>
      <trkpt lat="49.057573" lon="7.135444">
        <ele>256.0</ele>
        <time>2020-07-10T09:30:50Z</time>
      </trkpt>
      <trkpt lat="49.057546" lon="7.13561">
        <ele>257.0</ele>
        <time>2020-07-10T09:30:52Z</time>
      </trkpt>
      <trkpt lat="49.057522" lon="7.13578">
        <ele>256.0</ele>
        <time>2020-07-10T09:30:54Z</time>
      </trkpt>
      <trkpt lat="49.057501" lon="7.135949">
        <ele>255.0</ele>
        <time>2020-07-10T09:30:56Z</time>
      </trkpt>
      <trkpt lat="49.057455" lon="7.136191">
        <ele>255.0</ele>
        <time>2020-07-10T09:30:59Z</time>
      </trkpt>
      <trkpt lat="49.057439" lon="7.13627">
        <ele>255.0</ele>
        <time>2020-07-10T09:31:00Z</time>
      </trkpt>
      <trkpt lat="49.05741" lon="7.136514">
        <ele>255.0</ele>
        <time>2020-07-10T09:31:03Z</time>
      </trkpt>
      <trkpt lat="49.057384" lon="7.136691">
        <ele>254.0</ele>
        <time>2020-07-10T09:31:05Z</time>
      </trkpt>
      <trkpt lat="49.057348" lon="7.136942">
        <ele>255.0</ele>
        <time>2020-07-10T09:31:08Z</time>
      </trkpt>
      <trkpt lat="49.057333" lon="7.137026">
        <ele>255.0</ele>
        <time>2020-07-10T09:31:09Z</time>
      </trkpt>
      <trkpt lat="49.057296" lon="7.13728">
        <ele>256.0</ele>
        <time>2020-07-10T09:31:12Z</time>
      </trkpt>
      <trkpt lat="49.057279" lon="7.137427">
        <ele>256.0</ele>
        <time>2020-07-10T09:31:14Z</time>
      </trkpt>
      <trkpt lat="49.057253" lon="7.13765">
        <ele>256.0</ele>
        <time>2020-07-10T09:31:17Z</time>
      </trkpt>
      <trkpt lat="49.057239" lon="7.137801">
        <ele>255.0</ele>
        <time>2020-07-10T09:31:19Z</time>
      </trkpt>
      <trkpt lat="49.057223" lon="7.137942">
        <ele>255.0</ele>
        <time>2020-07-10T09:31:21Z</time>
      </trkpt>
      <trkpt lat="49.057204" lon="7.138054">
        <ele>255.0</ele>
        <time>2020-07-10T09:31:23Z</time>
      </trkpt>
      <trkpt lat="49.057201" lon="7.138091">
        <ele>255.0</ele>
        <time>2020-07-10T09:31:24Z</time>
      </trkpt>
      <trkpt lat="49.057204" lon="7.138094">
        <ele>255.0</ele>
        <time>2020-07-10T09:31:27Z</time>
      </trkpt>
      <trkpt lat="49.057203" lon="7.138094">
        <ele>255.0</ele>
        <time>2020-07-10T09:31:30Z</time>
      </trkpt>
      <trkpt lat="49.057203" lon="7.138094">
        <ele>255.0</ele>
        <time>2020-07-10T09:31:32Z</time>
      </trkpt>
      <trkpt lat="49.057203" lon="7.138094">
        <ele>255.0</ele>
        <time>2020-07-10T09:31:34Z</time>
      </trkpt>
      <trkpt lat="49.057198" lon="7.138109">
        <ele>255.0</ele>
        <time>2020-07-10T09:31:37Z</time>
      </trkpt>
      <trkpt lat="49.057192" lon="7.138137">
        <ele>255.0</ele>
        <time>2020-07-10T09:31:38Z</time>
      </trkpt>
      <trkpt lat="49.057168" lon="7.138312">
        <ele>255.0</ele>
        <time>2020-07-10T09:31:42Z</time>
      </trkpt>
      <trkpt lat="49.057141" lon="7.138437">
        <ele>255.0</ele>
        <time>2020-07-10T09:31:44Z</time>
      </trkpt>
      <trkpt lat="49.05711" lon="7.138567">
        <ele>255.0</ele>
        <time>2020-07-10T09:31:46Z</time>
      </trkpt>
      <trkpt lat="49.057071" lon="7.138799">
        <ele>256.0</ele>
        <time>2020-07-10T09:31:49Z</time>
      </trkpt>
      <trkpt lat="49.057044" lon="7.138946">
        <ele>256.0</ele>
        <time>2020-07-10T09:31:51Z</time>
      </trkpt>
      <trkpt lat="49.057021" lon="7.139089">
        <ele>256.0</ele>
        <time>2020-07-10T09:31:53Z</time>
      </trkpt>
      <trkpt lat="49.057" lon="7.139241">
        <ele>256.0</ele>
        <time>2020-07-10T09:31:55Z</time>
      </trkpt>
      <trkpt lat="49.056977" lon="7.139396">
        <ele>256.0</ele>
        <time>2020-07-10T09:31:57Z</time>
      </trkpt>
      <trkpt lat="49.056951" lon="7.139556">
        <ele>255.0</ele>
        <time>2020-07-10T09:31:59Z</time>
      </trkpt>
      <trkpt lat="49.056916" lon="7.139806">
        <ele>255.0</ele>
        <time>2020-07-10T09:32:02Z</time>
      </trkpt>
      <trkpt lat="49.056894" lon="7.139971">
        <ele>255.0</ele>
        <time>2020-07-10T09:32:04Z</time>
      </trkpt>
      <trkpt lat="49.056873" lon="7.140141">
        <ele>255.0</ele>
        <time>2020-07-10T09:32:06Z</time>
      </trkpt>
      <trkpt lat="49.056846" lon="7.140312">
        <ele>255.0</ele>
        <time>2020-07-10T09:32:08Z</time>
      </trkpt>
      <trkpt lat="49.056819" lon="7.140477">
        <ele>256.0</ele>
        <time>2020-07-10T09:32:10Z</time>
      </trkpt>
      <trkpt lat="49.056795" lon="7.140643">
        <ele>256.0</ele>
        <time>2020-07-10T09:32:12Z</time>
      </trkpt>
      <trkpt lat="49.056772" lon="7.140819">
        <ele>256.0</ele>
        <time>2020-07-10T09:32:14Z</time>
      </trkpt>
      <trkpt lat="49.056751" lon="7.140987">
        <ele>256.0</ele>
        <time>2020-07-10T09:32:16Z</time>
      </trkpt>
      <trkpt lat="49.05673" lon="7.141162">
        <ele>256.0</ele>
        <time>2020-07-10T09:32:18Z</time>
      </trkpt>
      <trkpt lat="49.056702" lon="7.141329">
        <ele>255.0</ele>
        <time>2020-07-10T09:32:20Z</time>
      </trkpt>
      <trkpt lat="49.05666" lon="7.141581">
        <ele>255.0</ele>
        <time>2020-07-10T09:32:23Z</time>
      </trkpt>
      <trkpt lat="49.056638" lon="7.141744">
        <ele>256.0</ele>
        <time>2020-07-10T09:32:25Z</time>
      </trkpt>
      <trkpt lat="49.056612" lon="7.141907">
        <ele>255.0</ele>
        <time>2020-07-10T09:32:27Z</time>
      </trkpt>
      <trkpt lat="49.056593" lon="7.142075">
        <ele>255.0</ele>
        <time>2020-07-10T09:32:29Z</time>
      </trkpt>
      <trkpt lat="49.056565" lon="7.142246">
        <ele>255.0</ele>
        <time>2020-07-10T09:32:31Z</time>
      </trkpt>
      <trkpt lat="49.056533" lon="7.142506">
        <ele>256.0</ele>
        <time>2020-07-10T09:32:34Z</time>
      </trkpt>
      <trkpt lat="49.056504" lon="7.14268">
        <ele>256.0</ele>
        <time>2020-07-10T09:32:36Z</time>
      </trkpt>
      <trkpt lat="49.056482" lon="7.142843">
        <ele>256.0</ele>
        <time>2020-07-10T09:32:38Z</time>
      </trkpt>
      <trkpt lat="49.056455" lon="7.143011">
        <ele>256.0</ele>
        <time>2020-07-10T09:32:40Z</time>
      </trkpt>
      <trkpt lat="49.056414" lon="7.14325">
        <ele>256.0</ele>
        <time>2020-07-10T09:32:43Z</time>
      </trkpt>
      <trkpt lat="49.056398" lon="7.143418">
        <ele>255.0</ele>
        <time>2020-07-10T09:32:45Z</time>
      </trkpt>
      <trkpt lat="49.056378" lon="7.143588">
        <ele>255.0</ele>
        <time>2020-07-10T09:32:47Z</time>
      </trkpt>
      <trkpt lat="49.056351" lon="7.143763">
        <ele>255.0</ele>
        <time>2020-07-10T09:32:49Z</time>
      </trkpt>
      <trkpt lat="49.056318" lon="7.143931">
        <ele>255.0</ele>
        <time>2020-07-10T09:32:51Z</time>
      </trkpt>
      <trkpt lat="49.056295" lon="7.144099">
        <ele>255.0</ele>
        <time>2020-07-10T09:32:53Z</time>
      </trkpt>
      <trkpt lat="49.056271" lon="7.144275">
        <ele>255.0</ele>
        <time>2020-07-10T09:32:55Z</time>
      </trkpt>
      <trkpt lat="49.056245" lon="7.144444">
        <ele>255.0</ele>
        <time>2020-07-10T09:32:57Z</time>
      </trkpt>
      <trkpt lat="49.056232" lon="7.144529">
        <ele>255.0</ele>
        <time>2020-07-10T09:32:58Z</time>
      </trkpt>
      <trkpt lat="49.056194" lon="7.144777">
        <ele>255.0</ele>
        <time>2020-07-10T09:33:01Z</time>
      </trkpt>
      <trkpt lat="49.056163" lon="7.145034">
        <ele>254.0</ele>
        <time>2020-07-10T09:33:04Z</time>
      </trkpt>
      <trkpt lat="49.056141" lon="7.145197">
        <ele>254.0</ele>
        <time>2020-07-10T09:33:06Z</time>
      </trkpt>
      <trkpt lat="49.056102" lon="7.145453">
        <ele>254.0</ele>
        <time>2020-07-10T09:33:09Z</time>
      </trkpt>
      <trkpt lat="49.056085" lon="7.145541">
        <ele>254.0</ele>
        <time>2020-07-10T09:33:10Z</time>
      </trkpt>
      <trkpt lat="49.056047" lon="7.145796">
        <ele>254.0</ele>
        <time>2020-07-10T09:33:13Z</time>
      </trkpt>
      <trkpt lat="49.056007" lon="7.146056">
        <ele>255.0</ele>
        <time>2020-07-10T09:33:16Z</time>
      </trkpt>
      <trkpt lat="49.055978" lon="7.146223">
        <ele>255.0</ele>
        <time>2020-07-10T09:33:18Z</time>
      </trkpt>
      <trkpt lat="49.055951" lon="7.146386">
        <ele>255.0</ele>
        <time>2020-07-10T09:33:20Z</time>
      </trkpt>
      <trkpt lat="49.055916" lon="7.146556">
        <ele>255.0</ele>
        <time>2020-07-10T09:33:22Z</time>
      </trkpt>
      <trkpt lat="49.055874" lon="7.146724">
        <ele>255.0</ele>
        <time>2020-07-10T09:33:24Z</time>
      </trkpt>
      <trkpt lat="49.055813" lon="7.146967">
        <ele>254.0</ele>
        <time>2020-07-10T09:33:27Z</time>
      </trkpt>
      <trkpt lat="49.055772" lon="7.147131">
        <ele>255.0</ele>
        <time>2020-07-10T09:33:29Z</time>
      </trkpt>
      <trkpt lat="49.055719" lon="7.147287">
        <ele>255.0</ele>
        <time>2020-07-10T09:33:31Z</time>
      </trkpt>
      <trkpt lat="49.055667" lon="7.147439">
        <ele>255.0</ele>
        <time>2020-07-10T09:33:33Z</time>
      </trkpt>
      <trkpt lat="49.055622" lon="7.147595">
        <ele>255.0</ele>
        <time>2020-07-10T09:33:35Z</time>
      </trkpt>
      <trkpt lat="49.055568" lon="7.147742">
        <ele>255.0</ele>
        <time>2020-07-10T09:33:37Z</time>
      </trkpt>
      <trkpt lat="49.055516" lon="7.147886">
        <ele>255.0</ele>
        <time>2020-07-10T09:33:39Z</time>
      </trkpt>
      <trkpt lat="49.055454" lon="7.148025">
        <ele>255.0</ele>
        <time>2020-07-10T09:33:41Z</time>
      </trkpt>
      <trkpt lat="49.055357" lon="7.148231">
        <ele>255.0</ele>
        <time>2020-07-10T09:33:44Z</time>
      </trkpt>
      <trkpt lat="49.055293" lon="7.148364">
        <ele>255.0</ele>
        <time>2020-07-10T09:33:46Z</time>
      </trkpt>
      <trkpt lat="49.05523" lon="7.148504">
        <ele>255.0</ele>
        <time>2020-07-10T09:33:48Z</time>
      </trkpt>
      <trkpt lat="49.055162" lon="7.148634">
        <ele>255.0</ele>
        <time>2020-07-10T09:33:50Z</time>
      </trkpt>
      <trkpt lat="49.055083" lon="7.148746">
        <ele>255.0</ele>
        <time>2020-07-10T09:33:52Z</time>
      </trkpt>
      <trkpt lat="49.054971" lon="7.148905">
        <ele>255.0</ele>
        <time>2020-07-10T09:33:55Z</time>
      </trkpt>
      <trkpt lat="49.054896" lon="7.148992">
        <ele>255.0</ele>
        <time>2020-07-10T09:33:57Z</time>
      </trkpt>
      <trkpt lat="49.054856" lon="7.149027">
        <ele>256.0</ele>
        <time>2020-07-10T09:33:58Z</time>
      </trkpt>
      <trkpt lat="49.054726" lon="7.149113">
        <ele>256.0</ele>
        <time>2020-07-10T09:34:01Z</time>
      </trkpt>
      <trkpt lat="49.054594" lon="7.149211">
        <ele>257.0</ele>
        <time>2020-07-10T09:34:04Z</time>
      </trkpt>
      <trkpt lat="49.054495" lon="7.149258">
        <ele>257.0</ele>
        <time>2020-07-10T09:34:06Z</time>
      </trkpt>
      <trkpt lat="49.054444" lon="7.149279">
        <ele>257.0</ele>
        <time>2020-07-10T09:34:07Z</time>
      </trkpt>
      <trkpt lat="49.054238" lon="7.14932">
        <ele>256.0</ele>
        <time>2020-07-10T09:34:11Z</time>
      </trkpt>
      <trkpt lat="49.054189" lon="7.149322">
        <ele>256.0</ele>
        <time>2020-07-10T09:34:12Z</time>
      </trkpt>
      <trkpt lat="49.054049" lon="7.149329">
        <ele>257.0</ele>
        <time>2020-07-10T09:34:15Z</time>
      </trkpt>
      <trkpt lat="49.053957" lon="7.149323">
        <ele>257.0</ele>
        <time>2020-07-10T09:34:17Z</time>
      </trkpt>
      <trkpt lat="49.05387" lon="7.14932">
        <ele>257.0</ele>
        <time>2020-07-10T09:34:19Z</time>
      </trkpt>
      <trkpt lat="49.053757" lon="7.149309">
        <ele>257.0</ele>
        <time>2020-07-10T09:34:22Z</time>
      </trkpt>
      <trkpt lat="49.05371" lon="7.149328">
        <ele>257.0</ele>
        <time>2020-07-10T09:34:24Z</time>
      </trkpt>
      <trkpt lat="49.053685" lon="7.149334">
        <ele>257.0</ele>
        <time>2020-07-10T09:34:26Z</time>
      </trkpt>
      <trkpt lat="49.053688" lon="7.149336">
        <ele>257.0</ele>
        <time>2020-07-10T09:34:28Z</time>
      </trkpt>
      <trkpt lat="49.053688" lon="7.149336">
        <ele>257.0</ele>
        <time>2020-07-10T09:34:29Z</time>
      </trkpt>
      <trkpt lat="49.053685" lon="7.149343">
        <ele>257.0</ele>
        <time>2020-07-10T09:34:32Z</time>
      </trkpt>
      <trkpt lat="49.053685" lon="7.149343">
        <ele>257.0</ele>
        <time>2020-07-10T09:34:34Z</time>
      </trkpt>
      <trkpt lat="49.053666" lon="7.149307">
        <ele>256.0</ele>
        <time>2020-07-10T09:59:29Z</time>
      </trkpt>
      <trkpt lat="49.053666" lon="7.149307">
        <ele>256.0</ele>
        <time>2020-07-10T09:59:31Z</time>
      </trkpt>
      <trkpt lat="49.053666" lon="7.149306">
        <ele>256.0</ele>
        <time>2020-07-10T09:59:33Z</time>
      </trkpt>
      <trkpt lat="49.053666" lon="7.149306">
        <ele>256.0</ele>
        <time>2020-07-10T09:59:35Z</time>
      </trkpt>
      <trkpt lat="49.053666" lon="7.149306">
        <ele>256.0</ele>
        <time>2020-07-10T09:59:37Z</time>
      </trkpt>
      <trkpt lat="49.053666" lon="7.149306">
        <ele>256.0</ele>
        <time>2020-07-10T09:59:39Z</time>
      </trkpt>
      <trkpt lat="49.053666" lon="7.149306">
        <ele>256.0</ele>
        <time>2020-07-10T09:59:41Z</time>
      </trkpt>
      <trkpt lat="49.053666" lon="7.149306">
        <ele>256.0</ele>
        <time>2020-07-10T09:59:43Z</time>
      </trkpt>
      <trkpt lat="49.053666" lon="7.149306">
        <ele>256.0</ele>
        <time>2020-07-10T09:59:45Z</time>
      </trkpt>
      <trkpt lat="49.053666" lon="7.149306">
        <ele>256.0</ele>
        <time>2020-07-10T09:59:47Z</time>
      </trkpt>
      <trkpt lat="49.053654" lon="7.149288">
        <ele>257.0</ele>
        <time>2020-07-10T09:59:49Z</time>
      </trkpt>
      <trkpt lat="49.05364" lon="7.149301">
        <ele>257.0</ele>
        <time>2020-07-10T09:59:51Z</time>
      </trkpt>
      <trkpt lat="49.053618" lon="7.149291">
        <ele>258.0</ele>
        <time>2020-07-10T09:59:53Z</time>
      </trkpt>
      <trkpt lat="49.053598" lon="7.149287">
        <ele>257.0</ele>
        <time>2020-07-10T09:59:55Z</time>
      </trkpt>
      <trkpt lat="49.053574" lon="7.149251">
        <ele>257.0</ele>
        <time>2020-07-10T09:59:57Z</time>
      </trkpt>
      <trkpt lat="49.053536" lon="7.149198">
        <ele>257.0</ele>
        <time>2020-07-10T09:59:59Z</time>
      </trkpt>
      <trkpt lat="49.053479" lon="7.149156">
        <ele>258.0</ele>
        <time>2020-07-10T10:00:01Z</time>
      </trkpt>
      <trkpt lat="49.053393" lon="7.149107">
        <ele>258.0</ele>
        <time>2020-07-10T10:00:04Z</time>
      </trkpt>
      <trkpt lat="49.053342" lon="7.149092">
        <ele>259.0</ele>
        <time>2020-07-10T10:00:06Z</time>
      </trkpt>
      <trkpt lat="49.053299" lon="7.149088">
        <ele>259.0</ele>
        <time>2020-07-10T10:00:08Z</time>
      </trkpt>
      <trkpt lat="49.053264" lon="7.149106">
        <ele>259.0</ele>
        <time>2020-07-10T10:00:10Z</time>
      </trkpt>
      <trkpt lat="49.053231" lon="7.149109">
        <ele>260.0</ele>
        <time>2020-07-10T10:00:12Z</time>
      </trkpt>
      <trkpt lat="49.053221" lon="7.149154">
        <ele>260.0</ele>
        <time>2020-07-10T10:00:14Z</time>
      </trkpt>
      <trkpt lat="49.053185" lon="7.149195">
        <ele>261.0</ele>
        <time>2020-07-10T10:00:16Z</time>
      </trkpt>
      <trkpt lat="49.053152" lon="7.149254">
        <ele>261.0</ele>
        <time>2020-07-10T10:00:18Z</time>
      </trkpt>
      <trkpt lat="49.053134" lon="7.149345">
        <ele>260.0</ele>
        <time>2020-07-10T10:00:20Z</time>
      </trkpt>
      <trkpt lat="49.053119" lon="7.149463">
        <ele>259.0</ele>
        <time>2020-07-10T10:00:22Z</time>
      </trkpt>
      <trkpt lat="49.053115" lon="7.149582">
        <ele>259.0</ele>
        <time>2020-07-10T10:00:24Z</time>
      </trkpt>
      <trkpt lat="49.053119" lon="7.149709">
        <ele>260.0</ele>
        <time>2020-07-10T10:00:26Z</time>
      </trkpt>
      <trkpt lat="49.053126" lon="7.149839">
        <ele>259.0</ele>
        <time>2020-07-10T10:00:28Z</time>
      </trkpt>
      <trkpt lat="49.053126" lon="7.14998">
        <ele>259.0</ele>
        <time>2020-07-10T10:00:30Z</time>
      </trkpt>
      <trkpt lat="49.053129" lon="7.15013">
        <ele>259.0</ele>
        <time>2020-07-10T10:00:32Z</time>
      </trkpt>
      <trkpt lat="49.053139" lon="7.150281">
        <ele>259.0</ele>
        <time>2020-07-10T10:00:34Z</time>
      </trkpt>
      <trkpt lat="49.053151" lon="7.150427">
        <ele>260.0</ele>
        <time>2020-07-10T10:00:36Z</time>
      </trkpt>
      <trkpt lat="49.053158" lon="7.150568">
        <ele>260.0</ele>
        <time>2020-07-10T10:00:38Z</time>
      </trkpt>
      <trkpt lat="49.053163" lon="7.150712">
        <ele>260.0</ele>
        <time>2020-07-10T10:00:40Z</time>
      </trkpt>
      <trkpt lat="49.053143" lon="7.150858">
        <ele>259.0</ele>
        <time>2020-07-10T10:00:42Z</time>
      </trkpt>
      <trkpt lat="49.053075" lon="7.150958">
        <ele>259.0</ele>
        <time>2020-07-10T10:00:44Z</time>
      </trkpt>
      <trkpt lat="49.052983" lon="7.150974">
        <ele>259.0</ele>
        <time>2020-07-10T10:00:46Z</time>
      </trkpt>
      <trkpt lat="49.052891" lon="7.150981">
        <ele>259.0</ele>
        <time>2020-07-10T10:00:48Z</time>
      </trkpt>
      <trkpt lat="49.052804" lon="7.150989">
        <ele>259.0</ele>
        <time>2020-07-10T10:00:50Z</time>
      </trkpt>
      <trkpt lat="49.05272" lon="7.150982">
        <ele>260.0</ele>
        <time>2020-07-10T10:00:52Z</time>
      </trkpt>
      <trkpt lat="49.052638" lon="7.15098">
        <ele>259.0</ele>
        <time>2020-07-10T10:00:54Z</time>
      </trkpt>
      <trkpt lat="49.052559" lon="7.150989">
        <ele>259.0</ele>
        <time>2020-07-10T10:00:56Z</time>
      </trkpt>
      <trkpt lat="49.052472" lon="7.150989">
        <ele>259.0</ele>
        <time>2020-07-10T10:00:58Z</time>
      </trkpt>
      <trkpt lat="49.052387" lon="7.150985">
        <ele>259.0</ele>
        <time>2020-07-10T10:01:00Z</time>
      </trkpt>
      <trkpt lat="49.052299" lon="7.150981">
        <ele>260.0</ele>
        <time>2020-07-10T10:01:02Z</time>
      </trkpt>
      <trkpt lat="49.052212" lon="7.150976">
        <ele>259.0</ele>
        <time>2020-07-10T10:01:04Z</time>
      </trkpt>
      <trkpt lat="49.052127" lon="7.150965">
        <ele>259.0</ele>
        <time>2020-07-10T10:01:06Z</time>
      </trkpt>
      <trkpt lat="49.052038" lon="7.150968">
        <ele>260.0</ele>
        <time>2020-07-10T10:01:08Z</time>
      </trkpt>
      <trkpt lat="49.051959" lon="7.150962">
        <ele>260.0</ele>
        <time>2020-07-10T10:01:10Z</time>
      </trkpt>
      <trkpt lat="49.05188" lon="7.150945">
        <ele>260.0</ele>
        <time>2020-07-10T10:01:12Z</time>
      </trkpt>
      <trkpt lat="49.051793" lon="7.150932">
        <ele>260.0</ele>
        <time>2020-07-10T10:01:14Z</time>
      </trkpt>
      <trkpt lat="49.051709" lon="7.150917">
        <ele>260.0</ele>
        <time>2020-07-10T10:01:16Z</time>
      </trkpt>
      <trkpt lat="49.05162" lon="7.150899">
        <ele>260.0</ele>
        <time>2020-07-10T10:01:18Z</time>
      </trkpt>
      <trkpt lat="49.05154" lon="7.150883">
        <ele>260.0</ele>
        <time>2020-07-10T10:01:20Z</time>
      </trkpt>
      <trkpt lat="49.051456" lon="7.150856">
        <ele>260.0</ele>
        <time>2020-07-10T10:01:22Z</time>
      </trkpt>
      <trkpt lat="49.051371" lon="7.150816">
        <ele>260.0</ele>
        <time>2020-07-10T10:01:24Z</time>
      </trkpt>
      <trkpt lat="49.051282" lon="7.150772">
        <ele>260.0</ele>
        <time>2020-07-10T10:01:26Z</time>
      </trkpt>
      <trkpt lat="49.051198" lon="7.150715">
        <ele>259.0</ele>
        <time>2020-07-10T10:01:28Z</time>
      </trkpt>
      <trkpt lat="49.051108" lon="7.150649">
        <ele>259.0</ele>
        <time>2020-07-10T10:01:30Z</time>
      </trkpt>
      <trkpt lat="49.051005" lon="7.150574">
        <ele>259.0</ele>
        <time>2020-07-10T10:01:32Z</time>
      </trkpt>
      <trkpt lat="49.050903" lon="7.150473">
        <ele>258.0</ele>
        <time>2020-07-10T10:01:34Z</time>
      </trkpt>
      <trkpt lat="49.05081" lon="7.150365">
        <ele>258.0</ele>
        <time>2020-07-10T10:01:36Z</time>
      </trkpt>
      <trkpt lat="49.050715" lon="7.150269">
        <ele>257.0</ele>
        <time>2020-07-10T10:01:38Z</time>
      </trkpt>
      <trkpt lat="49.050615" lon="7.150177">
        <ele>256.0</ele>
        <time>2020-07-10T10:01:40Z</time>
      </trkpt>
      <trkpt lat="49.050517" lon="7.150087">
        <ele>256.0</ele>
        <time>2020-07-10T10:01:42Z</time>
      </trkpt>
      <trkpt lat="49.050415" lon="7.149986">
        <ele>255.0</ele>
        <time>2020-07-10T10:01:44Z</time>
      </trkpt>
      <trkpt lat="49.050319" lon="7.149849">
        <ele>255.0</ele>
        <time>2020-07-10T10:01:46Z</time>
      </trkpt>
      <trkpt lat="49.050229" lon="7.149712">
        <ele>254.0</ele>
        <time>2020-07-10T10:01:48Z</time>
      </trkpt>
      <trkpt lat="49.050148" lon="7.149558">
        <ele>254.0</ele>
        <time>2020-07-10T10:01:50Z</time>
      </trkpt>
      <trkpt lat="49.050066" lon="7.149403">
        <ele>254.0</ele>
        <time>2020-07-10T10:01:52Z</time>
      </trkpt>
      <trkpt lat="49.049984" lon="7.149254">
        <ele>255.0</ele>
        <time>2020-07-10T10:01:54Z</time>
      </trkpt>
      <trkpt lat="49.049899" lon="7.149111">
        <ele>255.0</ele>
        <time>2020-07-10T10:01:56Z</time>
      </trkpt>
      <trkpt lat="49.049823" lon="7.148971">
        <ele>255.0</ele>
        <time>2020-07-10T10:01:58Z</time>
      </trkpt>
      <trkpt lat="49.049751" lon="7.148834">
        <ele>255.0</ele>
        <time>2020-07-10T10:02:00Z</time>
      </trkpt>
      <trkpt lat="49.049671" lon="7.148698">
        <ele>255.0</ele>
        <time>2020-07-10T10:02:02Z</time>
      </trkpt>
      <trkpt lat="49.049596" lon="7.148561">
        <ele>255.0</ele>
        <time>2020-07-10T10:02:04Z</time>
      </trkpt>
      <trkpt lat="49.049529" lon="7.148429">
        <ele>255.0</ele>
        <time>2020-07-10T10:02:06Z</time>
      </trkpt>
      <trkpt lat="49.049473" lon="7.14829">
        <ele>256.0</ele>
        <time>2020-07-10T10:02:08Z</time>
      </trkpt>
      <trkpt lat="49.049426" lon="7.148143">
        <ele>256.0</ele>
        <time>2020-07-10T10:02:10Z</time>
      </trkpt>
      <trkpt lat="49.04938" lon="7.147995">
        <ele>256.0</ele>
        <time>2020-07-10T10:02:12Z</time>
      </trkpt>
      <trkpt lat="49.049339" lon="7.147839">
        <ele>255.0</ele>
        <time>2020-07-10T10:02:14Z</time>
      </trkpt>
      <trkpt lat="49.049296" lon="7.147693">
        <ele>256.0</ele>
        <time>2020-07-10T10:02:16Z</time>
      </trkpt>
      <trkpt lat="49.049266" lon="7.147538">
        <ele>257.0</ele>
        <time>2020-07-10T10:02:18Z</time>
      </trkpt>
      <trkpt lat="49.049234" lon="7.147395">
        <ele>257.0</ele>
        <time>2020-07-10T10:02:20Z</time>
      </trkpt>
      <trkpt lat="49.049197" lon="7.147261">
        <ele>256.0</ele>
        <time>2020-07-10T10:02:22Z</time>
      </trkpt>
      <trkpt lat="49.049164" lon="7.147129">
        <ele>257.0</ele>
        <time>2020-07-10T10:02:24Z</time>
      </trkpt>
      <trkpt lat="49.04913" lon="7.146989">
        <ele>257.0</ele>
        <time>2020-07-10T10:02:26Z</time>
      </trkpt>
      <trkpt lat="49.0491" lon="7.146845">
        <ele>257.0</ele>
        <time>2020-07-10T10:02:28Z</time>
      </trkpt>
      <trkpt lat="49.049067" lon="7.146709">
        <ele>256.0</ele>
        <time>2020-07-10T10:02:30Z</time>
      </trkpt>
      <trkpt lat="49.04903" lon="7.14658">
        <ele>256.0</ele>
        <time>2020-07-10T10:02:32Z</time>
      </trkpt>
      <trkpt lat="49.04899" lon="7.146446">
        <ele>256.0</ele>
        <time>2020-07-10T10:02:34Z</time>
      </trkpt>
      <trkpt lat="49.048948" lon="7.146306">
        <ele>255.0</ele>
        <time>2020-07-10T10:02:36Z</time>
      </trkpt>
      <trkpt lat="49.048916" lon="7.146166">
        <ele>255.0</ele>
        <time>2020-07-10T10:02:38Z</time>
      </trkpt>
      <trkpt lat="49.048875" lon="7.146017">
        <ele>255.0</ele>
        <time>2020-07-10T10:02:40Z</time>
      </trkpt>
      <trkpt lat="49.048831" lon="7.145867">
        <ele>256.0</ele>
        <time>2020-07-10T10:02:42Z</time>
      </trkpt>
      <trkpt lat="49.048796" lon="7.14572">
        <ele>255.0</ele>
        <time>2020-07-10T10:02:44Z</time>
      </trkpt>
      <trkpt lat="49.04876" lon="7.145584">
        <ele>255.0</ele>
        <time>2020-07-10T10:02:46Z</time>
      </trkpt>
      <trkpt lat="49.048724" lon="7.145431">
        <ele>255.0</ele>
        <time>2020-07-10T10:02:48Z</time>
      </trkpt>
      <trkpt lat="49.048687" lon="7.145297">
        <ele>254.0</ele>
        <time>2020-07-10T10:02:50Z</time>
      </trkpt>
      <trkpt lat="49.048642" lon="7.145174">
        <ele>253.0</ele>
        <time>2020-07-10T10:02:52Z</time>
      </trkpt>
      <trkpt lat="49.048596" lon="7.145051">
        <ele>254.0</ele>
        <time>2020-07-10T10:02:54Z</time>
      </trkpt>
      <trkpt lat="49.048547" lon="7.144935">
        <ele>254.0</ele>
        <time>2020-07-10T10:02:56Z</time>
      </trkpt>
      <trkpt lat="49.048493" lon="7.144794">
        <ele>254.0</ele>
        <time>2020-07-10T10:02:59Z</time>
      </trkpt>
      <trkpt lat="49.048478" lon="7.144715">
        <ele>254.0</ele>
        <time>2020-07-10T10:03:01Z</time>
      </trkpt>
      <trkpt lat="49.048467" lon="7.144675">
        <ele>254.0</ele>
        <time>2020-07-10T10:03:03Z</time>
      </trkpt>
      <trkpt lat="49.048476" lon="7.144681">
        <ele>254.0</ele>
        <time>2020-07-10T10:03:05Z</time>
      </trkpt>
      <trkpt lat="49.048471" lon="7.144685">
        <ele>254.0</ele>
        <time>2020-07-10T10:03:07Z</time>
      </trkpt>
      <trkpt lat="49.048471" lon="7.144685">
        <ele>254.0</ele>
        <time>2020-07-10T10:03:09Z</time>
      </trkpt>
      <trkpt lat="49.048471" lon="7.144685">
        <ele>254.0</ele>
        <time>2020-07-10T10:03:11Z</time>
      </trkpt>
      <trkpt lat="49.048471" lon="7.144685">
        <ele>254.0</ele>
        <time>2020-07-10T10:03:59Z</time>
      </trkpt>
      <trkpt lat="49.048471" lon="7.144685">
        <ele>254.0</ele>
        <time>2020-07-10T10:04:01Z</time>
      </trkpt>
      <trkpt lat="49.048471" lon="7.144685">
        <ele>254.0</ele>
        <time>2020-07-10T10:04:03Z</time>
      </trkpt>
      <trkpt lat="49.048471" lon="7.144685">
        <ele>254.0</ele>
        <time>2020-07-10T10:04:05Z</time>
      </trkpt>
      <trkpt lat="49.048471" lon="7.144685">
        <ele>254.0</ele>
        <time>2020-07-10T10:04:07Z</time>
      </trkpt>
      <trkpt lat="49.048471" lon="7.144685">
        <ele>254.0</ele>
        <time>2020-07-10T10:04:09Z</time>
      </trkpt>
      <trkpt lat="49.048471" lon="7.144685">
        <ele>254.0</ele>
        <time>2020-07-10T10:04:11Z</time>
      </trkpt>
      <trkpt lat="49.048471" lon="7.144685">
        <ele>254.0</ele>
        <time>2020-07-10T10:04:13Z</time>
      </trkpt>
      <trkpt lat="49.048471" lon="7.144685">
        <ele>254.0</ele>
        <time>2020-07-10T10:04:15Z</time>
      </trkpt>
      <trkpt lat="49.048471" lon="7.144685">
        <ele>254.0</ele>
        <time>2020-07-10T10:04:17Z</time>
      </trkpt>
      <trkpt lat="49.048471" lon="7.144685">
        <ele>254.0</ele>
        <time>2020-07-10T10:04:19Z</time>
      </trkpt>
      <trkpt lat="49.048471" lon="7.144685">
        <ele>254.0</ele>
        <time>2020-07-10T10:04:21Z</time>
      </trkpt>
      <trkpt lat="49.048471" lon="7.144685">
        <ele>254.0</ele>
        <time>2020-07-10T10:04:23Z</time>
      </trkpt>
      <trkpt lat="49.048498" lon="7.144654">
        <ele>254.0</ele>
        <time>2020-07-10T10:04:25Z</time>
      </trkpt>
      <trkpt lat="49.048523" lon="7.144673">
        <ele>254.0</ele>
        <time>2020-07-10T10:04:27Z</time>
      </trkpt>
      <trkpt lat="49.048494" lon="7.144738">
        <ele>254.0</ele>
        <time>2020-07-10T10:04:29Z</time>
      </trkpt>
      <trkpt lat="49.048447" lon="7.144762">
        <ele>254.0</ele>
        <time>2020-07-10T10:04:31Z</time>
      </trkpt>
      <trkpt lat="49.048408" lon="7.144709">
        <ele>254.0</ele>
        <time>2020-07-10T10:04:33Z</time>
      </trkpt>
      <trkpt lat="49.048356" lon="7.144648">
        <ele>254.0</ele>
        <time>2020-07-10T10:04:35Z</time>
      </trkpt>
      <trkpt lat="49.048305" lon="7.144576">
        <ele>254.0</ele>
        <time>2020-07-10T10:04:37Z</time>
      </trkpt>
      <trkpt lat="49.048257" lon="7.1445">
        <ele>254.0</ele>
        <time>2020-07-10T10:04:39Z</time>
      </trkpt>
      <trkpt lat="49.048206" lon="7.144428">
        <ele>254.0</ele>
        <time>2020-07-10T10:04:41Z</time>
      </trkpt>
      <trkpt lat="49.048151" lon="7.144373">
        <ele>254.0</ele>
        <time>2020-07-10T10:04:43Z</time>
      </trkpt>
      <trkpt lat="49.048102" lon="7.14432">
        <ele>254.0</ele>
        <time>2020-07-10T10:04:45Z</time>
      </trkpt>
      <trkpt lat="49.048053" lon="7.144276">
        <ele>255.0</ele>
        <time>2020-07-10T10:04:47Z</time>
      </trkpt>
      <trkpt lat="49.047995" lon="7.144232">
        <ele>255.0</ele>
        <time>2020-07-10T10:04:49Z</time>
      </trkpt>
      <trkpt lat="49.047941" lon="7.14419">
        <ele>256.0</ele>
        <time>2020-07-10T10:04:51Z</time>
      </trkpt>
      <trkpt lat="49.047884" lon="7.144143">
        <ele>257.0</ele>
        <time>2020-07-10T10:04:53Z</time>
      </trkpt>
      <trkpt lat="49.047835" lon="7.1441">
        <ele>257.0</ele>
        <time>2020-07-10T10:04:55Z</time>
      </trkpt>
      <trkpt lat="49.047784" lon="7.144051">
        <ele>257.0</ele>
        <time>2020-07-10T10:04:57Z</time>
      </trkpt>
      <trkpt lat="49.047731" lon="7.143999">
        <ele>257.0</ele>
        <time>2020-07-10T10:04:59Z</time>
      </trkpt>
      <trkpt lat="49.04768" lon="7.143965">
        <ele>257.0</ele>
        <time>2020-07-10T10:05:01Z</time>
      </trkpt>
      <trkpt lat="49.047625" lon="7.143916">
        <ele>257.0</ele>
        <time>2020-07-10T10:05:03Z</time>
      </trkpt>
      <trkpt lat="49.047571" lon="7.14387">
        <ele>257.0</ele>
        <time>2020-07-10T10:05:05Z</time>
      </trkpt>
      <trkpt lat="49.047518" lon="7.143826">
        <ele>257.0</ele>
        <time>2020-07-10T10:05:07Z</time>
      </trkpt>
      <trkpt lat="49.047466" lon="7.143789">
        <ele>258.0</ele>
        <time>2020-07-10T10:05:09Z</time>
      </trkpt>
      <trkpt lat="49.047416" lon="7.143746">
        <ele>258.0</ele>
        <time>2020-07-10T10:05:11Z</time>
      </trkpt>
      <trkpt lat="49.047361" lon="7.1437">
        <ele>258.0</ele>
        <time>2020-07-10T10:05:13Z</time>
      </trkpt>
      <trkpt lat="49.047305" lon="7.143658">
        <ele>259.0</ele>
        <time>2020-07-10T10:05:15Z</time>
      </trkpt>
      <trkpt lat="49.047252" lon="7.143625">
        <ele>259.0</ele>
        <time>2020-07-10T10:05:17Z</time>
      </trkpt>
      <trkpt lat="49.047208" lon="7.143557">
        <ele>259.0</ele>
        <time>2020-07-10T10:05:19Z</time>
      </trkpt>
      <trkpt lat="49.047161" lon="7.143493">
        <ele>260.0</ele>
        <time>2020-07-10T10:05:21Z</time>
      </trkpt>
      <trkpt lat="49.047108" lon="7.143435">
        <ele>260.0</ele>
        <time>2020-07-10T10:05:23Z</time>
      </trkpt>
      <trkpt lat="49.047054" lon="7.14338">
        <ele>261.0</ele>
        <time>2020-07-10T10:05:25Z</time>
      </trkpt>
      <trkpt lat="49.047005" lon="7.143326">
        <ele>261.0</ele>
        <time>2020-07-10T10:05:27Z</time>
      </trkpt>
      <trkpt lat="49.046964" lon="7.143268">
        <ele>261.0</ele>
        <time>2020-07-10T10:05:29Z</time>
      </trkpt>
      <trkpt lat="49.046919" lon="7.143208">
        <ele>261.0</ele>
        <time>2020-07-10T10:05:31Z</time>
      </trkpt>
      <trkpt lat="49.04687" lon="7.143154">
        <ele>262.0</ele>
        <time>2020-07-10T10:05:33Z</time>
      </trkpt>
      <trkpt lat="49.046821" lon="7.143111">
        <ele>263.0</ele>
        <time>2020-07-10T10:05:35Z</time>
      </trkpt>
      <trkpt lat="49.046773" lon="7.143064">
        <ele>263.0</ele>
        <time>2020-07-10T10:05:37Z</time>
      </trkpt>
      <trkpt lat="49.046725" lon="7.142998">
        <ele>263.0</ele>
        <time>2020-07-10T10:05:39Z</time>
      </trkpt>
      <trkpt lat="49.046675" lon="7.142934">
        <ele>263.0</ele>
        <time>2020-07-10T10:05:41Z</time>
      </trkpt>
      <trkpt lat="49.046603" lon="7.142825">
        <ele>264.0</ele>
        <time>2020-07-10T10:05:44Z</time>
      </trkpt>
      <trkpt lat="49.046553" lon="7.142749">
        <ele>264.0</ele>
        <time>2020-07-10T10:05:46Z</time>
      </trkpt>
      <trkpt lat="49.046502" lon="7.142682">
        <ele>264.0</ele>
        <time>2020-07-10T10:05:48Z</time>
      </trkpt>
      <trkpt lat="49.046448" lon="7.142612">
        <ele>264.0</ele>
        <time>2020-07-10T10:05:50Z</time>
      </trkpt>
      <trkpt lat="49.046398" lon="7.14254">
        <ele>265.0</ele>
        <time>2020-07-10T10:05:52Z</time>
      </trkpt>
      <trkpt lat="49.046349" lon="7.142464">
        <ele>267.0</ele>
        <time>2020-07-10T10:05:54Z</time>
      </trkpt>
      <trkpt lat="49.046303" lon="7.142388">
        <ele>267.0</ele>
        <time>2020-07-10T10:05:56Z</time>
      </trkpt>
      <trkpt lat="49.046254" lon="7.142303">
        <ele>267.0</ele>
        <time>2020-07-10T10:05:58Z</time>
      </trkpt>
      <trkpt lat="49.046209" lon="7.142222">
        <ele>267.0</ele>
        <time>2020-07-10T10:06:00Z</time>
      </trkpt>
      <trkpt lat="49.046172" lon="7.142135">
        <ele>268.0</ele>
        <time>2020-07-10T10:06:02Z</time>
      </trkpt>
      <trkpt lat="49.046131" lon="7.142052">
        <ele>268.0</ele>
        <time>2020-07-10T10:06:04Z</time>
      </trkpt>
      <trkpt lat="49.046091" lon="7.141964">
        <ele>269.0</ele>
        <time>2020-07-10T10:06:06Z</time>
      </trkpt>
      <trkpt lat="49.046054" lon="7.141878">
        <ele>268.0</ele>
        <time>2020-07-10T10:06:08Z</time>
      </trkpt>
      <trkpt lat="49.046007" lon="7.141788">
        <ele>269.0</ele>
        <time>2020-07-10T10:06:10Z</time>
      </trkpt>
      <trkpt lat="49.04596" lon="7.141701">
        <ele>269.0</ele>
        <time>2020-07-10T10:06:12Z</time>
      </trkpt>
      <trkpt lat="49.045915" lon="7.141613">
        <ele>270.0</ele>
        <time>2020-07-10T10:06:14Z</time>
      </trkpt>
      <trkpt lat="49.045869" lon="7.141527">
        <ele>270.0</ele>
        <time>2020-07-10T10:06:16Z</time>
      </trkpt>
      <trkpt lat="49.045826" lon="7.141435">
        <ele>270.0</ele>
        <time>2020-07-10T10:06:18Z</time>
      </trkpt>
      <trkpt lat="49.045779" lon="7.141339">
        <ele>271.0</ele>
        <time>2020-07-10T10:06:20Z</time>
      </trkpt>
      <trkpt lat="49.045732" lon="7.14123">
        <ele>271.0</ele>
        <time>2020-07-10T10:06:22Z</time>
      </trkpt>
      <trkpt lat="49.045681" lon="7.141136">
        <ele>271.0</ele>
        <time>2020-07-10T10:06:24Z</time>
      </trkpt>
      <trkpt lat="49.045631" lon="7.141036">
        <ele>272.0</ele>
        <time>2020-07-10T10:06:26Z</time>
      </trkpt>
      <trkpt lat="49.045583" lon="7.140939">
        <ele>273.0</ele>
        <time>2020-07-10T10:06:28Z</time>
      </trkpt>
      <trkpt lat="49.045532" lon="7.140829">
        <ele>273.0</ele>
        <time>2020-07-10T10:06:30Z</time>
      </trkpt>
      <trkpt lat="49.045478" lon="7.140722">
        <ele>273.0</ele>
        <time>2020-07-10T10:06:32Z</time>
      </trkpt>
      <trkpt lat="49.045429" lon="7.140621">
        <ele>273.0</ele>
        <time>2020-07-10T10:06:34Z</time>
      </trkpt>
      <trkpt lat="49.045384" lon="7.140518">
        <ele>274.0</ele>
        <time>2020-07-10T10:06:36Z</time>
      </trkpt>
      <trkpt lat="49.045326" lon="7.140413">
        <ele>273.0</ele>
        <time>2020-07-10T10:06:38Z</time>
      </trkpt>
      <trkpt lat="49.045264" lon="7.140296">
        <ele>273.0</ele>
        <time>2020-07-10T10:06:40Z</time>
      </trkpt>
      <trkpt lat="49.045202" lon="7.140174">
        <ele>273.0</ele>
        <time>2020-07-10T10:06:42Z</time>
      </trkpt>
      <trkpt lat="49.045141" lon="7.140049">
        <ele>272.0</ele>
        <time>2020-07-10T10:06:44Z</time>
      </trkpt>
      <trkpt lat="49.045081" lon="7.139925">
        <ele>272.0</ele>
        <time>2020-07-10T10:06:46Z</time>
      </trkpt>
      <trkpt lat="49.045024" lon="7.139809">
        <ele>272.0</ele>
        <time>2020-07-10T10:06:48Z</time>
      </trkpt>
      <trkpt lat="49.044969" lon="7.139688">
        <ele>271.0</ele>
        <time>2020-07-10T10:06:50Z</time>
      </trkpt>
      <trkpt lat="49.044916" lon="7.139566">
        <ele>271.0</ele>
        <time>2020-07-10T10:06:52Z</time>
      </trkpt>
      <trkpt lat="49.044856" lon="7.139437">
        <ele>271.0</ele>
        <time>2020-07-10T10:06:54Z</time>
      </trkpt>
      <trkpt lat="49.044797" lon="7.139301">
        <ele>271.0</ele>
        <time>2020-07-10T10:06:56Z</time>
      </trkpt>
      <trkpt lat="49.044739" lon="7.13916">
        <ele>271.0</ele>
        <time>2020-07-10T10:06:58Z</time>
      </trkpt>
      <trkpt lat="49.044684" lon="7.139008">
        <ele>271.0</ele>
        <time>2020-07-10T10:07:00Z</time>
      </trkpt>
      <trkpt lat="49.044626" lon="7.138858">
        <ele>271.0</ele>
        <time>2020-07-10T10:07:02Z</time>
      </trkpt>
      <trkpt lat="49.044562" lon="7.138707">
        <ele>271.0</ele>
        <time>2020-07-10T10:07:04Z</time>
      </trkpt>
      <trkpt lat="49.044499" lon="7.138553">
        <ele>271.0</ele>
        <time>2020-07-10T10:07:06Z</time>
      </trkpt>
      <trkpt lat="49.044434" lon="7.138405">
        <ele>271.0</ele>
        <time>2020-07-10T10:07:08Z</time>
      </trkpt>
      <trkpt lat="49.044372" lon="7.138248">
        <ele>271.0</ele>
        <time>2020-07-10T10:07:10Z</time>
      </trkpt>
      <trkpt lat="49.044309" lon="7.138093">
        <ele>270.0</ele>
        <time>2020-07-10T10:07:12Z</time>
      </trkpt>
      <trkpt lat="49.044244" lon="7.137935">
        <ele>270.0</ele>
        <time>2020-07-10T10:07:14Z</time>
      </trkpt>
      <trkpt lat="49.044183" lon="7.137789">
        <ele>270.0</ele>
        <time>2020-07-10T10:07:16Z</time>
      </trkpt>
      <trkpt lat="49.044132" lon="7.137649">
        <ele>269.0</ele>
        <time>2020-07-10T10:07:18Z</time>
      </trkpt>
      <trkpt lat="49.044085" lon="7.13751">
        <ele>269.0</ele>
        <time>2020-07-10T10:07:20Z</time>
      </trkpt>
      <trkpt lat="49.044021" lon="7.137372">
        <ele>269.0</ele>
        <time>2020-07-10T10:07:22Z</time>
      </trkpt>
      <trkpt lat="49.043952" lon="7.137231">
        <ele>268.0</ele>
        <time>2020-07-10T10:07:24Z</time>
      </trkpt>
      <trkpt lat="49.043886" lon="7.137084">
        <ele>268.0</ele>
        <time>2020-07-10T10:07:26Z</time>
      </trkpt>
      <trkpt lat="49.04382" lon="7.136939">
        <ele>268.0</ele>
        <time>2020-07-10T10:07:28Z</time>
      </trkpt>
      <trkpt lat="49.043758" lon="7.136795">
        <ele>268.0</ele>
        <time>2020-07-10T10:07:30Z</time>
      </trkpt>
      <trkpt lat="49.043694" lon="7.13666">
        <ele>268.0</ele>
        <time>2020-07-10T10:07:32Z</time>
      </trkpt>
      <trkpt lat="49.04362" lon="7.136521">
        <ele>268.0</ele>
        <time>2020-07-10T10:07:34Z</time>
      </trkpt>
      <trkpt lat="49.043549" lon="7.136395">
        <ele>268.0</ele>
        <time>2020-07-10T10:07:36Z</time>
      </trkpt>
      <trkpt lat="49.043473" lon="7.136272">
        <ele>268.0</ele>
        <time>2020-07-10T10:07:38Z</time>
      </trkpt>
      <trkpt lat="49.043401" lon="7.136153">
        <ele>268.0</ele>
        <time>2020-07-10T10:07:40Z</time>
      </trkpt>
      <trkpt lat="49.043328" lon="7.136035">
        <ele>268.0</ele>
        <time>2020-07-10T10:07:42Z</time>
      </trkpt>
      <trkpt lat="49.043259" lon="7.135914">
        <ele>268.0</ele>
        <time>2020-07-10T10:07:44Z</time>
      </trkpt>
      <trkpt lat="49.043186" lon="7.135795">
        <ele>268.0</ele>
        <time>2020-07-10T10:07:46Z</time>
      </trkpt>
      <trkpt lat="49.043111" lon="7.13568">
        <ele>268.0</ele>
        <time>2020-07-10T10:07:48Z</time>
      </trkpt>
      <trkpt lat="49.043035" lon="7.135565">
        <ele>268.0</ele>
        <time>2020-07-10T10:07:50Z</time>
      </trkpt>
      <trkpt lat="49.042963" lon="7.135449">
        <ele>268.0</ele>
        <time>2020-07-10T10:07:52Z</time>
      </trkpt>
      <trkpt lat="49.042895" lon="7.135339">
        <ele>268.0</ele>
        <time>2020-07-10T10:07:54Z</time>
      </trkpt>
      <trkpt lat="49.042819" lon="7.135231">
        <ele>268.0</ele>
        <time>2020-07-10T10:07:56Z</time>
      </trkpt>
      <trkpt lat="49.042743" lon="7.135122">
        <ele>268.0</ele>
        <time>2020-07-10T10:07:58Z</time>
      </trkpt>
      <trkpt lat="49.042669" lon="7.135016">
        <ele>269.0</ele>
        <time>2020-07-10T10:08:00Z</time>
      </trkpt>
      <trkpt lat="49.042602" lon="7.134905">
        <ele>269.0</ele>
        <time>2020-07-10T10:08:02Z</time>
      </trkpt>
      <trkpt lat="49.042531" lon="7.134802">
        <ele>269.0</ele>
        <time>2020-07-10T10:08:04Z</time>
      </trkpt>
      <trkpt lat="49.042463" lon="7.1347">
        <ele>269.0</ele>
        <time>2020-07-10T10:08:06Z</time>
      </trkpt>
      <trkpt lat="49.042399" lon="7.134602">
        <ele>269.0</ele>
        <time>2020-07-10T10:08:08Z</time>
      </trkpt>
      <trkpt lat="49.042341" lon="7.134509">
        <ele>269.0</ele>
        <time>2020-07-10T10:08:10Z</time>
      </trkpt>
      <trkpt lat="49.04229" lon="7.134427">
        <ele>269.0</ele>
        <time>2020-07-10T10:08:12Z</time>
      </trkpt>
      <trkpt lat="49.042235" lon="7.134342">
        <ele>269.0</ele>
        <time>2020-07-10T10:08:14Z</time>
      </trkpt>
      <trkpt lat="49.042184" lon="7.134266">
        <ele>269.0</ele>
        <time>2020-07-10T10:08:16Z</time>
      </trkpt>
      <trkpt lat="49.04213" lon="7.134197">
        <ele>269.0</ele>
        <time>2020-07-10T10:08:18Z</time>
      </trkpt>
      <trkpt lat="49.042079" lon="7.134124">
        <ele>269.0</ele>
        <time>2020-07-10T10:08:20Z</time>
      </trkpt>
      <trkpt lat="49.042022" lon="7.134053">
        <ele>269.0</ele>
        <time>2020-07-10T10:08:22Z</time>
      </trkpt>
      <trkpt lat="49.041966" lon="7.133985">
        <ele>270.0</ele>
        <time>2020-07-10T10:08:24Z</time>
      </trkpt>
      <trkpt lat="49.041912" lon="7.133917">
        <ele>270.0</ele>
        <time>2020-07-10T10:08:26Z</time>
      </trkpt>
      <trkpt lat="49.041852" lon="7.133852">
        <ele>270.0</ele>
        <time>2020-07-10T10:08:28Z</time>
      </trkpt>
      <trkpt lat="49.041797" lon="7.133783">
        <ele>270.0</ele>
        <time>2020-07-10T10:08:30Z</time>
      </trkpt>
      <trkpt lat="49.041742" lon="7.133712">
        <ele>271.0</ele>
        <time>2020-07-10T10:08:32Z</time>
      </trkpt>
      <trkpt lat="49.041682" lon="7.133643">
        <ele>271.0</ele>
        <time>2020-07-10T10:08:34Z</time>
      </trkpt>
      <trkpt lat="49.041624" lon="7.133574">
        <ele>271.0</ele>
        <time>2020-07-10T10:08:36Z</time>
      </trkpt>
      <trkpt lat="49.04156" lon="7.133518">
        <ele>272.0</ele>
        <time>2020-07-10T10:08:38Z</time>
      </trkpt>
      <trkpt lat="49.041496" lon="7.133456">
        <ele>272.0</ele>
        <time>2020-07-10T10:08:40Z</time>
      </trkpt>
      <trkpt lat="49.041439" lon="7.133397">
        <ele>273.0</ele>
        <time>2020-07-10T10:08:42Z</time>
      </trkpt>
      <trkpt lat="49.041371" lon="7.133334">
        <ele>273.0</ele>
        <time>2020-07-10T10:08:44Z</time>
      </trkpt>
      <trkpt lat="49.041312" lon="7.133261">
        <ele>272.0</ele>
        <time>2020-07-10T10:08:46Z</time>
      </trkpt>
      <trkpt lat="49.04125" lon="7.133189">
        <ele>272.0</ele>
        <time>2020-07-10T10:08:48Z</time>
      </trkpt>
      <trkpt lat="49.041186" lon="7.133125">
        <ele>273.0</ele>
        <time>2020-07-10T10:08:50Z</time>
      </trkpt>
      <trkpt lat="49.041124" lon="7.133069">
        <ele>273.0</ele>
        <time>2020-07-10T10:08:52Z</time>
      </trkpt>
      <trkpt lat="49.041065" lon="7.133009">
        <ele>273.0</ele>
        <time>2020-07-10T10:08:54Z</time>
      </trkpt>
      <trkpt lat="49.041004" lon="7.132952">
        <ele>273.0</ele>
        <time>2020-07-10T10:08:56Z</time>
      </trkpt>
      <trkpt lat="49.040939" lon="7.132897">
        <ele>274.0</ele>
        <time>2020-07-10T10:08:58Z</time>
      </trkpt>
      <trkpt lat="49.040851" lon="7.132808">
        <ele>274.0</ele>
        <time>2020-07-10T10:09:01Z</time>
      </trkpt>
      <trkpt lat="49.0408" lon="7.132752">
        <ele>274.0</ele>
        <time>2020-07-10T10:09:03Z</time>
      </trkpt>
      <trkpt lat="49.040743" lon="7.132698">
        <ele>274.0</ele>
        <time>2020-07-10T10:09:05Z</time>
      </trkpt>
      <trkpt lat="49.040682" lon="7.13264">
        <ele>274.0</ele>
        <time>2020-07-10T10:09:07Z</time>
      </trkpt>
      <trkpt lat="49.040623" lon="7.132587">
        <ele>275.0</ele>
        <time>2020-07-10T10:09:09Z</time>
      </trkpt>
      <trkpt lat="49.040565" lon="7.132528">
        <ele>275.0</ele>
        <time>2020-07-10T10:09:11Z</time>
      </trkpt>
      <trkpt lat="49.040503" lon="7.132468">
        <ele>274.0</ele>
        <time>2020-07-10T10:09:13Z</time>
      </trkpt>
      <trkpt lat="49.040443" lon="7.132394">
        <ele>274.0</ele>
        <time>2020-07-10T10:09:15Z</time>
      </trkpt>
      <trkpt lat="49.040388" lon="7.132333">
        <ele>274.0</ele>
        <time>2020-07-10T10:09:17Z</time>
      </trkpt>
      <trkpt lat="49.040337" lon="7.132266">
        <ele>274.0</ele>
        <time>2020-07-10T10:09:19Z</time>
      </trkpt>
      <trkpt lat="49.040283" lon="7.132186">
        <ele>274.0</ele>
        <time>2020-07-10T10:09:21Z</time>
      </trkpt>
      <trkpt lat="49.040223" lon="7.132098">
        <ele>274.0</ele>
        <time>2020-07-10T10:09:23Z</time>
      </trkpt>
      <trkpt lat="49.04017" lon="7.132015">
        <ele>274.0</ele>
        <time>2020-07-10T10:09:25Z</time>
      </trkpt>
      <trkpt lat="49.040117" lon="7.131927">
        <ele>275.0</ele>
        <time>2020-07-10T10:09:27Z</time>
      </trkpt>
      <trkpt lat="49.04007" lon="7.13183">
        <ele>275.0</ele>
        <time>2020-07-10T10:09:29Z</time>
      </trkpt>
      <trkpt lat="49.040016" lon="7.131729">
        <ele>275.0</ele>
        <time>2020-07-10T10:09:31Z</time>
      </trkpt>
      <trkpt lat="49.039968" lon="7.131613">
        <ele>275.0</ele>
        <time>2020-07-10T10:09:33Z</time>
      </trkpt>
      <trkpt lat="49.039919" lon="7.131502">
        <ele>275.0</ele>
        <time>2020-07-10T10:09:35Z</time>
      </trkpt>
      <trkpt lat="49.039871" lon="7.131392">
        <ele>276.0</ele>
        <time>2020-07-10T10:09:37Z</time>
      </trkpt>
      <trkpt lat="49.039821" lon="7.131266">
        <ele>275.0</ele>
        <time>2020-07-10T10:09:39Z</time>
      </trkpt>
      <trkpt lat="49.039769" lon="7.131128">
        <ele>275.0</ele>
        <time>2020-07-10T10:09:41Z</time>
      </trkpt>
      <trkpt lat="49.039722" lon="7.130968">
        <ele>276.0</ele>
        <time>2020-07-10T10:09:43Z</time>
      </trkpt>
      <trkpt lat="49.03967" lon="7.130808">
        <ele>275.0</ele>
        <time>2020-07-10T10:09:45Z</time>
      </trkpt>
      <trkpt lat="49.039616" lon="7.130642">
        <ele>275.0</ele>
        <time>2020-07-10T10:09:47Z</time>
      </trkpt>
      <trkpt lat="49.039555" lon="7.130468">
        <ele>274.0</ele>
        <time>2020-07-10T10:09:49Z</time>
      </trkpt>
      <trkpt lat="49.039492" lon="7.130295">
        <ele>273.0</ele>
        <time>2020-07-10T10:09:51Z</time>
      </trkpt>
      <trkpt lat="49.039427" lon="7.130123">
        <ele>273.0</ele>
        <time>2020-07-10T10:09:53Z</time>
      </trkpt>
      <trkpt lat="49.039364" lon="7.129951">
        <ele>272.0</ele>
        <time>2020-07-10T10:09:55Z</time>
      </trkpt>
      <trkpt lat="49.039301" lon="7.129767">
        <ele>271.0</ele>
        <time>2020-07-10T10:09:57Z</time>
      </trkpt>
      <trkpt lat="49.03923" lon="7.129589">
        <ele>270.0</ele>
        <time>2020-07-10T10:09:59Z</time>
      </trkpt>
      <trkpt lat="49.039155" lon="7.12941">
        <ele>270.0</ele>
        <time>2020-07-10T10:10:01Z</time>
      </trkpt>
      <trkpt lat="49.039065" lon="7.129239">
        <ele>270.0</ele>
        <time>2020-07-10T10:10:03Z</time>
      </trkpt>
      <trkpt lat="49.038971" lon="7.129068">
        <ele>269.0</ele>
        <time>2020-07-10T10:10:05Z</time>
      </trkpt>
      <trkpt lat="49.038859" lon="7.12891">
        <ele>268.0</ele>
        <time>2020-07-10T10:10:07Z</time>
      </trkpt>
      <trkpt lat="49.038749" lon="7.128764">
        <ele>268.0</ele>
        <time>2020-07-10T10:10:09Z</time>
      </trkpt>
      <trkpt lat="49.038633" lon="7.128631">
        <ele>268.0</ele>
        <time>2020-07-10T10:10:11Z</time>
      </trkpt>
      <trkpt lat="49.038496" lon="7.128501">
        <ele>267.0</ele>
        <time>2020-07-10T10:10:13Z</time>
      </trkpt>
      <trkpt lat="49.038352" lon="7.128385">
        <ele>266.0</ele>
        <time>2020-07-10T10:10:15Z</time>
      </trkpt>
      <trkpt lat="49.0382" lon="7.128257">
        <ele>265.0</ele>
        <time>2020-07-10T10:10:17Z</time>
      </trkpt>
      <trkpt lat="49.038039" lon="7.128138">
        <ele>264.0</ele>
        <time>2020-07-10T10:10:19Z</time>
      </trkpt>
      <trkpt lat="49.037881" lon="7.128018">
        <ele>264.0</ele>
        <time>2020-07-10T10:10:21Z</time>
      </trkpt>
      <trkpt lat="49.037724" lon="7.127893">
        <ele>263.0</ele>
        <time>2020-07-10T10:10:23Z</time>
      </trkpt>
      <trkpt lat="49.037575" lon="7.127765">
        <ele>262.0</ele>
        <time>2020-07-10T10:10:25Z</time>
      </trkpt>
      <trkpt lat="49.037427" lon="7.127647">
        <ele>261.0</ele>
        <time>2020-07-10T10:10:27Z</time>
      </trkpt>
      <trkpt lat="49.037276" lon="7.127527">
        <ele>261.0</ele>
        <time>2020-07-10T10:10:29Z</time>
      </trkpt>
      <trkpt lat="49.037129" lon="7.127404">
        <ele>261.0</ele>
        <time>2020-07-10T10:10:31Z</time>
      </trkpt>
      <trkpt lat="49.036991" lon="7.12728">
        <ele>260.0</ele>
        <time>2020-07-10T10:10:33Z</time>
      </trkpt>
      <trkpt lat="49.036866" lon="7.127176">
        <ele>261.0</ele>
        <time>2020-07-10T10:10:35Z</time>
      </trkpt>
      <trkpt lat="49.036748" lon="7.127071">
        <ele>261.0</ele>
        <time>2020-07-10T10:10:37Z</time>
      </trkpt>
      <trkpt lat="49.036642" lon="7.126969">
        <ele>261.0</ele>
        <time>2020-07-10T10:10:39Z</time>
      </trkpt>
      <trkpt lat="49.036539" lon="7.126883">
        <ele>261.0</ele>
        <time>2020-07-10T10:10:41Z</time>
      </trkpt>
      <trkpt lat="49.036439" lon="7.126808">
        <ele>261.0</ele>
        <time>2020-07-10T10:10:43Z</time>
      </trkpt>
      <trkpt lat="49.036349" lon="7.126737">
        <ele>261.0</ele>
        <time>2020-07-10T10:10:45Z</time>
      </trkpt>
      <trkpt lat="49.036256" lon="7.126663">
        <ele>261.0</ele>
        <time>2020-07-10T10:10:47Z</time>
      </trkpt>
      <trkpt lat="49.036162" lon="7.126588">
        <ele>262.0</ele>
        <time>2020-07-10T10:10:49Z</time>
      </trkpt>
      <trkpt lat="49.03608" lon="7.126515">
        <ele>262.0</ele>
        <time>2020-07-10T10:10:51Z</time>
      </trkpt>
      <trkpt lat="49.036003" lon="7.126448">
        <ele>262.0</ele>
        <time>2020-07-10T10:10:53Z</time>
      </trkpt>
      <trkpt lat="49.035923" lon="7.126396">
        <ele>263.0</ele>
        <time>2020-07-10T10:10:55Z</time>
      </trkpt>
      <trkpt lat="49.035852" lon="7.126339">
        <ele>263.0</ele>
        <time>2020-07-10T10:10:57Z</time>
      </trkpt>
      <trkpt lat="49.035778" lon="7.126285">
        <ele>263.0</ele>
        <time>2020-07-10T10:10:59Z</time>
      </trkpt>
      <trkpt lat="49.03571" lon="7.126223">
        <ele>263.0</ele>
        <time>2020-07-10T10:11:01Z</time>
      </trkpt>
      <trkpt lat="49.035633" lon="7.12617">
        <ele>264.0</ele>
        <time>2020-07-10T10:11:03Z</time>
      </trkpt>
      <trkpt lat="49.035556" lon="7.126114">
        <ele>264.0</ele>
        <time>2020-07-10T10:11:05Z</time>
      </trkpt>
      <trkpt lat="49.035487" lon="7.126054">
        <ele>264.0</ele>
        <time>2020-07-10T10:11:07Z</time>
      </trkpt>
      <trkpt lat="49.035414" lon="7.125993">
        <ele>264.0</ele>
        <time>2020-07-10T10:11:09Z</time>
      </trkpt>
      <trkpt lat="49.035345" lon="7.125933">
        <ele>264.0</ele>
        <time>2020-07-10T10:11:11Z</time>
      </trkpt>
      <trkpt lat="49.035268" lon="7.125864">
        <ele>265.0</ele>
        <time>2020-07-10T10:11:13Z</time>
      </trkpt>
      <trkpt lat="49.035196" lon="7.125797">
        <ele>265.0</ele>
        <time>2020-07-10T10:11:15Z</time>
      </trkpt>
      <trkpt lat="49.03512" lon="7.125734">
        <ele>265.0</ele>
        <time>2020-07-10T10:11:17Z</time>
      </trkpt>
      <trkpt lat="49.035057" lon="7.125666">
        <ele>265.0</ele>
        <time>2020-07-10T10:11:19Z</time>
      </trkpt>
      <trkpt lat="49.034989" lon="7.125607">
        <ele>266.0</ele>
        <time>2020-07-10T10:11:21Z</time>
      </trkpt>
      <trkpt lat="49.03492" lon="7.125553">
        <ele>265.0</ele>
        <time>2020-07-10T10:11:23Z</time>
      </trkpt>
      <trkpt lat="49.034878" lon="7.125503">
        <ele>265.0</ele>
        <time>2020-07-10T10:11:25Z</time>
      </trkpt>
      <trkpt lat="49.034853" lon="7.125472">
        <ele>265.0</ele>
        <time>2020-07-10T10:11:27Z</time>
      </trkpt>
      <trkpt lat="49.034848" lon="7.125465">
        <ele>265.0</ele>
        <time>2020-07-10T10:11:29Z</time>
      </trkpt>
      <trkpt lat="49.034848" lon="7.125465">
        <ele>265.0</ele>
        <time>2020-07-10T10:11:31Z</time>
      </trkpt>
      <trkpt lat="49.034848" lon="7.125465">
        <ele>265.0</ele>
        <time>2020-07-10T10:11:33Z</time>
      </trkpt>
      <trkpt lat="49.034848" lon="7.125465">
        <ele>265.0</ele>
        <time>2020-07-10T10:11:35Z</time>
      </trkpt>
      <trkpt lat="49.034851" lon="7.125468">
        <ele>265.0</ele>
        <time>2020-07-10T10:12:22Z</time>
      </trkpt>
      <trkpt lat="49.034851" lon="7.125469">
        <ele>265.0</ele>
        <time>2020-07-10T10:12:24Z</time>
      </trkpt>
      <trkpt lat="49.034851" lon="7.125469">
        <ele>265.0</ele>
        <time>2020-07-10T10:12:26Z</time>
      </trkpt>
      <trkpt lat="49.034851" lon="7.125469">
        <ele>265.0</ele>
        <time>2020-07-10T10:12:28Z</time>
      </trkpt>
      <trkpt lat="49.034851" lon="7.125469">
        <ele>265.0</ele>
        <time>2020-07-10T10:12:30Z</time>
      </trkpt>
      <trkpt lat="49.034851" lon="7.125469">
        <ele>265.0</ele>
        <time>2020-07-10T10:12:32Z</time>
      </trkpt>
      <trkpt lat="49.034851" lon="7.125469">
        <ele>265.0</ele>
        <time>2020-07-10T10:12:34Z</time>
      </trkpt>
      <trkpt lat="49.034851" lon="7.125469">
        <ele>265.0</ele>
        <time>2020-07-10T10:12:36Z</time>
      </trkpt>
      <trkpt lat="49.034851" lon="7.125469">
        <ele>265.0</ele>
        <time>2020-07-10T10:12:38Z</time>
      </trkpt>
      <trkpt lat="49.034859" lon="7.125459">
        <ele>265.0</ele>
        <time>2020-07-10T10:12:40Z</time>
      </trkpt>
      <trkpt lat="49.034862" lon="7.125458">
        <ele>265.0</ele>
        <time>2020-07-10T10:12:42Z</time>
      </trkpt>
      <trkpt lat="49.034856" lon="7.125463">
        <ele>265.0</ele>
        <time>2020-07-10T10:12:44Z</time>
      </trkpt>
      <trkpt lat="49.034854" lon="7.125463">
        <ele>265.0</ele>
        <time>2020-07-10T10:12:46Z</time>
      </trkpt>
      <trkpt lat="49.03488" lon="7.125459">
        <ele>266.0</ele>
        <time>2020-07-10T10:12:48Z</time>
      </trkpt>
      <trkpt lat="49.034891" lon="7.125497">
        <ele>266.0</ele>
        <time>2020-07-10T10:12:50Z</time>
      </trkpt>
      <trkpt lat="49.034851" lon="7.125499">
        <ele>266.0</ele>
        <time>2020-07-10T10:12:52Z</time>
      </trkpt>
      <trkpt lat="49.034797" lon="7.125495">
        <ele>266.0</ele>
        <time>2020-07-10T10:12:54Z</time>
      </trkpt>
      <trkpt lat="49.034737" lon="7.125499">
        <ele>266.0</ele>
        <time>2020-07-10T10:12:56Z</time>
      </trkpt>
      <trkpt lat="49.034671" lon="7.125513">
        <ele>266.0</ele>
        <time>2020-07-10T10:12:58Z</time>
      </trkpt>
      <trkpt lat="49.034608" lon="7.125548">
        <ele>266.0</ele>
        <time>2020-07-10T10:13:00Z</time>
      </trkpt>
      <trkpt lat="49.034547" lon="7.125595">
        <ele>266.0</ele>
        <time>2020-07-10T10:13:02Z</time>
      </trkpt>
      <trkpt lat="49.034495" lon="7.125653">
        <ele>267.0</ele>
        <time>2020-07-10T10:13:04Z</time>
      </trkpt>
      <trkpt lat="49.034452" lon="7.125717">
        <ele>267.0</ele>
        <time>2020-07-10T10:13:06Z</time>
      </trkpt>
      <trkpt lat="49.034415" lon="7.125803">
        <ele>268.0</ele>
        <time>2020-07-10T10:13:08Z</time>
      </trkpt>
      <trkpt lat="49.034384" lon="7.125894">
        <ele>268.0</ele>
        <time>2020-07-10T10:13:10Z</time>
      </trkpt>
      <trkpt lat="49.034364" lon="7.125998">
        <ele>267.0</ele>
        <time>2020-07-10T10:13:12Z</time>
      </trkpt>
      <trkpt lat="49.034354" lon="7.126117">
        <ele>266.0</ele>
        <time>2020-07-10T10:13:14Z</time>
      </trkpt>
      <trkpt lat="49.034336" lon="7.126232">
        <ele>266.0</ele>
        <time>2020-07-10T10:13:16Z</time>
      </trkpt>
      <trkpt lat="49.034311" lon="7.126347">
        <ele>266.0</ele>
        <time>2020-07-10T10:13:18Z</time>
      </trkpt>
      <trkpt lat="49.034288" lon="7.126471">
        <ele>266.0</ele>
        <time>2020-07-10T10:13:20Z</time>
      </trkpt>
      <trkpt lat="49.034257" lon="7.126595">
        <ele>267.0</ele>
        <time>2020-07-10T10:13:22Z</time>
      </trkpt>
      <trkpt lat="49.03423" lon="7.126719">
        <ele>267.0</ele>
        <time>2020-07-10T10:13:24Z</time>
      </trkpt>
      <trkpt lat="49.034198" lon="7.126852">
        <ele>268.0</ele>
        <time>2020-07-10T10:13:26Z</time>
      </trkpt>
      <trkpt lat="49.03417" lon="7.126988">
        <ele>268.0</ele>
        <time>2020-07-10T10:13:28Z</time>
      </trkpt>
      <trkpt lat="49.034142" lon="7.127119">
        <ele>268.0</ele>
        <time>2020-07-10T10:13:30Z</time>
      </trkpt>
      <trkpt lat="49.03412" lon="7.127248">
        <ele>269.0</ele>
        <time>2020-07-10T10:13:32Z</time>
      </trkpt>
      <trkpt lat="49.034096" lon="7.127367">
        <ele>269.0</ele>
        <time>2020-07-10T10:13:34Z</time>
      </trkpt>
      <trkpt lat="49.034072" lon="7.127474">
        <ele>270.0</ele>
        <time>2020-07-10T10:13:36Z</time>
      </trkpt>
      <trkpt lat="49.034049" lon="7.127583">
        <ele>270.0</ele>
        <time>2020-07-10T10:13:38Z</time>
      </trkpt>
      <trkpt lat="49.034019" lon="7.127698">
        <ele>270.0</ele>
        <time>2020-07-10T10:13:40Z</time>
      </trkpt>
      <trkpt lat="49.033992" lon="7.127814">
        <ele>271.0</ele>
        <time>2020-07-10T10:13:42Z</time>
      </trkpt>
      <trkpt lat="49.03397" lon="7.127925">
        <ele>271.0</ele>
        <time>2020-07-10T10:13:44Z</time>
      </trkpt>
      <trkpt lat="49.033951" lon="7.128031">
        <ele>271.0</ele>
        <time>2020-07-10T10:13:46Z</time>
      </trkpt>
      <trkpt lat="49.033931" lon="7.128139">
        <ele>271.0</ele>
        <time>2020-07-10T10:13:48Z</time>
      </trkpt>
      <trkpt lat="49.033907" lon="7.128234">
        <ele>271.0</ele>
        <time>2020-07-10T10:13:50Z</time>
      </trkpt>
      <trkpt lat="49.033853" lon="7.128281">
        <ele>271.0</ele>
        <time>2020-07-10T10:13:52Z</time>
      </trkpt>
      <trkpt lat="49.033793" lon="7.128248">
        <ele>271.0</ele>
        <time>2020-07-10T10:13:54Z</time>
      </trkpt>
      <trkpt lat="49.033735" lon="7.128195">
        <ele>272.0</ele>
        <time>2020-07-10T10:13:56Z</time>
      </trkpt>
      <trkpt lat="49.033682" lon="7.128141">
        <ele>272.0</ele>
        <time>2020-07-10T10:13:58Z</time>
      </trkpt>
      <trkpt lat="49.033624" lon="7.128087">
        <ele>272.0</ele>
        <time>2020-07-10T10:14:00Z</time>
      </trkpt>
      <trkpt lat="49.033565" lon="7.128029">
        <ele>272.0</ele>
        <time>2020-07-10T10:14:02Z</time>
      </trkpt>
      <trkpt lat="49.033508" lon="7.127971">
        <ele>273.0</ele>
        <time>2020-07-10T10:14:04Z</time>
      </trkpt>
      <trkpt lat="49.033451" lon="7.127919">
        <ele>273.0</ele>
        <time>2020-07-10T10:14:06Z</time>
      </trkpt>
      <trkpt lat="49.033396" lon="7.127859">
        <ele>274.0</ele>
        <time>2020-07-10T10:14:08Z</time>
      </trkpt>
      <trkpt lat="49.033343" lon="7.1278">
        <ele>274.0</ele>
        <time>2020-07-10T10:14:10Z</time>
      </trkpt>
      <trkpt lat="49.033288" lon="7.127743">
        <ele>274.0</ele>
        <time>2020-07-10T10:14:12Z</time>
      </trkpt>
      <trkpt lat="49.033236" lon="7.127686">
        <ele>274.0</ele>
        <time>2020-07-10T10:14:14Z</time>
      </trkpt>
      <trkpt lat="49.033183" lon="7.127636">
        <ele>275.0</ele>
        <time>2020-07-10T10:14:16Z</time>
      </trkpt>
      <trkpt lat="49.033126" lon="7.12758">
        <ele>275.0</ele>
        <time>2020-07-10T10:14:18Z</time>
      </trkpt>
      <trkpt lat="49.033076" lon="7.127523">
        <ele>275.0</ele>
        <time>2020-07-10T10:14:20Z</time>
      </trkpt>
      <trkpt lat="49.033027" lon="7.127466">
        <ele>275.0</ele>
        <time>2020-07-10T10:14:22Z</time>
      </trkpt>
      <trkpt lat="49.03298" lon="7.127404">
        <ele>276.0</ele>
        <time>2020-07-10T10:14:24Z</time>
      </trkpt>
      <trkpt lat="49.032935" lon="7.12735">
        <ele>276.0</ele>
        <time>2020-07-10T10:14:26Z</time>
      </trkpt>
      <trkpt lat="49.03289" lon="7.127292">
        <ele>276.0</ele>
        <time>2020-07-10T10:14:28Z</time>
      </trkpt>
      <trkpt lat="49.032846" lon="7.127245">
        <ele>276.0</ele>
        <time>2020-07-10T10:14:30Z</time>
      </trkpt>
      <trkpt lat="49.032804" lon="7.127184">
        <ele>276.0</ele>
        <time>2020-07-10T10:14:32Z</time>
      </trkpt>
      <trkpt lat="49.032765" lon="7.127129">
        <ele>276.0</ele>
        <time>2020-07-10T10:14:34Z</time>
      </trkpt>
      <trkpt lat="49.032728" lon="7.127076">
        <ele>277.0</ele>
        <time>2020-07-10T10:14:36Z</time>
      </trkpt>
      <trkpt lat="49.032687" lon="7.127013">
        <ele>277.0</ele>
        <time>2020-07-10T10:14:38Z</time>
      </trkpt>
      <trkpt lat="49.03264" lon="7.126964">
        <ele>277.0</ele>
        <time>2020-07-10T10:14:40Z</time>
      </trkpt>
      <trkpt lat="49.032594" lon="7.126915">
        <ele>277.0</ele>
        <time>2020-07-10T10:14:42Z</time>
      </trkpt>
      <trkpt lat="49.032544" lon="7.126861">
        <ele>277.0</ele>
        <time>2020-07-10T10:14:44Z</time>
      </trkpt>
      <trkpt lat="49.032494" lon="7.126805">
        <ele>278.0</ele>
        <time>2020-07-10T10:14:46Z</time>
      </trkpt>
      <trkpt lat="49.03245" lon="7.126746">
        <ele>278.0</ele>
        <time>2020-07-10T10:14:48Z</time>
      </trkpt>
      <trkpt lat="49.032403" lon="7.126688">
        <ele>278.0</ele>
        <time>2020-07-10T10:14:50Z</time>
      </trkpt>
      <trkpt lat="49.032352" lon="7.126622">
        <ele>278.0</ele>
        <time>2020-07-10T10:14:52Z</time>
      </trkpt>
      <trkpt lat="49.032301" lon="7.126564">
        <ele>278.0</ele>
        <time>2020-07-10T10:14:54Z</time>
      </trkpt>
      <trkpt lat="49.03225" lon="7.126508">
        <ele>279.0</ele>
        <time>2020-07-10T10:14:56Z</time>
      </trkpt>
      <trkpt lat="49.032202" lon="7.126447">
        <ele>279.0</ele>
        <time>2020-07-10T10:14:58Z</time>
      </trkpt>
      <trkpt lat="49.032155" lon="7.126386">
        <ele>279.0</ele>
        <time>2020-07-10T10:15:00Z</time>
      </trkpt>
      <trkpt lat="49.0321" lon="7.126319">
        <ele>279.0</ele>
        <time>2020-07-10T10:15:02Z</time>
      </trkpt>
      <trkpt lat="49.032047" lon="7.126256">
        <ele>279.0</ele>
        <time>2020-07-10T10:15:04Z</time>
      </trkpt>
      <trkpt lat="49.031993" lon="7.126195">
        <ele>279.0</ele>
        <time>2020-07-10T10:15:06Z</time>
      </trkpt>
      <trkpt lat="49.031943" lon="7.126128">
        <ele>279.0</ele>
        <time>2020-07-10T10:15:08Z</time>
      </trkpt>
      <trkpt lat="49.031886" lon="7.12606">
        <ele>279.0</ele>
        <time>2020-07-10T10:15:10Z</time>
      </trkpt>
      <trkpt lat="49.031826" lon="7.125995">
        <ele>280.0</ele>
        <time>2020-07-10T10:15:12Z</time>
      </trkpt>
      <trkpt lat="49.03176" lon="7.125921">
        <ele>280.0</ele>
        <time>2020-07-10T10:15:14Z</time>
      </trkpt>
      <trkpt lat="49.031695" lon="7.125844">
        <ele>279.0</ele>
        <time>2020-07-10T10:15:16Z</time>
      </trkpt>
      <trkpt lat="49.031634" lon="7.125764">
        <ele>280.0</ele>
        <time>2020-07-10T10:15:18Z</time>
      </trkpt>
      <trkpt lat="49.031574" lon="7.125685">
        <ele>280.0</ele>
        <time>2020-07-10T10:15:20Z</time>
      </trkpt>
      <trkpt lat="49.031513" lon="7.125615">
        <ele>279.0</ele>
        <time>2020-07-10T10:15:22Z</time>
      </trkpt>
      <trkpt lat="49.031455" lon="7.125534">
        <ele>279.0</ele>
        <time>2020-07-10T10:15:24Z</time>
      </trkpt>
      <trkpt lat="49.031387" lon="7.125458">
        <ele>278.0</ele>
        <time>2020-07-10T10:15:26Z</time>
      </trkpt>
      <trkpt lat="49.031306" lon="7.125373">
        <ele>277.0</ele>
        <time>2020-07-10T10:15:28Z</time>
      </trkpt>
      <trkpt lat="49.031223" lon="7.125281">
        <ele>277.0</ele>
        <time>2020-07-10T10:15:30Z</time>
      </trkpt>
      <trkpt lat="49.031063" lon="7.125163">
        <ele>277.0</ele>
        <time>2020-07-10T10:15:33Z</time>
      </trkpt>
      <trkpt lat="49.030937" lon="7.125167">
        <ele>277.0</ele>
        <time>2020-07-10T10:15:35Z</time>
      </trkpt>
      <trkpt lat="49.030872" lon="7.125183">
        <ele>277.0</ele>
        <time>2020-07-10T10:15:36Z</time>
      </trkpt>
      <trkpt lat="49.030677" lon="7.125243">
        <ele>277.0</ele>
        <time>2020-07-10T10:15:39Z</time>
      </trkpt>
      <trkpt lat="49.030538" lon="7.125254">
        <ele>276.0</ele>
        <time>2020-07-10T10:15:41Z</time>
      </trkpt>
      <trkpt lat="49.030402" lon="7.125275">
        <ele>276.0</ele>
        <time>2020-07-10T10:15:43Z</time>
      </trkpt>
      <trkpt lat="49.030264" lon="7.125306">
        <ele>275.0</ele>
        <time>2020-07-10T10:15:45Z</time>
      </trkpt>
      <trkpt lat="49.030112" lon="7.125343">
        <ele>274.0</ele>
        <time>2020-07-10T10:15:47Z</time>
      </trkpt>
      <trkpt lat="49.029964" lon="7.125354">
        <ele>274.0</ele>
        <time>2020-07-10T10:15:49Z</time>
      </trkpt>
      <trkpt lat="49.029803" lon="7.125351">
        <ele>273.0</ele>
        <time>2020-07-10T10:15:51Z</time>
      </trkpt>
      <trkpt lat="49.029637" lon="7.125334">
        <ele>273.0</ele>
        <time>2020-07-10T10:15:53Z</time>
      </trkpt>
      <trkpt lat="49.029465" lon="7.12532">
        <ele>272.0</ele>
        <time>2020-07-10T10:15:55Z</time>
      </trkpt>
      <trkpt lat="49.029305" lon="7.125309">
        <ele>272.0</ele>
        <time>2020-07-10T10:15:57Z</time>
      </trkpt>
      <trkpt lat="49.02914" lon="7.125298">
        <ele>272.0</ele>
        <time>2020-07-10T10:15:59Z</time>
      </trkpt>
      <trkpt lat="49.028977" lon="7.125287">
        <ele>272.0</ele>
        <time>2020-07-10T10:16:01Z</time>
      </trkpt>
      <trkpt lat="49.028829" lon="7.125271">
        <ele>272.0</ele>
        <time>2020-07-10T10:16:03Z</time>
      </trkpt>
      <trkpt lat="49.028686" lon="7.125245">
        <ele>271.0</ele>
        <time>2020-07-10T10:16:05Z</time>
      </trkpt>
      <trkpt lat="49.028552" lon="7.125223">
        <ele>271.0</ele>
        <time>2020-07-10T10:16:07Z</time>
      </trkpt>
      <trkpt lat="49.028434" lon="7.125208">
        <ele>272.0</ele>
        <time>2020-07-10T10:16:09Z</time>
      </trkpt>
      <trkpt lat="49.028316" lon="7.125205">
        <ele>273.0</ele>
        <time>2020-07-10T10:16:11Z</time>
      </trkpt>
      <trkpt lat="49.02821" lon="7.125196">
        <ele>273.0</ele>
        <time>2020-07-10T10:16:13Z</time>
      </trkpt>
      <trkpt lat="49.028112" lon="7.125195">
        <ele>274.0</ele>
        <time>2020-07-10T10:16:15Z</time>
      </trkpt>
      <trkpt lat="49.028019" lon="7.125194">
        <ele>275.0</ele>
        <time>2020-07-10T10:16:17Z</time>
      </trkpt>
      <trkpt lat="49.027932" lon="7.125203">
        <ele>275.0</ele>
        <time>2020-07-10T10:16:19Z</time>
      </trkpt>
      <trkpt lat="49.027851" lon="7.125208">
        <ele>276.0</ele>
        <time>2020-07-10T10:16:21Z</time>
      </trkpt>
      <trkpt lat="49.027779" lon="7.125207">
        <ele>276.0</ele>
        <time>2020-07-10T10:16:23Z</time>
      </trkpt>
      <trkpt lat="49.027711" lon="7.125203">
        <ele>277.0</ele>
        <time>2020-07-10T10:16:25Z</time>
      </trkpt>
      <trkpt lat="49.027645" lon="7.125195">
        <ele>277.0</ele>
        <time>2020-07-10T10:16:27Z</time>
      </trkpt>
      <trkpt lat="49.027584" lon="7.125201">
        <ele>277.0</ele>
        <time>2020-07-10T10:16:29Z</time>
      </trkpt>
      <trkpt lat="49.027523" lon="7.125205">
        <ele>277.0</ele>
        <time>2020-07-10T10:16:31Z</time>
      </trkpt>
      <trkpt lat="49.027459" lon="7.125209">
        <ele>278.0</ele>
        <time>2020-07-10T10:16:33Z</time>
      </trkpt>
      <trkpt lat="49.027396" lon="7.125212">
        <ele>278.0</ele>
        <time>2020-07-10T10:16:35Z</time>
      </trkpt>
      <trkpt lat="49.027331" lon="7.125213">
        <ele>278.0</ele>
        <time>2020-07-10T10:16:37Z</time>
      </trkpt>
      <trkpt lat="49.027269" lon="7.125216">
        <ele>278.0</ele>
        <time>2020-07-10T10:16:39Z</time>
      </trkpt>
      <trkpt lat="49.027212" lon="7.125219">
        <ele>278.0</ele>
        <time>2020-07-10T10:16:41Z</time>
      </trkpt>
      <trkpt lat="49.027159" lon="7.125217">
        <ele>279.0</ele>
        <time>2020-07-10T10:16:43Z</time>
      </trkpt>
      <trkpt lat="49.027091" lon="7.12519">
        <ele>279.0</ele>
        <time>2020-07-10T10:16:45Z</time>
      </trkpt>
      <trkpt lat="49.027014" lon="7.125148">
        <ele>279.0</ele>
        <time>2020-07-10T10:16:47Z</time>
      </trkpt>
      <trkpt lat="49.026913" lon="7.125071">
        <ele>278.0</ele>
        <time>2020-07-10T10:16:49Z</time>
      </trkpt>
      <trkpt lat="49.026812" lon="7.124956">
        <ele>278.0</ele>
        <time>2020-07-10T10:16:51Z</time>
      </trkpt>
      <trkpt lat="49.026705" lon="7.124822">
        <ele>277.0</ele>
        <time>2020-07-10T10:16:53Z</time>
      </trkpt>
      <trkpt lat="49.026577" lon="7.12468">
        <ele>276.0</ele>
        <time>2020-07-10T10:16:55Z</time>
      </trkpt>
      <trkpt lat="49.026426" lon="7.124554">
        <ele>275.0</ele>
        <time>2020-07-10T10:16:57Z</time>
      </trkpt>
      <trkpt lat="49.026248" lon="7.12449">
        <ele>273.0</ele>
        <time>2020-07-10T10:16:59Z</time>
      </trkpt>
      <trkpt lat="49.026056" lon="7.124461">
        <ele>271.0</ele>
        <time>2020-07-10T10:17:01Z</time>
      </trkpt>
      <trkpt lat="49.025864" lon="7.124449">
        <ele>271.0</ele>
        <time>2020-07-10T10:17:03Z</time>
      </trkpt>
      <trkpt lat="49.025673" lon="7.124455">
        <ele>270.0</ele>
        <time>2020-07-10T10:17:05Z</time>
      </trkpt>
      <trkpt lat="49.025481" lon="7.124483">
        <ele>269.0</ele>
        <time>2020-07-10T10:17:07Z</time>
      </trkpt>
      <trkpt lat="49.025295" lon="7.124507">
        <ele>268.0</ele>
        <time>2020-07-10T10:17:09Z</time>
      </trkpt>
      <trkpt lat="49.025112" lon="7.124542">
        <ele>268.0</ele>
        <time>2020-07-10T10:17:11Z</time>
      </trkpt>
      <trkpt lat="49.024928" lon="7.124565">
        <ele>267.0</ele>
        <time>2020-07-10T10:17:13Z</time>
      </trkpt>
      <trkpt lat="49.024756" lon="7.124601">
        <ele>267.0</ele>
        <time>2020-07-10T10:17:15Z</time>
      </trkpt>
      <trkpt lat="49.024589" lon="7.124638">
        <ele>267.0</ele>
        <time>2020-07-10T10:17:17Z</time>
      </trkpt>
      <trkpt lat="49.024428" lon="7.1247">
        <ele>266.0</ele>
        <time>2020-07-10T10:17:19Z</time>
      </trkpt>
      <trkpt lat="49.024282" lon="7.12478">
        <ele>266.0</ele>
        <time>2020-07-10T10:17:21Z</time>
      </trkpt>
      <trkpt lat="49.024123" lon="7.124839">
        <ele>265.0</ele>
        <time>2020-07-10T10:17:23Z</time>
      </trkpt>
      <trkpt lat="49.023971" lon="7.124915">
        <ele>265.0</ele>
        <time>2020-07-10T10:17:25Z</time>
      </trkpt>
      <trkpt lat="49.023822" lon="7.125018">
        <ele>264.0</ele>
        <time>2020-07-10T10:17:27Z</time>
      </trkpt>
      <trkpt lat="49.02367" lon="7.12511">
        <ele>264.0</ele>
        <time>2020-07-10T10:17:29Z</time>
      </trkpt>
      <trkpt lat="49.023515" lon="7.125188">
        <ele>263.0</ele>
        <time>2020-07-10T10:17:31Z</time>
      </trkpt>
      <trkpt lat="49.023375" lon="7.12526">
        <ele>263.0</ele>
        <time>2020-07-10T10:17:33Z</time>
      </trkpt>
      <trkpt lat="49.023232" lon="7.125321">
        <ele>263.0</ele>
        <time>2020-07-10T10:17:35Z</time>
      </trkpt>
      <trkpt lat="49.023085" lon="7.125384">
        <ele>263.0</ele>
        <time>2020-07-10T10:17:37Z</time>
      </trkpt>
      <trkpt lat="49.022939" lon="7.125443">
        <ele>263.0</ele>
        <time>2020-07-10T10:17:39Z</time>
      </trkpt>
      <trkpt lat="49.0228" lon="7.12551">
        <ele>263.0</ele>
        <time>2020-07-10T10:17:41Z</time>
      </trkpt>
      <trkpt lat="49.022659" lon="7.125583">
        <ele>262.0</ele>
        <time>2020-07-10T10:17:43Z</time>
      </trkpt>
      <trkpt lat="49.022524" lon="7.125659">
        <ele>262.0</ele>
        <time>2020-07-10T10:17:45Z</time>
      </trkpt>
      <trkpt lat="49.022392" lon="7.125723">
        <ele>263.0</ele>
        <time>2020-07-10T10:17:47Z</time>
      </trkpt>
      <trkpt lat="49.022265" lon="7.125788">
        <ele>263.0</ele>
        <time>2020-07-10T10:17:49Z</time>
      </trkpt>
      <trkpt lat="49.022145" lon="7.12585">
        <ele>262.0</ele>
        <time>2020-07-10T10:17:51Z</time>
      </trkpt>
      <trkpt lat="49.022018" lon="7.125914">
        <ele>262.0</ele>
        <time>2020-07-10T10:17:53Z</time>
      </trkpt>
      <trkpt lat="49.021895" lon="7.125975">
        <ele>262.0</ele>
        <time>2020-07-10T10:17:55Z</time>
      </trkpt>
      <trkpt lat="49.021764" lon="7.126036">
        <ele>262.0</ele>
        <time>2020-07-10T10:17:57Z</time>
      </trkpt>
      <trkpt lat="49.021643" lon="7.126094">
        <ele>262.0</ele>
        <time>2020-07-10T10:17:59Z</time>
      </trkpt>
      <trkpt lat="49.021535" lon="7.126155">
        <ele>263.0</ele>
        <time>2020-07-10T10:18:01Z</time>
      </trkpt>
      <trkpt lat="49.021432" lon="7.126203">
        <ele>263.0</ele>
        <time>2020-07-10T10:18:03Z</time>
      </trkpt>
      <trkpt lat="49.021331" lon="7.126252">
        <ele>263.0</ele>
        <time>2020-07-10T10:18:05Z</time>
      </trkpt>
      <trkpt lat="49.021226" lon="7.126313">
        <ele>264.0</ele>
        <time>2020-07-10T10:18:07Z</time>
      </trkpt>
      <trkpt lat="49.021115" lon="7.126335">
        <ele>265.0</ele>
        <time>2020-07-10T10:18:09Z</time>
      </trkpt>
      <trkpt lat="49.021006" lon="7.126376">
        <ele>265.0</ele>
        <time>2020-07-10T10:18:11Z</time>
      </trkpt>
      <trkpt lat="49.020906" lon="7.126433">
        <ele>265.0</ele>
        <time>2020-07-10T10:18:13Z</time>
      </trkpt>
      <trkpt lat="49.020799" lon="7.126473">
        <ele>264.0</ele>
        <time>2020-07-10T10:18:15Z</time>
      </trkpt>
      <trkpt lat="49.020697" lon="7.126516">
        <ele>264.0</ele>
        <time>2020-07-10T10:18:17Z</time>
      </trkpt>
      <trkpt lat="49.020599" lon="7.126571">
        <ele>264.0</ele>
        <time>2020-07-10T10:18:19Z</time>
      </trkpt>
      <trkpt lat="49.020499" lon="7.126616">
        <ele>264.0</ele>
        <time>2020-07-10T10:18:21Z</time>
      </trkpt>
      <trkpt lat="49.020394" lon="7.126663">
        <ele>264.0</ele>
        <time>2020-07-10T10:18:23Z</time>
      </trkpt>
      <trkpt lat="49.020296" lon="7.126708">
        <ele>264.0</ele>
        <time>2020-07-10T10:18:25Z</time>
      </trkpt>
      <trkpt lat="49.020201" lon="7.126751">
        <ele>264.0</ele>
        <time>2020-07-10T10:18:27Z</time>
      </trkpt>
      <trkpt lat="49.020106" lon="7.126791">
        <ele>265.0</ele>
        <time>2020-07-10T10:18:29Z</time>
      </trkpt>
      <trkpt lat="49.020016" lon="7.126839">
        <ele>265.0</ele>
        <time>2020-07-10T10:18:31Z</time>
      </trkpt>
      <trkpt lat="49.01992" lon="7.126874">
        <ele>265.0</ele>
        <time>2020-07-10T10:18:33Z</time>
      </trkpt>
      <trkpt lat="49.019824" lon="7.126922">
        <ele>265.0</ele>
        <time>2020-07-10T10:18:35Z</time>
      </trkpt>
      <trkpt lat="49.019729" lon="7.12697">
        <ele>265.0</ele>
        <time>2020-07-10T10:18:37Z</time>
      </trkpt>
      <trkpt lat="49.01963" lon="7.127022">
        <ele>266.0</ele>
        <time>2020-07-10T10:18:39Z</time>
      </trkpt>
      <trkpt lat="49.019532" lon="7.127075">
        <ele>266.0</ele>
        <time>2020-07-10T10:18:41Z</time>
      </trkpt>
      <trkpt lat="49.019438" lon="7.12712">
        <ele>266.0</ele>
        <time>2020-07-10T10:18:43Z</time>
      </trkpt>
      <trkpt lat="49.019339" lon="7.127163">
        <ele>266.0</ele>
        <time>2020-07-10T10:18:45Z</time>
      </trkpt>
      <trkpt lat="49.019238" lon="7.127204">
        <ele>265.0</ele>
        <time>2020-07-10T10:18:47Z</time>
      </trkpt>
      <trkpt lat="49.019142" lon="7.127254">
        <ele>265.0</ele>
        <time>2020-07-10T10:18:49Z</time>
      </trkpt>
      <trkpt lat="49.019046" lon="7.127301">
        <ele>266.0</ele>
        <time>2020-07-10T10:18:51Z</time>
      </trkpt>
      <trkpt lat="49.01895" lon="7.127349">
        <ele>266.0</ele>
        <time>2020-07-10T10:18:53Z</time>
      </trkpt>
      <trkpt lat="49.018854" lon="7.127393">
        <ele>266.0</ele>
        <time>2020-07-10T10:18:55Z</time>
      </trkpt>
      <trkpt lat="49.01876" lon="7.127431">
        <ele>266.0</ele>
        <time>2020-07-10T10:18:57Z</time>
      </trkpt>
      <trkpt lat="49.018665" lon="7.12747">
        <ele>266.0</ele>
        <time>2020-07-10T10:18:59Z</time>
      </trkpt>
      <trkpt lat="49.018528" lon="7.127536">
        <ele>267.0</ele>
        <time>2020-07-10T10:19:02Z</time>
      </trkpt>
      <trkpt lat="49.018441" lon="7.127581">
        <ele>267.0</ele>
        <time>2020-07-10T10:19:04Z</time>
      </trkpt>
      <trkpt lat="49.018356" lon="7.127632">
        <ele>267.0</ele>
        <time>2020-07-10T10:19:06Z</time>
      </trkpt>
      <trkpt lat="49.018269" lon="7.127673">
        <ele>267.0</ele>
        <time>2020-07-10T10:19:08Z</time>
      </trkpt>
      <trkpt lat="49.018186" lon="7.127706">
        <ele>267.0</ele>
        <time>2020-07-10T10:19:10Z</time>
      </trkpt>
      <trkpt lat="49.018104" lon="7.127748">
        <ele>267.0</ele>
        <time>2020-07-10T10:19:12Z</time>
      </trkpt>
      <trkpt lat="49.018027" lon="7.127785">
        <ele>268.0</ele>
        <time>2020-07-10T10:19:14Z</time>
      </trkpt>
      <trkpt lat="49.017952" lon="7.127812">
        <ele>268.0</ele>
        <time>2020-07-10T10:19:16Z</time>
      </trkpt>
      <trkpt lat="49.017872" lon="7.127845">
        <ele>268.0</ele>
        <time>2020-07-10T10:19:18Z</time>
      </trkpt>
      <trkpt lat="49.017791" lon="7.127879">
        <ele>267.0</ele>
        <time>2020-07-10T10:19:20Z</time>
      </trkpt>
      <trkpt lat="49.017716" lon="7.127923">
        <ele>267.0</ele>
        <time>2020-07-10T10:19:22Z</time>
      </trkpt>
      <trkpt lat="49.017643" lon="7.127967">
        <ele>268.0</ele>
        <time>2020-07-10T10:19:24Z</time>
      </trkpt>
      <trkpt lat="49.017566" lon="7.128">
        <ele>269.0</ele>
        <time>2020-07-10T10:19:26Z</time>
      </trkpt>
      <trkpt lat="49.017485" lon="7.128054">
        <ele>269.0</ele>
        <time>2020-07-10T10:19:28Z</time>
      </trkpt>
      <trkpt lat="49.017406" lon="7.128096">
        <ele>270.0</ele>
        <time>2020-07-10T10:19:30Z</time>
      </trkpt>
      <trkpt lat="49.017329" lon="7.128128">
        <ele>269.0</ele>
        <time>2020-07-10T10:19:32Z</time>
      </trkpt>
      <trkpt lat="49.017258" lon="7.128152">
        <ele>270.0</ele>
        <time>2020-07-10T10:19:34Z</time>
      </trkpt>
      <trkpt lat="49.017185" lon="7.128189">
        <ele>270.0</ele>
        <time>2020-07-10T10:19:36Z</time>
      </trkpt>
      <trkpt lat="49.017112" lon="7.128213">
        <ele>271.0</ele>
        <time>2020-07-10T10:19:38Z</time>
      </trkpt>
      <trkpt lat="49.017037" lon="7.12825">
        <ele>271.0</ele>
        <time>2020-07-10T10:19:40Z</time>
      </trkpt>
      <trkpt lat="49.016953" lon="7.12827">
        <ele>270.0</ele>
        <time>2020-07-10T10:19:42Z</time>
      </trkpt>
      <trkpt lat="49.016871" lon="7.128295">
        <ele>270.0</ele>
        <time>2020-07-10T10:19:44Z</time>
      </trkpt>
      <trkpt lat="49.016781" lon="7.12833">
        <ele>270.0</ele>
        <time>2020-07-10T10:19:46Z</time>
      </trkpt>
      <trkpt lat="49.016683" lon="7.128358">
        <ele>270.0</ele>
        <time>2020-07-10T10:19:48Z</time>
      </trkpt>
      <trkpt lat="49.016573" lon="7.12838">
        <ele>269.0</ele>
        <time>2020-07-10T10:19:50Z</time>
      </trkpt>
      <trkpt lat="49.016461" lon="7.128404">
        <ele>268.0</ele>
        <time>2020-07-10T10:19:52Z</time>
      </trkpt>
      <trkpt lat="49.01634" lon="7.12843">
        <ele>268.0</ele>
        <time>2020-07-10T10:19:54Z</time>
      </trkpt>
      <trkpt lat="49.016213" lon="7.128461">
        <ele>268.0</ele>
        <time>2020-07-10T10:19:56Z</time>
      </trkpt>
      <trkpt lat="49.016086" lon="7.128495">
        <ele>268.0</ele>
        <time>2020-07-10T10:19:58Z</time>
      </trkpt>
      <trkpt lat="49.015968" lon="7.128542">
        <ele>268.0</ele>
        <time>2020-07-10T10:20:00Z</time>
      </trkpt>
      <trkpt lat="49.015867" lon="7.12859">
        <ele>269.0</ele>
        <time>2020-07-10T10:20:02Z</time>
      </trkpt>
      <trkpt lat="49.015783" lon="7.128632">
        <ele>269.0</ele>
        <time>2020-07-10T10:20:04Z</time>
      </trkpt>
      <trkpt lat="49.015715" lon="7.128655">
        <ele>270.0</ele>
        <time>2020-07-10T10:20:06Z</time>
      </trkpt>
      <trkpt lat="49.015648" lon="7.128678">
        <ele>270.0</ele>
        <time>2020-07-10T10:20:08Z</time>
      </trkpt>
      <trkpt lat="49.015579" lon="7.128704">
        <ele>270.0</ele>
        <time>2020-07-10T10:20:10Z</time>
      </trkpt>
      <trkpt lat="49.01551" lon="7.128733">
        <ele>270.0</ele>
        <time>2020-07-10T10:20:12Z</time>
      </trkpt>
      <trkpt lat="49.015434" lon="7.128761">
        <ele>270.0</ele>
        <time>2020-07-10T10:20:14Z</time>
      </trkpt>
      <trkpt lat="49.015354" lon="7.128768">
        <ele>270.0</ele>
        <time>2020-07-10T10:20:16Z</time>
      </trkpt>
      <trkpt lat="49.01527" lon="7.12878">
        <ele>270.0</ele>
        <time>2020-07-10T10:20:18Z</time>
      </trkpt>
      <trkpt lat="49.015184" lon="7.128809">
        <ele>270.0</ele>
        <time>2020-07-10T10:20:20Z</time>
      </trkpt>
      <trkpt lat="49.015084" lon="7.128823">
        <ele>271.0</ele>
        <time>2020-07-10T10:20:22Z</time>
      </trkpt>
      <trkpt lat="49.014977" lon="7.128845">
        <ele>271.0</ele>
        <time>2020-07-10T10:20:24Z</time>
      </trkpt>
      <trkpt lat="49.014863" lon="7.128864">
        <ele>271.0</ele>
        <time>2020-07-10T10:20:26Z</time>
      </trkpt>
      <trkpt lat="49.014754" lon="7.128876">
        <ele>271.0</ele>
        <time>2020-07-10T10:20:28Z</time>
      </trkpt>
      <trkpt lat="49.014645" lon="7.128886">
        <ele>271.0</ele>
        <time>2020-07-10T10:20:30Z</time>
      </trkpt>
      <trkpt lat="49.014538" lon="7.128901">
        <ele>270.0</ele>
        <time>2020-07-10T10:20:32Z</time>
      </trkpt>
      <trkpt lat="49.014426" lon="7.128908">
        <ele>270.0</ele>
        <time>2020-07-10T10:20:34Z</time>
      </trkpt>
      <trkpt lat="49.014312" lon="7.128916">
        <ele>270.0</ele>
        <time>2020-07-10T10:20:36Z</time>
      </trkpt>
      <trkpt lat="49.014201" lon="7.128925">
        <ele>270.0</ele>
        <time>2020-07-10T10:20:38Z</time>
      </trkpt>
      <trkpt lat="49.01408" lon="7.128937">
        <ele>270.0</ele>
        <time>2020-07-10T10:20:40Z</time>
      </trkpt>
      <trkpt lat="49.013957" lon="7.128938">
        <ele>270.0</ele>
        <time>2020-07-10T10:20:42Z</time>
      </trkpt>
      <trkpt lat="49.013826" lon="7.128937">
        <ele>270.0</ele>
        <time>2020-07-10T10:20:44Z</time>
      </trkpt>
      <trkpt lat="49.013686" lon="7.12893">
        <ele>270.0</ele>
        <time>2020-07-10T10:20:46Z</time>
      </trkpt>
      <trkpt lat="49.013537" lon="7.128923">
        <ele>268.0</ele>
        <time>2020-07-10T10:20:48Z</time>
      </trkpt>
      <trkpt lat="49.013375" lon="7.128921">
        <ele>267.0</ele>
        <time>2020-07-10T10:20:50Z</time>
      </trkpt>
      <trkpt lat="49.01322" lon="7.128928">
        <ele>267.0</ele>
        <time>2020-07-10T10:20:52Z</time>
      </trkpt>
      <trkpt lat="49.013085" lon="7.128933">
        <ele>268.0</ele>
        <time>2020-07-10T10:20:54Z</time>
      </trkpt>
      <trkpt lat="49.012958" lon="7.128952">
        <ele>268.0</ele>
        <time>2020-07-10T10:20:56Z</time>
      </trkpt>
      <trkpt lat="49.012843" lon="7.12895">
        <ele>269.0</ele>
        <time>2020-07-10T10:20:58Z</time>
      </trkpt>
      <trkpt lat="49.012729" lon="7.128945">
        <ele>270.0</ele>
        <time>2020-07-10T10:21:00Z</time>
      </trkpt>
      <trkpt lat="49.012626" lon="7.128937">
        <ele>270.0</ele>
        <time>2020-07-10T10:21:02Z</time>
      </trkpt>
      <trkpt lat="49.012523" lon="7.128935">
        <ele>270.0</ele>
        <time>2020-07-10T10:21:04Z</time>
      </trkpt>
      <trkpt lat="49.012417" lon="7.128948">
        <ele>269.0</ele>
        <time>2020-07-10T10:21:06Z</time>
      </trkpt>
      <trkpt lat="49.012309" lon="7.128957">
        <ele>269.0</ele>
        <time>2020-07-10T10:21:08Z</time>
      </trkpt>
      <trkpt lat="49.012197" lon="7.128965">
        <ele>269.0</ele>
        <time>2020-07-10T10:21:10Z</time>
      </trkpt>
      <trkpt lat="49.012075" lon="7.128983">
        <ele>269.0</ele>
        <time>2020-07-10T10:21:12Z</time>
      </trkpt>
      <trkpt lat="49.011927" lon="7.128998">
        <ele>268.0</ele>
        <time>2020-07-10T10:21:14Z</time>
      </trkpt>
      <trkpt lat="49.011773" lon="7.129004">
        <ele>268.0</ele>
        <time>2020-07-10T10:21:16Z</time>
      </trkpt>
      <trkpt lat="49.011624" lon="7.128995">
        <ele>267.0</ele>
        <time>2020-07-10T10:21:18Z</time>
      </trkpt>
      <trkpt lat="49.011474" lon="7.128996">
        <ele>268.0</ele>
        <time>2020-07-10T10:21:20Z</time>
      </trkpt>
      <trkpt lat="49.011331" lon="7.128987">
        <ele>267.0</ele>
        <time>2020-07-10T10:21:22Z</time>
      </trkpt>
      <trkpt lat="49.011206" lon="7.128969">
        <ele>268.0</ele>
        <time>2020-07-10T10:21:24Z</time>
      </trkpt>
      <trkpt lat="49.011084" lon="7.128942">
        <ele>268.0</ele>
        <time>2020-07-10T10:21:26Z</time>
      </trkpt>
      <trkpt lat="49.010973" lon="7.128906">
        <ele>268.0</ele>
        <time>2020-07-10T10:21:28Z</time>
      </trkpt>
      <trkpt lat="49.010876" lon="7.128891">
        <ele>269.0</ele>
        <time>2020-07-10T10:21:30Z</time>
      </trkpt>
      <trkpt lat="49.010793" lon="7.12888">
        <ele>270.0</ele>
        <time>2020-07-10T10:21:32Z</time>
      </trkpt>
      <trkpt lat="49.010715" lon="7.128878">
        <ele>270.0</ele>
        <time>2020-07-10T10:21:34Z</time>
      </trkpt>
      <trkpt lat="49.010647" lon="7.128878">
        <ele>270.0</ele>
        <time>2020-07-10T10:21:36Z</time>
      </trkpt>
      <trkpt lat="49.01058" lon="7.128884">
        <ele>271.0</ele>
        <time>2020-07-10T10:21:38Z</time>
      </trkpt>
      <trkpt lat="49.010514" lon="7.128889">
        <ele>271.0</ele>
        <time>2020-07-10T10:21:40Z</time>
      </trkpt>
      <trkpt lat="49.010448" lon="7.128889">
        <ele>271.0</ele>
        <time>2020-07-10T10:21:42Z</time>
      </trkpt>
      <trkpt lat="49.010383" lon="7.12889">
        <ele>271.0</ele>
        <time>2020-07-10T10:21:44Z</time>
      </trkpt>
      <trkpt lat="49.010319" lon="7.128886">
        <ele>271.0</ele>
        <time>2020-07-10T10:21:46Z</time>
      </trkpt>
      <trkpt lat="49.010253" lon="7.128879">
        <ele>271.0</ele>
        <time>2020-07-10T10:21:48Z</time>
      </trkpt>
      <trkpt lat="49.010191" lon="7.128889">
        <ele>271.0</ele>
        <time>2020-07-10T10:21:50Z</time>
      </trkpt>
      <trkpt lat="49.010128" lon="7.128894">
        <ele>272.0</ele>
        <time>2020-07-10T10:21:52Z</time>
      </trkpt>
      <trkpt lat="49.010068" lon="7.128896">
        <ele>272.0</ele>
        <time>2020-07-10T10:21:54Z</time>
      </trkpt>
      <trkpt lat="49.009999" lon="7.128896">
        <ele>272.0</ele>
        <time>2020-07-10T10:21:56Z</time>
      </trkpt>
      <trkpt lat="49.009931" lon="7.128892">
        <ele>272.0</ele>
        <time>2020-07-10T10:21:58Z</time>
      </trkpt>
      <trkpt lat="49.009864" lon="7.128895">
        <ele>272.0</ele>
        <time>2020-07-10T10:22:00Z</time>
      </trkpt>
      <trkpt lat="49.009795" lon="7.128892">
        <ele>272.0</ele>
        <time>2020-07-10T10:22:02Z</time>
      </trkpt>
      <trkpt lat="49.009724" lon="7.128897">
        <ele>272.0</ele>
        <time>2020-07-10T10:22:04Z</time>
      </trkpt>
      <trkpt lat="49.009654" lon="7.12889">
        <ele>272.0</ele>
        <time>2020-07-10T10:22:06Z</time>
      </trkpt>
      <trkpt lat="49.009575" lon="7.128878">
        <ele>272.0</ele>
        <time>2020-07-10T10:22:08Z</time>
      </trkpt>
      <trkpt lat="49.009496" lon="7.128878">
        <ele>272.0</ele>
        <time>2020-07-10T10:22:10Z</time>
      </trkpt>
      <trkpt lat="49.00942" lon="7.128879">
        <ele>271.0</ele>
        <time>2020-07-10T10:22:12Z</time>
      </trkpt>
      <trkpt lat="49.009334" lon="7.128872">
        <ele>271.0</ele>
        <time>2020-07-10T10:22:14Z</time>
      </trkpt>
      <trkpt lat="49.009245" lon="7.128868">
        <ele>272.0</ele>
        <time>2020-07-10T10:22:16Z</time>
      </trkpt>
      <trkpt lat="49.009158" lon="7.128866">
        <ele>273.0</ele>
        <time>2020-07-10T10:22:18Z</time>
      </trkpt>
      <trkpt lat="49.009069" lon="7.128857">
        <ele>273.0</ele>
        <time>2020-07-10T10:22:20Z</time>
      </trkpt>
      <trkpt lat="49.008983" lon="7.128855">
        <ele>273.0</ele>
        <time>2020-07-10T10:22:22Z</time>
      </trkpt>
      <trkpt lat="49.008892" lon="7.128851">
        <ele>273.0</ele>
        <time>2020-07-10T10:22:24Z</time>
      </trkpt>
      <trkpt lat="49.008752" lon="7.12884">
        <ele>273.0</ele>
        <time>2020-07-10T10:22:27Z</time>
      </trkpt>
      <trkpt lat="49.008657" lon="7.128824">
        <ele>273.0</ele>
        <time>2020-07-10T10:22:29Z</time>
      </trkpt>
      <trkpt lat="49.008553" lon="7.128824">
        <ele>273.0</ele>
        <time>2020-07-10T10:22:31Z</time>
      </trkpt>
      <trkpt lat="49.008451" lon="7.128822">
        <ele>273.0</ele>
        <time>2020-07-10T10:22:33Z</time>
      </trkpt>
      <trkpt lat="49.008345" lon="7.128828">
        <ele>273.0</ele>
        <time>2020-07-10T10:22:35Z</time>
      </trkpt>
      <trkpt lat="49.008233" lon="7.128849">
        <ele>273.0</ele>
        <time>2020-07-10T10:22:37Z</time>
      </trkpt>
      <trkpt lat="49.008114" lon="7.12888">
        <ele>272.0</ele>
        <time>2020-07-10T10:22:39Z</time>
      </trkpt>
      <trkpt lat="49.008005" lon="7.128919">
        <ele>272.0</ele>
        <time>2020-07-10T10:22:41Z</time>
      </trkpt>
      <trkpt lat="49.007909" lon="7.12896">
        <ele>271.0</ele>
        <time>2020-07-10T10:22:43Z</time>
      </trkpt>
      <trkpt lat="49.007821" lon="7.128977">
        <ele>271.0</ele>
        <time>2020-07-10T10:22:45Z</time>
      </trkpt>
      <trkpt lat="49.007755" lon="7.128913">
        <ele>271.0</ele>
        <time>2020-07-10T10:22:47Z</time>
      </trkpt>
      <trkpt lat="49.007722" lon="7.128781">
        <ele>270.0</ele>
        <time>2020-07-10T10:22:49Z</time>
      </trkpt>
      <trkpt lat="49.007717" lon="7.128675">
        <ele>270.0</ele>
        <time>2020-07-10T10:22:51Z</time>
      </trkpt>
      <trkpt lat="49.0077" lon="7.128574">
        <ele>270.0</ele>
        <time>2020-07-10T10:22:53Z</time>
      </trkpt>
      <trkpt lat="49.007656" lon="7.128473">
        <ele>270.0</ele>
        <time>2020-07-10T10:22:55Z</time>
      </trkpt>
      <trkpt lat="49.007578" lon="7.128425">
        <ele>271.0</ele>
        <time>2020-07-10T10:22:57Z</time>
      </trkpt>
      <trkpt lat="49.00749" lon="7.128431">
        <ele>271.0</ele>
        <time>2020-07-10T10:22:59Z</time>
      </trkpt>
      <trkpt lat="49.007397" lon="7.128494">
        <ele>271.0</ele>
        <time>2020-07-10T10:23:01Z</time>
      </trkpt>
      <trkpt lat="49.0073" lon="7.128554">
        <ele>270.0</ele>
        <time>2020-07-10T10:23:03Z</time>
      </trkpt>
      <trkpt lat="49.007199" lon="7.128633">
        <ele>270.0</ele>
        <time>2020-07-10T10:23:05Z</time>
      </trkpt>
      <trkpt lat="49.007099" lon="7.12871">
        <ele>270.0</ele>
        <time>2020-07-10T10:23:07Z</time>
      </trkpt>
      <trkpt lat="49.007014" lon="7.128797">
        <ele>270.0</ele>
        <time>2020-07-10T10:23:09Z</time>
      </trkpt>
      <trkpt lat="49.006943" lon="7.128873">
        <ele>271.0</ele>
        <time>2020-07-10T10:23:11Z</time>
      </trkpt>
      <trkpt lat="49.006865" lon="7.128948">
        <ele>271.0</ele>
        <time>2020-07-10T10:23:13Z</time>
      </trkpt>
      <trkpt lat="49.006793" lon="7.129002">
        <ele>272.0</ele>
        <time>2020-07-10T10:23:15Z</time>
      </trkpt>
      <trkpt lat="49.006725" lon="7.129049">
        <ele>272.0</ele>
        <time>2020-07-10T10:23:17Z</time>
      </trkpt>
      <trkpt lat="49.006653" lon="7.129093">
        <ele>272.0</ele>
        <time>2020-07-10T10:23:19Z</time>
      </trkpt>
      <trkpt lat="49.006581" lon="7.129148">
        <ele>272.0</ele>
        <time>2020-07-10T10:23:21Z</time>
      </trkpt>
      <trkpt lat="49.006501" lon="7.129198">
        <ele>272.0</ele>
        <time>2020-07-10T10:23:23Z</time>
      </trkpt>
      <trkpt lat="49.006418" lon="7.129261">
        <ele>272.0</ele>
        <time>2020-07-10T10:23:25Z</time>
      </trkpt>
      <trkpt lat="49.006337" lon="7.129334">
        <ele>272.0</ele>
        <time>2020-07-10T10:23:27Z</time>
      </trkpt>
      <trkpt lat="49.006255" lon="7.129419">
        <ele>272.0</ele>
        <time>2020-07-10T10:23:29Z</time>
      </trkpt>
      <trkpt lat="49.006172" lon="7.129505">
        <ele>272.0</ele>
        <time>2020-07-10T10:23:31Z</time>
      </trkpt>
      <trkpt lat="49.006079" lon="7.129584">
        <ele>271.0</ele>
        <time>2020-07-10T10:23:33Z</time>
      </trkpt>
      <trkpt lat="49.005981" lon="7.129667">
        <ele>270.0</ele>
        <time>2020-07-10T10:23:35Z</time>
      </trkpt>
      <trkpt lat="49.005873" lon="7.129748">
        <ele>270.0</ele>
        <time>2020-07-10T10:23:37Z</time>
      </trkpt>
      <trkpt lat="49.005768" lon="7.129838">
        <ele>269.0</ele>
        <time>2020-07-10T10:23:39Z</time>
      </trkpt>
      <trkpt lat="49.005669" lon="7.129924">
        <ele>269.0</ele>
        <time>2020-07-10T10:23:41Z</time>
      </trkpt>
      <trkpt lat="49.005561" lon="7.130003">
        <ele>269.0</ele>
        <time>2020-07-10T10:23:43Z</time>
      </trkpt>
      <trkpt lat="49.005455" lon="7.130092">
        <ele>269.0</ele>
        <time>2020-07-10T10:23:45Z</time>
      </trkpt>
      <trkpt lat="49.005343" lon="7.130165">
        <ele>268.0</ele>
        <time>2020-07-10T10:23:47Z</time>
      </trkpt>
      <trkpt lat="49.005224" lon="7.130245">
        <ele>268.0</ele>
        <time>2020-07-10T10:23:49Z</time>
      </trkpt>
      <trkpt lat="49.005103" lon="7.130343">
        <ele>267.0</ele>
        <time>2020-07-10T10:23:51Z</time>
      </trkpt>
      <trkpt lat="49.004981" lon="7.130444">
        <ele>267.0</ele>
        <time>2020-07-10T10:23:53Z</time>
      </trkpt>
      <trkpt lat="49.004874" lon="7.130529">
        <ele>266.0</ele>
        <time>2020-07-10T10:23:55Z</time>
      </trkpt>
      <trkpt lat="49.004773" lon="7.130606">
        <ele>266.0</ele>
        <time>2020-07-10T10:23:57Z</time>
      </trkpt>
      <trkpt lat="49.00467" lon="7.130679">
        <ele>266.0</ele>
        <time>2020-07-10T10:23:59Z</time>
      </trkpt>
      <trkpt lat="49.004568" lon="7.130754">
        <ele>266.0</ele>
        <time>2020-07-10T10:24:01Z</time>
      </trkpt>
      <trkpt lat="49.004475" lon="7.13082">
        <ele>266.0</ele>
        <time>2020-07-10T10:24:03Z</time>
      </trkpt>
      <trkpt lat="49.004381" lon="7.130883">
        <ele>265.0</ele>
        <time>2020-07-10T10:24:05Z</time>
      </trkpt>
      <trkpt lat="49.004282" lon="7.130947">
        <ele>265.0</ele>
        <time>2020-07-10T10:24:07Z</time>
      </trkpt>
      <trkpt lat="49.004183" lon="7.131003">
        <ele>265.0</ele>
        <time>2020-07-10T10:24:09Z</time>
      </trkpt>
      <trkpt lat="49.004094" lon="7.13106">
        <ele>265.0</ele>
        <time>2020-07-10T10:24:11Z</time>
      </trkpt>
      <trkpt lat="49.004" lon="7.13111">
        <ele>265.0</ele>
        <time>2020-07-10T10:24:13Z</time>
      </trkpt>
      <trkpt lat="49.003904" lon="7.131147">
        <ele>265.0</ele>
        <time>2020-07-10T10:24:15Z</time>
      </trkpt>
      <trkpt lat="49.003795" lon="7.131163">
        <ele>265.0</ele>
        <time>2020-07-10T10:24:17Z</time>
      </trkpt>
      <trkpt lat="49.00367" lon="7.131157">
        <ele>265.0</ele>
        <time>2020-07-10T10:24:19Z</time>
      </trkpt>
      <trkpt lat="49.003545" lon="7.131132">
        <ele>264.0</ele>
        <time>2020-07-10T10:24:21Z</time>
      </trkpt>
      <trkpt lat="49.003423" lon="7.13111">
        <ele>264.0</ele>
        <time>2020-07-10T10:24:23Z</time>
      </trkpt>
      <trkpt lat="49.003311" lon="7.131103">
        <ele>264.0</ele>
        <time>2020-07-10T10:24:25Z</time>
      </trkpt>
      <trkpt lat="49.003202" lon="7.131111">
        <ele>264.0</ele>
        <time>2020-07-10T10:24:27Z</time>
      </trkpt>
      <trkpt lat="49.003101" lon="7.131134">
        <ele>265.0</ele>
        <time>2020-07-10T10:24:29Z</time>
      </trkpt>
      <trkpt lat="49.002999" lon="7.131158">
        <ele>265.0</ele>
        <time>2020-07-10T10:24:31Z</time>
      </trkpt>
      <trkpt lat="49.002897" lon="7.131172">
        <ele>265.0</ele>
        <time>2020-07-10T10:24:33Z</time>
      </trkpt>
      <trkpt lat="49.002794" lon="7.131191">
        <ele>266.0</ele>
        <time>2020-07-10T10:24:35Z</time>
      </trkpt>
      <trkpt lat="49.002698" lon="7.131217">
        <ele>266.0</ele>
        <time>2020-07-10T10:24:37Z</time>
      </trkpt>
      <trkpt lat="49.002608" lon="7.131225">
        <ele>265.0</ele>
        <time>2020-07-10T10:24:39Z</time>
      </trkpt>
      <trkpt lat="49.002508" lon="7.131239">
        <ele>265.0</ele>
        <time>2020-07-10T10:24:41Z</time>
      </trkpt>
      <trkpt lat="49.002414" lon="7.131266">
        <ele>265.0</ele>
        <time>2020-07-10T10:24:43Z</time>
      </trkpt>
      <trkpt lat="49.002324" lon="7.131275">
        <ele>265.0</ele>
        <time>2020-07-10T10:24:45Z</time>
      </trkpt>
      <trkpt lat="49.002224" lon="7.131287">
        <ele>265.0</ele>
        <time>2020-07-10T10:24:47Z</time>
      </trkpt>
      <trkpt lat="49.00213" lon="7.131292">
        <ele>265.0</ele>
        <time>2020-07-10T10:24:49Z</time>
      </trkpt>
      <trkpt lat="49.002035" lon="7.13131">
        <ele>265.0</ele>
        <time>2020-07-10T10:24:51Z</time>
      </trkpt>
      <trkpt lat="49.001934" lon="7.131318">
        <ele>265.0</ele>
        <time>2020-07-10T10:24:53Z</time>
      </trkpt>
      <trkpt lat="49.001838" lon="7.13133">
        <ele>265.0</ele>
        <time>2020-07-10T10:24:55Z</time>
      </trkpt>
      <trkpt lat="49.001748" lon="7.131331">
        <ele>265.0</ele>
        <time>2020-07-10T10:24:57Z</time>
      </trkpt>
      <trkpt lat="49.001655" lon="7.131309">
        <ele>265.0</ele>
        <time>2020-07-10T10:24:59Z</time>
      </trkpt>
      <trkpt lat="49.00156" lon="7.131301">
        <ele>265.0</ele>
        <time>2020-07-10T10:25:01Z</time>
      </trkpt>
      <trkpt lat="49.001465" lon="7.131299">
        <ele>264.0</ele>
        <time>2020-07-10T10:25:03Z</time>
      </trkpt>
      <trkpt lat="49.00137" lon="7.131293">
        <ele>264.0</ele>
        <time>2020-07-10T10:25:05Z</time>
      </trkpt>
      <trkpt lat="49.001266" lon="7.131291">
        <ele>264.0</ele>
        <time>2020-07-10T10:25:07Z</time>
      </trkpt>
      <trkpt lat="49.001159" lon="7.131286">
        <ele>264.0</ele>
        <time>2020-07-10T10:25:09Z</time>
      </trkpt>
      <trkpt lat="49.001058" lon="7.131269">
        <ele>264.0</ele>
        <time>2020-07-10T10:25:11Z</time>
      </trkpt>
      <trkpt lat="49.000953" lon="7.131257">
        <ele>264.0</ele>
        <time>2020-07-10T10:25:13Z</time>
      </trkpt>
      <trkpt lat="49.000849" lon="7.131256">
        <ele>265.0</ele>
        <time>2020-07-10T10:25:15Z</time>
      </trkpt>
      <trkpt lat="49.00075" lon="7.131263">
        <ele>265.0</ele>
        <time>2020-07-10T10:25:17Z</time>
      </trkpt>
      <trkpt lat="49.000647" lon="7.131263">
        <ele>265.0</ele>
        <time>2020-07-10T10:25:19Z</time>
      </trkpt>
      <trkpt lat="49.000543" lon="7.131263">
        <ele>265.0</ele>
        <time>2020-07-10T10:25:21Z</time>
      </trkpt>
      <trkpt lat="49.000443" lon="7.131273">
        <ele>264.0</ele>
        <time>2020-07-10T10:25:23Z</time>
      </trkpt>
      <trkpt lat="49.000346" lon="7.131279">
        <ele>264.0</ele>
        <time>2020-07-10T10:25:25Z</time>
      </trkpt>
      <trkpt lat="49.000257" lon="7.131299">
        <ele>264.0</ele>
        <time>2020-07-10T10:25:27Z</time>
      </trkpt>
      <trkpt lat="49.000181" lon="7.131302">
        <ele>264.0</ele>
        <time>2020-07-10T10:25:29Z</time>
      </trkpt>
      <trkpt lat="49.000114" lon="7.131314">
        <ele>264.0</ele>
        <time>2020-07-10T10:25:31Z</time>
      </trkpt>
      <trkpt lat="49.000049" lon="7.131317">
        <ele>264.0</ele>
        <time>2020-07-10T10:25:33Z</time>
      </trkpt>
      <trkpt lat="48.999999" lon="7.13131">
        <ele>264.0</ele>
        <time>2020-07-10T10:25:35Z</time>
      </trkpt>
      <trkpt lat="48.999959" lon="7.1313">
        <ele>264.0</ele>
        <time>2020-07-10T10:25:37Z</time>
      </trkpt>
      <trkpt lat="48.999917" lon="7.131293">
        <ele>265.0</ele>
        <time>2020-07-10T10:25:39Z</time>
      </trkpt>
      <trkpt lat="48.99989" lon="7.131299">
        <ele>265.0</ele>
        <time>2020-07-10T10:25:41Z</time>
      </trkpt>
      <trkpt lat="48.999872" lon="7.131324">
        <ele>265.0</ele>
        <time>2020-07-10T10:25:43Z</time>
      </trkpt>
      <trkpt lat="48.999876" lon="7.131365">
        <ele>265.0</ele>
        <time>2020-07-10T10:25:45Z</time>
      </trkpt>
      <trkpt lat="48.999879" lon="7.131383">
        <ele>265.0</ele>
        <time>2020-07-10T10:25:47Z</time>
      </trkpt>
      <trkpt lat="48.999886" lon="7.131383">
        <ele>265.0</ele>
        <time>2020-07-10T10:25:49Z</time>
      </trkpt>
      <trkpt lat="48.999886" lon="7.131383">
        <ele>265.0</ele>
        <time>2020-07-10T10:25:51Z</time>
      </trkpt>
      <trkpt lat="48.999886" lon="7.131383">
        <ele>265.0</ele>
        <time>2020-07-10T10:25:53Z</time>
      </trkpt>
      <trkpt lat="48.999886" lon="7.131383">
        <ele>265.0</ele>
        <time>2020-07-10T10:25:55Z</time>
      </trkpt>
      <trkpt lat="48.999886" lon="7.131383">
        <ele>265.0</ele>
        <time>2020-07-10T10:25:57Z</time>
      </trkpt>
      <trkpt lat="48.999886" lon="7.131383">
        <ele>265.0</ele>
        <time>2020-07-10T10:25:59Z</time>
      </trkpt>
      <trkpt lat="48.999886" lon="7.131383">
        <ele>265.0</ele>
        <time>2020-07-10T10:26:01Z</time>
      </trkpt>
      <trkpt lat="48.999886" lon="7.131383">
        <ele>265.0</ele>
        <time>2020-07-10T10:26:03Z</time>
      </trkpt>
      <trkpt lat="48.999879" lon="7.131382">
        <ele>266.0</ele>
        <time>2020-07-10T10:26:05Z</time>
      </trkpt>
      <trkpt lat="48.999874" lon="7.131411">
        <ele>266.0</ele>
        <time>2020-07-10T10:26:08Z</time>
      </trkpt>
      <trkpt lat="48.999874" lon="7.131411">
        <ele>266.0</ele>
        <time>2020-07-10T10:26:10Z</time>
      </trkpt>
      <trkpt lat="48.99987" lon="7.131388">
        <ele>266.0</ele>
        <time>2020-07-10T10:26:12Z</time>
      </trkpt>
      <trkpt lat="48.999881" lon="7.131335">
        <ele>266.0</ele>
        <time>2020-07-10T10:26:14Z</time>
      </trkpt>
      <trkpt lat="48.999897" lon="7.131264">
        <ele>265.0</ele>
        <time>2020-07-10T10:26:16Z</time>
      </trkpt>
      <trkpt lat="48.999906" lon="7.131217">
        <ele>265.0</ele>
        <time>2020-07-10T10:26:17Z</time>
      </trkpt>
      <trkpt lat="48.999883" lon="7.131139">
        <ele>265.0</ele>
        <time>2020-07-10T10:26:20Z</time>
      </trkpt>
      <trkpt lat="48.999847" lon="7.131137">
        <ele>265.0</ele>
        <time>2020-07-10T10:26:22Z</time>
      </trkpt>
      <trkpt lat="48.999811" lon="7.131152">
        <ele>265.0</ele>
        <time>2020-07-10T10:26:24Z</time>
      </trkpt>
      <trkpt lat="48.999767" lon="7.13117">
        <ele>265.0</ele>
        <time>2020-07-10T10:26:26Z</time>
      </trkpt>
      <trkpt lat="48.999715" lon="7.131175">
        <ele>266.0</ele>
        <time>2020-07-10T10:26:28Z</time>
      </trkpt>
      <trkpt lat="48.999666" lon="7.131186">
        <ele>266.0</ele>
        <time>2020-07-10T10:26:30Z</time>
      </trkpt>
      <trkpt lat="48.999614" lon="7.131204">
        <ele>266.0</ele>
        <time>2020-07-10T10:26:32Z</time>
      </trkpt>
      <trkpt lat="48.99956" lon="7.131208">
        <ele>267.0</ele>
        <time>2020-07-10T10:26:34Z</time>
      </trkpt>
      <trkpt lat="48.999506" lon="7.131215">
        <ele>267.0</ele>
        <time>2020-07-10T10:26:36Z</time>
      </trkpt>
      <trkpt lat="48.999461" lon="7.131227">
        <ele>267.0</ele>
        <time>2020-07-10T10:26:38Z</time>
      </trkpt>
      <trkpt lat="48.99943" lon="7.13124">
        <ele>267.0</ele>
        <time>2020-07-10T10:26:40Z</time>
      </trkpt>
      <trkpt lat="48.999411" lon="7.131235">
        <ele>268.0</ele>
        <time>2020-07-10T10:26:42Z</time>
      </trkpt>
      <trkpt lat="48.999395" lon="7.131226">
        <ele>267.0</ele>
        <time>2020-07-10T10:26:44Z</time>
      </trkpt>
      <trkpt lat="48.999382" lon="7.131235">
        <ele>267.0</ele>
        <time>2020-07-10T10:26:46Z</time>
      </trkpt>
      <trkpt lat="48.999368" lon="7.131253">
        <ele>267.0</ele>
        <time>2020-07-10T10:26:48Z</time>
      </trkpt>
      <trkpt lat="48.999367" lon="7.131297">
        <ele>267.0</ele>
        <time>2020-07-10T10:26:50Z</time>
      </trkpt>
      <trkpt lat="48.999377" lon="7.131362">
        <ele>267.0</ele>
        <time>2020-07-10T10:26:52Z</time>
      </trkpt>
      <trkpt lat="48.999377" lon="7.131447">
        <ele>268.0</ele>
        <time>2020-07-10T10:26:54Z</time>
      </trkpt>
      <trkpt lat="48.999369" lon="7.131533">
        <ele>268.0</ele>
        <time>2020-07-10T10:26:56Z</time>
      </trkpt>
      <trkpt lat="48.999366" lon="7.131626">
        <ele>268.0</ele>
        <time>2020-07-10T10:26:58Z</time>
      </trkpt>
      <trkpt lat="48.999367" lon="7.131704">
        <ele>269.0</ele>
        <time>2020-07-10T10:27:00Z</time>
      </trkpt>
      <trkpt lat="48.99936" lon="7.131769">
        <ele>269.0</ele>
        <time>2020-07-10T10:27:02Z</time>
      </trkpt>
      <trkpt lat="48.999358" lon="7.131826">
        <ele>269.0</ele>
        <time>2020-07-10T10:27:04Z</time>
      </trkpt>
      <trkpt lat="48.999351" lon="7.131868">
        <ele>269.0</ele>
        <time>2020-07-10T10:27:06Z</time>
      </trkpt>
      <trkpt lat="48.999341" lon="7.13191">
        <ele>270.0</ele>
        <time>2020-07-10T10:27:08Z</time>
      </trkpt>
      <trkpt lat="48.999349" lon="7.13193">
        <ele>270.0</ele>
        <time>2020-07-10T10:27:10Z</time>
      </trkpt>
      <trkpt lat="48.999374" lon="7.131915">
        <ele>271.0</ele>
        <time>2020-07-10T10:27:12Z</time>
      </trkpt>
      <trkpt lat="48.999377" lon="7.131853">
        <ele>271.0</ele>
        <time>2020-07-10T10:27:14Z</time>
      </trkpt>
      <trkpt lat="48.999372" lon="7.131781">
        <ele>271.0</ele>
        <time>2020-07-10T10:27:16Z</time>
      </trkpt>
      <trkpt lat="48.999378" lon="7.131683">
        <ele>271.0</ele>
        <time>2020-07-10T10:27:18Z</time>
      </trkpt>
      <trkpt lat="48.99939" lon="7.13157">
        <ele>271.0</ele>
        <time>2020-07-10T10:27:20Z</time>
      </trkpt>
      <trkpt lat="48.999385" lon="7.131445">
        <ele>270.0</ele>
        <time>2020-07-10T10:27:22Z</time>
      </trkpt>
      <trkpt lat="48.999376" lon="7.13133">
        <ele>269.0</ele>
        <time>2020-07-10T10:27:24Z</time>
      </trkpt>
      <trkpt lat="48.999364" lon="7.131213">
        <ele>269.0</ele>
        <time>2020-07-10T10:27:26Z</time>
      </trkpt>
      <trkpt lat="48.999339" lon="7.131096">
        <ele>268.0</ele>
        <time>2020-07-10T10:27:28Z</time>
      </trkpt>
      <trkpt lat="48.999322" lon="7.130948">
        <ele>268.0</ele>
        <time>2020-07-10T10:27:30Z</time>
      </trkpt>
      <trkpt lat="48.999306" lon="7.130796">
        <ele>267.0</ele>
        <time>2020-07-10T10:27:32Z</time>
      </trkpt>
      <trkpt lat="48.999285" lon="7.13066">
        <ele>267.0</ele>
        <time>2020-07-10T10:27:34Z</time>
      </trkpt>
      <trkpt lat="48.999284" lon="7.130535">
        <ele>267.0</ele>
        <time>2020-07-10T10:27:36Z</time>
      </trkpt>
      <trkpt lat="48.99927" lon="7.130448">
        <ele>267.0</ele>
        <time>2020-07-10T10:27:38Z</time>
      </trkpt>
      <trkpt lat="48.999246" lon="7.130364">
        <ele>267.0</ele>
        <time>2020-07-10T10:27:40Z</time>
      </trkpt>
      <trkpt lat="48.999233" lon="7.130271">
        <ele>266.0</ele>
        <time>2020-07-10T10:27:42Z</time>
      </trkpt>
      <trkpt lat="48.99922" lon="7.130177">
        <ele>266.0</ele>
        <time>2020-07-10T10:27:44Z</time>
      </trkpt>
      <trkpt lat="48.99921" lon="7.130082">
        <ele>266.0</ele>
        <time>2020-07-10T10:27:46Z</time>
      </trkpt>
      <trkpt lat="48.999198" lon="7.129989">
        <ele>266.0</ele>
        <time>2020-07-10T10:27:48Z</time>
      </trkpt>
      <trkpt lat="48.999192" lon="7.129893">
        <ele>266.0</ele>
        <time>2020-07-10T10:27:50Z</time>
      </trkpt>
      <trkpt lat="48.999171" lon="7.129799">
        <ele>266.0</ele>
        <time>2020-07-10T10:27:52Z</time>
      </trkpt>
      <trkpt lat="48.999129" lon="7.129718">
        <ele>266.0</ele>
        <time>2020-07-10T10:27:54Z</time>
      </trkpt>
      <trkpt lat="48.999069" lon="7.129651">
        <ele>265.0</ele>
        <time>2020-07-10T10:27:56Z</time>
      </trkpt>
      <trkpt lat="48.99899" lon="7.129597">
        <ele>264.0</ele>
        <time>2020-07-10T10:27:58Z</time>
      </trkpt>
      <trkpt lat="48.998897" lon="7.129545">
        <ele>263.0</ele>
        <time>2020-07-10T10:28:00Z</time>
      </trkpt>
      <trkpt lat="48.998798" lon="7.129501">
        <ele>263.0</ele>
        <time>2020-07-10T10:28:02Z</time>
      </trkpt>
      <trkpt lat="48.998693" lon="7.129466">
        <ele>263.0</ele>
        <time>2020-07-10T10:28:04Z</time>
      </trkpt>
      <trkpt lat="48.998596" lon="7.129427">
        <ele>264.0</ele>
        <time>2020-07-10T10:28:06Z</time>
      </trkpt>
      <trkpt lat="48.998499" lon="7.129385">
        <ele>264.0</ele>
        <time>2020-07-10T10:28:08Z</time>
      </trkpt>
      <trkpt lat="48.99842" lon="7.129347">
        <ele>264.0</ele>
        <time>2020-07-10T10:28:10Z</time>
      </trkpt>
      <trkpt lat="48.998343" lon="7.12932">
        <ele>264.0</ele>
        <time>2020-07-10T10:28:12Z</time>
      </trkpt>
      <trkpt lat="48.998254" lon="7.129292">
        <ele>264.0</ele>
        <time>2020-07-10T10:28:14Z</time>
      </trkpt>
      <trkpt lat="48.998159" lon="7.12924">
        <ele>264.0</ele>
        <time>2020-07-10T10:28:16Z</time>
      </trkpt>
      <trkpt lat="48.998064" lon="7.129202">
        <ele>263.0</ele>
        <time>2020-07-10T10:28:18Z</time>
      </trkpt>
      <trkpt lat="48.99798" lon="7.129151">
        <ele>264.0</ele>
        <time>2020-07-10T10:28:20Z</time>
      </trkpt>
      <trkpt lat="48.997898" lon="7.129093">
        <ele>263.0</ele>
        <time>2020-07-10T10:28:22Z</time>
      </trkpt>
      <trkpt lat="48.997819" lon="7.129034">
        <ele>263.0</ele>
        <time>2020-07-10T10:28:24Z</time>
      </trkpt>
      <trkpt lat="48.997753" lon="7.128972">
        <ele>263.0</ele>
        <time>2020-07-10T10:28:26Z</time>
      </trkpt>
      <trkpt lat="48.997718" lon="7.128891">
        <ele>263.0</ele>
        <time>2020-07-10T10:28:28Z</time>
      </trkpt>
      <trkpt lat="48.997718" lon="7.128802">
        <ele>263.0</ele>
        <time>2020-07-10T10:28:30Z</time>
      </trkpt>
      <trkpt lat="48.997717" lon="7.128742">
        <ele>264.0</ele>
        <time>2020-07-10T10:28:32Z</time>
      </trkpt>
      <trkpt lat="48.99772" lon="7.128672">
        <ele>264.0</ele>
        <time>2020-07-10T10:28:34Z</time>
      </trkpt>
      <trkpt lat="48.997707" lon="7.128592">
        <ele>264.0</ele>
        <time>2020-07-10T10:28:36Z</time>
      </trkpt>
      <trkpt lat="48.997684" lon="7.128529">
        <ele>264.0</ele>
        <time>2020-07-10T10:28:38Z</time>
      </trkpt>
      <trkpt lat="48.99765" lon="7.128494">
        <ele>264.0</ele>
        <time>2020-07-10T10:28:40Z</time>
      </trkpt>
      <trkpt lat="48.99762" lon="7.128466">
        <ele>264.0</ele>
        <time>2020-07-10T10:28:42Z</time>
      </trkpt>
      <trkpt lat="48.997578" lon="7.128434">
        <ele>264.0</ele>
        <time>2020-07-10T10:28:44Z</time>
      </trkpt>
      <trkpt lat="48.997524" lon="7.128401">
        <ele>264.0</ele>
        <time>2020-07-10T10:28:46Z</time>
      </trkpt>
      <trkpt lat="48.99747" lon="7.128374">
        <ele>264.0</ele>
        <time>2020-07-10T10:28:48Z</time>
      </trkpt>
      <trkpt lat="48.997424" lon="7.128356">
        <ele>264.0</ele>
        <time>2020-07-10T10:28:50Z</time>
      </trkpt>
      <trkpt lat="48.997382" lon="7.128334">
        <ele>264.0</ele>
        <time>2020-07-10T10:28:52Z</time>
      </trkpt>
      <trkpt lat="48.997338" lon="7.128328">
        <ele>265.0</ele>
        <time>2020-07-10T10:28:54Z</time>
      </trkpt>
      <trkpt lat="48.997295" lon="7.128319">
        <ele>265.0</ele>
        <time>2020-07-10T10:28:56Z</time>
      </trkpt>
      <trkpt lat="48.997257" lon="7.128291">
        <ele>265.0</ele>
        <time>2020-07-10T10:28:58Z</time>
      </trkpt>
      <trkpt lat="48.99722" lon="7.128264">
        <ele>265.0</ele>
        <time>2020-07-10T10:29:00Z</time>
      </trkpt>
      <trkpt lat="48.997178" lon="7.12823">
        <ele>265.0</ele>
        <time>2020-07-10T10:29:02Z</time>
      </trkpt>
      <trkpt lat="48.997146" lon="7.128203">
        <ele>266.0</ele>
        <time>2020-07-10T10:29:04Z</time>
      </trkpt>
      <trkpt lat="48.997148" lon="7.128225">
        <ele>266.0</ele>
        <time>2020-07-10T10:29:06Z</time>
      </trkpt>
      <trkpt lat="48.997177" lon="7.128261">
        <ele>266.0</ele>
        <time>2020-07-10T10:29:08Z</time>
      </trkpt>
      <trkpt lat="48.997233" lon="7.128313">
        <ele>267.0</ele>
        <time>2020-07-10T10:29:10Z</time>
      </trkpt>
      <trkpt lat="48.997293" lon="7.128336">
        <ele>267.0</ele>
        <time>2020-07-10T10:29:12Z</time>
      </trkpt>
      <trkpt lat="48.997407" lon="7.12839">
        <ele>267.0</ele>
        <time>2020-07-10T10:29:14Z</time>
      </trkpt>
      <trkpt lat="48.997521" lon="7.128425">
        <ele>267.0</ele>
        <time>2020-07-10T10:29:16Z</time>
      </trkpt>
      <trkpt lat="48.997629" lon="7.128471">
        <ele>266.0</ele>
        <time>2020-07-10T10:29:18Z</time>
      </trkpt>
      <trkpt lat="48.997684" lon="7.128758">
        <ele>265.0</ele>
        <time>2020-07-10T10:29:21Z</time>
      </trkpt>
      <trkpt lat="48.997698" lon="7.128857">
        <ele>266.0</ele>
        <time>2020-07-10T10:29:22Z</time>
      </trkpt>
      <trkpt lat="48.997836" lon="7.129069">
        <ele>266.0</ele>
        <time>2020-07-10T10:29:25Z</time>
      </trkpt>
      <trkpt lat="48.997953" lon="7.129158">
        <ele>266.0</ele>
        <time>2020-07-10T10:29:27Z</time>
      </trkpt>
      <trkpt lat="48.998084" lon="7.129219">
        <ele>267.0</ele>
        <time>2020-07-10T10:29:29Z</time>
      </trkpt>
      <trkpt lat="48.998201" lon="7.129267">
        <ele>267.0</ele>
        <time>2020-07-10T10:29:31Z</time>
      </trkpt>
      <trkpt lat="48.998311" lon="7.129314">
        <ele>266.0</ele>
        <time>2020-07-10T10:29:33Z</time>
      </trkpt>
      <trkpt lat="48.998411" lon="7.129363">
        <ele>267.0</ele>
        <time>2020-07-10T10:29:35Z</time>
      </trkpt>
      <trkpt lat="48.998498" lon="7.129404">
        <ele>266.0</ele>
        <time>2020-07-10T10:29:37Z</time>
      </trkpt>
      <trkpt lat="48.998594" lon="7.129452">
        <ele>266.0</ele>
        <time>2020-07-10T10:29:39Z</time>
      </trkpt>
      <trkpt lat="48.998697" lon="7.129489">
        <ele>266.0</ele>
        <time>2020-07-10T10:29:41Z</time>
      </trkpt>
      <trkpt lat="48.998804" lon="7.129529">
        <ele>265.0</ele>
        <time>2020-07-10T10:29:43Z</time>
      </trkpt>
      <trkpt lat="48.998903" lon="7.129593">
        <ele>266.0</ele>
        <time>2020-07-10T10:29:45Z</time>
      </trkpt>
      <trkpt lat="48.99898" lon="7.129638">
        <ele>266.0</ele>
        <time>2020-07-10T10:29:47Z</time>
      </trkpt>
      <trkpt lat="48.999055" lon="7.129692">
        <ele>266.0</ele>
        <time>2020-07-10T10:29:49Z</time>
      </trkpt>
      <trkpt lat="48.999106" lon="7.129751">
        <ele>265.0</ele>
        <time>2020-07-10T10:29:51Z</time>
      </trkpt>
      <trkpt lat="48.99913" lon="7.129809">
        <ele>265.0</ele>
        <time>2020-07-10T10:29:53Z</time>
      </trkpt>
      <trkpt lat="48.999127" lon="7.129784">
        <ele>265.0</ele>
        <time>2020-07-10T10:29:55Z</time>
      </trkpt>
      <trkpt lat="48.999129" lon="7.129778">
        <ele>265.0</ele>
        <time>2020-07-10T10:29:57Z</time>
      </trkpt>
      <trkpt lat="48.999129" lon="7.129778">
        <ele>265.0</ele>
        <time>2020-07-10T10:29:59Z</time>
      </trkpt>
      <trkpt lat="48.999129" lon="7.129778">
        <ele>265.0</ele>
        <time>2020-07-10T10:30:01Z</time>
      </trkpt>
      <trkpt lat="48.999129" lon="7.129778">
        <ele>265.0</ele>
        <time>2020-07-10T10:30:03Z</time>
      </trkpt>
      <trkpt lat="48.999129" lon="7.129778">
        <ele>265.0</ele>
        <time>2020-07-10T10:30:05Z</time>
      </trkpt>
      <trkpt lat="48.999129" lon="7.129778">
        <ele>265.0</ele>
        <time>2020-07-10T10:30:07Z</time>
      </trkpt>
      <trkpt lat="48.999129" lon="7.129778">
        <ele>265.0</ele>
        <time>2020-07-10T10:30:09Z</time>
      </trkpt>
      <trkpt lat="48.999129" lon="7.129778">
        <ele>265.0</ele>
        <time>2020-07-10T10:30:11Z</time>
      </trkpt>
      <trkpt lat="48.999134" lon="7.129783">
        <ele>265.0</ele>
        <time>2020-07-10T10:30:13Z</time>
      </trkpt>
      <trkpt lat="48.999147" lon="7.129825">
        <ele>265.0</ele>
        <time>2020-07-10T10:30:15Z</time>
      </trkpt>
      <trkpt lat="48.999158" lon="7.129896">
        <ele>265.0</ele>
        <time>2020-07-10T10:30:17Z</time>
      </trkpt>
      <trkpt lat="48.99917" lon="7.129972">
        <ele>265.0</ele>
        <time>2020-07-10T10:30:19Z</time>
      </trkpt>
      <trkpt lat="48.999178" lon="7.130069">
        <ele>265.0</ele>
        <time>2020-07-10T10:30:21Z</time>
      </trkpt>
      <trkpt lat="48.999187" lon="7.130166">
        <ele>265.0</ele>
        <time>2020-07-10T10:30:23Z</time>
      </trkpt>
      <trkpt lat="48.999205" lon="7.130258">
        <ele>265.0</ele>
        <time>2020-07-10T10:30:25Z</time>
      </trkpt>
      <trkpt lat="48.999221" lon="7.130361">
        <ele>266.0</ele>
        <time>2020-07-10T10:30:27Z</time>
      </trkpt>
      <trkpt lat="48.999232" lon="7.130465">
        <ele>266.0</ele>
        <time>2020-07-10T10:30:29Z</time>
      </trkpt>
      <trkpt lat="48.999244" lon="7.130573">
        <ele>266.0</ele>
        <time>2020-07-10T10:30:31Z</time>
      </trkpt>
      <trkpt lat="48.999264" lon="7.13067">
        <ele>266.0</ele>
        <time>2020-07-10T10:30:33Z</time>
      </trkpt>
      <trkpt lat="48.999272" lon="7.13078">
        <ele>266.0</ele>
        <time>2020-07-10T10:30:35Z</time>
      </trkpt>
      <trkpt lat="48.999284" lon="7.130882">
        <ele>266.0</ele>
        <time>2020-07-10T10:30:37Z</time>
      </trkpt>
      <trkpt lat="48.999297" lon="7.130979">
        <ele>266.0</ele>
        <time>2020-07-10T10:30:39Z</time>
      </trkpt>
      <trkpt lat="48.999311" lon="7.131065">
        <ele>266.0</ele>
        <time>2020-07-10T10:30:41Z</time>
      </trkpt>
      <trkpt lat="48.999322" lon="7.131135">
        <ele>266.0</ele>
        <time>2020-07-10T10:30:43Z</time>
      </trkpt>
      <trkpt lat="48.999326" lon="7.131197">
        <ele>266.0</ele>
        <time>2020-07-10T10:30:45Z</time>
      </trkpt>
      <trkpt lat="48.999326" lon="7.131253">
        <ele>266.0</ele>
        <time>2020-07-10T10:30:47Z</time>
      </trkpt>
      <trkpt lat="48.999333" lon="7.131325">
        <ele>267.0</ele>
        <time>2020-07-10T10:30:49Z</time>
      </trkpt>
      <trkpt lat="48.99934" lon="7.13141">
        <ele>267.0</ele>
        <time>2020-07-10T10:30:51Z</time>
      </trkpt>
      <trkpt lat="48.99935" lon="7.131502">
        <ele>267.0</ele>
        <time>2020-07-10T10:30:53Z</time>
      </trkpt>
      <trkpt lat="48.999354" lon="7.131586">
        <ele>267.0</ele>
        <time>2020-07-10T10:30:55Z</time>
      </trkpt>
      <trkpt lat="48.999353" lon="7.13167">
        <ele>267.0</ele>
        <time>2020-07-10T10:30:57Z</time>
      </trkpt>
      <trkpt lat="48.999351" lon="7.131748">
        <ele>267.0</ele>
        <time>2020-07-10T10:30:59Z</time>
      </trkpt>
      <trkpt lat="48.999348" lon="7.131818">
        <ele>267.0</ele>
        <time>2020-07-10T10:31:01Z</time>
      </trkpt>
      <trkpt lat="48.999343" lon="7.131864">
        <ele>268.0</ele>
        <time>2020-07-10T10:31:03Z</time>
      </trkpt>
      <trkpt lat="48.999335" lon="7.131907">
        <ele>268.0</ele>
        <time>2020-07-10T10:31:05Z</time>
      </trkpt>
      <trkpt lat="48.999336" lon="7.131952">
        <ele>268.0</ele>
        <time>2020-07-10T10:31:07Z</time>
      </trkpt>
      <trkpt lat="48.999331" lon="7.131999">
        <ele>268.0</ele>
        <time>2020-07-10T10:31:09Z</time>
      </trkpt>
      <trkpt lat="48.999328" lon="7.132069">
        <ele>268.0</ele>
        <time>2020-07-10T10:31:11Z</time>
      </trkpt>
      <trkpt lat="48.999329" lon="7.132131">
        <ele>268.0</ele>
        <time>2020-07-10T10:31:13Z</time>
      </trkpt>
      <trkpt lat="48.99932" lon="7.132199">
        <ele>268.0</ele>
        <time>2020-07-10T10:31:15Z</time>
      </trkpt>
      <trkpt lat="48.999307" lon="7.132253">
        <ele>268.0</ele>
        <time>2020-07-10T10:31:17Z</time>
      </trkpt>
      <trkpt lat="48.9993" lon="7.132274">
        <ele>268.0</ele>
        <time>2020-07-10T10:31:19Z</time>
      </trkpt>
      <trkpt lat="48.999303" lon="7.13228">
        <ele>267.0</ele>
        <time>2020-07-10T10:31:21Z</time>
      </trkpt>
      <trkpt lat="48.999305" lon="7.132288">
        <ele>267.0</ele>
        <time>2020-07-10T10:31:23Z</time>
      </trkpt>
      <trkpt lat="48.999305" lon="7.132288">
        <ele>267.0</ele>
        <time>2020-07-10T10:31:25Z</time>
      </trkpt>
      <trkpt lat="48.999293" lon="7.132255">
        <ele>266.0</ele>
        <time>2020-07-10T10:33:32Z</time>
      </trkpt>
      <trkpt lat="48.999293" lon="7.132255">
        <ele>266.0</ele>
        <time>2020-07-10T10:33:34Z</time>
      </trkpt>
      <trkpt lat="48.999293" lon="7.132255">
        <ele>266.0</ele>
        <time>2020-07-10T10:33:36Z</time>
      </trkpt>
      <trkpt lat="48.999293" lon="7.132255">
        <ele>266.0</ele>
        <time>2020-07-10T10:33:38Z</time>
      </trkpt>
      <trkpt lat="48.999293" lon="7.132255">
        <ele>266.0</ele>
        <time>2020-07-10T10:33:40Z</time>
      </trkpt>
      <trkpt lat="48.999293" lon="7.132255">
        <ele>266.0</ele>
        <time>2020-07-10T10:33:42Z</time>
      </trkpt>
      <trkpt lat="48.999293" lon="7.132255">
        <ele>266.0</ele>
        <time>2020-07-10T10:33:44Z</time>
      </trkpt>
      <trkpt lat="48.999293" lon="7.132255">
        <ele>266.0</ele>
        <time>2020-07-10T10:33:46Z</time>
      </trkpt>
      <trkpt lat="48.999293" lon="7.132255">
        <ele>266.0</ele>
        <time>2020-07-10T10:33:48Z</time>
      </trkpt>
      <trkpt lat="48.999293" lon="7.132255">
        <ele>266.0</ele>
        <time>2020-07-10T10:33:50Z</time>
      </trkpt>
      <trkpt lat="48.999293" lon="7.132255">
        <ele>266.0</ele>
        <time>2020-07-10T10:33:52Z</time>
      </trkpt>
      <trkpt lat="48.999293" lon="7.132255">
        <ele>266.0</ele>
        <time>2020-07-10T10:33:54Z</time>
      </trkpt>
      <trkpt lat="48.9993" lon="7.132259">
        <ele>266.0</ele>
        <time>2020-07-10T10:33:56Z</time>
      </trkpt>
      <trkpt lat="48.999322" lon="7.132268">
        <ele>266.0</ele>
        <time>2020-07-10T10:33:58Z</time>
      </trkpt>
      <trkpt lat="48.999344" lon="7.132235">
        <ele>266.0</ele>
        <time>2020-07-10T10:34:00Z</time>
      </trkpt>
      <trkpt lat="48.999363" lon="7.132175">
        <ele>265.0</ele>
        <time>2020-07-10T10:34:02Z</time>
      </trkpt>
      <trkpt lat="48.999373" lon="7.132085">
        <ele>266.0</ele>
        <time>2020-07-10T10:34:04Z</time>
      </trkpt>
      <trkpt lat="48.999381" lon="7.131995">
        <ele>266.0</ele>
        <time>2020-07-10T10:34:06Z</time>
      </trkpt>
      <trkpt lat="48.999386" lon="7.131905">
        <ele>266.0</ele>
        <time>2020-07-10T10:34:08Z</time>
      </trkpt>
      <trkpt lat="48.999384" lon="7.131743">
        <ele>266.0</ele>
        <time>2020-07-10T10:34:11Z</time>
      </trkpt>
      <trkpt lat="48.999369" lon="7.131615">
        <ele>266.0</ele>
        <time>2020-07-10T10:34:13Z</time>
      </trkpt>
      <trkpt lat="48.999355" lon="7.131479">
        <ele>267.0</ele>
        <time>2020-07-10T10:34:15Z</time>
      </trkpt>
      <trkpt lat="48.999331" lon="7.131358">
        <ele>267.0</ele>
        <time>2020-07-10T10:34:17Z</time>
      </trkpt>
      <trkpt lat="48.999265" lon="7.131276">
        <ele>267.0</ele>
        <time>2020-07-10T10:34:19Z</time>
      </trkpt>
      <trkpt lat="48.999228" lon="7.13127">
        <ele>267.0</ele>
        <time>2020-07-10T10:34:20Z</time>
      </trkpt>
      <trkpt lat="48.999104" lon="7.131282">
        <ele>267.0</ele>
        <time>2020-07-10T10:34:23Z</time>
      </trkpt>
      <trkpt lat="48.999019" lon="7.131293">
        <ele>267.0</ele>
        <time>2020-07-10T10:34:25Z</time>
      </trkpt>
      <trkpt lat="48.998931" lon="7.131301">
        <ele>267.0</ele>
        <time>2020-07-10T10:34:27Z</time>
      </trkpt>
      <trkpt lat="48.998885" lon="7.131311">
        <ele>267.0</ele>
        <time>2020-07-10T10:34:28Z</time>
      </trkpt>
      <trkpt lat="48.998737" lon="7.131331">
        <ele>266.0</ele>
        <time>2020-07-10T10:34:31Z</time>
      </trkpt>
      <trkpt lat="48.99864" lon="7.131338">
        <ele>266.0</ele>
        <time>2020-07-10T10:34:33Z</time>
      </trkpt>
      <trkpt lat="48.998548" lon="7.131344">
        <ele>266.0</ele>
        <time>2020-07-10T10:34:35Z</time>
      </trkpt>
      <trkpt lat="48.998408" lon="7.131373">
        <ele>267.0</ele>
        <time>2020-07-10T10:34:38Z</time>
      </trkpt>
      <trkpt lat="48.998316" lon="7.131385">
        <ele>268.0</ele>
        <time>2020-07-10T10:34:40Z</time>
      </trkpt>
      <trkpt lat="48.998272" lon="7.131392">
        <ele>268.0</ele>
        <time>2020-07-10T10:34:41Z</time>
      </trkpt>
      <trkpt lat="48.998135" lon="7.131417">
        <ele>269.0</ele>
        <time>2020-07-10T10:34:44Z</time>
      </trkpt>
      <trkpt lat="48.997949" lon="7.131449">
        <ele>269.0</ele>
        <time>2020-07-10T10:34:48Z</time>
      </trkpt>
      <trkpt lat="48.997908" lon="7.131459">
        <ele>269.0</ele>
        <time>2020-07-10T10:34:49Z</time>
      </trkpt>
      <trkpt lat="48.997779" lon="7.131491">
        <ele>270.0</ele>
        <time>2020-07-10T10:34:52Z</time>
      </trkpt>
      <trkpt lat="48.997647" lon="7.131532">
        <ele>270.0</ele>
        <time>2020-07-10T10:34:55Z</time>
      </trkpt>
      <trkpt lat="48.997562" lon="7.131552">
        <ele>270.0</ele>
        <time>2020-07-10T10:34:57Z</time>
      </trkpt>
      <trkpt lat="48.997477" lon="7.131586">
        <ele>270.0</ele>
        <time>2020-07-10T10:34:59Z</time>
      </trkpt>
      <trkpt lat="48.99739" lon="7.131623">
        <ele>270.0</ele>
        <time>2020-07-10T10:35:01Z</time>
      </trkpt>
      <trkpt lat="48.997303" lon="7.131661">
        <ele>270.0</ele>
        <time>2020-07-10T10:35:03Z</time>
      </trkpt>
      <trkpt lat="48.997218" lon="7.131708">
        <ele>269.0</ele>
        <time>2020-07-10T10:35:05Z</time>
      </trkpt>
      <trkpt lat="48.997085" lon="7.131761">
        <ele>270.0</ele>
        <time>2020-07-10T10:35:08Z</time>
      </trkpt>
      <trkpt lat="48.996992" lon="7.131807">
        <ele>270.0</ele>
        <time>2020-07-10T10:35:10Z</time>
      </trkpt>
      <trkpt lat="48.996902" lon="7.131855">
        <ele>270.0</ele>
        <time>2020-07-10T10:35:12Z</time>
      </trkpt>
      <trkpt lat="48.99681" lon="7.1319">
        <ele>270.0</ele>
        <time>2020-07-10T10:35:14Z</time>
      </trkpt>
      <trkpt lat="48.996714" lon="7.131948">
        <ele>270.0</ele>
        <time>2020-07-10T10:35:16Z</time>
      </trkpt>
      <trkpt lat="48.996567" lon="7.13204">
        <ele>270.0</ele>
        <time>2020-07-10T10:35:19Z</time>
      </trkpt>
      <trkpt lat="48.996463" lon="7.132103">
        <ele>269.0</ele>
        <time>2020-07-10T10:35:21Z</time>
      </trkpt>
      <trkpt lat="48.996359" lon="7.132164">
        <ele>268.0</ele>
        <time>2020-07-10T10:35:23Z</time>
      </trkpt>
      <trkpt lat="48.996255" lon="7.132226">
        <ele>268.0</ele>
        <time>2020-07-10T10:35:25Z</time>
      </trkpt>
      <trkpt lat="48.996095" lon="7.132319">
        <ele>267.0</ele>
        <time>2020-07-10T10:35:28Z</time>
      </trkpt>
      <trkpt lat="48.995994" lon="7.132398">
        <ele>266.0</ele>
        <time>2020-07-10T10:35:30Z</time>
      </trkpt>
      <trkpt lat="48.995887" lon="7.132472">
        <ele>266.0</ele>
        <time>2020-07-10T10:35:32Z</time>
      </trkpt>
      <trkpt lat="48.995715" lon="7.132591">
        <ele>266.0</ele>
        <time>2020-07-10T10:35:35Z</time>
      </trkpt>
      <trkpt lat="48.995544" lon="7.132693">
        <ele>265.0</ele>
        <time>2020-07-10T10:35:38Z</time>
      </trkpt>
      <trkpt lat="48.995435" lon="7.132763">
        <ele>265.0</ele>
        <time>2020-07-10T10:35:40Z</time>
      </trkpt>
      <trkpt lat="48.995274" lon="7.13287">
        <ele>265.0</ele>
        <time>2020-07-10T10:35:43Z</time>
      </trkpt>
      <trkpt lat="48.995166" lon="7.132957">
        <ele>265.0</ele>
        <time>2020-07-10T10:35:45Z</time>
      </trkpt>
      <trkpt lat="48.995057" lon="7.13306">
        <ele>265.0</ele>
        <time>2020-07-10T10:35:47Z</time>
      </trkpt>
      <trkpt lat="48.994908" lon="7.133219">
        <ele>265.0</ele>
        <time>2020-07-10T10:35:50Z</time>
      </trkpt>
      <trkpt lat="48.994813" lon="7.133324">
        <ele>265.0</ele>
        <time>2020-07-10T10:35:52Z</time>
      </trkpt>
      <trkpt lat="48.994717" lon="7.133433">
        <ele>265.0</ele>
        <time>2020-07-10T10:35:54Z</time>
      </trkpt>
      <trkpt lat="48.994627" lon="7.133542">
        <ele>264.0</ele>
        <time>2020-07-10T10:35:56Z</time>
      </trkpt>
      <trkpt lat="48.994506" lon="7.133719">
        <ele>264.0</ele>
        <time>2020-07-10T10:35:59Z</time>
      </trkpt>
      <trkpt lat="48.994472" lon="7.133775">
        <ele>264.0</ele>
        <time>2020-07-10T10:36:00Z</time>
      </trkpt>
      <trkpt lat="48.994381" lon="7.133952">
        <ele>264.0</ele>
        <time>2020-07-10T10:36:03Z</time>
      </trkpt>
      <trkpt lat="48.99431" lon="7.134084">
        <ele>264.0</ele>
        <time>2020-07-10T10:36:05Z</time>
      </trkpt>
      <trkpt lat="48.99421" lon="7.134264">
        <ele>265.0</ele>
        <time>2020-07-10T10:36:08Z</time>
      </trkpt>
      <trkpt lat="48.994178" lon="7.134318">
        <ele>265.0</ele>
        <time>2020-07-10T10:36:09Z</time>
      </trkpt>
      <trkpt lat="48.994077" lon="7.134473">
        <ele>266.0</ele>
        <time>2020-07-10T10:36:12Z</time>
      </trkpt>
      <trkpt lat="48.994013" lon="7.134584">
        <ele>266.0</ele>
        <time>2020-07-10T10:36:14Z</time>
      </trkpt>
      <trkpt lat="48.993958" lon="7.13469">
        <ele>266.0</ele>
        <time>2020-07-10T10:36:16Z</time>
      </trkpt>
      <trkpt lat="48.993929" lon="7.134736">
        <ele>267.0</ele>
        <time>2020-07-10T10:36:17Z</time>
      </trkpt>
      <trkpt lat="48.99384" lon="7.134864">
        <ele>267.0</ele>
        <time>2020-07-10T10:36:20Z</time>
      </trkpt>
      <trkpt lat="48.993789" lon="7.134953">
        <ele>267.0</ele>
        <time>2020-07-10T10:36:22Z</time>
      </trkpt>
      <trkpt lat="48.993736" lon="7.135051">
        <ele>267.0</ele>
        <time>2020-07-10T10:36:24Z</time>
      </trkpt>
      <trkpt lat="48.993658" lon="7.135186">
        <ele>268.0</ele>
        <time>2020-07-10T10:36:27Z</time>
      </trkpt>
      <trkpt lat="48.993601" lon="7.135278">
        <ele>268.0</ele>
        <time>2020-07-10T10:36:29Z</time>
      </trkpt>
      <trkpt lat="48.993552" lon="7.135379">
        <ele>269.0</ele>
        <time>2020-07-10T10:36:31Z</time>
      </trkpt>
      <trkpt lat="48.9935" lon="7.135465">
        <ele>269.0</ele>
        <time>2020-07-10T10:36:33Z</time>
      </trkpt>
      <trkpt lat="48.993432" lon="7.135593">
        <ele>270.0</ele>
        <time>2020-07-10T10:36:36Z</time>
      </trkpt>
      <trkpt lat="48.993382" lon="7.135687">
        <ele>269.0</ele>
        <time>2020-07-10T10:36:38Z</time>
      </trkpt>
      <trkpt lat="48.993358" lon="7.135732">
        <ele>269.0</ele>
        <time>2020-07-10T10:36:39Z</time>
      </trkpt>
      <trkpt lat="48.993261" lon="7.135908">
        <ele>269.0</ele>
        <time>2020-07-10T10:36:43Z</time>
      </trkpt>
      <trkpt lat="48.993203" lon="7.135999">
        <ele>269.0</ele>
        <time>2020-07-10T10:36:45Z</time>
      </trkpt>
      <trkpt lat="48.993179" lon="7.136045">
        <ele>269.0</ele>
        <time>2020-07-10T10:36:46Z</time>
      </trkpt>
      <trkpt lat="48.993099" lon="7.13618">
        <ele>269.0</ele>
        <time>2020-07-10T10:36:49Z</time>
      </trkpt>
      <trkpt lat="48.993045" lon="7.136267">
        <ele>269.0</ele>
        <time>2020-07-10T10:36:51Z</time>
      </trkpt>
      <trkpt lat="48.992993" lon="7.136348">
        <ele>269.0</ele>
        <time>2020-07-10T10:36:53Z</time>
      </trkpt>
      <trkpt lat="48.992945" lon="7.136428">
        <ele>269.0</ele>
        <time>2020-07-10T10:36:55Z</time>
      </trkpt>
      <trkpt lat="48.992869" lon="7.136551">
        <ele>270.0</ele>
        <time>2020-07-10T10:36:58Z</time>
      </trkpt>
      <trkpt lat="48.992817" lon="7.136635">
        <ele>270.0</ele>
        <time>2020-07-10T10:37:00Z</time>
      </trkpt>
      <trkpt lat="48.992764" lon="7.136724">
        <ele>270.0</ele>
        <time>2020-07-10T10:37:02Z</time>
      </trkpt>
      <trkpt lat="48.992738" lon="7.136766">
        <ele>270.0</ele>
        <time>2020-07-10T10:37:03Z</time>
      </trkpt>
      <trkpt lat="48.992656" lon="7.136897">
        <ele>270.0</ele>
        <time>2020-07-10T10:37:06Z</time>
      </trkpt>
      <trkpt lat="48.992602" lon="7.136993">
        <ele>270.0</ele>
        <time>2020-07-10T10:37:08Z</time>
      </trkpt>
      <trkpt lat="48.992547" lon="7.137094">
        <ele>270.0</ele>
        <time>2020-07-10T10:37:10Z</time>
      </trkpt>
      <trkpt lat="48.992492" lon="7.137185">
        <ele>270.0</ele>
        <time>2020-07-10T10:37:12Z</time>
      </trkpt>
      <trkpt lat="48.992404" lon="7.137324">
        <ele>270.0</ele>
        <time>2020-07-10T10:37:15Z</time>
      </trkpt>
      <trkpt lat="48.992348" lon="7.137418">
        <ele>271.0</ele>
        <time>2020-07-10T10:37:17Z</time>
      </trkpt>
      <trkpt lat="48.992296" lon="7.137516">
        <ele>271.0</ele>
        <time>2020-07-10T10:37:19Z</time>
      </trkpt>
      <trkpt lat="48.992216" lon="7.137652">
        <ele>271.0</ele>
        <time>2020-07-10T10:37:22Z</time>
      </trkpt>
      <trkpt lat="48.992193" lon="7.1377">
        <ele>271.0</ele>
        <time>2020-07-10T10:37:23Z</time>
      </trkpt>
      <trkpt lat="48.992117" lon="7.137843">
        <ele>272.0</ele>
        <time>2020-07-10T10:37:26Z</time>
      </trkpt>
      <trkpt lat="48.992036" lon="7.13798">
        <ele>272.0</ele>
        <time>2020-07-10T10:37:29Z</time>
      </trkpt>
      <trkpt lat="48.991948" lon="7.138135">
        <ele>272.0</ele>
        <time>2020-07-10T10:37:32Z</time>
      </trkpt>
      <trkpt lat="48.991887" lon="7.13824">
        <ele>272.0</ele>
        <time>2020-07-10T10:37:34Z</time>
      </trkpt>
      <trkpt lat="48.991833" lon="7.138351">
        <ele>272.0</ele>
        <time>2020-07-10T10:37:36Z</time>
      </trkpt>
      <trkpt lat="48.991774" lon="7.138466">
        <ele>273.0</ele>
        <time>2020-07-10T10:37:38Z</time>
      </trkpt>
      <trkpt lat="48.991676" lon="7.138667">
        <ele>273.0</ele>
        <time>2020-07-10T10:37:41Z</time>
      </trkpt>
      <trkpt lat="48.991609" lon="7.13882">
        <ele>272.0</ele>
        <time>2020-07-10T10:37:43Z</time>
      </trkpt>
      <trkpt lat="48.991538" lon="7.138973">
        <ele>272.0</ele>
        <time>2020-07-10T10:37:45Z</time>
      </trkpt>
      <trkpt lat="48.991464" lon="7.13914">
        <ele>272.0</ele>
        <time>2020-07-10T10:37:47Z</time>
      </trkpt>
      <trkpt lat="48.991387" lon="7.139308">
        <ele>272.0</ele>
        <time>2020-07-10T10:37:49Z</time>
      </trkpt>
      <trkpt lat="48.991349" lon="7.139396">
        <ele>272.0</ele>
        <time>2020-07-10T10:37:50Z</time>
      </trkpt>
      <trkpt lat="48.991229" lon="7.139651">
        <ele>271.0</ele>
        <time>2020-07-10T10:37:53Z</time>
      </trkpt>
      <trkpt lat="48.991149" lon="7.139837">
        <ele>272.0</ele>
        <time>2020-07-10T10:37:55Z</time>
      </trkpt>
      <trkpt lat="48.991057" lon="7.140024">
        <ele>271.0</ele>
        <time>2020-07-10T10:37:57Z</time>
      </trkpt>
      <trkpt lat="48.990966" lon="7.140186">
        <ele>271.0</ele>
        <time>2020-07-10T10:37:59Z</time>
      </trkpt>
      <trkpt lat="48.990872" lon="7.140349">
        <ele>271.0</ele>
        <time>2020-07-10T10:38:01Z</time>
      </trkpt>
      <trkpt lat="48.990766" lon="7.140496">
        <ele>270.0</ele>
        <time>2020-07-10T10:38:03Z</time>
      </trkpt>
      <trkpt lat="48.99067" lon="7.140652">
        <ele>270.0</ele>
        <time>2020-07-10T10:38:05Z</time>
      </trkpt>
      <trkpt lat="48.990564" lon="7.140799">
        <ele>271.0</ele>
        <time>2020-07-10T10:38:07Z</time>
      </trkpt>
      <trkpt lat="48.990462" lon="7.140942">
        <ele>271.0</ele>
        <time>2020-07-10T10:38:09Z</time>
      </trkpt>
      <trkpt lat="48.990355" lon="7.141082">
        <ele>271.0</ele>
        <time>2020-07-10T10:38:11Z</time>
      </trkpt>
      <trkpt lat="48.990246" lon="7.141217">
        <ele>269.0</ele>
        <time>2020-07-10T10:38:13Z</time>
      </trkpt>
      <trkpt lat="48.990126" lon="7.141331">
        <ele>268.0</ele>
        <time>2020-07-10T10:38:15Z</time>
      </trkpt>
      <trkpt lat="48.990011" lon="7.141451">
        <ele>266.0</ele>
        <time>2020-07-10T10:38:17Z</time>
      </trkpt>
      <trkpt lat="48.989897" lon="7.14156">
        <ele>266.0</ele>
        <time>2020-07-10T10:38:19Z</time>
      </trkpt>
      <trkpt lat="48.989791" lon="7.141655">
        <ele>265.0</ele>
        <time>2020-07-10T10:38:21Z</time>
      </trkpt>
      <trkpt lat="48.989682" lon="7.141748">
        <ele>265.0</ele>
        <time>2020-07-10T10:38:23Z</time>
      </trkpt>
      <trkpt lat="48.989573" lon="7.141827">
        <ele>264.0</ele>
        <time>2020-07-10T10:38:25Z</time>
      </trkpt>
      <trkpt lat="48.989473" lon="7.141911">
        <ele>264.0</ele>
        <time>2020-07-10T10:38:27Z</time>
      </trkpt>
      <trkpt lat="48.989376" lon="7.141988">
        <ele>265.0</ele>
        <time>2020-07-10T10:38:29Z</time>
      </trkpt>
      <trkpt lat="48.989283" lon="7.142058">
        <ele>265.0</ele>
        <time>2020-07-10T10:38:31Z</time>
      </trkpt>
      <trkpt lat="48.989185" lon="7.142113">
        <ele>265.0</ele>
        <time>2020-07-10T10:38:33Z</time>
      </trkpt>
      <trkpt lat="48.989094" lon="7.142163">
        <ele>265.0</ele>
        <time>2020-07-10T10:38:35Z</time>
      </trkpt>
      <trkpt lat="48.989005" lon="7.142207">
        <ele>266.0</ele>
        <time>2020-07-10T10:38:37Z</time>
      </trkpt>
      <trkpt lat="48.988917" lon="7.142252">
        <ele>267.0</ele>
        <time>2020-07-10T10:38:39Z</time>
      </trkpt>
      <trkpt lat="48.988828" lon="7.142294">
        <ele>267.0</ele>
        <time>2020-07-10T10:38:41Z</time>
      </trkpt>
      <trkpt lat="48.988738" lon="7.142332">
        <ele>267.0</ele>
        <time>2020-07-10T10:38:43Z</time>
      </trkpt>
      <trkpt lat="48.988593" lon="7.142371">
        <ele>268.0</ele>
        <time>2020-07-10T10:38:46Z</time>
      </trkpt>
      <trkpt lat="48.988547" lon="7.142383">
        <ele>268.0</ele>
        <time>2020-07-10T10:38:47Z</time>
      </trkpt>
      <trkpt lat="48.988402" lon="7.142441">
        <ele>268.0</ele>
        <time>2020-07-10T10:38:50Z</time>
      </trkpt>
      <trkpt lat="48.988263" lon="7.142468">
        <ele>268.0</ele>
        <time>2020-07-10T10:38:53Z</time>
      </trkpt>
      <trkpt lat="48.988122" lon="7.142499">
        <ele>269.0</ele>
        <time>2020-07-10T10:38:56Z</time>
      </trkpt>
      <trkpt lat="48.988029" lon="7.142527">
        <ele>269.0</ele>
        <time>2020-07-10T10:38:58Z</time>
      </trkpt>
      <trkpt lat="48.987928" lon="7.142558">
        <ele>269.0</ele>
        <time>2020-07-10T10:39:00Z</time>
      </trkpt>
      <trkpt lat="48.987833" lon="7.142568">
        <ele>269.0</ele>
        <time>2020-07-10T10:39:02Z</time>
      </trkpt>
      <trkpt lat="48.987734" lon="7.142568">
        <ele>269.0</ele>
        <time>2020-07-10T10:39:04Z</time>
      </trkpt>
      <trkpt lat="48.987589" lon="7.142567">
        <ele>269.0</ele>
        <time>2020-07-10T10:39:07Z</time>
      </trkpt>
      <trkpt lat="48.987492" lon="7.142578">
        <ele>269.0</ele>
        <time>2020-07-10T10:39:09Z</time>
      </trkpt>
      <trkpt lat="48.987389" lon="7.142579">
        <ele>269.0</ele>
        <time>2020-07-10T10:39:11Z</time>
      </trkpt>
      <trkpt lat="48.987282" lon="7.142565">
        <ele>269.0</ele>
        <time>2020-07-10T10:39:13Z</time>
      </trkpt>
      <trkpt lat="48.98717" lon="7.142571">
        <ele>268.0</ele>
        <time>2020-07-10T10:39:15Z</time>
      </trkpt>
      <trkpt lat="48.987064" lon="7.14257">
        <ele>268.0</ele>
        <time>2020-07-10T10:39:17Z</time>
      </trkpt>
      <trkpt lat="48.986958" lon="7.142562">
        <ele>267.0</ele>
        <time>2020-07-10T10:39:19Z</time>
      </trkpt>
      <trkpt lat="48.986804" lon="7.142555">
        <ele>266.0</ele>
        <time>2020-07-10T10:39:22Z</time>
      </trkpt>
      <trkpt lat="48.986706" lon="7.142557">
        <ele>266.0</ele>
        <time>2020-07-10T10:39:24Z</time>
      </trkpt>
      <trkpt lat="48.986605" lon="7.14255">
        <ele>266.0</ele>
        <time>2020-07-10T10:39:26Z</time>
      </trkpt>
      <trkpt lat="48.986508" lon="7.142535">
        <ele>266.0</ele>
        <time>2020-07-10T10:39:28Z</time>
      </trkpt>
      <trkpt lat="48.986411" lon="7.142529">
        <ele>266.0</ele>
        <time>2020-07-10T10:39:30Z</time>
      </trkpt>
      <trkpt lat="48.986311" lon="7.142529">
        <ele>266.0</ele>
        <time>2020-07-10T10:39:32Z</time>
      </trkpt>
      <trkpt lat="48.986157" lon="7.14252">
        <ele>266.0</ele>
        <time>2020-07-10T10:39:35Z</time>
      </trkpt>
      <trkpt lat="48.986008" lon="7.142515">
        <ele>266.0</ele>
        <time>2020-07-10T10:39:38Z</time>
      </trkpt>
      <trkpt lat="48.985906" lon="7.142509">
        <ele>266.0</ele>
        <time>2020-07-10T10:39:40Z</time>
      </trkpt>
      <trkpt lat="48.985855" lon="7.142507">
        <ele>266.0</ele>
        <time>2020-07-10T10:39:41Z</time>
      </trkpt>
      <trkpt lat="48.985705" lon="7.142505">
        <ele>266.0</ele>
        <time>2020-07-10T10:39:44Z</time>
      </trkpt>
      <trkpt lat="48.98555" lon="7.1425">
        <ele>266.0</ele>
        <time>2020-07-10T10:39:47Z</time>
      </trkpt>
      <trkpt lat="48.985341" lon="7.142482">
        <ele>266.0</ele>
        <time>2020-07-10T10:39:51Z</time>
      </trkpt>
      <trkpt lat="48.985287" lon="7.142479">
        <ele>266.0</ele>
        <time>2020-07-10T10:39:52Z</time>
      </trkpt>
      <trkpt lat="48.985129" lon="7.142476">
        <ele>265.0</ele>
        <time>2020-07-10T10:39:55Z</time>
      </trkpt>
      <trkpt lat="48.985028" lon="7.14247">
        <ele>266.0</ele>
        <time>2020-07-10T10:39:57Z</time>
      </trkpt>
      <trkpt lat="48.984932" lon="7.142472">
        <ele>266.0</ele>
        <time>2020-07-10T10:39:59Z</time>
      </trkpt>
      <trkpt lat="48.984832" lon="7.142478">
        <ele>266.0</ele>
        <time>2020-07-10T10:40:01Z</time>
      </trkpt>
      <trkpt lat="48.984737" lon="7.142488">
        <ele>266.0</ele>
        <time>2020-07-10T10:40:03Z</time>
      </trkpt>
      <trkpt lat="48.984636" lon="7.142505">
        <ele>266.0</ele>
        <time>2020-07-10T10:40:05Z</time>
      </trkpt>
      <trkpt lat="48.984539" lon="7.142522">
        <ele>266.0</ele>
        <time>2020-07-10T10:40:07Z</time>
      </trkpt>
      <trkpt lat="48.984442" lon="7.14254">
        <ele>266.0</ele>
        <time>2020-07-10T10:40:09Z</time>
      </trkpt>
      <trkpt lat="48.984345" lon="7.142559">
        <ele>266.0</ele>
        <time>2020-07-10T10:40:11Z</time>
      </trkpt>
      <trkpt lat="48.984248" lon="7.142582">
        <ele>266.0</ele>
        <time>2020-07-10T10:40:13Z</time>
      </trkpt>
      <trkpt lat="48.984152" lon="7.142615">
        <ele>267.0</ele>
        <time>2020-07-10T10:40:15Z</time>
      </trkpt>
      <trkpt lat="48.984056" lon="7.142647">
        <ele>267.0</ele>
        <time>2020-07-10T10:40:17Z</time>
      </trkpt>
      <trkpt lat="48.983961" lon="7.142679">
        <ele>267.0</ele>
        <time>2020-07-10T10:40:19Z</time>
      </trkpt>
      <trkpt lat="48.983914" lon="7.142694">
        <ele>267.0</ele>
        <time>2020-07-10T10:40:20Z</time>
      </trkpt>
      <trkpt lat="48.983775" lon="7.14274">
        <ele>267.0</ele>
        <time>2020-07-10T10:40:23Z</time>
      </trkpt>
      <trkpt lat="48.983681" lon="7.142784">
        <ele>267.0</ele>
        <time>2020-07-10T10:40:25Z</time>
      </trkpt>
      <trkpt lat="48.983547" lon="7.142853">
        <ele>267.0</ele>
        <time>2020-07-10T10:40:28Z</time>
      </trkpt>
      <trkpt lat="48.983467" lon="7.142906">
        <ele>267.0</ele>
        <time>2020-07-10T10:40:30Z</time>
      </trkpt>
      <trkpt lat="48.983389" lon="7.142961">
        <ele>267.0</ele>
        <time>2020-07-10T10:40:32Z</time>
      </trkpt>
      <trkpt lat="48.983261" lon="7.143038">
        <ele>267.0</ele>
        <time>2020-07-10T10:40:35Z</time>
      </trkpt>
      <trkpt lat="48.983175" lon="7.143089">
        <ele>267.0</ele>
        <time>2020-07-10T10:40:37Z</time>
      </trkpt>
      <trkpt lat="48.983133" lon="7.143118">
        <ele>267.0</ele>
        <time>2020-07-10T10:40:38Z</time>
      </trkpt>
      <trkpt lat="48.983005" lon="7.143204">
        <ele>267.0</ele>
        <time>2020-07-10T10:40:41Z</time>
      </trkpt>
      <trkpt lat="48.982926" lon="7.143264">
        <ele>267.0</ele>
        <time>2020-07-10T10:40:43Z</time>
      </trkpt>
      <trkpt lat="48.982845" lon="7.143328">
        <ele>268.0</ele>
        <time>2020-07-10T10:40:45Z</time>
      </trkpt>
      <trkpt lat="48.982767" lon="7.1434">
        <ele>268.0</ele>
        <time>2020-07-10T10:40:47Z</time>
      </trkpt>
      <trkpt lat="48.982692" lon="7.143465">
        <ele>267.0</ele>
        <time>2020-07-10T10:40:49Z</time>
      </trkpt>
      <trkpt lat="48.982617" lon="7.143539">
        <ele>267.0</ele>
        <time>2020-07-10T10:40:51Z</time>
      </trkpt>
      <trkpt lat="48.982533" lon="7.14361">
        <ele>267.0</ele>
        <time>2020-07-10T10:40:53Z</time>
      </trkpt>
      <trkpt lat="48.982412" lon="7.143727">
        <ele>267.0</ele>
        <time>2020-07-10T10:40:56Z</time>
      </trkpt>
      <trkpt lat="48.982318" lon="7.143814">
        <ele>268.0</ele>
        <time>2020-07-10T10:40:58Z</time>
      </trkpt>
      <trkpt lat="48.982218" lon="7.143903">
        <ele>268.0</ele>
        <time>2020-07-10T10:41:00Z</time>
      </trkpt>
      <trkpt lat="48.982124" lon="7.143994">
        <ele>268.0</ele>
        <time>2020-07-10T10:41:02Z</time>
      </trkpt>
      <trkpt lat="48.982027" lon="7.144082">
        <ele>267.0</ele>
        <time>2020-07-10T10:41:04Z</time>
      </trkpt>
      <trkpt lat="48.981924" lon="7.144149">
        <ele>267.0</ele>
        <time>2020-07-10T10:41:06Z</time>
      </trkpt>
      <trkpt lat="48.98183" lon="7.144224">
        <ele>267.0</ele>
        <time>2020-07-10T10:41:08Z</time>
      </trkpt>
      <trkpt lat="48.981739" lon="7.144298">
        <ele>266.0</ele>
        <time>2020-07-10T10:41:10Z</time>
      </trkpt>
      <trkpt lat="48.981603" lon="7.144398">
        <ele>266.0</ele>
        <time>2020-07-10T10:41:13Z</time>
      </trkpt>
      <trkpt lat="48.98156" lon="7.144426">
        <ele>266.0</ele>
        <time>2020-07-10T10:41:14Z</time>
      </trkpt>
      <trkpt lat="48.981432" lon="7.144517">
        <ele>266.0</ele>
        <time>2020-07-10T10:41:17Z</time>
      </trkpt>
      <trkpt lat="48.981283" lon="7.144595">
        <ele>265.0</ele>
        <time>2020-07-10T10:41:20Z</time>
      </trkpt>
      <trkpt lat="48.981176" lon="7.144635">
        <ele>265.0</ele>
        <time>2020-07-10T10:41:22Z</time>
      </trkpt>
      <trkpt lat="48.981077" lon="7.144679">
        <ele>265.0</ele>
        <time>2020-07-10T10:41:24Z</time>
      </trkpt>
      <trkpt lat="48.980983" lon="7.144734">
        <ele>266.0</ele>
        <time>2020-07-10T10:41:26Z</time>
      </trkpt>
      <trkpt lat="48.980891" lon="7.144775">
        <ele>267.0</ele>
        <time>2020-07-10T10:41:28Z</time>
      </trkpt>
      <trkpt lat="48.980798" lon="7.144801">
        <ele>267.0</ele>
        <time>2020-07-10T10:41:30Z</time>
      </trkpt>
      <trkpt lat="48.980705" lon="7.144832">
        <ele>268.0</ele>
        <time>2020-07-10T10:41:32Z</time>
      </trkpt>
      <trkpt lat="48.980517" lon="7.144876">
        <ele>268.0</ele>
        <time>2020-07-10T10:41:36Z</time>
      </trkpt>
      <trkpt lat="48.980426" lon="7.1449">
        <ele>268.0</ele>
        <time>2020-07-10T10:41:38Z</time>
      </trkpt>
      <trkpt lat="48.980383" lon="7.14491">
        <ele>268.0</ele>
        <time>2020-07-10T10:41:39Z</time>
      </trkpt>
      <trkpt lat="48.980236" lon="7.144936">
        <ele>268.0</ele>
        <time>2020-07-10T10:41:42Z</time>
      </trkpt>
      <trkpt lat="48.980143" lon="7.144952">
        <ele>268.0</ele>
        <time>2020-07-10T10:41:44Z</time>
      </trkpt>
      <trkpt lat="48.980045" lon="7.144969">
        <ele>269.0</ele>
        <time>2020-07-10T10:41:46Z</time>
      </trkpt>
      <trkpt lat="48.979949" lon="7.144975">
        <ele>268.0</ele>
        <time>2020-07-10T10:41:48Z</time>
      </trkpt>
      <trkpt lat="48.979861" lon="7.144974">
        <ele>268.0</ele>
        <time>2020-07-10T10:41:50Z</time>
      </trkpt>
      <trkpt lat="48.979767" lon="7.144974">
        <ele>268.0</ele>
        <time>2020-07-10T10:41:52Z</time>
      </trkpt>
      <trkpt lat="48.979676" lon="7.144966">
        <ele>268.0</ele>
        <time>2020-07-10T10:41:54Z</time>
      </trkpt>
      <trkpt lat="48.979583" lon="7.144955">
        <ele>268.0</ele>
        <time>2020-07-10T10:41:56Z</time>
      </trkpt>
      <trkpt lat="48.979445" lon="7.144947">
        <ele>268.0</ele>
        <time>2020-07-10T10:41:59Z</time>
      </trkpt>
      <trkpt lat="48.979398" lon="7.144945">
        <ele>268.0</ele>
        <time>2020-07-10T10:42:00Z</time>
      </trkpt>
      <trkpt lat="48.979269" lon="7.14493">
        <ele>269.0</ele>
        <time>2020-07-10T10:42:03Z</time>
      </trkpt>
      <trkpt lat="48.979183" lon="7.144917">
        <ele>269.0</ele>
        <time>2020-07-10T10:42:05Z</time>
      </trkpt>
      <trkpt lat="48.97914" lon="7.144904">
        <ele>269.0</ele>
        <time>2020-07-10T10:42:06Z</time>
      </trkpt>
      <trkpt lat="48.979003" lon="7.144868">
        <ele>270.0</ele>
        <time>2020-07-10T10:42:09Z</time>
      </trkpt>
      <trkpt lat="48.978914" lon="7.144842">
        <ele>270.0</ele>
        <time>2020-07-10T10:42:11Z</time>
      </trkpt>
      <trkpt lat="48.97878" lon="7.144808">
        <ele>270.0</ele>
        <time>2020-07-10T10:42:14Z</time>
      </trkpt>
      <trkpt lat="48.978693" lon="7.144781">
        <ele>271.0</ele>
        <time>2020-07-10T10:42:16Z</time>
      </trkpt>
      <trkpt lat="48.978603" lon="7.144749">
        <ele>271.0</ele>
        <time>2020-07-10T10:42:18Z</time>
      </trkpt>
      <trkpt lat="48.978512" lon="7.14471">
        <ele>271.0</ele>
        <time>2020-07-10T10:42:20Z</time>
      </trkpt>
      <trkpt lat="48.978422" lon="7.14467">
        <ele>271.0</ele>
        <time>2020-07-10T10:42:22Z</time>
      </trkpt>
      <trkpt lat="48.978332" lon="7.144628">
        <ele>271.0</ele>
        <time>2020-07-10T10:42:24Z</time>
      </trkpt>
      <trkpt lat="48.978244" lon="7.144589">
        <ele>271.0</ele>
        <time>2020-07-10T10:42:26Z</time>
      </trkpt>
      <trkpt lat="48.978153" lon="7.144541">
        <ele>271.0</ele>
        <time>2020-07-10T10:42:28Z</time>
      </trkpt>
      <trkpt lat="48.978109" lon="7.144516">
        <ele>271.0</ele>
        <time>2020-07-10T10:42:29Z</time>
      </trkpt>
      <trkpt lat="48.977982" lon="7.144439">
        <ele>271.0</ele>
        <time>2020-07-10T10:42:32Z</time>
      </trkpt>
      <trkpt lat="48.977894" lon="7.144388">
        <ele>271.0</ele>
        <time>2020-07-10T10:42:34Z</time>
      </trkpt>
      <trkpt lat="48.977769" lon="7.1443">
        <ele>271.0</ele>
        <time>2020-07-10T10:42:37Z</time>
      </trkpt>
      <trkpt lat="48.97773" lon="7.144265">
        <ele>271.0</ele>
        <time>2020-07-10T10:42:38Z</time>
      </trkpt>
      <trkpt lat="48.977547" lon="7.14413">
        <ele>270.0</ele>
        <time>2020-07-10T10:42:42Z</time>
      </trkpt>
      <trkpt lat="48.977461" lon="7.144059">
        <ele>270.0</ele>
        <time>2020-07-10T10:42:44Z</time>
      </trkpt>
      <trkpt lat="48.977373" lon="7.143987">
        <ele>270.0</ele>
        <time>2020-07-10T10:42:46Z</time>
      </trkpt>
      <trkpt lat="48.977287" lon="7.143911">
        <ele>270.0</ele>
        <time>2020-07-10T10:42:48Z</time>
      </trkpt>
      <trkpt lat="48.977201" lon="7.14382">
        <ele>270.0</ele>
        <time>2020-07-10T10:42:50Z</time>
      </trkpt>
      <trkpt lat="48.977111" lon="7.143722">
        <ele>271.0</ele>
        <time>2020-07-10T10:42:52Z</time>
      </trkpt>
      <trkpt lat="48.976979" lon="7.143582">
        <ele>271.0</ele>
        <time>2020-07-10T10:42:55Z</time>
      </trkpt>
      <trkpt lat="48.976886" lon="7.143483">
        <ele>270.0</ele>
        <time>2020-07-10T10:42:57Z</time>
      </trkpt>
      <trkpt lat="48.976793" lon="7.143368">
        <ele>270.0</ele>
        <time>2020-07-10T10:42:59Z</time>
      </trkpt>
      <trkpt lat="48.9767" lon="7.143251">
        <ele>270.0</ele>
        <time>2020-07-10T10:43:01Z</time>
      </trkpt>
      <trkpt lat="48.976566" lon="7.143069">
        <ele>270.0</ele>
        <time>2020-07-10T10:43:04Z</time>
      </trkpt>
      <trkpt lat="48.976476" lon="7.142939">
        <ele>269.0</ele>
        <time>2020-07-10T10:43:06Z</time>
      </trkpt>
      <trkpt lat="48.97638" lon="7.142804">
        <ele>269.0</ele>
        <time>2020-07-10T10:43:08Z</time>
      </trkpt>
      <trkpt lat="48.976283" lon="7.142667">
        <ele>268.0</ele>
        <time>2020-07-10T10:43:10Z</time>
      </trkpt>
      <trkpt lat="48.976186" lon="7.142531">
        <ele>268.0</ele>
        <time>2020-07-10T10:43:12Z</time>
      </trkpt>
      <trkpt lat="48.976086" lon="7.142398">
        <ele>268.0</ele>
        <time>2020-07-10T10:43:14Z</time>
      </trkpt>
      <trkpt lat="48.975993" lon="7.142267">
        <ele>268.0</ele>
        <time>2020-07-10T10:43:16Z</time>
      </trkpt>
      <trkpt lat="48.975899" lon="7.142133">
        <ele>268.0</ele>
        <time>2020-07-10T10:43:18Z</time>
      </trkpt>
      <trkpt lat="48.975757" lon="7.141925">
        <ele>268.0</ele>
        <time>2020-07-10T10:43:21Z</time>
      </trkpt>
      <trkpt lat="48.975659" lon="7.141795">
        <ele>268.0</ele>
        <time>2020-07-10T10:43:23Z</time>
      </trkpt>
      <trkpt lat="48.975563" lon="7.141666">
        <ele>269.0</ele>
        <time>2020-07-10T10:43:25Z</time>
      </trkpt>
      <trkpt lat="48.975473" lon="7.141538">
        <ele>269.0</ele>
        <time>2020-07-10T10:43:27Z</time>
      </trkpt>
      <trkpt lat="48.97538" lon="7.141423">
        <ele>268.0</ele>
        <time>2020-07-10T10:43:29Z</time>
      </trkpt>
      <trkpt lat="48.975237" lon="7.141256">
        <ele>268.0</ele>
        <time>2020-07-10T10:43:32Z</time>
      </trkpt>
      <trkpt lat="48.975141" lon="7.141148">
        <ele>267.0</ele>
        <time>2020-07-10T10:43:34Z</time>
      </trkpt>
      <trkpt lat="48.975053" lon="7.141047">
        <ele>267.0</ele>
        <time>2020-07-10T10:43:36Z</time>
      </trkpt>
      <trkpt lat="48.974966" lon="7.140946">
        <ele>267.0</ele>
        <time>2020-07-10T10:43:38Z</time>
      </trkpt>
      <trkpt lat="48.974833" lon="7.140807">
        <ele>266.0</ele>
        <time>2020-07-10T10:43:41Z</time>
      </trkpt>
      <trkpt lat="48.974788" lon="7.140765">
        <ele>266.0</ele>
        <time>2020-07-10T10:43:42Z</time>
      </trkpt>
      <trkpt lat="48.974663" lon="7.140649">
        <ele>267.0</ele>
        <time>2020-07-10T10:43:45Z</time>
      </trkpt>
      <trkpt lat="48.974541" lon="7.140549">
        <ele>267.0</ele>
        <time>2020-07-10T10:43:48Z</time>
      </trkpt>
      <trkpt lat="48.974464" lon="7.140487">
        <ele>267.0</ele>
        <time>2020-07-10T10:43:50Z</time>
      </trkpt>
      <trkpt lat="48.974383" lon="7.140416">
        <ele>267.0</ele>
        <time>2020-07-10T10:43:52Z</time>
      </trkpt>
      <trkpt lat="48.974306" lon="7.140345">
        <ele>267.0</ele>
        <time>2020-07-10T10:43:54Z</time>
      </trkpt>
      <trkpt lat="48.974233" lon="7.14028">
        <ele>267.0</ele>
        <time>2020-07-10T10:43:56Z</time>
      </trkpt>
      <trkpt lat="48.974129" lon="7.14018">
        <ele>268.0</ele>
        <time>2020-07-10T10:43:59Z</time>
      </trkpt>
      <trkpt lat="48.974058" lon="7.140121">
        <ele>268.0</ele>
        <time>2020-07-10T10:44:01Z</time>
      </trkpt>
      <trkpt lat="48.973958" lon="7.140033">
        <ele>269.0</ele>
        <time>2020-07-10T10:44:04Z</time>
      </trkpt>
      <trkpt lat="48.973885" lon="7.13997">
        <ele>269.0</ele>
        <time>2020-07-10T10:44:06Z</time>
      </trkpt>
      <trkpt lat="48.973811" lon="7.139915">
        <ele>270.0</ele>
        <time>2020-07-10T10:44:08Z</time>
      </trkpt>
      <trkpt lat="48.973737" lon="7.139859">
        <ele>270.0</ele>
        <time>2020-07-10T10:44:10Z</time>
      </trkpt>
      <trkpt lat="48.973699" lon="7.139827">
        <ele>270.0</ele>
        <time>2020-07-10T10:44:11Z</time>
      </trkpt>
      <trkpt lat="48.973589" lon="7.139729">
        <ele>270.0</ele>
        <time>2020-07-10T10:44:14Z</time>
      </trkpt>
      <trkpt lat="48.97352" lon="7.139673">
        <ele>270.0</ele>
        <time>2020-07-10T10:44:16Z</time>
      </trkpt>
      <trkpt lat="48.973485" lon="7.139639">
        <ele>270.0</ele>
        <time>2020-07-10T10:44:17Z</time>
      </trkpt>
      <trkpt lat="48.973387" lon="7.139543">
        <ele>270.0</ele>
        <time>2020-07-10T10:44:20Z</time>
      </trkpt>
      <trkpt lat="48.973282" lon="7.139457">
        <ele>269.0</ele>
        <time>2020-07-10T10:44:23Z</time>
      </trkpt>
      <trkpt lat="48.973212" lon="7.139398">
        <ele>269.0</ele>
        <time>2020-07-10T10:44:25Z</time>
      </trkpt>
      <trkpt lat="48.97311" lon="7.139303">
        <ele>268.0</ele>
        <time>2020-07-10T10:44:28Z</time>
      </trkpt>
      <trkpt lat="48.973039" lon="7.139243">
        <ele>269.0</ele>
        <time>2020-07-10T10:44:30Z</time>
      </trkpt>
      <trkpt lat="48.972927" lon="7.139149">
        <ele>268.0</ele>
        <time>2020-07-10T10:44:33Z</time>
      </trkpt>
      <trkpt lat="48.972856" lon="7.13909">
        <ele>268.0</ele>
        <time>2020-07-10T10:44:35Z</time>
      </trkpt>
      <trkpt lat="48.972784" lon="7.13903">
        <ele>268.0</ele>
        <time>2020-07-10T10:44:37Z</time>
      </trkpt>
      <trkpt lat="48.972713" lon="7.138966">
        <ele>269.0</ele>
        <time>2020-07-10T10:44:39Z</time>
      </trkpt>
      <trkpt lat="48.972645" lon="7.13891">
        <ele>269.0</ele>
        <time>2020-07-10T10:44:41Z</time>
      </trkpt>
      <trkpt lat="48.97254" lon="7.138823">
        <ele>270.0</ele>
        <time>2020-07-10T10:44:44Z</time>
      </trkpt>
      <trkpt lat="48.972471" lon="7.138759">
        <ele>270.0</ele>
        <time>2020-07-10T10:44:46Z</time>
      </trkpt>
      <trkpt lat="48.972399" lon="7.138695">
        <ele>270.0</ele>
        <time>2020-07-10T10:44:48Z</time>
      </trkpt>
      <trkpt lat="48.972326" lon="7.138634">
        <ele>272.0</ele>
        <time>2020-07-10T10:44:50Z</time>
      </trkpt>
      <trkpt lat="48.972257" lon="7.138587">
        <ele>272.0</ele>
        <time>2020-07-10T10:44:52Z</time>
      </trkpt>
      <trkpt lat="48.972188" lon="7.138525">
        <ele>272.0</ele>
        <time>2020-07-10T10:44:54Z</time>
      </trkpt>
      <trkpt lat="48.97212" lon="7.138457">
        <ele>272.0</ele>
        <time>2020-07-10T10:44:56Z</time>
      </trkpt>
      <trkpt lat="48.972049" lon="7.138395">
        <ele>273.0</ele>
        <time>2020-07-10T10:44:58Z</time>
      </trkpt>
      <trkpt lat="48.971949" lon="7.138304">
        <ele>273.0</ele>
        <time>2020-07-10T10:45:01Z</time>
      </trkpt>
      <trkpt lat="48.971839" lon="7.138212">
        <ele>273.0</ele>
        <time>2020-07-10T10:45:04Z</time>
      </trkpt>
      <trkpt lat="48.971774" lon="7.138159">
        <ele>273.0</ele>
        <time>2020-07-10T10:45:06Z</time>
      </trkpt>
      <trkpt lat="48.971741" lon="7.138132">
        <ele>273.0</ele>
        <time>2020-07-10T10:45:07Z</time>
      </trkpt>
      <trkpt lat="48.97161" lon="7.138033">
        <ele>273.0</ele>
        <time>2020-07-10T10:45:11Z</time>
      </trkpt>
      <trkpt lat="48.971547" lon="7.137989">
        <ele>274.0</ele>
        <time>2020-07-10T10:45:13Z</time>
      </trkpt>
      <trkpt lat="48.971519" lon="7.137971">
        <ele>274.0</ele>
        <time>2020-07-10T10:45:14Z</time>
      </trkpt>
      <trkpt lat="48.971387" lon="7.137877">
        <ele>274.0</ele>
        <time>2020-07-10T10:45:18Z</time>
      </trkpt>
      <trkpt lat="48.971326" lon="7.137831">
        <ele>274.0</ele>
        <time>2020-07-10T10:45:20Z</time>
      </trkpt>
      <trkpt lat="48.971233" lon="7.137766">
        <ele>274.0</ele>
        <time>2020-07-10T10:45:23Z</time>
      </trkpt>
      <trkpt lat="48.971169" lon="7.137727">
        <ele>274.0</ele>
        <time>2020-07-10T10:45:25Z</time>
      </trkpt>
      <trkpt lat="48.971133" lon="7.137709">
        <ele>274.0</ele>
        <time>2020-07-10T10:45:26Z</time>
      </trkpt>
      <trkpt lat="48.971029" lon="7.137636">
        <ele>274.0</ele>
        <time>2020-07-10T10:45:29Z</time>
      </trkpt>
      <trkpt lat="48.970961" lon="7.137602">
        <ele>274.0</ele>
        <time>2020-07-10T10:45:31Z</time>
      </trkpt>
      <trkpt lat="48.970892" lon="7.137557">
        <ele>274.0</ele>
        <time>2020-07-10T10:45:33Z</time>
      </trkpt>
      <trkpt lat="48.970822" lon="7.137512">
        <ele>275.0</ele>
        <time>2020-07-10T10:45:35Z</time>
      </trkpt>
      <trkpt lat="48.970751" lon="7.137479">
        <ele>275.0</ele>
        <time>2020-07-10T10:45:37Z</time>
      </trkpt>
      <trkpt lat="48.970681" lon="7.137447">
        <ele>276.0</ele>
        <time>2020-07-10T10:45:39Z</time>
      </trkpt>
      <trkpt lat="48.970568" lon="7.137397">
        <ele>276.0</ele>
        <time>2020-07-10T10:45:42Z</time>
      </trkpt>
      <trkpt lat="48.970494" lon="7.137362">
        <ele>276.0</ele>
        <time>2020-07-10T10:45:44Z</time>
      </trkpt>
      <trkpt lat="48.97042" lon="7.137324">
        <ele>275.0</ele>
        <time>2020-07-10T10:45:46Z</time>
      </trkpt>
      <trkpt lat="48.970342" lon="7.137294">
        <ele>275.0</ele>
        <time>2020-07-10T10:45:48Z</time>
      </trkpt>
      <trkpt lat="48.970263" lon="7.137262">
        <ele>276.0</ele>
        <time>2020-07-10T10:45:50Z</time>
      </trkpt>
      <trkpt lat="48.970152" lon="7.137205">
        <ele>276.0</ele>
        <time>2020-07-10T10:45:53Z</time>
      </trkpt>
      <trkpt lat="48.970072" lon="7.137178">
        <ele>276.0</ele>
        <time>2020-07-10T10:45:55Z</time>
      </trkpt>
      <trkpt lat="48.969994" lon="7.137152">
        <ele>276.0</ele>
        <time>2020-07-10T10:45:57Z</time>
      </trkpt>
      <trkpt lat="48.969918" lon="7.137113">
        <ele>276.0</ele>
        <time>2020-07-10T10:45:59Z</time>
      </trkpt>
      <trkpt lat="48.969836" lon="7.137071">
        <ele>276.0</ele>
        <time>2020-07-10T10:46:01Z</time>
      </trkpt>
      <trkpt lat="48.969711" lon="7.137024">
        <ele>276.0</ele>
        <time>2020-07-10T10:46:04Z</time>
      </trkpt>
      <trkpt lat="48.96963" lon="7.136987">
        <ele>276.0</ele>
        <time>2020-07-10T10:46:06Z</time>
      </trkpt>
      <trkpt lat="48.969545" lon="7.136965">
        <ele>276.0</ele>
        <time>2020-07-10T10:46:08Z</time>
      </trkpt>
      <trkpt lat="48.96942" lon="7.136914">
        <ele>276.0</ele>
        <time>2020-07-10T10:46:11Z</time>
      </trkpt>
      <trkpt lat="48.969327" lon="7.136877">
        <ele>276.0</ele>
        <time>2020-07-10T10:46:13Z</time>
      </trkpt>
      <trkpt lat="48.969187" lon="7.136836">
        <ele>276.0</ele>
        <time>2020-07-10T10:46:16Z</time>
      </trkpt>
      <trkpt lat="48.969087" lon="7.13682">
        <ele>276.0</ele>
        <time>2020-07-10T10:46:18Z</time>
      </trkpt>
      <trkpt lat="48.968992" lon="7.136814">
        <ele>276.0</ele>
        <time>2020-07-10T10:46:20Z</time>
      </trkpt>
      <trkpt lat="48.968884" lon="7.13681">
        <ele>276.0</ele>
        <time>2020-07-10T10:46:22Z</time>
      </trkpt>
      <trkpt lat="48.968771" lon="7.136809">
        <ele>276.0</ele>
        <time>2020-07-10T10:46:24Z</time>
      </trkpt>
      <trkpt lat="48.968657" lon="7.136817">
        <ele>275.0</ele>
        <time>2020-07-10T10:46:26Z</time>
      </trkpt>
      <trkpt lat="48.968543" lon="7.136831">
        <ele>276.0</ele>
        <time>2020-07-10T10:46:28Z</time>
      </trkpt>
      <trkpt lat="48.968372" lon="7.136861">
        <ele>275.0</ele>
        <time>2020-07-10T10:46:31Z</time>
      </trkpt>
      <trkpt lat="48.968256" lon="7.136892">
        <ele>275.0</ele>
        <time>2020-07-10T10:46:33Z</time>
      </trkpt>
      <trkpt lat="48.968139" lon="7.136931">
        <ele>274.0</ele>
        <time>2020-07-10T10:46:35Z</time>
      </trkpt>
      <trkpt lat="48.96808" lon="7.136958">
        <ele>274.0</ele>
        <time>2020-07-10T10:46:36Z</time>
      </trkpt>
      <trkpt lat="48.967901" lon="7.137041">
        <ele>274.0</ele>
        <time>2020-07-10T10:46:39Z</time>
      </trkpt>
      <trkpt lat="48.967776" lon="7.137102">
        <ele>273.0</ele>
        <time>2020-07-10T10:46:41Z</time>
      </trkpt>
      <trkpt lat="48.967586" lon="7.137182">
        <ele>273.0</ele>
        <time>2020-07-10T10:46:44Z</time>
      </trkpt>
      <trkpt lat="48.967462" lon="7.137241">
        <ele>273.0</ele>
        <time>2020-07-10T10:46:46Z</time>
      </trkpt>
      <trkpt lat="48.967335" lon="7.137305">
        <ele>272.0</ele>
        <time>2020-07-10T10:46:48Z</time>
      </trkpt>
      <trkpt lat="48.967139" lon="7.137413">
        <ele>272.0</ele>
        <time>2020-07-10T10:46:51Z</time>
      </trkpt>
      <trkpt lat="48.967007" lon="7.137485">
        <ele>272.0</ele>
        <time>2020-07-10T10:46:53Z</time>
      </trkpt>
      <trkpt lat="48.966822" lon="7.137581">
        <ele>272.0</ele>
        <time>2020-07-10T10:46:56Z</time>
      </trkpt>
      <trkpt lat="48.966697" lon="7.137641">
        <ele>272.0</ele>
        <time>2020-07-10T10:46:58Z</time>
      </trkpt>
      <trkpt lat="48.96651" lon="7.137739">
        <ele>272.0</ele>
        <time>2020-07-10T10:47:01Z</time>
      </trkpt>
      <trkpt lat="48.966387" lon="7.1378">
        <ele>271.0</ele>
        <time>2020-07-10T10:47:03Z</time>
      </trkpt>
      <trkpt lat="48.966272" lon="7.137873">
        <ele>271.0</ele>
        <time>2020-07-10T10:47:05Z</time>
      </trkpt>
      <trkpt lat="48.966162" lon="7.13795">
        <ele>271.0</ele>
        <time>2020-07-10T10:47:07Z</time>
      </trkpt>
      <trkpt lat="48.96611" lon="7.137984">
        <ele>271.0</ele>
        <time>2020-07-10T10:47:08Z</time>
      </trkpt>
      <trkpt lat="48.965936" lon="7.138108">
        <ele>271.0</ele>
        <time>2020-07-10T10:47:11Z</time>
      </trkpt>
      <trkpt lat="48.965837" lon="7.13819">
        <ele>271.0</ele>
        <time>2020-07-10T10:47:13Z</time>
      </trkpt>
      <trkpt lat="48.965683" lon="7.138339">
        <ele>271.0</ele>
        <time>2020-07-10T10:47:16Z</time>
      </trkpt>
      <trkpt lat="48.965583" lon="7.138438">
        <ele>271.0</ele>
        <time>2020-07-10T10:47:18Z</time>
      </trkpt>
      <trkpt lat="48.965485" lon="7.138529">
        <ele>271.0</ele>
        <time>2020-07-10T10:47:20Z</time>
      </trkpt>
      <trkpt lat="48.965384" lon="7.138637">
        <ele>270.0</ele>
        <time>2020-07-10T10:47:22Z</time>
      </trkpt>
      <trkpt lat="48.965236" lon="7.138774">
        <ele>271.0</ele>
        <time>2020-07-10T10:47:25Z</time>
      </trkpt>
      <trkpt lat="48.965147" lon="7.13887">
        <ele>270.0</ele>
        <time>2020-07-10T10:47:27Z</time>
      </trkpt>
      <trkpt lat="48.965051" lon="7.138968">
        <ele>271.0</ele>
        <time>2020-07-10T10:47:29Z</time>
      </trkpt>
      <trkpt lat="48.964911" lon="7.139091">
        <ele>271.0</ele>
        <time>2020-07-10T10:47:32Z</time>
      </trkpt>
      <trkpt lat="48.964823" lon="7.139171">
        <ele>270.0</ele>
        <time>2020-07-10T10:47:34Z</time>
      </trkpt>
      <trkpt lat="48.96473" lon="7.139243">
        <ele>270.0</ele>
        <time>2020-07-10T10:47:36Z</time>
      </trkpt>
      <trkpt lat="48.964638" lon="7.139316">
        <ele>270.0</ele>
        <time>2020-07-10T10:47:38Z</time>
      </trkpt>
      <trkpt lat="48.964503" lon="7.139415">
        <ele>271.0</ele>
        <time>2020-07-10T10:47:41Z</time>
      </trkpt>
      <trkpt lat="48.964408" lon="7.139481">
        <ele>271.0</ele>
        <time>2020-07-10T10:47:43Z</time>
      </trkpt>
      <trkpt lat="48.964361" lon="7.139516">
        <ele>271.0</ele>
        <time>2020-07-10T10:47:44Z</time>
      </trkpt>
      <trkpt lat="48.964219" lon="7.139621">
        <ele>271.0</ele>
        <time>2020-07-10T10:47:47Z</time>
      </trkpt>
      <trkpt lat="48.964124" lon="7.139685">
        <ele>271.0</ele>
        <time>2020-07-10T10:47:49Z</time>
      </trkpt>
      <trkpt lat="48.964035" lon="7.139746">
        <ele>271.0</ele>
        <time>2020-07-10T10:47:51Z</time>
      </trkpt>
      <trkpt lat="48.963909" lon="7.139834">
        <ele>271.0</ele>
        <time>2020-07-10T10:47:54Z</time>
      </trkpt>
      <trkpt lat="48.96383" lon="7.139893">
        <ele>271.0</ele>
        <time>2020-07-10T10:47:56Z</time>
      </trkpt>
      <trkpt lat="48.963755" lon="7.139944">
        <ele>272.0</ele>
        <time>2020-07-10T10:47:58Z</time>
      </trkpt>
      <trkpt lat="48.963681" lon="7.139994">
        <ele>272.0</ele>
        <time>2020-07-10T10:48:00Z</time>
      </trkpt>
      <trkpt lat="48.963611" lon="7.140044">
        <ele>272.0</ele>
        <time>2020-07-10T10:48:02Z</time>
      </trkpt>
      <trkpt lat="48.963506" lon="7.140126">
        <ele>273.0</ele>
        <time>2020-07-10T10:48:05Z</time>
      </trkpt>
      <trkpt lat="48.963435" lon="7.140172">
        <ele>273.0</ele>
        <time>2020-07-10T10:48:07Z</time>
      </trkpt>
      <trkpt lat="48.963364" lon="7.140203">
        <ele>273.0</ele>
        <time>2020-07-10T10:48:09Z</time>
      </trkpt>
      <trkpt lat="48.963292" lon="7.140255">
        <ele>273.0</ele>
        <time>2020-07-10T10:48:11Z</time>
      </trkpt>
      <trkpt lat="48.963204" lon="7.140318">
        <ele>273.0</ele>
        <time>2020-07-10T10:48:14Z</time>
      </trkpt>
      <trkpt lat="48.963145" lon="7.140362">
        <ele>273.0</ele>
        <time>2020-07-10T10:48:16Z</time>
      </trkpt>
      <trkpt lat="48.963072" lon="7.140424">
        <ele>273.0</ele>
        <time>2020-07-10T10:48:19Z</time>
      </trkpt>
      <trkpt lat="48.963026" lon="7.140452">
        <ele>273.0</ele>
        <time>2020-07-10T10:48:21Z</time>
      </trkpt>
      <trkpt lat="48.962985" lon="7.14049">
        <ele>273.0</ele>
        <time>2020-07-10T10:48:23Z</time>
      </trkpt>
      <trkpt lat="48.962944" lon="7.140522">
        <ele>273.0</ele>
        <time>2020-07-10T10:48:25Z</time>
      </trkpt>
      <trkpt lat="48.962904" lon="7.140549">
        <ele>274.0</ele>
        <time>2020-07-10T10:48:27Z</time>
      </trkpt>
      <trkpt lat="48.962863" lon="7.140569">
        <ele>274.0</ele>
        <time>2020-07-10T10:48:29Z</time>
      </trkpt>
      <trkpt lat="48.96281" lon="7.14061">
        <ele>275.0</ele>
        <time>2020-07-10T10:48:32Z</time>
      </trkpt>
      <trkpt lat="48.962775" lon="7.14064">
        <ele>274.0</ele>
        <time>2020-07-10T10:48:34Z</time>
      </trkpt>
      <trkpt lat="48.96274" lon="7.140668">
        <ele>274.0</ele>
        <time>2020-07-10T10:48:36Z</time>
      </trkpt>
      <trkpt lat="48.962725" lon="7.140682">
        <ele>274.0</ele>
        <time>2020-07-10T10:48:37Z</time>
      </trkpt>
      <trkpt lat="48.962692" lon="7.140705">
        <ele>275.0</ele>
        <time>2020-07-10T10:48:39Z</time>
      </trkpt>
      <trkpt lat="48.962646" lon="7.140737">
        <ele>275.0</ele>
        <time>2020-07-10T10:48:42Z</time>
      </trkpt>
      <trkpt lat="48.962613" lon="7.140768">
        <ele>275.0</ele>
        <time>2020-07-10T10:48:44Z</time>
      </trkpt>
      <trkpt lat="48.962574" lon="7.14079">
        <ele>276.0</ele>
        <time>2020-07-10T10:48:46Z</time>
      </trkpt>
      <trkpt lat="48.962557" lon="7.140802">
        <ele>276.0</ele>
        <time>2020-07-10T10:48:47Z</time>
      </trkpt>
      <trkpt lat="48.962486" lon="7.140836">
        <ele>277.0</ele>
        <time>2020-07-10T10:48:51Z</time>
      </trkpt>
      <trkpt lat="48.962451" lon="7.14085">
        <ele>277.0</ele>
        <time>2020-07-10T10:48:53Z</time>
      </trkpt>
      <trkpt lat="48.962415" lon="7.140872">
        <ele>278.0</ele>
        <time>2020-07-10T10:48:55Z</time>
      </trkpt>
      <trkpt lat="48.962398" lon="7.140882">
        <ele>278.0</ele>
        <time>2020-07-10T10:48:56Z</time>
      </trkpt>
      <trkpt lat="48.962341" lon="7.140908">
        <ele>278.0</ele>
        <time>2020-07-10T10:48:59Z</time>
      </trkpt>
      <trkpt lat="48.96232" lon="7.140914">
        <ele>279.0</ele>
        <time>2020-07-10T10:49:00Z</time>
      </trkpt>
      <trkpt lat="48.962249" lon="7.140945">
        <ele>279.0</ele>
        <time>2020-07-10T10:49:04Z</time>
      </trkpt>
      <trkpt lat="48.962214" lon="7.140963">
        <ele>280.0</ele>
        <time>2020-07-10T10:49:06Z</time>
      </trkpt>
      <trkpt lat="48.962179" lon="7.140985">
        <ele>280.0</ele>
        <time>2020-07-10T10:49:08Z</time>
      </trkpt>
      <trkpt lat="48.962141" lon="7.141005">
        <ele>280.0</ele>
        <time>2020-07-10T10:49:10Z</time>
      </trkpt>
      <trkpt lat="48.962081" lon="7.141038">
        <ele>282.0</ele>
        <time>2020-07-10T10:49:13Z</time>
      </trkpt>
      <trkpt lat="48.962057" lon="7.141044">
        <ele>282.0</ele>
        <time>2020-07-10T10:49:14Z</time>
      </trkpt>
      <trkpt lat="48.961995" lon="7.141072">
        <ele>283.0</ele>
        <time>2020-07-10T10:49:17Z</time>
      </trkpt>
      <trkpt lat="48.961952" lon="7.141096">
        <ele>284.0</ele>
        <time>2020-07-10T10:49:19Z</time>
      </trkpt>
      <trkpt lat="48.961908" lon="7.141125">
        <ele>284.0</ele>
        <time>2020-07-10T10:49:21Z</time>
      </trkpt>
      <trkpt lat="48.961864" lon="7.141153">
        <ele>284.0</ele>
        <time>2020-07-10T10:49:23Z</time>
      </trkpt>
      <trkpt lat="48.961795" lon="7.141184">
        <ele>285.0</ele>
        <time>2020-07-10T10:49:26Z</time>
      </trkpt>
      <trkpt lat="48.961744" lon="7.141216">
        <ele>286.0</ele>
        <time>2020-07-10T10:49:28Z</time>
      </trkpt>
      <trkpt lat="48.961679" lon="7.141244">
        <ele>286.0</ele>
        <time>2020-07-10T10:49:30Z</time>
      </trkpt>
      <trkpt lat="48.961618" lon="7.14127">
        <ele>286.0</ele>
        <time>2020-07-10T10:49:32Z</time>
      </trkpt>
      <trkpt lat="48.961554" lon="7.141291">
        <ele>286.0</ele>
        <time>2020-07-10T10:49:34Z</time>
      </trkpt>
      <trkpt lat="48.961492" lon="7.141312">
        <ele>286.0</ele>
        <time>2020-07-10T10:49:36Z</time>
      </trkpt>
      <trkpt lat="48.961434" lon="7.141314">
        <ele>286.0</ele>
        <time>2020-07-10T10:49:38Z</time>
      </trkpt>
      <trkpt lat="48.961373" lon="7.141334">
        <ele>286.0</ele>
        <time>2020-07-10T10:49:40Z</time>
      </trkpt>
      <trkpt lat="48.961283" lon="7.141357">
        <ele>287.0</ele>
        <time>2020-07-10T10:49:43Z</time>
      </trkpt>
      <trkpt lat="48.961225" lon="7.141366">
        <ele>287.0</ele>
        <time>2020-07-10T10:49:45Z</time>
      </trkpt>
      <trkpt lat="48.961166" lon="7.141376">
        <ele>288.0</ele>
        <time>2020-07-10T10:49:47Z</time>
      </trkpt>
      <trkpt lat="48.961106" lon="7.141392">
        <ele>288.0</ele>
        <time>2020-07-10T10:49:49Z</time>
      </trkpt>
      <trkpt lat="48.961009" lon="7.141424">
        <ele>288.0</ele>
        <time>2020-07-10T10:49:52Z</time>
      </trkpt>
      <trkpt lat="48.960956" lon="7.141463">
        <ele>287.0</ele>
        <time>2020-07-10T10:49:54Z</time>
      </trkpt>
      <trkpt lat="48.960904" lon="7.141493">
        <ele>288.0</ele>
        <time>2020-07-10T10:49:56Z</time>
      </trkpt>
      <trkpt lat="48.960821" lon="7.141556">
        <ele>288.0</ele>
        <time>2020-07-10T10:50:00Z</time>
      </trkpt>
      <trkpt lat="48.960781" lon="7.141583">
        <ele>289.0</ele>
        <time>2020-07-10T10:50:02Z</time>
      </trkpt>
      <trkpt lat="48.960741" lon="7.141621">
        <ele>289.0</ele>
        <time>2020-07-10T10:50:04Z</time>
      </trkpt>
      <trkpt lat="48.960706" lon="7.141669">
        <ele>289.0</ele>
        <time>2020-07-10T10:50:06Z</time>
      </trkpt>
      <trkpt lat="48.960675" lon="7.141709">
        <ele>289.0</ele>
        <time>2020-07-10T10:50:08Z</time>
      </trkpt>
      <trkpt lat="48.960655" lon="7.141786">
        <ele>289.0</ele>
        <time>2020-07-10T10:50:10Z</time>
      </trkpt>
      <trkpt lat="48.960626" lon="7.141855">
        <ele>289.0</ele>
        <time>2020-07-10T10:50:12Z</time>
      </trkpt>
      <trkpt lat="48.960589" lon="7.141939">
        <ele>289.0</ele>
        <time>2020-07-10T10:50:14Z</time>
      </trkpt>
      <trkpt lat="48.960554" lon="7.142014">
        <ele>289.0</ele>
        <time>2020-07-10T10:50:16Z</time>
      </trkpt>
      <trkpt lat="48.960531" lon="7.142053">
        <ele>288.0</ele>
        <time>2020-07-10T10:50:19Z</time>
      </trkpt>
      <trkpt lat="48.960533" lon="7.142051">
        <ele>288.0</ele>
        <time>2020-07-10T10:50:20Z</time>
      </trkpt>
      <trkpt lat="48.96054" lon="7.142045">
        <ele>289.0</ele>
        <time>2020-07-10T10:50:23Z</time>
      </trkpt>
      <trkpt lat="48.960537" lon="7.14204">
        <ele>290.0</ele>
        <time>2020-07-10T10:50:25Z</time>
      </trkpt>
      <trkpt lat="48.960529" lon="7.142043">
        <ele>288.0</ele>
        <time>2020-07-10T10:52:44Z</time>
      </trkpt>
      <trkpt lat="48.960529" lon="7.142043">
        <ele>288.0</ele>
        <time>2020-07-10T10:52:46Z</time>
      </trkpt>
      <trkpt lat="48.960529" lon="7.142043">
        <ele>288.0</ele>
        <time>2020-07-10T10:52:49Z</time>
      </trkpt>
      <trkpt lat="48.960529" lon="7.142043">
        <ele>288.0</ele>
        <time>2020-07-10T10:52:51Z</time>
      </trkpt>
      <trkpt lat="48.960529" lon="7.142043">
        <ele>288.0</ele>
        <time>2020-07-10T10:52:53Z</time>
      </trkpt>
      <trkpt lat="48.960529" lon="7.142043">
        <ele>288.0</ele>
        <time>2020-07-10T10:52:55Z</time>
      </trkpt>
      <trkpt lat="48.960529" lon="7.142043">
        <ele>288.0</ele>
        <time>2020-07-10T10:52:57Z</time>
      </trkpt>
      <trkpt lat="48.960529" lon="7.142043">
        <ele>288.0</ele>
        <time>2020-07-10T10:52:59Z</time>
      </trkpt>
      <trkpt lat="48.960525" lon="7.14204">
        <ele>289.0</ele>
        <time>2020-07-10T10:53:01Z</time>
      </trkpt>
      <trkpt lat="48.960524" lon="7.142042">
        <ele>289.0</ele>
        <time>2020-07-10T10:53:03Z</time>
      </trkpt>
      <trkpt lat="48.960521" lon="7.142048">
        <ele>289.0</ele>
        <time>2020-07-10T10:53:05Z</time>
      </trkpt>
      <trkpt lat="48.960521" lon="7.142048">
        <ele>289.0</ele>
        <time>2020-07-10T10:53:07Z</time>
      </trkpt>
      <trkpt lat="48.960516" lon="7.142064">
        <ele>289.0</ele>
        <time>2020-07-10T10:53:09Z</time>
      </trkpt>
      <trkpt lat="48.960495" lon="7.142121">
        <ele>289.0</ele>
        <time>2020-07-10T10:53:11Z</time>
      </trkpt>
      <trkpt lat="48.960462" lon="7.142197">
        <ele>289.0</ele>
        <time>2020-07-10T10:53:13Z</time>
      </trkpt>
      <trkpt lat="48.960414" lon="7.142306">
        <ele>290.0</ele>
        <time>2020-07-10T10:53:15Z</time>
      </trkpt>
      <trkpt lat="48.960358" lon="7.142437">
        <ele>289.0</ele>
        <time>2020-07-10T10:53:17Z</time>
      </trkpt>
      <trkpt lat="48.960288" lon="7.142593">
        <ele>289.0</ele>
        <time>2020-07-10T10:53:19Z</time>
      </trkpt>
      <trkpt lat="48.960192" lon="7.142768">
        <ele>288.0</ele>
        <time>2020-07-10T10:53:21Z</time>
      </trkpt>
      <trkpt lat="48.960092" lon="7.142967">
        <ele>286.0</ele>
        <time>2020-07-10T10:53:23Z</time>
      </trkpt>
      <trkpt lat="48.959979" lon="7.143182">
        <ele>284.0</ele>
        <time>2020-07-10T10:53:25Z</time>
      </trkpt>
      <trkpt lat="48.959846" lon="7.143387">
        <ele>283.0</ele>
        <time>2020-07-10T10:53:27Z</time>
      </trkpt>
      <trkpt lat="48.95968" lon="7.143564">
        <ele>281.0</ele>
        <time>2020-07-10T10:53:29Z</time>
      </trkpt>
      <trkpt lat="48.959489" lon="7.143705">
        <ele>279.0</ele>
        <time>2020-07-10T10:53:31Z</time>
      </trkpt>
      <trkpt lat="48.959303" lon="7.143801">
        <ele>278.0</ele>
        <time>2020-07-10T10:53:33Z</time>
      </trkpt>
      <trkpt lat="48.959115" lon="7.143899">
        <ele>278.0</ele>
        <time>2020-07-10T10:53:35Z</time>
      </trkpt>
      <trkpt lat="48.95893" lon="7.144025">
        <ele>278.0</ele>
        <time>2020-07-10T10:53:37Z</time>
      </trkpt>
      <trkpt lat="48.958754" lon="7.144169">
        <ele>277.0</ele>
        <time>2020-07-10T10:53:39Z</time>
      </trkpt>
      <trkpt lat="48.958591" lon="7.14431">
        <ele>276.0</ele>
        <time>2020-07-10T10:53:41Z</time>
      </trkpt>
      <trkpt lat="48.958433" lon="7.144459">
        <ele>276.0</ele>
        <time>2020-07-10T10:53:43Z</time>
      </trkpt>
      <trkpt lat="48.958281" lon="7.144606">
        <ele>275.0</ele>
        <time>2020-07-10T10:53:45Z</time>
      </trkpt>
      <trkpt lat="48.958139" lon="7.144752">
        <ele>276.0</ele>
        <time>2020-07-10T10:53:47Z</time>
      </trkpt>
      <trkpt lat="48.958003" lon="7.144869">
        <ele>276.0</ele>
        <time>2020-07-10T10:53:49Z</time>
      </trkpt>
      <trkpt lat="48.957943" lon="7.144939">
        <ele>276.0</ele>
        <time>2020-07-10T10:53:50Z</time>
      </trkpt>
      <trkpt lat="48.957744" lon="7.14524">
        <ele>275.0</ele>
        <time>2020-07-10T10:53:54Z</time>
      </trkpt>
      <trkpt lat="48.957705" lon="7.145312">
        <ele>275.0</ele>
        <time>2020-07-10T10:53:55Z</time>
      </trkpt>
      <trkpt lat="48.957634" lon="7.145468">
        <ele>275.0</ele>
        <time>2020-07-10T10:53:57Z</time>
      </trkpt>
      <trkpt lat="48.957538" lon="7.145727">
        <ele>274.0</ele>
        <time>2020-07-10T10:54:00Z</time>
      </trkpt>
      <trkpt lat="48.957449" lon="7.145983">
        <ele>274.0</ele>
        <time>2020-07-10T10:54:03Z</time>
      </trkpt>
      <trkpt lat="48.957385" lon="7.146163">
        <ele>274.0</ele>
        <time>2020-07-10T10:54:05Z</time>
      </trkpt>
      <trkpt lat="48.957292" lon="7.146416">
        <ele>275.0</ele>
        <time>2020-07-10T10:54:08Z</time>
      </trkpt>
      <trkpt lat="48.957231" lon="7.146569">
        <ele>275.0</ele>
        <time>2020-07-10T10:54:10Z</time>
      </trkpt>
      <trkpt lat="48.957195" lon="7.146636">
        <ele>275.0</ele>
        <time>2020-07-10T10:54:11Z</time>
      </trkpt>
      <trkpt lat="48.957099" lon="7.146859">
        <ele>275.0</ele>
        <time>2020-07-10T10:54:14Z</time>
      </trkpt>
      <trkpt lat="48.95694" lon="7.147097">
        <ele>276.0</ele>
        <time>2020-07-10T10:54:18Z</time>
      </trkpt>
      <trkpt lat="48.95686" lon="7.147221">
        <ele>276.0</ele>
        <time>2020-07-10T10:54:20Z</time>
      </trkpt>
      <trkpt lat="48.956782" lon="7.147344">
        <ele>276.0</ele>
        <time>2020-07-10T10:54:22Z</time>
      </trkpt>
      <trkpt lat="48.956699" lon="7.147458">
        <ele>276.0</ele>
        <time>2020-07-10T10:54:24Z</time>
      </trkpt>
      <trkpt lat="48.956616" lon="7.147556">
        <ele>277.0</ele>
        <time>2020-07-10T10:54:26Z</time>
      </trkpt>
      <trkpt lat="48.956537" lon="7.147653">
        <ele>277.0</ele>
        <time>2020-07-10T10:54:28Z</time>
      </trkpt>
      <trkpt lat="48.956461" lon="7.147753">
        <ele>278.0</ele>
        <time>2020-07-10T10:54:30Z</time>
      </trkpt>
      <trkpt lat="48.956391" lon="7.147847">
        <ele>278.0</ele>
        <time>2020-07-10T10:54:32Z</time>
      </trkpt>
      <trkpt lat="48.956317" lon="7.147944">
        <ele>278.0</ele>
        <time>2020-07-10T10:54:34Z</time>
      </trkpt>
      <trkpt lat="48.956207" lon="7.148088">
        <ele>279.0</ele>
        <time>2020-07-10T10:54:37Z</time>
      </trkpt>
      <trkpt lat="48.956133" lon="7.148193">
        <ele>279.0</ele>
        <time>2020-07-10T10:54:39Z</time>
      </trkpt>
      <trkpt lat="48.956054" lon="7.148297">
        <ele>279.0</ele>
        <time>2020-07-10T10:54:41Z</time>
      </trkpt>
      <trkpt lat="48.955978" lon="7.148396">
        <ele>279.0</ele>
        <time>2020-07-10T10:54:43Z</time>
      </trkpt>
      <trkpt lat="48.955942" lon="7.148448">
        <ele>280.0</ele>
        <time>2020-07-10T10:54:44Z</time>
      </trkpt>
      <trkpt lat="48.95579" lon="7.148678">
        <ele>279.0</ele>
        <time>2020-07-10T10:54:48Z</time>
      </trkpt>
      <trkpt lat="48.955712" lon="7.148798">
        <ele>279.0</ele>
        <time>2020-07-10T10:54:50Z</time>
      </trkpt>
      <trkpt lat="48.955633" lon="7.148922">
        <ele>279.0</ele>
        <time>2020-07-10T10:54:52Z</time>
      </trkpt>
      <trkpt lat="48.955512" lon="7.149125">
        <ele>279.0</ele>
        <time>2020-07-10T10:54:55Z</time>
      </trkpt>
      <trkpt lat="48.95543" lon="7.149266">
        <ele>280.0</ele>
        <time>2020-07-10T10:54:57Z</time>
      </trkpt>
      <trkpt lat="48.955344" lon="7.14941">
        <ele>279.0</ele>
        <time>2020-07-10T10:54:59Z</time>
      </trkpt>
      <trkpt lat="48.955213" lon="7.149629">
        <ele>279.0</ele>
        <time>2020-07-10T10:55:02Z</time>
      </trkpt>
      <trkpt lat="48.955125" lon="7.149782">
        <ele>279.0</ele>
        <time>2020-07-10T10:55:04Z</time>
      </trkpt>
      <trkpt lat="48.955041" lon="7.149933">
        <ele>280.0</ele>
        <time>2020-07-10T10:55:06Z</time>
      </trkpt>
      <trkpt lat="48.954952" lon="7.150087">
        <ele>279.0</ele>
        <time>2020-07-10T10:55:08Z</time>
      </trkpt>
      <trkpt lat="48.954814" lon="7.150307">
        <ele>278.0</ele>
        <time>2020-07-10T10:55:11Z</time>
      </trkpt>
      <trkpt lat="48.954723" lon="7.150462">
        <ele>278.0</ele>
        <time>2020-07-10T10:55:13Z</time>
      </trkpt>
      <trkpt lat="48.954636" lon="7.150617">
        <ele>278.0</ele>
        <time>2020-07-10T10:55:15Z</time>
      </trkpt>
      <trkpt lat="48.954513" lon="7.150839">
        <ele>278.0</ele>
        <time>2020-07-10T10:55:18Z</time>
      </trkpt>
      <trkpt lat="48.954428" lon="7.150995">
        <ele>278.0</ele>
        <time>2020-07-10T10:55:20Z</time>
      </trkpt>
      <trkpt lat="48.954348" lon="7.151143">
        <ele>278.0</ele>
        <time>2020-07-10T10:55:22Z</time>
      </trkpt>
      <trkpt lat="48.954268" lon="7.151289">
        <ele>278.0</ele>
        <time>2020-07-10T10:55:24Z</time>
      </trkpt>
      <trkpt lat="48.9542" lon="7.151445">
        <ele>278.0</ele>
        <time>2020-07-10T10:55:26Z</time>
      </trkpt>
      <trkpt lat="48.95413" lon="7.151583">
        <ele>278.0</ele>
        <time>2020-07-10T10:55:28Z</time>
      </trkpt>
      <trkpt lat="48.954066" lon="7.151716">
        <ele>278.0</ele>
        <time>2020-07-10T10:55:30Z</time>
      </trkpt>
      <trkpt lat="48.954005" lon="7.151848">
        <ele>279.0</ele>
        <time>2020-07-10T10:55:32Z</time>
      </trkpt>
      <trkpt lat="48.953947" lon="7.151976">
        <ele>279.0</ele>
        <time>2020-07-10T10:55:34Z</time>
      </trkpt>
      <trkpt lat="48.953863" lon="7.152162">
        <ele>279.0</ele>
        <time>2020-07-10T10:55:37Z</time>
      </trkpt>
      <trkpt lat="48.953815" lon="7.152302">
        <ele>279.0</ele>
        <time>2020-07-10T10:55:39Z</time>
      </trkpt>
      <trkpt lat="48.953763" lon="7.152434">
        <ele>279.0</ele>
        <time>2020-07-10T10:55:41Z</time>
      </trkpt>
      <trkpt lat="48.953715" lon="7.15257">
        <ele>279.0</ele>
        <time>2020-07-10T10:55:43Z</time>
      </trkpt>
      <trkpt lat="48.953638" lon="7.15277">
        <ele>279.0</ele>
        <time>2020-07-10T10:55:46Z</time>
      </trkpt>
      <trkpt lat="48.953592" lon="7.152906">
        <ele>279.0</ele>
        <time>2020-07-10T10:55:48Z</time>
      </trkpt>
      <trkpt lat="48.953549" lon="7.153049">
        <ele>279.0</ele>
        <time>2020-07-10T10:55:50Z</time>
      </trkpt>
      <trkpt lat="48.953511" lon="7.153195">
        <ele>279.0</ele>
        <time>2020-07-10T10:55:52Z</time>
      </trkpt>
      <trkpt lat="48.953489" lon="7.153267">
        <ele>279.0</ele>
        <time>2020-07-10T10:55:53Z</time>
      </trkpt>
      <trkpt lat="48.953413" lon="7.153465">
        <ele>279.0</ele>
        <time>2020-07-10T10:55:56Z</time>
      </trkpt>
      <trkpt lat="48.953365" lon="7.153614">
        <ele>279.0</ele>
        <time>2020-07-10T10:55:58Z</time>
      </trkpt>
      <trkpt lat="48.953314" lon="7.153766">
        <ele>279.0</ele>
        <time>2020-07-10T10:56:00Z</time>
      </trkpt>
      <trkpt lat="48.953258" lon="7.153936">
        <ele>279.0</ele>
        <time>2020-07-10T10:56:02Z</time>
      </trkpt>
      <trkpt lat="48.953203" lon="7.154092">
        <ele>278.0</ele>
        <time>2020-07-10T10:56:04Z</time>
      </trkpt>
      <trkpt lat="48.953147" lon="7.154251">
        <ele>278.0</ele>
        <time>2020-07-10T10:56:06Z</time>
      </trkpt>
      <trkpt lat="48.953102" lon="7.154429">
        <ele>277.0</ele>
        <time>2020-07-10T10:56:08Z</time>
      </trkpt>
      <trkpt lat="48.953036" lon="7.154691">
        <ele>277.0</ele>
        <time>2020-07-10T10:56:11Z</time>
      </trkpt>
      <trkpt lat="48.953006" lon="7.154874">
        <ele>277.0</ele>
        <time>2020-07-10T10:56:13Z</time>
      </trkpt>
      <trkpt lat="48.95298" lon="7.155052">
        <ele>277.0</ele>
        <time>2020-07-10T10:56:15Z</time>
      </trkpt>
      <trkpt lat="48.952958" lon="7.155225">
        <ele>277.0</ele>
        <time>2020-07-10T10:56:17Z</time>
      </trkpt>
      <trkpt lat="48.952933" lon="7.155406">
        <ele>277.0</ele>
        <time>2020-07-10T10:56:19Z</time>
      </trkpt>
      <trkpt lat="48.952915" lon="7.155589">
        <ele>277.0</ele>
        <time>2020-07-10T10:56:21Z</time>
      </trkpt>
      <trkpt lat="48.952885" lon="7.15577">
        <ele>277.0</ele>
        <time>2020-07-10T10:56:23Z</time>
      </trkpt>
      <trkpt lat="48.952857" lon="7.156027">
        <ele>277.0</ele>
        <time>2020-07-10T10:56:26Z</time>
      </trkpt>
      <trkpt lat="48.952815" lon="7.156279">
        <ele>277.0</ele>
        <time>2020-07-10T10:56:29Z</time>
      </trkpt>
      <trkpt lat="48.952792" lon="7.156449">
        <ele>277.0</ele>
        <time>2020-07-10T10:56:31Z</time>
      </trkpt>
      <trkpt lat="48.952773" lon="7.156617">
        <ele>277.0</ele>
        <time>2020-07-10T10:56:33Z</time>
      </trkpt>
      <trkpt lat="48.952733" lon="7.15687">
        <ele>277.0</ele>
        <time>2020-07-10T10:56:36Z</time>
      </trkpt>
      <trkpt lat="48.952708" lon="7.157035">
        <ele>277.0</ele>
        <time>2020-07-10T10:56:38Z</time>
      </trkpt>
      <trkpt lat="48.952684" lon="7.157202">
        <ele>277.0</ele>
        <time>2020-07-10T10:56:40Z</time>
      </trkpt>
      <trkpt lat="48.95266" lon="7.157369">
        <ele>277.0</ele>
        <time>2020-07-10T10:56:42Z</time>
      </trkpt>
      <trkpt lat="48.952634" lon="7.157538">
        <ele>277.0</ele>
        <time>2020-07-10T10:56:44Z</time>
      </trkpt>
      <trkpt lat="48.95261" lon="7.157704">
        <ele>277.0</ele>
        <time>2020-07-10T10:56:46Z</time>
      </trkpt>
      <trkpt lat="48.952584" lon="7.157877">
        <ele>277.0</ele>
        <time>2020-07-10T10:56:48Z</time>
      </trkpt>
      <trkpt lat="48.952561" lon="7.158042">
        <ele>277.0</ele>
        <time>2020-07-10T10:56:50Z</time>
      </trkpt>
      <trkpt lat="48.952534" lon="7.158209">
        <ele>277.0</ele>
        <time>2020-07-10T10:56:52Z</time>
      </trkpt>
      <trkpt lat="48.952508" lon="7.158373">
        <ele>277.0</ele>
        <time>2020-07-10T10:56:54Z</time>
      </trkpt>
      <trkpt lat="48.952476" lon="7.158535">
        <ele>277.0</ele>
        <time>2020-07-10T10:56:56Z</time>
      </trkpt>
      <trkpt lat="48.952435" lon="7.158775">
        <ele>277.0</ele>
        <time>2020-07-10T10:56:59Z</time>
      </trkpt>
      <trkpt lat="48.952408" lon="7.158945">
        <ele>277.0</ele>
        <time>2020-07-10T10:57:01Z</time>
      </trkpt>
      <trkpt lat="48.952383" lon="7.159107">
        <ele>277.0</ele>
        <time>2020-07-10T10:57:03Z</time>
      </trkpt>
      <trkpt lat="48.952362" lon="7.159279">
        <ele>278.0</ele>
        <time>2020-07-10T10:57:05Z</time>
      </trkpt>
      <trkpt lat="48.952339" lon="7.159449">
        <ele>278.0</ele>
        <time>2020-07-10T10:57:07Z</time>
      </trkpt>
      <trkpt lat="48.952311" lon="7.159618">
        <ele>278.0</ele>
        <time>2020-07-10T10:57:09Z</time>
      </trkpt>
      <trkpt lat="48.952263" lon="7.159859">
        <ele>277.0</ele>
        <time>2020-07-10T10:57:12Z</time>
      </trkpt>
      <trkpt lat="48.952249" lon="7.159944">
        <ele>277.0</ele>
        <time>2020-07-10T10:57:13Z</time>
      </trkpt>
      <trkpt lat="48.952207" lon="7.160194">
        <ele>277.0</ele>
        <time>2020-07-10T10:57:16Z</time>
      </trkpt>
      <trkpt lat="48.952169" lon="7.160428">
        <ele>277.0</ele>
        <time>2020-07-10T10:57:19Z</time>
      </trkpt>
      <trkpt lat="48.952156" lon="7.160502">
        <ele>277.0</ele>
        <time>2020-07-10T10:57:20Z</time>
      </trkpt>
      <trkpt lat="48.952096" lon="7.160771">
        <ele>278.0</ele>
        <time>2020-07-10T10:57:24Z</time>
      </trkpt>
      <trkpt lat="48.952056" lon="7.160883">
        <ele>278.0</ele>
        <time>2020-07-10T10:57:26Z</time>
      </trkpt>
      <trkpt lat="48.952019" lon="7.160978">
        <ele>278.0</ele>
        <time>2020-07-10T10:57:28Z</time>
      </trkpt>
      <trkpt lat="48.951955" lon="7.161035">
        <ele>278.0</ele>
        <time>2020-07-10T10:57:30Z</time>
      </trkpt>
      <trkpt lat="48.951891" lon="7.161094">
        <ele>278.0</ele>
        <time>2020-07-10T10:57:32Z</time>
      </trkpt>
      <trkpt lat="48.951853" lon="7.161203">
        <ele>278.0</ele>
        <time>2020-07-10T10:57:34Z</time>
      </trkpt>
      <trkpt lat="48.951848" lon="7.161373">
        <ele>277.0</ele>
        <time>2020-07-10T10:57:37Z</time>
      </trkpt>
      <trkpt lat="48.951834" lon="7.161486">
        <ele>277.0</ele>
        <time>2020-07-10T10:57:39Z</time>
      </trkpt>
      <trkpt lat="48.951803" lon="7.161559">
        <ele>277.0</ele>
        <time>2020-07-10T10:57:41Z</time>
      </trkpt>
      <trkpt lat="48.951775" lon="7.161542">
        <ele>277.0</ele>
        <time>2020-07-10T10:57:43Z</time>
      </trkpt>
      <trkpt lat="48.951773" lon="7.161541">
        <ele>277.0</ele>
        <time>2020-07-10T10:57:44Z</time>
      </trkpt>
      <trkpt lat="48.951778" lon="7.161539">
        <ele>277.0</ele>
        <time>2020-07-10T10:57:47Z</time>
      </trkpt>
      <trkpt lat="48.951778" lon="7.161539">
        <ele>277.0</ele>
        <time>2020-07-10T10:57:49Z</time>
      </trkpt>
      <trkpt lat="48.951778" lon="7.161539">
        <ele>277.0</ele>
        <time>2020-07-10T10:57:51Z</time>
      </trkpt>
      <trkpt lat="48.951778" lon="7.161539">
        <ele>277.0</ele>
        <time>2020-07-10T10:57:53Z</time>
      </trkpt>
      <trkpt lat="48.951778" lon="7.161539">
        <ele>277.0</ele>
        <time>2020-07-10T10:57:55Z</time>
      </trkpt>
      <trkpt lat="48.951778" lon="7.161539">
        <ele>277.0</ele>
        <time>2020-07-10T10:57:57Z</time>
      </trkpt>
      <trkpt lat="48.951778" lon="7.161539">
        <ele>277.0</ele>
        <time>2020-07-10T10:57:59Z</time>
      </trkpt>
      <trkpt lat="48.951778" lon="7.161539">
        <ele>277.0</ele>
        <time>2020-07-10T10:58:01Z</time>
      </trkpt>
      <trkpt lat="48.951773" lon="7.16154">
        <ele>277.0</ele>
        <time>2020-07-10T10:58:03Z</time>
      </trkpt>
      <trkpt lat="48.951779" lon="7.161509">
        <ele>276.0</ele>
        <time>2020-07-10T10:58:05Z</time>
      </trkpt>
      <trkpt lat="48.951806" lon="7.161479">
        <ele>276.0</ele>
        <time>2020-07-10T10:58:07Z</time>
      </trkpt>
      <trkpt lat="48.951844" lon="7.161451">
        <ele>276.0</ele>
        <time>2020-07-10T10:58:09Z</time>
      </trkpt>
      <trkpt lat="48.951892" lon="7.161453">
        <ele>276.0</ele>
        <time>2020-07-10T10:58:11Z</time>
      </trkpt>
      <trkpt lat="48.951946" lon="7.161489">
        <ele>276.0</ele>
        <time>2020-07-10T10:58:13Z</time>
      </trkpt>
      <trkpt lat="48.951995" lon="7.161553">
        <ele>277.0</ele>
        <time>2020-07-10T10:58:15Z</time>
      </trkpt>
      <trkpt lat="48.952036" lon="7.161633">
        <ele>277.0</ele>
        <time>2020-07-10T10:58:17Z</time>
      </trkpt>
      <trkpt lat="48.95206" lon="7.161758">
        <ele>278.0</ele>
        <time>2020-07-10T10:58:19Z</time>
      </trkpt>
      <trkpt lat="48.952096" lon="7.161869">
        <ele>279.0</ele>
        <time>2020-07-10T10:58:21Z</time>
      </trkpt>
      <trkpt lat="48.952136" lon="7.161992">
        <ele>279.0</ele>
        <time>2020-07-10T10:58:23Z</time>
      </trkpt>
      <trkpt lat="48.952172" lon="7.162132">
        <ele>280.0</ele>
        <time>2020-07-10T10:58:25Z</time>
      </trkpt>
      <trkpt lat="48.952215" lon="7.162277">
        <ele>279.0</ele>
        <time>2020-07-10T10:58:27Z</time>
      </trkpt>
      <trkpt lat="48.952259" lon="7.162425">
        <ele>279.0</ele>
        <time>2020-07-10T10:58:29Z</time>
      </trkpt>
      <trkpt lat="48.952305" lon="7.162584">
        <ele>278.0</ele>
        <time>2020-07-10T10:58:31Z</time>
      </trkpt>
      <trkpt lat="48.952349" lon="7.162748">
        <ele>278.0</ele>
        <time>2020-07-10T10:58:33Z</time>
      </trkpt>
      <trkpt lat="48.95239" lon="7.162916">
        <ele>277.0</ele>
        <time>2020-07-10T10:58:35Z</time>
      </trkpt>
      <trkpt lat="48.952427" lon="7.163068">
        <ele>276.0</ele>
        <time>2020-07-10T10:58:37Z</time>
      </trkpt>
      <trkpt lat="48.952466" lon="7.163206">
        <ele>276.0</ele>
        <time>2020-07-10T10:58:39Z</time>
      </trkpt>
      <trkpt lat="48.952507" lon="7.163323">
        <ele>275.0</ele>
        <time>2020-07-10T10:58:41Z</time>
      </trkpt>
      <trkpt lat="48.952606" lon="7.163418">
        <ele>275.0</ele>
        <time>2020-07-10T10:58:44Z</time>
      </trkpt>
      <trkpt lat="48.952667" lon="7.163451">
        <ele>275.0</ele>
        <time>2020-07-10T10:58:46Z</time>
      </trkpt>
      <trkpt lat="48.952709" lon="7.163576">
        <ele>276.0</ele>
        <time>2020-07-10T10:58:48Z</time>
      </trkpt>
      <trkpt lat="48.952718" lon="7.163649">
        <ele>275.0</ele>
        <time>2020-07-10T10:58:49Z</time>
      </trkpt>
      <trkpt lat="48.952762" lon="7.163961">
        <ele>275.0</ele>
        <time>2020-07-10T10:58:53Z</time>
      </trkpt>
      <trkpt lat="48.952783" lon="7.164124">
        <ele>275.0</ele>
        <time>2020-07-10T10:58:55Z</time>
      </trkpt>
      <trkpt lat="48.952814" lon="7.164387">
        <ele>274.0</ele>
        <time>2020-07-10T10:58:58Z</time>
      </trkpt>
      <trkpt lat="48.952823" lon="7.164479">
        <ele>273.0</ele>
        <time>2020-07-10T10:58:59Z</time>
      </trkpt>
      <trkpt lat="48.95286" lon="7.16484">
        <ele>273.0</ele>
        <time>2020-07-10T10:59:03Z</time>
      </trkpt>
      <trkpt lat="48.95288" lon="7.165036">
        <ele>272.0</ele>
        <time>2020-07-10T10:59:05Z</time>
      </trkpt>
      <trkpt lat="48.952908" lon="7.165335">
        <ele>272.0</ele>
        <time>2020-07-10T10:59:08Z</time>
      </trkpt>
      <trkpt lat="48.952918" lon="7.16553">
        <ele>272.0</ele>
        <time>2020-07-10T10:59:10Z</time>
      </trkpt>
      <trkpt lat="48.952926" lon="7.165614">
        <ele>272.0</ele>
        <time>2020-07-10T10:59:11Z</time>
      </trkpt>
      <trkpt lat="48.952949" lon="7.165837">
        <ele>272.0</ele>
        <time>2020-07-10T10:59:14Z</time>
      </trkpt>
      <trkpt lat="48.952958" lon="7.165997">
        <ele>272.0</ele>
        <time>2020-07-10T10:59:16Z</time>
      </trkpt>
      <trkpt lat="48.952969" lon="7.16616">
        <ele>272.0</ele>
        <time>2020-07-10T10:59:18Z</time>
      </trkpt>
      <trkpt lat="48.95298" lon="7.16632">
        <ele>272.0</ele>
        <time>2020-07-10T10:59:20Z</time>
      </trkpt>
      <trkpt lat="48.952994" lon="7.166488">
        <ele>272.0</ele>
        <time>2020-07-10T10:59:22Z</time>
      </trkpt>
      <trkpt lat="48.953014" lon="7.166654">
        <ele>272.0</ele>
        <time>2020-07-10T10:59:24Z</time>
      </trkpt>
      <trkpt lat="48.953033" lon="7.166818">
        <ele>272.0</ele>
        <time>2020-07-10T10:59:26Z</time>
      </trkpt>
      <trkpt lat="48.953052" lon="7.166985">
        <ele>272.0</ele>
        <time>2020-07-10T10:59:28Z</time>
      </trkpt>
      <trkpt lat="48.953071" lon="7.167246">
        <ele>271.0</ele>
        <time>2020-07-10T10:59:31Z</time>
      </trkpt>
      <trkpt lat="48.953085" lon="7.16742">
        <ele>271.0</ele>
        <time>2020-07-10T10:59:33Z</time>
      </trkpt>
      <trkpt lat="48.953095" lon="7.167592">
        <ele>271.0</ele>
        <time>2020-07-10T10:59:35Z</time>
      </trkpt>
      <trkpt lat="48.953106" lon="7.167767">
        <ele>271.0</ele>
        <time>2020-07-10T10:59:37Z</time>
      </trkpt>
      <trkpt lat="48.953123" lon="7.168032">
        <ele>272.0</ele>
        <time>2020-07-10T10:59:40Z</time>
      </trkpt>
      <trkpt lat="48.953141" lon="7.168211">
        <ele>272.0</ele>
        <time>2020-07-10T10:59:42Z</time>
      </trkpt>
      <trkpt lat="48.953157" lon="7.168388">
        <ele>272.0</ele>
        <time>2020-07-10T10:59:44Z</time>
      </trkpt>
      <trkpt lat="48.953175" lon="7.168659">
        <ele>272.0</ele>
        <time>2020-07-10T10:59:47Z</time>
      </trkpt>
      <trkpt lat="48.953192" lon="7.168828">
        <ele>272.0</ele>
        <time>2020-07-10T10:59:49Z</time>
      </trkpt>
      <trkpt lat="48.95321" lon="7.169014">
        <ele>272.0</ele>
        <time>2020-07-10T10:59:51Z</time>
      </trkpt>
      <trkpt lat="48.953225" lon="7.169191">
        <ele>272.0</ele>
        <time>2020-07-10T10:59:53Z</time>
      </trkpt>
      <trkpt lat="48.953236" lon="7.169366">
        <ele>272.0</ele>
        <time>2020-07-10T10:59:55Z</time>
      </trkpt>
      <trkpt lat="48.95324" lon="7.169545">
        <ele>272.0</ele>
        <time>2020-07-10T10:59:57Z</time>
      </trkpt>
      <trkpt lat="48.953252" lon="7.169725">
        <ele>273.0</ele>
        <time>2020-07-10T10:59:59Z</time>
      </trkpt>
      <trkpt lat="48.953243" lon="7.169908">
        <ele>272.0</ele>
        <time>2020-07-10T11:00:01Z</time>
      </trkpt>
      <trkpt lat="48.953217" lon="7.170013">
        <ele>272.0</ele>
        <time>2020-07-10T11:00:03Z</time>
      </trkpt>
      <trkpt lat="48.953187" lon="7.170022">
        <ele>272.0</ele>
        <time>2020-07-10T11:00:05Z</time>
      </trkpt>
      <trkpt lat="48.953159" lon="7.170012">
        <ele>273.0</ele>
        <time>2020-07-10T11:00:07Z</time>
      </trkpt>
      <trkpt lat="48.953126" lon="7.169994">
        <ele>272.0</ele>
        <time>2020-07-10T11:00:09Z</time>
      </trkpt>
      <trkpt lat="48.953071" lon="7.17001">
        <ele>272.0</ele>
        <time>2020-07-10T11:00:11Z</time>
      </trkpt>
      <trkpt lat="48.953038" lon="7.170105">
        <ele>272.0</ele>
        <time>2020-07-10T11:00:13Z</time>
      </trkpt>
      <trkpt lat="48.953022" lon="7.170233">
        <ele>273.0</ele>
        <time>2020-07-10T11:00:15Z</time>
      </trkpt>
      <trkpt lat="48.952989" lon="7.170346">
        <ele>273.0</ele>
        <time>2020-07-10T11:00:17Z</time>
      </trkpt>
      <trkpt lat="48.952949" lon="7.170453">
        <ele>273.0</ele>
        <time>2020-07-10T11:00:19Z</time>
      </trkpt>
      <trkpt lat="48.952913" lon="7.170576">
        <ele>274.0</ele>
        <time>2020-07-10T11:00:21Z</time>
      </trkpt>
      <trkpt lat="48.952836" lon="7.170771">
        <ele>274.0</ele>
        <time>2020-07-10T11:00:24Z</time>
      </trkpt>
      <trkpt lat="48.952779" lon="7.170904">
        <ele>273.0</ele>
        <time>2020-07-10T11:00:26Z</time>
      </trkpt>
      <trkpt lat="48.952729" lon="7.17103">
        <ele>273.0</ele>
        <time>2020-07-10T11:00:28Z</time>
      </trkpt>
      <trkpt lat="48.95268" lon="7.171162">
        <ele>275.0</ele>
        <time>2020-07-10T11:00:30Z</time>
      </trkpt>
      <trkpt lat="48.95266" lon="7.171305">
        <ele>275.0</ele>
        <time>2020-07-10T11:00:32Z</time>
      </trkpt>
      <trkpt lat="48.952663" lon="7.171444">
        <ele>275.0</ele>
        <time>2020-07-10T11:00:34Z</time>
      </trkpt>
      <trkpt lat="48.952653" lon="7.171607">
        <ele>275.0</ele>
        <time>2020-07-10T11:00:36Z</time>
      </trkpt>
      <trkpt lat="48.95265" lon="7.171867">
        <ele>275.0</ele>
        <time>2020-07-10T11:00:39Z</time>
      </trkpt>
      <trkpt lat="48.95265" lon="7.172037">
        <ele>275.0</ele>
        <time>2020-07-10T11:00:41Z</time>
      </trkpt>
      <trkpt lat="48.952642" lon="7.172208">
        <ele>274.0</ele>
        <time>2020-07-10T11:00:43Z</time>
      </trkpt>
      <trkpt lat="48.952643" lon="7.172471">
        <ele>274.0</ele>
        <time>2020-07-10T11:00:46Z</time>
      </trkpt>
      <trkpt lat="48.952638" lon="7.172555">
        <ele>274.0</ele>
        <time>2020-07-10T11:00:47Z</time>
      </trkpt>
      <trkpt lat="48.952628" lon="7.172838">
        <ele>273.0</ele>
        <time>2020-07-10T11:00:50Z</time>
      </trkpt>
      <trkpt lat="48.952633" lon="7.173021">
        <ele>272.0</ele>
        <time>2020-07-10T11:00:52Z</time>
      </trkpt>
      <trkpt lat="48.952627" lon="7.173205">
        <ele>272.0</ele>
        <time>2020-07-10T11:00:54Z</time>
      </trkpt>
      <trkpt lat="48.952622" lon="7.173393">
        <ele>272.0</ele>
        <time>2020-07-10T11:00:56Z</time>
      </trkpt>
      <trkpt lat="48.952609" lon="7.17357">
        <ele>273.0</ele>
        <time>2020-07-10T11:00:58Z</time>
      </trkpt>
      <trkpt lat="48.952587" lon="7.173749">
        <ele>272.0</ele>
        <time>2020-07-10T11:01:00Z</time>
      </trkpt>
      <trkpt lat="48.952572" lon="7.173915">
        <ele>272.0</ele>
        <time>2020-07-10T11:01:02Z</time>
      </trkpt>
      <trkpt lat="48.952557" lon="7.174092">
        <ele>272.0</ele>
        <time>2020-07-10T11:01:04Z</time>
      </trkpt>
      <trkpt lat="48.952542" lon="7.174274">
        <ele>272.0</ele>
        <time>2020-07-10T11:01:06Z</time>
      </trkpt>
      <trkpt lat="48.952526" lon="7.174456">
        <ele>272.0</ele>
        <time>2020-07-10T11:01:08Z</time>
      </trkpt>
      <trkpt lat="48.952523" lon="7.174649">
        <ele>272.0</ele>
        <time>2020-07-10T11:01:10Z</time>
      </trkpt>
      <trkpt lat="48.952515" lon="7.174828">
        <ele>272.0</ele>
        <time>2020-07-10T11:01:12Z</time>
      </trkpt>
      <trkpt lat="48.952505" lon="7.175013">
        <ele>271.0</ele>
        <time>2020-07-10T11:01:14Z</time>
      </trkpt>
      <trkpt lat="48.952496" lon="7.17519">
        <ele>271.0</ele>
        <time>2020-07-10T11:01:16Z</time>
      </trkpt>
      <trkpt lat="48.952471" lon="7.175353">
        <ele>271.0</ele>
        <time>2020-07-10T11:01:18Z</time>
      </trkpt>
      <trkpt lat="48.952453" lon="7.175521">
        <ele>271.0</ele>
        <time>2020-07-10T11:01:20Z</time>
      </trkpt>
      <trkpt lat="48.952429" lon="7.175683">
        <ele>270.0</ele>
        <time>2020-07-10T11:01:22Z</time>
      </trkpt>
      <trkpt lat="48.952399" lon="7.175836">
        <ele>271.0</ele>
        <time>2020-07-10T11:01:24Z</time>
      </trkpt>
      <trkpt lat="48.952371" lon="7.175987">
        <ele>270.0</ele>
        <time>2020-07-10T11:01:26Z</time>
      </trkpt>
      <trkpt lat="48.952338" lon="7.176131">
        <ele>270.0</ele>
        <time>2020-07-10T11:01:28Z</time>
      </trkpt>
      <trkpt lat="48.952313" lon="7.176274">
        <ele>270.0</ele>
        <time>2020-07-10T11:01:30Z</time>
      </trkpt>
      <trkpt lat="48.952287" lon="7.176409">
        <ele>269.0</ele>
        <time>2020-07-10T11:01:32Z</time>
      </trkpt>
      <trkpt lat="48.952267" lon="7.17654">
        <ele>270.0</ele>
        <time>2020-07-10T11:01:34Z</time>
      </trkpt>
      <trkpt lat="48.952233" lon="7.176734">
        <ele>269.0</ele>
        <time>2020-07-10T11:01:37Z</time>
      </trkpt>
      <trkpt lat="48.952187" lon="7.176929">
        <ele>270.0</ele>
        <time>2020-07-10T11:01:40Z</time>
      </trkpt>
      <trkpt lat="48.952163" lon="7.177067">
        <ele>270.0</ele>
        <time>2020-07-10T11:01:42Z</time>
      </trkpt>
      <trkpt lat="48.952138" lon="7.177213">
        <ele>269.0</ele>
        <time>2020-07-10T11:01:44Z</time>
      </trkpt>
      <trkpt lat="48.952115" lon="7.177359">
        <ele>270.0</ele>
        <time>2020-07-10T11:01:46Z</time>
      </trkpt>
      <trkpt lat="48.952088" lon="7.177523">
        <ele>271.0</ele>
        <time>2020-07-10T11:01:48Z</time>
      </trkpt>
      <trkpt lat="48.952049" lon="7.177691">
        <ele>271.0</ele>
        <time>2020-07-10T11:01:50Z</time>
      </trkpt>
      <trkpt lat="48.952008" lon="7.177851">
        <ele>272.0</ele>
        <time>2020-07-10T11:01:52Z</time>
      </trkpt>
      <trkpt lat="48.951967" lon="7.178015">
        <ele>272.0</ele>
        <time>2020-07-10T11:01:54Z</time>
      </trkpt>
      <trkpt lat="48.951936" lon="7.178174">
        <ele>272.0</ele>
        <time>2020-07-10T11:01:56Z</time>
      </trkpt>
      <trkpt lat="48.951905" lon="7.178333">
        <ele>272.0</ele>
        <time>2020-07-10T11:01:58Z</time>
      </trkpt>
      <trkpt lat="48.951873" lon="7.178487">
        <ele>272.0</ele>
        <time>2020-07-10T11:02:00Z</time>
      </trkpt>
      <trkpt lat="48.951846" lon="7.17863">
        <ele>272.0</ele>
        <time>2020-07-10T11:02:02Z</time>
      </trkpt>
      <trkpt lat="48.951802" lon="7.178769">
        <ele>273.0</ele>
        <time>2020-07-10T11:02:04Z</time>
      </trkpt>
      <trkpt lat="48.95175" lon="7.178892">
        <ele>273.0</ele>
        <time>2020-07-10T11:02:06Z</time>
      </trkpt>
      <trkpt lat="48.951665" lon="7.178959">
        <ele>273.0</ele>
        <time>2020-07-10T11:02:08Z</time>
      </trkpt>
      <trkpt lat="48.951579" lon="7.178989">
        <ele>273.0</ele>
        <time>2020-07-10T11:02:10Z</time>
      </trkpt>
      <trkpt lat="48.951497" lon="7.179121">
        <ele>273.0</ele>
        <time>2020-07-10T11:02:13Z</time>
      </trkpt>
      <trkpt lat="48.951486" lon="7.179257">
        <ele>273.0</ele>
        <time>2020-07-10T11:02:15Z</time>
      </trkpt>
      <trkpt lat="48.951481" lon="7.179329">
        <ele>273.0</ele>
        <time>2020-07-10T11:02:16Z</time>
      </trkpt>
      <trkpt lat="48.951491" lon="7.17955">
        <ele>273.0</ele>
        <time>2020-07-10T11:02:19Z</time>
      </trkpt>
      <trkpt lat="48.951468" lon="7.179724">
        <ele>273.0</ele>
        <time>2020-07-10T11:02:21Z</time>
      </trkpt>
      <trkpt lat="48.95143" lon="7.179879">
        <ele>273.0</ele>
        <time>2020-07-10T11:02:23Z</time>
      </trkpt>
      <trkpt lat="48.95139" lon="7.180039">
        <ele>273.0</ele>
        <time>2020-07-10T11:02:25Z</time>
      </trkpt>
      <trkpt lat="48.951372" lon="7.180118">
        <ele>273.0</ele>
        <time>2020-07-10T11:02:26Z</time>
      </trkpt>
      <trkpt lat="48.951307" lon="7.18037">
        <ele>274.0</ele>
        <time>2020-07-10T11:02:29Z</time>
      </trkpt>
      <trkpt lat="48.95123" lon="7.180617">
        <ele>273.0</ele>
        <time>2020-07-10T11:02:32Z</time>
      </trkpt>
      <trkpt lat="48.951187" lon="7.180788">
        <ele>273.0</ele>
        <time>2020-07-10T11:02:34Z</time>
      </trkpt>
      <trkpt lat="48.951138" lon="7.180966">
        <ele>273.0</ele>
        <time>2020-07-10T11:02:36Z</time>
      </trkpt>
      <trkpt lat="48.951085" lon="7.18113">
        <ele>273.0</ele>
        <time>2020-07-10T11:02:38Z</time>
      </trkpt>
      <trkpt lat="48.951012" lon="7.181381">
        <ele>274.0</ele>
        <time>2020-07-10T11:02:41Z</time>
      </trkpt>
      <trkpt lat="48.950966" lon="7.181542">
        <ele>273.0</ele>
        <time>2020-07-10T11:02:43Z</time>
      </trkpt>
      <trkpt lat="48.950894" lon="7.181774">
        <ele>274.0</ele>
        <time>2020-07-10T11:02:46Z</time>
      </trkpt>
      <trkpt lat="48.950817" lon="7.18191">
        <ele>273.0</ele>
        <time>2020-07-10T11:02:48Z</time>
      </trkpt>
      <trkpt lat="48.950733" lon="7.182037">
        <ele>273.0</ele>
        <time>2020-07-10T11:02:50Z</time>
      </trkpt>
      <trkpt lat="48.950589" lon="7.182228">
        <ele>273.0</ele>
        <time>2020-07-10T11:02:53Z</time>
      </trkpt>
      <trkpt lat="48.950502" lon="7.18234">
        <ele>273.0</ele>
        <time>2020-07-10T11:02:55Z</time>
      </trkpt>
      <trkpt lat="48.950402" lon="7.18244">
        <ele>273.0</ele>
        <time>2020-07-10T11:02:57Z</time>
      </trkpt>
      <trkpt lat="48.950299" lon="7.182533">
        <ele>272.0</ele>
        <time>2020-07-10T11:02:59Z</time>
      </trkpt>
      <trkpt lat="48.950197" lon="7.182619">
        <ele>273.0</ele>
        <time>2020-07-10T11:03:01Z</time>
      </trkpt>
      <trkpt lat="48.950095" lon="7.182712">
        <ele>273.0</ele>
        <time>2020-07-10T11:03:03Z</time>
      </trkpt>
      <trkpt lat="48.950002" lon="7.182786">
        <ele>273.0</ele>
        <time>2020-07-10T11:03:05Z</time>
      </trkpt>
      <trkpt lat="48.949908" lon="7.182864">
        <ele>273.0</ele>
        <time>2020-07-10T11:03:07Z</time>
      </trkpt>
      <trkpt lat="48.949811" lon="7.182946">
        <ele>273.0</ele>
        <time>2020-07-10T11:03:09Z</time>
      </trkpt>
      <trkpt lat="48.949717" lon="7.183014">
        <ele>273.0</ele>
        <time>2020-07-10T11:03:11Z</time>
      </trkpt>
      <trkpt lat="48.949626" lon="7.183081">
        <ele>273.0</ele>
        <time>2020-07-10T11:03:13Z</time>
      </trkpt>
      <trkpt lat="48.94953" lon="7.183136">
        <ele>273.0</ele>
        <time>2020-07-10T11:03:15Z</time>
      </trkpt>
      <trkpt lat="48.94943" lon="7.183194">
        <ele>273.0</ele>
        <time>2020-07-10T11:03:17Z</time>
      </trkpt>
      <trkpt lat="48.949328" lon="7.183252">
        <ele>273.0</ele>
        <time>2020-07-10T11:03:19Z</time>
      </trkpt>
      <trkpt lat="48.949232" lon="7.183315">
        <ele>273.0</ele>
        <time>2020-07-10T11:03:21Z</time>
      </trkpt>
      <trkpt lat="48.949147" lon="7.183377">
        <ele>273.0</ele>
        <time>2020-07-10T11:03:23Z</time>
      </trkpt>
      <trkpt lat="48.949069" lon="7.183458">
        <ele>273.0</ele>
        <time>2020-07-10T11:03:25Z</time>
      </trkpt>
      <trkpt lat="48.949005" lon="7.183549">
        <ele>273.0</ele>
        <time>2020-07-10T11:03:27Z</time>
      </trkpt>
      <trkpt lat="48.948949" lon="7.183639">
        <ele>273.0</ele>
        <time>2020-07-10T11:03:29Z</time>
      </trkpt>
      <trkpt lat="48.948869" lon="7.183777">
        <ele>274.0</ele>
        <time>2020-07-10T11:03:32Z</time>
      </trkpt>
      <trkpt lat="48.948821" lon="7.183857">
        <ele>274.0</ele>
        <time>2020-07-10T11:03:34Z</time>
      </trkpt>
      <trkpt lat="48.948771" lon="7.183944">
        <ele>274.0</ele>
        <time>2020-07-10T11:03:36Z</time>
      </trkpt>
      <trkpt lat="48.948715" lon="7.184039">
        <ele>274.0</ele>
        <time>2020-07-10T11:03:38Z</time>
      </trkpt>
      <trkpt lat="48.948665" lon="7.184126">
        <ele>275.0</ele>
        <time>2020-07-10T11:03:40Z</time>
      </trkpt>
      <trkpt lat="48.948618" lon="7.184219">
        <ele>275.0</ele>
        <time>2020-07-10T11:03:42Z</time>
      </trkpt>
      <trkpt lat="48.948567" lon="7.184305">
        <ele>276.0</ele>
        <time>2020-07-10T11:03:44Z</time>
      </trkpt>
      <trkpt lat="48.948517" lon="7.184396">
        <ele>276.0</ele>
        <time>2020-07-10T11:03:46Z</time>
      </trkpt>
      <trkpt lat="48.94844" lon="7.184535">
        <ele>276.0</ele>
        <time>2020-07-10T11:03:49Z</time>
      </trkpt>
      <trkpt lat="48.948392" lon="7.184636">
        <ele>276.0</ele>
        <time>2020-07-10T11:03:51Z</time>
      </trkpt>
      <trkpt lat="48.948343" lon="7.184741">
        <ele>277.0</ele>
        <time>2020-07-10T11:03:53Z</time>
      </trkpt>
      <trkpt lat="48.948299" lon="7.184843">
        <ele>277.0</ele>
        <time>2020-07-10T11:03:55Z</time>
      </trkpt>
      <trkpt lat="48.948255" lon="7.184942">
        <ele>277.0</ele>
        <time>2020-07-10T11:03:57Z</time>
      </trkpt>
      <trkpt lat="48.948213" lon="7.185048">
        <ele>277.0</ele>
        <time>2020-07-10T11:03:59Z</time>
      </trkpt>
      <trkpt lat="48.948172" lon="7.185146">
        <ele>277.0</ele>
        <time>2020-07-10T11:04:01Z</time>
      </trkpt>
      <trkpt lat="48.948097" lon="7.18529">
        <ele>278.0</ele>
        <time>2020-07-10T11:04:04Z</time>
      </trkpt>
      <trkpt lat="48.948022" lon="7.185362">
        <ele>278.0</ele>
        <time>2020-07-10T11:04:06Z</time>
      </trkpt>
      <trkpt lat="48.947945" lon="7.185428">
        <ele>279.0</ele>
        <time>2020-07-10T11:04:08Z</time>
      </trkpt>
      <trkpt lat="48.947861" lon="7.185479">
        <ele>280.0</ele>
        <time>2020-07-10T11:04:10Z</time>
      </trkpt>
      <trkpt lat="48.947816" lon="7.185499">
        <ele>280.0</ele>
        <time>2020-07-10T11:04:11Z</time>
      </trkpt>
      <trkpt lat="48.947654" lon="7.18556">
        <ele>280.0</ele>
        <time>2020-07-10T11:04:15Z</time>
      </trkpt>
      <trkpt lat="48.947615" lon="7.185576">
        <ele>280.0</ele>
        <time>2020-07-10T11:04:16Z</time>
      </trkpt>
      <trkpt lat="48.947494" lon="7.185606">
        <ele>281.0</ele>
        <time>2020-07-10T11:04:19Z</time>
      </trkpt>
      <trkpt lat="48.947461" lon="7.185616">
        <ele>281.0</ele>
        <time>2020-07-10T11:04:20Z</time>
      </trkpt>
      <trkpt lat="48.947345" lon="7.185632">
        <ele>281.0</ele>
        <time>2020-07-10T11:04:23Z</time>
      </trkpt>
      <trkpt lat="48.947229" lon="7.185679">
        <ele>282.0</ele>
        <time>2020-07-10T11:04:26Z</time>
      </trkpt>
      <trkpt lat="48.947157" lon="7.185713">
        <ele>283.0</ele>
        <time>2020-07-10T11:04:28Z</time>
      </trkpt>
      <trkpt lat="48.947086" lon="7.185755">
        <ele>283.0</ele>
        <time>2020-07-10T11:04:30Z</time>
      </trkpt>
      <trkpt lat="48.947014" lon="7.185775">
        <ele>282.0</ele>
        <time>2020-07-10T11:04:32Z</time>
      </trkpt>
      <trkpt lat="48.946935" lon="7.185796">
        <ele>282.0</ele>
        <time>2020-07-10T11:04:34Z</time>
      </trkpt>
      <trkpt lat="48.946859" lon="7.185814">
        <ele>282.0</ele>
        <time>2020-07-10T11:04:36Z</time>
      </trkpt>
      <trkpt lat="48.946785" lon="7.185833">
        <ele>283.0</ele>
        <time>2020-07-10T11:04:38Z</time>
      </trkpt>
      <trkpt lat="48.946705" lon="7.185861">
        <ele>283.0</ele>
        <time>2020-07-10T11:04:40Z</time>
      </trkpt>
      <trkpt lat="48.946626" lon="7.18588">
        <ele>283.0</ele>
        <time>2020-07-10T11:04:42Z</time>
      </trkpt>
      <trkpt lat="48.946546" lon="7.185909">
        <ele>283.0</ele>
        <time>2020-07-10T11:04:44Z</time>
      </trkpt>
      <trkpt lat="48.94646" lon="7.185931">
        <ele>283.0</ele>
        <time>2020-07-10T11:04:46Z</time>
      </trkpt>
      <trkpt lat="48.94638" lon="7.185951">
        <ele>283.0</ele>
        <time>2020-07-10T11:04:48Z</time>
      </trkpt>
      <trkpt lat="48.9463" lon="7.185951">
        <ele>283.0</ele>
        <time>2020-07-10T11:04:50Z</time>
      </trkpt>
      <trkpt lat="48.946217" lon="7.185966">
        <ele>283.0</ele>
        <time>2020-07-10T11:04:52Z</time>
      </trkpt>
      <trkpt lat="48.946131" lon="7.185991">
        <ele>283.0</ele>
        <time>2020-07-10T11:04:54Z</time>
      </trkpt>
      <trkpt lat="48.946047" lon="7.186009">
        <ele>283.0</ele>
        <time>2020-07-10T11:04:56Z</time>
      </trkpt>
      <trkpt lat="48.945926" lon="7.186041">
        <ele>282.0</ele>
        <time>2020-07-10T11:04:59Z</time>
      </trkpt>
      <trkpt lat="48.945849" lon="7.186063">
        <ele>283.0</ele>
        <time>2020-07-10T11:05:01Z</time>
      </trkpt>
      <trkpt lat="48.945772" lon="7.186077">
        <ele>283.0</ele>
        <time>2020-07-10T11:05:03Z</time>
      </trkpt>
      <trkpt lat="48.945691" lon="7.186094">
        <ele>283.0</ele>
        <time>2020-07-10T11:05:05Z</time>
      </trkpt>
      <trkpt lat="48.94561" lon="7.186106">
        <ele>283.0</ele>
        <time>2020-07-10T11:05:07Z</time>
      </trkpt>
      <trkpt lat="48.945532" lon="7.186124">
        <ele>283.0</ele>
        <time>2020-07-10T11:05:09Z</time>
      </trkpt>
      <trkpt lat="48.945456" lon="7.186141">
        <ele>283.0</ele>
        <time>2020-07-10T11:05:11Z</time>
      </trkpt>
      <trkpt lat="48.945336" lon="7.18616">
        <ele>283.0</ele>
        <time>2020-07-10T11:05:14Z</time>
      </trkpt>
      <trkpt lat="48.945255" lon="7.186173">
        <ele>284.0</ele>
        <time>2020-07-10T11:05:16Z</time>
      </trkpt>
      <trkpt lat="48.945214" lon="7.186175">
        <ele>284.0</ele>
        <time>2020-07-10T11:05:17Z</time>
      </trkpt>
      <trkpt lat="48.945104" lon="7.186193">
        <ele>284.0</ele>
        <time>2020-07-10T11:05:20Z</time>
      </trkpt>
      <trkpt lat="48.944984" lon="7.186235">
        <ele>284.0</ele>
        <time>2020-07-10T11:05:23Z</time>
      </trkpt>
      <trkpt lat="48.9449" lon="7.186253">
        <ele>284.0</ele>
        <time>2020-07-10T11:05:25Z</time>
      </trkpt>
      <trkpt lat="48.944829" lon="7.186242">
        <ele>285.0</ele>
        <time>2020-07-10T11:05:27Z</time>
      </trkpt>
      <trkpt lat="48.944728" lon="7.186259">
        <ele>284.0</ele>
        <time>2020-07-10T11:05:30Z</time>
      </trkpt>
      <trkpt lat="48.944658" lon="7.186287">
        <ele>284.0</ele>
        <time>2020-07-10T11:05:32Z</time>
      </trkpt>
      <trkpt lat="48.944575" lon="7.186324">
        <ele>283.0</ele>
        <time>2020-07-10T11:05:34Z</time>
      </trkpt>
      <trkpt lat="48.944412" lon="7.186363">
        <ele>282.0</ele>
        <time>2020-07-10T11:05:37Z</time>
      </trkpt>
      <trkpt lat="48.944299" lon="7.186382">
        <ele>282.0</ele>
        <time>2020-07-10T11:05:39Z</time>
      </trkpt>
      <trkpt lat="48.944174" lon="7.186399">
        <ele>281.0</ele>
        <time>2020-07-10T11:05:41Z</time>
      </trkpt>
      <trkpt lat="48.944114" lon="7.186413">
        <ele>280.0</ele>
        <time>2020-07-10T11:05:42Z</time>
      </trkpt>
      <trkpt lat="48.943956" lon="7.186465">
        <ele>280.0</ele>
        <time>2020-07-10T11:05:45Z</time>
      </trkpt>
      <trkpt lat="48.943852" lon="7.186489">
        <ele>280.0</ele>
        <time>2020-07-10T11:05:47Z</time>
      </trkpt>
      <trkpt lat="48.943763" lon="7.186501">
        <ele>280.0</ele>
        <time>2020-07-10T11:05:49Z</time>
      </trkpt>
      <trkpt lat="48.943718" lon="7.18649">
        <ele>279.0</ele>
        <time>2020-07-10T11:05:50Z</time>
      </trkpt>
      <trkpt lat="48.943593" lon="7.186496">
        <ele>279.0</ele>
        <time>2020-07-10T11:05:53Z</time>
      </trkpt>
      <trkpt lat="48.943547" lon="7.186547">
        <ele>279.0</ele>
        <time>2020-07-10T11:05:55Z</time>
      </trkpt>
      <trkpt lat="48.943534" lon="7.186564">
        <ele>278.0</ele>
        <time>2020-07-10T11:05:57Z</time>
      </trkpt>
      <trkpt lat="48.943542" lon="7.186561">
        <ele>277.0</ele>
        <time>2020-07-10T11:05:59Z</time>
      </trkpt>
      <trkpt lat="48.943546" lon="7.186562">
        <ele>276.0</ele>
        <time>2020-07-10T11:06:01Z</time>
      </trkpt>
      <trkpt lat="48.943546" lon="7.186562">
        <ele>276.0</ele>
        <time>2020-07-10T11:06:03Z</time>
      </trkpt>
      <trkpt lat="48.943546" lon="7.186562">
        <ele>276.0</ele>
        <time>2020-07-10T11:06:05Z</time>
      </trkpt>
      <trkpt lat="48.943546" lon="7.186562">
        <ele>276.0</ele>
        <time>2020-07-10T11:06:21Z</time>
      </trkpt>
      <trkpt lat="48.943546" lon="7.186562">
        <ele>276.0</ele>
        <time>2020-07-10T11:06:23Z</time>
      </trkpt>
      <trkpt lat="48.943546" lon="7.186562">
        <ele>276.0</ele>
        <time>2020-07-10T11:06:26Z</time>
      </trkpt>
      <trkpt lat="48.943546" lon="7.186562">
        <ele>276.0</ele>
        <time>2020-07-10T11:06:28Z</time>
      </trkpt>
      <trkpt lat="48.943546" lon="7.186562">
        <ele>276.0</ele>
        <time>2020-07-10T11:06:30Z</time>
      </trkpt>
      <trkpt lat="48.943546" lon="7.186562">
        <ele>276.0</ele>
        <time>2020-07-10T11:06:32Z</time>
      </trkpt>
      <trkpt lat="48.943546" lon="7.186562">
        <ele>276.0</ele>
        <time>2020-07-10T11:06:34Z</time>
      </trkpt>
      <trkpt lat="48.943546" lon="7.186562">
        <ele>276.0</ele>
        <time>2020-07-10T11:06:36Z</time>
      </trkpt>
      <trkpt lat="48.943546" lon="7.186562">
        <ele>276.0</ele>
        <time>2020-07-10T11:06:37Z</time>
      </trkpt>
      <trkpt lat="48.943546" lon="7.186562">
        <ele>276.0</ele>
        <time>2020-07-10T11:06:40Z</time>
      </trkpt>
      <trkpt lat="48.943546" lon="7.186562">
        <ele>276.0</ele>
        <time>2020-07-10T11:06:42Z</time>
      </trkpt>
      <trkpt lat="48.943546" lon="7.186562">
        <ele>276.0</ele>
        <time>2020-07-10T11:06:44Z</time>
      </trkpt>
      <trkpt lat="48.943542" lon="7.186569">
        <ele>276.0</ele>
        <time>2020-07-10T11:06:46Z</time>
      </trkpt>
      <trkpt lat="48.943519" lon="7.186607">
        <ele>277.0</ele>
        <time>2020-07-10T11:06:48Z</time>
      </trkpt>
      <trkpt lat="48.943473" lon="7.186641">
        <ele>277.0</ele>
        <time>2020-07-10T11:06:50Z</time>
      </trkpt>
      <trkpt lat="48.943388" lon="7.186676">
        <ele>277.0</ele>
        <time>2020-07-10T11:06:52Z</time>
      </trkpt>
      <trkpt lat="48.943296" lon="7.186713">
        <ele>276.0</ele>
        <time>2020-07-10T11:06:54Z</time>
      </trkpt>
      <trkpt lat="48.94319" lon="7.186754">
        <ele>276.0</ele>
        <time>2020-07-10T11:06:56Z</time>
      </trkpt>
      <trkpt lat="48.94308" lon="7.186794">
        <ele>275.0</ele>
        <time>2020-07-10T11:06:58Z</time>
      </trkpt>
      <trkpt lat="48.94296" lon="7.186856">
        <ele>275.0</ele>
        <time>2020-07-10T11:07:00Z</time>
      </trkpt>
      <trkpt lat="48.942838" lon="7.186919">
        <ele>274.0</ele>
        <time>2020-07-10T11:07:02Z</time>
      </trkpt>
      <trkpt lat="48.94272" lon="7.18699">
        <ele>273.0</ele>
        <time>2020-07-10T11:07:04Z</time>
      </trkpt>
      <trkpt lat="48.942613" lon="7.187052">
        <ele>273.0</ele>
        <time>2020-07-10T11:07:06Z</time>
      </trkpt>
      <trkpt lat="48.942507" lon="7.187107">
        <ele>273.0</ele>
        <time>2020-07-10T11:07:08Z</time>
      </trkpt>
      <trkpt lat="48.942405" lon="7.187154">
        <ele>273.0</ele>
        <time>2020-07-10T11:07:10Z</time>
      </trkpt>
      <trkpt lat="48.942302" lon="7.187199">
        <ele>273.0</ele>
        <time>2020-07-10T11:07:12Z</time>
      </trkpt>
      <trkpt lat="48.942195" lon="7.187198">
        <ele>273.0</ele>
        <time>2020-07-10T11:07:14Z</time>
      </trkpt>
      <trkpt lat="48.942101" lon="7.187169">
        <ele>275.0</ele>
        <time>2020-07-10T11:07:16Z</time>
      </trkpt>
      <trkpt lat="48.942011" lon="7.187147">
        <ele>275.0</ele>
        <time>2020-07-10T11:07:18Z</time>
      </trkpt>
      <trkpt lat="48.941916" lon="7.187118">
        <ele>274.0</ele>
        <time>2020-07-10T11:07:20Z</time>
      </trkpt>
      <trkpt lat="48.941823" lon="7.187099">
        <ele>274.0</ele>
        <time>2020-07-10T11:07:22Z</time>
      </trkpt>
      <trkpt lat="48.941737" lon="7.187081">
        <ele>273.0</ele>
        <time>2020-07-10T11:07:24Z</time>
      </trkpt>
      <trkpt lat="48.941647" lon="7.18706">
        <ele>273.0</ele>
        <time>2020-07-10T11:07:26Z</time>
      </trkpt>
      <trkpt lat="48.941549" lon="7.187048">
        <ele>273.0</ele>
        <time>2020-07-10T11:07:28Z</time>
      </trkpt>
      <trkpt lat="48.941455" lon="7.187024">
        <ele>273.0</ele>
        <time>2020-07-10T11:07:30Z</time>
      </trkpt>
      <trkpt lat="48.941353" lon="7.186996">
        <ele>273.0</ele>
        <time>2020-07-10T11:07:32Z</time>
      </trkpt>
      <trkpt lat="48.941247" lon="7.186974">
        <ele>273.0</ele>
        <time>2020-07-10T11:07:34Z</time>
      </trkpt>
      <trkpt lat="48.941149" lon="7.186962">
        <ele>273.0</ele>
        <time>2020-07-10T11:07:36Z</time>
      </trkpt>
      <trkpt lat="48.94105" lon="7.186941">
        <ele>273.0</ele>
        <time>2020-07-10T11:07:38Z</time>
      </trkpt>
      <trkpt lat="48.940948" lon="7.186924">
        <ele>273.0</ele>
        <time>2020-07-10T11:07:40Z</time>
      </trkpt>
      <trkpt lat="48.940854" lon="7.186892">
        <ele>273.0</ele>
        <time>2020-07-10T11:07:42Z</time>
      </trkpt>
      <trkpt lat="48.940763" lon="7.186865">
        <ele>273.0</ele>
        <time>2020-07-10T11:07:44Z</time>
      </trkpt>
      <trkpt lat="48.940672" lon="7.186846">
        <ele>273.0</ele>
        <time>2020-07-10T11:07:46Z</time>
      </trkpt>
      <trkpt lat="48.940576" lon="7.186831">
        <ele>273.0</ele>
        <time>2020-07-10T11:07:48Z</time>
      </trkpt>
      <trkpt lat="48.940484" lon="7.186817">
        <ele>273.0</ele>
        <time>2020-07-10T11:07:50Z</time>
      </trkpt>
      <trkpt lat="48.940395" lon="7.186789">
        <ele>272.0</ele>
        <time>2020-07-10T11:07:52Z</time>
      </trkpt>
      <trkpt lat="48.940304" lon="7.18676">
        <ele>273.0</ele>
        <time>2020-07-10T11:07:54Z</time>
      </trkpt>
      <trkpt lat="48.940212" lon="7.186745">
        <ele>273.0</ele>
        <time>2020-07-10T11:07:56Z</time>
      </trkpt>
      <trkpt lat="48.940112" lon="7.186794">
        <ele>272.0</ele>
        <time>2020-07-10T11:07:58Z</time>
      </trkpt>
      <trkpt lat="48.940031" lon="7.186869">
        <ele>273.0</ele>
        <time>2020-07-10T11:08:00Z</time>
      </trkpt>
      <trkpt lat="48.939935" lon="7.186884">
        <ele>273.0</ele>
        <time>2020-07-10T11:08:02Z</time>
      </trkpt>
      <trkpt lat="48.93984" lon="7.18686">
        <ele>273.0</ele>
        <time>2020-07-10T11:08:04Z</time>
      </trkpt>
      <trkpt lat="48.939751" lon="7.186828">
        <ele>273.0</ele>
        <time>2020-07-10T11:08:06Z</time>
      </trkpt>
      <trkpt lat="48.939659" lon="7.186787">
        <ele>272.0</ele>
        <time>2020-07-10T11:08:08Z</time>
      </trkpt>
      <trkpt lat="48.939567" lon="7.186776">
        <ele>272.0</ele>
        <time>2020-07-10T11:08:10Z</time>
      </trkpt>
      <trkpt lat="48.939474" lon="7.186772">
        <ele>273.0</ele>
        <time>2020-07-10T11:08:12Z</time>
      </trkpt>
      <trkpt lat="48.939371" lon="7.186772">
        <ele>273.0</ele>
        <time>2020-07-10T11:08:14Z</time>
      </trkpt>
      <trkpt lat="48.939267" lon="7.18677">
        <ele>273.0</ele>
        <time>2020-07-10T11:08:16Z</time>
      </trkpt>
      <trkpt lat="48.939167" lon="7.186767">
        <ele>273.0</ele>
        <time>2020-07-10T11:08:18Z</time>
      </trkpt>
      <trkpt lat="48.939065" lon="7.186746">
        <ele>273.0</ele>
        <time>2020-07-10T11:08:20Z</time>
      </trkpt>
      <trkpt lat="48.93897" lon="7.186727">
        <ele>273.0</ele>
        <time>2020-07-10T11:08:22Z</time>
      </trkpt>
      <trkpt lat="48.938874" lon="7.186711">
        <ele>274.0</ele>
        <time>2020-07-10T11:08:24Z</time>
      </trkpt>
      <trkpt lat="48.938782" lon="7.186685">
        <ele>275.0</ele>
        <time>2020-07-10T11:08:26Z</time>
      </trkpt>
      <trkpt lat="48.9387" lon="7.186635">
        <ele>275.0</ele>
        <time>2020-07-10T11:08:28Z</time>
      </trkpt>
      <trkpt lat="48.938638" lon="7.186563">
        <ele>276.0</ele>
        <time>2020-07-10T11:08:30Z</time>
      </trkpt>
      <trkpt lat="48.938606" lon="7.186463">
        <ele>276.0</ele>
        <time>2020-07-10T11:08:32Z</time>
      </trkpt>
      <trkpt lat="48.938587" lon="7.18638">
        <ele>276.0</ele>
        <time>2020-07-10T11:08:34Z</time>
      </trkpt>
      <trkpt lat="48.938548" lon="7.186347">
        <ele>277.0</ele>
        <time>2020-07-10T11:08:36Z</time>
      </trkpt>
      <trkpt lat="48.938501" lon="7.186376">
        <ele>276.0</ele>
        <time>2020-07-10T11:08:38Z</time>
      </trkpt>
      <trkpt lat="48.93844" lon="7.186411">
        <ele>275.0</ele>
        <time>2020-07-10T11:08:40Z</time>
      </trkpt>
      <trkpt lat="48.938354" lon="7.186455">
        <ele>275.0</ele>
        <time>2020-07-10T11:08:42Z</time>
      </trkpt>
      <trkpt lat="48.938269" lon="7.186477">
        <ele>276.0</ele>
        <time>2020-07-10T11:08:44Z</time>
      </trkpt>
      <trkpt lat="48.938179" lon="7.18645">
        <ele>276.0</ele>
        <time>2020-07-10T11:08:46Z</time>
      </trkpt>
      <trkpt lat="48.938093" lon="7.186414">
        <ele>276.0</ele>
        <time>2020-07-10T11:08:48Z</time>
      </trkpt>
      <trkpt lat="48.937997" lon="7.186368">
        <ele>277.0</ele>
        <time>2020-07-10T11:08:50Z</time>
      </trkpt>
      <trkpt lat="48.937912" lon="7.186349">
        <ele>276.0</ele>
        <time>2020-07-10T11:08:52Z</time>
      </trkpt>
      <trkpt lat="48.937825" lon="7.186369">
        <ele>276.0</ele>
        <time>2020-07-10T11:08:54Z</time>
      </trkpt>
      <trkpt lat="48.937737" lon="7.186417">
        <ele>276.0</ele>
        <time>2020-07-10T11:08:56Z</time>
      </trkpt>
      <trkpt lat="48.937657" lon="7.186484">
        <ele>276.0</ele>
        <time>2020-07-10T11:08:58Z</time>
      </trkpt>
      <trkpt lat="48.937573" lon="7.18655">
        <ele>276.0</ele>
        <time>2020-07-10T11:09:00Z</time>
      </trkpt>
      <trkpt lat="48.937483" lon="7.186612">
        <ele>276.0</ele>
        <time>2020-07-10T11:09:02Z</time>
      </trkpt>
      <trkpt lat="48.937396" lon="7.186678">
        <ele>276.0</ele>
        <time>2020-07-10T11:09:04Z</time>
      </trkpt>
      <trkpt lat="48.937314" lon="7.186746">
        <ele>276.0</ele>
        <time>2020-07-10T11:09:06Z</time>
      </trkpt>
      <trkpt lat="48.937233" lon="7.186793">
        <ele>276.0</ele>
        <time>2020-07-10T11:09:08Z</time>
      </trkpt>
      <trkpt lat="48.937158" lon="7.186837">
        <ele>276.0</ele>
        <time>2020-07-10T11:09:10Z</time>
      </trkpt>
      <trkpt lat="48.937083" lon="7.186884">
        <ele>275.0</ele>
        <time>2020-07-10T11:09:12Z</time>
      </trkpt>
      <trkpt lat="48.93702" lon="7.186914">
        <ele>275.0</ele>
        <time>2020-07-10T11:09:14Z</time>
      </trkpt>
      <trkpt lat="48.93696" lon="7.186941">
        <ele>276.0</ele>
        <time>2020-07-10T11:09:16Z</time>
      </trkpt>
      <trkpt lat="48.936902" lon="7.186962">
        <ele>276.0</ele>
        <time>2020-07-10T11:09:18Z</time>
      </trkpt>
      <trkpt lat="48.936845" lon="7.186986">
        <ele>276.0</ele>
        <time>2020-07-10T11:09:20Z</time>
      </trkpt>
      <trkpt lat="48.936784" lon="7.187003">
        <ele>277.0</ele>
        <time>2020-07-10T11:09:22Z</time>
      </trkpt>
      <trkpt lat="48.936724" lon="7.187017">
        <ele>277.0</ele>
        <time>2020-07-10T11:09:24Z</time>
      </trkpt>
      <trkpt lat="48.936662" lon="7.187029">
        <ele>277.0</ele>
        <time>2020-07-10T11:09:26Z</time>
      </trkpt>
      <trkpt lat="48.936607" lon="7.187051">
        <ele>277.0</ele>
        <time>2020-07-10T11:09:28Z</time>
      </trkpt>
      <trkpt lat="48.93655" lon="7.187064">
        <ele>277.0</ele>
        <time>2020-07-10T11:09:30Z</time>
      </trkpt>
      <trkpt lat="48.936495" lon="7.187073">
        <ele>277.0</ele>
        <time>2020-07-10T11:09:32Z</time>
      </trkpt>
      <trkpt lat="48.936417" lon="7.187103">
        <ele>278.0</ele>
        <time>2020-07-10T11:09:35Z</time>
      </trkpt>
      <trkpt lat="48.93637" lon="7.187119">
        <ele>278.0</ele>
        <time>2020-07-10T11:09:37Z</time>
      </trkpt>
      <trkpt lat="48.936322" lon="7.187128">
        <ele>278.0</ele>
        <time>2020-07-10T11:09:39Z</time>
      </trkpt>
      <trkpt lat="48.936276" lon="7.187144">
        <ele>279.0</ele>
        <time>2020-07-10T11:09:41Z</time>
      </trkpt>
      <trkpt lat="48.936227" lon="7.187156">
        <ele>279.0</ele>
        <time>2020-07-10T11:09:43Z</time>
      </trkpt>
      <trkpt lat="48.936177" lon="7.18717">
        <ele>279.0</ele>
        <time>2020-07-10T11:09:45Z</time>
      </trkpt>
      <trkpt lat="48.936129" lon="7.187189">
        <ele>280.0</ele>
        <time>2020-07-10T11:09:47Z</time>
      </trkpt>
      <trkpt lat="48.936083" lon="7.187197">
        <ele>280.0</ele>
        <time>2020-07-10T11:09:49Z</time>
      </trkpt>
      <trkpt lat="48.936041" lon="7.187203">
        <ele>280.0</ele>
        <time>2020-07-10T11:09:51Z</time>
      </trkpt>
      <trkpt lat="48.935998" lon="7.187211">
        <ele>280.0</ele>
        <time>2020-07-10T11:09:53Z</time>
      </trkpt>
      <trkpt lat="48.935951" lon="7.18722">
        <ele>280.0</ele>
        <time>2020-07-10T11:09:55Z</time>
      </trkpt>
      <trkpt lat="48.935904" lon="7.18723">
        <ele>281.0</ele>
        <time>2020-07-10T11:09:57Z</time>
      </trkpt>
      <trkpt lat="48.935859" lon="7.187245">
        <ele>281.0</ele>
        <time>2020-07-10T11:09:59Z</time>
      </trkpt>
      <trkpt lat="48.935815" lon="7.18726">
        <ele>281.0</ele>
        <time>2020-07-10T11:10:01Z</time>
      </trkpt>
      <trkpt lat="48.935763" lon="7.187273">
        <ele>280.0</ele>
        <time>2020-07-10T11:10:03Z</time>
      </trkpt>
      <trkpt lat="48.935717" lon="7.187285">
        <ele>281.0</ele>
        <time>2020-07-10T11:10:05Z</time>
      </trkpt>
      <trkpt lat="48.93567" lon="7.187302">
        <ele>281.0</ele>
        <time>2020-07-10T11:10:07Z</time>
      </trkpt>
      <trkpt lat="48.935623" lon="7.187323">
        <ele>282.0</ele>
        <time>2020-07-10T11:10:09Z</time>
      </trkpt>
      <trkpt lat="48.935581" lon="7.18734">
        <ele>282.0</ele>
        <time>2020-07-10T11:10:11Z</time>
      </trkpt>
      <trkpt lat="48.935534" lon="7.187357">
        <ele>282.0</ele>
        <time>2020-07-10T11:10:13Z</time>
      </trkpt>
      <trkpt lat="48.935483" lon="7.187372">
        <ele>282.0</ele>
        <time>2020-07-10T11:10:15Z</time>
      </trkpt>
      <trkpt lat="48.935435" lon="7.187375">
        <ele>283.0</ele>
        <time>2020-07-10T11:10:17Z</time>
      </trkpt>
      <trkpt lat="48.935377" lon="7.187384">
        <ele>283.0</ele>
        <time>2020-07-10T11:10:19Z</time>
      </trkpt>
      <trkpt lat="48.935331" lon="7.187392">
        <ele>283.0</ele>
        <time>2020-07-10T11:10:21Z</time>
      </trkpt>
      <trkpt lat="48.935284" lon="7.187404">
        <ele>284.0</ele>
        <time>2020-07-10T11:10:23Z</time>
      </trkpt>
      <trkpt lat="48.935242" lon="7.18742">
        <ele>284.0</ele>
        <time>2020-07-10T11:10:25Z</time>
      </trkpt>
      <trkpt lat="48.935198" lon="7.18743">
        <ele>285.0</ele>
        <time>2020-07-10T11:10:27Z</time>
      </trkpt>
      <trkpt lat="48.935152" lon="7.187446">
        <ele>285.0</ele>
        <time>2020-07-10T11:10:29Z</time>
      </trkpt>
      <trkpt lat="48.935105" lon="7.187462">
        <ele>286.0</ele>
        <time>2020-07-10T11:10:31Z</time>
      </trkpt>
      <trkpt lat="48.935058" lon="7.187465">
        <ele>287.0</ele>
        <time>2020-07-10T11:10:33Z</time>
      </trkpt>
      <trkpt lat="48.935006" lon="7.187475">
        <ele>287.0</ele>
        <time>2020-07-10T11:10:35Z</time>
      </trkpt>
      <trkpt lat="48.934962" lon="7.187492">
        <ele>287.0</ele>
        <time>2020-07-10T11:10:37Z</time>
      </trkpt>
      <trkpt lat="48.93492" lon="7.187512">
        <ele>287.0</ele>
        <time>2020-07-10T11:10:39Z</time>
      </trkpt>
      <trkpt lat="48.934875" lon="7.187524">
        <ele>287.0</ele>
        <time>2020-07-10T11:10:41Z</time>
      </trkpt>
      <trkpt lat="48.934819" lon="7.187533">
        <ele>287.0</ele>
        <time>2020-07-10T11:10:43Z</time>
      </trkpt>
      <trkpt lat="48.934762" lon="7.187548">
        <ele>287.0</ele>
        <time>2020-07-10T11:10:45Z</time>
      </trkpt>
      <trkpt lat="48.934699" lon="7.187559">
        <ele>287.0</ele>
        <time>2020-07-10T11:10:47Z</time>
      </trkpt>
      <trkpt lat="48.934632" lon="7.187541">
        <ele>288.0</ele>
        <time>2020-07-10T11:10:49Z</time>
      </trkpt>
      <trkpt lat="48.934572" lon="7.18751">
        <ele>288.0</ele>
        <time>2020-07-10T11:10:51Z</time>
      </trkpt>
      <trkpt lat="48.934514" lon="7.187465">
        <ele>289.0</ele>
        <time>2020-07-10T11:10:53Z</time>
      </trkpt>
      <trkpt lat="48.934448" lon="7.187392">
        <ele>289.0</ele>
        <time>2020-07-10T11:10:55Z</time>
      </trkpt>
      <trkpt lat="48.9344" lon="7.187307">
        <ele>291.0</ele>
        <time>2020-07-10T11:10:57Z</time>
      </trkpt>
      <trkpt lat="48.934355" lon="7.187211">
        <ele>291.0</ele>
        <time>2020-07-10T11:10:59Z</time>
      </trkpt>
      <trkpt lat="48.934317" lon="7.187104">
        <ele>291.0</ele>
        <time>2020-07-10T11:11:01Z</time>
      </trkpt>
      <trkpt lat="48.93428" lon="7.187005">
        <ele>291.0</ele>
        <time>2020-07-10T11:11:03Z</time>
      </trkpt>
      <trkpt lat="48.934241" lon="7.186906">
        <ele>292.0</ele>
        <time>2020-07-10T11:11:05Z</time>
      </trkpt>
      <trkpt lat="48.934199" lon="7.186805">
        <ele>292.0</ele>
        <time>2020-07-10T11:11:07Z</time>
      </trkpt>
      <trkpt lat="48.934158" lon="7.186698">
        <ele>292.0</ele>
        <time>2020-07-10T11:11:09Z</time>
      </trkpt>
      <trkpt lat="48.934122" lon="7.186586">
        <ele>292.0</ele>
        <time>2020-07-10T11:11:11Z</time>
      </trkpt>
      <trkpt lat="48.934088" lon="7.186493">
        <ele>291.0</ele>
        <time>2020-07-10T11:11:13Z</time>
      </trkpt>
      <trkpt lat="48.934042" lon="7.186403">
        <ele>291.0</ele>
        <time>2020-07-10T11:11:15Z</time>
      </trkpt>
      <trkpt lat="48.934004" lon="7.186311">
        <ele>291.0</ele>
        <time>2020-07-10T11:11:17Z</time>
      </trkpt>
      <trkpt lat="48.933958" lon="7.186216">
        <ele>291.0</ele>
        <time>2020-07-10T11:11:19Z</time>
      </trkpt>
      <trkpt lat="48.933896" lon="7.186131">
        <ele>290.0</ele>
        <time>2020-07-10T11:11:21Z</time>
      </trkpt>
      <trkpt lat="48.933822" lon="7.186056">
        <ele>290.0</ele>
        <time>2020-07-10T11:11:23Z</time>
      </trkpt>
      <trkpt lat="48.933737" lon="7.186004">
        <ele>289.0</ele>
        <time>2020-07-10T11:11:25Z</time>
      </trkpt>
      <trkpt lat="48.933639" lon="7.185948">
        <ele>288.0</ele>
        <time>2020-07-10T11:11:27Z</time>
      </trkpt>
      <trkpt lat="48.933528" lon="7.185893">
        <ele>287.0</ele>
        <time>2020-07-10T11:11:29Z</time>
      </trkpt>
      <trkpt lat="48.933411" lon="7.185838">
        <ele>287.0</ele>
        <time>2020-07-10T11:11:31Z</time>
      </trkpt>
      <trkpt lat="48.933295" lon="7.185791">
        <ele>287.0</ele>
        <time>2020-07-10T11:11:33Z</time>
      </trkpt>
      <trkpt lat="48.933182" lon="7.185745">
        <ele>287.0</ele>
        <time>2020-07-10T11:11:35Z</time>
      </trkpt>
      <trkpt lat="48.933061" lon="7.185714">
        <ele>286.0</ele>
        <time>2020-07-10T11:11:37Z</time>
      </trkpt>
      <trkpt lat="48.932945" lon="7.18568">
        <ele>286.0</ele>
        <time>2020-07-10T11:11:39Z</time>
      </trkpt>
      <trkpt lat="48.93282" lon="7.185663">
        <ele>286.0</ele>
        <time>2020-07-10T11:11:41Z</time>
      </trkpt>
      <trkpt lat="48.9327" lon="7.185642">
        <ele>286.0</ele>
        <time>2020-07-10T11:11:43Z</time>
      </trkpt>
      <trkpt lat="48.932579" lon="7.185636">
        <ele>287.0</ele>
        <time>2020-07-10T11:11:45Z</time>
      </trkpt>
      <trkpt lat="48.932458" lon="7.185619">
        <ele>287.0</ele>
        <time>2020-07-10T11:11:47Z</time>
      </trkpt>
      <trkpt lat="48.932342" lon="7.18561">
        <ele>287.0</ele>
        <time>2020-07-10T11:11:49Z</time>
      </trkpt>
      <trkpt lat="48.93222" lon="7.185592">
        <ele>287.0</ele>
        <time>2020-07-10T11:11:51Z</time>
      </trkpt>
      <trkpt lat="48.932103" lon="7.185578">
        <ele>287.0</ele>
        <time>2020-07-10T11:11:53Z</time>
      </trkpt>
      <trkpt lat="48.931987" lon="7.185573">
        <ele>287.0</ele>
        <time>2020-07-10T11:11:55Z</time>
      </trkpt>
      <trkpt lat="48.931874" lon="7.185566">
        <ele>287.0</ele>
        <time>2020-07-10T11:11:57Z</time>
      </trkpt>
      <trkpt lat="48.931763" lon="7.185554">
        <ele>287.0</ele>
        <time>2020-07-10T11:11:59Z</time>
      </trkpt>
      <trkpt lat="48.931658" lon="7.185549">
        <ele>287.0</ele>
        <time>2020-07-10T11:12:01Z</time>
      </trkpt>
      <trkpt lat="48.93155" lon="7.18553">
        <ele>286.0</ele>
        <time>2020-07-10T11:12:03Z</time>
      </trkpt>
      <trkpt lat="48.931434" lon="7.185509">
        <ele>287.0</ele>
        <time>2020-07-10T11:12:05Z</time>
      </trkpt>
      <trkpt lat="48.931323" lon="7.18548">
        <ele>286.0</ele>
        <time>2020-07-10T11:12:07Z</time>
      </trkpt>
      <trkpt lat="48.931166" lon="7.185456">
        <ele>286.0</ele>
        <time>2020-07-10T11:12:10Z</time>
      </trkpt>
      <trkpt lat="48.931061" lon="7.185442">
        <ele>287.0</ele>
        <time>2020-07-10T11:12:12Z</time>
      </trkpt>
      <trkpt lat="48.930972" lon="7.18543">
        <ele>287.0</ele>
        <time>2020-07-10T11:12:14Z</time>
      </trkpt>
      <trkpt lat="48.930931" lon="7.185425">
        <ele>287.0</ele>
        <time>2020-07-10T11:12:15Z</time>
      </trkpt>
      <trkpt lat="48.930799" lon="7.18541">
        <ele>287.0</ele>
        <time>2020-07-10T11:12:18Z</time>
      </trkpt>
      <trkpt lat="48.93072" lon="7.185403">
        <ele>286.0</ele>
        <time>2020-07-10T11:12:20Z</time>
      </trkpt>
      <trkpt lat="48.930641" lon="7.185399">
        <ele>287.0</ele>
        <time>2020-07-10T11:12:22Z</time>
      </trkpt>
      <trkpt lat="48.93058" lon="7.185412">
        <ele>287.0</ele>
        <time>2020-07-10T11:12:24Z</time>
      </trkpt>
      <trkpt lat="48.930523" lon="7.185432">
        <ele>287.0</ele>
        <time>2020-07-10T11:12:26Z</time>
      </trkpt>
      <trkpt lat="48.930457" lon="7.185444">
        <ele>287.0</ele>
        <time>2020-07-10T11:12:28Z</time>
      </trkpt>
      <trkpt lat="48.930388" lon="7.185459">
        <ele>286.0</ele>
        <time>2020-07-10T11:12:30Z</time>
      </trkpt>
      <trkpt lat="48.930315" lon="7.185495">
        <ele>286.0</ele>
        <time>2020-07-10T11:12:32Z</time>
      </trkpt>
      <trkpt lat="48.930241" lon="7.18554">
        <ele>287.0</ele>
        <time>2020-07-10T11:12:34Z</time>
      </trkpt>
      <trkpt lat="48.930162" lon="7.185589">
        <ele>287.0</ele>
        <time>2020-07-10T11:12:36Z</time>
      </trkpt>
      <trkpt lat="48.93008" lon="7.185634">
        <ele>287.0</ele>
        <time>2020-07-10T11:12:38Z</time>
      </trkpt>
      <trkpt lat="48.929995" lon="7.185682">
        <ele>287.0</ele>
        <time>2020-07-10T11:12:40Z</time>
      </trkpt>
      <trkpt lat="48.929917" lon="7.185732">
        <ele>287.0</ele>
        <time>2020-07-10T11:12:42Z</time>
      </trkpt>
      <trkpt lat="48.929837" lon="7.185774">
        <ele>288.0</ele>
        <time>2020-07-10T11:12:44Z</time>
      </trkpt>
      <trkpt lat="48.929759" lon="7.185822">
        <ele>288.0</ele>
        <time>2020-07-10T11:12:46Z</time>
      </trkpt>
      <trkpt lat="48.929676" lon="7.185865">
        <ele>289.0</ele>
        <time>2020-07-10T11:12:48Z</time>
      </trkpt>
      <trkpt lat="48.929596" lon="7.185916">
        <ele>289.0</ele>
        <time>2020-07-10T11:12:50Z</time>
      </trkpt>
      <trkpt lat="48.929521" lon="7.185969">
        <ele>289.0</ele>
        <time>2020-07-10T11:12:52Z</time>
      </trkpt>
      <trkpt lat="48.929442" lon="7.186005">
        <ele>290.0</ele>
        <time>2020-07-10T11:12:54Z</time>
      </trkpt>
      <trkpt lat="48.929364" lon="7.18605">
        <ele>290.0</ele>
        <time>2020-07-10T11:12:56Z</time>
      </trkpt>
      <trkpt lat="48.929287" lon="7.186089">
        <ele>290.0</ele>
        <time>2020-07-10T11:12:58Z</time>
      </trkpt>
      <trkpt lat="48.929206" lon="7.186128">
        <ele>289.0</ele>
        <time>2020-07-10T11:13:00Z</time>
      </trkpt>
      <trkpt lat="48.929127" lon="7.18618">
        <ele>290.0</ele>
        <time>2020-07-10T11:13:02Z</time>
      </trkpt>
      <trkpt lat="48.929052" lon="7.186223">
        <ele>290.0</ele>
        <time>2020-07-10T11:13:04Z</time>
      </trkpt>
      <trkpt lat="48.92897" lon="7.186266">
        <ele>290.0</ele>
        <time>2020-07-10T11:13:06Z</time>
      </trkpt>
      <trkpt lat="48.928893" lon="7.186306">
        <ele>291.0</ele>
        <time>2020-07-10T11:13:08Z</time>
      </trkpt>
      <trkpt lat="48.928816" lon="7.186347">
        <ele>291.0</ele>
        <time>2020-07-10T11:13:10Z</time>
      </trkpt>
      <trkpt lat="48.928738" lon="7.186393">
        <ele>290.0</ele>
        <time>2020-07-10T11:13:12Z</time>
      </trkpt>
      <trkpt lat="48.928662" lon="7.186443">
        <ele>291.0</ele>
        <time>2020-07-10T11:13:14Z</time>
      </trkpt>
      <trkpt lat="48.928584" lon="7.186492">
        <ele>291.0</ele>
        <time>2020-07-10T11:13:16Z</time>
      </trkpt>
      <trkpt lat="48.92851" lon="7.186538">
        <ele>290.0</ele>
        <time>2020-07-10T11:13:18Z</time>
      </trkpt>
      <trkpt lat="48.928443" lon="7.186582">
        <ele>291.0</ele>
        <time>2020-07-10T11:13:20Z</time>
      </trkpt>
      <trkpt lat="48.928375" lon="7.18662">
        <ele>291.0</ele>
        <time>2020-07-10T11:13:22Z</time>
      </trkpt>
      <trkpt lat="48.92831" lon="7.186658">
        <ele>291.0</ele>
        <time>2020-07-10T11:13:24Z</time>
      </trkpt>
      <trkpt lat="48.928247" lon="7.186701">
        <ele>291.0</ele>
        <time>2020-07-10T11:13:26Z</time>
      </trkpt>
      <trkpt lat="48.928189" lon="7.186737">
        <ele>291.0</ele>
        <time>2020-07-10T11:13:28Z</time>
      </trkpt>
      <trkpt lat="48.928132" lon="7.186772">
        <ele>292.0</ele>
        <time>2020-07-10T11:13:30Z</time>
      </trkpt>
      <trkpt lat="48.928074" lon="7.186805">
        <ele>292.0</ele>
        <time>2020-07-10T11:13:32Z</time>
      </trkpt>
      <trkpt lat="48.92802" lon="7.18684">
        <ele>292.0</ele>
        <time>2020-07-10T11:13:34Z</time>
      </trkpt>
      <trkpt lat="48.927965" lon="7.186869">
        <ele>292.0</ele>
        <time>2020-07-10T11:13:36Z</time>
      </trkpt>
      <trkpt lat="48.927912" lon="7.186905">
        <ele>292.0</ele>
        <time>2020-07-10T11:13:38Z</time>
      </trkpt>
      <trkpt lat="48.927859" lon="7.186939">
        <ele>293.0</ele>
        <time>2020-07-10T11:13:40Z</time>
      </trkpt>
      <trkpt lat="48.927806" lon="7.186962">
        <ele>293.0</ele>
        <time>2020-07-10T11:13:42Z</time>
      </trkpt>
      <trkpt lat="48.927753" lon="7.186988">
        <ele>293.0</ele>
        <time>2020-07-10T11:13:44Z</time>
      </trkpt>
      <trkpt lat="48.927702" lon="7.187021">
        <ele>293.0</ele>
        <time>2020-07-10T11:13:46Z</time>
      </trkpt>
      <trkpt lat="48.927647" lon="7.187043">
        <ele>293.0</ele>
        <time>2020-07-10T11:13:48Z</time>
      </trkpt>
      <trkpt lat="48.927593" lon="7.187067">
        <ele>293.0</ele>
        <time>2020-07-10T11:13:50Z</time>
      </trkpt>
      <trkpt lat="48.927538" lon="7.187089">
        <ele>293.0</ele>
        <time>2020-07-10T11:13:52Z</time>
      </trkpt>
      <trkpt lat="48.927488" lon="7.187116">
        <ele>294.0</ele>
        <time>2020-07-10T11:13:54Z</time>
      </trkpt>
      <trkpt lat="48.927443" lon="7.187139">
        <ele>294.0</ele>
        <time>2020-07-10T11:13:56Z</time>
      </trkpt>
      <trkpt lat="48.927395" lon="7.187156">
        <ele>294.0</ele>
        <time>2020-07-10T11:13:58Z</time>
      </trkpt>
      <trkpt lat="48.927345" lon="7.18717">
        <ele>295.0</ele>
        <time>2020-07-10T11:14:00Z</time>
      </trkpt>
      <trkpt lat="48.9273" lon="7.187188">
        <ele>295.0</ele>
        <time>2020-07-10T11:14:02Z</time>
      </trkpt>
      <trkpt lat="48.927256" lon="7.187203">
        <ele>295.0</ele>
        <time>2020-07-10T11:14:04Z</time>
      </trkpt>
      <trkpt lat="48.927211" lon="7.187219">
        <ele>295.0</ele>
        <time>2020-07-10T11:14:06Z</time>
      </trkpt>
      <trkpt lat="48.92717" lon="7.187232">
        <ele>295.0</ele>
        <time>2020-07-10T11:14:08Z</time>
      </trkpt>
      <trkpt lat="48.927125" lon="7.187257">
        <ele>295.0</ele>
        <time>2020-07-10T11:14:10Z</time>
      </trkpt>
      <trkpt lat="48.927078" lon="7.187266">
        <ele>295.0</ele>
        <time>2020-07-10T11:14:12Z</time>
      </trkpt>
      <trkpt lat="48.927034" lon="7.187269">
        <ele>296.0</ele>
        <time>2020-07-10T11:14:14Z</time>
      </trkpt>
      <trkpt lat="48.926992" lon="7.187282">
        <ele>296.0</ele>
        <time>2020-07-10T11:14:16Z</time>
      </trkpt>
      <trkpt lat="48.926951" lon="7.187283">
        <ele>296.0</ele>
        <time>2020-07-10T11:14:18Z</time>
      </trkpt>
      <trkpt lat="48.926908" lon="7.187282">
        <ele>297.0</ele>
        <time>2020-07-10T11:14:20Z</time>
      </trkpt>
      <trkpt lat="48.926868" lon="7.187281">
        <ele>297.0</ele>
        <time>2020-07-10T11:14:22Z</time>
      </trkpt>
      <trkpt lat="48.926825" lon="7.187287">
        <ele>297.0</ele>
        <time>2020-07-10T11:14:24Z</time>
      </trkpt>
      <trkpt lat="48.92678" lon="7.187288">
        <ele>298.0</ele>
        <time>2020-07-10T11:14:26Z</time>
      </trkpt>
      <trkpt lat="48.926737" lon="7.187293">
        <ele>298.0</ele>
        <time>2020-07-10T11:14:28Z</time>
      </trkpt>
      <trkpt lat="48.926689" lon="7.187302">
        <ele>298.0</ele>
        <time>2020-07-10T11:14:30Z</time>
      </trkpt>
      <trkpt lat="48.92664" lon="7.187305">
        <ele>298.0</ele>
        <time>2020-07-10T11:14:32Z</time>
      </trkpt>
      <trkpt lat="48.926591" lon="7.187308">
        <ele>298.0</ele>
        <time>2020-07-10T11:14:34Z</time>
      </trkpt>
      <trkpt lat="48.926541" lon="7.187305">
        <ele>298.0</ele>
        <time>2020-07-10T11:14:36Z</time>
      </trkpt>
      <trkpt lat="48.926496" lon="7.187301">
        <ele>298.0</ele>
        <time>2020-07-10T11:14:38Z</time>
      </trkpt>
      <trkpt lat="48.926448" lon="7.187307">
        <ele>299.0</ele>
        <time>2020-07-10T11:14:40Z</time>
      </trkpt>
      <trkpt lat="48.926403" lon="7.187305">
        <ele>298.0</ele>
        <time>2020-07-10T11:14:42Z</time>
      </trkpt>
      <trkpt lat="48.926358" lon="7.187303">
        <ele>298.0</ele>
        <time>2020-07-10T11:14:44Z</time>
      </trkpt>
      <trkpt lat="48.92631" lon="7.187296">
        <ele>298.0</ele>
        <time>2020-07-10T11:14:46Z</time>
      </trkpt>
      <trkpt lat="48.926266" lon="7.187288">
        <ele>298.0</ele>
        <time>2020-07-10T11:14:48Z</time>
      </trkpt>
      <trkpt lat="48.926215" lon="7.187278">
        <ele>298.0</ele>
        <time>2020-07-10T11:14:50Z</time>
      </trkpt>
      <trkpt lat="48.926199" lon="7.187273">
        <ele>297.0</ele>
        <time>2020-07-10T11:14:52Z</time>
      </trkpt>
      <trkpt lat="48.926146" lon="7.187258">
        <ele>297.0</ele>
        <time>2020-07-10T11:14:54Z</time>
      </trkpt>
      <trkpt lat="48.92609" lon="7.187236">
        <ele>297.0</ele>
        <time>2020-07-10T11:14:56Z</time>
      </trkpt>
      <trkpt lat="48.926033" lon="7.187208">
        <ele>297.0</ele>
        <time>2020-07-10T11:14:58Z</time>
      </trkpt>
      <trkpt lat="48.925972" lon="7.187185">
        <ele>297.0</ele>
        <time>2020-07-10T11:15:00Z</time>
      </trkpt>
      <trkpt lat="48.925905" lon="7.187157">
        <ele>297.0</ele>
        <time>2020-07-10T11:15:02Z</time>
      </trkpt>
      <trkpt lat="48.925844" lon="7.187129">
        <ele>298.0</ele>
        <time>2020-07-10T11:15:04Z</time>
      </trkpt>
      <trkpt lat="48.925788" lon="7.187096">
        <ele>298.0</ele>
        <time>2020-07-10T11:15:06Z</time>
      </trkpt>
      <trkpt lat="48.925745" lon="7.187067">
        <ele>297.0</ele>
        <time>2020-07-10T11:15:08Z</time>
      </trkpt>
      <trkpt lat="48.925702" lon="7.187043">
        <ele>298.0</ele>
        <time>2020-07-10T11:15:10Z</time>
      </trkpt>
      <trkpt lat="48.925639" lon="7.187019">
        <ele>298.0</ele>
        <time>2020-07-10T11:15:12Z</time>
      </trkpt>
      <trkpt lat="48.925571" lon="7.186989">
        <ele>298.0</ele>
        <time>2020-07-10T11:15:14Z</time>
      </trkpt>
      <trkpt lat="48.925504" lon="7.186961">
        <ele>299.0</ele>
        <time>2020-07-10T11:15:16Z</time>
      </trkpt>
      <trkpt lat="48.925425" lon="7.186931">
        <ele>299.0</ele>
        <time>2020-07-10T11:15:18Z</time>
      </trkpt>
      <trkpt lat="48.925337" lon="7.186913">
        <ele>300.0</ele>
        <time>2020-07-10T11:15:20Z</time>
      </trkpt>
      <trkpt lat="48.92519" lon="7.186898">
        <ele>301.0</ele>
        <time>2020-07-10T11:15:23Z</time>
      </trkpt>
      <trkpt lat="48.925135" lon="7.186905">
        <ele>301.0</ele>
        <time>2020-07-10T11:15:24Z</time>
      </trkpt>
      <trkpt lat="48.924964" lon="7.186963">
        <ele>301.0</ele>
        <time>2020-07-10T11:15:27Z</time>
      </trkpt>
      <trkpt lat="48.924862" lon="7.187061">
        <ele>301.0</ele>
        <time>2020-07-10T11:15:29Z</time>
      </trkpt>
      <trkpt lat="48.924763" lon="7.1872">
        <ele>301.0</ele>
        <time>2020-07-10T11:15:31Z</time>
      </trkpt>
      <trkpt lat="48.924657" lon="7.187328">
        <ele>301.0</ele>
        <time>2020-07-10T11:15:33Z</time>
      </trkpt>
      <trkpt lat="48.924519" lon="7.187356">
        <ele>301.0</ele>
        <time>2020-07-10T11:15:35Z</time>
      </trkpt>
      <trkpt lat="48.924382" lon="7.187287">
        <ele>300.0</ele>
        <time>2020-07-10T11:15:37Z</time>
      </trkpt>
      <trkpt lat="48.924247" lon="7.187135">
        <ele>299.0</ele>
        <time>2020-07-10T11:15:39Z</time>
      </trkpt>
      <trkpt lat="48.924138" lon="7.186959">
        <ele>299.0</ele>
        <time>2020-07-10T11:15:41Z</time>
      </trkpt>
      <trkpt lat="48.924039" lon="7.186764">
        <ele>299.0</ele>
        <time>2020-07-10T11:15:43Z</time>
      </trkpt>
      <trkpt lat="48.923931" lon="7.186571">
        <ele>299.0</ele>
        <time>2020-07-10T11:15:45Z</time>
      </trkpt>
      <trkpt lat="48.923819" lon="7.186368">
        <ele>297.0</ele>
        <time>2020-07-10T11:15:47Z</time>
      </trkpt>
      <trkpt lat="48.923711" lon="7.186166">
        <ele>296.0</ele>
        <time>2020-07-10T11:15:49Z</time>
      </trkpt>
      <trkpt lat="48.923602" lon="7.185972">
        <ele>295.0</ele>
        <time>2020-07-10T11:15:51Z</time>
      </trkpt>
      <trkpt lat="48.923497" lon="7.185775">
        <ele>295.0</ele>
        <time>2020-07-10T11:15:53Z</time>
      </trkpt>
      <trkpt lat="48.923374" lon="7.185576">
        <ele>294.0</ele>
        <time>2020-07-10T11:15:55Z</time>
      </trkpt>
      <trkpt lat="48.923251" lon="7.185385">
        <ele>293.0</ele>
        <time>2020-07-10T11:15:57Z</time>
      </trkpt>
      <trkpt lat="48.923131" lon="7.185192">
        <ele>293.0</ele>
        <time>2020-07-10T11:15:59Z</time>
      </trkpt>
      <trkpt lat="48.923026" lon="7.185045">
        <ele>292.0</ele>
        <time>2020-07-10T11:16:01Z</time>
      </trkpt>
      <trkpt lat="48.922948" lon="7.184924">
        <ele>291.0</ele>
        <time>2020-07-10T11:16:03Z</time>
      </trkpt>
      <trkpt lat="48.922871" lon="7.184803">
        <ele>290.0</ele>
        <time>2020-07-10T11:16:05Z</time>
      </trkpt>
      <trkpt lat="48.922795" lon="7.184666">
        <ele>289.0</ele>
        <time>2020-07-10T11:16:07Z</time>
      </trkpt>
      <trkpt lat="48.922706" lon="7.184518">
        <ele>288.0</ele>
        <time>2020-07-10T11:16:09Z</time>
      </trkpt>
      <trkpt lat="48.922609" lon="7.184378">
        <ele>287.0</ele>
        <time>2020-07-10T11:16:11Z</time>
      </trkpt>
      <trkpt lat="48.922504" lon="7.184225">
        <ele>287.0</ele>
        <time>2020-07-10T11:16:13Z</time>
      </trkpt>
      <trkpt lat="48.922394" lon="7.184068">
        <ele>287.0</ele>
        <time>2020-07-10T11:16:15Z</time>
      </trkpt>
      <trkpt lat="48.92228" lon="7.183903">
        <ele>286.0</ele>
        <time>2020-07-10T11:16:17Z</time>
      </trkpt>
      <trkpt lat="48.922164" lon="7.183737">
        <ele>285.0</ele>
        <time>2020-07-10T11:16:19Z</time>
      </trkpt>
      <trkpt lat="48.922052" lon="7.183556">
        <ele>285.0</ele>
        <time>2020-07-10T11:16:21Z</time>
      </trkpt>
      <trkpt lat="48.921959" lon="7.183416">
        <ele>284.0</ele>
        <time>2020-07-10T11:16:23Z</time>
      </trkpt>
      <trkpt lat="48.921887" lon="7.183321">
        <ele>283.0</ele>
        <time>2020-07-10T11:16:25Z</time>
      </trkpt>
      <trkpt lat="48.921786" lon="7.183257">
        <ele>283.0</ele>
        <time>2020-07-10T11:16:27Z</time>
      </trkpt>
      <trkpt lat="48.921664" lon="7.183237">
        <ele>282.0</ele>
        <time>2020-07-10T11:16:29Z</time>
      </trkpt>
      <trkpt lat="48.92155" lon="7.183288">
        <ele>282.0</ele>
        <time>2020-07-10T11:16:31Z</time>
      </trkpt>
      <trkpt lat="48.921435" lon="7.183365">
        <ele>282.0</ele>
        <time>2020-07-10T11:16:33Z</time>
      </trkpt>
      <trkpt lat="48.921325" lon="7.18345">
        <ele>281.0</ele>
        <time>2020-07-10T11:16:35Z</time>
      </trkpt>
      <trkpt lat="48.921217" lon="7.183517">
        <ele>281.0</ele>
        <time>2020-07-10T11:16:37Z</time>
      </trkpt>
      <trkpt lat="48.921097" lon="7.183545">
        <ele>281.0</ele>
        <time>2020-07-10T11:16:39Z</time>
      </trkpt>
      <trkpt lat="48.920987" lon="7.183516">
        <ele>281.0</ele>
        <time>2020-07-10T11:16:41Z</time>
      </trkpt>
      <trkpt lat="48.920897" lon="7.183458">
        <ele>281.0</ele>
        <time>2020-07-10T11:16:43Z</time>
      </trkpt>
      <trkpt lat="48.920814" lon="7.1834">
        <ele>281.0</ele>
        <time>2020-07-10T11:16:45Z</time>
      </trkpt>
      <trkpt lat="48.920733" lon="7.183343">
        <ele>282.0</ele>
        <time>2020-07-10T11:16:47Z</time>
      </trkpt>
      <trkpt lat="48.920667" lon="7.183288">
        <ele>282.0</ele>
        <time>2020-07-10T11:16:49Z</time>
      </trkpt>
      <trkpt lat="48.920604" lon="7.183248">
        <ele>282.0</ele>
        <time>2020-07-10T11:16:51Z</time>
      </trkpt>
      <trkpt lat="48.920544" lon="7.183205">
        <ele>283.0</ele>
        <time>2020-07-10T11:16:53Z</time>
      </trkpt>
      <trkpt lat="48.920483" lon="7.183157">
        <ele>283.0</ele>
        <time>2020-07-10T11:16:55Z</time>
      </trkpt>
      <trkpt lat="48.920429" lon="7.183098">
        <ele>283.0</ele>
        <time>2020-07-10T11:16:57Z</time>
      </trkpt>
      <trkpt lat="48.920361" lon="7.183041">
        <ele>283.0</ele>
        <time>2020-07-10T11:16:59Z</time>
      </trkpt>
      <trkpt lat="48.920283" lon="7.182997">
        <ele>283.0</ele>
        <time>2020-07-10T11:17:01Z</time>
      </trkpt>
      <trkpt lat="48.920198" lon="7.182939">
        <ele>284.0</ele>
        <time>2020-07-10T11:17:03Z</time>
      </trkpt>
      <trkpt lat="48.920112" lon="7.182881">
        <ele>284.0</ele>
        <time>2020-07-10T11:17:05Z</time>
      </trkpt>
      <trkpt lat="48.920024" lon="7.182828">
        <ele>283.0</ele>
        <time>2020-07-10T11:17:07Z</time>
      </trkpt>
      <trkpt lat="48.919934" lon="7.182763">
        <ele>284.0</ele>
        <time>2020-07-10T11:17:09Z</time>
      </trkpt>
      <trkpt lat="48.91985" lon="7.182697">
        <ele>284.0</ele>
        <time>2020-07-10T11:17:11Z</time>
      </trkpt>
      <trkpt lat="48.919764" lon="7.182629">
        <ele>284.0</ele>
        <time>2020-07-10T11:17:13Z</time>
      </trkpt>
      <trkpt lat="48.919667" lon="7.182583">
        <ele>284.0</ele>
        <time>2020-07-10T11:17:15Z</time>
      </trkpt>
      <trkpt lat="48.919572" lon="7.182532">
        <ele>284.0</ele>
        <time>2020-07-10T11:17:17Z</time>
      </trkpt>
      <trkpt lat="48.919492" lon="7.18247">
        <ele>285.0</ele>
        <time>2020-07-10T11:17:19Z</time>
      </trkpt>
      <trkpt lat="48.919418" lon="7.182409">
        <ele>285.0</ele>
        <time>2020-07-10T11:17:21Z</time>
      </trkpt>
      <trkpt lat="48.919342" lon="7.182352">
        <ele>285.0</ele>
        <time>2020-07-10T11:17:23Z</time>
      </trkpt>
      <trkpt lat="48.919261" lon="7.182303">
        <ele>285.0</ele>
        <time>2020-07-10T11:17:25Z</time>
      </trkpt>
      <trkpt lat="48.919186" lon="7.182264">
        <ele>285.0</ele>
        <time>2020-07-10T11:17:27Z</time>
      </trkpt>
      <trkpt lat="48.919112" lon="7.182221">
        <ele>285.0</ele>
        <time>2020-07-10T11:17:29Z</time>
      </trkpt>
      <trkpt lat="48.919035" lon="7.182189">
        <ele>284.0</ele>
        <time>2020-07-10T11:17:31Z</time>
      </trkpt>
      <trkpt lat="48.918951" lon="7.182159">
        <ele>283.0</ele>
        <time>2020-07-10T11:17:33Z</time>
      </trkpt>
      <trkpt lat="48.918874" lon="7.182141">
        <ele>282.0</ele>
        <time>2020-07-10T11:17:35Z</time>
      </trkpt>
      <trkpt lat="48.918805" lon="7.182135">
        <ele>282.0</ele>
        <time>2020-07-10T11:17:37Z</time>
      </trkpt>
      <trkpt lat="48.918744" lon="7.182135">
        <ele>282.0</ele>
        <time>2020-07-10T11:17:39Z</time>
      </trkpt>
      <trkpt lat="48.918677" lon="7.18214">
        <ele>281.0</ele>
        <time>2020-07-10T11:17:41Z</time>
      </trkpt>
      <trkpt lat="48.918602" lon="7.182151">
        <ele>282.0</ele>
        <time>2020-07-10T11:17:43Z</time>
      </trkpt>
      <trkpt lat="48.918526" lon="7.18217">
        <ele>282.0</ele>
        <time>2020-07-10T11:17:45Z</time>
      </trkpt>
      <trkpt lat="48.918449" lon="7.182196">
        <ele>282.0</ele>
        <time>2020-07-10T11:17:47Z</time>
      </trkpt>
      <trkpt lat="48.918374" lon="7.182228">
        <ele>281.0</ele>
        <time>2020-07-10T11:17:49Z</time>
      </trkpt>
      <trkpt lat="48.918288" lon="7.182273">
        <ele>282.0</ele>
        <time>2020-07-10T11:17:51Z</time>
      </trkpt>
      <trkpt lat="48.918204" lon="7.182323">
        <ele>283.0</ele>
        <time>2020-07-10T11:17:53Z</time>
      </trkpt>
      <trkpt lat="48.918119" lon="7.182358">
        <ele>283.0</ele>
        <time>2020-07-10T11:17:55Z</time>
      </trkpt>
      <trkpt lat="48.918031" lon="7.182404">
        <ele>283.0</ele>
        <time>2020-07-10T11:17:57Z</time>
      </trkpt>
      <trkpt lat="48.917947" lon="7.182453">
        <ele>283.0</ele>
        <time>2020-07-10T11:17:59Z</time>
      </trkpt>
      <trkpt lat="48.917862" lon="7.182504">
        <ele>284.0</ele>
        <time>2020-07-10T11:18:01Z</time>
      </trkpt>
      <trkpt lat="48.917774" lon="7.18256">
        <ele>284.0</ele>
        <time>2020-07-10T11:18:03Z</time>
      </trkpt>
      <trkpt lat="48.917676" lon="7.18261">
        <ele>284.0</ele>
        <time>2020-07-10T11:18:05Z</time>
      </trkpt>
      <trkpt lat="48.917574" lon="7.182667">
        <ele>283.0</ele>
        <time>2020-07-10T11:18:07Z</time>
      </trkpt>
      <trkpt lat="48.917463" lon="7.182731">
        <ele>282.0</ele>
        <time>2020-07-10T11:18:09Z</time>
      </trkpt>
      <trkpt lat="48.917358" lon="7.182778">
        <ele>281.0</ele>
        <time>2020-07-10T11:18:11Z</time>
      </trkpt>
      <trkpt lat="48.917256" lon="7.182824">
        <ele>281.0</ele>
        <time>2020-07-10T11:18:13Z</time>
      </trkpt>
      <trkpt lat="48.917156" lon="7.182875">
        <ele>280.0</ele>
        <time>2020-07-10T11:18:15Z</time>
      </trkpt>
      <trkpt lat="48.917054" lon="7.182919">
        <ele>281.0</ele>
        <time>2020-07-10T11:18:17Z</time>
      </trkpt>
      <trkpt lat="48.916961" lon="7.182973">
        <ele>281.0</ele>
        <time>2020-07-10T11:18:19Z</time>
      </trkpt>
      <trkpt lat="48.916828" lon="7.183021">
        <ele>281.0</ele>
        <time>2020-07-10T11:18:22Z</time>
      </trkpt>
      <trkpt lat="48.916781" lon="7.183042">
        <ele>281.0</ele>
        <time>2020-07-10T11:18:23Z</time>
      </trkpt>
      <trkpt lat="48.916638" lon="7.183091">
        <ele>281.0</ele>
        <time>2020-07-10T11:18:26Z</time>
      </trkpt>
      <trkpt lat="48.916549" lon="7.18313">
        <ele>282.0</ele>
        <time>2020-07-10T11:18:28Z</time>
      </trkpt>
      <trkpt lat="48.916461" lon="7.183162">
        <ele>282.0</ele>
        <time>2020-07-10T11:18:30Z</time>
      </trkpt>
      <trkpt lat="48.916383" lon="7.183191">
        <ele>281.0</ele>
        <time>2020-07-10T11:18:32Z</time>
      </trkpt>
      <trkpt lat="48.916305" lon="7.183222">
        <ele>281.0</ele>
        <time>2020-07-10T11:18:34Z</time>
      </trkpt>
      <trkpt lat="48.916239" lon="7.183239">
        <ele>282.0</ele>
        <time>2020-07-10T11:18:36Z</time>
      </trkpt>
      <trkpt lat="48.916185" lon="7.18325">
        <ele>282.0</ele>
        <time>2020-07-10T11:18:38Z</time>
      </trkpt>
      <trkpt lat="48.916125" lon="7.183269">
        <ele>282.0</ele>
        <time>2020-07-10T11:18:40Z</time>
      </trkpt>
      <trkpt lat="48.916064" lon="7.183291">
        <ele>282.0</ele>
        <time>2020-07-10T11:18:42Z</time>
      </trkpt>
      <trkpt lat="48.916004" lon="7.183315">
        <ele>283.0</ele>
        <time>2020-07-10T11:18:44Z</time>
      </trkpt>
      <trkpt lat="48.915944" lon="7.183344">
        <ele>283.0</ele>
        <time>2020-07-10T11:18:46Z</time>
      </trkpt>
      <trkpt lat="48.915874" lon="7.183373">
        <ele>284.0</ele>
        <time>2020-07-10T11:18:48Z</time>
      </trkpt>
      <trkpt lat="48.915799" lon="7.183401">
        <ele>284.0</ele>
        <time>2020-07-10T11:18:50Z</time>
      </trkpt>
      <trkpt lat="48.915722" lon="7.183424">
        <ele>284.0</ele>
        <time>2020-07-10T11:18:52Z</time>
      </trkpt>
      <trkpt lat="48.915661" lon="7.183444">
        <ele>285.0</ele>
        <time>2020-07-10T11:18:54Z</time>
      </trkpt>
      <trkpt lat="48.915598" lon="7.183462">
        <ele>286.0</ele>
        <time>2020-07-10T11:18:56Z</time>
      </trkpt>
      <trkpt lat="48.915538" lon="7.183486">
        <ele>286.0</ele>
        <time>2020-07-10T11:18:58Z</time>
      </trkpt>
      <trkpt lat="48.915471" lon="7.183506">
        <ele>286.0</ele>
        <time>2020-07-10T11:19:00Z</time>
      </trkpt>
      <trkpt lat="48.915393" lon="7.183526">
        <ele>287.0</ele>
        <time>2020-07-10T11:19:02Z</time>
      </trkpt>
      <trkpt lat="48.915288" lon="7.183572">
        <ele>288.0</ele>
        <time>2020-07-10T11:19:04Z</time>
      </trkpt>
      <trkpt lat="48.915209" lon="7.183605">
        <ele>289.0</ele>
        <time>2020-07-10T11:19:06Z</time>
      </trkpt>
      <trkpt lat="48.915128" lon="7.183636">
        <ele>290.0</ele>
        <time>2020-07-10T11:19:08Z</time>
      </trkpt>
      <trkpt lat="48.915044" lon="7.18368">
        <ele>290.0</ele>
        <time>2020-07-10T11:19:10Z</time>
      </trkpt>
      <trkpt lat="48.914969" lon="7.183719">
        <ele>290.0</ele>
        <time>2020-07-10T11:19:12Z</time>
      </trkpt>
      <trkpt lat="48.914893" lon="7.18374">
        <ele>289.0</ele>
        <time>2020-07-10T11:19:14Z</time>
      </trkpt>
      <trkpt lat="48.914812" lon="7.183767">
        <ele>289.0</ele>
        <time>2020-07-10T11:19:16Z</time>
      </trkpt>
      <trkpt lat="48.914718" lon="7.183791">
        <ele>289.0</ele>
        <time>2020-07-10T11:19:18Z</time>
      </trkpt>
      <trkpt lat="48.914633" lon="7.183818">
        <ele>289.0</ele>
        <time>2020-07-10T11:19:20Z</time>
      </trkpt>
      <trkpt lat="48.914544" lon="7.183858">
        <ele>289.0</ele>
        <time>2020-07-10T11:19:22Z</time>
      </trkpt>
      <trkpt lat="48.914459" lon="7.183887">
        <ele>289.0</ele>
        <time>2020-07-10T11:19:24Z</time>
      </trkpt>
      <trkpt lat="48.914376" lon="7.18392">
        <ele>289.0</ele>
        <time>2020-07-10T11:19:26Z</time>
      </trkpt>
      <trkpt lat="48.914301" lon="7.183954">
        <ele>290.0</ele>
        <time>2020-07-10T11:19:28Z</time>
      </trkpt>
      <trkpt lat="48.914234" lon="7.183988">
        <ele>289.0</ele>
        <time>2020-07-10T11:19:30Z</time>
      </trkpt>
      <trkpt lat="48.91417" lon="7.184021">
        <ele>289.0</ele>
        <time>2020-07-10T11:19:32Z</time>
      </trkpt>
      <trkpt lat="48.914104" lon="7.18405">
        <ele>289.0</ele>
        <time>2020-07-10T11:19:34Z</time>
      </trkpt>
      <trkpt lat="48.914042" lon="7.184077">
        <ele>289.0</ele>
        <time>2020-07-10T11:19:36Z</time>
      </trkpt>
      <trkpt lat="48.91398" lon="7.184105">
        <ele>289.0</ele>
        <time>2020-07-10T11:19:38Z</time>
      </trkpt>
      <trkpt lat="48.913918" lon="7.184131">
        <ele>289.0</ele>
        <time>2020-07-10T11:19:40Z</time>
      </trkpt>
      <trkpt lat="48.913866" lon="7.184168">
        <ele>290.0</ele>
        <time>2020-07-10T11:19:42Z</time>
      </trkpt>
      <trkpt lat="48.913807" lon="7.184195">
        <ele>290.0</ele>
        <time>2020-07-10T11:19:44Z</time>
      </trkpt>
      <trkpt lat="48.913746" lon="7.18421">
        <ele>291.0</ele>
        <time>2020-07-10T11:19:46Z</time>
      </trkpt>
      <trkpt lat="48.913693" lon="7.184235">
        <ele>291.0</ele>
        <time>2020-07-10T11:19:48Z</time>
      </trkpt>
      <trkpt lat="48.913634" lon="7.184262">
        <ele>292.0</ele>
        <time>2020-07-10T11:19:50Z</time>
      </trkpt>
      <trkpt lat="48.913572" lon="7.184282">
        <ele>291.0</ele>
        <time>2020-07-10T11:19:52Z</time>
      </trkpt>
      <trkpt lat="48.91352" lon="7.184313">
        <ele>291.0</ele>
        <time>2020-07-10T11:19:54Z</time>
      </trkpt>
      <trkpt lat="48.91346" lon="7.184336">
        <ele>292.0</ele>
        <time>2020-07-10T11:19:56Z</time>
      </trkpt>
      <trkpt lat="48.913401" lon="7.184365">
        <ele>292.0</ele>
        <time>2020-07-10T11:19:58Z</time>
      </trkpt>
      <trkpt lat="48.913342" lon="7.184394">
        <ele>292.0</ele>
        <time>2020-07-10T11:20:00Z</time>
      </trkpt>
      <trkpt lat="48.913285" lon="7.184411">
        <ele>292.0</ele>
        <time>2020-07-10T11:20:02Z</time>
      </trkpt>
      <trkpt lat="48.913233" lon="7.184436">
        <ele>291.0</ele>
        <time>2020-07-10T11:20:04Z</time>
      </trkpt>
      <trkpt lat="48.913183" lon="7.184456">
        <ele>291.0</ele>
        <time>2020-07-10T11:20:06Z</time>
      </trkpt>
      <trkpt lat="48.913126" lon="7.184485">
        <ele>292.0</ele>
        <time>2020-07-10T11:20:08Z</time>
      </trkpt>
      <trkpt lat="48.913061" lon="7.184514">
        <ele>292.0</ele>
        <time>2020-07-10T11:20:10Z</time>
      </trkpt>
      <trkpt lat="48.913003" lon="7.184546">
        <ele>292.0</ele>
        <time>2020-07-10T11:20:12Z</time>
      </trkpt>
      <trkpt lat="48.912937" lon="7.184587">
        <ele>291.0</ele>
        <time>2020-07-10T11:20:14Z</time>
      </trkpt>
      <trkpt lat="48.912881" lon="7.18462">
        <ele>291.0</ele>
        <time>2020-07-10T11:20:16Z</time>
      </trkpt>
      <trkpt lat="48.912822" lon="7.184651">
        <ele>292.0</ele>
        <time>2020-07-10T11:20:18Z</time>
      </trkpt>
      <trkpt lat="48.912766" lon="7.184686">
        <ele>293.0</ele>
        <time>2020-07-10T11:20:20Z</time>
      </trkpt>
      <trkpt lat="48.912702" lon="7.184731">
        <ele>293.0</ele>
        <time>2020-07-10T11:20:22Z</time>
      </trkpt>
      <trkpt lat="48.912638" lon="7.184775">
        <ele>293.0</ele>
        <time>2020-07-10T11:20:24Z</time>
      </trkpt>
      <trkpt lat="48.912576" lon="7.184811">
        <ele>293.0</ele>
        <time>2020-07-10T11:20:26Z</time>
      </trkpt>
      <trkpt lat="48.912519" lon="7.184858">
        <ele>293.0</ele>
        <time>2020-07-10T11:20:28Z</time>
      </trkpt>
      <trkpt lat="48.912458" lon="7.184903">
        <ele>294.0</ele>
        <time>2020-07-10T11:20:30Z</time>
      </trkpt>
      <trkpt lat="48.912394" lon="7.184948">
        <ele>294.0</ele>
        <time>2020-07-10T11:20:32Z</time>
      </trkpt>
      <trkpt lat="48.912334" lon="7.184989">
        <ele>294.0</ele>
        <time>2020-07-10T11:20:34Z</time>
      </trkpt>
      <trkpt lat="48.912275" lon="7.185038">
        <ele>296.0</ele>
        <time>2020-07-10T11:20:36Z</time>
      </trkpt>
      <trkpt lat="48.912214" lon="7.185081">
        <ele>296.0</ele>
        <time>2020-07-10T11:20:38Z</time>
      </trkpt>
      <trkpt lat="48.912155" lon="7.185119">
        <ele>296.0</ele>
        <time>2020-07-10T11:20:40Z</time>
      </trkpt>
      <trkpt lat="48.912096" lon="7.185162">
        <ele>296.0</ele>
        <time>2020-07-10T11:20:42Z</time>
      </trkpt>
      <trkpt lat="48.912035" lon="7.185206">
        <ele>296.0</ele>
        <time>2020-07-10T11:20:44Z</time>
      </trkpt>
      <trkpt lat="48.911974" lon="7.185244">
        <ele>295.0</ele>
        <time>2020-07-10T11:20:46Z</time>
      </trkpt>
      <trkpt lat="48.91191" lon="7.185285">
        <ele>295.0</ele>
        <time>2020-07-10T11:20:48Z</time>
      </trkpt>
      <trkpt lat="48.911818" lon="7.185349">
        <ele>295.0</ele>
        <time>2020-07-10T11:20:51Z</time>
      </trkpt>
      <trkpt lat="48.911788" lon="7.185371">
        <ele>295.0</ele>
        <time>2020-07-10T11:20:52Z</time>
      </trkpt>
      <trkpt lat="48.911728" lon="7.185412">
        <ele>295.0</ele>
        <time>2020-07-10T11:20:54Z</time>
      </trkpt>
      <trkpt lat="48.911666" lon="7.185445">
        <ele>296.0</ele>
        <time>2020-07-10T11:20:56Z</time>
      </trkpt>
      <trkpt lat="48.911578" lon="7.185501">
        <ele>296.0</ele>
        <time>2020-07-10T11:20:59Z</time>
      </trkpt>
      <trkpt lat="48.911518" lon="7.185536">
        <ele>296.0</ele>
        <time>2020-07-10T11:21:01Z</time>
      </trkpt>
      <trkpt lat="48.911461" lon="7.185568">
        <ele>296.0</ele>
        <time>2020-07-10T11:21:03Z</time>
      </trkpt>
      <trkpt lat="48.911408" lon="7.185604">
        <ele>297.0</ele>
        <time>2020-07-10T11:21:05Z</time>
      </trkpt>
      <trkpt lat="48.911351" lon="7.185646">
        <ele>298.0</ele>
        <time>2020-07-10T11:21:07Z</time>
      </trkpt>
      <trkpt lat="48.911292" lon="7.185684">
        <ele>297.0</ele>
        <time>2020-07-10T11:21:09Z</time>
      </trkpt>
      <trkpt lat="48.911236" lon="7.185727">
        <ele>297.0</ele>
        <time>2020-07-10T11:21:11Z</time>
      </trkpt>
      <trkpt lat="48.911178" lon="7.185765">
        <ele>297.0</ele>
        <time>2020-07-10T11:21:13Z</time>
      </trkpt>
      <trkpt lat="48.911125" lon="7.185805">
        <ele>298.0</ele>
        <time>2020-07-10T11:21:15Z</time>
      </trkpt>
      <trkpt lat="48.911066" lon="7.18585">
        <ele>298.0</ele>
        <time>2020-07-10T11:21:17Z</time>
      </trkpt>
      <trkpt lat="48.911004" lon="7.185881">
        <ele>298.0</ele>
        <time>2020-07-10T11:21:19Z</time>
      </trkpt>
      <trkpt lat="48.91094" lon="7.185915">
        <ele>298.0</ele>
        <time>2020-07-10T11:21:21Z</time>
      </trkpt>
      <trkpt lat="48.910878" lon="7.185959">
        <ele>298.0</ele>
        <time>2020-07-10T11:21:23Z</time>
      </trkpt>
      <trkpt lat="48.910816" lon="7.185993">
        <ele>298.0</ele>
        <time>2020-07-10T11:21:25Z</time>
      </trkpt>
      <trkpt lat="48.910752" lon="7.186033">
        <ele>298.0</ele>
        <time>2020-07-10T11:21:27Z</time>
      </trkpt>
      <trkpt lat="48.910687" lon="7.186075">
        <ele>298.0</ele>
        <time>2020-07-10T11:21:29Z</time>
      </trkpt>
      <trkpt lat="48.91062" lon="7.186117">
        <ele>298.0</ele>
        <time>2020-07-10T11:21:31Z</time>
      </trkpt>
      <trkpt lat="48.910548" lon="7.186156">
        <ele>299.0</ele>
        <time>2020-07-10T11:21:33Z</time>
      </trkpt>
      <trkpt lat="48.910477" lon="7.186195">
        <ele>300.0</ele>
        <time>2020-07-10T11:21:35Z</time>
      </trkpt>
      <trkpt lat="48.910407" lon="7.186238">
        <ele>300.0</ele>
        <time>2020-07-10T11:21:37Z</time>
      </trkpt>
      <trkpt lat="48.91034" lon="7.186279">
        <ele>300.0</ele>
        <time>2020-07-10T11:21:39Z</time>
      </trkpt>
      <trkpt lat="48.910266" lon="7.186321">
        <ele>301.0</ele>
        <time>2020-07-10T11:21:41Z</time>
      </trkpt>
      <trkpt lat="48.910191" lon="7.186362">
        <ele>302.0</ele>
        <time>2020-07-10T11:21:43Z</time>
      </trkpt>
      <trkpt lat="48.910112" lon="7.186396">
        <ele>302.0</ele>
        <time>2020-07-10T11:21:45Z</time>
      </trkpt>
      <trkpt lat="48.910033" lon="7.186435">
        <ele>302.0</ele>
        <time>2020-07-10T11:21:47Z</time>
      </trkpt>
      <trkpt lat="48.909955" lon="7.186477">
        <ele>301.0</ele>
        <time>2020-07-10T11:21:49Z</time>
      </trkpt>
      <trkpt lat="48.909865" lon="7.186522">
        <ele>301.0</ele>
        <time>2020-07-10T11:21:51Z</time>
      </trkpt>
      <trkpt lat="48.909787" lon="7.18657">
        <ele>301.0</ele>
        <time>2020-07-10T11:21:53Z</time>
      </trkpt>
      <trkpt lat="48.909703" lon="7.186605">
        <ele>301.0</ele>
        <time>2020-07-10T11:21:55Z</time>
      </trkpt>
      <trkpt lat="48.909621" lon="7.186657">
        <ele>301.0</ele>
        <time>2020-07-10T11:21:57Z</time>
      </trkpt>
      <trkpt lat="48.909534" lon="7.186701">
        <ele>301.0</ele>
        <time>2020-07-10T11:21:59Z</time>
      </trkpt>
      <trkpt lat="48.909437" lon="7.18675">
        <ele>301.0</ele>
        <time>2020-07-10T11:22:01Z</time>
      </trkpt>
      <trkpt lat="48.909331" lon="7.18681">
        <ele>301.0</ele>
        <time>2020-07-10T11:22:03Z</time>
      </trkpt>
      <trkpt lat="48.909224" lon="7.186863">
        <ele>300.0</ele>
        <time>2020-07-10T11:22:05Z</time>
      </trkpt>
      <trkpt lat="48.909106" lon="7.186922">
        <ele>300.0</ele>
        <time>2020-07-10T11:22:07Z</time>
      </trkpt>
      <trkpt lat="48.908974" lon="7.186989">
        <ele>299.0</ele>
        <time>2020-07-10T11:22:09Z</time>
      </trkpt>
      <trkpt lat="48.908835" lon="7.187057">
        <ele>298.0</ele>
        <time>2020-07-10T11:22:11Z</time>
      </trkpt>
      <trkpt lat="48.908703" lon="7.18713">
        <ele>298.0</ele>
        <time>2020-07-10T11:22:13Z</time>
      </trkpt>
      <trkpt lat="48.90857" lon="7.187213">
        <ele>297.0</ele>
        <time>2020-07-10T11:22:15Z</time>
      </trkpt>
      <trkpt lat="48.908433" lon="7.187296">
        <ele>297.0</ele>
        <time>2020-07-10T11:22:17Z</time>
      </trkpt>
      <trkpt lat="48.908288" lon="7.187372">
        <ele>296.0</ele>
        <time>2020-07-10T11:22:19Z</time>
      </trkpt>
      <trkpt lat="48.90814" lon="7.187446">
        <ele>295.0</ele>
        <time>2020-07-10T11:22:21Z</time>
      </trkpt>
      <trkpt lat="48.907984" lon="7.187524">
        <ele>294.0</ele>
        <time>2020-07-10T11:22:23Z</time>
      </trkpt>
      <trkpt lat="48.907818" lon="7.187609">
        <ele>294.0</ele>
        <time>2020-07-10T11:22:25Z</time>
      </trkpt>
      <trkpt lat="48.907656" lon="7.187693">
        <ele>294.0</ele>
        <time>2020-07-10T11:22:27Z</time>
      </trkpt>
      <trkpt lat="48.907489" lon="7.18778">
        <ele>295.0</ele>
        <time>2020-07-10T11:22:29Z</time>
      </trkpt>
      <trkpt lat="48.907326" lon="7.187872">
        <ele>295.0</ele>
        <time>2020-07-10T11:22:31Z</time>
      </trkpt>
      <trkpt lat="48.907163" lon="7.187949">
        <ele>294.0</ele>
        <time>2020-07-10T11:22:33Z</time>
      </trkpt>
      <trkpt lat="48.907011" lon="7.187887">
        <ele>293.0</ele>
        <time>2020-07-10T11:22:35Z</time>
      </trkpt>
      <trkpt lat="48.906899" lon="7.187739">
        <ele>293.0</ele>
        <time>2020-07-10T11:22:37Z</time>
      </trkpt>
      <trkpt lat="48.906795" lon="7.187607">
        <ele>293.0</ele>
        <time>2020-07-10T11:22:39Z</time>
      </trkpt>
      <trkpt lat="48.906696" lon="7.187488">
        <ele>293.0</ele>
        <time>2020-07-10T11:22:41Z</time>
      </trkpt>
      <trkpt lat="48.906592" lon="7.187392">
        <ele>293.0</ele>
        <time>2020-07-10T11:22:43Z</time>
      </trkpt>
      <trkpt lat="48.906489" lon="7.187317">
        <ele>293.0</ele>
        <time>2020-07-10T11:22:45Z</time>
      </trkpt>
      <trkpt lat="48.906385" lon="7.187247">
        <ele>293.0</ele>
        <time>2020-07-10T11:22:47Z</time>
      </trkpt>
      <trkpt lat="48.906279" lon="7.18716">
        <ele>292.0</ele>
        <time>2020-07-10T11:22:49Z</time>
      </trkpt>
      <trkpt lat="48.906161" lon="7.187072">
        <ele>292.0</ele>
        <time>2020-07-10T11:22:51Z</time>
      </trkpt>
      <trkpt lat="48.906047" lon="7.186957">
        <ele>292.0</ele>
        <time>2020-07-10T11:22:53Z</time>
      </trkpt>
      <trkpt lat="48.905947" lon="7.186799">
        <ele>291.0</ele>
        <time>2020-07-10T11:22:55Z</time>
      </trkpt>
      <trkpt lat="48.905875" lon="7.186631">
        <ele>291.0</ele>
        <time>2020-07-10T11:22:57Z</time>
      </trkpt>
      <trkpt lat="48.905811" lon="7.186479">
        <ele>291.0</ele>
        <time>2020-07-10T11:22:59Z</time>
      </trkpt>
      <trkpt lat="48.905744" lon="7.186327">
        <ele>291.0</ele>
        <time>2020-07-10T11:23:01Z</time>
      </trkpt>
      <trkpt lat="48.905682" lon="7.186177">
        <ele>290.0</ele>
        <time>2020-07-10T11:23:03Z</time>
      </trkpt>
      <trkpt lat="48.905615" lon="7.186038">
        <ele>290.0</ele>
        <time>2020-07-10T11:23:05Z</time>
      </trkpt>
      <trkpt lat="48.905546" lon="7.185921">
        <ele>290.0</ele>
        <time>2020-07-10T11:23:07Z</time>
      </trkpt>
      <trkpt lat="48.905477" lon="7.185804">
        <ele>290.0</ele>
        <time>2020-07-10T11:23:09Z</time>
      </trkpt>
      <trkpt lat="48.905409" lon="7.185701">
        <ele>290.0</ele>
        <time>2020-07-10T11:23:11Z</time>
      </trkpt>
      <trkpt lat="48.905336" lon="7.185599">
        <ele>290.0</ele>
        <time>2020-07-10T11:23:13Z</time>
      </trkpt>
      <trkpt lat="48.905255" lon="7.185509">
        <ele>290.0</ele>
        <time>2020-07-10T11:23:15Z</time>
      </trkpt>
      <trkpt lat="48.905174" lon="7.185415">
        <ele>290.0</ele>
        <time>2020-07-10T11:23:17Z</time>
      </trkpt>
      <trkpt lat="48.905092" lon="7.185328">
        <ele>290.0</ele>
        <time>2020-07-10T11:23:19Z</time>
      </trkpt>
      <trkpt lat="48.905019" lon="7.185251">
        <ele>291.0</ele>
        <time>2020-07-10T11:23:21Z</time>
      </trkpt>
      <trkpt lat="48.904954" lon="7.185192">
        <ele>291.0</ele>
        <time>2020-07-10T11:23:23Z</time>
      </trkpt>
      <trkpt lat="48.904895" lon="7.185142">
        <ele>291.0</ele>
        <time>2020-07-10T11:23:25Z</time>
      </trkpt>
      <trkpt lat="48.904837" lon="7.185088">
        <ele>291.0</ele>
        <time>2020-07-10T11:23:27Z</time>
      </trkpt>
      <trkpt lat="48.904784" lon="7.185027">
        <ele>291.0</ele>
        <time>2020-07-10T11:23:29Z</time>
      </trkpt>
      <trkpt lat="48.904739" lon="7.184959">
        <ele>291.0</ele>
        <time>2020-07-10T11:23:31Z</time>
      </trkpt>
      <trkpt lat="48.904694" lon="7.184896">
        <ele>291.0</ele>
        <time>2020-07-10T11:23:33Z</time>
      </trkpt>
      <trkpt lat="48.904646" lon="7.184831">
        <ele>291.0</ele>
        <time>2020-07-10T11:23:35Z</time>
      </trkpt>
      <trkpt lat="48.904606" lon="7.18477">
        <ele>292.0</ele>
        <time>2020-07-10T11:23:37Z</time>
      </trkpt>
      <trkpt lat="48.904575" lon="7.184707">
        <ele>292.0</ele>
        <time>2020-07-10T11:23:39Z</time>
      </trkpt>
      <trkpt lat="48.904542" lon="7.184649">
        <ele>292.0</ele>
        <time>2020-07-10T11:23:41Z</time>
      </trkpt>
      <trkpt lat="48.904513" lon="7.184589">
        <ele>292.0</ele>
        <time>2020-07-10T11:23:43Z</time>
      </trkpt>
      <trkpt lat="48.904491" lon="7.184527">
        <ele>293.0</ele>
        <time>2020-07-10T11:23:45Z</time>
      </trkpt>
      <trkpt lat="48.904473" lon="7.184453">
        <ele>293.0</ele>
        <time>2020-07-10T11:23:47Z</time>
      </trkpt>
      <trkpt lat="48.904448" lon="7.184391">
        <ele>293.0</ele>
        <time>2020-07-10T11:23:49Z</time>
      </trkpt>
      <trkpt lat="48.904426" lon="7.184321">
        <ele>294.0</ele>
        <time>2020-07-10T11:23:51Z</time>
      </trkpt>
      <trkpt lat="48.904412" lon="7.18424">
        <ele>294.0</ele>
        <time>2020-07-10T11:23:53Z</time>
      </trkpt>
      <trkpt lat="48.904387" lon="7.184144">
        <ele>295.0</ele>
        <time>2020-07-10T11:23:56Z</time>
      </trkpt>
      <trkpt lat="48.904363" lon="7.184084">
        <ele>295.0</ele>
        <time>2020-07-10T11:23:58Z</time>
      </trkpt>
      <trkpt lat="48.904339" lon="7.184025">
        <ele>295.0</ele>
        <time>2020-07-10T11:24:00Z</time>
      </trkpt>
      <trkpt lat="48.904315" lon="7.183963">
        <ele>295.0</ele>
        <time>2020-07-10T11:24:02Z</time>
      </trkpt>
      <trkpt lat="48.904293" lon="7.183899">
        <ele>296.0</ele>
        <time>2020-07-10T11:24:04Z</time>
      </trkpt>
      <trkpt lat="48.904272" lon="7.18383">
        <ele>296.0</ele>
        <time>2020-07-10T11:24:06Z</time>
      </trkpt>
      <trkpt lat="48.904243" lon="7.183773">
        <ele>296.0</ele>
        <time>2020-07-10T11:24:08Z</time>
      </trkpt>
      <trkpt lat="48.904214" lon="7.183714">
        <ele>297.0</ele>
        <time>2020-07-10T11:24:10Z</time>
      </trkpt>
      <trkpt lat="48.904181" lon="7.18365">
        <ele>298.0</ele>
        <time>2020-07-10T11:24:12Z</time>
      </trkpt>
      <trkpt lat="48.904149" lon="7.183593">
        <ele>298.0</ele>
        <time>2020-07-10T11:24:14Z</time>
      </trkpt>
      <trkpt lat="48.904117" lon="7.183524">
        <ele>298.0</ele>
        <time>2020-07-10T11:24:16Z</time>
      </trkpt>
      <trkpt lat="48.904084" lon="7.183459">
        <ele>299.0</ele>
        <time>2020-07-10T11:24:18Z</time>
      </trkpt>
      <trkpt lat="48.904061" lon="7.183398">
        <ele>299.0</ele>
        <time>2020-07-10T11:24:20Z</time>
      </trkpt>
      <trkpt lat="48.904037" lon="7.183341">
        <ele>300.0</ele>
        <time>2020-07-10T11:24:22Z</time>
      </trkpt>
      <trkpt lat="48.904014" lon="7.183282">
        <ele>300.0</ele>
        <time>2020-07-10T11:24:24Z</time>
      </trkpt>
      <trkpt lat="48.903995" lon="7.183222">
        <ele>301.0</ele>
        <time>2020-07-10T11:24:26Z</time>
      </trkpt>
      <trkpt lat="48.903973" lon="7.183158">
        <ele>301.0</ele>
        <time>2020-07-10T11:24:28Z</time>
      </trkpt>
      <trkpt lat="48.903954" lon="7.183095">
        <ele>302.0</ele>
        <time>2020-07-10T11:24:30Z</time>
      </trkpt>
      <trkpt lat="48.903936" lon="7.183033">
        <ele>302.0</ele>
        <time>2020-07-10T11:24:32Z</time>
      </trkpt>
      <trkpt lat="48.903917" lon="7.182968">
        <ele>302.0</ele>
        <time>2020-07-10T11:24:34Z</time>
      </trkpt>
      <trkpt lat="48.9039" lon="7.182903">
        <ele>303.0</ele>
        <time>2020-07-10T11:24:36Z</time>
      </trkpt>
      <trkpt lat="48.903885" lon="7.182835">
        <ele>303.0</ele>
        <time>2020-07-10T11:24:38Z</time>
      </trkpt>
      <trkpt lat="48.903872" lon="7.182768">
        <ele>303.0</ele>
        <time>2020-07-10T11:24:40Z</time>
      </trkpt>
      <trkpt lat="48.903857" lon="7.182701">
        <ele>303.0</ele>
        <time>2020-07-10T11:24:42Z</time>
      </trkpt>
      <trkpt lat="48.903837" lon="7.182634">
        <ele>304.0</ele>
        <time>2020-07-10T11:24:44Z</time>
      </trkpt>
      <trkpt lat="48.903811" lon="7.182565">
        <ele>304.0</ele>
        <time>2020-07-10T11:24:46Z</time>
      </trkpt>
      <trkpt lat="48.903781" lon="7.1825">
        <ele>304.0</ele>
        <time>2020-07-10T11:24:48Z</time>
      </trkpt>
      <trkpt lat="48.903743" lon="7.182441">
        <ele>305.0</ele>
        <time>2020-07-10T11:24:50Z</time>
      </trkpt>
      <trkpt lat="48.903698" lon="7.182387">
        <ele>305.0</ele>
        <time>2020-07-10T11:24:52Z</time>
      </trkpt>
      <trkpt lat="48.903646" lon="7.182331">
        <ele>305.0</ele>
        <time>2020-07-10T11:24:54Z</time>
      </trkpt>
      <trkpt lat="48.903595" lon="7.18228">
        <ele>306.0</ele>
        <time>2020-07-10T11:24:56Z</time>
      </trkpt>
      <trkpt lat="48.903537" lon="7.182232">
        <ele>307.0</ele>
        <time>2020-07-10T11:24:58Z</time>
      </trkpt>
      <trkpt lat="48.903461" lon="7.182185">
        <ele>305.0</ele>
        <time>2020-07-10T11:25:00Z</time>
      </trkpt>
      <trkpt lat="48.903383" lon="7.182155">
        <ele>304.0</ele>
        <time>2020-07-10T11:25:02Z</time>
      </trkpt>
      <trkpt lat="48.903302" lon="7.182124">
        <ele>303.0</ele>
        <time>2020-07-10T11:25:04Z</time>
      </trkpt>
      <trkpt lat="48.90321" lon="7.18207">
        <ele>302.0</ele>
        <time>2020-07-10T11:25:06Z</time>
      </trkpt>
      <trkpt lat="48.903118" lon="7.182031">
        <ele>303.0</ele>
        <time>2020-07-10T11:25:08Z</time>
      </trkpt>
      <trkpt lat="48.903033" lon="7.181979">
        <ele>303.0</ele>
        <time>2020-07-10T11:25:10Z</time>
      </trkpt>
      <trkpt lat="48.902947" lon="7.181927">
        <ele>304.0</ele>
        <time>2020-07-10T11:25:12Z</time>
      </trkpt>
      <trkpt lat="48.902858" lon="7.181865">
        <ele>303.0</ele>
        <time>2020-07-10T11:25:14Z</time>
      </trkpt>
      <trkpt lat="48.902768" lon="7.181815">
        <ele>304.0</ele>
        <time>2020-07-10T11:25:16Z</time>
      </trkpt>
      <trkpt lat="48.902679" lon="7.181758">
        <ele>304.0</ele>
        <time>2020-07-10T11:25:18Z</time>
      </trkpt>
      <trkpt lat="48.902584" lon="7.181706">
        <ele>303.0</ele>
        <time>2020-07-10T11:25:20Z</time>
      </trkpt>
      <trkpt lat="48.902485" lon="7.181653">
        <ele>302.0</ele>
        <time>2020-07-10T11:25:22Z</time>
      </trkpt>
      <trkpt lat="48.902386" lon="7.181575">
        <ele>302.0</ele>
        <time>2020-07-10T11:25:24Z</time>
      </trkpt>
      <trkpt lat="48.902289" lon="7.181481">
        <ele>300.0</ele>
        <time>2020-07-10T11:25:26Z</time>
      </trkpt>
      <trkpt lat="48.90219" lon="7.181397">
        <ele>300.0</ele>
        <time>2020-07-10T11:25:28Z</time>
      </trkpt>
      <trkpt lat="48.902095" lon="7.181304">
        <ele>301.0</ele>
        <time>2020-07-10T11:25:30Z</time>
      </trkpt>
      <trkpt lat="48.902007" lon="7.1812">
        <ele>300.0</ele>
        <time>2020-07-10T11:25:32Z</time>
      </trkpt>
      <trkpt lat="48.901933" lon="7.181094">
        <ele>300.0</ele>
        <time>2020-07-10T11:25:34Z</time>
      </trkpt>
      <trkpt lat="48.901871" lon="7.180984">
        <ele>301.0</ele>
        <time>2020-07-10T11:25:36Z</time>
      </trkpt>
      <trkpt lat="48.901819" lon="7.180882">
        <ele>302.0</ele>
        <time>2020-07-10T11:25:38Z</time>
      </trkpt>
      <trkpt lat="48.901785" lon="7.180796">
        <ele>302.0</ele>
        <time>2020-07-10T11:25:40Z</time>
      </trkpt>
      <trkpt lat="48.901751" lon="7.180714">
        <ele>302.0</ele>
        <time>2020-07-10T11:25:42Z</time>
      </trkpt>
      <trkpt lat="48.90173" lon="7.18064">
        <ele>302.0</ele>
        <time>2020-07-10T11:25:44Z</time>
      </trkpt>
      <trkpt lat="48.901704" lon="7.180572">
        <ele>302.0</ele>
        <time>2020-07-10T11:25:46Z</time>
      </trkpt>
      <trkpt lat="48.901683" lon="7.180511">
        <ele>302.0</ele>
        <time>2020-07-10T11:25:48Z</time>
      </trkpt>
      <trkpt lat="48.901666" lon="7.180444">
        <ele>302.0</ele>
        <time>2020-07-10T11:25:50Z</time>
      </trkpt>
      <trkpt lat="48.90165" lon="7.180386">
        <ele>302.0</ele>
        <time>2020-07-10T11:25:52Z</time>
      </trkpt>
      <trkpt lat="48.901627" lon="7.180326">
        <ele>302.0</ele>
        <time>2020-07-10T11:25:54Z</time>
      </trkpt>
      <trkpt lat="48.9016" lon="7.180269">
        <ele>302.0</ele>
        <time>2020-07-10T11:25:56Z</time>
      </trkpt>
      <trkpt lat="48.901579" lon="7.180211">
        <ele>302.0</ele>
        <time>2020-07-10T11:25:58Z</time>
      </trkpt>
      <trkpt lat="48.901558" lon="7.180152">
        <ele>303.0</ele>
        <time>2020-07-10T11:26:00Z</time>
      </trkpt>
      <trkpt lat="48.901538" lon="7.180093">
        <ele>304.0</ele>
        <time>2020-07-10T11:26:02Z</time>
      </trkpt>
      <trkpt lat="48.901516" lon="7.18003">
        <ele>304.0</ele>
        <time>2020-07-10T11:26:04Z</time>
      </trkpt>
      <trkpt lat="48.901492" lon="7.179973">
        <ele>304.0</ele>
        <time>2020-07-10T11:26:06Z</time>
      </trkpt>
      <trkpt lat="48.901472" lon="7.179915">
        <ele>304.0</ele>
        <time>2020-07-10T11:26:08Z</time>
      </trkpt>
      <trkpt lat="48.901451" lon="7.179864">
        <ele>304.0</ele>
        <time>2020-07-10T11:26:10Z</time>
      </trkpt>
      <trkpt lat="48.901437" lon="7.179816">
        <ele>305.0</ele>
        <time>2020-07-10T11:26:12Z</time>
      </trkpt>
      <trkpt lat="48.90142" lon="7.179758">
        <ele>305.0</ele>
        <time>2020-07-10T11:26:14Z</time>
      </trkpt>
      <trkpt lat="48.901405" lon="7.179701">
        <ele>306.0</ele>
        <time>2020-07-10T11:26:16Z</time>
      </trkpt>
      <trkpt lat="48.90138" lon="7.179646">
        <ele>305.0</ele>
        <time>2020-07-10T11:26:18Z</time>
      </trkpt>
      <trkpt lat="48.901362" lon="7.179595">
        <ele>305.0</ele>
        <time>2020-07-10T11:26:20Z</time>
      </trkpt>
      <trkpt lat="48.901344" lon="7.179544">
        <ele>305.0</ele>
        <time>2020-07-10T11:26:22Z</time>
      </trkpt>
      <trkpt lat="48.901322" lon="7.179487">
        <ele>305.0</ele>
        <time>2020-07-10T11:26:24Z</time>
      </trkpt>
      <trkpt lat="48.901298" lon="7.179427">
        <ele>305.0</ele>
        <time>2020-07-10T11:26:26Z</time>
      </trkpt>
      <trkpt lat="48.901278" lon="7.179366">
        <ele>306.0</ele>
        <time>2020-07-10T11:26:28Z</time>
      </trkpt>
      <trkpt lat="48.901259" lon="7.179306">
        <ele>306.0</ele>
        <time>2020-07-10T11:26:30Z</time>
      </trkpt>
      <trkpt lat="48.901239" lon="7.179247">
        <ele>306.0</ele>
        <time>2020-07-10T11:26:32Z</time>
      </trkpt>
      <trkpt lat="48.901216" lon="7.179187">
        <ele>307.0</ele>
        <time>2020-07-10T11:26:34Z</time>
      </trkpt>
      <trkpt lat="48.901197" lon="7.179126">
        <ele>307.0</ele>
        <time>2020-07-10T11:26:36Z</time>
      </trkpt>
      <trkpt lat="48.90118" lon="7.179058">
        <ele>308.0</ele>
        <time>2020-07-10T11:26:38Z</time>
      </trkpt>
      <trkpt lat="48.901169" lon="7.178991">
        <ele>308.0</ele>
        <time>2020-07-10T11:26:40Z</time>
      </trkpt>
      <trkpt lat="48.901166" lon="7.178878">
        <ele>309.0</ele>
        <time>2020-07-10T11:26:43Z</time>
      </trkpt>
      <trkpt lat="48.90117" lon="7.178809">
        <ele>309.0</ele>
        <time>2020-07-10T11:26:45Z</time>
      </trkpt>
      <trkpt lat="48.901173" lon="7.178739">
        <ele>309.0</ele>
        <time>2020-07-10T11:26:47Z</time>
      </trkpt>
      <trkpt lat="48.901175" lon="7.178676">
        <ele>309.0</ele>
        <time>2020-07-10T11:26:49Z</time>
      </trkpt>
      <trkpt lat="48.901178" lon="7.17861">
        <ele>310.0</ele>
        <time>2020-07-10T11:26:51Z</time>
      </trkpt>
      <trkpt lat="48.901181" lon="7.178543">
        <ele>309.0</ele>
        <time>2020-07-10T11:26:53Z</time>
      </trkpt>
      <trkpt lat="48.901182" lon="7.178486">
        <ele>309.0</ele>
        <time>2020-07-10T11:26:55Z</time>
      </trkpt>
      <trkpt lat="48.901176" lon="7.178425">
        <ele>309.0</ele>
        <time>2020-07-10T11:26:57Z</time>
      </trkpt>
      <trkpt lat="48.901169" lon="7.178367">
        <ele>309.0</ele>
        <time>2020-07-10T11:26:59Z</time>
      </trkpt>
      <trkpt lat="48.901165" lon="7.178308">
        <ele>309.0</ele>
        <time>2020-07-10T11:27:01Z</time>
      </trkpt>
      <trkpt lat="48.90116" lon="7.178249">
        <ele>310.0</ele>
        <time>2020-07-10T11:27:03Z</time>
      </trkpt>
      <trkpt lat="48.90115" lon="7.178189">
        <ele>311.0</ele>
        <time>2020-07-10T11:27:05Z</time>
      </trkpt>
      <trkpt lat="48.90114" lon="7.178132">
        <ele>311.0</ele>
        <time>2020-07-10T11:27:07Z</time>
      </trkpt>
      <trkpt lat="48.901131" lon="7.178064">
        <ele>310.0</ele>
        <time>2020-07-10T11:27:09Z</time>
      </trkpt>
      <trkpt lat="48.901122" lon="7.178001">
        <ele>311.0</ele>
        <time>2020-07-10T11:27:11Z</time>
      </trkpt>
      <trkpt lat="48.901115" lon="7.177944">
        <ele>311.0</ele>
        <time>2020-07-10T11:27:13Z</time>
      </trkpt>
      <trkpt lat="48.901104" lon="7.177882">
        <ele>311.0</ele>
        <time>2020-07-10T11:27:15Z</time>
      </trkpt>
      <trkpt lat="48.901095" lon="7.177812">
        <ele>312.0</ele>
        <time>2020-07-10T11:27:17Z</time>
      </trkpt>
      <trkpt lat="48.901087" lon="7.177749">
        <ele>313.0</ele>
        <time>2020-07-10T11:27:19Z</time>
      </trkpt>
      <trkpt lat="48.901076" lon="7.177684">
        <ele>313.0</ele>
        <time>2020-07-10T11:27:21Z</time>
      </trkpt>
      <trkpt lat="48.901064" lon="7.177625">
        <ele>314.0</ele>
        <time>2020-07-10T11:27:23Z</time>
      </trkpt>
      <trkpt lat="48.901054" lon="7.177565">
        <ele>315.0</ele>
        <time>2020-07-10T11:27:25Z</time>
      </trkpt>
      <trkpt lat="48.90104" lon="7.1775">
        <ele>315.0</ele>
        <time>2020-07-10T11:27:27Z</time>
      </trkpt>
      <trkpt lat="48.901017" lon="7.177443">
        <ele>315.0</ele>
        <time>2020-07-10T11:27:29Z</time>
      </trkpt>
      <trkpt lat="48.900997" lon="7.177384">
        <ele>315.0</ele>
        <time>2020-07-10T11:27:31Z</time>
      </trkpt>
      <trkpt lat="48.900985" lon="7.177323">
        <ele>316.0</ele>
        <time>2020-07-10T11:27:33Z</time>
      </trkpt>
      <trkpt lat="48.900987" lon="7.177255">
        <ele>315.0</ele>
        <time>2020-07-10T11:27:35Z</time>
      </trkpt>
      <trkpt lat="48.90099" lon="7.177192">
        <ele>315.0</ele>
        <time>2020-07-10T11:27:37Z</time>
      </trkpt>
      <trkpt lat="48.900972" lon="7.177138">
        <ele>316.0</ele>
        <time>2020-07-10T11:27:39Z</time>
      </trkpt>
      <trkpt lat="48.900942" lon="7.177105">
        <ele>316.0</ele>
        <time>2020-07-10T11:27:41Z</time>
      </trkpt>
      <trkpt lat="48.900912" lon="7.177075">
        <ele>316.0</ele>
        <time>2020-07-10T11:27:43Z</time>
      </trkpt>
      <trkpt lat="48.900891" lon="7.177054">
        <ele>316.0</ele>
        <time>2020-07-10T11:27:45Z</time>
      </trkpt>
      <trkpt lat="48.900863" lon="7.177054">
        <ele>316.0</ele>
        <time>2020-07-10T11:27:47Z</time>
      </trkpt>
      <trkpt lat="48.900819" lon="7.177027">
        <ele>316.0</ele>
        <time>2020-07-10T11:27:49Z</time>
      </trkpt>
      <trkpt lat="48.900781" lon="7.176974">
        <ele>316.0</ele>
        <time>2020-07-10T11:27:51Z</time>
      </trkpt>
      <trkpt lat="48.900739" lon="7.176914">
        <ele>316.0</ele>
        <time>2020-07-10T11:27:53Z</time>
      </trkpt>
      <trkpt lat="48.900687" lon="7.176855">
        <ele>316.0</ele>
        <time>2020-07-10T11:27:55Z</time>
      </trkpt>
      <trkpt lat="48.900626" lon="7.176789">
        <ele>315.0</ele>
        <time>2020-07-10T11:27:57Z</time>
      </trkpt>
      <trkpt lat="48.90056" lon="7.176723">
        <ele>313.0</ele>
        <time>2020-07-10T11:27:59Z</time>
      </trkpt>
      <trkpt lat="48.90049" lon="7.176665">
        <ele>312.0</ele>
        <time>2020-07-10T11:28:01Z</time>
      </trkpt>
      <trkpt lat="48.900417" lon="7.17662">
        <ele>312.0</ele>
        <time>2020-07-10T11:28:03Z</time>
      </trkpt>
      <trkpt lat="48.900336" lon="7.176582">
        <ele>312.0</ele>
        <time>2020-07-10T11:28:05Z</time>
      </trkpt>
      <trkpt lat="48.900245" lon="7.176556">
        <ele>312.0</ele>
        <time>2020-07-10T11:28:07Z</time>
      </trkpt>
      <trkpt lat="48.900149" lon="7.176523">
        <ele>312.0</ele>
        <time>2020-07-10T11:28:09Z</time>
      </trkpt>
      <trkpt lat="48.900054" lon="7.176507">
        <ele>312.0</ele>
        <time>2020-07-10T11:28:11Z</time>
      </trkpt>
      <trkpt lat="48.899945" lon="7.176488">
        <ele>311.0</ele>
        <time>2020-07-10T11:28:13Z</time>
      </trkpt>
      <trkpt lat="48.899823" lon="7.176496">
        <ele>310.0</ele>
        <time>2020-07-10T11:28:15Z</time>
      </trkpt>
      <trkpt lat="48.899676" lon="7.176487">
        <ele>310.0</ele>
        <time>2020-07-10T11:28:17Z</time>
      </trkpt>
      <trkpt lat="48.899524" lon="7.176449">
        <ele>309.0</ele>
        <time>2020-07-10T11:28:19Z</time>
      </trkpt>
      <trkpt lat="48.899365" lon="7.176418">
        <ele>307.0</ele>
        <time>2020-07-10T11:28:21Z</time>
      </trkpt>
      <trkpt lat="48.899197" lon="7.176399">
        <ele>307.0</ele>
        <time>2020-07-10T11:28:23Z</time>
      </trkpt>
      <trkpt lat="48.899024" lon="7.176374">
        <ele>307.0</ele>
        <time>2020-07-10T11:28:25Z</time>
      </trkpt>
      <trkpt lat="48.898871" lon="7.176341">
        <ele>307.0</ele>
        <time>2020-07-10T11:28:27Z</time>
      </trkpt>
      <trkpt lat="48.898729" lon="7.176296">
        <ele>307.0</ele>
        <time>2020-07-10T11:28:29Z</time>
      </trkpt>
      <trkpt lat="48.898599" lon="7.17625">
        <ele>307.0</ele>
        <time>2020-07-10T11:28:31Z</time>
      </trkpt>
      <trkpt lat="48.898488" lon="7.17619">
        <ele>307.0</ele>
        <time>2020-07-10T11:28:33Z</time>
      </trkpt>
      <trkpt lat="48.898381" lon="7.176134">
        <ele>307.0</ele>
        <time>2020-07-10T11:28:35Z</time>
      </trkpt>
      <trkpt lat="48.898279" lon="7.176081">
        <ele>307.0</ele>
        <time>2020-07-10T11:28:37Z</time>
      </trkpt>
      <trkpt lat="48.898179" lon="7.176026">
        <ele>307.0</ele>
        <time>2020-07-10T11:28:39Z</time>
      </trkpt>
      <trkpt lat="48.898078" lon="7.175957">
        <ele>307.0</ele>
        <time>2020-07-10T11:28:41Z</time>
      </trkpt>
      <trkpt lat="48.89798" lon="7.175884">
        <ele>307.0</ele>
        <time>2020-07-10T11:28:43Z</time>
      </trkpt>
      <trkpt lat="48.897881" lon="7.175798">
        <ele>307.0</ele>
        <time>2020-07-10T11:28:45Z</time>
      </trkpt>
      <trkpt lat="48.897775" lon="7.175711">
        <ele>306.0</ele>
        <time>2020-07-10T11:28:47Z</time>
      </trkpt>
      <trkpt lat="48.897659" lon="7.175622">
        <ele>306.0</ele>
        <time>2020-07-10T11:28:49Z</time>
      </trkpt>
      <trkpt lat="48.897547" lon="7.175547">
        <ele>305.0</ele>
        <time>2020-07-10T11:28:51Z</time>
      </trkpt>
      <trkpt lat="48.897434" lon="7.175465">
        <ele>305.0</ele>
        <time>2020-07-10T11:28:53Z</time>
      </trkpt>
      <trkpt lat="48.89732" lon="7.175375">
        <ele>304.0</ele>
        <time>2020-07-10T11:28:55Z</time>
      </trkpt>
      <trkpt lat="48.897204" lon="7.175298">
        <ele>304.0</ele>
        <time>2020-07-10T11:28:57Z</time>
      </trkpt>
      <trkpt lat="48.89709" lon="7.175238">
        <ele>304.0</ele>
        <time>2020-07-10T11:28:59Z</time>
      </trkpt>
      <trkpt lat="48.896977" lon="7.175191">
        <ele>304.0</ele>
        <time>2020-07-10T11:29:01Z</time>
      </trkpt>
      <trkpt lat="48.896864" lon="7.175161">
        <ele>303.0</ele>
        <time>2020-07-10T11:29:03Z</time>
      </trkpt>
      <trkpt lat="48.896758" lon="7.175155">
        <ele>303.0</ele>
        <time>2020-07-10T11:29:05Z</time>
      </trkpt>
      <trkpt lat="48.896665" lon="7.175157">
        <ele>304.0</ele>
        <time>2020-07-10T11:29:07Z</time>
      </trkpt>
      <trkpt lat="48.896582" lon="7.175157">
        <ele>304.0</ele>
        <time>2020-07-10T11:29:09Z</time>
      </trkpt>
      <trkpt lat="48.896506" lon="7.175162">
        <ele>304.0</ele>
        <time>2020-07-10T11:29:11Z</time>
      </trkpt>
      <trkpt lat="48.896432" lon="7.175182">
        <ele>304.0</ele>
        <time>2020-07-10T11:29:13Z</time>
      </trkpt>
      <trkpt lat="48.896367" lon="7.175204">
        <ele>304.0</ele>
        <time>2020-07-10T11:29:15Z</time>
      </trkpt>
      <trkpt lat="48.89631" lon="7.175222">
        <ele>304.0</ele>
        <time>2020-07-10T11:29:17Z</time>
      </trkpt>
      <trkpt lat="48.896257" lon="7.175247">
        <ele>304.0</ele>
        <time>2020-07-10T11:29:19Z</time>
      </trkpt>
      <trkpt lat="48.896205" lon="7.175282">
        <ele>305.0</ele>
        <time>2020-07-10T11:29:21Z</time>
      </trkpt>
      <trkpt lat="48.89615" lon="7.175312">
        <ele>305.0</ele>
        <time>2020-07-10T11:29:23Z</time>
      </trkpt>
      <trkpt lat="48.896101" lon="7.175339">
        <ele>306.0</ele>
        <time>2020-07-10T11:29:25Z</time>
      </trkpt>
      <trkpt lat="48.896058" lon="7.175372">
        <ele>306.0</ele>
        <time>2020-07-10T11:29:27Z</time>
      </trkpt>
      <trkpt lat="48.896007" lon="7.175402">
        <ele>306.0</ele>
        <time>2020-07-10T11:29:29Z</time>
      </trkpt>
      <trkpt lat="48.895958" lon="7.175445">
        <ele>306.0</ele>
        <time>2020-07-10T11:29:31Z</time>
      </trkpt>
      <trkpt lat="48.895914" lon="7.175497">
        <ele>306.0</ele>
        <time>2020-07-10T11:29:33Z</time>
      </trkpt>
      <trkpt lat="48.895872" lon="7.175546">
        <ele>306.0</ele>
        <time>2020-07-10T11:29:35Z</time>
      </trkpt>
      <trkpt lat="48.895829" lon="7.175593">
        <ele>306.0</ele>
        <time>2020-07-10T11:29:37Z</time>
      </trkpt>
      <trkpt lat="48.895761" lon="7.175665">
        <ele>306.0</ele>
        <time>2020-07-10T11:29:40Z</time>
      </trkpt>
      <trkpt lat="48.895717" lon="7.175722">
        <ele>306.0</ele>
        <time>2020-07-10T11:29:42Z</time>
      </trkpt>
      <trkpt lat="48.895665" lon="7.175773">
        <ele>306.0</ele>
        <time>2020-07-10T11:29:44Z</time>
      </trkpt>
      <trkpt lat="48.895617" lon="7.175834">
        <ele>307.0</ele>
        <time>2020-07-10T11:29:46Z</time>
      </trkpt>
      <trkpt lat="48.895567" lon="7.175891">
        <ele>306.0</ele>
        <time>2020-07-10T11:29:48Z</time>
      </trkpt>
      <trkpt lat="48.895518" lon="7.175946">
        <ele>307.0</ele>
        <time>2020-07-10T11:29:50Z</time>
      </trkpt>
      <trkpt lat="48.895464" lon="7.176005">
        <ele>307.0</ele>
        <time>2020-07-10T11:29:52Z</time>
      </trkpt>
      <trkpt lat="48.895416" lon="7.176069">
        <ele>307.0</ele>
        <time>2020-07-10T11:29:54Z</time>
      </trkpt>
      <trkpt lat="48.895368" lon="7.176123">
        <ele>306.0</ele>
        <time>2020-07-10T11:29:56Z</time>
      </trkpt>
      <trkpt lat="48.895319" lon="7.176179">
        <ele>306.0</ele>
        <time>2020-07-10T11:29:58Z</time>
      </trkpt>
      <trkpt lat="48.895264" lon="7.176241">
        <ele>307.0</ele>
        <time>2020-07-10T11:30:00Z</time>
      </trkpt>
      <trkpt lat="48.895203" lon="7.176298">
        <ele>307.0</ele>
        <time>2020-07-10T11:30:02Z</time>
      </trkpt>
      <trkpt lat="48.895143" lon="7.17636">
        <ele>307.0</ele>
        <time>2020-07-10T11:30:04Z</time>
      </trkpt>
      <trkpt lat="48.895077" lon="7.176412">
        <ele>308.0</ele>
        <time>2020-07-10T11:30:06Z</time>
      </trkpt>
      <trkpt lat="48.895003" lon="7.17648">
        <ele>310.0</ele>
        <time>2020-07-10T11:30:08Z</time>
      </trkpt>
      <trkpt lat="48.894943" lon="7.176528">
        <ele>310.0</ele>
        <time>2020-07-10T11:30:10Z</time>
      </trkpt>
      <trkpt lat="48.894883" lon="7.176564">
        <ele>310.0</ele>
        <time>2020-07-10T11:30:12Z</time>
      </trkpt>
      <trkpt lat="48.894824" lon="7.176588">
        <ele>311.0</ele>
        <time>2020-07-10T11:30:14Z</time>
      </trkpt>
      <trkpt lat="48.894765" lon="7.176625">
        <ele>311.0</ele>
        <time>2020-07-10T11:30:16Z</time>
      </trkpt>
      <trkpt lat="48.894707" lon="7.17665">
        <ele>311.0</ele>
        <time>2020-07-10T11:30:18Z</time>
      </trkpt>
      <trkpt lat="48.894648" lon="7.176668">
        <ele>311.0</ele>
        <time>2020-07-10T11:30:20Z</time>
      </trkpt>
      <trkpt lat="48.894588" lon="7.176694">
        <ele>311.0</ele>
        <time>2020-07-10T11:30:22Z</time>
      </trkpt>
      <trkpt lat="48.894522" lon="7.176714">
        <ele>311.0</ele>
        <time>2020-07-10T11:30:24Z</time>
      </trkpt>
      <trkpt lat="48.894456" lon="7.176732">
        <ele>311.0</ele>
        <time>2020-07-10T11:30:26Z</time>
      </trkpt>
      <trkpt lat="48.894387" lon="7.176737">
        <ele>311.0</ele>
        <time>2020-07-10T11:30:28Z</time>
      </trkpt>
      <trkpt lat="48.894315" lon="7.176751">
        <ele>311.0</ele>
        <time>2020-07-10T11:30:30Z</time>
      </trkpt>
      <trkpt lat="48.894251" lon="7.176753">
        <ele>311.0</ele>
        <time>2020-07-10T11:30:32Z</time>
      </trkpt>
      <trkpt lat="48.894191" lon="7.176749">
        <ele>312.0</ele>
        <time>2020-07-10T11:30:34Z</time>
      </trkpt>
      <trkpt lat="48.89413" lon="7.176742">
        <ele>311.0</ele>
        <time>2020-07-10T11:30:36Z</time>
      </trkpt>
      <trkpt lat="48.894069" lon="7.176732">
        <ele>311.0</ele>
        <time>2020-07-10T11:30:38Z</time>
      </trkpt>
      <trkpt lat="48.894005" lon="7.176731">
        <ele>311.0</ele>
        <time>2020-07-10T11:30:40Z</time>
      </trkpt>
      <trkpt lat="48.893944" lon="7.176729">
        <ele>311.0</ele>
        <time>2020-07-10T11:30:42Z</time>
      </trkpt>
      <trkpt lat="48.893882" lon="7.176719">
        <ele>311.0</ele>
        <time>2020-07-10T11:30:44Z</time>
      </trkpt>
      <trkpt lat="48.893817" lon="7.176712">
        <ele>312.0</ele>
        <time>2020-07-10T11:30:46Z</time>
      </trkpt>
      <trkpt lat="48.893756" lon="7.176703">
        <ele>312.0</ele>
        <time>2020-07-10T11:30:48Z</time>
      </trkpt>
      <trkpt lat="48.893695" lon="7.176683">
        <ele>312.0</ele>
        <time>2020-07-10T11:30:50Z</time>
      </trkpt>
      <trkpt lat="48.893629" lon="7.176666">
        <ele>313.0</ele>
        <time>2020-07-10T11:30:52Z</time>
      </trkpt>
      <trkpt lat="48.893565" lon="7.176644">
        <ele>313.0</ele>
        <time>2020-07-10T11:30:54Z</time>
      </trkpt>
      <trkpt lat="48.893502" lon="7.176623">
        <ele>313.0</ele>
        <time>2020-07-10T11:30:56Z</time>
      </trkpt>
      <trkpt lat="48.893435" lon="7.176599">
        <ele>313.0</ele>
        <time>2020-07-10T11:30:58Z</time>
      </trkpt>
      <trkpt lat="48.89337" lon="7.176572">
        <ele>313.0</ele>
        <time>2020-07-10T11:31:00Z</time>
      </trkpt>
      <trkpt lat="48.893306" lon="7.176542">
        <ele>313.0</ele>
        <time>2020-07-10T11:31:02Z</time>
      </trkpt>
      <trkpt lat="48.893238" lon="7.176513">
        <ele>314.0</ele>
        <time>2020-07-10T11:31:04Z</time>
      </trkpt>
      <trkpt lat="48.893177" lon="7.176482">
        <ele>314.0</ele>
        <time>2020-07-10T11:31:06Z</time>
      </trkpt>
      <trkpt lat="48.893114" lon="7.17645">
        <ele>314.0</ele>
        <time>2020-07-10T11:31:08Z</time>
      </trkpt>
      <trkpt lat="48.893052" lon="7.176416">
        <ele>314.0</ele>
        <time>2020-07-10T11:31:10Z</time>
      </trkpt>
      <trkpt lat="48.892994" lon="7.176379">
        <ele>315.0</ele>
        <time>2020-07-10T11:31:12Z</time>
      </trkpt>
      <trkpt lat="48.892939" lon="7.176336">
        <ele>315.0</ele>
        <time>2020-07-10T11:31:14Z</time>
      </trkpt>
      <trkpt lat="48.892882" lon="7.176304">
        <ele>315.0</ele>
        <time>2020-07-10T11:31:16Z</time>
      </trkpt>
      <trkpt lat="48.892827" lon="7.176263">
        <ele>315.0</ele>
        <time>2020-07-10T11:31:18Z</time>
      </trkpt>
      <trkpt lat="48.892778" lon="7.176228">
        <ele>315.0</ele>
        <time>2020-07-10T11:31:20Z</time>
      </trkpt>
      <trkpt lat="48.89273" lon="7.176198">
        <ele>315.0</ele>
        <time>2020-07-10T11:31:22Z</time>
      </trkpt>
      <trkpt lat="48.892678" lon="7.176161">
        <ele>316.0</ele>
        <time>2020-07-10T11:31:24Z</time>
      </trkpt>
      <trkpt lat="48.892622" lon="7.176136">
        <ele>316.0</ele>
        <time>2020-07-10T11:31:26Z</time>
      </trkpt>
      <trkpt lat="48.892568" lon="7.176105">
        <ele>316.0</ele>
        <time>2020-07-10T11:31:28Z</time>
      </trkpt>
      <trkpt lat="48.892521" lon="7.176075">
        <ele>316.0</ele>
        <time>2020-07-10T11:31:30Z</time>
      </trkpt>
      <trkpt lat="48.892473" lon="7.176043">
        <ele>316.0</ele>
        <time>2020-07-10T11:31:32Z</time>
      </trkpt>
      <trkpt lat="48.892431" lon="7.176013">
        <ele>316.0</ele>
        <time>2020-07-10T11:31:34Z</time>
      </trkpt>
      <trkpt lat="48.892388" lon="7.17598">
        <ele>317.0</ele>
        <time>2020-07-10T11:31:36Z</time>
      </trkpt>
      <trkpt lat="48.892348" lon="7.17595">
        <ele>317.0</ele>
        <time>2020-07-10T11:31:38Z</time>
      </trkpt>
      <trkpt lat="48.892302" lon="7.175928">
        <ele>317.0</ele>
        <time>2020-07-10T11:31:40Z</time>
      </trkpt>
      <trkpt lat="48.892257" lon="7.1759">
        <ele>316.0</ele>
        <time>2020-07-10T11:31:42Z</time>
      </trkpt>
      <trkpt lat="48.892216" lon="7.175868">
        <ele>316.0</ele>
        <time>2020-07-10T11:31:44Z</time>
      </trkpt>
      <trkpt lat="48.892177" lon="7.17584">
        <ele>316.0</ele>
        <time>2020-07-10T11:31:46Z</time>
      </trkpt>
      <trkpt lat="48.892137" lon="7.175823">
        <ele>317.0</ele>
        <time>2020-07-10T11:31:48Z</time>
      </trkpt>
      <trkpt lat="48.892097" lon="7.175796">
        <ele>317.0</ele>
        <time>2020-07-10T11:31:50Z</time>
      </trkpt>
      <trkpt lat="48.892057" lon="7.175768">
        <ele>317.0</ele>
        <time>2020-07-10T11:31:52Z</time>
      </trkpt>
      <trkpt lat="48.892012" lon="7.175746">
        <ele>318.0</ele>
        <time>2020-07-10T11:31:54Z</time>
      </trkpt>
      <trkpt lat="48.891972" lon="7.17572">
        <ele>318.0</ele>
        <time>2020-07-10T11:31:56Z</time>
      </trkpt>
      <trkpt lat="48.891931" lon="7.175694">
        <ele>318.0</ele>
        <time>2020-07-10T11:31:58Z</time>
      </trkpt>
      <trkpt lat="48.89189" lon="7.175672">
        <ele>319.0</ele>
        <time>2020-07-10T11:32:00Z</time>
      </trkpt>
      <trkpt lat="48.891848" lon="7.175649">
        <ele>319.0</ele>
        <time>2020-07-10T11:32:02Z</time>
      </trkpt>
      <trkpt lat="48.891804" lon="7.175629">
        <ele>319.0</ele>
        <time>2020-07-10T11:32:04Z</time>
      </trkpt>
      <trkpt lat="48.891767" lon="7.175603">
        <ele>320.0</ele>
        <time>2020-07-10T11:32:06Z</time>
      </trkpt>
      <trkpt lat="48.891728" lon="7.175579">
        <ele>319.0</ele>
        <time>2020-07-10T11:32:08Z</time>
      </trkpt>
      <trkpt lat="48.891688" lon="7.175551">
        <ele>320.0</ele>
        <time>2020-07-10T11:32:10Z</time>
      </trkpt>
      <trkpt lat="48.891651" lon="7.175525">
        <ele>320.0</ele>
        <time>2020-07-10T11:32:12Z</time>
      </trkpt>
      <trkpt lat="48.891612" lon="7.175495">
        <ele>321.0</ele>
        <time>2020-07-10T11:32:14Z</time>
      </trkpt>
      <trkpt lat="48.891576" lon="7.175462">
        <ele>321.0</ele>
        <time>2020-07-10T11:32:16Z</time>
      </trkpt>
      <trkpt lat="48.891539" lon="7.175433">
        <ele>320.0</ele>
        <time>2020-07-10T11:32:18Z</time>
      </trkpt>
      <trkpt lat="48.891499" lon="7.175416">
        <ele>320.0</ele>
        <time>2020-07-10T11:32:20Z</time>
      </trkpt>
      <trkpt lat="48.89146" lon="7.175388">
        <ele>320.0</ele>
        <time>2020-07-10T11:32:22Z</time>
      </trkpt>
      <trkpt lat="48.891421" lon="7.175359">
        <ele>321.0</ele>
        <time>2020-07-10T11:32:24Z</time>
      </trkpt>
      <trkpt lat="48.891377" lon="7.175334">
        <ele>320.0</ele>
        <time>2020-07-10T11:32:26Z</time>
      </trkpt>
      <trkpt lat="48.891338" lon="7.175303">
        <ele>321.0</ele>
        <time>2020-07-10T11:32:28Z</time>
      </trkpt>
      <trkpt lat="48.891298" lon="7.175271">
        <ele>321.0</ele>
        <time>2020-07-10T11:32:30Z</time>
      </trkpt>
      <trkpt lat="48.891261" lon="7.175244">
        <ele>322.0</ele>
        <time>2020-07-10T11:32:32Z</time>
      </trkpt>
      <trkpt lat="48.89122" lon="7.175214">
        <ele>322.0</ele>
        <time>2020-07-10T11:32:34Z</time>
      </trkpt>
      <trkpt lat="48.891179" lon="7.175188">
        <ele>322.0</ele>
        <time>2020-07-10T11:32:36Z</time>
      </trkpt>
      <trkpt lat="48.891139" lon="7.175166">
        <ele>322.0</ele>
        <time>2020-07-10T11:32:38Z</time>
      </trkpt>
      <trkpt lat="48.891096" lon="7.175143">
        <ele>322.0</ele>
        <time>2020-07-10T11:32:40Z</time>
      </trkpt>
      <trkpt lat="48.891053" lon="7.175121">
        <ele>322.0</ele>
        <time>2020-07-10T11:32:42Z</time>
      </trkpt>
      <trkpt lat="48.891013" lon="7.175096">
        <ele>322.0</ele>
        <time>2020-07-10T11:32:44Z</time>
      </trkpt>
      <trkpt lat="48.890952" lon="7.175058">
        <ele>323.0</ele>
        <time>2020-07-10T11:32:47Z</time>
      </trkpt>
      <trkpt lat="48.890913" lon="7.175031">
        <ele>323.0</ele>
        <time>2020-07-10T11:32:49Z</time>
      </trkpt>
      <trkpt lat="48.890872" lon="7.175004">
        <ele>324.0</ele>
        <time>2020-07-10T11:32:51Z</time>
      </trkpt>
      <trkpt lat="48.890832" lon="7.17499">
        <ele>324.0</ele>
        <time>2020-07-10T11:32:53Z</time>
      </trkpt>
      <trkpt lat="48.890796" lon="7.174974">
        <ele>325.0</ele>
        <time>2020-07-10T11:32:55Z</time>
      </trkpt>
      <trkpt lat="48.890757" lon="7.174956">
        <ele>325.0</ele>
        <time>2020-07-10T11:32:57Z</time>
      </trkpt>
      <trkpt lat="48.890711" lon="7.174933">
        <ele>325.0</ele>
        <time>2020-07-10T11:32:59Z</time>
      </trkpt>
      <trkpt lat="48.890671" lon="7.1749">
        <ele>325.0</ele>
        <time>2020-07-10T11:33:01Z</time>
      </trkpt>
      <trkpt lat="48.890631" lon="7.174874">
        <ele>325.0</ele>
        <time>2020-07-10T11:33:03Z</time>
      </trkpt>
      <trkpt lat="48.890589" lon="7.174851">
        <ele>326.0</ele>
        <time>2020-07-10T11:33:05Z</time>
      </trkpt>
      <trkpt lat="48.890546" lon="7.174829">
        <ele>326.0</ele>
        <time>2020-07-10T11:33:07Z</time>
      </trkpt>
      <trkpt lat="48.890499" lon="7.174816">
        <ele>326.0</ele>
        <time>2020-07-10T11:33:09Z</time>
      </trkpt>
      <trkpt lat="48.890451" lon="7.174805">
        <ele>326.0</ele>
        <time>2020-07-10T11:33:11Z</time>
      </trkpt>
      <trkpt lat="48.890403" lon="7.174802">
        <ele>326.0</ele>
        <time>2020-07-10T11:33:13Z</time>
      </trkpt>
      <trkpt lat="48.890359" lon="7.174799">
        <ele>326.0</ele>
        <time>2020-07-10T11:33:15Z</time>
      </trkpt>
      <trkpt lat="48.890307" lon="7.174782">
        <ele>326.0</ele>
        <time>2020-07-10T11:33:17Z</time>
      </trkpt>
      <trkpt lat="48.890261" lon="7.174766">
        <ele>327.0</ele>
        <time>2020-07-10T11:33:19Z</time>
      </trkpt>
      <trkpt lat="48.89021" lon="7.174758">
        <ele>328.0</ele>
        <time>2020-07-10T11:33:21Z</time>
      </trkpt>
      <trkpt lat="48.890159" lon="7.174743">
        <ele>328.0</ele>
        <time>2020-07-10T11:33:23Z</time>
      </trkpt>
      <trkpt lat="48.890102" lon="7.174728">
        <ele>328.0</ele>
        <time>2020-07-10T11:33:25Z</time>
      </trkpt>
      <trkpt lat="48.890039" lon="7.17472">
        <ele>328.0</ele>
        <time>2020-07-10T11:33:27Z</time>
      </trkpt>
      <trkpt lat="48.889974" lon="7.174717">
        <ele>328.0</ele>
        <time>2020-07-10T11:33:29Z</time>
      </trkpt>
      <trkpt lat="48.889917" lon="7.174703">
        <ele>328.0</ele>
        <time>2020-07-10T11:33:31Z</time>
      </trkpt>
      <trkpt lat="48.889862" lon="7.174695">
        <ele>328.0</ele>
        <time>2020-07-10T11:33:33Z</time>
      </trkpt>
      <trkpt lat="48.889812" lon="7.174692">
        <ele>328.0</ele>
        <time>2020-07-10T11:33:35Z</time>
      </trkpt>
      <trkpt lat="48.889767" lon="7.174673">
        <ele>328.0</ele>
        <time>2020-07-10T11:33:37Z</time>
      </trkpt>
      <trkpt lat="48.889722" lon="7.174671">
        <ele>329.0</ele>
        <time>2020-07-10T11:33:39Z</time>
      </trkpt>
      <trkpt lat="48.889671" lon="7.174656">
        <ele>329.0</ele>
        <time>2020-07-10T11:33:41Z</time>
      </trkpt>
      <trkpt lat="48.88962" lon="7.174644">
        <ele>330.0</ele>
        <time>2020-07-10T11:33:43Z</time>
      </trkpt>
      <trkpt lat="48.889563" lon="7.174624">
        <ele>329.0</ele>
        <time>2020-07-10T11:33:45Z</time>
      </trkpt>
      <trkpt lat="48.889499" lon="7.174618">
        <ele>329.0</ele>
        <time>2020-07-10T11:33:47Z</time>
      </trkpt>
      <trkpt lat="48.889437" lon="7.174618">
        <ele>330.0</ele>
        <time>2020-07-10T11:33:49Z</time>
      </trkpt>
      <trkpt lat="48.889372" lon="7.174622">
        <ele>329.0</ele>
        <time>2020-07-10T11:33:51Z</time>
      </trkpt>
      <trkpt lat="48.8893" lon="7.174639">
        <ele>329.0</ele>
        <time>2020-07-10T11:33:53Z</time>
      </trkpt>
      <trkpt lat="48.889222" lon="7.174676">
        <ele>331.0</ele>
        <time>2020-07-10T11:33:55Z</time>
      </trkpt>
      <trkpt lat="48.88914" lon="7.174723">
        <ele>331.0</ele>
        <time>2020-07-10T11:33:57Z</time>
      </trkpt>
      <trkpt lat="48.88905" lon="7.174781">
        <ele>330.0</ele>
        <time>2020-07-10T11:33:59Z</time>
      </trkpt>
      <trkpt lat="48.888961" lon="7.174882">
        <ele>330.0</ele>
        <time>2020-07-10T11:34:01Z</time>
      </trkpt>
      <trkpt lat="48.888867" lon="7.175004">
        <ele>329.0</ele>
        <time>2020-07-10T11:34:03Z</time>
      </trkpt>
      <trkpt lat="48.88878" lon="7.175167">
        <ele>329.0</ele>
        <time>2020-07-10T11:34:05Z</time>
      </trkpt>
      <trkpt lat="48.88869" lon="7.175347">
        <ele>329.0</ele>
        <time>2020-07-10T11:34:07Z</time>
      </trkpt>
      <trkpt lat="48.88861" lon="7.175546">
        <ele>329.0</ele>
        <time>2020-07-10T11:34:09Z</time>
      </trkpt>
      <trkpt lat="48.888537" lon="7.175754">
        <ele>328.0</ele>
        <time>2020-07-10T11:34:11Z</time>
      </trkpt>
      <trkpt lat="48.888485" lon="7.175966">
        <ele>328.0</ele>
        <time>2020-07-10T11:34:13Z</time>
      </trkpt>
      <trkpt lat="48.888434" lon="7.176179">
        <ele>327.0</ele>
        <time>2020-07-10T11:34:15Z</time>
      </trkpt>
      <trkpt lat="48.888378" lon="7.176377">
        <ele>326.0</ele>
        <time>2020-07-10T11:34:17Z</time>
      </trkpt>
      <trkpt lat="48.888301" lon="7.176554">
        <ele>326.0</ele>
        <time>2020-07-10T11:34:19Z</time>
      </trkpt>
      <trkpt lat="48.888214" lon="7.176704">
        <ele>326.0</ele>
        <time>2020-07-10T11:34:21Z</time>
      </trkpt>
      <trkpt lat="48.888124" lon="7.17685">
        <ele>326.0</ele>
        <time>2020-07-10T11:34:23Z</time>
      </trkpt>
      <trkpt lat="48.888032" lon="7.176993">
        <ele>325.0</ele>
        <time>2020-07-10T11:34:25Z</time>
      </trkpt>
      <trkpt lat="48.88795" lon="7.177128">
        <ele>326.0</ele>
        <time>2020-07-10T11:34:27Z</time>
      </trkpt>
      <trkpt lat="48.887869" lon="7.177252">
        <ele>326.0</ele>
        <time>2020-07-10T11:34:29Z</time>
      </trkpt>
      <trkpt lat="48.88779" lon="7.177363">
        <ele>326.0</ele>
        <time>2020-07-10T11:34:31Z</time>
      </trkpt>
      <trkpt lat="48.887721" lon="7.177465">
        <ele>327.0</ele>
        <time>2020-07-10T11:34:33Z</time>
      </trkpt>
      <trkpt lat="48.887655" lon="7.17756">
        <ele>327.0</ele>
        <time>2020-07-10T11:34:35Z</time>
      </trkpt>
      <trkpt lat="48.887589" lon="7.177656">
        <ele>327.0</ele>
        <time>2020-07-10T11:34:37Z</time>
      </trkpt>
      <trkpt lat="48.887537" lon="7.177747">
        <ele>326.0</ele>
        <time>2020-07-10T11:34:39Z</time>
      </trkpt>
      <trkpt lat="48.887495" lon="7.177841">
        <ele>327.0</ele>
        <time>2020-07-10T11:34:41Z</time>
      </trkpt>
      <trkpt lat="48.887453" lon="7.177931">
        <ele>327.0</ele>
        <time>2020-07-10T11:34:43Z</time>
      </trkpt>
      <trkpt lat="48.887411" lon="7.178012">
        <ele>327.0</ele>
        <time>2020-07-10T11:34:45Z</time>
      </trkpt>
      <trkpt lat="48.887375" lon="7.178101">
        <ele>327.0</ele>
        <time>2020-07-10T11:34:47Z</time>
      </trkpt>
      <trkpt lat="48.887334" lon="7.178185">
        <ele>327.0</ele>
        <time>2020-07-10T11:34:49Z</time>
      </trkpt>
      <trkpt lat="48.887297" lon="7.178272">
        <ele>328.0</ele>
        <time>2020-07-10T11:34:51Z</time>
      </trkpt>
      <trkpt lat="48.887258" lon="7.17837">
        <ele>328.0</ele>
        <time>2020-07-10T11:34:53Z</time>
      </trkpt>
      <trkpt lat="48.887217" lon="7.178461">
        <ele>328.0</ele>
        <time>2020-07-10T11:34:55Z</time>
      </trkpt>
      <trkpt lat="48.887179" lon="7.178541">
        <ele>328.0</ele>
        <time>2020-07-10T11:34:57Z</time>
      </trkpt>
      <trkpt lat="48.887141" lon="7.178617">
        <ele>328.0</ele>
        <time>2020-07-10T11:34:59Z</time>
      </trkpt>
      <trkpt lat="48.887101" lon="7.178698">
        <ele>328.0</ele>
        <time>2020-07-10T11:35:01Z</time>
      </trkpt>
      <trkpt lat="48.887057" lon="7.178771">
        <ele>328.0</ele>
        <time>2020-07-10T11:35:03Z</time>
      </trkpt>
      <trkpt lat="48.887014" lon="7.178844">
        <ele>328.0</ele>
        <time>2020-07-10T11:35:05Z</time>
      </trkpt>
      <trkpt lat="48.886975" lon="7.178913">
        <ele>328.0</ele>
        <time>2020-07-10T11:35:07Z</time>
      </trkpt>
      <trkpt lat="48.886922" lon="7.178975">
        <ele>328.0</ele>
        <time>2020-07-10T11:35:09Z</time>
      </trkpt>
      <trkpt lat="48.886872" lon="7.179039">
        <ele>329.0</ele>
        <time>2020-07-10T11:35:11Z</time>
      </trkpt>
      <trkpt lat="48.886825" lon="7.179099">
        <ele>329.0</ele>
        <time>2020-07-10T11:35:13Z</time>
      </trkpt>
      <trkpt lat="48.886782" lon="7.179157">
        <ele>329.0</ele>
        <time>2020-07-10T11:35:15Z</time>
      </trkpt>
      <trkpt lat="48.886735" lon="7.179214">
        <ele>330.0</ele>
        <time>2020-07-10T11:35:17Z</time>
      </trkpt>
      <trkpt lat="48.886687" lon="7.179272">
        <ele>330.0</ele>
        <time>2020-07-10T11:35:19Z</time>
      </trkpt>
      <trkpt lat="48.886639" lon="7.179327">
        <ele>331.0</ele>
        <time>2020-07-10T11:35:21Z</time>
      </trkpt>
      <trkpt lat="48.886588" lon="7.179385">
        <ele>331.0</ele>
        <time>2020-07-10T11:35:23Z</time>
      </trkpt>
      <trkpt lat="48.886544" lon="7.179443">
        <ele>332.0</ele>
        <time>2020-07-10T11:35:25Z</time>
      </trkpt>
      <trkpt lat="48.886508" lon="7.179498">
        <ele>331.0</ele>
        <time>2020-07-10T11:35:27Z</time>
      </trkpt>
      <trkpt lat="48.886474" lon="7.179584">
        <ele>332.0</ele>
        <time>2020-07-10T11:35:30Z</time>
      </trkpt>
      <trkpt lat="48.886463" lon="7.179639">
        <ele>332.0</ele>
        <time>2020-07-10T11:35:32Z</time>
      </trkpt>
      <trkpt lat="48.886479" lon="7.179664">
        <ele>332.0</ele>
        <time>2020-07-10T11:35:34Z</time>
      </trkpt>
      <trkpt lat="48.886508" lon="7.179653">
        <ele>332.0</ele>
        <time>2020-07-10T11:35:36Z</time>
      </trkpt>
      <trkpt lat="48.886533" lon="7.179635">
        <ele>333.0</ele>
        <time>2020-07-10T11:35:38Z</time>
      </trkpt>
      <trkpt lat="48.886549" lon="7.179627">
        <ele>333.0</ele>
        <time>2020-07-10T11:35:40Z</time>
      </trkpt>
      <trkpt lat="48.886554" lon="7.17963">
        <ele>333.0</ele>
        <time>2020-07-10T11:35:42Z</time>
      </trkpt>
      <trkpt lat="48.886556" lon="7.179628">
        <ele>333.0</ele>
        <time>2020-07-10T11:35:44Z</time>
      </trkpt>
      <trkpt lat="48.886556" lon="7.179628">
        <ele>333.0</ele>
        <time>2020-07-10T11:35:46Z</time>
      </trkpt>
      <trkpt lat="48.886622" lon="7.179634">
        <ele>336.0</ele>
        <time>2020-07-10T12:03:19Z</time>
      </trkpt>
      <trkpt lat="48.886622" lon="7.179634">
        <ele>336.0</ele>
        <time>2020-07-10T12:03:21Z</time>
      </trkpt>
      <trkpt lat="48.886598" lon="7.179631">
        <ele>336.0</ele>
        <time>2020-07-10T12:03:23Z</time>
      </trkpt>
      <trkpt lat="48.886579" lon="7.179634">
        <ele>336.0</ele>
        <time>2020-07-10T12:03:25Z</time>
      </trkpt>
      <trkpt lat="48.886568" lon="7.179638">
        <ele>336.0</ele>
        <time>2020-07-10T12:03:27Z</time>
      </trkpt>
      <trkpt lat="48.886556" lon="7.179639">
        <ele>336.0</ele>
        <time>2020-07-10T12:03:29Z</time>
      </trkpt>
      <trkpt lat="48.886546" lon="7.179644">
        <ele>335.0</ele>
        <time>2020-07-10T12:03:31Z</time>
      </trkpt>
      <trkpt lat="48.886546" lon="7.179644">
        <ele>335.0</ele>
        <time>2020-07-10T12:03:34Z</time>
      </trkpt>
      <trkpt lat="48.886546" lon="7.179644">
        <ele>335.0</ele>
        <time>2020-07-10T12:03:36Z</time>
      </trkpt>
      <trkpt lat="48.886546" lon="7.179644">
        <ele>335.0</ele>
        <time>2020-07-10T12:03:38Z</time>
      </trkpt>
      <trkpt lat="48.886546" lon="7.179644">
        <ele>335.0</ele>
        <time>2020-07-10T12:03:40Z</time>
      </trkpt>
      <trkpt lat="48.886549" lon="7.179644">
        <ele>334.0</ele>
        <time>2020-07-10T12:03:42Z</time>
      </trkpt>
      <trkpt lat="48.886525" lon="7.179653">
        <ele>334.0</ele>
        <time>2020-07-10T12:03:44Z</time>
      </trkpt>
      <trkpt lat="48.886488" lon="7.179662">
        <ele>334.0</ele>
        <time>2020-07-10T12:03:46Z</time>
      </trkpt>
      <trkpt lat="48.886437" lon="7.179668">
        <ele>333.0</ele>
        <time>2020-07-10T12:03:48Z</time>
      </trkpt>
      <trkpt lat="48.886386" lon="7.179673">
        <ele>333.0</ele>
        <time>2020-07-10T12:03:50Z</time>
      </trkpt>
      <trkpt lat="48.886347" lon="7.17971">
        <ele>335.0</ele>
        <time>2020-07-10T12:03:52Z</time>
      </trkpt>
      <trkpt lat="48.886308" lon="7.179751">
        <ele>335.0</ele>
        <time>2020-07-10T12:03:54Z</time>
      </trkpt>
      <trkpt lat="48.886265" lon="7.179807">
        <ele>334.0</ele>
        <time>2020-07-10T12:03:56Z</time>
      </trkpt>
      <trkpt lat="48.886222" lon="7.179857">
        <ele>336.0</ele>
        <time>2020-07-10T12:03:58Z</time>
      </trkpt>
      <trkpt lat="48.886181" lon="7.179908">
        <ele>336.0</ele>
        <time>2020-07-10T12:04:00Z</time>
      </trkpt>
      <trkpt lat="48.88614" lon="7.179966">
        <ele>336.0</ele>
        <time>2020-07-10T12:04:02Z</time>
      </trkpt>
      <trkpt lat="48.886102" lon="7.180029">
        <ele>336.0</ele>
        <time>2020-07-10T12:04:04Z</time>
      </trkpt>
      <trkpt lat="48.886067" lon="7.180092">
        <ele>336.0</ele>
        <time>2020-07-10T12:04:06Z</time>
      </trkpt>
      <trkpt lat="48.886012" lon="7.180137">
        <ele>336.0</ele>
        <time>2020-07-10T12:04:08Z</time>
      </trkpt>
      <trkpt lat="48.885968" lon="7.1802">
        <ele>336.0</ele>
        <time>2020-07-10T12:04:10Z</time>
      </trkpt>
      <trkpt lat="48.885941" lon="7.180281">
        <ele>336.0</ele>
        <time>2020-07-10T12:04:12Z</time>
      </trkpt>
      <trkpt lat="48.885923" lon="7.180363">
        <ele>336.0</ele>
        <time>2020-07-10T12:04:14Z</time>
      </trkpt>
      <trkpt lat="48.885902" lon="7.180452">
        <ele>336.0</ele>
        <time>2020-07-10T12:04:16Z</time>
      </trkpt>
      <trkpt lat="48.885881" lon="7.180539">
        <ele>337.0</ele>
        <time>2020-07-10T12:04:18Z</time>
      </trkpt>
      <trkpt lat="48.885861" lon="7.180639">
        <ele>337.0</ele>
        <time>2020-07-10T12:04:20Z</time>
      </trkpt>
      <trkpt lat="48.885839" lon="7.180733">
        <ele>337.0</ele>
        <time>2020-07-10T12:04:22Z</time>
      </trkpt>
      <trkpt lat="48.885808" lon="7.180815">
        <ele>336.0</ele>
        <time>2020-07-10T12:04:24Z</time>
      </trkpt>
      <trkpt lat="48.885756" lon="7.180864">
        <ele>336.0</ele>
        <time>2020-07-10T12:04:26Z</time>
      </trkpt>
      <trkpt lat="48.885683" lon="7.180869">
        <ele>334.0</ele>
        <time>2020-07-10T12:04:28Z</time>
      </trkpt>
      <trkpt lat="48.885606" lon="7.180835">
        <ele>334.0</ele>
        <time>2020-07-10T12:04:30Z</time>
      </trkpt>
      <trkpt lat="48.885542" lon="7.180794">
        <ele>335.0</ele>
        <time>2020-07-10T12:04:32Z</time>
      </trkpt>
      <trkpt lat="48.885497" lon="7.180742">
        <ele>335.0</ele>
        <time>2020-07-10T12:04:34Z</time>
      </trkpt>
      <trkpt lat="48.885462" lon="7.180678">
        <ele>336.0</ele>
        <time>2020-07-10T12:04:36Z</time>
      </trkpt>
      <trkpt lat="48.885429" lon="7.1806">
        <ele>337.0</ele>
        <time>2020-07-10T12:04:38Z</time>
      </trkpt>
      <trkpt lat="48.885391" lon="7.180516">
        <ele>338.0</ele>
        <time>2020-07-10T12:04:40Z</time>
      </trkpt>
      <trkpt lat="48.885342" lon="7.18042">
        <ele>339.0</ele>
        <time>2020-07-10T12:04:42Z</time>
      </trkpt>
      <trkpt lat="48.885282" lon="7.180314">
        <ele>338.0</ele>
        <time>2020-07-10T12:04:44Z</time>
      </trkpt>
      <trkpt lat="48.885227" lon="7.180206">
        <ele>338.0</ele>
        <time>2020-07-10T12:04:46Z</time>
      </trkpt>
      <trkpt lat="48.885167" lon="7.180096">
        <ele>339.0</ele>
        <time>2020-07-10T12:04:48Z</time>
      </trkpt>
      <trkpt lat="48.885117" lon="7.179975">
        <ele>340.0</ele>
        <time>2020-07-10T12:04:50Z</time>
      </trkpt>
      <trkpt lat="48.885067" lon="7.179856">
        <ele>340.0</ele>
        <time>2020-07-10T12:04:52Z</time>
      </trkpt>
      <trkpt lat="48.885026" lon="7.179745">
        <ele>340.0</ele>
        <time>2020-07-10T12:04:54Z</time>
      </trkpt>
      <trkpt lat="48.884981" lon="7.179651">
        <ele>340.0</ele>
        <time>2020-07-10T12:04:56Z</time>
      </trkpt>
      <trkpt lat="48.884935" lon="7.179545">
        <ele>339.0</ele>
        <time>2020-07-10T12:04:58Z</time>
      </trkpt>
      <trkpt lat="48.884891" lon="7.179435">
        <ele>339.0</ele>
        <time>2020-07-10T12:05:00Z</time>
      </trkpt>
      <trkpt lat="48.884841" lon="7.179325">
        <ele>339.0</ele>
        <time>2020-07-10T12:05:02Z</time>
      </trkpt>
      <trkpt lat="48.884797" lon="7.179219">
        <ele>339.0</ele>
        <time>2020-07-10T12:05:04Z</time>
      </trkpt>
      <trkpt lat="48.884755" lon="7.179115">
        <ele>340.0</ele>
        <time>2020-07-10T12:05:06Z</time>
      </trkpt>
      <trkpt lat="48.884724" lon="7.17901">
        <ele>340.0</ele>
        <time>2020-07-10T12:05:08Z</time>
      </trkpt>
      <trkpt lat="48.884683" lon="7.17891">
        <ele>341.0</ele>
        <time>2020-07-10T12:05:10Z</time>
      </trkpt>
      <trkpt lat="48.88464" lon="7.178806">
        <ele>341.0</ele>
        <time>2020-07-10T12:05:12Z</time>
      </trkpt>
      <trkpt lat="48.884595" lon="7.178706">
        <ele>341.0</ele>
        <time>2020-07-10T12:05:14Z</time>
      </trkpt>
      <trkpt lat="48.884547" lon="7.178601">
        <ele>341.0</ele>
        <time>2020-07-10T12:05:16Z</time>
      </trkpt>
      <trkpt lat="48.884505" lon="7.17849">
        <ele>341.0</ele>
        <time>2020-07-10T12:05:18Z</time>
      </trkpt>
      <trkpt lat="48.884467" lon="7.178385">
        <ele>341.0</ele>
        <time>2020-07-10T12:05:20Z</time>
      </trkpt>
      <trkpt lat="48.884427" lon="7.178297">
        <ele>341.0</ele>
        <time>2020-07-10T12:05:22Z</time>
      </trkpt>
      <trkpt lat="48.884388" lon="7.178192">
        <ele>340.0</ele>
        <time>2020-07-10T12:05:24Z</time>
      </trkpt>
      <trkpt lat="48.884344" lon="7.178093">
        <ele>340.0</ele>
        <time>2020-07-10T12:05:26Z</time>
      </trkpt>
      <trkpt lat="48.884303" lon="7.178001">
        <ele>341.0</ele>
        <time>2020-07-10T12:05:28Z</time>
      </trkpt>
      <trkpt lat="48.884262" lon="7.177907">
        <ele>341.0</ele>
        <time>2020-07-10T12:05:30Z</time>
      </trkpt>
      <trkpt lat="48.884232" lon="7.177804">
        <ele>342.0</ele>
        <time>2020-07-10T12:05:32Z</time>
      </trkpt>
      <trkpt lat="48.884199" lon="7.177701">
        <ele>342.0</ele>
        <time>2020-07-10T12:05:34Z</time>
      </trkpt>
      <trkpt lat="48.884166" lon="7.177603">
        <ele>342.0</ele>
        <time>2020-07-10T12:05:36Z</time>
      </trkpt>
      <trkpt lat="48.884139" lon="7.1775">
        <ele>342.0</ele>
        <time>2020-07-10T12:05:38Z</time>
      </trkpt>
      <trkpt lat="48.8841" lon="7.1774">
        <ele>342.0</ele>
        <time>2020-07-10T12:05:40Z</time>
      </trkpt>
      <trkpt lat="48.884076" lon="7.177294">
        <ele>342.0</ele>
        <time>2020-07-10T12:05:42Z</time>
      </trkpt>
      <trkpt lat="48.884047" lon="7.177194">
        <ele>342.0</ele>
        <time>2020-07-10T12:05:44Z</time>
      </trkpt>
      <trkpt lat="48.884012" lon="7.177095">
        <ele>342.0</ele>
        <time>2020-07-10T12:05:46Z</time>
      </trkpt>
      <trkpt lat="48.883954" lon="7.177009">
        <ele>342.0</ele>
        <time>2020-07-10T12:05:48Z</time>
      </trkpt>
      <trkpt lat="48.883887" lon="7.176972">
        <ele>341.0</ele>
        <time>2020-07-10T12:05:50Z</time>
      </trkpt>
      <trkpt lat="48.883813" lon="7.176979">
        <ele>341.0</ele>
        <time>2020-07-10T12:05:52Z</time>
      </trkpt>
      <trkpt lat="48.883742" lon="7.176995">
        <ele>341.0</ele>
        <time>2020-07-10T12:05:54Z</time>
      </trkpt>
      <trkpt lat="48.883675" lon="7.177028">
        <ele>342.0</ele>
        <time>2020-07-10T12:05:56Z</time>
      </trkpt>
      <trkpt lat="48.883606" lon="7.177059">
        <ele>342.0</ele>
        <time>2020-07-10T12:05:58Z</time>
      </trkpt>
      <trkpt lat="48.883538" lon="7.177092">
        <ele>343.0</ele>
        <time>2020-07-10T12:06:00Z</time>
      </trkpt>
      <trkpt lat="48.883463" lon="7.177126">
        <ele>343.0</ele>
        <time>2020-07-10T12:06:02Z</time>
      </trkpt>
      <trkpt lat="48.883381" lon="7.177168">
        <ele>344.0</ele>
        <time>2020-07-10T12:06:04Z</time>
      </trkpt>
      <trkpt lat="48.883303" lon="7.177207">
        <ele>344.0</ele>
        <time>2020-07-10T12:06:06Z</time>
      </trkpt>
      <trkpt lat="48.883228" lon="7.177245">
        <ele>345.0</ele>
        <time>2020-07-10T12:06:08Z</time>
      </trkpt>
      <trkpt lat="48.883149" lon="7.177275">
        <ele>345.0</ele>
        <time>2020-07-10T12:06:10Z</time>
      </trkpt>
      <trkpt lat="48.88306" lon="7.177305">
        <ele>344.0</ele>
        <time>2020-07-10T12:06:12Z</time>
      </trkpt>
      <trkpt lat="48.88297" lon="7.177341">
        <ele>344.0</ele>
        <time>2020-07-10T12:06:14Z</time>
      </trkpt>
      <trkpt lat="48.88287" lon="7.177385">
        <ele>344.0</ele>
        <time>2020-07-10T12:06:16Z</time>
      </trkpt>
      <trkpt lat="48.882761" lon="7.177425">
        <ele>344.0</ele>
        <time>2020-07-10T12:06:18Z</time>
      </trkpt>
      <trkpt lat="48.88265" lon="7.177471">
        <ele>343.0</ele>
        <time>2020-07-10T12:06:20Z</time>
      </trkpt>
      <trkpt lat="48.882538" lon="7.177518">
        <ele>343.0</ele>
        <time>2020-07-10T12:06:22Z</time>
      </trkpt>
      <trkpt lat="48.882409" lon="7.177575">
        <ele>343.0</ele>
        <time>2020-07-10T12:06:24Z</time>
      </trkpt>
      <trkpt lat="48.882268" lon="7.177628">
        <ele>343.0</ele>
        <time>2020-07-10T12:06:26Z</time>
      </trkpt>
      <trkpt lat="48.882067" lon="7.177698">
        <ele>342.0</ele>
        <time>2020-07-10T12:06:29Z</time>
      </trkpt>
      <trkpt lat="48.881938" lon="7.17775">
        <ele>342.0</ele>
        <time>2020-07-10T12:06:31Z</time>
      </trkpt>
      <trkpt lat="48.881812" lon="7.177805">
        <ele>342.0</ele>
        <time>2020-07-10T12:06:33Z</time>
      </trkpt>
      <trkpt lat="48.881684" lon="7.17786">
        <ele>342.0</ele>
        <time>2020-07-10T12:06:35Z</time>
      </trkpt>
      <trkpt lat="48.881561" lon="7.177919">
        <ele>342.0</ele>
        <time>2020-07-10T12:06:37Z</time>
      </trkpt>
      <trkpt lat="48.881444" lon="7.177972">
        <ele>342.0</ele>
        <time>2020-07-10T12:06:39Z</time>
      </trkpt>
      <trkpt lat="48.881336" lon="7.178028">
        <ele>342.0</ele>
        <time>2020-07-10T12:06:41Z</time>
      </trkpt>
      <trkpt lat="48.881229" lon="7.178073">
        <ele>342.0</ele>
        <time>2020-07-10T12:06:43Z</time>
      </trkpt>
      <trkpt lat="48.881123" lon="7.178128">
        <ele>342.0</ele>
        <time>2020-07-10T12:06:45Z</time>
      </trkpt>
      <trkpt lat="48.881023" lon="7.178169">
        <ele>342.0</ele>
        <time>2020-07-10T12:06:47Z</time>
      </trkpt>
      <trkpt lat="48.880924" lon="7.178208">
        <ele>342.0</ele>
        <time>2020-07-10T12:06:49Z</time>
      </trkpt>
      <trkpt lat="48.880819" lon="7.178256">
        <ele>342.0</ele>
        <time>2020-07-10T12:06:51Z</time>
      </trkpt>
      <trkpt lat="48.880711" lon="7.178298">
        <ele>342.0</ele>
        <time>2020-07-10T12:06:53Z</time>
      </trkpt>
      <trkpt lat="48.880595" lon="7.178353">
        <ele>341.0</ele>
        <time>2020-07-10T12:06:55Z</time>
      </trkpt>
      <trkpt lat="48.880473" lon="7.178403">
        <ele>341.0</ele>
        <time>2020-07-10T12:06:57Z</time>
      </trkpt>
      <trkpt lat="48.880347" lon="7.178458">
        <ele>341.0</ele>
        <time>2020-07-10T12:06:59Z</time>
      </trkpt>
      <trkpt lat="48.880228" lon="7.178519">
        <ele>341.0</ele>
        <time>2020-07-10T12:07:01Z</time>
      </trkpt>
      <trkpt lat="48.880114" lon="7.178581">
        <ele>340.0</ele>
        <time>2020-07-10T12:07:03Z</time>
      </trkpt>
      <trkpt lat="48.880003" lon="7.178646">
        <ele>341.0</ele>
        <time>2020-07-10T12:07:05Z</time>
      </trkpt>
      <trkpt lat="48.8799" lon="7.178713">
        <ele>341.0</ele>
        <time>2020-07-10T12:07:07Z</time>
      </trkpt>
      <trkpt lat="48.879802" lon="7.178781">
        <ele>342.0</ele>
        <time>2020-07-10T12:07:09Z</time>
      </trkpt>
      <trkpt lat="48.879704" lon="7.178847">
        <ele>342.0</ele>
        <time>2020-07-10T12:07:11Z</time>
      </trkpt>
      <trkpt lat="48.879605" lon="7.178916">
        <ele>342.0</ele>
        <time>2020-07-10T12:07:13Z</time>
      </trkpt>
      <trkpt lat="48.87951" lon="7.178972">
        <ele>342.0</ele>
        <time>2020-07-10T12:07:15Z</time>
      </trkpt>
      <trkpt lat="48.879421" lon="7.179033">
        <ele>343.0</ele>
        <time>2020-07-10T12:07:17Z</time>
      </trkpt>
      <trkpt lat="48.879335" lon="7.179085">
        <ele>342.0</ele>
        <time>2020-07-10T12:07:19Z</time>
      </trkpt>
      <trkpt lat="48.879248" lon="7.179136">
        <ele>342.0</ele>
        <time>2020-07-10T12:07:21Z</time>
      </trkpt>
      <trkpt lat="48.879157" lon="7.179195">
        <ele>342.0</ele>
        <time>2020-07-10T12:07:23Z</time>
      </trkpt>
      <trkpt lat="48.879065" lon="7.17926">
        <ele>342.0</ele>
        <time>2020-07-10T12:07:25Z</time>
      </trkpt>
      <trkpt lat="48.878974" lon="7.179325">
        <ele>342.0</ele>
        <time>2020-07-10T12:07:27Z</time>
      </trkpt>
      <trkpt lat="48.878876" lon="7.17939">
        <ele>343.0</ele>
        <time>2020-07-10T12:07:29Z</time>
      </trkpt>
      <trkpt lat="48.87878" lon="7.179451">
        <ele>343.0</ele>
        <time>2020-07-10T12:07:31Z</time>
      </trkpt>
      <trkpt lat="48.878682" lon="7.179515">
        <ele>343.0</ele>
        <time>2020-07-10T12:07:33Z</time>
      </trkpt>
      <trkpt lat="48.87858" lon="7.17957">
        <ele>343.0</ele>
        <time>2020-07-10T12:07:35Z</time>
      </trkpt>
      <trkpt lat="48.878481" lon="7.179637">
        <ele>343.0</ele>
        <time>2020-07-10T12:07:37Z</time>
      </trkpt>
      <trkpt lat="48.878381" lon="7.179712">
        <ele>343.0</ele>
        <time>2020-07-10T12:07:39Z</time>
      </trkpt>
      <trkpt lat="48.87828" lon="7.179778">
        <ele>343.0</ele>
        <time>2020-07-10T12:07:41Z</time>
      </trkpt>
      <trkpt lat="48.878182" lon="7.179838">
        <ele>343.0</ele>
        <time>2020-07-10T12:07:43Z</time>
      </trkpt>
      <trkpt lat="48.878082" lon="7.179901">
        <ele>343.0</ele>
        <time>2020-07-10T12:07:45Z</time>
      </trkpt>
      <trkpt lat="48.877987" lon="7.179969">
        <ele>343.0</ele>
        <time>2020-07-10T12:07:47Z</time>
      </trkpt>
      <trkpt lat="48.877894" lon="7.180051">
        <ele>343.0</ele>
        <time>2020-07-10T12:07:49Z</time>
      </trkpt>
      <trkpt lat="48.877792" lon="7.18014">
        <ele>342.0</ele>
        <time>2020-07-10T12:07:51Z</time>
      </trkpt>
      <trkpt lat="48.877694" lon="7.18024">
        <ele>342.0</ele>
        <time>2020-07-10T12:07:53Z</time>
      </trkpt>
      <trkpt lat="48.877588" lon="7.180345">
        <ele>341.0</ele>
        <time>2020-07-10T12:07:55Z</time>
      </trkpt>
      <trkpt lat="48.877476" lon="7.180457">
        <ele>340.0</ele>
        <time>2020-07-10T12:07:57Z</time>
      </trkpt>
      <trkpt lat="48.877365" lon="7.180564">
        <ele>340.0</ele>
        <time>2020-07-10T12:07:59Z</time>
      </trkpt>
      <trkpt lat="48.877251" lon="7.180689">
        <ele>340.0</ele>
        <time>2020-07-10T12:08:01Z</time>
      </trkpt>
      <trkpt lat="48.877141" lon="7.180813">
        <ele>339.0</ele>
        <time>2020-07-10T12:08:03Z</time>
      </trkpt>
      <trkpt lat="48.877022" lon="7.180938">
        <ele>339.0</ele>
        <time>2020-07-10T12:08:05Z</time>
      </trkpt>
      <trkpt lat="48.876907" lon="7.181062">
        <ele>338.0</ele>
        <time>2020-07-10T12:08:07Z</time>
      </trkpt>
      <trkpt lat="48.876787" lon="7.181196">
        <ele>338.0</ele>
        <time>2020-07-10T12:08:09Z</time>
      </trkpt>
      <trkpt lat="48.876658" lon="7.181313">
        <ele>338.0</ele>
        <time>2020-07-10T12:08:11Z</time>
      </trkpt>
      <trkpt lat="48.876525" lon="7.181435">
        <ele>338.0</ele>
        <time>2020-07-10T12:08:13Z</time>
      </trkpt>
      <trkpt lat="48.876404" lon="7.181552">
        <ele>338.0</ele>
        <time>2020-07-10T12:08:15Z</time>
      </trkpt>
      <trkpt lat="48.876284" lon="7.18167">
        <ele>337.0</ele>
        <time>2020-07-10T12:08:17Z</time>
      </trkpt>
      <trkpt lat="48.876169" lon="7.181786">
        <ele>337.0</ele>
        <time>2020-07-10T12:08:19Z</time>
      </trkpt>
      <trkpt lat="48.876057" lon="7.181896">
        <ele>337.0</ele>
        <time>2020-07-10T12:08:21Z</time>
      </trkpt>
      <trkpt lat="48.875935" lon="7.181998">
        <ele>337.0</ele>
        <time>2020-07-10T12:08:23Z</time>
      </trkpt>
      <trkpt lat="48.875816" lon="7.182093">
        <ele>337.0</ele>
        <time>2020-07-10T12:08:25Z</time>
      </trkpt>
      <trkpt lat="48.875694" lon="7.18218">
        <ele>337.0</ele>
        <time>2020-07-10T12:08:27Z</time>
      </trkpt>
      <trkpt lat="48.875563" lon="7.182267">
        <ele>337.0</ele>
        <time>2020-07-10T12:08:29Z</time>
      </trkpt>
      <trkpt lat="48.875432" lon="7.182339">
        <ele>337.0</ele>
        <time>2020-07-10T12:08:31Z</time>
      </trkpt>
      <trkpt lat="48.875311" lon="7.182426">
        <ele>338.0</ele>
        <time>2020-07-10T12:08:33Z</time>
      </trkpt>
      <trkpt lat="48.87519" lon="7.182514">
        <ele>338.0</ele>
        <time>2020-07-10T12:08:35Z</time>
      </trkpt>
      <trkpt lat="48.87507" lon="7.182586">
        <ele>338.0</ele>
        <time>2020-07-10T12:08:37Z</time>
      </trkpt>
      <trkpt lat="48.874953" lon="7.182672">
        <ele>338.0</ele>
        <time>2020-07-10T12:08:39Z</time>
      </trkpt>
      <trkpt lat="48.874836" lon="7.182752">
        <ele>338.0</ele>
        <time>2020-07-10T12:08:41Z</time>
      </trkpt>
      <trkpt lat="48.874712" lon="7.182827">
        <ele>337.0</ele>
        <time>2020-07-10T12:08:43Z</time>
      </trkpt>
      <trkpt lat="48.874587" lon="7.182916">
        <ele>337.0</ele>
        <time>2020-07-10T12:08:45Z</time>
      </trkpt>
      <trkpt lat="48.874467" lon="7.182995">
        <ele>337.0</ele>
        <time>2020-07-10T12:08:47Z</time>
      </trkpt>
      <trkpt lat="48.874341" lon="7.183073">
        <ele>337.0</ele>
        <time>2020-07-10T12:08:49Z</time>
      </trkpt>
      <trkpt lat="48.874219" lon="7.183153">
        <ele>337.0</ele>
        <time>2020-07-10T12:08:51Z</time>
      </trkpt>
      <trkpt lat="48.874101" lon="7.183239">
        <ele>337.0</ele>
        <time>2020-07-10T12:08:53Z</time>
      </trkpt>
      <trkpt lat="48.873982" lon="7.18332">
        <ele>336.0</ele>
        <time>2020-07-10T12:08:55Z</time>
      </trkpt>
      <trkpt lat="48.873869" lon="7.183404">
        <ele>336.0</ele>
        <time>2020-07-10T12:08:57Z</time>
      </trkpt>
      <trkpt lat="48.873699" lon="7.183531">
        <ele>335.0</ele>
        <time>2020-07-10T12:09:00Z</time>
      </trkpt>
      <trkpt lat="48.873642" lon="7.183568">
        <ele>335.0</ele>
        <time>2020-07-10T12:09:01Z</time>
      </trkpt>
      <trkpt lat="48.873472" lon="7.183665">
        <ele>335.0</ele>
        <time>2020-07-10T12:09:04Z</time>
      </trkpt>
      <trkpt lat="48.87336" lon="7.183739">
        <ele>335.0</ele>
        <time>2020-07-10T12:09:06Z</time>
      </trkpt>
      <trkpt lat="48.87325" lon="7.183816">
        <ele>335.0</ele>
        <time>2020-07-10T12:09:08Z</time>
      </trkpt>
      <trkpt lat="48.873136" lon="7.183899">
        <ele>335.0</ele>
        <time>2020-07-10T12:09:10Z</time>
      </trkpt>
      <trkpt lat="48.873025" lon="7.183958">
        <ele>335.0</ele>
        <time>2020-07-10T12:09:12Z</time>
      </trkpt>
      <trkpt lat="48.872909" lon="7.184017">
        <ele>335.0</ele>
        <time>2020-07-10T12:09:14Z</time>
      </trkpt>
      <trkpt lat="48.872791" lon="7.184078">
        <ele>334.0</ele>
        <time>2020-07-10T12:09:16Z</time>
      </trkpt>
      <trkpt lat="48.87267" lon="7.184155">
        <ele>334.0</ele>
        <time>2020-07-10T12:09:18Z</time>
      </trkpt>
      <trkpt lat="48.872548" lon="7.184227">
        <ele>334.0</ele>
        <time>2020-07-10T12:09:20Z</time>
      </trkpt>
      <trkpt lat="48.872432" lon="7.184306">
        <ele>335.0</ele>
        <time>2020-07-10T12:09:22Z</time>
      </trkpt>
      <trkpt lat="48.872321" lon="7.184379">
        <ele>335.0</ele>
        <time>2020-07-10T12:09:24Z</time>
      </trkpt>
      <trkpt lat="48.872214" lon="7.184467">
        <ele>335.0</ele>
        <time>2020-07-10T12:09:26Z</time>
      </trkpt>
      <trkpt lat="48.872101" lon="7.184566">
        <ele>335.0</ele>
        <time>2020-07-10T12:09:28Z</time>
      </trkpt>
      <trkpt lat="48.871978" lon="7.184656">
        <ele>335.0</ele>
        <time>2020-07-10T12:09:30Z</time>
      </trkpt>
      <trkpt lat="48.871842" lon="7.184742">
        <ele>335.0</ele>
        <time>2020-07-10T12:09:32Z</time>
      </trkpt>
      <trkpt lat="48.871703" lon="7.184827">
        <ele>335.0</ele>
        <time>2020-07-10T12:09:34Z</time>
      </trkpt>
      <trkpt lat="48.871566" lon="7.184916">
        <ele>334.0</ele>
        <time>2020-07-10T12:09:36Z</time>
      </trkpt>
      <trkpt lat="48.87143" lon="7.185005">
        <ele>334.0</ele>
        <time>2020-07-10T12:09:38Z</time>
      </trkpt>
      <trkpt lat="48.871287" lon="7.185104">
        <ele>333.0</ele>
        <time>2020-07-10T12:09:40Z</time>
      </trkpt>
      <trkpt lat="48.87114" lon="7.185188">
        <ele>332.0</ele>
        <time>2020-07-10T12:09:42Z</time>
      </trkpt>
      <trkpt lat="48.870988" lon="7.185282">
        <ele>332.0</ele>
        <time>2020-07-10T12:09:44Z</time>
      </trkpt>
      <trkpt lat="48.870843" lon="7.185382">
        <ele>332.0</ele>
        <time>2020-07-10T12:09:46Z</time>
      </trkpt>
      <trkpt lat="48.870706" lon="7.18547">
        <ele>332.0</ele>
        <time>2020-07-10T12:09:48Z</time>
      </trkpt>
      <trkpt lat="48.870574" lon="7.18553">
        <ele>332.0</ele>
        <time>2020-07-10T12:09:50Z</time>
      </trkpt>
      <trkpt lat="48.870455" lon="7.185502">
        <ele>331.0</ele>
        <time>2020-07-10T12:09:52Z</time>
      </trkpt>
      <trkpt lat="48.870347" lon="7.185544">
        <ele>331.0</ele>
        <time>2020-07-10T12:09:54Z</time>
      </trkpt>
      <trkpt lat="48.870282" lon="7.185677">
        <ele>330.0</ele>
        <time>2020-07-10T12:09:56Z</time>
      </trkpt>
      <trkpt lat="48.870206" lon="7.185781">
        <ele>330.0</ele>
        <time>2020-07-10T12:09:58Z</time>
      </trkpt>
      <trkpt lat="48.870108" lon="7.185844">
        <ele>330.0</ele>
        <time>2020-07-10T12:10:00Z</time>
      </trkpt>
      <trkpt lat="48.870012" lon="7.185893">
        <ele>330.0</ele>
        <time>2020-07-10T12:10:02Z</time>
      </trkpt>
      <trkpt lat="48.869909" lon="7.185946">
        <ele>330.0</ele>
        <time>2020-07-10T12:10:04Z</time>
      </trkpt>
      <trkpt lat="48.869807" lon="7.185997">
        <ele>331.0</ele>
        <time>2020-07-10T12:10:06Z</time>
      </trkpt>
      <trkpt lat="48.869704" lon="7.186054">
        <ele>332.0</ele>
        <time>2020-07-10T12:10:08Z</time>
      </trkpt>
      <trkpt lat="48.869608" lon="7.186116">
        <ele>332.0</ele>
        <time>2020-07-10T12:10:10Z</time>
      </trkpt>
      <trkpt lat="48.869527" lon="7.186189">
        <ele>332.0</ele>
        <time>2020-07-10T12:10:12Z</time>
      </trkpt>
      <trkpt lat="48.869441" lon="7.18627">
        <ele>332.0</ele>
        <time>2020-07-10T12:10:14Z</time>
      </trkpt>
      <trkpt lat="48.869356" lon="7.186368">
        <ele>332.0</ele>
        <time>2020-07-10T12:10:16Z</time>
      </trkpt>
      <trkpt lat="48.869274" lon="7.186472">
        <ele>333.0</ele>
        <time>2020-07-10T12:10:18Z</time>
      </trkpt>
      <trkpt lat="48.869197" lon="7.186566">
        <ele>333.0</ele>
        <time>2020-07-10T12:10:20Z</time>
      </trkpt>
      <trkpt lat="48.869119" lon="7.186646">
        <ele>334.0</ele>
        <time>2020-07-10T12:10:22Z</time>
      </trkpt>
      <trkpt lat="48.869038" lon="7.186715">
        <ele>334.0</ele>
        <time>2020-07-10T12:10:24Z</time>
      </trkpt>
      <trkpt lat="48.86895" lon="7.18677">
        <ele>333.0</ele>
        <time>2020-07-10T12:10:26Z</time>
      </trkpt>
      <trkpt lat="48.868866" lon="7.186834">
        <ele>334.0</ele>
        <time>2020-07-10T12:10:28Z</time>
      </trkpt>
      <trkpt lat="48.86878" lon="7.186889">
        <ele>333.0</ele>
        <time>2020-07-10T12:10:30Z</time>
      </trkpt>
      <trkpt lat="48.868693" lon="7.186935">
        <ele>333.0</ele>
        <time>2020-07-10T12:10:32Z</time>
      </trkpt>
      <trkpt lat="48.868606" lon="7.186984">
        <ele>333.0</ele>
        <time>2020-07-10T12:10:34Z</time>
      </trkpt>
      <trkpt lat="48.868515" lon="7.187036">
        <ele>333.0</ele>
        <time>2020-07-10T12:10:36Z</time>
      </trkpt>
      <trkpt lat="48.868417" lon="7.187082">
        <ele>333.0</ele>
        <time>2020-07-10T12:10:38Z</time>
      </trkpt>
      <trkpt lat="48.868313" lon="7.187139">
        <ele>332.0</ele>
        <time>2020-07-10T12:10:40Z</time>
      </trkpt>
      <trkpt lat="48.86821" lon="7.187208">
        <ele>333.0</ele>
        <time>2020-07-10T12:10:42Z</time>
      </trkpt>
      <trkpt lat="48.868107" lon="7.187269">
        <ele>332.0</ele>
        <time>2020-07-10T12:10:44Z</time>
      </trkpt>
      <trkpt lat="48.868002" lon="7.187338">
        <ele>332.0</ele>
        <time>2020-07-10T12:10:46Z</time>
      </trkpt>
      <trkpt lat="48.867903" lon="7.187427">
        <ele>332.0</ele>
        <time>2020-07-10T12:10:48Z</time>
      </trkpt>
      <trkpt lat="48.867799" lon="7.187526">
        <ele>332.0</ele>
        <time>2020-07-10T12:10:50Z</time>
      </trkpt>
      <trkpt lat="48.867701" lon="7.187633">
        <ele>331.0</ele>
        <time>2020-07-10T12:10:52Z</time>
      </trkpt>
      <trkpt lat="48.867606" lon="7.187728">
        <ele>330.0</ele>
        <time>2020-07-10T12:10:54Z</time>
      </trkpt>
      <trkpt lat="48.867502" lon="7.187825">
        <ele>329.0</ele>
        <time>2020-07-10T12:10:56Z</time>
      </trkpt>
      <trkpt lat="48.867405" lon="7.18792">
        <ele>330.0</ele>
        <time>2020-07-10T12:10:58Z</time>
      </trkpt>
      <trkpt lat="48.867308" lon="7.188009">
        <ele>331.0</ele>
        <time>2020-07-10T12:11:00Z</time>
      </trkpt>
      <trkpt lat="48.867214" lon="7.188102">
        <ele>331.0</ele>
        <time>2020-07-10T12:11:02Z</time>
      </trkpt>
      <trkpt lat="48.867169" lon="7.188151">
        <ele>331.0</ele>
        <time>2020-07-10T12:11:03Z</time>
      </trkpt>
      <trkpt lat="48.867031" lon="7.188287">
        <ele>332.0</ele>
        <time>2020-07-10T12:11:06Z</time>
      </trkpt>
      <trkpt lat="48.866942" lon="7.188364">
        <ele>332.0</ele>
        <time>2020-07-10T12:11:08Z</time>
      </trkpt>
      <trkpt lat="48.866845" lon="7.18844">
        <ele>331.0</ele>
        <time>2020-07-10T12:11:10Z</time>
      </trkpt>
      <trkpt lat="48.866747" lon="7.188516">
        <ele>332.0</ele>
        <time>2020-07-10T12:11:12Z</time>
      </trkpt>
      <trkpt lat="48.866648" lon="7.188568">
        <ele>332.0</ele>
        <time>2020-07-10T12:11:14Z</time>
      </trkpt>
      <trkpt lat="48.866555" lon="7.188617">
        <ele>332.0</ele>
        <time>2020-07-10T12:11:16Z</time>
      </trkpt>
      <trkpt lat="48.866459" lon="7.188675">
        <ele>332.0</ele>
        <time>2020-07-10T12:11:18Z</time>
      </trkpt>
      <trkpt lat="48.866368" lon="7.188745">
        <ele>332.0</ele>
        <time>2020-07-10T12:11:20Z</time>
      </trkpt>
      <trkpt lat="48.866271" lon="7.188826">
        <ele>332.0</ele>
        <time>2020-07-10T12:11:22Z</time>
      </trkpt>
      <trkpt lat="48.866186" lon="7.188911">
        <ele>332.0</ele>
        <time>2020-07-10T12:11:24Z</time>
      </trkpt>
      <trkpt lat="48.866116" lon="7.189018">
        <ele>331.0</ele>
        <time>2020-07-10T12:11:26Z</time>
      </trkpt>
      <trkpt lat="48.866079" lon="7.189151">
        <ele>331.0</ele>
        <time>2020-07-10T12:11:28Z</time>
      </trkpt>
      <trkpt lat="48.866051" lon="7.189374">
        <ele>332.0</ele>
        <time>2020-07-10T12:11:31Z</time>
      </trkpt>
      <trkpt lat="48.86605" lon="7.189535">
        <ele>331.0</ele>
        <time>2020-07-10T12:11:33Z</time>
      </trkpt>
      <trkpt lat="48.866085" lon="7.1897">
        <ele>331.0</ele>
        <time>2020-07-10T12:11:35Z</time>
      </trkpt>
      <trkpt lat="48.866136" lon="7.18986">
        <ele>331.0</ele>
        <time>2020-07-10T12:11:37Z</time>
      </trkpt>
      <trkpt lat="48.866189" lon="7.19002">
        <ele>330.0</ele>
        <time>2020-07-10T12:11:39Z</time>
      </trkpt>
      <trkpt lat="48.866254" lon="7.190178">
        <ele>329.0</ele>
        <time>2020-07-10T12:11:41Z</time>
      </trkpt>
      <trkpt lat="48.866319" lon="7.190336">
        <ele>329.0</ele>
        <time>2020-07-10T12:11:43Z</time>
      </trkpt>
      <trkpt lat="48.866379" lon="7.190496">
        <ele>328.0</ele>
        <time>2020-07-10T12:11:45Z</time>
      </trkpt>
      <trkpt lat="48.866435" lon="7.190671">
        <ele>329.0</ele>
        <time>2020-07-10T12:11:47Z</time>
      </trkpt>
      <trkpt lat="48.866503" lon="7.190827">
        <ele>329.0</ele>
        <time>2020-07-10T12:11:49Z</time>
      </trkpt>
      <trkpt lat="48.86658" lon="7.190975">
        <ele>329.0</ele>
        <time>2020-07-10T12:11:51Z</time>
      </trkpt>
      <trkpt lat="48.866654" lon="7.191125">
        <ele>329.0</ele>
        <time>2020-07-10T12:11:53Z</time>
      </trkpt>
      <trkpt lat="48.866742" lon="7.19128">
        <ele>329.0</ele>
        <time>2020-07-10T12:11:55Z</time>
      </trkpt>
      <trkpt lat="48.866821" lon="7.191445">
        <ele>330.0</ele>
        <time>2020-07-10T12:11:57Z</time>
      </trkpt>
      <trkpt lat="48.866906" lon="7.191593">
        <ele>330.0</ele>
        <time>2020-07-10T12:11:59Z</time>
      </trkpt>
      <trkpt lat="48.866992" lon="7.191756">
        <ele>330.0</ele>
        <time>2020-07-10T12:12:01Z</time>
      </trkpt>
      <trkpt lat="48.867078" lon="7.19194">
        <ele>330.0</ele>
        <time>2020-07-10T12:12:03Z</time>
      </trkpt>
      <trkpt lat="48.867111" lon="7.192157">
        <ele>330.0</ele>
        <time>2020-07-10T12:12:05Z</time>
      </trkpt>
      <trkpt lat="48.867092" lon="7.192373">
        <ele>330.0</ele>
        <time>2020-07-10T12:12:07Z</time>
      </trkpt>
      <trkpt lat="48.867022" lon="7.192549">
        <ele>329.0</ele>
        <time>2020-07-10T12:12:09Z</time>
      </trkpt>
      <trkpt lat="48.866915" lon="7.192719">
        <ele>329.0</ele>
        <time>2020-07-10T12:12:11Z</time>
      </trkpt>
      <trkpt lat="48.866826" lon="7.192892">
        <ele>329.0</ele>
        <time>2020-07-10T12:12:13Z</time>
      </trkpt>
      <trkpt lat="48.86675" lon="7.19305">
        <ele>328.0</ele>
        <time>2020-07-10T12:12:15Z</time>
      </trkpt>
      <trkpt lat="48.866675" lon="7.193194">
        <ele>328.0</ele>
        <time>2020-07-10T12:12:17Z</time>
      </trkpt>
      <trkpt lat="48.866595" lon="7.193331">
        <ele>328.0</ele>
        <time>2020-07-10T12:12:19Z</time>
      </trkpt>
      <trkpt lat="48.866518" lon="7.193465">
        <ele>328.0</ele>
        <time>2020-07-10T12:12:21Z</time>
      </trkpt>
      <trkpt lat="48.866446" lon="7.193596">
        <ele>328.0</ele>
        <time>2020-07-10T12:12:23Z</time>
      </trkpt>
      <trkpt lat="48.866372" lon="7.193715">
        <ele>328.0</ele>
        <time>2020-07-10T12:12:25Z</time>
      </trkpt>
      <trkpt lat="48.866295" lon="7.193827">
        <ele>328.0</ele>
        <time>2020-07-10T12:12:27Z</time>
      </trkpt>
      <trkpt lat="48.866217" lon="7.193918">
        <ele>329.0</ele>
        <time>2020-07-10T12:12:29Z</time>
      </trkpt>
      <trkpt lat="48.866141" lon="7.193993">
        <ele>329.0</ele>
        <time>2020-07-10T12:12:31Z</time>
      </trkpt>
      <trkpt lat="48.866072" lon="7.194045">
        <ele>330.0</ele>
        <time>2020-07-10T12:12:33Z</time>
      </trkpt>
      <trkpt lat="48.865997" lon="7.194101">
        <ele>330.0</ele>
        <time>2020-07-10T12:12:35Z</time>
      </trkpt>
      <trkpt lat="48.865945" lon="7.19415">
        <ele>330.0</ele>
        <time>2020-07-10T12:12:37Z</time>
      </trkpt>
      <trkpt lat="48.865899" lon="7.194199">
        <ele>329.0</ele>
        <time>2020-07-10T12:12:39Z</time>
      </trkpt>
      <trkpt lat="48.865845" lon="7.194241">
        <ele>330.0</ele>
        <time>2020-07-10T12:12:41Z</time>
      </trkpt>
      <trkpt lat="48.865797" lon="7.194283">
        <ele>330.0</ele>
        <time>2020-07-10T12:12:43Z</time>
      </trkpt>
      <trkpt lat="48.865749" lon="7.194322">
        <ele>331.0</ele>
        <time>2020-07-10T12:12:45Z</time>
      </trkpt>
      <trkpt lat="48.865697" lon="7.194364">
        <ele>331.0</ele>
        <time>2020-07-10T12:12:47Z</time>
      </trkpt>
      <trkpt lat="48.865647" lon="7.194404">
        <ele>331.0</ele>
        <time>2020-07-10T12:12:49Z</time>
      </trkpt>
      <trkpt lat="48.865597" lon="7.194438">
        <ele>332.0</ele>
        <time>2020-07-10T12:12:51Z</time>
      </trkpt>
      <trkpt lat="48.865547" lon="7.194478">
        <ele>332.0</ele>
        <time>2020-07-10T12:12:53Z</time>
      </trkpt>
      <trkpt lat="48.8655" lon="7.194517">
        <ele>332.0</ele>
        <time>2020-07-10T12:12:55Z</time>
      </trkpt>
      <trkpt lat="48.865455" lon="7.19455">
        <ele>332.0</ele>
        <time>2020-07-10T12:12:57Z</time>
      </trkpt>
      <trkpt lat="48.865412" lon="7.194588">
        <ele>333.0</ele>
        <time>2020-07-10T12:12:59Z</time>
      </trkpt>
      <trkpt lat="48.865368" lon="7.194623">
        <ele>333.0</ele>
        <time>2020-07-10T12:13:01Z</time>
      </trkpt>
      <trkpt lat="48.865323" lon="7.194661">
        <ele>333.0</ele>
        <time>2020-07-10T12:13:03Z</time>
      </trkpt>
      <trkpt lat="48.865282" lon="7.1947">
        <ele>334.0</ele>
        <time>2020-07-10T12:13:05Z</time>
      </trkpt>
      <trkpt lat="48.865244" lon="7.19474">
        <ele>334.0</ele>
        <time>2020-07-10T12:13:07Z</time>
      </trkpt>
      <trkpt lat="48.865201" lon="7.194772">
        <ele>334.0</ele>
        <time>2020-07-10T12:13:09Z</time>
      </trkpt>
      <trkpt lat="48.865155" lon="7.194802">
        <ele>335.0</ele>
        <time>2020-07-10T12:13:11Z</time>
      </trkpt>
      <trkpt lat="48.86511" lon="7.194834">
        <ele>335.0</ele>
        <time>2020-07-10T12:13:13Z</time>
      </trkpt>
      <trkpt lat="48.865062" lon="7.194865">
        <ele>335.0</ele>
        <time>2020-07-10T12:13:15Z</time>
      </trkpt>
      <trkpt lat="48.865016" lon="7.194902">
        <ele>336.0</ele>
        <time>2020-07-10T12:13:17Z</time>
      </trkpt>
      <trkpt lat="48.864974" lon="7.19494">
        <ele>336.0</ele>
        <time>2020-07-10T12:13:19Z</time>
      </trkpt>
      <trkpt lat="48.864928" lon="7.194975">
        <ele>336.0</ele>
        <time>2020-07-10T12:13:21Z</time>
      </trkpt>
      <trkpt lat="48.864879" lon="7.195009">
        <ele>336.0</ele>
        <time>2020-07-10T12:13:23Z</time>
      </trkpt>
      <trkpt lat="48.864826" lon="7.195041">
        <ele>336.0</ele>
        <time>2020-07-10T12:13:25Z</time>
      </trkpt>
      <trkpt lat="48.864782" lon="7.195085">
        <ele>336.0</ele>
        <time>2020-07-10T12:13:27Z</time>
      </trkpt>
      <trkpt lat="48.864736" lon="7.195128">
        <ele>336.0</ele>
        <time>2020-07-10T12:13:29Z</time>
      </trkpt>
      <trkpt lat="48.864688" lon="7.195175">
        <ele>336.0</ele>
        <time>2020-07-10T12:13:31Z</time>
      </trkpt>
      <trkpt lat="48.864642" lon="7.195218">
        <ele>336.0</ele>
        <time>2020-07-10T12:13:33Z</time>
      </trkpt>
      <trkpt lat="48.864596" lon="7.195269">
        <ele>336.0</ele>
        <time>2020-07-10T12:13:35Z</time>
      </trkpt>
      <trkpt lat="48.864548" lon="7.195318">
        <ele>336.0</ele>
        <time>2020-07-10T12:13:37Z</time>
      </trkpt>
      <trkpt lat="48.864494" lon="7.195371">
        <ele>335.0</ele>
        <time>2020-07-10T12:13:39Z</time>
      </trkpt>
      <trkpt lat="48.864443" lon="7.195426">
        <ele>337.0</ele>
        <time>2020-07-10T12:13:41Z</time>
      </trkpt>
      <trkpt lat="48.864389" lon="7.195484">
        <ele>337.0</ele>
        <time>2020-07-10T12:13:43Z</time>
      </trkpt>
      <trkpt lat="48.864331" lon="7.195533">
        <ele>338.0</ele>
        <time>2020-07-10T12:13:45Z</time>
      </trkpt>
      <trkpt lat="48.86428" lon="7.195583">
        <ele>338.0</ele>
        <time>2020-07-10T12:13:47Z</time>
      </trkpt>
      <trkpt lat="48.864225" lon="7.195649">
        <ele>338.0</ele>
        <time>2020-07-10T12:13:49Z</time>
      </trkpt>
      <trkpt lat="48.864168" lon="7.195716">
        <ele>339.0</ele>
        <time>2020-07-10T12:13:51Z</time>
      </trkpt>
      <trkpt lat="48.864114" lon="7.195784">
        <ele>339.0</ele>
        <time>2020-07-10T12:13:53Z</time>
      </trkpt>
      <trkpt lat="48.864059" lon="7.195854">
        <ele>339.0</ele>
        <time>2020-07-10T12:13:55Z</time>
      </trkpt>
      <trkpt lat="48.864006" lon="7.19592">
        <ele>339.0</ele>
        <time>2020-07-10T12:13:57Z</time>
      </trkpt>
      <trkpt lat="48.863955" lon="7.195996">
        <ele>339.0</ele>
        <time>2020-07-10T12:13:59Z</time>
      </trkpt>
      <trkpt lat="48.863916" lon="7.196066">
        <ele>340.0</ele>
        <time>2020-07-10T12:14:01Z</time>
      </trkpt>
      <trkpt lat="48.863873" lon="7.196139">
        <ele>341.0</ele>
        <time>2020-07-10T12:14:03Z</time>
      </trkpt>
      <trkpt lat="48.863832" lon="7.196213">
        <ele>342.0</ele>
        <time>2020-07-10T12:14:05Z</time>
      </trkpt>
      <trkpt lat="48.863776" lon="7.196346">
        <ele>343.0</ele>
        <time>2020-07-10T12:14:08Z</time>
      </trkpt>
      <trkpt lat="48.86374" lon="7.196442">
        <ele>344.0</ele>
        <time>2020-07-10T12:14:10Z</time>
      </trkpt>
      <trkpt lat="48.863708" lon="7.196548">
        <ele>344.0</ele>
        <time>2020-07-10T12:14:12Z</time>
      </trkpt>
      <trkpt lat="48.863679" lon="7.196646">
        <ele>344.0</ele>
        <time>2020-07-10T12:14:14Z</time>
      </trkpt>
      <trkpt lat="48.863646" lon="7.196744">
        <ele>344.0</ele>
        <time>2020-07-10T12:14:16Z</time>
      </trkpt>
      <trkpt lat="48.863608" lon="7.196832">
        <ele>344.0</ele>
        <time>2020-07-10T12:14:18Z</time>
      </trkpt>
      <trkpt lat="48.863571" lon="7.19692">
        <ele>344.0</ele>
        <time>2020-07-10T12:14:20Z</time>
      </trkpt>
      <trkpt lat="48.863541" lon="7.197017">
        <ele>344.0</ele>
        <time>2020-07-10T12:14:22Z</time>
      </trkpt>
      <trkpt lat="48.863546" lon="7.197118">
        <ele>344.0</ele>
        <time>2020-07-10T12:14:24Z</time>
      </trkpt>
      <trkpt lat="48.863559" lon="7.197222">
        <ele>344.0</ele>
        <time>2020-07-10T12:14:26Z</time>
      </trkpt>
      <trkpt lat="48.863563" lon="7.197325">
        <ele>344.0</ele>
        <time>2020-07-10T12:14:28Z</time>
      </trkpt>
      <trkpt lat="48.863553" lon="7.19742">
        <ele>344.0</ele>
        <time>2020-07-10T12:14:30Z</time>
      </trkpt>
      <trkpt lat="48.863535" lon="7.197514">
        <ele>344.0</ele>
        <time>2020-07-10T12:14:32Z</time>
      </trkpt>
      <trkpt lat="48.863513" lon="7.197608">
        <ele>344.0</ele>
        <time>2020-07-10T12:14:34Z</time>
      </trkpt>
      <trkpt lat="48.863497" lon="7.197704">
        <ele>345.0</ele>
        <time>2020-07-10T12:14:36Z</time>
      </trkpt>
      <trkpt lat="48.863482" lon="7.197803">
        <ele>345.0</ele>
        <time>2020-07-10T12:14:38Z</time>
      </trkpt>
      <trkpt lat="48.86347" lon="7.197898">
        <ele>345.0</ele>
        <time>2020-07-10T12:14:40Z</time>
      </trkpt>
      <trkpt lat="48.86345" lon="7.197993">
        <ele>345.0</ele>
        <time>2020-07-10T12:14:42Z</time>
      </trkpt>
      <trkpt lat="48.863432" lon="7.19809">
        <ele>344.0</ele>
        <time>2020-07-10T12:14:44Z</time>
      </trkpt>
      <trkpt lat="48.863408" lon="7.198181">
        <ele>344.0</ele>
        <time>2020-07-10T12:14:46Z</time>
      </trkpt>
      <trkpt lat="48.863386" lon="7.19827">
        <ele>345.0</ele>
        <time>2020-07-10T12:14:48Z</time>
      </trkpt>
      <trkpt lat="48.863363" lon="7.19836">
        <ele>345.0</ele>
        <time>2020-07-10T12:14:50Z</time>
      </trkpt>
      <trkpt lat="48.86335" lon="7.198455">
        <ele>345.0</ele>
        <time>2020-07-10T12:14:52Z</time>
      </trkpt>
      <trkpt lat="48.863336" lon="7.198547">
        <ele>346.0</ele>
        <time>2020-07-10T12:14:54Z</time>
      </trkpt>
      <trkpt lat="48.863316" lon="7.198631">
        <ele>346.0</ele>
        <time>2020-07-10T12:14:56Z</time>
      </trkpt>
      <trkpt lat="48.863295" lon="7.198711">
        <ele>346.0</ele>
        <time>2020-07-10T12:14:58Z</time>
      </trkpt>
      <trkpt lat="48.863277" lon="7.198785">
        <ele>347.0</ele>
        <time>2020-07-10T12:15:00Z</time>
      </trkpt>
      <trkpt lat="48.863264" lon="7.198861">
        <ele>347.0</ele>
        <time>2020-07-10T12:15:02Z</time>
      </trkpt>
      <trkpt lat="48.863255" lon="7.198934">
        <ele>347.0</ele>
        <time>2020-07-10T12:15:04Z</time>
      </trkpt>
      <trkpt lat="48.863238" lon="7.199003">
        <ele>347.0</ele>
        <time>2020-07-10T12:15:06Z</time>
      </trkpt>
      <trkpt lat="48.863226" lon="7.19907">
        <ele>347.0</ele>
        <time>2020-07-10T12:15:08Z</time>
      </trkpt>
      <trkpt lat="48.8632" lon="7.199218">
        <ele>348.0</ele>
        <time>2020-07-10T12:15:12Z</time>
      </trkpt>
      <trkpt lat="48.863182" lon="7.199289">
        <ele>348.0</ele>
        <time>2020-07-10T12:15:14Z</time>
      </trkpt>
      <trkpt lat="48.863155" lon="7.199361">
        <ele>349.0</ele>
        <time>2020-07-10T12:15:16Z</time>
      </trkpt>
      <trkpt lat="48.863131" lon="7.199443">
        <ele>349.0</ele>
        <time>2020-07-10T12:15:18Z</time>
      </trkpt>
      <trkpt lat="48.863101" lon="7.19953">
        <ele>349.0</ele>
        <time>2020-07-10T12:15:20Z</time>
      </trkpt>
      <trkpt lat="48.863065" lon="7.199615">
        <ele>349.0</ele>
        <time>2020-07-10T12:15:22Z</time>
      </trkpt>
      <trkpt lat="48.863026" lon="7.199701">
        <ele>349.0</ele>
        <time>2020-07-10T12:15:24Z</time>
      </trkpt>
      <trkpt lat="48.862978" lon="7.199791">
        <ele>350.0</ele>
        <time>2020-07-10T12:15:26Z</time>
      </trkpt>
      <trkpt lat="48.862915" lon="7.199876">
        <ele>349.0</ele>
        <time>2020-07-10T12:15:28Z</time>
      </trkpt>
      <trkpt lat="48.86286" lon="7.199954">
        <ele>350.0</ele>
        <time>2020-07-10T12:15:30Z</time>
      </trkpt>
      <trkpt lat="48.862799" lon="7.200024">
        <ele>350.0</ele>
        <time>2020-07-10T12:15:32Z</time>
      </trkpt>
      <trkpt lat="48.862733" lon="7.200095">
        <ele>350.0</ele>
        <time>2020-07-10T12:15:34Z</time>
      </trkpt>
      <trkpt lat="48.862673" lon="7.200159">
        <ele>351.0</ele>
        <time>2020-07-10T12:15:36Z</time>
      </trkpt>
      <trkpt lat="48.862613" lon="7.200214">
        <ele>351.0</ele>
        <time>2020-07-10T12:15:38Z</time>
      </trkpt>
      <trkpt lat="48.862554" lon="7.200268">
        <ele>351.0</ele>
        <time>2020-07-10T12:15:40Z</time>
      </trkpt>
      <trkpt lat="48.862498" lon="7.200319">
        <ele>351.0</ele>
        <time>2020-07-10T12:15:42Z</time>
      </trkpt>
      <trkpt lat="48.862437" lon="7.200373">
        <ele>351.0</ele>
        <time>2020-07-10T12:15:44Z</time>
      </trkpt>
      <trkpt lat="48.862359" lon="7.200425">
        <ele>351.0</ele>
        <time>2020-07-10T12:15:46Z</time>
      </trkpt>
      <trkpt lat="48.862285" lon="7.200474">
        <ele>352.0</ele>
        <time>2020-07-10T12:15:48Z</time>
      </trkpt>
      <trkpt lat="48.862217" lon="7.200528">
        <ele>352.0</ele>
        <time>2020-07-10T12:15:50Z</time>
      </trkpt>
      <trkpt lat="48.862153" lon="7.200587">
        <ele>352.0</ele>
        <time>2020-07-10T12:15:52Z</time>
      </trkpt>
      <trkpt lat="48.862087" lon="7.200642">
        <ele>353.0</ele>
        <time>2020-07-10T12:15:54Z</time>
      </trkpt>
      <trkpt lat="48.862026" lon="7.200695">
        <ele>353.0</ele>
        <time>2020-07-10T12:15:56Z</time>
      </trkpt>
      <trkpt lat="48.861961" lon="7.200745">
        <ele>353.0</ele>
        <time>2020-07-10T12:15:58Z</time>
      </trkpt>
      <trkpt lat="48.8619" lon="7.200799">
        <ele>353.0</ele>
        <time>2020-07-10T12:16:00Z</time>
      </trkpt>
      <trkpt lat="48.861837" lon="7.200847">
        <ele>353.0</ele>
        <time>2020-07-10T12:16:02Z</time>
      </trkpt>
      <trkpt lat="48.861779" lon="7.200895">
        <ele>353.0</ele>
        <time>2020-07-10T12:16:04Z</time>
      </trkpt>
      <trkpt lat="48.861726" lon="7.200945">
        <ele>354.0</ele>
        <time>2020-07-10T12:16:06Z</time>
      </trkpt>
      <trkpt lat="48.861677" lon="7.200991">
        <ele>354.0</ele>
        <time>2020-07-10T12:16:08Z</time>
      </trkpt>
      <trkpt lat="48.861626" lon="7.201033">
        <ele>354.0</ele>
        <time>2020-07-10T12:16:10Z</time>
      </trkpt>
      <trkpt lat="48.861575" lon="7.201079">
        <ele>354.0</ele>
        <time>2020-07-10T12:16:12Z</time>
      </trkpt>
      <trkpt lat="48.86153" lon="7.201115">
        <ele>354.0</ele>
        <time>2020-07-10T12:16:14Z</time>
      </trkpt>
      <trkpt lat="48.86148" lon="7.201152">
        <ele>354.0</ele>
        <time>2020-07-10T12:16:16Z</time>
      </trkpt>
      <trkpt lat="48.861428" lon="7.201193">
        <ele>355.0</ele>
        <time>2020-07-10T12:16:18Z</time>
      </trkpt>
      <trkpt lat="48.861377" lon="7.201238">
        <ele>355.0</ele>
        <time>2020-07-10T12:16:20Z</time>
      </trkpt>
      <trkpt lat="48.861334" lon="7.201278">
        <ele>355.0</ele>
        <time>2020-07-10T12:16:22Z</time>
      </trkpt>
      <trkpt lat="48.86129" lon="7.201317">
        <ele>355.0</ele>
        <time>2020-07-10T12:16:24Z</time>
      </trkpt>
      <trkpt lat="48.861236" lon="7.201357">
        <ele>355.0</ele>
        <time>2020-07-10T12:16:26Z</time>
      </trkpt>
      <trkpt lat="48.861181" lon="7.201407">
        <ele>356.0</ele>
        <time>2020-07-10T12:16:28Z</time>
      </trkpt>
      <trkpt lat="48.861118" lon="7.20145">
        <ele>356.0</ele>
        <time>2020-07-10T12:16:30Z</time>
      </trkpt>
      <trkpt lat="48.861062" lon="7.201504">
        <ele>355.0</ele>
        <time>2020-07-10T12:16:32Z</time>
      </trkpt>
      <trkpt lat="48.861001" lon="7.201556">
        <ele>354.0</ele>
        <time>2020-07-10T12:16:34Z</time>
      </trkpt>
      <trkpt lat="48.860887" lon="7.201647">
        <ele>354.0</ele>
        <time>2020-07-10T12:16:37Z</time>
      </trkpt>
      <trkpt lat="48.860815" lon="7.201724">
        <ele>354.0</ele>
        <time>2020-07-10T12:16:39Z</time>
      </trkpt>
      <trkpt lat="48.860735" lon="7.201796">
        <ele>354.0</ele>
        <time>2020-07-10T12:16:41Z</time>
      </trkpt>
      <trkpt lat="48.860658" lon="7.201857">
        <ele>354.0</ele>
        <time>2020-07-10T12:16:43Z</time>
      </trkpt>
      <trkpt lat="48.860581" lon="7.201921">
        <ele>354.0</ele>
        <time>2020-07-10T12:16:45Z</time>
      </trkpt>
      <trkpt lat="48.860502" lon="7.201992">
        <ele>354.0</ele>
        <time>2020-07-10T12:16:47Z</time>
      </trkpt>
      <trkpt lat="48.860415" lon="7.202061">
        <ele>354.0</ele>
        <time>2020-07-10T12:16:49Z</time>
      </trkpt>
      <trkpt lat="48.860329" lon="7.202131">
        <ele>354.0</ele>
        <time>2020-07-10T12:16:51Z</time>
      </trkpt>
      <trkpt lat="48.860252" lon="7.202194">
        <ele>355.0</ele>
        <time>2020-07-10T12:16:53Z</time>
      </trkpt>
      <trkpt lat="48.860174" lon="7.202264">
        <ele>354.0</ele>
        <time>2020-07-10T12:16:55Z</time>
      </trkpt>
      <trkpt lat="48.860087" lon="7.202333">
        <ele>355.0</ele>
        <time>2020-07-10T12:16:57Z</time>
      </trkpt>
      <trkpt lat="48.860002" lon="7.202401">
        <ele>355.0</ele>
        <time>2020-07-10T12:16:59Z</time>
      </trkpt>
      <trkpt lat="48.859921" lon="7.202471">
        <ele>355.0</ele>
        <time>2020-07-10T12:17:01Z</time>
      </trkpt>
      <trkpt lat="48.859825" lon="7.202543">
        <ele>355.0</ele>
        <time>2020-07-10T12:17:03Z</time>
      </trkpt>
      <trkpt lat="48.85972" lon="7.202607">
        <ele>355.0</ele>
        <time>2020-07-10T12:17:05Z</time>
      </trkpt>
      <trkpt lat="48.859608" lon="7.20265">
        <ele>355.0</ele>
        <time>2020-07-10T12:17:07Z</time>
      </trkpt>
      <trkpt lat="48.859493" lon="7.202684">
        <ele>355.0</ele>
        <time>2020-07-10T12:17:09Z</time>
      </trkpt>
      <trkpt lat="48.859378" lon="7.202702">
        <ele>355.0</ele>
        <time>2020-07-10T12:17:11Z</time>
      </trkpt>
      <trkpt lat="48.859253" lon="7.202708">
        <ele>354.0</ele>
        <time>2020-07-10T12:17:13Z</time>
      </trkpt>
      <trkpt lat="48.859133" lon="7.202699">
        <ele>354.0</ele>
        <time>2020-07-10T12:17:15Z</time>
      </trkpt>
      <trkpt lat="48.859015" lon="7.202689">
        <ele>354.0</ele>
        <time>2020-07-10T12:17:17Z</time>
      </trkpt>
      <trkpt lat="48.85889" lon="7.202694">
        <ele>353.0</ele>
        <time>2020-07-10T12:17:19Z</time>
      </trkpt>
      <trkpt lat="48.858767" lon="7.202724">
        <ele>353.0</ele>
        <time>2020-07-10T12:17:21Z</time>
      </trkpt>
      <trkpt lat="48.858638" lon="7.202738">
        <ele>352.0</ele>
        <time>2020-07-10T12:17:23Z</time>
      </trkpt>
      <trkpt lat="48.858516" lon="7.202652">
        <ele>351.0</ele>
        <time>2020-07-10T12:17:25Z</time>
      </trkpt>
      <trkpt lat="48.858416" lon="7.20249">
        <ele>351.0</ele>
        <time>2020-07-10T12:17:27Z</time>
      </trkpt>
      <trkpt lat="48.858345" lon="7.202289">
        <ele>350.0</ele>
        <time>2020-07-10T12:17:29Z</time>
      </trkpt>
      <trkpt lat="48.858272" lon="7.202086">
        <ele>350.0</ele>
        <time>2020-07-10T12:17:31Z</time>
      </trkpt>
      <trkpt lat="48.858195" lon="7.201892">
        <ele>350.0</ele>
        <time>2020-07-10T12:17:33Z</time>
      </trkpt>
      <trkpt lat="48.858109" lon="7.201696">
        <ele>349.0</ele>
        <time>2020-07-10T12:17:35Z</time>
      </trkpt>
      <trkpt lat="48.858015" lon="7.201506">
        <ele>349.0</ele>
        <time>2020-07-10T12:17:37Z</time>
      </trkpt>
      <trkpt lat="48.857916" lon="7.201323">
        <ele>348.0</ele>
        <time>2020-07-10T12:17:39Z</time>
      </trkpt>
      <trkpt lat="48.857805" lon="7.201146">
        <ele>348.0</ele>
        <time>2020-07-10T12:17:41Z</time>
      </trkpt>
      <trkpt lat="48.857691" lon="7.200977">
        <ele>348.0</ele>
        <time>2020-07-10T12:17:43Z</time>
      </trkpt>
      <trkpt lat="48.857575" lon="7.20081">
        <ele>347.0</ele>
        <time>2020-07-10T12:17:45Z</time>
      </trkpt>
      <trkpt lat="48.857455" lon="7.20064">
        <ele>347.0</ele>
        <time>2020-07-10T12:17:47Z</time>
      </trkpt>
      <trkpt lat="48.857338" lon="7.200475">
        <ele>346.0</ele>
        <time>2020-07-10T12:17:49Z</time>
      </trkpt>
      <trkpt lat="48.857224" lon="7.200307">
        <ele>346.0</ele>
        <time>2020-07-10T12:17:51Z</time>
      </trkpt>
      <trkpt lat="48.857118" lon="7.200136">
        <ele>345.0</ele>
        <time>2020-07-10T12:17:53Z</time>
      </trkpt>
      <trkpt lat="48.857031" lon="7.199983">
        <ele>344.0</ele>
        <time>2020-07-10T12:17:55Z</time>
      </trkpt>
      <trkpt lat="48.856971" lon="7.199832">
        <ele>344.0</ele>
        <time>2020-07-10T12:17:57Z</time>
      </trkpt>
      <trkpt lat="48.856958" lon="7.199672">
        <ele>344.0</ele>
        <time>2020-07-10T12:17:59Z</time>
      </trkpt>
      <trkpt lat="48.856905" lon="7.199545">
        <ele>344.0</ele>
        <time>2020-07-10T12:18:01Z</time>
      </trkpt>
      <trkpt lat="48.85681" lon="7.199476">
        <ele>344.0</ele>
        <time>2020-07-10T12:18:03Z</time>
      </trkpt>
      <trkpt lat="48.856714" lon="7.199512">
        <ele>344.0</ele>
        <time>2020-07-10T12:18:05Z</time>
      </trkpt>
      <trkpt lat="48.856649" lon="7.199601">
        <ele>343.0</ele>
        <time>2020-07-10T12:18:07Z</time>
      </trkpt>
      <trkpt lat="48.856611" lon="7.199721">
        <ele>343.0</ele>
        <time>2020-07-10T12:18:09Z</time>
      </trkpt>
      <trkpt lat="48.856599" lon="7.19986">
        <ele>343.0</ele>
        <time>2020-07-10T12:18:11Z</time>
      </trkpt>
      <trkpt lat="48.85656" lon="7.199983">
        <ele>344.0</ele>
        <time>2020-07-10T12:18:13Z</time>
      </trkpt>
      <trkpt lat="48.856528" lon="7.20004">
        <ele>344.0</ele>
        <time>2020-07-10T12:18:14Z</time>
      </trkpt>
      <trkpt lat="48.856427" lon="7.200208">
        <ele>344.0</ele>
        <time>2020-07-10T12:18:17Z</time>
      </trkpt>
      <trkpt lat="48.856355" lon="7.200316">
        <ele>344.0</ele>
        <time>2020-07-10T12:18:19Z</time>
      </trkpt>
      <trkpt lat="48.856297" lon="7.200424">
        <ele>344.0</ele>
        <time>2020-07-10T12:18:21Z</time>
      </trkpt>
      <trkpt lat="48.856202" lon="7.200583">
        <ele>344.0</ele>
        <time>2020-07-10T12:18:24Z</time>
      </trkpt>
      <trkpt lat="48.856134" lon="7.200683">
        <ele>344.0</ele>
        <time>2020-07-10T12:18:26Z</time>
      </trkpt>
      <trkpt lat="48.856069" lon="7.200787">
        <ele>344.0</ele>
        <time>2020-07-10T12:18:28Z</time>
      </trkpt>
      <trkpt lat="48.856001" lon="7.200894">
        <ele>343.0</ele>
        <time>2020-07-10T12:18:30Z</time>
      </trkpt>
      <trkpt lat="48.855926" lon="7.200998">
        <ele>343.0</ele>
        <time>2020-07-10T12:18:32Z</time>
      </trkpt>
      <trkpt lat="48.85585" lon="7.201094">
        <ele>343.0</ele>
        <time>2020-07-10T12:18:34Z</time>
      </trkpt>
      <trkpt lat="48.855779" lon="7.201193">
        <ele>343.0</ele>
        <time>2020-07-10T12:18:36Z</time>
      </trkpt>
      <trkpt lat="48.855705" lon="7.201287">
        <ele>343.0</ele>
        <time>2020-07-10T12:18:38Z</time>
      </trkpt>
      <trkpt lat="48.855621" lon="7.201378">
        <ele>344.0</ele>
        <time>2020-07-10T12:18:40Z</time>
      </trkpt>
      <trkpt lat="48.855543" lon="7.201472">
        <ele>343.0</ele>
        <time>2020-07-10T12:18:42Z</time>
      </trkpt>
      <trkpt lat="48.855468" lon="7.201563">
        <ele>344.0</ele>
        <time>2020-07-10T12:18:44Z</time>
      </trkpt>
      <trkpt lat="48.855387" lon="7.201643">
        <ele>344.0</ele>
        <time>2020-07-10T12:18:46Z</time>
      </trkpt>
      <trkpt lat="48.855309" lon="7.201729">
        <ele>344.0</ele>
        <time>2020-07-10T12:18:48Z</time>
      </trkpt>
      <trkpt lat="48.855225" lon="7.201817">
        <ele>344.0</ele>
        <time>2020-07-10T12:18:50Z</time>
      </trkpt>
      <trkpt lat="48.855149" lon="7.201912">
        <ele>344.0</ele>
        <time>2020-07-10T12:18:52Z</time>
      </trkpt>
      <trkpt lat="48.855073" lon="7.202005">
        <ele>344.0</ele>
        <time>2020-07-10T12:18:54Z</time>
      </trkpt>
      <trkpt lat="48.854991" lon="7.202089">
        <ele>345.0</ele>
        <time>2020-07-10T12:18:56Z</time>
      </trkpt>
      <trkpt lat="48.85491" lon="7.202176">
        <ele>345.0</ele>
        <time>2020-07-10T12:18:58Z</time>
      </trkpt>
      <trkpt lat="48.854827" lon="7.202261">
        <ele>345.0</ele>
        <time>2020-07-10T12:19:00Z</time>
      </trkpt>
      <trkpt lat="48.854749" lon="7.202341">
        <ele>345.0</ele>
        <time>2020-07-10T12:19:02Z</time>
      </trkpt>
      <trkpt lat="48.854665" lon="7.202429">
        <ele>345.0</ele>
        <time>2020-07-10T12:19:04Z</time>
      </trkpt>
      <trkpt lat="48.854582" lon="7.202503">
        <ele>345.0</ele>
        <time>2020-07-10T12:19:06Z</time>
      </trkpt>
      <trkpt lat="48.854499" lon="7.20258">
        <ele>345.0</ele>
        <time>2020-07-10T12:19:08Z</time>
      </trkpt>
      <trkpt lat="48.854421" lon="7.202652">
        <ele>345.0</ele>
        <time>2020-07-10T12:19:10Z</time>
      </trkpt>
      <trkpt lat="48.854339" lon="7.202724">
        <ele>345.0</ele>
        <time>2020-07-10T12:19:12Z</time>
      </trkpt>
      <trkpt lat="48.854259" lon="7.202795">
        <ele>345.0</ele>
        <time>2020-07-10T12:19:14Z</time>
      </trkpt>
      <trkpt lat="48.854179" lon="7.202862">
        <ele>345.0</ele>
        <time>2020-07-10T12:19:16Z</time>
      </trkpt>
      <trkpt lat="48.854093" lon="7.202921">
        <ele>345.0</ele>
        <time>2020-07-10T12:19:18Z</time>
      </trkpt>
      <trkpt lat="48.854008" lon="7.202991">
        <ele>346.0</ele>
        <time>2020-07-10T12:19:20Z</time>
      </trkpt>
      <trkpt lat="48.853927" lon="7.20306">
        <ele>346.0</ele>
        <time>2020-07-10T12:19:22Z</time>
      </trkpt>
      <trkpt lat="48.853843" lon="7.203126">
        <ele>346.0</ele>
        <time>2020-07-10T12:19:24Z</time>
      </trkpt>
      <trkpt lat="48.853766" lon="7.203197">
        <ele>346.0</ele>
        <time>2020-07-10T12:19:26Z</time>
      </trkpt>
      <trkpt lat="48.85368" lon="7.203267">
        <ele>346.0</ele>
        <time>2020-07-10T12:19:28Z</time>
      </trkpt>
      <trkpt lat="48.853598" lon="7.20333">
        <ele>346.0</ele>
        <time>2020-07-10T12:19:30Z</time>
      </trkpt>
      <trkpt lat="48.853512" lon="7.20339">
        <ele>346.0</ele>
        <time>2020-07-10T12:19:32Z</time>
      </trkpt>
      <trkpt lat="48.853427" lon="7.203449">
        <ele>347.0</ele>
        <time>2020-07-10T12:19:34Z</time>
      </trkpt>
      <trkpt lat="48.853333" lon="7.203507">
        <ele>347.0</ele>
        <time>2020-07-10T12:19:36Z</time>
      </trkpt>
      <trkpt lat="48.853241" lon="7.203564">
        <ele>347.0</ele>
        <time>2020-07-10T12:19:38Z</time>
      </trkpt>
      <trkpt lat="48.853151" lon="7.203628">
        <ele>347.0</ele>
        <time>2020-07-10T12:19:40Z</time>
      </trkpt>
      <trkpt lat="48.853058" lon="7.203688">
        <ele>347.0</ele>
        <time>2020-07-10T12:19:42Z</time>
      </trkpt>
      <trkpt lat="48.85297" lon="7.203758">
        <ele>346.0</ele>
        <time>2020-07-10T12:19:44Z</time>
      </trkpt>
      <trkpt lat="48.852876" lon="7.20382">
        <ele>346.0</ele>
        <time>2020-07-10T12:19:46Z</time>
      </trkpt>
      <trkpt lat="48.852775" lon="7.203879">
        <ele>346.0</ele>
        <time>2020-07-10T12:19:48Z</time>
      </trkpt>
      <trkpt lat="48.852682" lon="7.203939">
        <ele>346.0</ele>
        <time>2020-07-10T12:19:50Z</time>
      </trkpt>
      <trkpt lat="48.852591" lon="7.203998">
        <ele>346.0</ele>
        <time>2020-07-10T12:19:52Z</time>
      </trkpt>
      <trkpt lat="48.852494" lon="7.204051">
        <ele>346.0</ele>
        <time>2020-07-10T12:19:54Z</time>
      </trkpt>
      <trkpt lat="48.852397" lon="7.204099">
        <ele>346.0</ele>
        <time>2020-07-10T12:19:56Z</time>
      </trkpt>
      <trkpt lat="48.852297" lon="7.204152">
        <ele>346.0</ele>
        <time>2020-07-10T12:19:58Z</time>
      </trkpt>
      <trkpt lat="48.852196" lon="7.204211">
        <ele>346.0</ele>
        <time>2020-07-10T12:20:00Z</time>
      </trkpt>
      <trkpt lat="48.852092" lon="7.204258">
        <ele>346.0</ele>
        <time>2020-07-10T12:20:02Z</time>
      </trkpt>
      <trkpt lat="48.851985" lon="7.204313">
        <ele>346.0</ele>
        <time>2020-07-10T12:20:04Z</time>
      </trkpt>
      <trkpt lat="48.851878" lon="7.204373">
        <ele>346.0</ele>
        <time>2020-07-10T12:20:06Z</time>
      </trkpt>
      <trkpt lat="48.851774" lon="7.20444">
        <ele>346.0</ele>
        <time>2020-07-10T12:20:08Z</time>
      </trkpt>
      <trkpt lat="48.851665" lon="7.204506">
        <ele>346.0</ele>
        <time>2020-07-10T12:20:10Z</time>
      </trkpt>
      <trkpt lat="48.851557" lon="7.20456">
        <ele>346.0</ele>
        <time>2020-07-10T12:20:12Z</time>
      </trkpt>
      <trkpt lat="48.85145" lon="7.20461">
        <ele>346.0</ele>
        <time>2020-07-10T12:20:14Z</time>
      </trkpt>
      <trkpt lat="48.85135" lon="7.204673">
        <ele>345.0</ele>
        <time>2020-07-10T12:20:16Z</time>
      </trkpt>
      <trkpt lat="48.85124" lon="7.204734">
        <ele>345.0</ele>
        <time>2020-07-10T12:20:18Z</time>
      </trkpt>
      <trkpt lat="48.851124" lon="7.2048">
        <ele>345.0</ele>
        <time>2020-07-10T12:20:20Z</time>
      </trkpt>
      <trkpt lat="48.851" lon="7.204872">
        <ele>345.0</ele>
        <time>2020-07-10T12:20:22Z</time>
      </trkpt>
      <trkpt lat="48.850872" lon="7.204941">
        <ele>345.0</ele>
        <time>2020-07-10T12:20:24Z</time>
      </trkpt>
      <trkpt lat="48.850739" lon="7.205008">
        <ele>345.0</ele>
        <time>2020-07-10T12:20:26Z</time>
      </trkpt>
      <trkpt lat="48.850608" lon="7.205076">
        <ele>344.0</ele>
        <time>2020-07-10T12:20:28Z</time>
      </trkpt>
      <trkpt lat="48.850477" lon="7.20515">
        <ele>344.0</ele>
        <time>2020-07-10T12:20:30Z</time>
      </trkpt>
      <trkpt lat="48.850339" lon="7.205235">
        <ele>344.0</ele>
        <time>2020-07-10T12:20:32Z</time>
      </trkpt>
      <trkpt lat="48.850199" lon="7.205317">
        <ele>344.0</ele>
        <time>2020-07-10T12:20:34Z</time>
      </trkpt>
      <trkpt lat="48.850061" lon="7.205389">
        <ele>343.0</ele>
        <time>2020-07-10T12:20:36Z</time>
      </trkpt>
      <trkpt lat="48.849922" lon="7.205462">
        <ele>344.0</ele>
        <time>2020-07-10T12:20:38Z</time>
      </trkpt>
      <trkpt lat="48.849787" lon="7.205545">
        <ele>344.0</ele>
        <time>2020-07-10T12:20:40Z</time>
      </trkpt>
      <trkpt lat="48.849656" lon="7.205625">
        <ele>344.0</ele>
        <time>2020-07-10T12:20:42Z</time>
      </trkpt>
      <trkpt lat="48.849531" lon="7.205712">
        <ele>344.0</ele>
        <time>2020-07-10T12:20:44Z</time>
      </trkpt>
      <trkpt lat="48.849409" lon="7.20579">
        <ele>344.0</ele>
        <time>2020-07-10T12:20:46Z</time>
      </trkpt>
      <trkpt lat="48.849285" lon="7.205862">
        <ele>344.0</ele>
        <time>2020-07-10T12:20:48Z</time>
      </trkpt>
      <trkpt lat="48.849114" lon="7.205974">
        <ele>344.0</ele>
        <time>2020-07-10T12:20:51Z</time>
      </trkpt>
      <trkpt lat="48.849005" lon="7.206049">
        <ele>344.0</ele>
        <time>2020-07-10T12:20:53Z</time>
      </trkpt>
      <trkpt lat="48.848888" lon="7.20611">
        <ele>344.0</ele>
        <time>2020-07-10T12:20:55Z</time>
      </trkpt>
      <trkpt lat="48.848762" lon="7.206168">
        <ele>344.0</ele>
        <time>2020-07-10T12:20:57Z</time>
      </trkpt>
      <trkpt lat="48.848642" lon="7.206219">
        <ele>344.0</ele>
        <time>2020-07-10T12:20:59Z</time>
      </trkpt>
      <trkpt lat="48.848524" lon="7.206288">
        <ele>344.0</ele>
        <time>2020-07-10T12:21:01Z</time>
      </trkpt>
      <trkpt lat="48.848409" lon="7.206353">
        <ele>343.0</ele>
        <time>2020-07-10T12:21:03Z</time>
      </trkpt>
      <trkpt lat="48.848296" lon="7.206422">
        <ele>343.0</ele>
        <time>2020-07-10T12:21:05Z</time>
      </trkpt>
      <trkpt lat="48.848171" lon="7.20649">
        <ele>343.0</ele>
        <time>2020-07-10T12:21:07Z</time>
      </trkpt>
      <trkpt lat="48.848058" lon="7.206552">
        <ele>343.0</ele>
        <time>2020-07-10T12:21:09Z</time>
      </trkpt>
      <trkpt lat="48.847941" lon="7.206617">
        <ele>343.0</ele>
        <time>2020-07-10T12:21:11Z</time>
      </trkpt>
      <trkpt lat="48.847826" lon="7.206684">
        <ele>343.0</ele>
        <time>2020-07-10T12:21:13Z</time>
      </trkpt>
      <trkpt lat="48.847715" lon="7.206744">
        <ele>344.0</ele>
        <time>2020-07-10T12:21:15Z</time>
      </trkpt>
      <trkpt lat="48.847612" lon="7.206791">
        <ele>344.0</ele>
        <time>2020-07-10T12:21:17Z</time>
      </trkpt>
      <trkpt lat="48.847508" lon="7.206837">
        <ele>343.0</ele>
        <time>2020-07-10T12:21:19Z</time>
      </trkpt>
      <trkpt lat="48.847403" lon="7.206891">
        <ele>343.0</ele>
        <time>2020-07-10T12:21:21Z</time>
      </trkpt>
      <trkpt lat="48.847296" lon="7.206929">
        <ele>343.0</ele>
        <time>2020-07-10T12:21:23Z</time>
      </trkpt>
      <trkpt lat="48.847195" lon="7.206963">
        <ele>343.0</ele>
        <time>2020-07-10T12:21:25Z</time>
      </trkpt>
      <trkpt lat="48.847095" lon="7.206996">
        <ele>344.0</ele>
        <time>2020-07-10T12:21:27Z</time>
      </trkpt>
      <trkpt lat="48.847007" lon="7.207029">
        <ele>344.0</ele>
        <time>2020-07-10T12:21:29Z</time>
      </trkpt>
      <trkpt lat="48.846924" lon="7.207065">
        <ele>344.0</ele>
        <time>2020-07-10T12:21:31Z</time>
      </trkpt>
      <trkpt lat="48.846849" lon="7.207099">
        <ele>345.0</ele>
        <time>2020-07-10T12:21:33Z</time>
      </trkpt>
      <trkpt lat="48.846773" lon="7.207129">
        <ele>345.0</ele>
        <time>2020-07-10T12:21:35Z</time>
      </trkpt>
      <trkpt lat="48.846696" lon="7.207166">
        <ele>346.0</ele>
        <time>2020-07-10T12:21:37Z</time>
      </trkpt>
      <trkpt lat="48.846619" lon="7.207196">
        <ele>346.0</ele>
        <time>2020-07-10T12:21:39Z</time>
      </trkpt>
      <trkpt lat="48.846535" lon="7.207213">
        <ele>347.0</ele>
        <time>2020-07-10T12:21:41Z</time>
      </trkpt>
      <trkpt lat="48.846456" lon="7.207241">
        <ele>347.0</ele>
        <time>2020-07-10T12:21:43Z</time>
      </trkpt>
      <trkpt lat="48.846368" lon="7.207279">
        <ele>347.0</ele>
        <time>2020-07-10T12:21:45Z</time>
      </trkpt>
      <trkpt lat="48.846282" lon="7.207315">
        <ele>347.0</ele>
        <time>2020-07-10T12:21:47Z</time>
      </trkpt>
      <trkpt lat="48.846186" lon="7.207352">
        <ele>347.0</ele>
        <time>2020-07-10T12:21:49Z</time>
      </trkpt>
      <trkpt lat="48.84609" lon="7.207391">
        <ele>348.0</ele>
        <time>2020-07-10T12:21:51Z</time>
      </trkpt>
      <trkpt lat="48.845996" lon="7.207423">
        <ele>348.0</ele>
        <time>2020-07-10T12:21:53Z</time>
      </trkpt>
      <trkpt lat="48.845906" lon="7.207453">
        <ele>348.0</ele>
        <time>2020-07-10T12:21:55Z</time>
      </trkpt>
      <trkpt lat="48.845821" lon="7.207497">
        <ele>348.0</ele>
        <time>2020-07-10T12:21:57Z</time>
      </trkpt>
      <trkpt lat="48.845736" lon="7.207534">
        <ele>348.0</ele>
        <time>2020-07-10T12:21:59Z</time>
      </trkpt>
      <trkpt lat="48.84565" lon="7.20757">
        <ele>349.0</ele>
        <time>2020-07-10T12:22:01Z</time>
      </trkpt>
      <trkpt lat="48.845559" lon="7.207603">
        <ele>349.0</ele>
        <time>2020-07-10T12:22:03Z</time>
      </trkpt>
      <trkpt lat="48.845469" lon="7.20763">
        <ele>348.0</ele>
        <time>2020-07-10T12:22:05Z</time>
      </trkpt>
      <trkpt lat="48.845385" lon="7.207662">
        <ele>348.0</ele>
        <time>2020-07-10T12:22:07Z</time>
      </trkpt>
      <trkpt lat="48.845295" lon="7.207696">
        <ele>347.0</ele>
        <time>2020-07-10T12:22:09Z</time>
      </trkpt>
      <trkpt lat="48.845199" lon="7.207724">
        <ele>348.0</ele>
        <time>2020-07-10T12:22:11Z</time>
      </trkpt>
      <trkpt lat="48.845111" lon="7.207742">
        <ele>348.0</ele>
        <time>2020-07-10T12:22:13Z</time>
      </trkpt>
      <trkpt lat="48.845016" lon="7.207767">
        <ele>348.0</ele>
        <time>2020-07-10T12:22:15Z</time>
      </trkpt>
      <trkpt lat="48.844928" lon="7.207807">
        <ele>349.0</ele>
        <time>2020-07-10T12:22:17Z</time>
      </trkpt>
      <trkpt lat="48.844836" lon="7.207841">
        <ele>349.0</ele>
        <time>2020-07-10T12:22:19Z</time>
      </trkpt>
      <trkpt lat="48.844741" lon="7.207871">
        <ele>350.0</ele>
        <time>2020-07-10T12:22:21Z</time>
      </trkpt>
      <trkpt lat="48.844647" lon="7.207913">
        <ele>351.0</ele>
        <time>2020-07-10T12:22:23Z</time>
      </trkpt>
      <trkpt lat="48.844554" lon="7.20795">
        <ele>352.0</ele>
        <time>2020-07-10T12:22:25Z</time>
      </trkpt>
      <trkpt lat="48.844463" lon="7.207992">
        <ele>352.0</ele>
        <time>2020-07-10T12:22:27Z</time>
      </trkpt>
      <trkpt lat="48.84437" lon="7.208036">
        <ele>353.0</ele>
        <time>2020-07-10T12:22:29Z</time>
      </trkpt>
      <trkpt lat="48.844278" lon="7.208077">
        <ele>353.0</ele>
        <time>2020-07-10T12:22:31Z</time>
      </trkpt>
      <trkpt lat="48.844191" lon="7.208151">
        <ele>353.0</ele>
        <time>2020-07-10T12:22:33Z</time>
      </trkpt>
      <trkpt lat="48.844138" lon="7.208289">
        <ele>353.0</ele>
        <time>2020-07-10T12:22:35Z</time>
      </trkpt>
      <trkpt lat="48.844144" lon="7.208443">
        <ele>354.0</ele>
        <time>2020-07-10T12:22:37Z</time>
      </trkpt>
      <trkpt lat="48.844184" lon="7.208565">
        <ele>355.0</ele>
        <time>2020-07-10T12:22:39Z</time>
      </trkpt>
      <trkpt lat="48.844224" lon="7.208678">
        <ele>355.0</ele>
        <time>2020-07-10T12:22:41Z</time>
      </trkpt>
      <trkpt lat="48.844252" lon="7.2088">
        <ele>355.0</ele>
        <time>2020-07-10T12:22:43Z</time>
      </trkpt>
      <trkpt lat="48.844265" lon="7.208923">
        <ele>355.0</ele>
        <time>2020-07-10T12:22:45Z</time>
      </trkpt>
      <trkpt lat="48.844272" lon="7.209058">
        <ele>356.0</ele>
        <time>2020-07-10T12:22:47Z</time>
      </trkpt>
      <trkpt lat="48.844274" lon="7.2092">
        <ele>356.0</ele>
        <time>2020-07-10T12:22:49Z</time>
      </trkpt>
      <trkpt lat="48.844281" lon="7.209335">
        <ele>355.0</ele>
        <time>2020-07-10T12:22:51Z</time>
      </trkpt>
      <trkpt lat="48.844286" lon="7.209463">
        <ele>355.0</ele>
        <time>2020-07-10T12:22:53Z</time>
      </trkpt>
      <trkpt lat="48.844292" lon="7.209594">
        <ele>355.0</ele>
        <time>2020-07-10T12:22:55Z</time>
      </trkpt>
      <trkpt lat="48.844287" lon="7.209725">
        <ele>355.0</ele>
        <time>2020-07-10T12:22:57Z</time>
      </trkpt>
      <trkpt lat="48.84428" lon="7.209859">
        <ele>355.0</ele>
        <time>2020-07-10T12:22:59Z</time>
      </trkpt>
      <trkpt lat="48.844276" lon="7.209984">
        <ele>355.0</ele>
        <time>2020-07-10T12:23:01Z</time>
      </trkpt>
      <trkpt lat="48.844268" lon="7.210113">
        <ele>354.0</ele>
        <time>2020-07-10T12:23:03Z</time>
      </trkpt>
      <trkpt lat="48.844266" lon="7.210239">
        <ele>355.0</ele>
        <time>2020-07-10T12:23:05Z</time>
      </trkpt>
      <trkpt lat="48.844266" lon="7.21036">
        <ele>355.0</ele>
        <time>2020-07-10T12:23:07Z</time>
      </trkpt>
      <trkpt lat="48.844263" lon="7.210477">
        <ele>356.0</ele>
        <time>2020-07-10T12:23:09Z</time>
      </trkpt>
      <trkpt lat="48.844259" lon="7.210588">
        <ele>356.0</ele>
        <time>2020-07-10T12:23:11Z</time>
      </trkpt>
      <trkpt lat="48.844257" lon="7.210687">
        <ele>356.0</ele>
        <time>2020-07-10T12:23:13Z</time>
      </trkpt>
      <trkpt lat="48.844255" lon="7.210836">
        <ele>356.0</ele>
        <time>2020-07-10T12:23:16Z</time>
      </trkpt>
      <trkpt lat="48.844252" lon="7.210887">
        <ele>356.0</ele>
        <time>2020-07-10T12:23:17Z</time>
      </trkpt>
      <trkpt lat="48.844251" lon="7.211036">
        <ele>357.0</ele>
        <time>2020-07-10T12:23:20Z</time>
      </trkpt>
      <trkpt lat="48.844249" lon="7.21114">
        <ele>357.0</ele>
        <time>2020-07-10T12:23:22Z</time>
      </trkpt>
      <trkpt lat="48.84425" lon="7.211244">
        <ele>357.0</ele>
        <time>2020-07-10T12:23:24Z</time>
      </trkpt>
      <trkpt lat="48.844256" lon="7.211349">
        <ele>357.0</ele>
        <time>2020-07-10T12:23:26Z</time>
      </trkpt>
      <trkpt lat="48.844265" lon="7.211458">
        <ele>357.0</ele>
        <time>2020-07-10T12:23:28Z</time>
      </trkpt>
      <trkpt lat="48.844276" lon="7.211563">
        <ele>358.0</ele>
        <time>2020-07-10T12:23:30Z</time>
      </trkpt>
      <trkpt lat="48.84429" lon="7.211664">
        <ele>358.0</ele>
        <time>2020-07-10T12:23:32Z</time>
      </trkpt>
      <trkpt lat="48.844299" lon="7.21177">
        <ele>358.0</ele>
        <time>2020-07-10T12:23:34Z</time>
      </trkpt>
      <trkpt lat="48.844301" lon="7.211871">
        <ele>358.0</ele>
        <time>2020-07-10T12:23:36Z</time>
      </trkpt>
      <trkpt lat="48.844306" lon="7.21199">
        <ele>358.0</ele>
        <time>2020-07-10T12:23:38Z</time>
      </trkpt>
      <trkpt lat="48.844314" lon="7.212098">
        <ele>359.0</ele>
        <time>2020-07-10T12:23:40Z</time>
      </trkpt>
      <trkpt lat="48.844323" lon="7.212209">
        <ele>359.0</ele>
        <time>2020-07-10T12:23:42Z</time>
      </trkpt>
      <trkpt lat="48.84433" lon="7.212311">
        <ele>359.0</ele>
        <time>2020-07-10T12:23:44Z</time>
      </trkpt>
      <trkpt lat="48.844335" lon="7.212414">
        <ele>359.0</ele>
        <time>2020-07-10T12:23:46Z</time>
      </trkpt>
      <trkpt lat="48.844348" lon="7.212522">
        <ele>359.0</ele>
        <time>2020-07-10T12:23:48Z</time>
      </trkpt>
      <trkpt lat="48.844364" lon="7.212631">
        <ele>359.0</ele>
        <time>2020-07-10T12:23:50Z</time>
      </trkpt>
      <trkpt lat="48.844379" lon="7.212741">
        <ele>359.0</ele>
        <time>2020-07-10T12:23:52Z</time>
      </trkpt>
      <trkpt lat="48.844393" lon="7.212847">
        <ele>360.0</ele>
        <time>2020-07-10T12:23:54Z</time>
      </trkpt>
      <trkpt lat="48.844409" lon="7.212955">
        <ele>360.0</ele>
        <time>2020-07-10T12:23:56Z</time>
      </trkpt>
      <trkpt lat="48.844421" lon="7.213057">
        <ele>360.0</ele>
        <time>2020-07-10T12:23:58Z</time>
      </trkpt>
      <trkpt lat="48.844438" lon="7.213155">
        <ele>360.0</ele>
        <time>2020-07-10T12:24:00Z</time>
      </trkpt>
      <trkpt lat="48.844456" lon="7.213253">
        <ele>360.0</ele>
        <time>2020-07-10T12:24:02Z</time>
      </trkpt>
      <trkpt lat="48.844467" lon="7.213345">
        <ele>360.0</ele>
        <time>2020-07-10T12:24:04Z</time>
      </trkpt>
      <trkpt lat="48.844484" lon="7.213444">
        <ele>361.0</ele>
        <time>2020-07-10T12:24:06Z</time>
      </trkpt>
      <trkpt lat="48.8445" lon="7.213549">
        <ele>360.0</ele>
        <time>2020-07-10T12:24:08Z</time>
      </trkpt>
      <trkpt lat="48.844514" lon="7.213649">
        <ele>360.0</ele>
        <time>2020-07-10T12:24:10Z</time>
      </trkpt>
      <trkpt lat="48.844532" lon="7.213746">
        <ele>360.0</ele>
        <time>2020-07-10T12:24:12Z</time>
      </trkpt>
      <trkpt lat="48.844543" lon="7.213849">
        <ele>360.0</ele>
        <time>2020-07-10T12:24:14Z</time>
      </trkpt>
      <trkpt lat="48.844557" lon="7.213955">
        <ele>361.0</ele>
        <time>2020-07-10T12:24:16Z</time>
      </trkpt>
      <trkpt lat="48.844572" lon="7.214055">
        <ele>361.0</ele>
        <time>2020-07-10T12:24:18Z</time>
      </trkpt>
      <trkpt lat="48.844584" lon="7.214151">
        <ele>362.0</ele>
        <time>2020-07-10T12:24:20Z</time>
      </trkpt>
      <trkpt lat="48.844596" lon="7.214252">
        <ele>363.0</ele>
        <time>2020-07-10T12:24:22Z</time>
      </trkpt>
      <trkpt lat="48.844611" lon="7.214344">
        <ele>363.0</ele>
        <time>2020-07-10T12:24:24Z</time>
      </trkpt>
      <trkpt lat="48.844621" lon="7.21444">
        <ele>363.0</ele>
        <time>2020-07-10T12:24:26Z</time>
      </trkpt>
      <trkpt lat="48.844634" lon="7.214536">
        <ele>364.0</ele>
        <time>2020-07-10T12:24:28Z</time>
      </trkpt>
      <trkpt lat="48.844649" lon="7.214631">
        <ele>364.0</ele>
        <time>2020-07-10T12:24:30Z</time>
      </trkpt>
      <trkpt lat="48.844662" lon="7.214728">
        <ele>364.0</ele>
        <time>2020-07-10T12:24:32Z</time>
      </trkpt>
      <trkpt lat="48.844675" lon="7.214828">
        <ele>364.0</ele>
        <time>2020-07-10T12:24:34Z</time>
      </trkpt>
      <trkpt lat="48.844689" lon="7.214928">
        <ele>364.0</ele>
        <time>2020-07-10T12:24:36Z</time>
      </trkpt>
      <trkpt lat="48.844699" lon="7.215027">
        <ele>364.0</ele>
        <time>2020-07-10T12:24:38Z</time>
      </trkpt>
      <trkpt lat="48.8447" lon="7.215133">
        <ele>365.0</ele>
        <time>2020-07-10T12:24:40Z</time>
      </trkpt>
      <trkpt lat="48.844697" lon="7.215231">
        <ele>365.0</ele>
        <time>2020-07-10T12:24:42Z</time>
      </trkpt>
      <trkpt lat="48.8447" lon="7.215324">
        <ele>365.0</ele>
        <time>2020-07-10T12:24:44Z</time>
      </trkpt>
      <trkpt lat="48.844702" lon="7.215419">
        <ele>365.0</ele>
        <time>2020-07-10T12:24:46Z</time>
      </trkpt>
      <trkpt lat="48.844702" lon="7.215511">
        <ele>365.0</ele>
        <time>2020-07-10T12:24:48Z</time>
      </trkpt>
      <trkpt lat="48.8447" lon="7.215614">
        <ele>366.0</ele>
        <time>2020-07-10T12:24:50Z</time>
      </trkpt>
      <trkpt lat="48.844696" lon="7.215715">
        <ele>366.0</ele>
        <time>2020-07-10T12:24:52Z</time>
      </trkpt>
      <trkpt lat="48.844681" lon="7.215813">
        <ele>367.0</ele>
        <time>2020-07-10T12:24:54Z</time>
      </trkpt>
      <trkpt lat="48.844651" lon="7.215905">
        <ele>367.0</ele>
        <time>2020-07-10T12:24:56Z</time>
      </trkpt>
      <trkpt lat="48.844614" lon="7.215986">
        <ele>368.0</ele>
        <time>2020-07-10T12:24:58Z</time>
      </trkpt>
      <trkpt lat="48.844573" lon="7.216063">
        <ele>368.0</ele>
        <time>2020-07-10T12:25:00Z</time>
      </trkpt>
      <trkpt lat="48.844532" lon="7.216134">
        <ele>369.0</ele>
        <time>2020-07-10T12:25:02Z</time>
      </trkpt>
      <trkpt lat="48.844493" lon="7.216208">
        <ele>368.0</ele>
        <time>2020-07-10T12:25:04Z</time>
      </trkpt>
      <trkpt lat="48.844461" lon="7.216294">
        <ele>368.0</ele>
        <time>2020-07-10T12:25:06Z</time>
      </trkpt>
      <trkpt lat="48.844438" lon="7.216382">
        <ele>368.0</ele>
        <time>2020-07-10T12:25:08Z</time>
      </trkpt>
      <trkpt lat="48.844422" lon="7.216476">
        <ele>369.0</ele>
        <time>2020-07-10T12:25:10Z</time>
      </trkpt>
      <trkpt lat="48.844412" lon="7.216573">
        <ele>368.0</ele>
        <time>2020-07-10T12:25:12Z</time>
      </trkpt>
      <trkpt lat="48.844406" lon="7.216676">
        <ele>368.0</ele>
        <time>2020-07-10T12:25:14Z</time>
      </trkpt>
      <trkpt lat="48.844414" lon="7.216778">
        <ele>368.0</ele>
        <time>2020-07-10T12:25:16Z</time>
      </trkpt>
      <trkpt lat="48.844421" lon="7.216874">
        <ele>369.0</ele>
        <time>2020-07-10T12:25:18Z</time>
      </trkpt>
      <trkpt lat="48.844426" lon="7.216973">
        <ele>370.0</ele>
        <time>2020-07-10T12:25:20Z</time>
      </trkpt>
      <trkpt lat="48.844433" lon="7.217065">
        <ele>371.0</ele>
        <time>2020-07-10T12:25:22Z</time>
      </trkpt>
      <trkpt lat="48.844444" lon="7.217158">
        <ele>371.0</ele>
        <time>2020-07-10T12:25:24Z</time>
      </trkpt>
      <trkpt lat="48.844447" lon="7.217251">
        <ele>371.0</ele>
        <time>2020-07-10T12:25:26Z</time>
      </trkpt>
      <trkpt lat="48.844451" lon="7.217335">
        <ele>372.0</ele>
        <time>2020-07-10T12:25:28Z</time>
      </trkpt>
      <trkpt lat="48.844457" lon="7.217424">
        <ele>372.0</ele>
        <time>2020-07-10T12:25:30Z</time>
      </trkpt>
      <trkpt lat="48.844466" lon="7.217516">
        <ele>373.0</ele>
        <time>2020-07-10T12:25:32Z</time>
      </trkpt>
      <trkpt lat="48.844472" lon="7.217609">
        <ele>373.0</ele>
        <time>2020-07-10T12:25:34Z</time>
      </trkpt>
      <trkpt lat="48.844479" lon="7.217697">
        <ele>374.0</ele>
        <time>2020-07-10T12:25:36Z</time>
      </trkpt>
      <trkpt lat="48.844468" lon="7.217783">
        <ele>374.0</ele>
        <time>2020-07-10T12:25:38Z</time>
      </trkpt>
      <trkpt lat="48.844407" lon="7.217884">
        <ele>374.0</ele>
        <time>2020-07-10T12:25:41Z</time>
      </trkpt>
      <trkpt lat="48.844345" lon="7.217918">
        <ele>375.0</ele>
        <time>2020-07-10T12:25:43Z</time>
      </trkpt>
      <trkpt lat="48.844282" lon="7.21793">
        <ele>375.0</ele>
        <time>2020-07-10T12:25:45Z</time>
      </trkpt>
      <trkpt lat="48.844208" lon="7.21793">
        <ele>374.0</ele>
        <time>2020-07-10T12:25:47Z</time>
      </trkpt>
      <trkpt lat="48.844143" lon="7.217929">
        <ele>374.0</ele>
        <time>2020-07-10T12:25:49Z</time>
      </trkpt>
      <trkpt lat="48.844079" lon="7.217932">
        <ele>374.0</ele>
        <time>2020-07-10T12:25:51Z</time>
      </trkpt>
      <trkpt lat="48.844012" lon="7.21794">
        <ele>374.0</ele>
        <time>2020-07-10T12:25:53Z</time>
      </trkpt>
      <trkpt lat="48.843946" lon="7.217948">
        <ele>374.0</ele>
        <time>2020-07-10T12:25:55Z</time>
      </trkpt>
      <trkpt lat="48.843881" lon="7.217954">
        <ele>374.0</ele>
        <time>2020-07-10T12:25:57Z</time>
      </trkpt>
      <trkpt lat="48.843811" lon="7.217952">
        <ele>374.0</ele>
        <time>2020-07-10T12:25:59Z</time>
      </trkpt>
      <trkpt lat="48.843745" lon="7.217961">
        <ele>374.0</ele>
        <time>2020-07-10T12:26:01Z</time>
      </trkpt>
      <trkpt lat="48.843679" lon="7.21797">
        <ele>374.0</ele>
        <time>2020-07-10T12:26:03Z</time>
      </trkpt>
      <trkpt lat="48.843616" lon="7.217992">
        <ele>374.0</ele>
        <time>2020-07-10T12:26:05Z</time>
      </trkpt>
      <trkpt lat="48.843551" lon="7.218014">
        <ele>374.0</ele>
        <time>2020-07-10T12:26:07Z</time>
      </trkpt>
      <trkpt lat="48.843479" lon="7.218033">
        <ele>375.0</ele>
        <time>2020-07-10T12:26:09Z</time>
      </trkpt>
      <trkpt lat="48.843409" lon="7.218066">
        <ele>375.0</ele>
        <time>2020-07-10T12:26:11Z</time>
      </trkpt>
      <trkpt lat="48.843332" lon="7.218111">
        <ele>375.0</ele>
        <time>2020-07-10T12:26:13Z</time>
      </trkpt>
      <trkpt lat="48.84327" lon="7.21816">
        <ele>375.0</ele>
        <time>2020-07-10T12:26:15Z</time>
      </trkpt>
      <trkpt lat="48.843212" lon="7.218195">
        <ele>375.0</ele>
        <time>2020-07-10T12:26:17Z</time>
      </trkpt>
      <trkpt lat="48.84316" lon="7.218224">
        <ele>375.0</ele>
        <time>2020-07-10T12:26:19Z</time>
      </trkpt>
      <trkpt lat="48.843106" lon="7.218259">
        <ele>375.0</ele>
        <time>2020-07-10T12:26:21Z</time>
      </trkpt>
      <trkpt lat="48.843051" lon="7.218299">
        <ele>375.0</ele>
        <time>2020-07-10T12:26:23Z</time>
      </trkpt>
      <trkpt lat="48.842995" lon="7.218341">
        <ele>375.0</ele>
        <time>2020-07-10T12:26:25Z</time>
      </trkpt>
      <trkpt lat="48.84294" lon="7.218385">
        <ele>376.0</ele>
        <time>2020-07-10T12:26:27Z</time>
      </trkpt>
      <trkpt lat="48.842883" lon="7.218429">
        <ele>376.0</ele>
        <time>2020-07-10T12:26:29Z</time>
      </trkpt>
      <trkpt lat="48.842829" lon="7.21849">
        <ele>376.0</ele>
        <time>2020-07-10T12:26:31Z</time>
      </trkpt>
      <trkpt lat="48.842766" lon="7.218545">
        <ele>376.0</ele>
        <time>2020-07-10T12:26:33Z</time>
      </trkpt>
      <trkpt lat="48.842692" lon="7.218609">
        <ele>376.0</ele>
        <time>2020-07-10T12:26:35Z</time>
      </trkpt>
      <trkpt lat="48.84262" lon="7.21867">
        <ele>376.0</ele>
        <time>2020-07-10T12:26:37Z</time>
      </trkpt>
      <trkpt lat="48.842544" lon="7.218731">
        <ele>376.0</ele>
        <time>2020-07-10T12:26:39Z</time>
      </trkpt>
      <trkpt lat="48.842473" lon="7.218792">
        <ele>376.0</ele>
        <time>2020-07-10T12:26:41Z</time>
      </trkpt>
      <trkpt lat="48.842399" lon="7.218859">
        <ele>376.0</ele>
        <time>2020-07-10T12:26:43Z</time>
      </trkpt>
      <trkpt lat="48.842319" lon="7.218918">
        <ele>376.0</ele>
        <time>2020-07-10T12:26:45Z</time>
      </trkpt>
      <trkpt lat="48.842226" lon="7.218994">
        <ele>376.0</ele>
        <time>2020-07-10T12:26:47Z</time>
      </trkpt>
      <trkpt lat="48.842121" lon="7.219075">
        <ele>376.0</ele>
        <time>2020-07-10T12:26:49Z</time>
      </trkpt>
      <trkpt lat="48.842021" lon="7.219162">
        <ele>376.0</ele>
        <time>2020-07-10T12:26:51Z</time>
      </trkpt>
      <trkpt lat="48.841919" lon="7.219254">
        <ele>375.0</ele>
        <time>2020-07-10T12:26:53Z</time>
      </trkpt>
      <trkpt lat="48.84181" lon="7.219352">
        <ele>375.0</ele>
        <time>2020-07-10T12:26:55Z</time>
      </trkpt>
      <trkpt lat="48.841701" lon="7.219448">
        <ele>375.0</ele>
        <time>2020-07-10T12:26:57Z</time>
      </trkpt>
      <trkpt lat="48.841589" lon="7.21955">
        <ele>374.0</ele>
        <time>2020-07-10T12:26:59Z</time>
      </trkpt>
      <trkpt lat="48.841472" lon="7.219655">
        <ele>374.0</ele>
        <time>2020-07-10T12:27:01Z</time>
      </trkpt>
      <trkpt lat="48.841351" lon="7.21976">
        <ele>374.0</ele>
        <time>2020-07-10T12:27:03Z</time>
      </trkpt>
      <trkpt lat="48.841234" lon="7.219869">
        <ele>374.0</ele>
        <time>2020-07-10T12:27:05Z</time>
      </trkpt>
      <trkpt lat="48.841115" lon="7.219971">
        <ele>373.0</ele>
        <time>2020-07-10T12:27:07Z</time>
      </trkpt>
      <trkpt lat="48.840999" lon="7.220066">
        <ele>373.0</ele>
        <time>2020-07-10T12:27:09Z</time>
      </trkpt>
      <trkpt lat="48.840887" lon="7.220161">
        <ele>372.0</ele>
        <time>2020-07-10T12:27:11Z</time>
      </trkpt>
      <trkpt lat="48.840779" lon="7.22027">
        <ele>371.0</ele>
        <time>2020-07-10T12:27:13Z</time>
      </trkpt>
      <trkpt lat="48.840678" lon="7.220388">
        <ele>371.0</ele>
        <time>2020-07-10T12:27:15Z</time>
      </trkpt>
      <trkpt lat="48.840574" lon="7.220514">
        <ele>372.0</ele>
        <time>2020-07-10T12:27:17Z</time>
      </trkpt>
      <trkpt lat="48.840471" lon="7.220632">
        <ele>371.0</ele>
        <time>2020-07-10T12:27:19Z</time>
      </trkpt>
      <trkpt lat="48.840371" lon="7.220768">
        <ele>371.0</ele>
        <time>2020-07-10T12:27:21Z</time>
      </trkpt>
      <trkpt lat="48.840269" lon="7.220919">
        <ele>371.0</ele>
        <time>2020-07-10T12:27:23Z</time>
      </trkpt>
      <trkpt lat="48.840164" lon="7.221062">
        <ele>371.0</ele>
        <time>2020-07-10T12:27:25Z</time>
      </trkpt>
      <trkpt lat="48.84006" lon="7.221206">
        <ele>371.0</ele>
        <time>2020-07-10T12:27:27Z</time>
      </trkpt>
      <trkpt lat="48.839954" lon="7.221348">
        <ele>370.0</ele>
        <time>2020-07-10T12:27:29Z</time>
      </trkpt>
      <trkpt lat="48.839845" lon="7.221493">
        <ele>370.0</ele>
        <time>2020-07-10T12:27:31Z</time>
      </trkpt>
      <trkpt lat="48.839732" lon="7.221634">
        <ele>370.0</ele>
        <time>2020-07-10T12:27:33Z</time>
      </trkpt>
      <trkpt lat="48.839622" lon="7.221791">
        <ele>370.0</ele>
        <time>2020-07-10T12:27:35Z</time>
      </trkpt>
      <trkpt lat="48.839509" lon="7.221937">
        <ele>370.0</ele>
        <time>2020-07-10T12:27:37Z</time>
      </trkpt>
      <trkpt lat="48.839397" lon="7.222085">
        <ele>370.0</ele>
        <time>2020-07-10T12:27:39Z</time>
      </trkpt>
      <trkpt lat="48.839287" lon="7.222235">
        <ele>370.0</ele>
        <time>2020-07-10T12:27:41Z</time>
      </trkpt>
      <trkpt lat="48.839186" lon="7.222376">
        <ele>370.0</ele>
        <time>2020-07-10T12:27:43Z</time>
      </trkpt>
      <trkpt lat="48.839084" lon="7.222513">
        <ele>370.0</ele>
        <time>2020-07-10T12:27:45Z</time>
      </trkpt>
      <trkpt lat="48.838987" lon="7.222638">
        <ele>370.0</ele>
        <time>2020-07-10T12:27:47Z</time>
      </trkpt>
      <trkpt lat="48.838892" lon="7.222764">
        <ele>371.0</ele>
        <time>2020-07-10T12:27:49Z</time>
      </trkpt>
      <trkpt lat="48.838797" lon="7.222882">
        <ele>371.0</ele>
        <time>2020-07-10T12:27:51Z</time>
      </trkpt>
      <trkpt lat="48.838709" lon="7.222986">
        <ele>372.0</ele>
        <time>2020-07-10T12:27:53Z</time>
      </trkpt>
      <trkpt lat="48.838623" lon="7.223084">
        <ele>372.0</ele>
        <time>2020-07-10T12:27:55Z</time>
      </trkpt>
      <trkpt lat="48.838542" lon="7.22316">
        <ele>373.0</ele>
        <time>2020-07-10T12:27:57Z</time>
      </trkpt>
      <trkpt lat="48.838468" lon="7.22323">
        <ele>373.0</ele>
        <time>2020-07-10T12:27:59Z</time>
      </trkpt>
      <trkpt lat="48.838394" lon="7.223299">
        <ele>374.0</ele>
        <time>2020-07-10T12:28:01Z</time>
      </trkpt>
      <trkpt lat="48.838298" lon="7.223389">
        <ele>374.0</ele>
        <time>2020-07-10T12:28:04Z</time>
      </trkpt>
      <trkpt lat="48.838265" lon="7.223419">
        <ele>374.0</ele>
        <time>2020-07-10T12:28:05Z</time>
      </trkpt>
      <trkpt lat="48.838173" lon="7.223508">
        <ele>375.0</ele>
        <time>2020-07-10T12:28:08Z</time>
      </trkpt>
      <trkpt lat="48.838113" lon="7.223562">
        <ele>375.0</ele>
        <time>2020-07-10T12:28:10Z</time>
      </trkpt>
      <trkpt lat="48.838052" lon="7.223616">
        <ele>375.0</ele>
        <time>2020-07-10T12:28:12Z</time>
      </trkpt>
      <trkpt lat="48.837994" lon="7.223669">
        <ele>376.0</ele>
        <time>2020-07-10T12:28:14Z</time>
      </trkpt>
      <trkpt lat="48.83793" lon="7.223732">
        <ele>376.0</ele>
        <time>2020-07-10T12:28:16Z</time>
      </trkpt>
      <trkpt lat="48.837866" lon="7.223792">
        <ele>376.0</ele>
        <time>2020-07-10T12:28:18Z</time>
      </trkpt>
      <trkpt lat="48.837807" lon="7.223855">
        <ele>376.0</ele>
        <time>2020-07-10T12:28:20Z</time>
      </trkpt>
      <trkpt lat="48.837749" lon="7.223918">
        <ele>376.0</ele>
        <time>2020-07-10T12:28:22Z</time>
      </trkpt>
      <trkpt lat="48.83769" lon="7.223976">
        <ele>376.0</ele>
        <time>2020-07-10T12:28:24Z</time>
      </trkpt>
      <trkpt lat="48.837635" lon="7.224043">
        <ele>376.0</ele>
        <time>2020-07-10T12:28:26Z</time>
      </trkpt>
      <trkpt lat="48.837569" lon="7.224099">
        <ele>377.0</ele>
        <time>2020-07-10T12:28:28Z</time>
      </trkpt>
      <trkpt lat="48.837499" lon="7.224162">
        <ele>378.0</ele>
        <time>2020-07-10T12:28:30Z</time>
      </trkpt>
      <trkpt lat="48.837436" lon="7.224232">
        <ele>378.0</ele>
        <time>2020-07-10T12:28:32Z</time>
      </trkpt>
      <trkpt lat="48.837371" lon="7.2243">
        <ele>378.0</ele>
        <time>2020-07-10T12:28:34Z</time>
      </trkpt>
      <trkpt lat="48.837309" lon="7.224369">
        <ele>378.0</ele>
        <time>2020-07-10T12:28:36Z</time>
      </trkpt>
      <trkpt lat="48.837247" lon="7.22444">
        <ele>378.0</ele>
        <time>2020-07-10T12:28:38Z</time>
      </trkpt>
      <trkpt lat="48.837181" lon="7.224518">
        <ele>378.0</ele>
        <time>2020-07-10T12:28:40Z</time>
      </trkpt>
      <trkpt lat="48.83712" lon="7.224596">
        <ele>378.0</ele>
        <time>2020-07-10T12:28:42Z</time>
      </trkpt>
      <trkpt lat="48.837057" lon="7.224674">
        <ele>379.0</ele>
        <time>2020-07-10T12:28:44Z</time>
      </trkpt>
      <trkpt lat="48.836999" lon="7.22475">
        <ele>379.0</ele>
        <time>2020-07-10T12:28:46Z</time>
      </trkpt>
      <trkpt lat="48.836941" lon="7.224828">
        <ele>379.0</ele>
        <time>2020-07-10T12:28:48Z</time>
      </trkpt>
      <trkpt lat="48.83689" lon="7.224903">
        <ele>380.0</ele>
        <time>2020-07-10T12:28:50Z</time>
      </trkpt>
      <trkpt lat="48.836833" lon="7.224982">
        <ele>380.0</ele>
        <time>2020-07-10T12:28:52Z</time>
      </trkpt>
      <trkpt lat="48.836779" lon="7.22507">
        <ele>380.0</ele>
        <time>2020-07-10T12:28:54Z</time>
      </trkpt>
      <trkpt lat="48.836728" lon="7.225161">
        <ele>381.0</ele>
        <time>2020-07-10T12:28:56Z</time>
      </trkpt>
      <trkpt lat="48.83668" lon="7.225249">
        <ele>381.0</ele>
        <time>2020-07-10T12:28:58Z</time>
      </trkpt>
      <trkpt lat="48.836633" lon="7.225342">
        <ele>381.0</ele>
        <time>2020-07-10T12:29:00Z</time>
      </trkpt>
      <trkpt lat="48.836585" lon="7.225429">
        <ele>381.0</ele>
        <time>2020-07-10T12:29:02Z</time>
      </trkpt>
      <trkpt lat="48.83654" lon="7.22551">
        <ele>381.0</ele>
        <time>2020-07-10T12:29:04Z</time>
      </trkpt>
      <trkpt lat="48.836493" lon="7.225595">
        <ele>382.0</ele>
        <time>2020-07-10T12:29:06Z</time>
      </trkpt>
      <trkpt lat="48.836449" lon="7.225684">
        <ele>382.0</ele>
        <time>2020-07-10T12:29:08Z</time>
      </trkpt>
      <trkpt lat="48.836394" lon="7.225765">
        <ele>382.0</ele>
        <time>2020-07-10T12:29:10Z</time>
      </trkpt>
      <trkpt lat="48.836338" lon="7.22585">
        <ele>382.0</ele>
        <time>2020-07-10T12:29:12Z</time>
      </trkpt>
      <trkpt lat="48.836292" lon="7.225932">
        <ele>382.0</ele>
        <time>2020-07-10T12:29:14Z</time>
      </trkpt>
      <trkpt lat="48.83625" lon="7.226013">
        <ele>382.0</ele>
        <time>2020-07-10T12:29:16Z</time>
      </trkpt>
      <trkpt lat="48.836205" lon="7.226104">
        <ele>382.0</ele>
        <time>2020-07-10T12:29:18Z</time>
      </trkpt>
      <trkpt lat="48.836164" lon="7.226186">
        <ele>382.0</ele>
        <time>2020-07-10T12:29:20Z</time>
      </trkpt>
      <trkpt lat="48.836114" lon="7.226274">
        <ele>382.0</ele>
        <time>2020-07-10T12:29:22Z</time>
      </trkpt>
      <trkpt lat="48.836065" lon="7.226359">
        <ele>383.0</ele>
        <time>2020-07-10T12:29:24Z</time>
      </trkpt>
      <trkpt lat="48.836018" lon="7.226439">
        <ele>383.0</ele>
        <time>2020-07-10T12:29:26Z</time>
      </trkpt>
      <trkpt lat="48.835965" lon="7.226526">
        <ele>382.0</ele>
        <time>2020-07-10T12:29:28Z</time>
      </trkpt>
      <trkpt lat="48.835919" lon="7.226612">
        <ele>382.0</ele>
        <time>2020-07-10T12:29:30Z</time>
      </trkpt>
      <trkpt lat="48.835876" lon="7.226696">
        <ele>382.0</ele>
        <time>2020-07-10T12:29:32Z</time>
      </trkpt>
      <trkpt lat="48.83581" lon="7.226818">
        <ele>382.0</ele>
        <time>2020-07-10T12:29:35Z</time>
      </trkpt>
      <trkpt lat="48.835763" lon="7.226911">
        <ele>382.0</ele>
        <time>2020-07-10T12:29:37Z</time>
      </trkpt>
      <trkpt lat="48.835712" lon="7.226996">
        <ele>383.0</ele>
        <time>2020-07-10T12:29:39Z</time>
      </trkpt>
      <trkpt lat="48.835657" lon="7.227082">
        <ele>383.0</ele>
        <time>2020-07-10T12:29:41Z</time>
      </trkpt>
      <trkpt lat="48.83561" lon="7.227166">
        <ele>383.0</ele>
        <time>2020-07-10T12:29:43Z</time>
      </trkpt>
      <trkpt lat="48.83557" lon="7.227251">
        <ele>384.0</ele>
        <time>2020-07-10T12:29:45Z</time>
      </trkpt>
      <trkpt lat="48.835527" lon="7.227328">
        <ele>384.0</ele>
        <time>2020-07-10T12:29:47Z</time>
      </trkpt>
      <trkpt lat="48.835485" lon="7.227405">
        <ele>384.0</ele>
        <time>2020-07-10T12:29:49Z</time>
      </trkpt>
      <trkpt lat="48.835457" lon="7.22746">
        <ele>384.0</ele>
        <time>2020-07-10T12:29:51Z</time>
      </trkpt>
      <trkpt lat="48.835454" lon="7.227471">
        <ele>384.0</ele>
        <time>2020-07-10T12:29:53Z</time>
      </trkpt>
      <trkpt lat="48.835457" lon="7.227464">
        <ele>384.0</ele>
        <time>2020-07-10T12:29:55Z</time>
      </trkpt>
      <trkpt lat="48.835456" lon="7.227463">
        <ele>384.0</ele>
        <time>2020-07-10T12:29:56Z</time>
      </trkpt>
      <trkpt lat="48.835456" lon="7.227463">
        <ele>384.0</ele>
        <time>2020-07-10T12:29:57Z</time>
      </trkpt>
      <trkpt lat="48.835457" lon="7.227462">
        <ele>384.0</ele>
        <time>2020-07-10T12:30:46Z</time>
      </trkpt>
      <trkpt lat="48.835457" lon="7.227462">
        <ele>384.0</ele>
        <time>2020-07-10T12:30:48Z</time>
      </trkpt>
      <trkpt lat="48.835457" lon="7.227462">
        <ele>384.0</ele>
        <time>2020-07-10T12:30:50Z</time>
      </trkpt>
      <trkpt lat="48.835457" lon="7.227462">
        <ele>384.0</ele>
        <time>2020-07-10T12:30:52Z</time>
      </trkpt>
      <trkpt lat="48.835457" lon="7.227462">
        <ele>384.0</ele>
        <time>2020-07-10T12:30:54Z</time>
      </trkpt>
      <trkpt lat="48.835457" lon="7.227462">
        <ele>384.0</ele>
        <time>2020-07-10T12:30:56Z</time>
      </trkpt>
      <trkpt lat="48.835457" lon="7.227462">
        <ele>384.0</ele>
        <time>2020-07-10T12:30:58Z</time>
      </trkpt>
      <trkpt lat="48.835457" lon="7.227462">
        <ele>384.0</ele>
        <time>2020-07-10T12:31:00Z</time>
      </trkpt>
      <trkpt lat="48.835457" lon="7.227462">
        <ele>384.0</ele>
        <time>2020-07-10T12:31:02Z</time>
      </trkpt>
      <trkpt lat="48.835457" lon="7.227462">
        <ele>384.0</ele>
        <time>2020-07-10T12:31:04Z</time>
      </trkpt>
      <trkpt lat="48.835457" lon="7.227462">
        <ele>384.0</ele>
        <time>2020-07-10T12:31:06Z</time>
      </trkpt>
      <trkpt lat="48.835457" lon="7.227462">
        <ele>384.0</ele>
        <time>2020-07-10T12:31:08Z</time>
      </trkpt>
      <trkpt lat="48.83545" lon="7.227486">
        <ele>383.0</ele>
        <time>2020-07-10T12:31:10Z</time>
      </trkpt>
      <trkpt lat="48.835436" lon="7.22752">
        <ele>383.0</ele>
        <time>2020-07-10T12:31:12Z</time>
      </trkpt>
      <trkpt lat="48.835406" lon="7.22758">
        <ele>382.0</ele>
        <time>2020-07-10T12:31:14Z</time>
      </trkpt>
      <trkpt lat="48.835361" lon="7.22766">
        <ele>382.0</ele>
        <time>2020-07-10T12:31:16Z</time>
      </trkpt>
      <trkpt lat="48.835305" lon="7.227759">
        <ele>382.0</ele>
        <time>2020-07-10T12:31:18Z</time>
      </trkpt>
      <trkpt lat="48.835242" lon="7.227847">
        <ele>381.0</ele>
        <time>2020-07-10T12:31:20Z</time>
      </trkpt>
      <trkpt lat="48.835181" lon="7.227941">
        <ele>382.0</ele>
        <time>2020-07-10T12:31:22Z</time>
      </trkpt>
      <trkpt lat="48.835124" lon="7.228059">
        <ele>382.0</ele>
        <time>2020-07-10T12:31:24Z</time>
      </trkpt>
      <trkpt lat="48.835054" lon="7.228176">
        <ele>381.0</ele>
        <time>2020-07-10T12:31:26Z</time>
      </trkpt>
      <trkpt lat="48.834979" lon="7.228308">
        <ele>379.0</ele>
        <time>2020-07-10T12:31:28Z</time>
      </trkpt>
      <trkpt lat="48.834899" lon="7.228449">
        <ele>378.0</ele>
        <time>2020-07-10T12:31:30Z</time>
      </trkpt>
      <trkpt lat="48.834807" lon="7.228597">
        <ele>378.0</ele>
        <time>2020-07-10T12:31:32Z</time>
      </trkpt>
      <trkpt lat="48.834704" lon="7.228777">
        <ele>377.0</ele>
        <time>2020-07-10T12:31:34Z</time>
      </trkpt>
      <trkpt lat="48.834592" lon="7.228977">
        <ele>375.0</ele>
        <time>2020-07-10T12:31:36Z</time>
      </trkpt>
      <trkpt lat="48.83446" lon="7.229199">
        <ele>374.0</ele>
        <time>2020-07-10T12:31:38Z</time>
      </trkpt>
      <trkpt lat="48.834326" lon="7.229435">
        <ele>373.0</ele>
        <time>2020-07-10T12:31:40Z</time>
      </trkpt>
      <trkpt lat="48.83419" lon="7.229677">
        <ele>372.0</ele>
        <time>2020-07-10T12:31:42Z</time>
      </trkpt>
      <trkpt lat="48.834059" lon="7.229908">
        <ele>372.0</ele>
        <time>2020-07-10T12:31:44Z</time>
      </trkpt>
      <trkpt lat="48.833947" lon="7.230115">
        <ele>371.0</ele>
        <time>2020-07-10T12:31:46Z</time>
      </trkpt>
      <trkpt lat="48.833838" lon="7.230312">
        <ele>370.0</ele>
        <time>2020-07-10T12:31:48Z</time>
      </trkpt>
      <trkpt lat="48.833736" lon="7.23051">
        <ele>369.0</ele>
        <time>2020-07-10T12:31:50Z</time>
      </trkpt>
      <trkpt lat="48.833629" lon="7.230701">
        <ele>369.0</ele>
        <time>2020-07-10T12:31:52Z</time>
      </trkpt>
      <trkpt lat="48.833527" lon="7.230894">
        <ele>369.0</ele>
        <time>2020-07-10T12:31:54Z</time>
      </trkpt>
      <trkpt lat="48.833439" lon="7.231093">
        <ele>368.0</ele>
        <time>2020-07-10T12:31:56Z</time>
      </trkpt>
      <trkpt lat="48.833356" lon="7.231273">
        <ele>369.0</ele>
        <time>2020-07-10T12:31:58Z</time>
      </trkpt>
      <trkpt lat="48.833268" lon="7.231449">
        <ele>369.0</ele>
        <time>2020-07-10T12:32:00Z</time>
      </trkpt>
      <trkpt lat="48.833185" lon="7.231624">
        <ele>369.0</ele>
        <time>2020-07-10T12:32:02Z</time>
      </trkpt>
      <trkpt lat="48.833094" lon="7.231781">
        <ele>370.0</ele>
        <time>2020-07-10T12:32:04Z</time>
      </trkpt>
      <trkpt lat="48.83299" lon="7.231925">
        <ele>370.0</ele>
        <time>2020-07-10T12:32:06Z</time>
      </trkpt>
      <trkpt lat="48.832884" lon="7.232056">
        <ele>369.0</ele>
        <time>2020-07-10T12:32:08Z</time>
      </trkpt>
      <trkpt lat="48.832787" lon="7.232185">
        <ele>368.0</ele>
        <time>2020-07-10T12:32:10Z</time>
      </trkpt>
      <trkpt lat="48.83268" lon="7.232311">
        <ele>367.0</ele>
        <time>2020-07-10T12:32:12Z</time>
      </trkpt>
      <trkpt lat="48.832567" lon="7.232424">
        <ele>367.0</ele>
        <time>2020-07-10T12:32:14Z</time>
      </trkpt>
      <trkpt lat="48.832448" lon="7.232536">
        <ele>366.0</ele>
        <time>2020-07-10T12:32:16Z</time>
      </trkpt>
      <trkpt lat="48.832324" lon="7.232662">
        <ele>366.0</ele>
        <time>2020-07-10T12:32:18Z</time>
      </trkpt>
      <trkpt lat="48.83219" lon="7.232784">
        <ele>365.0</ele>
        <time>2020-07-10T12:32:20Z</time>
      </trkpt>
      <trkpt lat="48.832059" lon="7.232916">
        <ele>364.0</ele>
        <time>2020-07-10T12:32:22Z</time>
      </trkpt>
      <trkpt lat="48.831926" lon="7.23305">
        <ele>364.0</ele>
        <time>2020-07-10T12:32:24Z</time>
      </trkpt>
      <trkpt lat="48.831746" lon="7.233255">
        <ele>364.0</ele>
        <time>2020-07-10T12:32:27Z</time>
      </trkpt>
      <trkpt lat="48.831688" lon="7.233319">
        <ele>364.0</ele>
        <time>2020-07-10T12:32:28Z</time>
      </trkpt>
      <trkpt lat="48.831512" lon="7.233509">
        <ele>364.0</ele>
        <time>2020-07-10T12:32:31Z</time>
      </trkpt>
      <trkpt lat="48.831398" lon="7.233626">
        <ele>364.0</ele>
        <time>2020-07-10T12:32:33Z</time>
      </trkpt>
      <trkpt lat="48.831277" lon="7.233751">
        <ele>363.0</ele>
        <time>2020-07-10T12:32:35Z</time>
      </trkpt>
      <trkpt lat="48.831155" lon="7.233868">
        <ele>363.0</ele>
        <time>2020-07-10T12:32:37Z</time>
      </trkpt>
      <trkpt lat="48.83103" lon="7.233985">
        <ele>363.0</ele>
        <time>2020-07-10T12:32:39Z</time>
      </trkpt>
      <trkpt lat="48.830906" lon="7.234107">
        <ele>362.0</ele>
        <time>2020-07-10T12:32:41Z</time>
      </trkpt>
      <trkpt lat="48.830788" lon="7.234222">
        <ele>363.0</ele>
        <time>2020-07-10T12:32:43Z</time>
      </trkpt>
      <trkpt lat="48.830674" lon="7.234346">
        <ele>363.0</ele>
        <time>2020-07-10T12:32:45Z</time>
      </trkpt>
      <trkpt lat="48.830558" lon="7.234457">
        <ele>363.0</ele>
        <time>2020-07-10T12:32:47Z</time>
      </trkpt>
      <trkpt lat="48.830443" lon="7.234569">
        <ele>363.0</ele>
        <time>2020-07-10T12:32:49Z</time>
      </trkpt>
      <trkpt lat="48.830326" lon="7.234673">
        <ele>363.0</ele>
        <time>2020-07-10T12:32:51Z</time>
      </trkpt>
      <trkpt lat="48.830212" lon="7.234769">
        <ele>363.0</ele>
        <time>2020-07-10T12:32:53Z</time>
      </trkpt>
      <trkpt lat="48.8301" lon="7.234874">
        <ele>362.0</ele>
        <time>2020-07-10T12:32:55Z</time>
      </trkpt>
      <trkpt lat="48.829985" lon="7.234981">
        <ele>362.0</ele>
        <time>2020-07-10T12:32:57Z</time>
      </trkpt>
      <trkpt lat="48.829856" lon="7.235063">
        <ele>362.0</ele>
        <time>2020-07-10T12:32:59Z</time>
      </trkpt>
      <trkpt lat="48.829736" lon="7.235149">
        <ele>361.0</ele>
        <time>2020-07-10T12:33:01Z</time>
      </trkpt>
      <trkpt lat="48.829619" lon="7.235251">
        <ele>361.0</ele>
        <time>2020-07-10T12:33:03Z</time>
      </trkpt>
      <trkpt lat="48.829511" lon="7.235372">
        <ele>362.0</ele>
        <time>2020-07-10T12:33:05Z</time>
      </trkpt>
      <trkpt lat="48.829406" lon="7.235452">
        <ele>362.0</ele>
        <time>2020-07-10T12:33:07Z</time>
      </trkpt>
      <trkpt lat="48.829307" lon="7.235501">
        <ele>362.0</ele>
        <time>2020-07-10T12:33:09Z</time>
      </trkpt>
      <trkpt lat="48.829218" lon="7.235592">
        <ele>362.0</ele>
        <time>2020-07-10T12:33:11Z</time>
      </trkpt>
      <trkpt lat="48.829143" lon="7.23572">
        <ele>361.0</ele>
        <time>2020-07-10T12:33:13Z</time>
      </trkpt>
      <trkpt lat="48.829069" lon="7.235847">
        <ele>360.0</ele>
        <time>2020-07-10T12:33:15Z</time>
      </trkpt>
      <trkpt lat="48.828978" lon="7.235985">
        <ele>359.0</ele>
        <time>2020-07-10T12:33:17Z</time>
      </trkpt>
      <trkpt lat="48.828885" lon="7.236136">
        <ele>359.0</ele>
        <time>2020-07-10T12:33:19Z</time>
      </trkpt>
      <trkpt lat="48.828794" lon="7.236272">
        <ele>360.0</ele>
        <time>2020-07-10T12:33:21Z</time>
      </trkpt>
      <trkpt lat="48.82871" lon="7.236416">
        <ele>359.0</ele>
        <time>2020-07-10T12:33:23Z</time>
      </trkpt>
      <trkpt lat="48.828611" lon="7.23657">
        <ele>358.0</ele>
        <time>2020-07-10T12:33:25Z</time>
      </trkpt>
      <trkpt lat="48.828503" lon="7.236732">
        <ele>358.0</ele>
        <time>2020-07-10T12:33:27Z</time>
      </trkpt>
      <trkpt lat="48.828396" lon="7.236893">
        <ele>358.0</ele>
        <time>2020-07-10T12:33:29Z</time>
      </trkpt>
      <trkpt lat="48.828268" lon="7.237036">
        <ele>356.0</ele>
        <time>2020-07-10T12:33:31Z</time>
      </trkpt>
      <trkpt lat="48.828146" lon="7.237181">
        <ele>355.0</ele>
        <time>2020-07-10T12:33:33Z</time>
      </trkpt>
      <trkpt lat="48.828026" lon="7.237332">
        <ele>355.0</ele>
        <time>2020-07-10T12:33:35Z</time>
      </trkpt>
      <trkpt lat="48.827904" lon="7.237486">
        <ele>355.0</ele>
        <time>2020-07-10T12:33:37Z</time>
      </trkpt>
      <trkpt lat="48.827776" lon="7.237631">
        <ele>354.0</ele>
        <time>2020-07-10T12:33:39Z</time>
      </trkpt>
      <trkpt lat="48.827642" lon="7.237768">
        <ele>353.0</ele>
        <time>2020-07-10T12:33:41Z</time>
      </trkpt>
      <trkpt lat="48.827512" lon="7.237902">
        <ele>353.0</ele>
        <time>2020-07-10T12:33:43Z</time>
      </trkpt>
      <trkpt lat="48.827367" lon="7.23803">
        <ele>351.0</ele>
        <time>2020-07-10T12:33:45Z</time>
      </trkpt>
      <trkpt lat="48.827218" lon="7.238162">
        <ele>350.0</ele>
        <time>2020-07-10T12:33:47Z</time>
      </trkpt>
      <trkpt lat="48.827064" lon="7.238285">
        <ele>349.0</ele>
        <time>2020-07-10T12:33:49Z</time>
      </trkpt>
      <trkpt lat="48.826914" lon="7.238397">
        <ele>348.0</ele>
        <time>2020-07-10T12:33:51Z</time>
      </trkpt>
      <trkpt lat="48.826768" lon="7.238508">
        <ele>347.0</ele>
        <time>2020-07-10T12:33:53Z</time>
      </trkpt>
      <trkpt lat="48.826617" lon="7.2386">
        <ele>347.0</ele>
        <time>2020-07-10T12:33:55Z</time>
      </trkpt>
      <trkpt lat="48.826459" lon="7.238679">
        <ele>346.0</ele>
        <time>2020-07-10T12:33:57Z</time>
      </trkpt>
      <trkpt lat="48.826301" lon="7.238755">
        <ele>346.0</ele>
        <time>2020-07-10T12:33:59Z</time>
      </trkpt>
      <trkpt lat="48.826142" lon="7.238834">
        <ele>345.0</ele>
        <time>2020-07-10T12:34:01Z</time>
      </trkpt>
      <trkpt lat="48.825972" lon="7.238908">
        <ele>344.0</ele>
        <time>2020-07-10T12:34:03Z</time>
      </trkpt>
      <trkpt lat="48.825797" lon="7.238969">
        <ele>344.0</ele>
        <time>2020-07-10T12:34:05Z</time>
      </trkpt>
      <trkpt lat="48.825619" lon="7.239022">
        <ele>343.0</ele>
        <time>2020-07-10T12:34:07Z</time>
      </trkpt>
      <trkpt lat="48.825434" lon="7.239074">
        <ele>342.0</ele>
        <time>2020-07-10T12:34:09Z</time>
      </trkpt>
      <trkpt lat="48.825233" lon="7.239093">
        <ele>341.0</ele>
        <time>2020-07-10T12:34:11Z</time>
      </trkpt>
      <trkpt lat="48.82503" lon="7.239086">
        <ele>339.0</ele>
        <time>2020-07-10T12:34:13Z</time>
      </trkpt>
      <trkpt lat="48.824819" lon="7.239067">
        <ele>339.0</ele>
        <time>2020-07-10T12:34:15Z</time>
      </trkpt>
      <trkpt lat="48.824607" lon="7.239014">
        <ele>338.0</ele>
        <time>2020-07-10T12:34:17Z</time>
      </trkpt>
      <trkpt lat="48.824398" lon="7.23895">
        <ele>336.0</ele>
        <time>2020-07-10T12:34:19Z</time>
      </trkpt>
      <trkpt lat="48.824185" lon="7.238875">
        <ele>335.0</ele>
        <time>2020-07-10T12:34:21Z</time>
      </trkpt>
      <trkpt lat="48.823973" lon="7.238795">
        <ele>332.0</ele>
        <time>2020-07-10T12:34:23Z</time>
      </trkpt>
      <trkpt lat="48.82377" lon="7.238691">
        <ele>331.0</ele>
        <time>2020-07-10T12:34:25Z</time>
      </trkpt>
      <trkpt lat="48.823569" lon="7.238599">
        <ele>330.0</ele>
        <time>2020-07-10T12:34:27Z</time>
      </trkpt>
      <trkpt lat="48.823369" lon="7.238513">
        <ele>328.0</ele>
        <time>2020-07-10T12:34:29Z</time>
      </trkpt>
      <trkpt lat="48.823183" lon="7.238439">
        <ele>327.0</ele>
        <time>2020-07-10T12:34:31Z</time>
      </trkpt>
      <trkpt lat="48.823012" lon="7.238379">
        <ele>326.0</ele>
        <time>2020-07-10T12:34:33Z</time>
      </trkpt>
      <trkpt lat="48.822838" lon="7.238314">
        <ele>326.0</ele>
        <time>2020-07-10T12:34:35Z</time>
      </trkpt>
      <trkpt lat="48.822663" lon="7.238247">
        <ele>325.0</ele>
        <time>2020-07-10T12:34:37Z</time>
      </trkpt>
      <trkpt lat="48.822489" lon="7.238191">
        <ele>325.0</ele>
        <time>2020-07-10T12:34:39Z</time>
      </trkpt>
      <trkpt lat="48.822308" lon="7.238164">
        <ele>324.0</ele>
        <time>2020-07-10T12:34:41Z</time>
      </trkpt>
      <trkpt lat="48.822109" lon="7.238173">
        <ele>324.0</ele>
        <time>2020-07-10T12:34:43Z</time>
      </trkpt>
      <trkpt lat="48.821896" lon="7.238243">
        <ele>322.0</ele>
        <time>2020-07-10T12:34:45Z</time>
      </trkpt>
      <trkpt lat="48.821689" lon="7.238338">
        <ele>322.0</ele>
        <time>2020-07-10T12:34:47Z</time>
      </trkpt>
      <trkpt lat="48.821475" lon="7.238471">
        <ele>321.0</ele>
        <time>2020-07-10T12:34:49Z</time>
      </trkpt>
      <trkpt lat="48.821264" lon="7.23866">
        <ele>318.0</ele>
        <time>2020-07-10T12:34:51Z</time>
      </trkpt>
      <trkpt lat="48.821084" lon="7.238873">
        <ele>315.0</ele>
        <time>2020-07-10T12:34:53Z</time>
      </trkpt>
      <trkpt lat="48.820889" lon="7.239122">
        <ele>313.0</ele>
        <time>2020-07-10T12:34:55Z</time>
      </trkpt>
      <trkpt lat="48.820639" lon="7.23949">
        <ele>310.0</ele>
        <time>2020-07-10T12:34:58Z</time>
      </trkpt>
      <trkpt lat="48.820453" lon="7.239723">
        <ele>308.0</ele>
        <time>2020-07-10T12:35:00Z</time>
      </trkpt>
      <trkpt lat="48.820277" lon="7.23997">
        <ele>307.0</ele>
        <time>2020-07-10T12:35:02Z</time>
      </trkpt>
      <trkpt lat="48.820105" lon="7.2402">
        <ele>306.0</ele>
        <time>2020-07-10T12:35:04Z</time>
      </trkpt>
      <trkpt lat="48.819957" lon="7.240411">
        <ele>306.0</ele>
        <time>2020-07-10T12:35:06Z</time>
      </trkpt>
      <trkpt lat="48.819813" lon="7.240606">
        <ele>306.0</ele>
        <time>2020-07-10T12:35:08Z</time>
      </trkpt>
      <trkpt lat="48.819646" lon="7.240814">
        <ele>305.0</ele>
        <time>2020-07-10T12:35:10Z</time>
      </trkpt>
      <trkpt lat="48.819481" lon="7.241031">
        <ele>304.0</ele>
        <time>2020-07-10T12:35:12Z</time>
      </trkpt>
      <trkpt lat="48.819282" lon="7.241234">
        <ele>302.0</ele>
        <time>2020-07-10T12:35:14Z</time>
      </trkpt>
      <trkpt lat="48.819093" lon="7.24143">
        <ele>300.0</ele>
        <time>2020-07-10T12:35:16Z</time>
      </trkpt>
      <trkpt lat="48.818921" lon="7.241646">
        <ele>298.0</ele>
        <time>2020-07-10T12:35:18Z</time>
      </trkpt>
      <trkpt lat="48.818763" lon="7.24187">
        <ele>296.0</ele>
        <time>2020-07-10T12:35:20Z</time>
      </trkpt>
      <trkpt lat="48.818602" lon="7.242112">
        <ele>294.0</ele>
        <time>2020-07-10T12:35:22Z</time>
      </trkpt>
      <trkpt lat="48.818436" lon="7.242365">
        <ele>293.0</ele>
        <time>2020-07-10T12:35:24Z</time>
      </trkpt>
      <trkpt lat="48.818287" lon="7.242596">
        <ele>292.0</ele>
        <time>2020-07-10T12:35:26Z</time>
      </trkpt>
      <trkpt lat="48.818167" lon="7.242818">
        <ele>290.0</ele>
        <time>2020-07-10T12:35:28Z</time>
      </trkpt>
      <trkpt lat="48.818032" lon="7.243031">
        <ele>290.0</ele>
        <time>2020-07-10T12:35:30Z</time>
      </trkpt>
      <trkpt lat="48.817911" lon="7.243248">
        <ele>289.0</ele>
        <time>2020-07-10T12:35:32Z</time>
      </trkpt>
      <trkpt lat="48.817802" lon="7.243473">
        <ele>288.0</ele>
        <time>2020-07-10T12:35:34Z</time>
      </trkpt>
      <trkpt lat="48.817687" lon="7.243718">
        <ele>288.0</ele>
        <time>2020-07-10T12:35:36Z</time>
      </trkpt>
      <trkpt lat="48.817575" lon="7.243982">
        <ele>287.0</ele>
        <time>2020-07-10T12:35:38Z</time>
      </trkpt>
      <trkpt lat="48.817474" lon="7.244245">
        <ele>288.0</ele>
        <time>2020-07-10T12:35:40Z</time>
      </trkpt>
      <trkpt lat="48.817384" lon="7.244537">
        <ele>286.0</ele>
        <time>2020-07-10T12:35:42Z</time>
      </trkpt>
      <trkpt lat="48.817299" lon="7.244837">
        <ele>283.0</ele>
        <time>2020-07-10T12:35:44Z</time>
      </trkpt>
      <trkpt lat="48.81722" lon="7.245133">
        <ele>281.0</ele>
        <time>2020-07-10T12:35:46Z</time>
      </trkpt>
      <trkpt lat="48.817146" lon="7.245451">
        <ele>279.0</ele>
        <time>2020-07-10T12:35:48Z</time>
      </trkpt>
      <trkpt lat="48.817089" lon="7.245761">
        <ele>277.0</ele>
        <time>2020-07-10T12:35:50Z</time>
      </trkpt>
      <trkpt lat="48.817035" lon="7.246083">
        <ele>275.0</ele>
        <time>2020-07-10T12:35:52Z</time>
      </trkpt>
      <trkpt lat="48.816986" lon="7.246368">
        <ele>274.0</ele>
        <time>2020-07-10T12:35:54Z</time>
      </trkpt>
      <trkpt lat="48.816953" lon="7.246648">
        <ele>273.0</ele>
        <time>2020-07-10T12:35:56Z</time>
      </trkpt>
      <trkpt lat="48.816923" lon="7.246922">
        <ele>273.0</ele>
        <time>2020-07-10T12:35:58Z</time>
      </trkpt>
      <trkpt lat="48.816903" lon="7.247206">
        <ele>272.0</ele>
        <time>2020-07-10T12:36:00Z</time>
      </trkpt>
      <trkpt lat="48.816921" lon="7.247512">
        <ele>269.0</ele>
        <time>2020-07-10T12:36:02Z</time>
      </trkpt>
      <trkpt lat="48.816973" lon="7.247784">
        <ele>267.0</ele>
        <time>2020-07-10T12:36:04Z</time>
      </trkpt>
      <trkpt lat="48.817003" lon="7.247997">
        <ele>266.0</ele>
        <time>2020-07-10T12:36:06Z</time>
      </trkpt>
      <trkpt lat="48.817027" lon="7.248174">
        <ele>265.0</ele>
        <time>2020-07-10T12:36:08Z</time>
      </trkpt>
      <trkpt lat="48.817073" lon="7.248342">
        <ele>264.0</ele>
        <time>2020-07-10T12:36:10Z</time>
      </trkpt>
      <trkpt lat="48.81712" lon="7.248469">
        <ele>262.0</ele>
        <time>2020-07-10T12:36:12Z</time>
      </trkpt>
      <trkpt lat="48.817162" lon="7.248576">
        <ele>262.0</ele>
        <time>2020-07-10T12:36:14Z</time>
      </trkpt>
      <trkpt lat="48.817141" lon="7.248636">
        <ele>262.0</ele>
        <time>2020-07-10T12:36:16Z</time>
      </trkpt>
      <trkpt lat="48.817083" lon="7.248601">
        <ele>261.0</ele>
        <time>2020-07-10T12:36:18Z</time>
      </trkpt>
      <trkpt lat="48.81705" lon="7.248488">
        <ele>261.0</ele>
        <time>2020-07-10T12:36:20Z</time>
      </trkpt>
      <trkpt lat="48.817023" lon="7.248389">
        <ele>261.0</ele>
        <time>2020-07-10T12:36:22Z</time>
      </trkpt>
      <trkpt lat="48.816983" lon="7.248291">
        <ele>260.0</ele>
        <time>2020-07-10T12:36:24Z</time>
      </trkpt>
      <trkpt lat="48.816931" lon="7.248181">
        <ele>259.0</ele>
        <time>2020-07-10T12:36:26Z</time>
      </trkpt>
      <trkpt lat="48.816883" lon="7.248048">
        <ele>259.0</ele>
        <time>2020-07-10T12:36:28Z</time>
      </trkpt>
      <trkpt lat="48.816829" lon="7.247929">
        <ele>259.0</ele>
        <time>2020-07-10T12:36:30Z</time>
      </trkpt>
      <trkpt lat="48.816771" lon="7.247807">
        <ele>259.0</ele>
        <time>2020-07-10T12:36:32Z</time>
      </trkpt>
      <trkpt lat="48.816706" lon="7.24769">
        <ele>259.0</ele>
        <time>2020-07-10T12:36:34Z</time>
      </trkpt>
      <trkpt lat="48.816633" lon="7.247576">
        <ele>259.0</ele>
        <time>2020-07-10T12:36:36Z</time>
      </trkpt>
      <trkpt lat="48.816559" lon="7.247463">
        <ele>258.0</ele>
        <time>2020-07-10T12:36:38Z</time>
      </trkpt>
      <trkpt lat="48.816472" lon="7.247357">
        <ele>259.0</ele>
        <time>2020-07-10T12:36:40Z</time>
      </trkpt>
      <trkpt lat="48.816383" lon="7.247275">
        <ele>259.0</ele>
        <time>2020-07-10T12:36:42Z</time>
      </trkpt>
      <trkpt lat="48.816286" lon="7.247226">
        <ele>259.0</ele>
        <time>2020-07-10T12:36:44Z</time>
      </trkpt>
      <trkpt lat="48.816181" lon="7.247195">
        <ele>259.0</ele>
        <time>2020-07-10T12:36:46Z</time>
      </trkpt>
      <trkpt lat="48.816076" lon="7.24717">
        <ele>259.0</ele>
        <time>2020-07-10T12:36:48Z</time>
      </trkpt>
      <trkpt lat="48.815969" lon="7.247159">
        <ele>258.0</ele>
        <time>2020-07-10T12:36:50Z</time>
      </trkpt>
      <trkpt lat="48.815864" lon="7.247144">
        <ele>258.0</ele>
        <time>2020-07-10T12:36:52Z</time>
      </trkpt>
      <trkpt lat="48.815748" lon="7.247117">
        <ele>259.0</ele>
        <time>2020-07-10T12:36:54Z</time>
      </trkpt>
      <trkpt lat="48.815636" lon="7.247074">
        <ele>259.0</ele>
        <time>2020-07-10T12:36:56Z</time>
      </trkpt>
      <trkpt lat="48.815527" lon="7.247021">
        <ele>259.0</ele>
        <time>2020-07-10T12:36:58Z</time>
      </trkpt>
      <trkpt lat="48.815414" lon="7.246962">
        <ele>259.0</ele>
        <time>2020-07-10T12:37:00Z</time>
      </trkpt>
      <trkpt lat="48.815308" lon="7.246903">
        <ele>260.0</ele>
        <time>2020-07-10T12:37:02Z</time>
      </trkpt>
      <trkpt lat="48.815204" lon="7.246841">
        <ele>260.0</ele>
        <time>2020-07-10T12:37:04Z</time>
      </trkpt>
      <trkpt lat="48.815102" lon="7.246785">
        <ele>261.0</ele>
        <time>2020-07-10T12:37:06Z</time>
      </trkpt>
      <trkpt lat="48.815002" lon="7.246743">
        <ele>261.0</ele>
        <time>2020-07-10T12:37:08Z</time>
      </trkpt>
      <trkpt lat="48.814906" lon="7.246711">
        <ele>261.0</ele>
        <time>2020-07-10T12:37:10Z</time>
      </trkpt>
      <trkpt lat="48.814803" lon="7.246681">
        <ele>260.0</ele>
        <time>2020-07-10T12:37:12Z</time>
      </trkpt>
      <trkpt lat="48.81472" lon="7.246649">
        <ele>259.0</ele>
        <time>2020-07-10T12:37:14Z</time>
      </trkpt>
      <trkpt lat="48.814636" lon="7.246597">
        <ele>259.0</ele>
        <time>2020-07-10T12:37:16Z</time>
      </trkpt>
      <trkpt lat="48.814546" lon="7.246547">
        <ele>257.0</ele>
        <time>2020-07-10T12:37:18Z</time>
      </trkpt>
      <trkpt lat="48.814468" lon="7.246494">
        <ele>257.0</ele>
        <time>2020-07-10T12:37:20Z</time>
      </trkpt>
      <trkpt lat="48.814388" lon="7.246436">
        <ele>257.0</ele>
        <time>2020-07-10T12:37:22Z</time>
      </trkpt>
      <trkpt lat="48.814307" lon="7.246365">
        <ele>256.0</ele>
        <time>2020-07-10T12:37:24Z</time>
      </trkpt>
      <trkpt lat="48.814219" lon="7.246282">
        <ele>257.0</ele>
        <time>2020-07-10T12:37:26Z</time>
      </trkpt>
      <trkpt lat="48.814117" lon="7.24618">
        <ele>260.0</ele>
        <time>2020-07-10T12:37:28Z</time>
      </trkpt>
      <trkpt lat="48.814037" lon="7.246093">
        <ele>261.0</ele>
        <time>2020-07-10T12:37:30Z</time>
      </trkpt>
      <trkpt lat="48.813922" lon="7.245961">
        <ele>262.0</ele>
        <time>2020-07-10T12:37:33Z</time>
      </trkpt>
      <trkpt lat="48.813843" lon="7.245869">
        <ele>263.0</ele>
        <time>2020-07-10T12:37:35Z</time>
      </trkpt>
      <trkpt lat="48.813763" lon="7.245781">
        <ele>262.0</ele>
        <time>2020-07-10T12:37:37Z</time>
      </trkpt>
      <trkpt lat="48.813673" lon="7.245689">
        <ele>262.0</ele>
        <time>2020-07-10T12:37:39Z</time>
      </trkpt>
      <trkpt lat="48.813582" lon="7.245622">
        <ele>262.0</ele>
        <time>2020-07-10T12:37:41Z</time>
      </trkpt>
      <trkpt lat="48.813488" lon="7.245555">
        <ele>261.0</ele>
        <time>2020-07-10T12:37:43Z</time>
      </trkpt>
      <trkpt lat="48.813394" lon="7.245471">
        <ele>260.0</ele>
        <time>2020-07-10T12:37:45Z</time>
      </trkpt>
      <trkpt lat="48.813296" lon="7.245393">
        <ele>260.0</ele>
        <time>2020-07-10T12:37:47Z</time>
      </trkpt>
      <trkpt lat="48.813205" lon="7.245322">
        <ele>260.0</ele>
        <time>2020-07-10T12:37:49Z</time>
      </trkpt>
      <trkpt lat="48.813117" lon="7.245231">
        <ele>260.0</ele>
        <time>2020-07-10T12:37:51Z</time>
      </trkpt>
      <trkpt lat="48.813033" lon="7.245137">
        <ele>261.0</ele>
        <time>2020-07-10T12:37:53Z</time>
      </trkpt>
      <trkpt lat="48.812944" lon="7.245064">
        <ele>261.0</ele>
        <time>2020-07-10T12:37:55Z</time>
      </trkpt>
      <trkpt lat="48.812863" lon="7.244976">
        <ele>261.0</ele>
        <time>2020-07-10T12:37:57Z</time>
      </trkpt>
      <trkpt lat="48.812778" lon="7.244892">
        <ele>261.0</ele>
        <time>2020-07-10T12:37:59Z</time>
      </trkpt>
      <trkpt lat="48.812697" lon="7.244814">
        <ele>260.0</ele>
        <time>2020-07-10T12:38:01Z</time>
      </trkpt>
      <trkpt lat="48.812604" lon="7.244736">
        <ele>260.0</ele>
        <time>2020-07-10T12:38:03Z</time>
      </trkpt>
      <trkpt lat="48.812516" lon="7.244661">
        <ele>259.0</ele>
        <time>2020-07-10T12:38:05Z</time>
      </trkpt>
      <trkpt lat="48.812424" lon="7.244594">
        <ele>259.0</ele>
        <time>2020-07-10T12:38:07Z</time>
      </trkpt>
      <trkpt lat="48.812338" lon="7.244526">
        <ele>259.0</ele>
        <time>2020-07-10T12:38:09Z</time>
      </trkpt>
      <trkpt lat="48.812254" lon="7.244462">
        <ele>260.0</ele>
        <time>2020-07-10T12:38:11Z</time>
      </trkpt>
      <trkpt lat="48.812172" lon="7.244399">
        <ele>260.0</ele>
        <time>2020-07-10T12:38:13Z</time>
      </trkpt>
      <trkpt lat="48.812106" lon="7.244317">
        <ele>259.0</ele>
        <time>2020-07-10T12:38:15Z</time>
      </trkpt>
      <trkpt lat="48.812034" lon="7.244248">
        <ele>260.0</ele>
        <time>2020-07-10T12:38:17Z</time>
      </trkpt>
      <trkpt lat="48.811971" lon="7.244175">
        <ele>261.0</ele>
        <time>2020-07-10T12:38:19Z</time>
      </trkpt>
      <trkpt lat="48.811902" lon="7.24409">
        <ele>261.0</ele>
        <time>2020-07-10T12:38:21Z</time>
      </trkpt>
      <trkpt lat="48.811829" lon="7.243984">
        <ele>261.0</ele>
        <time>2020-07-10T12:38:23Z</time>
      </trkpt>
      <trkpt lat="48.811759" lon="7.243892">
        <ele>262.0</ele>
        <time>2020-07-10T12:38:25Z</time>
      </trkpt>
      <trkpt lat="48.811693" lon="7.243798">
        <ele>261.0</ele>
        <time>2020-07-10T12:38:27Z</time>
      </trkpt>
      <trkpt lat="48.811629" lon="7.243693">
        <ele>261.0</ele>
        <time>2020-07-10T12:38:29Z</time>
      </trkpt>
      <trkpt lat="48.811565" lon="7.24358">
        <ele>261.0</ele>
        <time>2020-07-10T12:38:31Z</time>
      </trkpt>
      <trkpt lat="48.811493" lon="7.24346">
        <ele>260.0</ele>
        <time>2020-07-10T12:38:33Z</time>
      </trkpt>
      <trkpt lat="48.811432" lon="7.243325">
        <ele>260.0</ele>
        <time>2020-07-10T12:38:35Z</time>
      </trkpt>
      <trkpt lat="48.81136" lon="7.243203">
        <ele>261.0</ele>
        <time>2020-07-10T12:38:37Z</time>
      </trkpt>
      <trkpt lat="48.811288" lon="7.243076">
        <ele>260.0</ele>
        <time>2020-07-10T12:38:39Z</time>
      </trkpt>
      <trkpt lat="48.811217" lon="7.242955">
        <ele>260.0</ele>
        <time>2020-07-10T12:38:41Z</time>
      </trkpt>
      <trkpt lat="48.811149" lon="7.24282">
        <ele>260.0</ele>
        <time>2020-07-10T12:38:43Z</time>
      </trkpt>
      <trkpt lat="48.811079" lon="7.242684">
        <ele>260.0</ele>
        <time>2020-07-10T12:38:45Z</time>
      </trkpt>
      <trkpt lat="48.811011" lon="7.242565">
        <ele>260.0</ele>
        <time>2020-07-10T12:38:47Z</time>
      </trkpt>
      <trkpt lat="48.810929" lon="7.242444">
        <ele>260.0</ele>
        <time>2020-07-10T12:38:49Z</time>
      </trkpt>
      <trkpt lat="48.810856" lon="7.242325">
        <ele>260.0</ele>
        <time>2020-07-10T12:38:51Z</time>
      </trkpt>
      <trkpt lat="48.810785" lon="7.242211">
        <ele>260.0</ele>
        <time>2020-07-10T12:38:53Z</time>
      </trkpt>
      <trkpt lat="48.81072" lon="7.242096">
        <ele>261.0</ele>
        <time>2020-07-10T12:38:55Z</time>
      </trkpt>
      <trkpt lat="48.810648" lon="7.241986">
        <ele>262.0</ele>
        <time>2020-07-10T12:38:57Z</time>
      </trkpt>
      <trkpt lat="48.810581" lon="7.24189">
        <ele>262.0</ele>
        <time>2020-07-10T12:38:59Z</time>
      </trkpt>
      <trkpt lat="48.810519" lon="7.2418">
        <ele>263.0</ele>
        <time>2020-07-10T12:39:01Z</time>
      </trkpt>
      <trkpt lat="48.810456" lon="7.241717">
        <ele>263.0</ele>
        <time>2020-07-10T12:39:03Z</time>
      </trkpt>
      <trkpt lat="48.810399" lon="7.24162">
        <ele>263.0</ele>
        <time>2020-07-10T12:39:05Z</time>
      </trkpt>
      <trkpt lat="48.810344" lon="7.241522">
        <ele>263.0</ele>
        <time>2020-07-10T12:39:07Z</time>
      </trkpt>
      <trkpt lat="48.810285" lon="7.241421">
        <ele>263.0</ele>
        <time>2020-07-10T12:39:09Z</time>
      </trkpt>
      <trkpt lat="48.810219" lon="7.241326">
        <ele>263.0</ele>
        <time>2020-07-10T12:39:11Z</time>
      </trkpt>
      <trkpt lat="48.810141" lon="7.241236">
        <ele>263.0</ele>
        <time>2020-07-10T12:39:13Z</time>
      </trkpt>
      <trkpt lat="48.810073" lon="7.241144">
        <ele>263.0</ele>
        <time>2020-07-10T12:39:15Z</time>
      </trkpt>
      <trkpt lat="48.809997" lon="7.241037">
        <ele>263.0</ele>
        <time>2020-07-10T12:39:17Z</time>
      </trkpt>
      <trkpt lat="48.809925" lon="7.240927">
        <ele>264.0</ele>
        <time>2020-07-10T12:39:19Z</time>
      </trkpt>
      <trkpt lat="48.809852" lon="7.240811">
        <ele>264.0</ele>
        <time>2020-07-10T12:39:21Z</time>
      </trkpt>
      <trkpt lat="48.809781" lon="7.240702">
        <ele>264.0</ele>
        <time>2020-07-10T12:39:23Z</time>
      </trkpt>
      <trkpt lat="48.809714" lon="7.240594">
        <ele>264.0</ele>
        <time>2020-07-10T12:39:25Z</time>
      </trkpt>
      <trkpt lat="48.809658" lon="7.240482">
        <ele>264.0</ele>
        <time>2020-07-10T12:39:27Z</time>
      </trkpt>
      <trkpt lat="48.809601" lon="7.240367">
        <ele>265.0</ele>
        <time>2020-07-10T12:39:29Z</time>
      </trkpt>
      <trkpt lat="48.809552" lon="7.24025">
        <ele>265.0</ele>
        <time>2020-07-10T12:39:31Z</time>
      </trkpt>
      <trkpt lat="48.809501" lon="7.240134">
        <ele>265.0</ele>
        <time>2020-07-10T12:39:33Z</time>
      </trkpt>
      <trkpt lat="48.809452" lon="7.240016">
        <ele>265.0</ele>
        <time>2020-07-10T12:39:35Z</time>
      </trkpt>
      <trkpt lat="48.809402" lon="7.239902">
        <ele>264.0</ele>
        <time>2020-07-10T12:39:37Z</time>
      </trkpt>
      <trkpt lat="48.809359" lon="7.239795">
        <ele>265.0</ele>
        <time>2020-07-10T12:39:39Z</time>
      </trkpt>
      <trkpt lat="48.809325" lon="7.239676">
        <ele>264.0</ele>
        <time>2020-07-10T12:39:41Z</time>
      </trkpt>
      <trkpt lat="48.809297" lon="7.239531">
        <ele>263.0</ele>
        <time>2020-07-10T12:39:43Z</time>
      </trkpt>
      <trkpt lat="48.809283" lon="7.239374">
        <ele>262.0</ele>
        <time>2020-07-10T12:39:45Z</time>
      </trkpt>
      <trkpt lat="48.809268" lon="7.239219">
        <ele>262.0</ele>
        <time>2020-07-10T12:39:47Z</time>
      </trkpt>
      <trkpt lat="48.809253" lon="7.239057">
        <ele>262.0</ele>
        <time>2020-07-10T12:39:49Z</time>
      </trkpt>
      <trkpt lat="48.809244" lon="7.238904">
        <ele>262.0</ele>
        <time>2020-07-10T12:39:51Z</time>
      </trkpt>
      <trkpt lat="48.809226" lon="7.238731">
        <ele>261.0</ele>
        <time>2020-07-10T12:39:53Z</time>
      </trkpt>
      <trkpt lat="48.809207" lon="7.238565">
        <ele>261.0</ele>
        <time>2020-07-10T12:39:55Z</time>
      </trkpt>
      <trkpt lat="48.809189" lon="7.238408">
        <ele>261.0</ele>
        <time>2020-07-10T12:39:57Z</time>
      </trkpt>
      <trkpt lat="48.809168" lon="7.238272">
        <ele>262.0</ele>
        <time>2020-07-10T12:39:59Z</time>
      </trkpt>
      <trkpt lat="48.809145" lon="7.238135">
        <ele>262.0</ele>
        <time>2020-07-10T12:40:01Z</time>
      </trkpt>
      <trkpt lat="48.809135" lon="7.237998">
        <ele>263.0</ele>
        <time>2020-07-10T12:40:03Z</time>
      </trkpt>
      <trkpt lat="48.809122" lon="7.23788">
        <ele>263.0</ele>
        <time>2020-07-10T12:40:05Z</time>
      </trkpt>
      <trkpt lat="48.809105" lon="7.237761">
        <ele>263.0</ele>
        <time>2020-07-10T12:40:07Z</time>
      </trkpt>
      <trkpt lat="48.809097" lon="7.237645">
        <ele>263.0</ele>
        <time>2020-07-10T12:40:09Z</time>
      </trkpt>
      <trkpt lat="48.809086" lon="7.237534">
        <ele>263.0</ele>
        <time>2020-07-10T12:40:11Z</time>
      </trkpt>
      <trkpt lat="48.809074" lon="7.237426">
        <ele>264.0</ele>
        <time>2020-07-10T12:40:13Z</time>
      </trkpt>
      <trkpt lat="48.809054" lon="7.237269">
        <ele>264.0</ele>
        <time>2020-07-10T12:40:16Z</time>
      </trkpt>
      <trkpt lat="48.809039" lon="7.237172">
        <ele>264.0</ele>
        <time>2020-07-10T12:40:18Z</time>
      </trkpt>
      <trkpt lat="48.80903" lon="7.237075">
        <ele>264.0</ele>
        <time>2020-07-10T12:40:20Z</time>
      </trkpt>
      <trkpt lat="48.809019" lon="7.236966">
        <ele>265.0</ele>
        <time>2020-07-10T12:40:22Z</time>
      </trkpt>
      <trkpt lat="48.809011" lon="7.23685">
        <ele>264.0</ele>
        <time>2020-07-10T12:40:24Z</time>
      </trkpt>
      <trkpt lat="48.808997" lon="7.236746">
        <ele>264.0</ele>
        <time>2020-07-10T12:40:26Z</time>
      </trkpt>
      <trkpt lat="48.808984" lon="7.236635">
        <ele>264.0</ele>
        <time>2020-07-10T12:40:28Z</time>
      </trkpt>
      <trkpt lat="48.808961" lon="7.236529">
        <ele>265.0</ele>
        <time>2020-07-10T12:40:30Z</time>
      </trkpt>
      <trkpt lat="48.808931" lon="7.236423">
        <ele>265.0</ele>
        <time>2020-07-10T12:40:32Z</time>
      </trkpt>
      <trkpt lat="48.808873" lon="7.236327">
        <ele>264.0</ele>
        <time>2020-07-10T12:40:34Z</time>
      </trkpt>
      <trkpt lat="48.808806" lon="7.236236">
        <ele>265.0</ele>
        <time>2020-07-10T12:40:36Z</time>
      </trkpt>
      <trkpt lat="48.808745" lon="7.236146">
        <ele>266.0</ele>
        <time>2020-07-10T12:40:38Z</time>
      </trkpt>
      <trkpt lat="48.808678" lon="7.23606">
        <ele>266.0</ele>
        <time>2020-07-10T12:40:40Z</time>
      </trkpt>
      <trkpt lat="48.808614" lon="7.235968">
        <ele>267.0</ele>
        <time>2020-07-10T12:40:42Z</time>
      </trkpt>
      <trkpt lat="48.80856" lon="7.23587">
        <ele>267.0</ele>
        <time>2020-07-10T12:40:44Z</time>
      </trkpt>
      <trkpt lat="48.808505" lon="7.235785">
        <ele>267.0</ele>
        <time>2020-07-10T12:40:46Z</time>
      </trkpt>
      <trkpt lat="48.808456" lon="7.235703">
        <ele>267.0</ele>
        <time>2020-07-10T12:40:48Z</time>
      </trkpt>
      <trkpt lat="48.808408" lon="7.235625">
        <ele>267.0</ele>
        <time>2020-07-10T12:40:50Z</time>
      </trkpt>
      <trkpt lat="48.80836" lon="7.235547">
        <ele>267.0</ele>
        <time>2020-07-10T12:40:52Z</time>
      </trkpt>
      <trkpt lat="48.808314" lon="7.235471">
        <ele>267.0</ele>
        <time>2020-07-10T12:40:54Z</time>
      </trkpt>
      <trkpt lat="48.808273" lon="7.23538">
        <ele>267.0</ele>
        <time>2020-07-10T12:40:56Z</time>
      </trkpt>
      <trkpt lat="48.808228" lon="7.235298">
        <ele>267.0</ele>
        <time>2020-07-10T12:40:58Z</time>
      </trkpt>
      <trkpt lat="48.808177" lon="7.235203">
        <ele>267.0</ele>
        <time>2020-07-10T12:41:00Z</time>
      </trkpt>
      <trkpt lat="48.808128" lon="7.235113">
        <ele>267.0</ele>
        <time>2020-07-10T12:41:02Z</time>
      </trkpt>
      <trkpt lat="48.808072" lon="7.235008">
        <ele>266.0</ele>
        <time>2020-07-10T12:41:04Z</time>
      </trkpt>
      <trkpt lat="48.808008" lon="7.234901">
        <ele>266.0</ele>
        <time>2020-07-10T12:41:06Z</time>
      </trkpt>
      <trkpt lat="48.807926" lon="7.234834">
        <ele>266.0</ele>
        <time>2020-07-10T12:41:08Z</time>
      </trkpt>
      <trkpt lat="48.807835" lon="7.234852">
        <ele>266.0</ele>
        <time>2020-07-10T12:41:10Z</time>
      </trkpt>
      <trkpt lat="48.807734" lon="7.23494">
        <ele>267.0</ele>
        <time>2020-07-10T12:41:12Z</time>
      </trkpt>
      <trkpt lat="48.807639" lon="7.235027">
        <ele>267.0</ele>
        <time>2020-07-10T12:41:14Z</time>
      </trkpt>
      <trkpt lat="48.807551" lon="7.235103">
        <ele>267.0</ele>
        <time>2020-07-10T12:41:16Z</time>
      </trkpt>
      <trkpt lat="48.807465" lon="7.235171">
        <ele>268.0</ele>
        <time>2020-07-10T12:41:18Z</time>
      </trkpt>
      <trkpt lat="48.807384" lon="7.235219">
        <ele>268.0</ele>
        <time>2020-07-10T12:41:20Z</time>
      </trkpt>
      <trkpt lat="48.80731" lon="7.235256">
        <ele>267.0</ele>
        <time>2020-07-10T12:41:22Z</time>
      </trkpt>
      <trkpt lat="48.807241" lon="7.235275">
        <ele>268.0</ele>
        <time>2020-07-10T12:41:24Z</time>
      </trkpt>
      <trkpt lat="48.807169" lon="7.23529">
        <ele>268.0</ele>
        <time>2020-07-10T12:41:26Z</time>
      </trkpt>
      <trkpt lat="48.807105" lon="7.235297">
        <ele>268.0</ele>
        <time>2020-07-10T12:41:28Z</time>
      </trkpt>
      <trkpt lat="48.807048" lon="7.2353">
        <ele>269.0</ele>
        <time>2020-07-10T12:41:30Z</time>
      </trkpt>
      <trkpt lat="48.806994" lon="7.235298">
        <ele>269.0</ele>
        <time>2020-07-10T12:41:32Z</time>
      </trkpt>
      <trkpt lat="48.806937" lon="7.2353">
        <ele>270.0</ele>
        <time>2020-07-10T12:41:34Z</time>
      </trkpt>
      <trkpt lat="48.806887" lon="7.23529">
        <ele>269.0</ele>
        <time>2020-07-10T12:41:36Z</time>
      </trkpt>
      <trkpt lat="48.806841" lon="7.235275">
        <ele>269.0</ele>
        <time>2020-07-10T12:41:38Z</time>
      </trkpt>
      <trkpt lat="48.806802" lon="7.235265">
        <ele>270.0</ele>
        <time>2020-07-10T12:41:40Z</time>
      </trkpt>
      <trkpt lat="48.806763" lon="7.235262">
        <ele>269.0</ele>
        <time>2020-07-10T12:41:42Z</time>
      </trkpt>
      <trkpt lat="48.80672" lon="7.235264">
        <ele>269.0</ele>
        <time>2020-07-10T12:41:44Z</time>
      </trkpt>
      <trkpt lat="48.806675" lon="7.235264">
        <ele>270.0</ele>
        <time>2020-07-10T12:41:46Z</time>
      </trkpt>
      <trkpt lat="48.806629" lon="7.235264">
        <ele>270.0</ele>
        <time>2020-07-10T12:41:48Z</time>
      </trkpt>
      <trkpt lat="48.806589" lon="7.235257">
        <ele>270.0</ele>
        <time>2020-07-10T12:41:50Z</time>
      </trkpt>
      <trkpt lat="48.80655" lon="7.235263">
        <ele>270.0</ele>
        <time>2020-07-10T12:41:52Z</time>
      </trkpt>
      <trkpt lat="48.806501" lon="7.235259">
        <ele>270.0</ele>
        <time>2020-07-10T12:41:54Z</time>
      </trkpt>
      <trkpt lat="48.806455" lon="7.235269">
        <ele>271.0</ele>
        <time>2020-07-10T12:41:56Z</time>
      </trkpt>
      <trkpt lat="48.806425" lon="7.235265">
        <ele>271.0</ele>
        <time>2020-07-10T12:41:58Z</time>
      </trkpt>
      <trkpt lat="48.806389" lon="7.235262">
        <ele>271.0</ele>
        <time>2020-07-10T12:42:00Z</time>
      </trkpt>
      <trkpt lat="48.806343" lon="7.235262">
        <ele>271.0</ele>
        <time>2020-07-10T12:42:02Z</time>
      </trkpt>
      <trkpt lat="48.806304" lon="7.235257">
        <ele>271.0</ele>
        <time>2020-07-10T12:42:04Z</time>
      </trkpt>
      <trkpt lat="48.806264" lon="7.235252">
        <ele>272.0</ele>
        <time>2020-07-10T12:42:06Z</time>
      </trkpt>
      <trkpt lat="48.806224" lon="7.235251">
        <ele>272.0</ele>
        <time>2020-07-10T12:42:08Z</time>
      </trkpt>
      <trkpt lat="48.806186" lon="7.23525">
        <ele>272.0</ele>
        <time>2020-07-10T12:42:10Z</time>
      </trkpt>
      <trkpt lat="48.806147" lon="7.235249">
        <ele>272.0</ele>
        <time>2020-07-10T12:42:12Z</time>
      </trkpt>
      <trkpt lat="48.806111" lon="7.235242">
        <ele>273.0</ele>
        <time>2020-07-10T12:42:14Z</time>
      </trkpt>
      <trkpt lat="48.806073" lon="7.235226">
        <ele>273.0</ele>
        <time>2020-07-10T12:42:16Z</time>
      </trkpt>
      <trkpt lat="48.806037" lon="7.23521">
        <ele>274.0</ele>
        <time>2020-07-10T12:42:18Z</time>
      </trkpt>
      <trkpt lat="48.805994" lon="7.235205">
        <ele>274.0</ele>
        <time>2020-07-10T12:42:20Z</time>
      </trkpt>
      <trkpt lat="48.805965" lon="7.235207">
        <ele>274.0</ele>
        <time>2020-07-10T12:42:22Z</time>
      </trkpt>
      <trkpt lat="48.805936" lon="7.235195">
        <ele>275.0</ele>
        <time>2020-07-10T12:42:24Z</time>
      </trkpt>
      <trkpt lat="48.805906" lon="7.235182">
        <ele>275.0</ele>
        <time>2020-07-10T12:42:26Z</time>
      </trkpt>
      <trkpt lat="48.805877" lon="7.23516">
        <ele>276.0</ele>
        <time>2020-07-10T12:42:28Z</time>
      </trkpt>
      <trkpt lat="48.805847" lon="7.235147">
        <ele>276.0</ele>
        <time>2020-07-10T12:42:30Z</time>
      </trkpt>
      <trkpt lat="48.805817" lon="7.235127">
        <ele>276.0</ele>
        <time>2020-07-10T12:42:32Z</time>
      </trkpt>
      <trkpt lat="48.805787" lon="7.235116">
        <ele>275.0</ele>
        <time>2020-07-10T12:42:34Z</time>
      </trkpt>
      <trkpt lat="48.805745" lon="7.235105">
        <ele>275.0</ele>
        <time>2020-07-10T12:42:36Z</time>
      </trkpt>
      <trkpt lat="48.805707" lon="7.235098">
        <ele>275.0</ele>
        <time>2020-07-10T12:42:38Z</time>
      </trkpt>
      <trkpt lat="48.805662" lon="7.235085">
        <ele>275.0</ele>
        <time>2020-07-10T12:42:40Z</time>
      </trkpt>
      <trkpt lat="48.805628" lon="7.235068">
        <ele>274.0</ele>
        <time>2020-07-10T12:42:42Z</time>
      </trkpt>
      <trkpt lat="48.805595" lon="7.235058">
        <ele>272.0</ele>
        <time>2020-07-10T12:42:44Z</time>
      </trkpt>
      <trkpt lat="48.805553" lon="7.235036">
        <ele>271.0</ele>
        <time>2020-07-10T12:42:46Z</time>
      </trkpt>
      <trkpt lat="48.805519" lon="7.235016">
        <ele>271.0</ele>
        <time>2020-07-10T12:42:48Z</time>
      </trkpt>
      <trkpt lat="48.805473" lon="7.235002">
        <ele>273.0</ele>
        <time>2020-07-10T12:42:50Z</time>
      </trkpt>
      <trkpt lat="48.805425" lon="7.23499">
        <ele>274.0</ele>
        <time>2020-07-10T12:42:52Z</time>
      </trkpt>
      <trkpt lat="48.80538" lon="7.234983">
        <ele>273.0</ele>
        <time>2020-07-10T12:42:54Z</time>
      </trkpt>
      <trkpt lat="48.805341" lon="7.23497">
        <ele>273.0</ele>
        <time>2020-07-10T12:42:56Z</time>
      </trkpt>
      <trkpt lat="48.805302" lon="7.234963">
        <ele>274.0</ele>
        <time>2020-07-10T12:42:58Z</time>
      </trkpt>
      <trkpt lat="48.805274" lon="7.234947">
        <ele>273.0</ele>
        <time>2020-07-10T12:43:00Z</time>
      </trkpt>
      <trkpt lat="48.805243" lon="7.234936">
        <ele>273.0</ele>
        <time>2020-07-10T12:43:02Z</time>
      </trkpt>
      <trkpt lat="48.805209" lon="7.234933">
        <ele>272.0</ele>
        <time>2020-07-10T12:43:04Z</time>
      </trkpt>
      <trkpt lat="48.805171" lon="7.234915">
        <ele>273.0</ele>
        <time>2020-07-10T12:43:06Z</time>
      </trkpt>
      <trkpt lat="48.805127" lon="7.234903">
        <ele>274.0</ele>
        <time>2020-07-10T12:43:08Z</time>
      </trkpt>
      <trkpt lat="48.80508" lon="7.234884">
        <ele>275.0</ele>
        <time>2020-07-10T12:43:10Z</time>
      </trkpt>
      <trkpt lat="48.805034" lon="7.234881">
        <ele>277.0</ele>
        <time>2020-07-10T12:43:12Z</time>
      </trkpt>
      <trkpt lat="48.804995" lon="7.234873">
        <ele>277.0</ele>
        <time>2020-07-10T12:43:14Z</time>
      </trkpt>
      <trkpt lat="48.804961" lon="7.234861">
        <ele>277.0</ele>
        <time>2020-07-10T12:43:16Z</time>
      </trkpt>
      <trkpt lat="48.804891" lon="7.234847">
        <ele>278.0</ele>
        <time>2020-07-10T12:43:19Z</time>
      </trkpt>
      <trkpt lat="48.804854" lon="7.234858">
        <ele>279.0</ele>
        <time>2020-07-10T12:43:21Z</time>
      </trkpt>
      <trkpt lat="48.804815" lon="7.234868">
        <ele>279.0</ele>
        <time>2020-07-10T12:43:23Z</time>
      </trkpt>
      <trkpt lat="48.804775" lon="7.234883">
        <ele>280.0</ele>
        <time>2020-07-10T12:43:25Z</time>
      </trkpt>
      <trkpt lat="48.804735" lon="7.23489">
        <ele>281.0</ele>
        <time>2020-07-10T12:43:27Z</time>
      </trkpt>
      <trkpt lat="48.804696" lon="7.234907">
        <ele>281.0</ele>
        <time>2020-07-10T12:43:29Z</time>
      </trkpt>
      <trkpt lat="48.804662" lon="7.234923">
        <ele>282.0</ele>
        <time>2020-07-10T12:43:31Z</time>
      </trkpt>
      <trkpt lat="48.804623" lon="7.23493">
        <ele>282.0</ele>
        <time>2020-07-10T12:43:33Z</time>
      </trkpt>
      <trkpt lat="48.804584" lon="7.234948">
        <ele>283.0</ele>
        <time>2020-07-10T12:43:35Z</time>
      </trkpt>
      <trkpt lat="48.804537" lon="7.23497">
        <ele>283.0</ele>
        <time>2020-07-10T12:43:37Z</time>
      </trkpt>
      <trkpt lat="48.804501" lon="7.234983">
        <ele>284.0</ele>
        <time>2020-07-10T12:43:39Z</time>
      </trkpt>
      <trkpt lat="48.804463" lon="7.235003">
        <ele>283.0</ele>
        <time>2020-07-10T12:43:41Z</time>
      </trkpt>
      <trkpt lat="48.804424" lon="7.235022">
        <ele>284.0</ele>
        <time>2020-07-10T12:43:43Z</time>
      </trkpt>
      <trkpt lat="48.804386" lon="7.235053">
        <ele>285.0</ele>
        <time>2020-07-10T12:43:45Z</time>
      </trkpt>
      <trkpt lat="48.804351" lon="7.23508">
        <ele>284.0</ele>
        <time>2020-07-10T12:43:47Z</time>
      </trkpt>
      <trkpt lat="48.804319" lon="7.235099">
        <ele>285.0</ele>
        <time>2020-07-10T12:43:49Z</time>
      </trkpt>
      <trkpt lat="48.804279" lon="7.235123">
        <ele>285.0</ele>
        <time>2020-07-10T12:43:51Z</time>
      </trkpt>
      <trkpt lat="48.804243" lon="7.235148">
        <ele>286.0</ele>
        <time>2020-07-10T12:43:53Z</time>
      </trkpt>
      <trkpt lat="48.804212" lon="7.235176">
        <ele>287.0</ele>
        <time>2020-07-10T12:43:55Z</time>
      </trkpt>
      <trkpt lat="48.804178" lon="7.235196">
        <ele>287.0</ele>
        <time>2020-07-10T12:43:57Z</time>
      </trkpt>
      <trkpt lat="48.804141" lon="7.235215">
        <ele>288.0</ele>
        <time>2020-07-10T12:43:59Z</time>
      </trkpt>
      <trkpt lat="48.804106" lon="7.235232">
        <ele>289.0</ele>
        <time>2020-07-10T12:44:01Z</time>
      </trkpt>
      <trkpt lat="48.80407" lon="7.235254">
        <ele>288.0</ele>
        <time>2020-07-10T12:44:03Z</time>
      </trkpt>
      <trkpt lat="48.80403" lon="7.235278">
        <ele>289.0</ele>
        <time>2020-07-10T12:44:05Z</time>
      </trkpt>
      <trkpt lat="48.803988" lon="7.235298">
        <ele>289.0</ele>
        <time>2020-07-10T12:44:07Z</time>
      </trkpt>
      <trkpt lat="48.80395" lon="7.23531">
        <ele>289.0</ele>
        <time>2020-07-10T12:44:09Z</time>
      </trkpt>
      <trkpt lat="48.803913" lon="7.235336">
        <ele>289.0</ele>
        <time>2020-07-10T12:44:11Z</time>
      </trkpt>
      <trkpt lat="48.803881" lon="7.235365">
        <ele>289.0</ele>
        <time>2020-07-10T12:44:13Z</time>
      </trkpt>
      <trkpt lat="48.803847" lon="7.235396">
        <ele>290.0</ele>
        <time>2020-07-10T12:44:15Z</time>
      </trkpt>
      <trkpt lat="48.803816" lon="7.235431">
        <ele>291.0</ele>
        <time>2020-07-10T12:44:17Z</time>
      </trkpt>
      <trkpt lat="48.803785" lon="7.235465">
        <ele>291.0</ele>
        <time>2020-07-10T12:44:19Z</time>
      </trkpt>
      <trkpt lat="48.803755" lon="7.235499">
        <ele>291.0</ele>
        <time>2020-07-10T12:44:21Z</time>
      </trkpt>
      <trkpt lat="48.803721" lon="7.23554">
        <ele>291.0</ele>
        <time>2020-07-10T12:44:23Z</time>
      </trkpt>
      <trkpt lat="48.803692" lon="7.235582">
        <ele>291.0</ele>
        <time>2020-07-10T12:44:25Z</time>
      </trkpt>
      <trkpt lat="48.803659" lon="7.235626">
        <ele>291.0</ele>
        <time>2020-07-10T12:44:27Z</time>
      </trkpt>
      <trkpt lat="48.803625" lon="7.235673">
        <ele>292.0</ele>
        <time>2020-07-10T12:44:29Z</time>
      </trkpt>
      <trkpt lat="48.803599" lon="7.235721">
        <ele>292.0</ele>
        <time>2020-07-10T12:44:31Z</time>
      </trkpt>
      <trkpt lat="48.803577" lon="7.235769">
        <ele>293.0</ele>
        <time>2020-07-10T12:44:33Z</time>
      </trkpt>
      <trkpt lat="48.803557" lon="7.235815">
        <ele>293.0</ele>
        <time>2020-07-10T12:44:35Z</time>
      </trkpt>
      <trkpt lat="48.803534" lon="7.235863">
        <ele>293.0</ele>
        <time>2020-07-10T12:44:37Z</time>
      </trkpt>
      <trkpt lat="48.803515" lon="7.235915">
        <ele>293.0</ele>
        <time>2020-07-10T12:44:39Z</time>
      </trkpt>
      <trkpt lat="48.803496" lon="7.235972">
        <ele>294.0</ele>
        <time>2020-07-10T12:44:41Z</time>
      </trkpt>
      <trkpt lat="48.803482" lon="7.236027">
        <ele>295.0</ele>
        <time>2020-07-10T12:44:43Z</time>
      </trkpt>
      <trkpt lat="48.803464" lon="7.23607">
        <ele>296.0</ele>
        <time>2020-07-10T12:44:45Z</time>
      </trkpt>
      <trkpt lat="48.803445" lon="7.236126">
        <ele>296.0</ele>
        <time>2020-07-10T12:44:47Z</time>
      </trkpt>
      <trkpt lat="48.803433" lon="7.236178">
        <ele>296.0</ele>
        <time>2020-07-10T12:44:49Z</time>
      </trkpt>
      <trkpt lat="48.803421" lon="7.236237">
        <ele>295.0</ele>
        <time>2020-07-10T12:44:51Z</time>
      </trkpt>
      <trkpt lat="48.803411" lon="7.236296">
        <ele>295.0</ele>
        <time>2020-07-10T12:44:53Z</time>
      </trkpt>
      <trkpt lat="48.803403" lon="7.236353">
        <ele>296.0</ele>
        <time>2020-07-10T12:44:55Z</time>
      </trkpt>
      <trkpt lat="48.803392" lon="7.236409">
        <ele>296.0</ele>
        <time>2020-07-10T12:44:57Z</time>
      </trkpt>
      <trkpt lat="48.803381" lon="7.236466">
        <ele>296.0</ele>
        <time>2020-07-10T12:44:59Z</time>
      </trkpt>
      <trkpt lat="48.803367" lon="7.236521">
        <ele>297.0</ele>
        <time>2020-07-10T12:45:01Z</time>
      </trkpt>
      <trkpt lat="48.803355" lon="7.236577">
        <ele>297.0</ele>
        <time>2020-07-10T12:45:03Z</time>
      </trkpt>
      <trkpt lat="48.803346" lon="7.236636">
        <ele>297.0</ele>
        <time>2020-07-10T12:45:05Z</time>
      </trkpt>
      <trkpt lat="48.803337" lon="7.236695">
        <ele>296.0</ele>
        <time>2020-07-10T12:45:07Z</time>
      </trkpt>
      <trkpt lat="48.803325" lon="7.236753">
        <ele>296.0</ele>
        <time>2020-07-10T12:45:09Z</time>
      </trkpt>
      <trkpt lat="48.803315" lon="7.236811">
        <ele>297.0</ele>
        <time>2020-07-10T12:45:11Z</time>
      </trkpt>
      <trkpt lat="48.803311" lon="7.236861">
        <ele>298.0</ele>
        <time>2020-07-10T12:45:13Z</time>
      </trkpt>
      <trkpt lat="48.803299" lon="7.236915">
        <ele>298.0</ele>
        <time>2020-07-10T12:45:15Z</time>
      </trkpt>
      <trkpt lat="48.803288" lon="7.236976">
        <ele>298.0</ele>
        <time>2020-07-10T12:45:17Z</time>
      </trkpt>
      <trkpt lat="48.803278" lon="7.237034">
        <ele>298.0</ele>
        <time>2020-07-10T12:45:19Z</time>
      </trkpt>
      <trkpt lat="48.803263" lon="7.237097">
        <ele>299.0</ele>
        <time>2020-07-10T12:45:21Z</time>
      </trkpt>
      <trkpt lat="48.803251" lon="7.237153">
        <ele>298.0</ele>
        <time>2020-07-10T12:45:23Z</time>
      </trkpt>
      <trkpt lat="48.803239" lon="7.237207">
        <ele>298.0</ele>
        <time>2020-07-10T12:45:25Z</time>
      </trkpt>
      <trkpt lat="48.803226" lon="7.237262">
        <ele>298.0</ele>
        <time>2020-07-10T12:45:27Z</time>
      </trkpt>
      <trkpt lat="48.803215" lon="7.237314">
        <ele>299.0</ele>
        <time>2020-07-10T12:45:29Z</time>
      </trkpt>
      <trkpt lat="48.803204" lon="7.237374">
        <ele>299.0</ele>
        <time>2020-07-10T12:45:31Z</time>
      </trkpt>
      <trkpt lat="48.803193" lon="7.237431">
        <ele>300.0</ele>
        <time>2020-07-10T12:45:33Z</time>
      </trkpt>
      <trkpt lat="48.803179" lon="7.237487">
        <ele>300.0</ele>
        <time>2020-07-10T12:45:35Z</time>
      </trkpt>
      <trkpt lat="48.803162" lon="7.237545">
        <ele>300.0</ele>
        <time>2020-07-10T12:45:37Z</time>
      </trkpt>
      <trkpt lat="48.803145" lon="7.237599">
        <ele>300.0</ele>
        <time>2020-07-10T12:45:39Z</time>
      </trkpt>
      <trkpt lat="48.803131" lon="7.237656">
        <ele>300.0</ele>
        <time>2020-07-10T12:45:41Z</time>
      </trkpt>
      <trkpt lat="48.803119" lon="7.237713">
        <ele>301.0</ele>
        <time>2020-07-10T12:45:43Z</time>
      </trkpt>
      <trkpt lat="48.803104" lon="7.237767">
        <ele>301.0</ele>
        <time>2020-07-10T12:45:45Z</time>
      </trkpt>
      <trkpt lat="48.803088" lon="7.237822">
        <ele>302.0</ele>
        <time>2020-07-10T12:45:47Z</time>
      </trkpt>
      <trkpt lat="48.80307" lon="7.237873">
        <ele>302.0</ele>
        <time>2020-07-10T12:45:49Z</time>
      </trkpt>
      <trkpt lat="48.803051" lon="7.237925">
        <ele>303.0</ele>
        <time>2020-07-10T12:45:51Z</time>
      </trkpt>
      <trkpt lat="48.803031" lon="7.237985">
        <ele>303.0</ele>
        <time>2020-07-10T12:45:53Z</time>
      </trkpt>
      <trkpt lat="48.803013" lon="7.238035">
        <ele>303.0</ele>
        <time>2020-07-10T12:45:55Z</time>
      </trkpt>
      <trkpt lat="48.802996" lon="7.23809">
        <ele>303.0</ele>
        <time>2020-07-10T12:45:57Z</time>
      </trkpt>
      <trkpt lat="48.802979" lon="7.238143">
        <ele>304.0</ele>
        <time>2020-07-10T12:45:59Z</time>
      </trkpt>
      <trkpt lat="48.802965" lon="7.238196">
        <ele>305.0</ele>
        <time>2020-07-10T12:46:01Z</time>
      </trkpt>
      <trkpt lat="48.802944" lon="7.238248">
        <ele>305.0</ele>
        <time>2020-07-10T12:46:03Z</time>
      </trkpt>
      <trkpt lat="48.802923" lon="7.2383">
        <ele>305.0</ele>
        <time>2020-07-10T12:46:05Z</time>
      </trkpt>
      <trkpt lat="48.802902" lon="7.238346">
        <ele>305.0</ele>
        <time>2020-07-10T12:46:07Z</time>
      </trkpt>
      <trkpt lat="48.802879" lon="7.238389">
        <ele>306.0</ele>
        <time>2020-07-10T12:46:09Z</time>
      </trkpt>
      <trkpt lat="48.802857" lon="7.238426">
        <ele>307.0</ele>
        <time>2020-07-10T12:46:11Z</time>
      </trkpt>
      <trkpt lat="48.802838" lon="7.23847">
        <ele>307.0</ele>
        <time>2020-07-10T12:46:13Z</time>
      </trkpt>
      <trkpt lat="48.802814" lon="7.238518">
        <ele>307.0</ele>
        <time>2020-07-10T12:46:15Z</time>
      </trkpt>
      <trkpt lat="48.802797" lon="7.238567">
        <ele>306.0</ele>
        <time>2020-07-10T12:46:17Z</time>
      </trkpt>
      <trkpt lat="48.802773" lon="7.238617">
        <ele>306.0</ele>
        <time>2020-07-10T12:46:19Z</time>
      </trkpt>
      <trkpt lat="48.802736" lon="7.238695">
        <ele>307.0</ele>
        <time>2020-07-10T12:46:22Z</time>
      </trkpt>
      <trkpt lat="48.802715" lon="7.238745">
        <ele>307.0</ele>
        <time>2020-07-10T12:46:24Z</time>
      </trkpt>
      <trkpt lat="48.802688" lon="7.238789">
        <ele>308.0</ele>
        <time>2020-07-10T12:46:26Z</time>
      </trkpt>
      <trkpt lat="48.802666" lon="7.238831">
        <ele>307.0</ele>
        <time>2020-07-10T12:46:28Z</time>
      </trkpt>
      <trkpt lat="48.802639" lon="7.238866">
        <ele>308.0</ele>
        <time>2020-07-10T12:46:30Z</time>
      </trkpt>
      <trkpt lat="48.802612" lon="7.238916">
        <ele>308.0</ele>
        <time>2020-07-10T12:46:32Z</time>
      </trkpt>
      <trkpt lat="48.802588" lon="7.238965">
        <ele>309.0</ele>
        <time>2020-07-10T12:46:34Z</time>
      </trkpt>
      <trkpt lat="48.802566" lon="7.239017">
        <ele>309.0</ele>
        <time>2020-07-10T12:46:36Z</time>
      </trkpt>
      <trkpt lat="48.802542" lon="7.239064">
        <ele>309.0</ele>
        <time>2020-07-10T12:46:38Z</time>
      </trkpt>
      <trkpt lat="48.802515" lon="7.239111">
        <ele>309.0</ele>
        <time>2020-07-10T12:46:40Z</time>
      </trkpt>
      <trkpt lat="48.802496" lon="7.239156">
        <ele>310.0</ele>
        <time>2020-07-10T12:46:42Z</time>
      </trkpt>
      <trkpt lat="48.802478" lon="7.239203">
        <ele>311.0</ele>
        <time>2020-07-10T12:46:44Z</time>
      </trkpt>
      <trkpt lat="48.802454" lon="7.239262">
        <ele>311.0</ele>
        <time>2020-07-10T12:46:46Z</time>
      </trkpt>
      <trkpt lat="48.802426" lon="7.23931">
        <ele>311.0</ele>
        <time>2020-07-10T12:46:48Z</time>
      </trkpt>
      <trkpt lat="48.802397" lon="7.239357">
        <ele>311.0</ele>
        <time>2020-07-10T12:46:50Z</time>
      </trkpt>
      <trkpt lat="48.802376" lon="7.239409">
        <ele>311.0</ele>
        <time>2020-07-10T12:46:52Z</time>
      </trkpt>
      <trkpt lat="48.802356" lon="7.239459">
        <ele>311.0</ele>
        <time>2020-07-10T12:46:54Z</time>
      </trkpt>
      <trkpt lat="48.802333" lon="7.239503">
        <ele>311.0</ele>
        <time>2020-07-10T12:46:56Z</time>
      </trkpt>
      <trkpt lat="48.802308" lon="7.239551">
        <ele>312.0</ele>
        <time>2020-07-10T12:46:58Z</time>
      </trkpt>
      <trkpt lat="48.80229" lon="7.239598">
        <ele>312.0</ele>
        <time>2020-07-10T12:47:00Z</time>
      </trkpt>
      <trkpt lat="48.802267" lon="7.239645">
        <ele>311.0</ele>
        <time>2020-07-10T12:47:02Z</time>
      </trkpt>
      <trkpt lat="48.802242" lon="7.239692">
        <ele>311.0</ele>
        <time>2020-07-10T12:47:04Z</time>
      </trkpt>
      <trkpt lat="48.802216" lon="7.23974">
        <ele>312.0</ele>
        <time>2020-07-10T12:47:06Z</time>
      </trkpt>
      <trkpt lat="48.80219" lon="7.239786">
        <ele>311.0</ele>
        <time>2020-07-10T12:47:08Z</time>
      </trkpt>
      <trkpt lat="48.802166" lon="7.239833">
        <ele>311.0</ele>
        <time>2020-07-10T12:47:10Z</time>
      </trkpt>
      <trkpt lat="48.802146" lon="7.239881">
        <ele>312.0</ele>
        <time>2020-07-10T12:47:12Z</time>
      </trkpt>
      <trkpt lat="48.802121" lon="7.239926">
        <ele>312.0</ele>
        <time>2020-07-10T12:47:14Z</time>
      </trkpt>
      <trkpt lat="48.802094" lon="7.239969">
        <ele>313.0</ele>
        <time>2020-07-10T12:47:16Z</time>
      </trkpt>
      <trkpt lat="48.802064" lon="7.240017">
        <ele>313.0</ele>
        <time>2020-07-10T12:47:18Z</time>
      </trkpt>
      <trkpt lat="48.80203" lon="7.240062">
        <ele>314.0</ele>
        <time>2020-07-10T12:47:20Z</time>
      </trkpt>
      <trkpt lat="48.802003" lon="7.240101">
        <ele>314.0</ele>
        <time>2020-07-10T12:47:22Z</time>
      </trkpt>
      <trkpt lat="48.801973" lon="7.240143">
        <ele>314.0</ele>
        <time>2020-07-10T12:47:24Z</time>
      </trkpt>
      <trkpt lat="48.801941" lon="7.24018">
        <ele>314.0</ele>
        <time>2020-07-10T12:47:26Z</time>
      </trkpt>
      <trkpt lat="48.801911" lon="7.240228">
        <ele>315.0</ele>
        <time>2020-07-10T12:47:28Z</time>
      </trkpt>
      <trkpt lat="48.801878" lon="7.240268">
        <ele>315.0</ele>
        <time>2020-07-10T12:47:30Z</time>
      </trkpt>
      <trkpt lat="48.801844" lon="7.240304">
        <ele>315.0</ele>
        <time>2020-07-10T12:47:32Z</time>
      </trkpt>
      <trkpt lat="48.801814" lon="7.240339">
        <ele>315.0</ele>
        <time>2020-07-10T12:47:34Z</time>
      </trkpt>
      <trkpt lat="48.801778" lon="7.240377">
        <ele>316.0</ele>
        <time>2020-07-10T12:47:36Z</time>
      </trkpt>
      <trkpt lat="48.801748" lon="7.240417">
        <ele>316.0</ele>
        <time>2020-07-10T12:47:38Z</time>
      </trkpt>
      <trkpt lat="48.80172" lon="7.240457">
        <ele>316.0</ele>
        <time>2020-07-10T12:47:40Z</time>
      </trkpt>
      <trkpt lat="48.801692" lon="7.2405">
        <ele>317.0</ele>
        <time>2020-07-10T12:47:42Z</time>
      </trkpt>
      <trkpt lat="48.801662" lon="7.240536">
        <ele>317.0</ele>
        <time>2020-07-10T12:47:44Z</time>
      </trkpt>
      <trkpt lat="48.801637" lon="7.240584">
        <ele>317.0</ele>
        <time>2020-07-10T12:47:46Z</time>
      </trkpt>
      <trkpt lat="48.80161" lon="7.240633">
        <ele>318.0</ele>
        <time>2020-07-10T12:47:48Z</time>
      </trkpt>
      <trkpt lat="48.801588" lon="7.240686">
        <ele>318.0</ele>
        <time>2020-07-10T12:47:50Z</time>
      </trkpt>
      <trkpt lat="48.801557" lon="7.240742">
        <ele>318.0</ele>
        <time>2020-07-10T12:47:52Z</time>
      </trkpt>
      <trkpt lat="48.801533" lon="7.240788">
        <ele>318.0</ele>
        <time>2020-07-10T12:47:54Z</time>
      </trkpt>
      <trkpt lat="48.801506" lon="7.240837">
        <ele>317.0</ele>
        <time>2020-07-10T12:47:56Z</time>
      </trkpt>
      <trkpt lat="48.801484" lon="7.240887">
        <ele>318.0</ele>
        <time>2020-07-10T12:47:58Z</time>
      </trkpt>
      <trkpt lat="48.801462" lon="7.240936">
        <ele>319.0</ele>
        <time>2020-07-10T12:48:00Z</time>
      </trkpt>
      <trkpt lat="48.801443" lon="7.240979">
        <ele>319.0</ele>
        <time>2020-07-10T12:48:02Z</time>
      </trkpt>
      <trkpt lat="48.80142" lon="7.241026">
        <ele>320.0</ele>
        <time>2020-07-10T12:48:04Z</time>
      </trkpt>
      <trkpt lat="48.801392" lon="7.241068">
        <ele>320.0</ele>
        <time>2020-07-10T12:48:06Z</time>
      </trkpt>
      <trkpt lat="48.801368" lon="7.241113">
        <ele>320.0</ele>
        <time>2020-07-10T12:48:08Z</time>
      </trkpt>
      <trkpt lat="48.801346" lon="7.241146">
        <ele>321.0</ele>
        <time>2020-07-10T12:48:10Z</time>
      </trkpt>
      <trkpt lat="48.801317" lon="7.241183">
        <ele>321.0</ele>
        <time>2020-07-10T12:48:12Z</time>
      </trkpt>
      <trkpt lat="48.801289" lon="7.241229">
        <ele>320.0</ele>
        <time>2020-07-10T12:48:14Z</time>
      </trkpt>
      <trkpt lat="48.801266" lon="7.241281">
        <ele>320.0</ele>
        <time>2020-07-10T12:48:16Z</time>
      </trkpt>
      <trkpt lat="48.801249" lon="7.241326">
        <ele>320.0</ele>
        <time>2020-07-10T12:48:18Z</time>
      </trkpt>
      <trkpt lat="48.801215" lon="7.241341">
        <ele>319.0</ele>
        <time>2020-07-10T12:48:20Z</time>
      </trkpt>
      <trkpt lat="48.801169" lon="7.241337">
        <ele>319.0</ele>
        <time>2020-07-10T12:48:22Z</time>
      </trkpt>
      <trkpt lat="48.801135" lon="7.241307">
        <ele>319.0</ele>
        <time>2020-07-10T12:48:24Z</time>
      </trkpt>
      <trkpt lat="48.801092" lon="7.241275">
        <ele>320.0</ele>
        <time>2020-07-10T12:48:26Z</time>
      </trkpt>
      <trkpt lat="48.801051" lon="7.24124">
        <ele>320.0</ele>
        <time>2020-07-10T12:48:28Z</time>
      </trkpt>
      <trkpt lat="48.801005" lon="7.241202">
        <ele>320.0</ele>
        <time>2020-07-10T12:48:30Z</time>
      </trkpt>
      <trkpt lat="48.800961" lon="7.241165">
        <ele>321.0</ele>
        <time>2020-07-10T12:48:32Z</time>
      </trkpt>
      <trkpt lat="48.800913" lon="7.24113">
        <ele>321.0</ele>
        <time>2020-07-10T12:48:34Z</time>
      </trkpt>
      <trkpt lat="48.800867" lon="7.241092">
        <ele>322.0</ele>
        <time>2020-07-10T12:48:36Z</time>
      </trkpt>
      <trkpt lat="48.800819" lon="7.241048">
        <ele>322.0</ele>
        <time>2020-07-10T12:48:38Z</time>
      </trkpt>
      <trkpt lat="48.800769" lon="7.241003">
        <ele>322.0</ele>
        <time>2020-07-10T12:48:40Z</time>
      </trkpt>
      <trkpt lat="48.800725" lon="7.240964">
        <ele>321.0</ele>
        <time>2020-07-10T12:48:42Z</time>
      </trkpt>
      <trkpt lat="48.800677" lon="7.240917">
        <ele>321.0</ele>
        <time>2020-07-10T12:48:44Z</time>
      </trkpt>
      <trkpt lat="48.800629" lon="7.240863">
        <ele>321.0</ele>
        <time>2020-07-10T12:48:46Z</time>
      </trkpt>
      <trkpt lat="48.800584" lon="7.240805">
        <ele>322.0</ele>
        <time>2020-07-10T12:48:48Z</time>
      </trkpt>
      <trkpt lat="48.800544" lon="7.240749">
        <ele>322.0</ele>
        <time>2020-07-10T12:48:50Z</time>
      </trkpt>
      <trkpt lat="48.800472" lon="7.240657">
        <ele>321.0</ele>
        <time>2020-07-10T12:48:53Z</time>
      </trkpt>
      <trkpt lat="48.800429" lon="7.240595">
        <ele>320.0</ele>
        <time>2020-07-10T12:48:55Z</time>
      </trkpt>
      <trkpt lat="48.800391" lon="7.240525">
        <ele>320.0</ele>
        <time>2020-07-10T12:48:57Z</time>
      </trkpt>
      <trkpt lat="48.800347" lon="7.240473">
        <ele>321.0</ele>
        <time>2020-07-10T12:48:59Z</time>
      </trkpt>
      <trkpt lat="48.800296" lon="7.240433">
        <ele>322.0</ele>
        <time>2020-07-10T12:49:01Z</time>
      </trkpt>
      <trkpt lat="48.800262" lon="7.240373">
        <ele>323.0</ele>
        <time>2020-07-10T12:49:03Z</time>
      </trkpt>
      <trkpt lat="48.800224" lon="7.240296">
        <ele>323.0</ele>
        <time>2020-07-10T12:49:05Z</time>
      </trkpt>
      <trkpt lat="48.800184" lon="7.240224">
        <ele>323.0</ele>
        <time>2020-07-10T12:49:07Z</time>
      </trkpt>
      <trkpt lat="48.800151" lon="7.240153">
        <ele>322.0</ele>
        <time>2020-07-10T12:49:09Z</time>
      </trkpt>
      <trkpt lat="48.800123" lon="7.240069">
        <ele>322.0</ele>
        <time>2020-07-10T12:49:11Z</time>
      </trkpt>
      <trkpt lat="48.800095" lon="7.239959">
        <ele>323.0</ele>
        <time>2020-07-10T12:49:13Z</time>
      </trkpt>
      <trkpt lat="48.800077" lon="7.239816">
        <ele>325.0</ele>
        <time>2020-07-10T12:49:15Z</time>
      </trkpt>
      <trkpt lat="48.800061" lon="7.239696">
        <ele>324.0</ele>
        <time>2020-07-10T12:49:17Z</time>
      </trkpt>
      <trkpt lat="48.800041" lon="7.239594">
        <ele>323.0</ele>
        <time>2020-07-10T12:49:19Z</time>
      </trkpt>
      <trkpt lat="48.800021" lon="7.239486">
        <ele>323.0</ele>
        <time>2020-07-10T12:49:21Z</time>
      </trkpt>
      <trkpt lat="48.800003" lon="7.239376">
        <ele>323.0</ele>
        <time>2020-07-10T12:49:23Z</time>
      </trkpt>
      <trkpt lat="48.800001" lon="7.239279">
        <ele>323.0</ele>
        <time>2020-07-10T12:49:25Z</time>
      </trkpt>
      <trkpt lat="48.800003" lon="7.239167">
        <ele>323.0</ele>
        <time>2020-07-10T12:49:27Z</time>
      </trkpt>
      <trkpt lat="48.800016" lon="7.239061">
        <ele>322.0</ele>
        <time>2020-07-10T12:49:29Z</time>
      </trkpt>
      <trkpt lat="48.800043" lon="7.238935">
        <ele>323.0</ele>
        <time>2020-07-10T12:49:31Z</time>
      </trkpt>
      <trkpt lat="48.800064" lon="7.238822">
        <ele>323.0</ele>
        <time>2020-07-10T12:49:33Z</time>
      </trkpt>
      <trkpt lat="48.800081" lon="7.238704">
        <ele>323.0</ele>
        <time>2020-07-10T12:49:35Z</time>
      </trkpt>
      <trkpt lat="48.800106" lon="7.238592">
        <ele>323.0</ele>
        <time>2020-07-10T12:49:37Z</time>
      </trkpt>
      <trkpt lat="48.800127" lon="7.238468">
        <ele>322.0</ele>
        <time>2020-07-10T12:49:39Z</time>
      </trkpt>
      <trkpt lat="48.800142" lon="7.238355">
        <ele>322.0</ele>
        <time>2020-07-10T12:49:41Z</time>
      </trkpt>
      <trkpt lat="48.800153" lon="7.238251">
        <ele>321.0</ele>
        <time>2020-07-10T12:49:43Z</time>
      </trkpt>
      <trkpt lat="48.800168" lon="7.23814">
        <ele>321.0</ele>
        <time>2020-07-10T12:49:45Z</time>
      </trkpt>
      <trkpt lat="48.800188" lon="7.238025">
        <ele>321.0</ele>
        <time>2020-07-10T12:49:47Z</time>
      </trkpt>
      <trkpt lat="48.800203" lon="7.237917">
        <ele>322.0</ele>
        <time>2020-07-10T12:49:49Z</time>
      </trkpt>
      <trkpt lat="48.800217" lon="7.237811">
        <ele>322.0</ele>
        <time>2020-07-10T12:49:51Z</time>
      </trkpt>
      <trkpt lat="48.800219" lon="7.237697">
        <ele>322.0</ele>
        <time>2020-07-10T12:49:53Z</time>
      </trkpt>
      <trkpt lat="48.800208" lon="7.237595">
        <ele>323.0</ele>
        <time>2020-07-10T12:49:55Z</time>
      </trkpt>
      <trkpt lat="48.800179" lon="7.2375">
        <ele>323.0</ele>
        <time>2020-07-10T12:49:57Z</time>
      </trkpt>
      <trkpt lat="48.800128" lon="7.23741">
        <ele>323.0</ele>
        <time>2020-07-10T12:49:59Z</time>
      </trkpt>
      <trkpt lat="48.800069" lon="7.237326">
        <ele>323.0</ele>
        <time>2020-07-10T12:50:01Z</time>
      </trkpt>
      <trkpt lat="48.800022" lon="7.237238">
        <ele>323.0</ele>
        <time>2020-07-10T12:50:03Z</time>
      </trkpt>
      <trkpt lat="48.799979" lon="7.237149">
        <ele>324.0</ele>
        <time>2020-07-10T12:50:05Z</time>
      </trkpt>
      <trkpt lat="48.799938" lon="7.237068">
        <ele>324.0</ele>
        <time>2020-07-10T12:50:07Z</time>
      </trkpt>
      <trkpt lat="48.799895" lon="7.236993">
        <ele>324.0</ele>
        <time>2020-07-10T12:50:09Z</time>
      </trkpt>
      <trkpt lat="48.799858" lon="7.236918">
        <ele>324.0</ele>
        <time>2020-07-10T12:50:11Z</time>
      </trkpt>
      <trkpt lat="48.799821" lon="7.236837">
        <ele>325.0</ele>
        <time>2020-07-10T12:50:13Z</time>
      </trkpt>
      <trkpt lat="48.799783" lon="7.236763">
        <ele>326.0</ele>
        <time>2020-07-10T12:50:15Z</time>
      </trkpt>
      <trkpt lat="48.799739" lon="7.236679">
        <ele>325.0</ele>
        <time>2020-07-10T12:50:17Z</time>
      </trkpt>
      <trkpt lat="48.79969" lon="7.236613">
        <ele>325.0</ele>
        <time>2020-07-10T12:50:19Z</time>
      </trkpt>
      <trkpt lat="48.799635" lon="7.236574">
        <ele>325.0</ele>
        <time>2020-07-10T12:50:21Z</time>
      </trkpt>
      <trkpt lat="48.799569" lon="7.236568">
        <ele>325.0</ele>
        <time>2020-07-10T12:50:23Z</time>
      </trkpt>
      <trkpt lat="48.799507" lon="7.236575">
        <ele>325.0</ele>
        <time>2020-07-10T12:50:25Z</time>
      </trkpt>
      <trkpt lat="48.799447" lon="7.236597">
        <ele>325.0</ele>
        <time>2020-07-10T12:50:27Z</time>
      </trkpt>
      <trkpt lat="48.799392" lon="7.236629">
        <ele>325.0</ele>
        <time>2020-07-10T12:50:29Z</time>
      </trkpt>
      <trkpt lat="48.799339" lon="7.236683">
        <ele>326.0</ele>
        <time>2020-07-10T12:50:31Z</time>
      </trkpt>
      <trkpt lat="48.799286" lon="7.236739">
        <ele>326.0</ele>
        <time>2020-07-10T12:50:33Z</time>
      </trkpt>
      <trkpt lat="48.79923" lon="7.236795">
        <ele>327.0</ele>
        <time>2020-07-10T12:50:35Z</time>
      </trkpt>
      <trkpt lat="48.799183" lon="7.236858">
        <ele>327.0</ele>
        <time>2020-07-10T12:50:37Z</time>
      </trkpt>
      <trkpt lat="48.799129" lon="7.23692">
        <ele>327.0</ele>
        <time>2020-07-10T12:50:39Z</time>
      </trkpt>
      <trkpt lat="48.799076" lon="7.236975">
        <ele>328.0</ele>
        <time>2020-07-10T12:50:41Z</time>
      </trkpt>
      <trkpt lat="48.799032" lon="7.237032">
        <ele>328.0</ele>
        <time>2020-07-10T12:50:43Z</time>
      </trkpt>
      <trkpt lat="48.798987" lon="7.237083">
        <ele>329.0</ele>
        <time>2020-07-10T12:50:45Z</time>
      </trkpt>
      <trkpt lat="48.798942" lon="7.23714">
        <ele>329.0</ele>
        <time>2020-07-10T12:50:47Z</time>
      </trkpt>
      <trkpt lat="48.798901" lon="7.237193">
        <ele>329.0</ele>
        <time>2020-07-10T12:50:49Z</time>
      </trkpt>
      <trkpt lat="48.798863" lon="7.237237">
        <ele>330.0</ele>
        <time>2020-07-10T12:50:51Z</time>
      </trkpt>
      <trkpt lat="48.798823" lon="7.237283">
        <ele>330.0</ele>
        <time>2020-07-10T12:50:53Z</time>
      </trkpt>
      <trkpt lat="48.798782" lon="7.237332">
        <ele>329.0</ele>
        <time>2020-07-10T12:50:55Z</time>
      </trkpt>
      <trkpt lat="48.798741" lon="7.237381">
        <ele>330.0</ele>
        <time>2020-07-10T12:50:57Z</time>
      </trkpt>
      <trkpt lat="48.798705" lon="7.237431">
        <ele>330.0</ele>
        <time>2020-07-10T12:50:59Z</time>
      </trkpt>
      <trkpt lat="48.798664" lon="7.237479">
        <ele>330.0</ele>
        <time>2020-07-10T12:51:01Z</time>
      </trkpt>
      <trkpt lat="48.798624" lon="7.237518">
        <ele>331.0</ele>
        <time>2020-07-10T12:51:03Z</time>
      </trkpt>
      <trkpt lat="48.798583" lon="7.237559">
        <ele>331.0</ele>
        <time>2020-07-10T12:51:05Z</time>
      </trkpt>
      <trkpt lat="48.798541" lon="7.237602">
        <ele>331.0</ele>
        <time>2020-07-10T12:51:07Z</time>
      </trkpt>
      <trkpt lat="48.798498" lon="7.237646">
        <ele>332.0</ele>
        <time>2020-07-10T12:51:09Z</time>
      </trkpt>
      <trkpt lat="48.798455" lon="7.237696">
        <ele>332.0</ele>
        <time>2020-07-10T12:51:11Z</time>
      </trkpt>
      <trkpt lat="48.798414" lon="7.237752">
        <ele>332.0</ele>
        <time>2020-07-10T12:51:13Z</time>
      </trkpt>
      <trkpt lat="48.798372" lon="7.237813">
        <ele>333.0</ele>
        <time>2020-07-10T12:51:15Z</time>
      </trkpt>
      <trkpt lat="48.798334" lon="7.237866">
        <ele>332.0</ele>
        <time>2020-07-10T12:51:17Z</time>
      </trkpt>
      <trkpt lat="48.798295" lon="7.237916">
        <ele>332.0</ele>
        <time>2020-07-10T12:51:19Z</time>
      </trkpt>
      <trkpt lat="48.798252" lon="7.237965">
        <ele>333.0</ele>
        <time>2020-07-10T12:51:21Z</time>
      </trkpt>
      <trkpt lat="48.798209" lon="7.23801">
        <ele>333.0</ele>
        <time>2020-07-10T12:51:23Z</time>
      </trkpt>
      <trkpt lat="48.798167" lon="7.23806">
        <ele>333.0</ele>
        <time>2020-07-10T12:51:25Z</time>
      </trkpt>
      <trkpt lat="48.798125" lon="7.238102">
        <ele>333.0</ele>
        <time>2020-07-10T12:51:27Z</time>
      </trkpt>
      <trkpt lat="48.79808" lon="7.238146">
        <ele>333.0</ele>
        <time>2020-07-10T12:51:29Z</time>
      </trkpt>
      <trkpt lat="48.798041" lon="7.238195">
        <ele>334.0</ele>
        <time>2020-07-10T12:51:31Z</time>
      </trkpt>
      <trkpt lat="48.798" lon="7.238237">
        <ele>334.0</ele>
        <time>2020-07-10T12:51:33Z</time>
      </trkpt>
      <trkpt lat="48.797963" lon="7.238287">
        <ele>335.0</ele>
        <time>2020-07-10T12:51:35Z</time>
      </trkpt>
      <trkpt lat="48.797926" lon="7.23833">
        <ele>334.0</ele>
        <time>2020-07-10T12:51:37Z</time>
      </trkpt>
      <trkpt lat="48.79787" lon="7.238401">
        <ele>333.0</ele>
        <time>2020-07-10T12:51:40Z</time>
      </trkpt>
      <trkpt lat="48.797825" lon="7.238451">
        <ele>334.0</ele>
        <time>2020-07-10T12:51:42Z</time>
      </trkpt>
      <trkpt lat="48.797782" lon="7.238505">
        <ele>334.0</ele>
        <time>2020-07-10T12:51:44Z</time>
      </trkpt>
      <trkpt lat="48.797747" lon="7.238557">
        <ele>335.0</ele>
        <time>2020-07-10T12:51:46Z</time>
      </trkpt>
      <trkpt lat="48.797718" lon="7.238596">
        <ele>335.0</ele>
        <time>2020-07-10T12:51:48Z</time>
      </trkpt>
      <trkpt lat="48.797692" lon="7.238625">
        <ele>334.0</ele>
        <time>2020-07-10T12:51:50Z</time>
      </trkpt>
      <trkpt lat="48.797656" lon="7.238669">
        <ele>334.0</ele>
        <time>2020-07-10T12:51:52Z</time>
      </trkpt>
      <trkpt lat="48.797619" lon="7.238719">
        <ele>334.0</ele>
        <time>2020-07-10T12:51:54Z</time>
      </trkpt>
      <trkpt lat="48.797576" lon="7.238776">
        <ele>335.0</ele>
        <time>2020-07-10T12:51:56Z</time>
      </trkpt>
      <trkpt lat="48.797531" lon="7.238837">
        <ele>335.0</ele>
        <time>2020-07-10T12:51:58Z</time>
      </trkpt>
      <trkpt lat="48.79748" lon="7.238897">
        <ele>335.0</ele>
        <time>2020-07-10T12:52:00Z</time>
      </trkpt>
      <trkpt lat="48.797423" lon="7.238958">
        <ele>335.0</ele>
        <time>2020-07-10T12:52:02Z</time>
      </trkpt>
      <trkpt lat="48.797363" lon="7.23901">
        <ele>336.0</ele>
        <time>2020-07-10T12:52:04Z</time>
      </trkpt>
      <trkpt lat="48.7973" lon="7.239064">
        <ele>335.0</ele>
        <time>2020-07-10T12:52:06Z</time>
      </trkpt>
      <trkpt lat="48.797231" lon="7.239126">
        <ele>335.0</ele>
        <time>2020-07-10T12:52:08Z</time>
      </trkpt>
      <trkpt lat="48.797166" lon="7.239186">
        <ele>334.0</ele>
        <time>2020-07-10T12:52:10Z</time>
      </trkpt>
      <trkpt lat="48.797104" lon="7.239243">
        <ele>334.0</ele>
        <time>2020-07-10T12:52:12Z</time>
      </trkpt>
      <trkpt lat="48.797037" lon="7.239295">
        <ele>334.0</ele>
        <time>2020-07-10T12:52:14Z</time>
      </trkpt>
      <trkpt lat="48.796964" lon="7.239345">
        <ele>334.0</ele>
        <time>2020-07-10T12:52:16Z</time>
      </trkpt>
      <trkpt lat="48.796891" lon="7.2394">
        <ele>334.0</ele>
        <time>2020-07-10T12:52:18Z</time>
      </trkpt>
      <trkpt lat="48.79682" lon="7.239457">
        <ele>335.0</ele>
        <time>2020-07-10T12:52:20Z</time>
      </trkpt>
      <trkpt lat="48.796752" lon="7.23951">
        <ele>334.0</ele>
        <time>2020-07-10T12:52:22Z</time>
      </trkpt>
      <trkpt lat="48.796678" lon="7.239567">
        <ele>334.0</ele>
        <time>2020-07-10T12:52:24Z</time>
      </trkpt>
      <trkpt lat="48.796604" lon="7.239624">
        <ele>335.0</ele>
        <time>2020-07-10T12:52:26Z</time>
      </trkpt>
      <trkpt lat="48.796528" lon="7.239672">
        <ele>335.0</ele>
        <time>2020-07-10T12:52:28Z</time>
      </trkpt>
      <trkpt lat="48.796454" lon="7.239722">
        <ele>335.0</ele>
        <time>2020-07-10T12:52:30Z</time>
      </trkpt>
      <trkpt lat="48.796384" lon="7.239771">
        <ele>336.0</ele>
        <time>2020-07-10T12:52:32Z</time>
      </trkpt>
      <trkpt lat="48.796311" lon="7.23982">
        <ele>336.0</ele>
        <time>2020-07-10T12:52:34Z</time>
      </trkpt>
      <trkpt lat="48.79624" lon="7.239867">
        <ele>337.0</ele>
        <time>2020-07-10T12:52:36Z</time>
      </trkpt>
      <trkpt lat="48.796172" lon="7.239919">
        <ele>337.0</ele>
        <time>2020-07-10T12:52:38Z</time>
      </trkpt>
      <trkpt lat="48.796106" lon="7.239968">
        <ele>338.0</ele>
        <time>2020-07-10T12:52:40Z</time>
      </trkpt>
      <trkpt lat="48.796038" lon="7.240022">
        <ele>338.0</ele>
        <time>2020-07-10T12:52:42Z</time>
      </trkpt>
      <trkpt lat="48.795971" lon="7.240072">
        <ele>339.0</ele>
        <time>2020-07-10T12:52:44Z</time>
      </trkpt>
      <trkpt lat="48.795907" lon="7.240122">
        <ele>339.0</ele>
        <time>2020-07-10T12:52:46Z</time>
      </trkpt>
      <trkpt lat="48.795843" lon="7.24017">
        <ele>340.0</ele>
        <time>2020-07-10T12:52:48Z</time>
      </trkpt>
      <trkpt lat="48.795783" lon="7.240216">
        <ele>340.0</ele>
        <time>2020-07-10T12:52:50Z</time>
      </trkpt>
      <trkpt lat="48.79572" lon="7.240263">
        <ele>340.0</ele>
        <time>2020-07-10T12:52:52Z</time>
      </trkpt>
      <trkpt lat="48.795658" lon="7.240305">
        <ele>340.0</ele>
        <time>2020-07-10T12:52:54Z</time>
      </trkpt>
      <trkpt lat="48.795595" lon="7.240353">
        <ele>340.0</ele>
        <time>2020-07-10T12:52:56Z</time>
      </trkpt>
      <trkpt lat="48.795532" lon="7.240404">
        <ele>340.0</ele>
        <time>2020-07-10T12:52:58Z</time>
      </trkpt>
      <trkpt lat="48.795474" lon="7.240451">
        <ele>341.0</ele>
        <time>2020-07-10T12:53:00Z</time>
      </trkpt>
      <trkpt lat="48.795412" lon="7.240494">
        <ele>341.0</ele>
        <time>2020-07-10T12:53:02Z</time>
      </trkpt>
      <trkpt lat="48.795356" lon="7.24054">
        <ele>341.0</ele>
        <time>2020-07-10T12:53:04Z</time>
      </trkpt>
      <trkpt lat="48.795296" lon="7.240587">
        <ele>341.0</ele>
        <time>2020-07-10T12:53:06Z</time>
      </trkpt>
      <trkpt lat="48.795235" lon="7.24063">
        <ele>341.0</ele>
        <time>2020-07-10T12:53:08Z</time>
      </trkpt>
      <trkpt lat="48.795172" lon="7.240678">
        <ele>342.0</ele>
        <time>2020-07-10T12:53:10Z</time>
      </trkpt>
      <trkpt lat="48.795114" lon="7.240718">
        <ele>341.0</ele>
        <time>2020-07-10T12:53:12Z</time>
      </trkpt>
      <trkpt lat="48.795056" lon="7.240757">
        <ele>342.0</ele>
        <time>2020-07-10T12:53:14Z</time>
      </trkpt>
      <trkpt lat="48.794999" lon="7.240796">
        <ele>342.0</ele>
        <time>2020-07-10T12:53:16Z</time>
      </trkpt>
      <trkpt lat="48.794936" lon="7.240839">
        <ele>342.0</ele>
        <time>2020-07-10T12:53:18Z</time>
      </trkpt>
      <trkpt lat="48.794874" lon="7.240881">
        <ele>342.0</ele>
        <time>2020-07-10T12:53:20Z</time>
      </trkpt>
      <trkpt lat="48.794813" lon="7.240927">
        <ele>342.0</ele>
        <time>2020-07-10T12:53:22Z</time>
      </trkpt>
      <trkpt lat="48.794749" lon="7.240967">
        <ele>343.0</ele>
        <time>2020-07-10T12:53:24Z</time>
      </trkpt>
      <trkpt lat="48.794691" lon="7.241009">
        <ele>343.0</ele>
        <time>2020-07-10T12:53:26Z</time>
      </trkpt>
      <trkpt lat="48.794636" lon="7.241056">
        <ele>343.0</ele>
        <time>2020-07-10T12:53:28Z</time>
      </trkpt>
      <trkpt lat="48.794577" lon="7.241094">
        <ele>342.0</ele>
        <time>2020-07-10T12:53:30Z</time>
      </trkpt>
      <trkpt lat="48.794518" lon="7.241123">
        <ele>343.0</ele>
        <time>2020-07-10T12:53:32Z</time>
      </trkpt>
      <trkpt lat="48.794456" lon="7.24116">
        <ele>343.0</ele>
        <time>2020-07-10T12:53:34Z</time>
      </trkpt>
      <trkpt lat="48.794395" lon="7.24118">
        <ele>343.0</ele>
        <time>2020-07-10T12:53:36Z</time>
      </trkpt>
      <trkpt lat="48.79433" lon="7.241198">
        <ele>343.0</ele>
        <time>2020-07-10T12:53:38Z</time>
      </trkpt>
      <trkpt lat="48.794268" lon="7.241208">
        <ele>344.0</ele>
        <time>2020-07-10T12:53:40Z</time>
      </trkpt>
      <trkpt lat="48.794206" lon="7.241217">
        <ele>344.0</ele>
        <time>2020-07-10T12:53:42Z</time>
      </trkpt>
      <trkpt lat="48.794141" lon="7.241216">
        <ele>344.0</ele>
        <time>2020-07-10T12:53:44Z</time>
      </trkpt>
      <trkpt lat="48.794077" lon="7.241217">
        <ele>345.0</ele>
        <time>2020-07-10T12:53:46Z</time>
      </trkpt>
      <trkpt lat="48.794012" lon="7.24122">
        <ele>344.0</ele>
        <time>2020-07-10T12:53:48Z</time>
      </trkpt>
      <trkpt lat="48.793948" lon="7.241211">
        <ele>345.0</ele>
        <time>2020-07-10T12:53:50Z</time>
      </trkpt>
      <trkpt lat="48.793883" lon="7.241194">
        <ele>344.0</ele>
        <time>2020-07-10T12:53:52Z</time>
      </trkpt>
      <trkpt lat="48.793822" lon="7.241181">
        <ele>345.0</ele>
        <time>2020-07-10T12:53:54Z</time>
      </trkpt>
      <trkpt lat="48.793759" lon="7.241164">
        <ele>345.0</ele>
        <time>2020-07-10T12:53:56Z</time>
      </trkpt>
      <trkpt lat="48.793697" lon="7.241132">
        <ele>345.0</ele>
        <time>2020-07-10T12:53:58Z</time>
      </trkpt>
      <trkpt lat="48.793634" lon="7.241102">
        <ele>346.0</ele>
        <time>2020-07-10T12:54:00Z</time>
      </trkpt>
      <trkpt lat="48.793576" lon="7.241071">
        <ele>346.0</ele>
        <time>2020-07-10T12:54:02Z</time>
      </trkpt>
      <trkpt lat="48.79352" lon="7.24103">
        <ele>347.0</ele>
        <time>2020-07-10T12:54:04Z</time>
      </trkpt>
      <trkpt lat="48.793466" lon="7.240974">
        <ele>347.0</ele>
        <time>2020-07-10T12:54:06Z</time>
      </trkpt>
      <trkpt lat="48.79341" lon="7.240931">
        <ele>347.0</ele>
        <time>2020-07-10T12:54:08Z</time>
      </trkpt>
      <trkpt lat="48.793355" lon="7.240874">
        <ele>347.0</ele>
        <time>2020-07-10T12:54:10Z</time>
      </trkpt>
      <trkpt lat="48.7933" lon="7.240817">
        <ele>347.0</ele>
        <time>2020-07-10T12:54:12Z</time>
      </trkpt>
      <trkpt lat="48.793255" lon="7.240754">
        <ele>348.0</ele>
        <time>2020-07-10T12:54:14Z</time>
      </trkpt>
      <trkpt lat="48.793217" lon="7.240708">
        <ele>348.0</ele>
        <time>2020-07-10T12:54:16Z</time>
      </trkpt>
      <trkpt lat="48.793183" lon="7.240676">
        <ele>348.0</ele>
        <time>2020-07-10T12:54:18Z</time>
      </trkpt>
      <trkpt lat="48.793156" lon="7.240634">
        <ele>348.0</ele>
        <time>2020-07-10T12:54:20Z</time>
      </trkpt>
      <trkpt lat="48.793122" lon="7.240587">
        <ele>348.0</ele>
        <time>2020-07-10T12:54:22Z</time>
      </trkpt>
      <trkpt lat="48.793057" lon="7.240504">
        <ele>348.0</ele>
        <time>2020-07-10T12:54:25Z</time>
      </trkpt>
      <trkpt lat="48.793012" lon="7.240431">
        <ele>348.0</ele>
        <time>2020-07-10T12:54:27Z</time>
      </trkpt>
      <trkpt lat="48.792959" lon="7.240364">
        <ele>348.0</ele>
        <time>2020-07-10T12:54:29Z</time>
      </trkpt>
      <trkpt lat="48.792907" lon="7.240292">
        <ele>348.0</ele>
        <time>2020-07-10T12:54:31Z</time>
      </trkpt>
      <trkpt lat="48.792853" lon="7.240219">
        <ele>348.0</ele>
        <time>2020-07-10T12:54:33Z</time>
      </trkpt>
      <trkpt lat="48.792799" lon="7.240143">
        <ele>349.0</ele>
        <time>2020-07-10T12:54:35Z</time>
      </trkpt>
      <trkpt lat="48.792743" lon="7.240068">
        <ele>348.0</ele>
        <time>2020-07-10T12:54:37Z</time>
      </trkpt>
      <trkpt lat="48.79269" lon="7.23997">
        <ele>347.0</ele>
        <time>2020-07-10T12:54:39Z</time>
      </trkpt>
      <trkpt lat="48.792627" lon="7.239891">
        <ele>347.0</ele>
        <time>2020-07-10T12:54:41Z</time>
      </trkpt>
      <trkpt lat="48.792563" lon="7.239811">
        <ele>347.0</ele>
        <time>2020-07-10T12:54:43Z</time>
      </trkpt>
      <trkpt lat="48.792494" lon="7.23973">
        <ele>347.0</ele>
        <time>2020-07-10T12:54:45Z</time>
      </trkpt>
      <trkpt lat="48.792424" lon="7.239644">
        <ele>347.0</ele>
        <time>2020-07-10T12:54:47Z</time>
      </trkpt>
      <trkpt lat="48.79236" lon="7.239558">
        <ele>347.0</ele>
        <time>2020-07-10T12:54:49Z</time>
      </trkpt>
      <trkpt lat="48.792294" lon="7.239478">
        <ele>347.0</ele>
        <time>2020-07-10T12:54:51Z</time>
      </trkpt>
      <trkpt lat="48.792231" lon="7.239399">
        <ele>347.0</ele>
        <time>2020-07-10T12:54:53Z</time>
      </trkpt>
      <trkpt lat="48.792161" lon="7.239325">
        <ele>347.0</ele>
        <time>2020-07-10T12:54:55Z</time>
      </trkpt>
      <trkpt lat="48.792087" lon="7.23925">
        <ele>347.0</ele>
        <time>2020-07-10T12:54:57Z</time>
      </trkpt>
      <trkpt lat="48.792011" lon="7.23917">
        <ele>347.0</ele>
        <time>2020-07-10T12:54:59Z</time>
      </trkpt>
      <trkpt lat="48.79193" lon="7.239095">
        <ele>347.0</ele>
        <time>2020-07-10T12:55:01Z</time>
      </trkpt>
      <trkpt lat="48.791852" lon="7.23902">
        <ele>346.0</ele>
        <time>2020-07-10T12:55:03Z</time>
      </trkpt>
      <trkpt lat="48.791775" lon="7.238946">
        <ele>346.0</ele>
        <time>2020-07-10T12:55:05Z</time>
      </trkpt>
      <trkpt lat="48.791705" lon="7.238863">
        <ele>346.0</ele>
        <time>2020-07-10T12:55:07Z</time>
      </trkpt>
      <trkpt lat="48.791627" lon="7.238793">
        <ele>346.0</ele>
        <time>2020-07-10T12:55:09Z</time>
      </trkpt>
      <trkpt lat="48.791554" lon="7.238719">
        <ele>346.0</ele>
        <time>2020-07-10T12:55:11Z</time>
      </trkpt>
      <trkpt lat="48.791475" lon="7.238641">
        <ele>345.0</ele>
        <time>2020-07-10T12:55:13Z</time>
      </trkpt>
      <trkpt lat="48.791403" lon="7.238566">
        <ele>345.0</ele>
        <time>2020-07-10T12:55:15Z</time>
      </trkpt>
      <trkpt lat="48.791335" lon="7.238493">
        <ele>345.0</ele>
        <time>2020-07-10T12:55:17Z</time>
      </trkpt>
      <trkpt lat="48.791266" lon="7.238429">
        <ele>345.0</ele>
        <time>2020-07-10T12:55:19Z</time>
      </trkpt>
      <trkpt lat="48.791195" lon="7.238361">
        <ele>345.0</ele>
        <time>2020-07-10T12:55:21Z</time>
      </trkpt>
      <trkpt lat="48.791125" lon="7.238288">
        <ele>345.0</ele>
        <time>2020-07-10T12:55:23Z</time>
      </trkpt>
      <trkpt lat="48.791056" lon="7.238217">
        <ele>345.0</ele>
        <time>2020-07-10T12:55:25Z</time>
      </trkpt>
      <trkpt lat="48.790989" lon="7.238146">
        <ele>344.0</ele>
        <time>2020-07-10T12:55:27Z</time>
      </trkpt>
      <trkpt lat="48.790926" lon="7.238071">
        <ele>344.0</ele>
        <time>2020-07-10T12:55:29Z</time>
      </trkpt>
      <trkpt lat="48.790877" lon="7.237994">
        <ele>344.0</ele>
        <time>2020-07-10T12:55:31Z</time>
      </trkpt>
      <trkpt lat="48.790829" lon="7.237903">
        <ele>344.0</ele>
        <time>2020-07-10T12:55:33Z</time>
      </trkpt>
      <trkpt lat="48.790782" lon="7.237813">
        <ele>344.0</ele>
        <time>2020-07-10T12:55:35Z</time>
      </trkpt>
      <trkpt lat="48.790735" lon="7.237715">
        <ele>344.0</ele>
        <time>2020-07-10T12:55:37Z</time>
      </trkpt>
      <trkpt lat="48.790696" lon="7.237637">
        <ele>344.0</ele>
        <time>2020-07-10T12:55:39Z</time>
      </trkpt>
      <trkpt lat="48.790667" lon="7.237589">
        <ele>344.0</ele>
        <time>2020-07-10T12:55:41Z</time>
      </trkpt>
      <trkpt lat="48.790652" lon="7.23758">
        <ele>344.0</ele>
        <time>2020-07-10T12:55:43Z</time>
      </trkpt>
      <trkpt lat="48.790649" lon="7.237579">
        <ele>344.0</ele>
        <time>2020-07-10T12:55:45Z</time>
      </trkpt>
      <trkpt lat="48.790651" lon="7.237575">
        <ele>344.0</ele>
        <time>2020-07-10T12:55:47Z</time>
      </trkpt>
      <trkpt lat="48.790651" lon="7.237575">
        <ele>344.0</ele>
        <time>2020-07-10T12:55:49Z</time>
      </trkpt>
      <trkpt lat="48.790651" lon="7.237575">
        <ele>344.0</ele>
        <time>2020-07-10T12:55:57Z</time>
      </trkpt>
      <trkpt lat="48.790651" lon="7.237575">
        <ele>344.0</ele>
        <time>2020-07-10T12:55:59Z</time>
      </trkpt>
      <trkpt lat="48.790651" lon="7.237575">
        <ele>344.0</ele>
        <time>2020-07-10T12:56:01Z</time>
      </trkpt>
      <trkpt lat="48.790651" lon="7.237575">
        <ele>344.0</ele>
        <time>2020-07-10T12:56:03Z</time>
      </trkpt>
      <trkpt lat="48.790651" lon="7.237575">
        <ele>344.0</ele>
        <time>2020-07-10T12:56:05Z</time>
      </trkpt>
      <trkpt lat="48.790651" lon="7.237575">
        <ele>344.0</ele>
        <time>2020-07-10T12:56:07Z</time>
      </trkpt>
      <trkpt lat="48.790651" lon="7.237575">
        <ele>344.0</ele>
        <time>2020-07-10T12:56:09Z</time>
      </trkpt>
      <trkpt lat="48.790651" lon="7.237575">
        <ele>344.0</ele>
        <time>2020-07-10T12:56:11Z</time>
      </trkpt>
      <trkpt lat="48.790651" lon="7.237575">
        <ele>344.0</ele>
        <time>2020-07-10T12:56:13Z</time>
      </trkpt>
      <trkpt lat="48.790651" lon="7.237575">
        <ele>344.0</ele>
        <time>2020-07-10T12:56:15Z</time>
      </trkpt>
      <trkpt lat="48.790651" lon="7.237575">
        <ele>344.0</ele>
        <time>2020-07-10T12:56:17Z</time>
      </trkpt>
      <trkpt lat="48.790651" lon="7.237575">
        <ele>344.0</ele>
        <time>2020-07-10T12:56:19Z</time>
      </trkpt>
      <trkpt lat="48.790654" lon="7.237571">
        <ele>344.0</ele>
        <time>2020-07-10T12:56:21Z</time>
      </trkpt>
      <trkpt lat="48.79064" lon="7.237539">
        <ele>344.0</ele>
        <time>2020-07-10T12:56:23Z</time>
      </trkpt>
      <trkpt lat="48.790604" lon="7.237506">
        <ele>344.0</ele>
        <time>2020-07-10T12:56:25Z</time>
      </trkpt>
      <trkpt lat="48.790564" lon="7.237468">
        <ele>345.0</ele>
        <time>2020-07-10T12:56:27Z</time>
      </trkpt>
      <trkpt lat="48.790522" lon="7.237417">
        <ele>345.0</ele>
        <time>2020-07-10T12:56:29Z</time>
      </trkpt>
      <trkpt lat="48.790481" lon="7.23737">
        <ele>345.0</ele>
        <time>2020-07-10T12:56:31Z</time>
      </trkpt>
      <trkpt lat="48.790445" lon="7.237351">
        <ele>344.0</ele>
        <time>2020-07-10T12:56:33Z</time>
      </trkpt>
      <trkpt lat="48.790442" lon="7.23735">
        <ele>344.0</ele>
        <time>2020-07-10T12:56:35Z</time>
      </trkpt>
      <trkpt lat="48.790444" lon="7.237354">
        <ele>344.0</ele>
        <time>2020-07-10T12:56:37Z</time>
      </trkpt>
      <trkpt lat="48.790444" lon="7.237354">
        <ele>344.0</ele>
        <time>2020-07-10T12:56:39Z</time>
      </trkpt>
      <trkpt lat="48.790444" lon="7.237354">
        <ele>344.0</ele>
        <time>2020-07-10T12:56:41Z</time>
      </trkpt>
      <trkpt lat="48.790444" lon="7.237354">
        <ele>344.0</ele>
        <time>2020-07-10T12:57:47Z</time>
      </trkpt>
      <trkpt lat="48.790444" lon="7.237354">
        <ele>344.0</ele>
        <time>2020-07-10T12:57:49Z</time>
      </trkpt>
      <trkpt lat="48.790444" lon="7.237354">
        <ele>344.0</ele>
        <time>2020-07-10T12:57:51Z</time>
      </trkpt>
      <trkpt lat="48.790444" lon="7.237354">
        <ele>344.0</ele>
        <time>2020-07-10T12:57:53Z</time>
      </trkpt>
      <trkpt lat="48.790444" lon="7.237354">
        <ele>344.0</ele>
        <time>2020-07-10T12:57:55Z</time>
      </trkpt>
      <trkpt lat="48.790444" lon="7.237354">
        <ele>344.0</ele>
        <time>2020-07-10T12:57:57Z</time>
      </trkpt>
      <trkpt lat="48.790444" lon="7.237354">
        <ele>344.0</ele>
        <time>2020-07-10T12:57:59Z</time>
      </trkpt>
      <trkpt lat="48.790444" lon="7.237354">
        <ele>344.0</ele>
        <time>2020-07-10T12:58:01Z</time>
      </trkpt>
      <trkpt lat="48.790444" lon="7.237354">
        <ele>344.0</ele>
        <time>2020-07-10T12:58:03Z</time>
      </trkpt>
      <trkpt lat="48.790444" lon="7.237354">
        <ele>344.0</ele>
        <time>2020-07-10T12:58:05Z</time>
      </trkpt>
      <trkpt lat="48.790444" lon="7.237354">
        <ele>344.0</ele>
        <time>2020-07-10T12:58:07Z</time>
      </trkpt>
      <trkpt lat="48.790444" lon="7.237354">
        <ele>344.0</ele>
        <time>2020-07-10T12:58:09Z</time>
      </trkpt>
      <trkpt lat="48.79043" lon="7.237342">
        <ele>343.0</ele>
        <time>2020-07-10T12:58:11Z</time>
      </trkpt>
      <trkpt lat="48.790453" lon="7.237324">
        <ele>344.0</ele>
        <time>2020-07-10T12:58:13Z</time>
      </trkpt>
      <trkpt lat="48.790485" lon="7.237349">
        <ele>344.0</ele>
        <time>2020-07-10T12:58:15Z</time>
      </trkpt>
      <trkpt lat="48.790508" lon="7.237397">
        <ele>344.0</ele>
        <time>2020-07-10T12:58:17Z</time>
      </trkpt>
      <trkpt lat="48.790518" lon="7.237463">
        <ele>344.0</ele>
        <time>2020-07-10T12:58:19Z</time>
      </trkpt>
      <trkpt lat="48.790531" lon="7.237517">
        <ele>344.0</ele>
        <time>2020-07-10T12:58:21Z</time>
      </trkpt>
      <trkpt lat="48.790542" lon="7.237579">
        <ele>344.0</ele>
        <time>2020-07-10T12:58:23Z</time>
      </trkpt>
      <trkpt lat="48.790567" lon="7.237654">
        <ele>344.0</ele>
        <time>2020-07-10T12:58:25Z</time>
      </trkpt>
      <trkpt lat="48.790605" lon="7.237731">
        <ele>345.0</ele>
        <time>2020-07-10T12:58:27Z</time>
      </trkpt>
      <trkpt lat="48.79066" lon="7.2378">
        <ele>345.0</ele>
        <time>2020-07-10T12:58:29Z</time>
      </trkpt>
      <trkpt lat="48.790716" lon="7.237873">
        <ele>345.0</ele>
        <time>2020-07-10T12:58:31Z</time>
      </trkpt>
      <trkpt lat="48.790774" lon="7.237945">
        <ele>346.0</ele>
        <time>2020-07-10T12:58:33Z</time>
      </trkpt>
      <trkpt lat="48.790832" lon="7.238016">
        <ele>346.0</ele>
        <time>2020-07-10T12:58:35Z</time>
      </trkpt>
      <trkpt lat="48.790892" lon="7.238084">
        <ele>346.0</ele>
        <time>2020-07-10T12:58:37Z</time>
      </trkpt>
      <trkpt lat="48.79095" lon="7.238159">
        <ele>346.0</ele>
        <time>2020-07-10T12:58:39Z</time>
      </trkpt>
      <trkpt lat="48.791015" lon="7.238226">
        <ele>345.0</ele>
        <time>2020-07-10T12:58:41Z</time>
      </trkpt>
      <trkpt lat="48.791076" lon="7.238294">
        <ele>345.0</ele>
        <time>2020-07-10T12:58:43Z</time>
      </trkpt>
      <trkpt lat="48.791142" lon="7.238358">
        <ele>345.0</ele>
        <time>2020-07-10T12:58:45Z</time>
      </trkpt>
      <trkpt lat="48.791208" lon="7.23844">
        <ele>344.0</ele>
        <time>2020-07-10T12:58:47Z</time>
      </trkpt>
      <trkpt lat="48.79128" lon="7.238505">
        <ele>344.0</ele>
        <time>2020-07-10T12:58:49Z</time>
      </trkpt>
      <trkpt lat="48.791346" lon="7.238573">
        <ele>344.0</ele>
        <time>2020-07-10T12:58:51Z</time>
      </trkpt>
      <trkpt lat="48.791413" lon="7.238643">
        <ele>345.0</ele>
        <time>2020-07-10T12:58:53Z</time>
      </trkpt>
      <trkpt lat="48.791477" lon="7.238715">
        <ele>345.0</ele>
        <time>2020-07-10T12:58:55Z</time>
      </trkpt>
      <trkpt lat="48.791541" lon="7.238778">
        <ele>345.0</ele>
        <time>2020-07-10T12:58:57Z</time>
      </trkpt>
      <trkpt lat="48.791612" lon="7.23884">
        <ele>345.0</ele>
        <time>2020-07-10T12:58:59Z</time>
      </trkpt>
      <trkpt lat="48.791682" lon="7.238902">
        <ele>345.0</ele>
        <time>2020-07-10T12:59:01Z</time>
      </trkpt>
      <trkpt lat="48.791749" lon="7.238967">
        <ele>345.0</ele>
        <time>2020-07-10T12:59:03Z</time>
      </trkpt>
      <trkpt lat="48.791815" lon="7.239041">
        <ele>345.0</ele>
        <time>2020-07-10T12:59:05Z</time>
      </trkpt>
      <trkpt lat="48.791878" lon="7.239104">
        <ele>345.0</ele>
        <time>2020-07-10T12:59:07Z</time>
      </trkpt>
      <trkpt lat="48.791946" lon="7.239173">
        <ele>345.0</ele>
        <time>2020-07-10T12:59:09Z</time>
      </trkpt>
      <trkpt lat="48.792042" lon="7.239276">
        <ele>346.0</ele>
        <time>2020-07-10T12:59:12Z</time>
      </trkpt>
      <trkpt lat="48.792106" lon="7.239346">
        <ele>346.0</ele>
        <time>2020-07-10T12:59:14Z</time>
      </trkpt>
      <trkpt lat="48.792169" lon="7.239409">
        <ele>346.0</ele>
        <time>2020-07-10T12:59:16Z</time>
      </trkpt>
      <trkpt lat="48.792231" lon="7.239474">
        <ele>345.0</ele>
        <time>2020-07-10T12:59:18Z</time>
      </trkpt>
      <trkpt lat="48.792295" lon="7.23955">
        <ele>346.0</ele>
        <time>2020-07-10T12:59:20Z</time>
      </trkpt>
      <trkpt lat="48.792354" lon="7.239624">
        <ele>345.0</ele>
        <time>2020-07-10T12:59:22Z</time>
      </trkpt>
      <trkpt lat="48.792416" lon="7.239701">
        <ele>346.0</ele>
        <time>2020-07-10T12:59:24Z</time>
      </trkpt>
      <trkpt lat="48.792475" lon="7.239784">
        <ele>346.0</ele>
        <time>2020-07-10T12:59:26Z</time>
      </trkpt>
      <trkpt lat="48.792529" lon="7.239859">
        <ele>347.0</ele>
        <time>2020-07-10T12:59:28Z</time>
      </trkpt>
      <trkpt lat="48.792587" lon="7.239932">
        <ele>347.0</ele>
        <time>2020-07-10T12:59:30Z</time>
      </trkpt>
      <trkpt lat="48.792647" lon="7.240009">
        <ele>347.0</ele>
        <time>2020-07-10T12:59:32Z</time>
      </trkpt>
      <trkpt lat="48.792704" lon="7.240092">
        <ele>347.0</ele>
        <time>2020-07-10T12:59:34Z</time>
      </trkpt>
      <trkpt lat="48.792764" lon="7.240171">
        <ele>348.0</ele>
        <time>2020-07-10T12:59:36Z</time>
      </trkpt>
      <trkpt lat="48.792822" lon="7.240254">
        <ele>348.0</ele>
        <time>2020-07-10T12:59:38Z</time>
      </trkpt>
      <trkpt lat="48.792882" lon="7.240336">
        <ele>348.0</ele>
        <time>2020-07-10T12:59:40Z</time>
      </trkpt>
      <trkpt lat="48.792948" lon="7.240418">
        <ele>347.0</ele>
        <time>2020-07-10T12:59:42Z</time>
      </trkpt>
      <trkpt lat="48.793011" lon="7.240499">
        <ele>347.0</ele>
        <time>2020-07-10T12:59:44Z</time>
      </trkpt>
      <trkpt lat="48.793071" lon="7.240584">
        <ele>348.0</ele>
        <time>2020-07-10T12:59:46Z</time>
      </trkpt>
      <trkpt lat="48.793139" lon="7.240676">
        <ele>348.0</ele>
        <time>2020-07-10T12:59:48Z</time>
      </trkpt>
      <trkpt lat="48.793207" lon="7.240769">
        <ele>348.0</ele>
        <time>2020-07-10T12:59:50Z</time>
      </trkpt>
      <trkpt lat="48.793275" lon="7.240851">
        <ele>348.0</ele>
        <time>2020-07-10T12:59:52Z</time>
      </trkpt>
      <trkpt lat="48.793346" lon="7.240932">
        <ele>347.0</ele>
        <time>2020-07-10T12:59:54Z</time>
      </trkpt>
      <trkpt lat="48.793425" lon="7.241013">
        <ele>347.0</ele>
        <time>2020-07-10T12:59:56Z</time>
      </trkpt>
      <trkpt lat="48.793495" lon="7.241097">
        <ele>348.0</ele>
        <time>2020-07-10T12:59:58Z</time>
      </trkpt>
      <trkpt lat="48.793558" lon="7.241195">
        <ele>348.0</ele>
        <time>2020-07-10T13:00:00Z</time>
      </trkpt>
      <trkpt lat="48.793601" lon="7.241293">
        <ele>348.0</ele>
        <time>2020-07-10T13:00:02Z</time>
      </trkpt>
      <trkpt lat="48.793632" lon="7.24138">
        <ele>348.0</ele>
        <time>2020-07-10T13:00:04Z</time>
      </trkpt>
      <trkpt lat="48.793667" lon="7.241456">
        <ele>348.0</ele>
        <time>2020-07-10T13:00:06Z</time>
      </trkpt>
      <trkpt lat="48.7937" lon="7.241532">
        <ele>349.0</ele>
        <time>2020-07-10T13:00:08Z</time>
      </trkpt>
      <trkpt lat="48.793725" lon="7.241612">
        <ele>349.0</ele>
        <time>2020-07-10T13:00:10Z</time>
      </trkpt>
      <trkpt lat="48.793754" lon="7.241681">
        <ele>349.0</ele>
        <time>2020-07-10T13:00:12Z</time>
      </trkpt>
      <trkpt lat="48.793784" lon="7.241745">
        <ele>349.0</ele>
        <time>2020-07-10T13:00:14Z</time>
      </trkpt>
      <trkpt lat="48.793808" lon="7.241781">
        <ele>349.0</ele>
        <time>2020-07-10T13:00:16Z</time>
      </trkpt>
      <trkpt lat="48.793814" lon="7.241781">
        <ele>349.0</ele>
        <time>2020-07-10T13:00:18Z</time>
      </trkpt>
      <trkpt lat="48.793816" lon="7.241776">
        <ele>349.0</ele>
        <time>2020-07-10T13:00:20Z</time>
      </trkpt>
      <trkpt lat="48.793816" lon="7.241776">
        <ele>349.0</ele>
        <time>2020-07-10T13:00:22Z</time>
      </trkpt>
      <trkpt lat="48.793816" lon="7.241776">
        <ele>349.0</ele>
        <time>2020-07-10T13:00:24Z</time>
      </trkpt>
      <trkpt lat="48.793816" lon="7.241776">
        <ele>349.0</ele>
        <time>2020-07-10T13:00:30Z</time>
      </trkpt>
      <trkpt lat="48.793816" lon="7.241776">
        <ele>349.0</ele>
        <time>2020-07-10T13:00:32Z</time>
      </trkpt>
      <trkpt lat="48.793816" lon="7.241776">
        <ele>349.0</ele>
        <time>2020-07-10T13:00:34Z</time>
      </trkpt>
      <trkpt lat="48.793816" lon="7.241776">
        <ele>349.0</ele>
        <time>2020-07-10T13:00:36Z</time>
      </trkpt>
      <trkpt lat="48.793816" lon="7.241776">
        <ele>349.0</ele>
        <time>2020-07-10T13:00:38Z</time>
      </trkpt>
      <trkpt lat="48.793816" lon="7.241776">
        <ele>349.0</ele>
        <time>2020-07-10T13:00:40Z</time>
      </trkpt>
      <trkpt lat="48.793816" lon="7.241776">
        <ele>349.0</ele>
        <time>2020-07-10T13:00:42Z</time>
      </trkpt>
      <trkpt lat="48.793816" lon="7.241776">
        <ele>349.0</ele>
        <time>2020-07-10T13:00:44Z</time>
      </trkpt>
      <trkpt lat="48.793816" lon="7.241776">
        <ele>349.0</ele>
        <time>2020-07-10T13:00:46Z</time>
      </trkpt>
      <trkpt lat="48.793813" lon="7.241774">
        <ele>349.0</ele>
        <time>2020-07-10T13:00:48Z</time>
      </trkpt>
      <trkpt lat="48.793813" lon="7.241774">
        <ele>349.0</ele>
        <time>2020-07-10T13:00:50Z</time>
      </trkpt>
      <trkpt lat="48.793813" lon="7.24178">
        <ele>349.0</ele>
        <time>2020-07-10T13:00:52Z</time>
      </trkpt>
      <trkpt lat="48.793827" lon="7.241802">
        <ele>349.0</ele>
        <time>2020-07-10T13:00:54Z</time>
      </trkpt>
      <trkpt lat="48.793869" lon="7.241852">
        <ele>349.0</ele>
        <time>2020-07-10T13:00:56Z</time>
      </trkpt>
      <trkpt lat="48.793921" lon="7.241913">
        <ele>349.0</ele>
        <time>2020-07-10T13:00:58Z</time>
      </trkpt>
      <trkpt lat="48.793985" lon="7.241975">
        <ele>350.0</ele>
        <time>2020-07-10T13:01:00Z</time>
      </trkpt>
      <trkpt lat="48.794101" lon="7.242064">
        <ele>349.0</ele>
        <time>2020-07-10T13:01:03Z</time>
      </trkpt>
      <trkpt lat="48.794184" lon="7.242089">
        <ele>349.0</ele>
        <time>2020-07-10T13:01:05Z</time>
      </trkpt>
      <trkpt lat="48.794269" lon="7.242085">
        <ele>348.0</ele>
        <time>2020-07-10T13:01:07Z</time>
      </trkpt>
      <trkpt lat="48.79436" lon="7.242087">
        <ele>348.0</ele>
        <time>2020-07-10T13:01:09Z</time>
      </trkpt>
      <trkpt lat="48.794459" lon="7.242086">
        <ele>347.0</ele>
        <time>2020-07-10T13:01:11Z</time>
      </trkpt>
      <trkpt lat="48.79456" lon="7.242093">
        <ele>347.0</ele>
        <time>2020-07-10T13:01:13Z</time>
      </trkpt>
      <trkpt lat="48.794664" lon="7.242093">
        <ele>347.0</ele>
        <time>2020-07-10T13:01:15Z</time>
      </trkpt>
      <trkpt lat="48.794774" lon="7.242095">
        <ele>346.0</ele>
        <time>2020-07-10T13:01:17Z</time>
      </trkpt>
      <trkpt lat="48.794881" lon="7.242091">
        <ele>346.0</ele>
        <time>2020-07-10T13:01:19Z</time>
      </trkpt>
      <trkpt lat="48.794992" lon="7.242093">
        <ele>346.0</ele>
        <time>2020-07-10T13:01:21Z</time>
      </trkpt>
      <trkpt lat="48.795108" lon="7.24209">
        <ele>346.0</ele>
        <time>2020-07-10T13:01:23Z</time>
      </trkpt>
      <trkpt lat="48.795223" lon="7.242093">
        <ele>345.0</ele>
        <time>2020-07-10T13:01:25Z</time>
      </trkpt>
      <trkpt lat="48.795339" lon="7.242086">
        <ele>345.0</ele>
        <time>2020-07-10T13:01:27Z</time>
      </trkpt>
      <trkpt lat="48.795455" lon="7.242075">
        <ele>345.0</ele>
        <time>2020-07-10T13:01:29Z</time>
      </trkpt>
      <trkpt lat="48.795569" lon="7.242084">
        <ele>345.0</ele>
        <time>2020-07-10T13:01:31Z</time>
      </trkpt>
      <trkpt lat="48.795673" lon="7.242081">
        <ele>344.0</ele>
        <time>2020-07-10T13:01:33Z</time>
      </trkpt>
      <trkpt lat="48.795779" lon="7.242073">
        <ele>344.0</ele>
        <time>2020-07-10T13:01:35Z</time>
      </trkpt>
      <trkpt lat="48.795889" lon="7.242072">
        <ele>344.0</ele>
        <time>2020-07-10T13:01:37Z</time>
      </trkpt>
      <trkpt lat="48.795992" lon="7.242067">
        <ele>344.0</ele>
        <time>2020-07-10T13:01:39Z</time>
      </trkpt>
      <trkpt lat="48.796096" lon="7.242068">
        <ele>343.0</ele>
        <time>2020-07-10T13:01:41Z</time>
      </trkpt>
      <trkpt lat="48.796192" lon="7.24207">
        <ele>343.0</ele>
        <time>2020-07-10T13:01:43Z</time>
      </trkpt>
      <trkpt lat="48.796284" lon="7.242065">
        <ele>343.0</ele>
        <time>2020-07-10T13:01:45Z</time>
      </trkpt>
      <trkpt lat="48.796379" lon="7.242055">
        <ele>343.0</ele>
        <time>2020-07-10T13:01:47Z</time>
      </trkpt>
      <trkpt lat="48.796478" lon="7.242048">
        <ele>343.0</ele>
        <time>2020-07-10T13:01:49Z</time>
      </trkpt>
      <trkpt lat="48.796574" lon="7.242045">
        <ele>342.0</ele>
        <time>2020-07-10T13:01:51Z</time>
      </trkpt>
      <trkpt lat="48.796673" lon="7.242074">
        <ele>342.0</ele>
        <time>2020-07-10T13:01:53Z</time>
      </trkpt>
      <trkpt lat="48.796767" lon="7.242122">
        <ele>342.0</ele>
        <time>2020-07-10T13:01:55Z</time>
      </trkpt>
      <trkpt lat="48.796844" lon="7.242204">
        <ele>342.0</ele>
        <time>2020-07-10T13:01:57Z</time>
      </trkpt>
      <trkpt lat="48.796918" lon="7.242299">
        <ele>342.0</ele>
        <time>2020-07-10T13:01:59Z</time>
      </trkpt>
      <trkpt lat="48.79698" lon="7.242405">
        <ele>343.0</ele>
        <time>2020-07-10T13:02:01Z</time>
      </trkpt>
      <trkpt lat="48.79704" lon="7.24251">
        <ele>343.0</ele>
        <time>2020-07-10T13:02:03Z</time>
      </trkpt>
      <trkpt lat="48.797103" lon="7.242625">
        <ele>343.0</ele>
        <time>2020-07-10T13:02:05Z</time>
      </trkpt>
      <trkpt lat="48.797152" lon="7.242747">
        <ele>344.0</ele>
        <time>2020-07-10T13:02:07Z</time>
      </trkpt>
      <trkpt lat="48.797203" lon="7.242865">
        <ele>344.0</ele>
        <time>2020-07-10T13:02:09Z</time>
      </trkpt>
      <trkpt lat="48.797245" lon="7.242987">
        <ele>344.0</ele>
        <time>2020-07-10T13:02:11Z</time>
      </trkpt>
      <trkpt lat="48.797284" lon="7.243106">
        <ele>345.0</ele>
        <time>2020-07-10T13:02:13Z</time>
      </trkpt>
      <trkpt lat="48.797322" lon="7.243232">
        <ele>345.0</ele>
        <time>2020-07-10T13:02:15Z</time>
      </trkpt>
      <trkpt lat="48.797356" lon="7.243365">
        <ele>344.0</ele>
        <time>2020-07-10T13:02:17Z</time>
      </trkpt>
      <trkpt lat="48.797387" lon="7.243488">
        <ele>344.0</ele>
        <time>2020-07-10T13:02:19Z</time>
      </trkpt>
      <trkpt lat="48.797423" lon="7.243615">
        <ele>343.0</ele>
        <time>2020-07-10T13:02:21Z</time>
      </trkpt>
      <trkpt lat="48.797456" lon="7.243731">
        <ele>344.0</ele>
        <time>2020-07-10T13:02:23Z</time>
      </trkpt>
      <trkpt lat="48.797485" lon="7.243843">
        <ele>344.0</ele>
        <time>2020-07-10T13:02:25Z</time>
      </trkpt>
      <trkpt lat="48.797513" lon="7.243953">
        <ele>344.0</ele>
        <time>2020-07-10T13:02:27Z</time>
      </trkpt>
      <trkpt lat="48.797537" lon="7.244058">
        <ele>344.0</ele>
        <time>2020-07-10T13:02:29Z</time>
      </trkpt>
      <trkpt lat="48.797565" lon="7.244168">
        <ele>345.0</ele>
        <time>2020-07-10T13:02:31Z</time>
      </trkpt>
      <trkpt lat="48.797598" lon="7.244272">
        <ele>345.0</ele>
        <time>2020-07-10T13:02:33Z</time>
      </trkpt>
      <trkpt lat="48.797626" lon="7.244377">
        <ele>345.0</ele>
        <time>2020-07-10T13:02:35Z</time>
      </trkpt>
      <trkpt lat="48.797653" lon="7.24449">
        <ele>345.0</ele>
        <time>2020-07-10T13:02:37Z</time>
      </trkpt>
      <trkpt lat="48.79768" lon="7.244593">
        <ele>346.0</ele>
        <time>2020-07-10T13:02:39Z</time>
      </trkpt>
      <trkpt lat="48.797711" lon="7.244689">
        <ele>346.0</ele>
        <time>2020-07-10T13:02:41Z</time>
      </trkpt>
      <trkpt lat="48.79774" lon="7.244782">
        <ele>346.0</ele>
        <time>2020-07-10T13:02:43Z</time>
      </trkpt>
      <trkpt lat="48.797803" lon="7.244907">
        <ele>346.0</ele>
        <time>2020-07-10T13:02:46Z</time>
      </trkpt>
      <trkpt lat="48.797868" lon="7.244971">
        <ele>346.0</ele>
        <time>2020-07-10T13:02:48Z</time>
      </trkpt>
      <trkpt lat="48.797938" lon="7.245019">
        <ele>346.0</ele>
        <time>2020-07-10T13:02:50Z</time>
      </trkpt>
      <trkpt lat="48.798016" lon="7.245035">
        <ele>346.0</ele>
        <time>2020-07-10T13:02:52Z</time>
      </trkpt>
      <trkpt lat="48.798101" lon="7.24504">
        <ele>346.0</ele>
        <time>2020-07-10T13:02:54Z</time>
      </trkpt>
      <trkpt lat="48.798183" lon="7.245038">
        <ele>345.0</ele>
        <time>2020-07-10T13:02:56Z</time>
      </trkpt>
      <trkpt lat="48.798261" lon="7.245012">
        <ele>345.0</ele>
        <time>2020-07-10T13:02:58Z</time>
      </trkpt>
      <trkpt lat="48.798331" lon="7.244973">
        <ele>345.0</ele>
        <time>2020-07-10T13:03:00Z</time>
      </trkpt>
      <trkpt lat="48.798401" lon="7.244949">
        <ele>345.0</ele>
        <time>2020-07-10T13:03:02Z</time>
      </trkpt>
      <trkpt lat="48.79847" lon="7.244925">
        <ele>345.0</ele>
        <time>2020-07-10T13:03:04Z</time>
      </trkpt>
      <trkpt lat="48.79851" lon="7.244922">
        <ele>345.0</ele>
        <time>2020-07-10T13:03:06Z</time>
      </trkpt>
      <trkpt lat="48.798547" lon="7.244923">
        <ele>345.0</ele>
        <time>2020-07-10T13:03:08Z</time>
      </trkpt>
      <trkpt lat="48.798584" lon="7.244892">
        <ele>345.0</ele>
        <time>2020-07-10T13:03:10Z</time>
      </trkpt>
      <trkpt lat="48.798603" lon="7.244864">
        <ele>345.0</ele>
        <time>2020-07-10T13:03:12Z</time>
      </trkpt>
      <trkpt lat="48.798602" lon="7.244862">
        <ele>346.0</ele>
        <time>2020-07-10T13:03:14Z</time>
      </trkpt>
      <trkpt lat="48.798602" lon="7.244861">
        <ele>346.0</ele>
        <time>2020-07-10T13:03:16Z</time>
      </trkpt>
      <trkpt lat="48.798602" lon="7.244861">
        <ele>346.0</ele>
        <time>2020-07-10T13:03:18Z</time>
      </trkpt>
      <trkpt lat="48.798602" lon="7.244861">
        <ele>346.0</ele>
        <time>2020-07-10T13:03:20Z</time>
      </trkpt>
      <trkpt lat="48.798602" lon="7.244861">
        <ele>346.0</ele>
        <time>2020-07-10T13:03:44Z</time>
      </trkpt>
      <trkpt lat="48.798602" lon="7.244861">
        <ele>346.0</ele>
        <time>2020-07-10T13:03:46Z</time>
      </trkpt>
      <trkpt lat="48.798602" lon="7.244861">
        <ele>346.0</ele>
        <time>2020-07-10T13:03:48Z</time>
      </trkpt>
      <trkpt lat="48.798602" lon="7.244861">
        <ele>346.0</ele>
        <time>2020-07-10T13:03:50Z</time>
      </trkpt>
      <trkpt lat="48.798602" lon="7.244861">
        <ele>346.0</ele>
        <time>2020-07-10T13:03:52Z</time>
      </trkpt>
      <trkpt lat="48.798602" lon="7.244861">
        <ele>346.0</ele>
        <time>2020-07-10T13:03:54Z</time>
      </trkpt>
      <trkpt lat="48.798602" lon="7.244861">
        <ele>346.0</ele>
        <time>2020-07-10T13:03:56Z</time>
      </trkpt>
      <trkpt lat="48.798602" lon="7.244861">
        <ele>346.0</ele>
        <time>2020-07-10T13:03:58Z</time>
      </trkpt>
      <trkpt lat="48.798602" lon="7.244861">
        <ele>346.0</ele>
        <time>2020-07-10T13:04:00Z</time>
      </trkpt>
      <trkpt lat="48.798602" lon="7.244861">
        <ele>346.0</ele>
        <time>2020-07-10T13:04:02Z</time>
      </trkpt>
      <trkpt lat="48.798602" lon="7.244861">
        <ele>346.0</ele>
        <time>2020-07-10T13:04:04Z</time>
      </trkpt>
      <trkpt lat="48.798602" lon="7.244861">
        <ele>346.0</ele>
        <time>2020-07-10T13:04:06Z</time>
      </trkpt>
      <trkpt lat="48.798602" lon="7.244861">
        <ele>346.0</ele>
        <time>2020-07-10T13:04:08Z</time>
      </trkpt>
      <trkpt lat="48.798592" lon="7.244825">
        <ele>345.0</ele>
        <time>2020-07-10T13:04:10Z</time>
      </trkpt>
      <trkpt lat="48.798569" lon="7.244825">
        <ele>345.0</ele>
        <time>2020-07-10T13:04:12Z</time>
      </trkpt>
      <trkpt lat="48.798552" lon="7.244856">
        <ele>345.0</ele>
        <time>2020-07-10T13:04:14Z</time>
      </trkpt>
      <trkpt lat="48.798538" lon="7.244872">
        <ele>345.0</ele>
        <time>2020-07-10T13:04:16Z</time>
      </trkpt>
      <trkpt lat="48.79853" lon="7.244906">
        <ele>346.0</ele>
        <time>2020-07-10T13:04:18Z</time>
      </trkpt>
      <trkpt lat="48.798546" lon="7.244949">
        <ele>345.0</ele>
        <time>2020-07-10T13:04:20Z</time>
      </trkpt>
      <trkpt lat="48.798565" lon="7.244999">
        <ele>346.0</ele>
        <time>2020-07-10T13:04:22Z</time>
      </trkpt>
      <trkpt lat="48.798574" lon="7.245017">
        <ele>346.0</ele>
        <time>2020-07-10T13:04:24Z</time>
      </trkpt>
      <trkpt lat="48.798571" lon="7.244986">
        <ele>347.0</ele>
        <time>2020-07-10T13:04:26Z</time>
      </trkpt>
      <trkpt lat="48.798548" lon="7.244946">
        <ele>346.0</ele>
        <time>2020-07-10T13:04:28Z</time>
      </trkpt>
      <trkpt lat="48.798522" lon="7.244928">
        <ele>346.0</ele>
        <time>2020-07-10T13:04:30Z</time>
      </trkpt>
      <trkpt lat="48.798517" lon="7.24493">
        <ele>346.0</ele>
        <time>2020-07-10T13:04:32Z</time>
      </trkpt>
      <trkpt lat="48.798517" lon="7.244933">
        <ele>346.0</ele>
        <time>2020-07-10T13:04:34Z</time>
      </trkpt>
      <trkpt lat="48.798516" lon="7.244934">
        <ele>346.0</ele>
        <time>2020-07-10T13:04:36Z</time>
      </trkpt>
      <trkpt lat="48.798516" lon="7.244934">
        <ele>346.0</ele>
        <time>2020-07-10T13:04:38Z</time>
      </trkpt>
      <trkpt lat="48.798516" lon="7.244934">
        <ele>346.0</ele>
        <time>2020-07-10T13:04:40Z</time>
      </trkpt>
      <trkpt lat="48.798516" lon="7.244934">
        <ele>346.0</ele>
        <time>2020-07-10T13:04:42Z</time>
      </trkpt>
      <trkpt lat="48.798513" lon="7.244935">
        <ele>346.0</ele>
        <time>2020-07-10T13:04:44Z</time>
      </trkpt>
      <trkpt lat="48.798493" lon="7.24491">
        <ele>347.0</ele>
        <time>2020-07-10T13:04:46Z</time>
      </trkpt>
      <trkpt lat="48.798465" lon="7.244904">
        <ele>346.0</ele>
        <time>2020-07-10T13:04:48Z</time>
      </trkpt>
      <trkpt lat="48.798424" lon="7.244918">
        <ele>346.0</ele>
        <time>2020-07-10T13:04:50Z</time>
      </trkpt>
      <trkpt lat="48.798371" lon="7.24493">
        <ele>346.0</ele>
        <time>2020-07-10T13:04:52Z</time>
      </trkpt>
      <trkpt lat="48.798309" lon="7.244955">
        <ele>346.0</ele>
        <time>2020-07-10T13:04:54Z</time>
      </trkpt>
      <trkpt lat="48.798243" lon="7.244985">
        <ele>346.0</ele>
        <time>2020-07-10T13:04:56Z</time>
      </trkpt>
      <trkpt lat="48.798176" lon="7.245025">
        <ele>346.0</ele>
        <time>2020-07-10T13:04:58Z</time>
      </trkpt>
      <trkpt lat="48.798113" lon="7.245071">
        <ele>346.0</ele>
        <time>2020-07-10T13:05:00Z</time>
      </trkpt>
      <trkpt lat="48.798044" lon="7.245136">
        <ele>345.0</ele>
        <time>2020-07-10T13:05:02Z</time>
      </trkpt>
      <trkpt lat="48.797961" lon="7.245214">
        <ele>344.0</ele>
        <time>2020-07-10T13:05:04Z</time>
      </trkpt>
      <trkpt lat="48.797873" lon="7.245293">
        <ele>344.0</ele>
        <time>2020-07-10T13:05:06Z</time>
      </trkpt>
      <trkpt lat="48.797774" lon="7.245376">
        <ele>343.0</ele>
        <time>2020-07-10T13:05:08Z</time>
      </trkpt>
      <trkpt lat="48.797674" lon="7.245472">
        <ele>343.0</ele>
        <time>2020-07-10T13:05:10Z</time>
      </trkpt>
      <trkpt lat="48.797564" lon="7.245572">
        <ele>343.0</ele>
        <time>2020-07-10T13:05:12Z</time>
      </trkpt>
      <trkpt lat="48.79747" lon="7.245669">
        <ele>342.0</ele>
        <time>2020-07-10T13:05:14Z</time>
      </trkpt>
      <trkpt lat="48.797408" lon="7.245726">
        <ele>342.0</ele>
        <time>2020-07-10T13:05:16Z</time>
      </trkpt>
      <trkpt lat="48.797392" lon="7.245749">
        <ele>342.0</ele>
        <time>2020-07-10T13:05:18Z</time>
      </trkpt>
      <trkpt lat="48.797394" lon="7.245742">
        <ele>342.0</ele>
        <time>2020-07-10T13:05:21Z</time>
      </trkpt>
      <trkpt lat="48.797394" lon="7.245741">
        <ele>342.0</ele>
        <time>2020-07-10T13:05:23Z</time>
      </trkpt>
      <trkpt lat="48.797394" lon="7.245741">
        <ele>342.0</ele>
        <time>2020-07-10T13:05:25Z</time>
      </trkpt>
      <trkpt lat="48.797394" lon="7.245741">
        <ele>342.0</ele>
        <time>2020-07-10T13:05:27Z</time>
      </trkpt>
      <trkpt lat="48.797394" lon="7.245741">
        <ele>342.0</ele>
        <time>2020-07-10T13:05:29Z</time>
      </trkpt>
      <trkpt lat="48.797394" lon="7.245741">
        <ele>342.0</ele>
        <time>2020-07-10T13:05:31Z</time>
      </trkpt>
      <trkpt lat="48.797394" lon="7.245741">
        <ele>342.0</ele>
        <time>2020-07-10T13:05:33Z</time>
      </trkpt>
      <trkpt lat="48.797394" lon="7.245741">
        <ele>342.0</ele>
        <time>2020-07-10T13:05:35Z</time>
      </trkpt>
      <trkpt lat="48.797394" lon="7.245741">
        <ele>342.0</ele>
        <time>2020-07-10T13:05:37Z</time>
      </trkpt>
      <trkpt lat="48.797394" lon="7.245741">
        <ele>342.0</ele>
        <time>2020-07-10T13:05:39Z</time>
      </trkpt>
      <trkpt lat="48.797394" lon="7.245741">
        <ele>342.0</ele>
        <time>2020-07-10T13:05:41Z</time>
      </trkpt>
      <trkpt lat="48.797394" lon="7.245741">
        <ele>342.0</ele>
        <time>2020-07-10T13:05:43Z</time>
      </trkpt>
      <trkpt lat="48.797392" lon="7.245738">
        <ele>342.0</ele>
        <time>2020-07-10T13:05:45Z</time>
      </trkpt>
      <trkpt lat="48.797376" lon="7.245757">
        <ele>342.0</ele>
        <time>2020-07-10T13:05:47Z</time>
      </trkpt>
      <trkpt lat="48.797346" lon="7.245796">
        <ele>342.0</ele>
        <time>2020-07-10T13:05:49Z</time>
      </trkpt>
      <trkpt lat="48.797303" lon="7.245843">
        <ele>342.0</ele>
        <time>2020-07-10T13:05:51Z</time>
      </trkpt>
      <trkpt lat="48.797249" lon="7.245896">
        <ele>342.0</ele>
        <time>2020-07-10T13:05:53Z</time>
      </trkpt>
      <trkpt lat="48.797185" lon="7.245953">
        <ele>342.0</ele>
        <time>2020-07-10T13:05:55Z</time>
      </trkpt>
      <trkpt lat="48.797115" lon="7.246017">
        <ele>342.0</ele>
        <time>2020-07-10T13:05:57Z</time>
      </trkpt>
      <trkpt lat="48.797033" lon="7.246084">
        <ele>342.0</ele>
        <time>2020-07-10T13:05:59Z</time>
      </trkpt>
      <trkpt lat="48.796949" lon="7.246177">
        <ele>342.0</ele>
        <time>2020-07-10T13:06:01Z</time>
      </trkpt>
      <trkpt lat="48.796861" lon="7.246263">
        <ele>342.0</ele>
        <time>2020-07-10T13:06:03Z</time>
      </trkpt>
      <trkpt lat="48.796771" lon="7.246348">
        <ele>342.0</ele>
        <time>2020-07-10T13:06:05Z</time>
      </trkpt>
      <trkpt lat="48.796675" lon="7.246436">
        <ele>342.0</ele>
        <time>2020-07-10T13:06:07Z</time>
      </trkpt>
      <trkpt lat="48.79658" lon="7.246522">
        <ele>341.0</ele>
        <time>2020-07-10T13:06:09Z</time>
      </trkpt>
      <trkpt lat="48.796488" lon="7.246607">
        <ele>341.0</ele>
        <time>2020-07-10T13:06:11Z</time>
      </trkpt>
      <trkpt lat="48.796398" lon="7.246697">
        <ele>341.0</ele>
        <time>2020-07-10T13:06:13Z</time>
      </trkpt>
      <trkpt lat="48.796312" lon="7.246782">
        <ele>341.0</ele>
        <time>2020-07-10T13:06:15Z</time>
      </trkpt>
      <trkpt lat="48.796223" lon="7.246868">
        <ele>341.0</ele>
        <time>2020-07-10T13:06:17Z</time>
      </trkpt>
      <trkpt lat="48.796133" lon="7.246948">
        <ele>342.0</ele>
        <time>2020-07-10T13:06:19Z</time>
      </trkpt>
      <trkpt lat="48.796046" lon="7.247025">
        <ele>341.0</ele>
        <time>2020-07-10T13:06:21Z</time>
      </trkpt>
      <trkpt lat="48.795966" lon="7.247089">
        <ele>341.0</ele>
        <time>2020-07-10T13:06:23Z</time>
      </trkpt>
      <trkpt lat="48.795885" lon="7.247147">
        <ele>340.0</ele>
        <time>2020-07-10T13:06:25Z</time>
      </trkpt>
      <trkpt lat="48.795793" lon="7.247223">
        <ele>340.0</ele>
        <time>2020-07-10T13:06:27Z</time>
      </trkpt>
      <trkpt lat="48.795696" lon="7.247303">
        <ele>339.0</ele>
        <time>2020-07-10T13:06:29Z</time>
      </trkpt>
      <trkpt lat="48.795588" lon="7.247383">
        <ele>339.0</ele>
        <time>2020-07-10T13:06:31Z</time>
      </trkpt>
      <trkpt lat="48.795477" lon="7.247473">
        <ele>339.0</ele>
        <time>2020-07-10T13:06:33Z</time>
      </trkpt>
      <trkpt lat="48.795361" lon="7.247572">
        <ele>338.0</ele>
        <time>2020-07-10T13:06:35Z</time>
      </trkpt>
      <trkpt lat="48.795247" lon="7.247674">
        <ele>338.0</ele>
        <time>2020-07-10T13:06:37Z</time>
      </trkpt>
      <trkpt lat="48.795131" lon="7.247784">
        <ele>338.0</ele>
        <time>2020-07-10T13:06:39Z</time>
      </trkpt>
      <trkpt lat="48.795024" lon="7.247918">
        <ele>339.0</ele>
        <time>2020-07-10T13:06:41Z</time>
      </trkpt>
      <trkpt lat="48.794908" lon="7.248042">
        <ele>339.0</ele>
        <time>2020-07-10T13:06:43Z</time>
      </trkpt>
      <trkpt lat="48.794791" lon="7.24816">
        <ele>339.0</ele>
        <time>2020-07-10T13:06:45Z</time>
      </trkpt>
      <trkpt lat="48.794675" lon="7.248282">
        <ele>339.0</ele>
        <time>2020-07-10T13:06:47Z</time>
      </trkpt>
      <trkpt lat="48.794566" lon="7.248407">
        <ele>339.0</ele>
        <time>2020-07-10T13:06:49Z</time>
      </trkpt>
      <trkpt lat="48.794461" lon="7.248529">
        <ele>339.0</ele>
        <time>2020-07-10T13:06:51Z</time>
      </trkpt>
      <trkpt lat="48.794356" lon="7.248642">
        <ele>339.0</ele>
        <time>2020-07-10T13:06:53Z</time>
      </trkpt>
      <trkpt lat="48.794255" lon="7.248762">
        <ele>338.0</ele>
        <time>2020-07-10T13:06:55Z</time>
      </trkpt>
      <trkpt lat="48.794159" lon="7.248875">
        <ele>337.0</ele>
        <time>2020-07-10T13:06:57Z</time>
      </trkpt>
      <trkpt lat="48.794063" lon="7.248988">
        <ele>336.0</ele>
        <time>2020-07-10T13:06:59Z</time>
      </trkpt>
      <trkpt lat="48.793972" lon="7.24909">
        <ele>337.0</ele>
        <time>2020-07-10T13:07:01Z</time>
      </trkpt>
      <trkpt lat="48.793886" lon="7.249197">
        <ele>336.0</ele>
        <time>2020-07-10T13:07:03Z</time>
      </trkpt>
      <trkpt lat="48.793808" lon="7.249308">
        <ele>337.0</ele>
        <time>2020-07-10T13:07:05Z</time>
      </trkpt>
      <trkpt lat="48.793739" lon="7.249431">
        <ele>336.0</ele>
        <time>2020-07-10T13:07:07Z</time>
      </trkpt>
      <trkpt lat="48.793663" lon="7.249524">
        <ele>336.0</ele>
        <time>2020-07-10T13:07:09Z</time>
      </trkpt>
      <trkpt lat="48.793583" lon="7.249617">
        <ele>336.0</ele>
        <time>2020-07-10T13:07:11Z</time>
      </trkpt>
      <trkpt lat="48.793501" lon="7.249706">
        <ele>337.0</ele>
        <time>2020-07-10T13:07:13Z</time>
      </trkpt>
      <trkpt lat="48.793422" lon="7.249803">
        <ele>336.0</ele>
        <time>2020-07-10T13:07:15Z</time>
      </trkpt>
      <trkpt lat="48.793339" lon="7.249886">
        <ele>336.0</ele>
        <time>2020-07-10T13:07:17Z</time>
      </trkpt>
      <trkpt lat="48.793249" lon="7.249968">
        <ele>337.0</ele>
        <time>2020-07-10T13:07:19Z</time>
      </trkpt>
      <trkpt lat="48.793157" lon="7.250048">
        <ele>336.0</ele>
        <time>2020-07-10T13:07:21Z</time>
      </trkpt>
      <trkpt lat="48.793061" lon="7.250102">
        <ele>336.0</ele>
        <time>2020-07-10T13:07:23Z</time>
      </trkpt>
      <trkpt lat="48.792958" lon="7.250152">
        <ele>336.0</ele>
        <time>2020-07-10T13:07:25Z</time>
      </trkpt>
      <trkpt lat="48.792852" lon="7.250201">
        <ele>336.0</ele>
        <time>2020-07-10T13:07:27Z</time>
      </trkpt>
      <trkpt lat="48.792734" lon="7.250248">
        <ele>335.0</ele>
        <time>2020-07-10T13:07:29Z</time>
      </trkpt>
      <trkpt lat="48.79261" lon="7.250302">
        <ele>335.0</ele>
        <time>2020-07-10T13:07:31Z</time>
      </trkpt>
      <trkpt lat="48.792482" lon="7.250347">
        <ele>334.0</ele>
        <time>2020-07-10T13:07:33Z</time>
      </trkpt>
      <trkpt lat="48.792368" lon="7.250381">
        <ele>334.0</ele>
        <time>2020-07-10T13:07:35Z</time>
      </trkpt>
      <trkpt lat="48.792271" lon="7.250411">
        <ele>333.0</ele>
        <time>2020-07-10T13:07:37Z</time>
      </trkpt>
      <trkpt lat="48.792199" lon="7.250431">
        <ele>333.0</ele>
        <time>2020-07-10T13:07:39Z</time>
      </trkpt>
      <trkpt lat="48.792138" lon="7.250455">
        <ele>332.0</ele>
        <time>2020-07-10T13:07:41Z</time>
      </trkpt>
      <trkpt lat="48.792087" lon="7.250471">
        <ele>332.0</ele>
        <time>2020-07-10T13:07:43Z</time>
      </trkpt>
      <trkpt lat="48.79205" lon="7.250468">
        <ele>332.0</ele>
        <time>2020-07-10T13:07:45Z</time>
      </trkpt>
      <trkpt lat="48.792024" lon="7.250451">
        <ele>332.0</ele>
        <time>2020-07-10T13:07:47Z</time>
      </trkpt>
      <trkpt lat="48.792008" lon="7.250442">
        <ele>332.0</ele>
        <time>2020-07-10T13:07:49Z</time>
      </trkpt>
      <trkpt lat="48.792009" lon="7.250447">
        <ele>332.0</ele>
        <time>2020-07-10T13:07:51Z</time>
      </trkpt>
      <trkpt lat="48.79201" lon="7.250447">
        <ele>332.0</ele>
        <time>2020-07-10T13:07:53Z</time>
      </trkpt>
      <trkpt lat="48.79201" lon="7.250447">
        <ele>332.0</ele>
        <time>2020-07-10T13:07:55Z</time>
      </trkpt>
      <trkpt lat="48.79201" lon="7.250447">
        <ele>332.0</ele>
        <time>2020-07-10T13:07:57Z</time>
      </trkpt>
      <trkpt lat="48.79201" lon="7.250447">
        <ele>332.0</ele>
        <time>2020-07-10T13:07:59Z</time>
      </trkpt>
      <trkpt lat="48.792001" lon="7.250438">
        <ele>332.0</ele>
        <time>2020-07-10T13:08:01Z</time>
      </trkpt>
      <trkpt lat="48.791982" lon="7.250402">
        <ele>333.0</ele>
        <time>2020-07-10T13:08:03Z</time>
      </trkpt>
      <trkpt lat="48.791946" lon="7.250348">
        <ele>333.0</ele>
        <time>2020-07-10T13:08:05Z</time>
      </trkpt>
      <trkpt lat="48.791903" lon="7.250287">
        <ele>333.0</ele>
        <time>2020-07-10T13:08:07Z</time>
      </trkpt>
      <trkpt lat="48.791857" lon="7.250206">
        <ele>333.0</ele>
        <time>2020-07-10T13:08:09Z</time>
      </trkpt>
      <trkpt lat="48.791805" lon="7.250115">
        <ele>333.0</ele>
        <time>2020-07-10T13:08:11Z</time>
      </trkpt>
      <trkpt lat="48.791755" lon="7.250021">
        <ele>332.0</ele>
        <time>2020-07-10T13:08:13Z</time>
      </trkpt>
      <trkpt lat="48.791703" lon="7.249914">
        <ele>331.0</ele>
        <time>2020-07-10T13:08:15Z</time>
      </trkpt>
      <trkpt lat="48.791649" lon="7.249801">
        <ele>331.0</ele>
        <time>2020-07-10T13:08:17Z</time>
      </trkpt>
      <trkpt lat="48.791593" lon="7.249676">
        <ele>331.0</ele>
        <time>2020-07-10T13:08:19Z</time>
      </trkpt>
      <trkpt lat="48.791548" lon="7.249556">
        <ele>330.0</ele>
        <time>2020-07-10T13:08:21Z</time>
      </trkpt>
      <trkpt lat="48.791495" lon="7.249432">
        <ele>330.0</ele>
        <time>2020-07-10T13:08:23Z</time>
      </trkpt>
      <trkpt lat="48.791451" lon="7.249311">
        <ele>329.0</ele>
        <time>2020-07-10T13:08:25Z</time>
      </trkpt>
      <trkpt lat="48.791377" lon="7.249128">
        <ele>328.0</ele>
        <time>2020-07-10T13:08:28Z</time>
      </trkpt>
      <trkpt lat="48.791326" lon="7.249009">
        <ele>328.0</ele>
        <time>2020-07-10T13:08:30Z</time>
      </trkpt>
      <trkpt lat="48.791274" lon="7.248882">
        <ele>328.0</ele>
        <time>2020-07-10T13:08:32Z</time>
      </trkpt>
      <trkpt lat="48.791221" lon="7.248754">
        <ele>329.0</ele>
        <time>2020-07-10T13:08:34Z</time>
      </trkpt>
      <trkpt lat="48.791174" lon="7.248636">
        <ele>329.0</ele>
        <time>2020-07-10T13:08:36Z</time>
      </trkpt>
      <trkpt lat="48.791121" lon="7.248522">
        <ele>329.0</ele>
        <time>2020-07-10T13:08:38Z</time>
      </trkpt>
      <trkpt lat="48.791068" lon="7.248411">
        <ele>329.0</ele>
        <time>2020-07-10T13:08:40Z</time>
      </trkpt>
      <trkpt lat="48.791007" lon="7.248304">
        <ele>328.0</ele>
        <time>2020-07-10T13:08:42Z</time>
      </trkpt>
      <trkpt lat="48.79094" lon="7.248206">
        <ele>328.0</ele>
        <time>2020-07-10T13:08:44Z</time>
      </trkpt>
      <trkpt lat="48.790868" lon="7.248134">
        <ele>328.0</ele>
        <time>2020-07-10T13:08:46Z</time>
      </trkpt>
      <trkpt lat="48.79079" lon="7.248063">
        <ele>328.0</ele>
        <time>2020-07-10T13:08:48Z</time>
      </trkpt>
      <trkpt lat="48.790703" lon="7.248006">
        <ele>328.0</ele>
        <time>2020-07-10T13:08:50Z</time>
      </trkpt>
      <trkpt lat="48.790611" lon="7.247962">
        <ele>328.0</ele>
        <time>2020-07-10T13:08:52Z</time>
      </trkpt>
      <trkpt lat="48.790515" lon="7.24793">
        <ele>328.0</ele>
        <time>2020-07-10T13:08:54Z</time>
      </trkpt>
      <trkpt lat="48.790415" lon="7.247914">
        <ele>327.0</ele>
        <time>2020-07-10T13:08:56Z</time>
      </trkpt>
      <trkpt lat="48.790317" lon="7.247911">
        <ele>327.0</ele>
        <time>2020-07-10T13:08:58Z</time>
      </trkpt>
      <trkpt lat="48.790215" lon="7.24793">
        <ele>327.0</ele>
        <time>2020-07-10T13:09:00Z</time>
      </trkpt>
      <trkpt lat="48.79011" lon="7.247965">
        <ele>327.0</ele>
        <time>2020-07-10T13:09:02Z</time>
      </trkpt>
      <trkpt lat="48.790006" lon="7.248032">
        <ele>326.0</ele>
        <time>2020-07-10T13:09:04Z</time>
      </trkpt>
      <trkpt lat="48.789902" lon="7.248108">
        <ele>325.0</ele>
        <time>2020-07-10T13:09:06Z</time>
      </trkpt>
      <trkpt lat="48.789808" lon="7.248184">
        <ele>325.0</ele>
        <time>2020-07-10T13:09:08Z</time>
      </trkpt>
      <trkpt lat="48.789707" lon="7.248264">
        <ele>324.0</ele>
        <time>2020-07-10T13:09:10Z</time>
      </trkpt>
      <trkpt lat="48.789606" lon="7.248344">
        <ele>324.0</ele>
        <time>2020-07-10T13:09:12Z</time>
      </trkpt>
      <trkpt lat="48.789506" lon="7.248427">
        <ele>324.0</ele>
        <time>2020-07-10T13:09:14Z</time>
      </trkpt>
      <trkpt lat="48.789409" lon="7.248514">
        <ele>324.0</ele>
        <time>2020-07-10T13:09:16Z</time>
      </trkpt>
      <trkpt lat="48.789311" lon="7.248602">
        <ele>323.0</ele>
        <time>2020-07-10T13:09:18Z</time>
      </trkpt>
      <trkpt lat="48.789206" lon="7.248677">
        <ele>323.0</ele>
        <time>2020-07-10T13:09:20Z</time>
      </trkpt>
      <trkpt lat="48.789105" lon="7.248759">
        <ele>323.0</ele>
        <time>2020-07-10T13:09:22Z</time>
      </trkpt>
      <trkpt lat="48.789005" lon="7.248841">
        <ele>322.0</ele>
        <time>2020-07-10T13:09:24Z</time>
      </trkpt>
      <trkpt lat="48.788897" lon="7.24892">
        <ele>322.0</ele>
        <time>2020-07-10T13:09:26Z</time>
      </trkpt>
      <trkpt lat="48.788784" lon="7.24901">
        <ele>322.0</ele>
        <time>2020-07-10T13:09:28Z</time>
      </trkpt>
      <trkpt lat="48.788669" lon="7.249098">
        <ele>322.0</ele>
        <time>2020-07-10T13:09:30Z</time>
      </trkpt>
      <trkpt lat="48.788553" lon="7.249197">
        <ele>322.0</ele>
        <time>2020-07-10T13:09:32Z</time>
      </trkpt>
      <trkpt lat="48.788438" lon="7.249293">
        <ele>321.0</ele>
        <time>2020-07-10T13:09:34Z</time>
      </trkpt>
      <trkpt lat="48.788323" lon="7.249377">
        <ele>321.0</ele>
        <time>2020-07-10T13:09:36Z</time>
      </trkpt>
      <trkpt lat="48.788219" lon="7.249453">
        <ele>321.0</ele>
        <time>2020-07-10T13:09:38Z</time>
      </trkpt>
      <trkpt lat="48.788133" lon="7.249529">
        <ele>320.0</ele>
        <time>2020-07-10T13:09:40Z</time>
      </trkpt>
      <trkpt lat="48.788054" lon="7.24962">
        <ele>320.0</ele>
        <time>2020-07-10T13:09:42Z</time>
      </trkpt>
      <trkpt lat="48.787972" lon="7.249633">
        <ele>320.0</ele>
        <time>2020-07-10T13:09:44Z</time>
      </trkpt>
      <trkpt lat="48.787916" lon="7.249589">
        <ele>320.0</ele>
        <time>2020-07-10T13:09:46Z</time>
      </trkpt>
      <trkpt lat="48.78786" lon="7.24955">
        <ele>321.0</ele>
        <time>2020-07-10T13:09:48Z</time>
      </trkpt>
      <trkpt lat="48.787807" lon="7.249515">
        <ele>321.0</ele>
        <time>2020-07-10T13:09:50Z</time>
      </trkpt>
      <trkpt lat="48.787757" lon="7.249483">
        <ele>322.0</ele>
        <time>2020-07-10T13:09:52Z</time>
      </trkpt>
      <trkpt lat="48.787713" lon="7.249449">
        <ele>322.0</ele>
        <time>2020-07-10T13:09:54Z</time>
      </trkpt>
      <trkpt lat="48.787667" lon="7.249416">
        <ele>322.0</ele>
        <time>2020-07-10T13:09:56Z</time>
      </trkpt>
      <trkpt lat="48.787618" lon="7.249382">
        <ele>323.0</ele>
        <time>2020-07-10T13:09:58Z</time>
      </trkpt>
      <trkpt lat="48.787567" lon="7.249337">
        <ele>323.0</ele>
        <time>2020-07-10T13:10:00Z</time>
      </trkpt>
      <trkpt lat="48.787511" lon="7.249287">
        <ele>323.0</ele>
        <time>2020-07-10T13:10:02Z</time>
      </trkpt>
      <trkpt lat="48.787457" lon="7.249241">
        <ele>323.0</ele>
        <time>2020-07-10T13:10:04Z</time>
      </trkpt>
      <trkpt lat="48.7874" lon="7.249192">
        <ele>323.0</ele>
        <time>2020-07-10T13:10:06Z</time>
      </trkpt>
      <trkpt lat="48.787347" lon="7.249128">
        <ele>324.0</ele>
        <time>2020-07-10T13:10:08Z</time>
      </trkpt>
      <trkpt lat="48.787293" lon="7.249066">
        <ele>324.0</ele>
        <time>2020-07-10T13:10:10Z</time>
      </trkpt>
      <trkpt lat="48.787246" lon="7.249011">
        <ele>324.0</ele>
        <time>2020-07-10T13:10:12Z</time>
      </trkpt>
      <trkpt lat="48.787199" lon="7.248945">
        <ele>325.0</ele>
        <time>2020-07-10T13:10:14Z</time>
      </trkpt>
      <trkpt lat="48.787145" lon="7.248857">
        <ele>325.0</ele>
        <time>2020-07-10T13:10:16Z</time>
      </trkpt>
      <trkpt lat="48.787093" lon="7.248771">
        <ele>325.0</ele>
        <time>2020-07-10T13:10:18Z</time>
      </trkpt>
      <trkpt lat="48.787048" lon="7.248692">
        <ele>325.0</ele>
        <time>2020-07-10T13:10:20Z</time>
      </trkpt>
      <trkpt lat="48.787002" lon="7.248617">
        <ele>326.0</ele>
        <time>2020-07-10T13:10:22Z</time>
      </trkpt>
      <trkpt lat="48.786959" lon="7.248538">
        <ele>326.0</ele>
        <time>2020-07-10T13:10:24Z</time>
      </trkpt>
      <trkpt lat="48.786914" lon="7.248461">
        <ele>326.0</ele>
        <time>2020-07-10T13:10:26Z</time>
      </trkpt>
      <trkpt lat="48.786869" lon="7.248382">
        <ele>327.0</ele>
        <time>2020-07-10T13:10:28Z</time>
      </trkpt>
      <trkpt lat="48.786819" lon="7.248302">
        <ele>327.0</ele>
        <time>2020-07-10T13:10:30Z</time>
      </trkpt>
      <trkpt lat="48.786765" lon="7.248203">
        <ele>328.0</ele>
        <time>2020-07-10T13:10:32Z</time>
      </trkpt>
      <trkpt lat="48.786716" lon="7.248114">
        <ele>328.0</ele>
        <time>2020-07-10T13:10:34Z</time>
      </trkpt>
      <trkpt lat="48.786656" lon="7.248028">
        <ele>329.0</ele>
        <time>2020-07-10T13:10:36Z</time>
      </trkpt>
      <trkpt lat="48.786603" lon="7.247936">
        <ele>330.0</ele>
        <time>2020-07-10T13:10:38Z</time>
      </trkpt>
      <trkpt lat="48.786555" lon="7.247842">
        <ele>330.0</ele>
        <time>2020-07-10T13:10:40Z</time>
      </trkpt>
      <trkpt lat="48.786505" lon="7.247741">
        <ele>329.0</ele>
        <time>2020-07-10T13:10:42Z</time>
      </trkpt>
      <trkpt lat="48.786455" lon="7.247646">
        <ele>329.0</ele>
        <time>2020-07-10T13:10:44Z</time>
      </trkpt>
      <trkpt lat="48.786403" lon="7.247546">
        <ele>330.0</ele>
        <time>2020-07-10T13:10:46Z</time>
      </trkpt>
      <trkpt lat="48.786351" lon="7.24744">
        <ele>330.0</ele>
        <time>2020-07-10T13:10:48Z</time>
      </trkpt>
      <trkpt lat="48.786302" lon="7.247339">
        <ele>330.0</ele>
        <time>2020-07-10T13:10:50Z</time>
      </trkpt>
      <trkpt lat="48.786253" lon="7.247237">
        <ele>329.0</ele>
        <time>2020-07-10T13:10:52Z</time>
      </trkpt>
      <trkpt lat="48.7862" lon="7.247141">
        <ele>329.0</ele>
        <time>2020-07-10T13:10:54Z</time>
      </trkpt>
      <trkpt lat="48.786153" lon="7.247042">
        <ele>329.0</ele>
        <time>2020-07-10T13:10:56Z</time>
      </trkpt>
      <trkpt lat="48.786113" lon="7.246939">
        <ele>329.0</ele>
        <time>2020-07-10T13:10:58Z</time>
      </trkpt>
      <trkpt lat="48.78607" lon="7.246844">
        <ele>329.0</ele>
        <time>2020-07-10T13:11:00Z</time>
      </trkpt>
      <trkpt lat="48.786022" lon="7.246747">
        <ele>329.0</ele>
        <time>2020-07-10T13:11:02Z</time>
      </trkpt>
      <trkpt lat="48.785972" lon="7.246648">
        <ele>329.0</ele>
        <time>2020-07-10T13:11:04Z</time>
      </trkpt>
      <trkpt lat="48.785891" lon="7.24651">
        <ele>329.0</ele>
        <time>2020-07-10T13:11:07Z</time>
      </trkpt>
      <trkpt lat="48.785871" lon="7.246464">
        <ele>329.0</ele>
        <time>2020-07-10T13:11:08Z</time>
      </trkpt>
      <trkpt lat="48.785801" lon="7.246313">
        <ele>327.0</ele>
        <time>2020-07-10T13:11:11Z</time>
      </trkpt>
      <trkpt lat="48.785757" lon="7.246207">
        <ele>326.0</ele>
        <time>2020-07-10T13:11:13Z</time>
      </trkpt>
      <trkpt lat="48.785737" lon="7.246152">
        <ele>326.0</ele>
        <time>2020-07-10T13:11:14Z</time>
      </trkpt>
      <trkpt lat="48.785689" lon="7.246047">
        <ele>326.0</ele>
        <time>2020-07-10T13:11:16Z</time>
      </trkpt>
      <trkpt lat="48.785613" lon="7.245883">
        <ele>326.0</ele>
        <time>2020-07-10T13:11:19Z</time>
      </trkpt>
      <trkpt lat="48.78556" lon="7.245777">
        <ele>325.0</ele>
        <time>2020-07-10T13:11:21Z</time>
      </trkpt>
      <trkpt lat="48.785511" lon="7.245665">
        <ele>325.0</ele>
        <time>2020-07-10T13:11:23Z</time>
      </trkpt>
      <trkpt lat="48.785462" lon="7.245554">
        <ele>325.0</ele>
        <time>2020-07-10T13:11:25Z</time>
      </trkpt>
      <trkpt lat="48.785415" lon="7.245449">
        <ele>326.0</ele>
        <time>2020-07-10T13:11:27Z</time>
      </trkpt>
      <trkpt lat="48.78537" lon="7.245337">
        <ele>325.0</ele>
        <time>2020-07-10T13:11:29Z</time>
      </trkpt>
      <trkpt lat="48.785316" lon="7.245209">
        <ele>325.0</ele>
        <time>2020-07-10T13:11:31Z</time>
      </trkpt>
      <trkpt lat="48.785264" lon="7.245084">
        <ele>325.0</ele>
        <time>2020-07-10T13:11:33Z</time>
      </trkpt>
      <trkpt lat="48.785215" lon="7.244968">
        <ele>325.0</ele>
        <time>2020-07-10T13:11:35Z</time>
      </trkpt>
      <trkpt lat="48.785177" lon="7.244848">
        <ele>325.0</ele>
        <time>2020-07-10T13:11:37Z</time>
      </trkpt>
      <trkpt lat="48.785136" lon="7.24473">
        <ele>325.0</ele>
        <time>2020-07-10T13:11:39Z</time>
      </trkpt>
      <trkpt lat="48.785093" lon="7.244615">
        <ele>325.0</ele>
        <time>2020-07-10T13:11:41Z</time>
      </trkpt>
      <trkpt lat="48.785064" lon="7.244525">
        <ele>325.0</ele>
        <time>2020-07-10T13:11:43Z</time>
      </trkpt>
      <trkpt lat="48.78503" lon="7.244439">
        <ele>325.0</ele>
        <time>2020-07-10T13:11:45Z</time>
      </trkpt>
      <trkpt lat="48.784994" lon="7.244346">
        <ele>324.0</ele>
        <time>2020-07-10T13:11:47Z</time>
      </trkpt>
      <trkpt lat="48.784941" lon="7.244228">
        <ele>323.0</ele>
        <time>2020-07-10T13:11:49Z</time>
      </trkpt>
      <trkpt lat="48.784893" lon="7.244113">
        <ele>323.0</ele>
        <time>2020-07-10T13:11:51Z</time>
      </trkpt>
      <trkpt lat="48.784859" lon="7.244008">
        <ele>322.0</ele>
        <time>2020-07-10T13:11:53Z</time>
      </trkpt>
      <trkpt lat="48.784825" lon="7.243903">
        <ele>322.0</ele>
        <time>2020-07-10T13:11:55Z</time>
      </trkpt>
      <trkpt lat="48.78479" lon="7.243809">
        <ele>323.0</ele>
        <time>2020-07-10T13:11:57Z</time>
      </trkpt>
      <trkpt lat="48.784761" lon="7.243706">
        <ele>323.0</ele>
        <time>2020-07-10T13:11:59Z</time>
      </trkpt>
      <trkpt lat="48.784735" lon="7.243593">
        <ele>323.0</ele>
        <time>2020-07-10T13:12:01Z</time>
      </trkpt>
      <trkpt lat="48.784697" lon="7.243464">
        <ele>323.0</ele>
        <time>2020-07-10T13:12:03Z</time>
      </trkpt>
      <trkpt lat="48.784657" lon="7.24335">
        <ele>324.0</ele>
        <time>2020-07-10T13:12:05Z</time>
      </trkpt>
      <trkpt lat="48.784626" lon="7.243234">
        <ele>323.0</ele>
        <time>2020-07-10T13:12:07Z</time>
      </trkpt>
      <trkpt lat="48.784602" lon="7.243127">
        <ele>323.0</ele>
        <time>2020-07-10T13:12:09Z</time>
      </trkpt>
      <trkpt lat="48.784582" lon="7.243019">
        <ele>323.0</ele>
        <time>2020-07-10T13:12:11Z</time>
      </trkpt>
      <trkpt lat="48.784565" lon="7.242912">
        <ele>323.0</ele>
        <time>2020-07-10T13:12:13Z</time>
      </trkpt>
      <trkpt lat="48.784544" lon="7.242812">
        <ele>323.0</ele>
        <time>2020-07-10T13:12:15Z</time>
      </trkpt>
      <trkpt lat="48.784526" lon="7.242725">
        <ele>322.0</ele>
        <time>2020-07-10T13:12:17Z</time>
      </trkpt>
      <trkpt lat="48.784519" lon="7.242663">
        <ele>322.0</ele>
        <time>2020-07-10T13:12:19Z</time>
      </trkpt>
      <trkpt lat="48.784504" lon="7.242643">
        <ele>322.0</ele>
        <time>2020-07-10T13:12:21Z</time>
      </trkpt>
      <trkpt lat="48.784492" lon="7.242639">
        <ele>322.0</ele>
        <time>2020-07-10T13:12:23Z</time>
      </trkpt>
      <trkpt lat="48.784492" lon="7.242639">
        <ele>322.0</ele>
        <time>2020-07-10T13:12:25Z</time>
      </trkpt>
      <trkpt lat="48.784492" lon="7.242639">
        <ele>322.0</ele>
        <time>2020-07-10T13:12:27Z</time>
      </trkpt>
      <trkpt lat="48.784492" lon="7.242639">
        <ele>322.0</ele>
        <time>2020-07-10T13:12:29Z</time>
      </trkpt>
      <trkpt lat="48.784492" lon="7.242639">
        <ele>322.0</ele>
        <time>2020-07-10T13:12:31Z</time>
      </trkpt>
      <trkpt lat="48.784492" lon="7.242639">
        <ele>322.0</ele>
        <time>2020-07-10T13:12:33Z</time>
      </trkpt>
      <trkpt lat="48.784492" lon="7.242639">
        <ele>322.0</ele>
        <time>2020-07-10T13:12:35Z</time>
      </trkpt>
      <trkpt lat="48.784492" lon="7.242639">
        <ele>322.0</ele>
        <time>2020-07-10T13:12:37Z</time>
      </trkpt>
      <trkpt lat="48.784492" lon="7.242639">
        <ele>322.0</ele>
        <time>2020-07-10T13:12:39Z</time>
      </trkpt>
      <trkpt lat="48.784495" lon="7.242651">
        <ele>322.0</ele>
        <time>2020-07-10T13:12:41Z</time>
      </trkpt>
      <trkpt lat="48.784497" lon="7.242684">
        <ele>322.0</ele>
        <time>2020-07-10T13:12:43Z</time>
      </trkpt>
      <trkpt lat="48.784503" lon="7.242707">
        <ele>321.0</ele>
        <time>2020-07-10T13:12:45Z</time>
      </trkpt>
      <trkpt lat="48.784515" lon="7.242729">
        <ele>321.0</ele>
        <time>2020-07-10T13:12:47Z</time>
      </trkpt>
      <trkpt lat="48.784531" lon="7.242774">
        <ele>322.0</ele>
        <time>2020-07-10T13:12:49Z</time>
      </trkpt>
      <trkpt lat="48.784542" lon="7.242824">
        <ele>322.0</ele>
        <time>2020-07-10T13:12:51Z</time>
      </trkpt>
      <trkpt lat="48.784563" lon="7.242885">
        <ele>322.0</ele>
        <time>2020-07-10T13:12:53Z</time>
      </trkpt>
      <trkpt lat="48.784578" lon="7.242947">
        <ele>324.0</ele>
        <time>2020-07-10T13:12:55Z</time>
      </trkpt>
      <trkpt lat="48.784588" lon="7.243032">
        <ele>323.0</ele>
        <time>2020-07-10T13:12:57Z</time>
      </trkpt>
      <trkpt lat="48.784602" lon="7.243124">
        <ele>324.0</ele>
        <time>2020-07-10T13:12:59Z</time>
      </trkpt>
      <trkpt lat="48.784622" lon="7.243219">
        <ele>324.0</ele>
        <time>2020-07-10T13:13:01Z</time>
      </trkpt>
      <trkpt lat="48.784644" lon="7.243309">
        <ele>325.0</ele>
        <time>2020-07-10T13:13:03Z</time>
      </trkpt>
      <trkpt lat="48.784678" lon="7.243392">
        <ele>324.0</ele>
        <time>2020-07-10T13:13:05Z</time>
      </trkpt>
      <trkpt lat="48.784708" lon="7.24348">
        <ele>324.0</ele>
        <time>2020-07-10T13:13:07Z</time>
      </trkpt>
      <trkpt lat="48.784737" lon="7.243579">
        <ele>324.0</ele>
        <time>2020-07-10T13:13:09Z</time>
      </trkpt>
      <trkpt lat="48.784764" lon="7.243667">
        <ele>324.0</ele>
        <time>2020-07-10T13:13:11Z</time>
      </trkpt>
      <trkpt lat="48.784799" lon="7.243764">
        <ele>324.0</ele>
        <time>2020-07-10T13:13:13Z</time>
      </trkpt>
      <trkpt lat="48.784832" lon="7.243852">
        <ele>323.0</ele>
        <time>2020-07-10T13:13:15Z</time>
      </trkpt>
      <trkpt lat="48.784866" lon="7.243947">
        <ele>324.0</ele>
        <time>2020-07-10T13:13:17Z</time>
      </trkpt>
      <trkpt lat="48.784899" lon="7.244044">
        <ele>324.0</ele>
        <time>2020-07-10T13:13:19Z</time>
      </trkpt>
      <trkpt lat="48.784927" lon="7.244134">
        <ele>324.0</ele>
        <time>2020-07-10T13:13:21Z</time>
      </trkpt>
      <trkpt lat="48.784954" lon="7.244245">
        <ele>324.0</ele>
        <time>2020-07-10T13:13:23Z</time>
      </trkpt>
      <trkpt lat="48.784996" lon="7.244347">
        <ele>324.0</ele>
        <time>2020-07-10T13:13:25Z</time>
      </trkpt>
      <trkpt lat="48.785025" lon="7.24444">
        <ele>324.0</ele>
        <time>2020-07-10T13:13:27Z</time>
      </trkpt>
      <trkpt lat="48.785061" lon="7.244524">
        <ele>324.0</ele>
        <time>2020-07-10T13:13:29Z</time>
      </trkpt>
      <trkpt lat="48.785103" lon="7.244612">
        <ele>324.0</ele>
        <time>2020-07-10T13:13:31Z</time>
      </trkpt>
      <trkpt lat="48.785148" lon="7.244734">
        <ele>324.0</ele>
        <time>2020-07-10T13:13:33Z</time>
      </trkpt>
      <trkpt lat="48.785182" lon="7.24485">
        <ele>323.0</ele>
        <time>2020-07-10T13:13:35Z</time>
      </trkpt>
      <trkpt lat="48.785216" lon="7.244976">
        <ele>323.0</ele>
        <time>2020-07-10T13:13:37Z</time>
      </trkpt>
      <trkpt lat="48.785264" lon="7.245092">
        <ele>323.0</ele>
        <time>2020-07-10T13:13:39Z</time>
      </trkpt>
      <trkpt lat="48.785307" lon="7.245205">
        <ele>323.0</ele>
        <time>2020-07-10T13:13:41Z</time>
      </trkpt>
      <trkpt lat="48.785348" lon="7.245313">
        <ele>322.0</ele>
        <time>2020-07-10T13:13:43Z</time>
      </trkpt>
      <trkpt lat="48.785392" lon="7.245417">
        <ele>323.0</ele>
        <time>2020-07-10T13:13:45Z</time>
      </trkpt>
      <trkpt lat="48.785434" lon="7.245516">
        <ele>324.0</ele>
        <time>2020-07-10T13:13:47Z</time>
      </trkpt>
      <trkpt lat="48.785474" lon="7.245614">
        <ele>325.0</ele>
        <time>2020-07-10T13:13:49Z</time>
      </trkpt>
      <trkpt lat="48.785524" lon="7.245704">
        <ele>325.0</ele>
        <time>2020-07-10T13:13:51Z</time>
      </trkpt>
      <trkpt lat="48.785571" lon="7.245795">
        <ele>325.0</ele>
        <time>2020-07-10T13:13:53Z</time>
      </trkpt>
      <trkpt lat="48.785613" lon="7.245897">
        <ele>325.0</ele>
        <time>2020-07-10T13:13:55Z</time>
      </trkpt>
      <trkpt lat="48.785655" lon="7.245985">
        <ele>325.0</ele>
        <time>2020-07-10T13:13:57Z</time>
      </trkpt>
      <trkpt lat="48.785698" lon="7.24608">
        <ele>326.0</ele>
        <time>2020-07-10T13:13:59Z</time>
      </trkpt>
      <trkpt lat="48.785746" lon="7.24618">
        <ele>326.0</ele>
        <time>2020-07-10T13:14:01Z</time>
      </trkpt>
      <trkpt lat="48.785795" lon="7.246282">
        <ele>326.0</ele>
        <time>2020-07-10T13:14:03Z</time>
      </trkpt>
      <trkpt lat="48.785841" lon="7.246394">
        <ele>326.0</ele>
        <time>2020-07-10T13:14:05Z</time>
      </trkpt>
      <trkpt lat="48.785887" lon="7.246508">
        <ele>327.0</ele>
        <time>2020-07-10T13:14:07Z</time>
      </trkpt>
      <trkpt lat="48.785934" lon="7.246614">
        <ele>327.0</ele>
        <time>2020-07-10T13:14:09Z</time>
      </trkpt>
      <trkpt lat="48.78598" lon="7.246708">
        <ele>327.0</ele>
        <time>2020-07-10T13:14:11Z</time>
      </trkpt>
      <trkpt lat="48.786022" lon="7.246792">
        <ele>327.0</ele>
        <time>2020-07-10T13:14:13Z</time>
      </trkpt>
      <trkpt lat="48.786066" lon="7.246877">
        <ele>326.0</ele>
        <time>2020-07-10T13:14:15Z</time>
      </trkpt>
      <trkpt lat="48.786107" lon="7.246963">
        <ele>327.0</ele>
        <time>2020-07-10T13:14:17Z</time>
      </trkpt>
      <trkpt lat="48.786151" lon="7.247068">
        <ele>327.0</ele>
        <time>2020-07-10T13:14:19Z</time>
      </trkpt>
      <trkpt lat="48.786199" lon="7.247162">
        <ele>327.0</ele>
        <time>2020-07-10T13:14:21Z</time>
      </trkpt>
      <trkpt lat="48.786273" lon="7.24729">
        <ele>327.0</ele>
        <time>2020-07-10T13:14:24Z</time>
      </trkpt>
      <trkpt lat="48.786321" lon="7.247379">
        <ele>326.0</ele>
        <time>2020-07-10T13:14:26Z</time>
      </trkpt>
      <trkpt lat="48.78637" lon="7.247461">
        <ele>326.0</ele>
        <time>2020-07-10T13:14:28Z</time>
      </trkpt>
      <trkpt lat="48.786414" lon="7.24755">
        <ele>326.0</ele>
        <time>2020-07-10T13:14:30Z</time>
      </trkpt>
      <trkpt lat="48.786453" lon="7.247631">
        <ele>326.0</ele>
        <time>2020-07-10T13:14:32Z</time>
      </trkpt>
      <trkpt lat="48.786491" lon="7.247714">
        <ele>326.0</ele>
        <time>2020-07-10T13:14:34Z</time>
      </trkpt>
      <trkpt lat="48.786539" lon="7.247789">
        <ele>326.0</ele>
        <time>2020-07-10T13:14:36Z</time>
      </trkpt>
      <trkpt lat="48.786585" lon="7.247878">
        <ele>326.0</ele>
        <time>2020-07-10T13:14:38Z</time>
      </trkpt>
      <trkpt lat="48.786643" lon="7.247972">
        <ele>327.0</ele>
        <time>2020-07-10T13:14:40Z</time>
      </trkpt>
      <trkpt lat="48.786698" lon="7.248073">
        <ele>327.0</ele>
        <time>2020-07-10T13:14:42Z</time>
      </trkpt>
      <trkpt lat="48.786744" lon="7.248172">
        <ele>326.0</ele>
        <time>2020-07-10T13:14:44Z</time>
      </trkpt>
      <trkpt lat="48.786792" lon="7.248261">
        <ele>326.0</ele>
        <time>2020-07-10T13:14:46Z</time>
      </trkpt>
      <trkpt lat="48.786843" lon="7.248333">
        <ele>326.0</ele>
        <time>2020-07-10T13:14:48Z</time>
      </trkpt>
      <trkpt lat="48.786892" lon="7.248419">
        <ele>326.0</ele>
        <time>2020-07-10T13:14:50Z</time>
      </trkpt>
      <trkpt lat="48.786952" lon="7.24851">
        <ele>326.0</ele>
        <time>2020-07-10T13:14:52Z</time>
      </trkpt>
      <trkpt lat="48.787016" lon="7.248619">
        <ele>326.0</ele>
        <time>2020-07-10T13:14:54Z</time>
      </trkpt>
      <trkpt lat="48.78708" lon="7.248727">
        <ele>326.0</ele>
        <time>2020-07-10T13:14:56Z</time>
      </trkpt>
      <trkpt lat="48.787145" lon="7.248828">
        <ele>325.0</ele>
        <time>2020-07-10T13:14:58Z</time>
      </trkpt>
      <trkpt lat="48.787213" lon="7.248927">
        <ele>325.0</ele>
        <time>2020-07-10T13:15:00Z</time>
      </trkpt>
      <trkpt lat="48.787272" lon="7.249033">
        <ele>324.0</ele>
        <time>2020-07-10T13:15:02Z</time>
      </trkpt>
      <trkpt lat="48.787339" lon="7.249122">
        <ele>325.0</ele>
        <time>2020-07-10T13:15:04Z</time>
      </trkpt>
      <trkpt lat="48.787412" lon="7.249209">
        <ele>324.0</ele>
        <time>2020-07-10T13:15:06Z</time>
      </trkpt>
      <trkpt lat="48.787491" lon="7.24929">
        <ele>324.0</ele>
        <time>2020-07-10T13:15:08Z</time>
      </trkpt>
      <trkpt lat="48.787572" lon="7.249353">
        <ele>325.0</ele>
        <time>2020-07-10T13:15:10Z</time>
      </trkpt>
      <trkpt lat="48.787661" lon="7.249418">
        <ele>325.0</ele>
        <time>2020-07-10T13:15:12Z</time>
      </trkpt>
      <trkpt lat="48.787744" lon="7.24947">
        <ele>324.0</ele>
        <time>2020-07-10T13:15:14Z</time>
      </trkpt>
      <trkpt lat="48.78781" lon="7.249513">
        <ele>324.0</ele>
        <time>2020-07-10T13:15:16Z</time>
      </trkpt>
      <trkpt lat="48.787855" lon="7.249544">
        <ele>324.0</ele>
        <time>2020-07-10T13:15:18Z</time>
      </trkpt>
      <trkpt lat="48.787887" lon="7.249571">
        <ele>324.0</ele>
        <time>2020-07-10T13:15:20Z</time>
      </trkpt>
      <trkpt lat="48.787928" lon="7.249595">
        <ele>324.0</ele>
        <time>2020-07-10T13:15:22Z</time>
      </trkpt>
      <trkpt lat="48.787974" lon="7.249621">
        <ele>324.0</ele>
        <time>2020-07-10T13:15:24Z</time>
      </trkpt>
      <trkpt lat="48.788031" lon="7.249643">
        <ele>324.0</ele>
        <time>2020-07-10T13:15:26Z</time>
      </trkpt>
      <trkpt lat="48.788108" lon="7.249673">
        <ele>323.0</ele>
        <time>2020-07-10T13:15:28Z</time>
      </trkpt>
      <trkpt lat="48.788191" lon="7.24971">
        <ele>323.0</ele>
        <time>2020-07-10T13:15:30Z</time>
      </trkpt>
      <trkpt lat="48.788279" lon="7.249734">
        <ele>323.0</ele>
        <time>2020-07-10T13:15:32Z</time>
      </trkpt>
      <trkpt lat="48.788361" lon="7.249764">
        <ele>321.0</ele>
        <time>2020-07-10T13:15:34Z</time>
      </trkpt>
      <trkpt lat="48.788467" lon="7.249801">
        <ele>321.0</ele>
        <time>2020-07-10T13:15:36Z</time>
      </trkpt>
      <trkpt lat="48.788562" lon="7.249848">
        <ele>321.0</ele>
        <time>2020-07-10T13:15:38Z</time>
      </trkpt>
      <trkpt lat="48.78862" lon="7.249897">
        <ele>320.0</ele>
        <time>2020-07-10T13:15:40Z</time>
      </trkpt>
      <trkpt lat="48.788683" lon="7.249953">
        <ele>320.0</ele>
        <time>2020-07-10T13:15:42Z</time>
      </trkpt>
      <trkpt lat="48.788785" lon="7.250049">
        <ele>317.0</ele>
        <time>2020-07-10T13:15:44Z</time>
      </trkpt>
      <trkpt lat="48.788893" lon="7.25016">
        <ele>316.0</ele>
        <time>2020-07-10T13:15:46Z</time>
      </trkpt>
      <trkpt lat="48.788986" lon="7.250257">
        <ele>314.0</ele>
        <time>2020-07-10T13:15:48Z</time>
      </trkpt>
      <trkpt lat="48.789062" lon="7.250327">
        <ele>313.0</ele>
        <time>2020-07-10T13:15:50Z</time>
      </trkpt>
      <trkpt lat="48.789104" lon="7.250399">
        <ele>312.0</ele>
        <time>2020-07-10T13:15:52Z</time>
      </trkpt>
      <trkpt lat="48.789107" lon="7.250497">
        <ele>312.0</ele>
        <time>2020-07-10T13:15:54Z</time>
      </trkpt>
      <trkpt lat="48.789062" lon="7.250578">
        <ele>311.0</ele>
        <time>2020-07-10T13:15:56Z</time>
      </trkpt>
      <trkpt lat="48.788966" lon="7.250612">
        <ele>311.0</ele>
        <time>2020-07-10T13:15:58Z</time>
      </trkpt>
      <trkpt lat="48.788866" lon="7.250638">
        <ele>311.0</ele>
        <time>2020-07-10T13:16:00Z</time>
      </trkpt>
      <trkpt lat="48.788853" lon="7.250647">
        <ele>309.0</ele>
        <time>2020-07-10T13:16:02Z</time>
      </trkpt>
      <trkpt lat="48.788742" lon="7.250682">
        <ele>307.0</ele>
        <time>2020-07-10T13:16:04Z</time>
      </trkpt>
      <trkpt lat="48.788554" lon="7.25078">
        <ele>305.0</ele>
        <time>2020-07-10T13:16:06Z</time>
      </trkpt>
      <trkpt lat="48.788396" lon="7.250969">
        <ele>305.0</ele>
        <time>2020-07-10T13:16:08Z</time>
      </trkpt>
      <trkpt lat="48.788255" lon="7.251211">
        <ele>303.0</ele>
        <time>2020-07-10T13:16:10Z</time>
      </trkpt>
      <trkpt lat="48.788128" lon="7.251475">
        <ele>303.0</ele>
        <time>2020-07-10T13:16:12Z</time>
      </trkpt>
      <trkpt lat="48.788007" lon="7.251737">
        <ele>301.0</ele>
        <time>2020-07-10T13:16:14Z</time>
      </trkpt>
      <trkpt lat="48.7879" lon="7.25199">
        <ele>299.0</ele>
        <time>2020-07-10T13:16:16Z</time>
      </trkpt>
      <trkpt lat="48.787815" lon="7.252202">
        <ele>298.0</ele>
        <time>2020-07-10T13:16:18Z</time>
      </trkpt>
      <trkpt lat="48.787758" lon="7.252404">
        <ele>297.0</ele>
        <time>2020-07-10T13:16:20Z</time>
      </trkpt>
      <trkpt lat="48.787717" lon="7.252577">
        <ele>296.0</ele>
        <time>2020-07-10T13:16:22Z</time>
      </trkpt>
      <trkpt lat="48.78767" lon="7.252748">
        <ele>296.0</ele>
        <time>2020-07-10T13:16:24Z</time>
      </trkpt>
      <trkpt lat="48.787596" lon="7.252926">
        <ele>296.0</ele>
        <time>2020-07-10T13:16:26Z</time>
      </trkpt>
      <trkpt lat="48.787468" lon="7.253071">
        <ele>295.0</ele>
        <time>2020-07-10T13:16:28Z</time>
      </trkpt>
      <trkpt lat="48.787326" lon="7.253171">
        <ele>294.0</ele>
        <time>2020-07-10T13:16:30Z</time>
      </trkpt>
      <trkpt lat="48.787205" lon="7.253275">
        <ele>294.0</ele>
        <time>2020-07-10T13:16:32Z</time>
      </trkpt>
      <trkpt lat="48.787096" lon="7.253368">
        <ele>294.0</ele>
        <time>2020-07-10T13:16:34Z</time>
      </trkpt>
      <trkpt lat="48.786991" lon="7.25345">
        <ele>294.0</ele>
        <time>2020-07-10T13:16:36Z</time>
      </trkpt>
      <trkpt lat="48.786903" lon="7.253529">
        <ele>294.0</ele>
        <time>2020-07-10T13:16:38Z</time>
      </trkpt>
      <trkpt lat="48.786827" lon="7.25359">
        <ele>294.0</ele>
        <time>2020-07-10T13:16:40Z</time>
      </trkpt>
      <trkpt lat="48.786746" lon="7.253653">
        <ele>294.0</ele>
        <time>2020-07-10T13:16:42Z</time>
      </trkpt>
      <trkpt lat="48.786683" lon="7.253702">
        <ele>294.0</ele>
        <time>2020-07-10T13:16:44Z</time>
      </trkpt>
      <trkpt lat="48.78662" lon="7.253745">
        <ele>294.0</ele>
        <time>2020-07-10T13:16:46Z</time>
      </trkpt>
      <trkpt lat="48.786563" lon="7.253793">
        <ele>294.0</ele>
        <time>2020-07-10T13:16:48Z</time>
      </trkpt>
      <trkpt lat="48.786508" lon="7.253838">
        <ele>294.0</ele>
        <time>2020-07-10T13:16:50Z</time>
      </trkpt>
      <trkpt lat="48.786454" lon="7.253874">
        <ele>295.0</ele>
        <time>2020-07-10T13:16:52Z</time>
      </trkpt>
      <trkpt lat="48.786403" lon="7.253914">
        <ele>295.0</ele>
        <time>2020-07-10T13:16:54Z</time>
      </trkpt>
      <trkpt lat="48.786355" lon="7.253953">
        <ele>295.0</ele>
        <time>2020-07-10T13:16:56Z</time>
      </trkpt>
      <trkpt lat="48.786305" lon="7.253994">
        <ele>296.0</ele>
        <time>2020-07-10T13:16:58Z</time>
      </trkpt>
      <trkpt lat="48.786251" lon="7.254033">
        <ele>296.0</ele>
        <time>2020-07-10T13:17:00Z</time>
      </trkpt>
      <trkpt lat="48.786199" lon="7.254067">
        <ele>296.0</ele>
        <time>2020-07-10T13:17:02Z</time>
      </trkpt>
      <trkpt lat="48.786137" lon="7.254076">
        <ele>296.0</ele>
        <time>2020-07-10T13:17:04Z</time>
      </trkpt>
      <trkpt lat="48.78609" lon="7.254043">
        <ele>297.0</ele>
        <time>2020-07-10T13:17:06Z</time>
      </trkpt>
      <trkpt lat="48.786065" lon="7.253997">
        <ele>297.0</ele>
        <time>2020-07-10T13:17:08Z</time>
      </trkpt>
      <trkpt lat="48.786042" lon="7.253956">
        <ele>298.0</ele>
        <time>2020-07-10T13:17:10Z</time>
      </trkpt>
      <trkpt lat="48.786025" lon="7.253921">
        <ele>297.0</ele>
        <time>2020-07-10T13:17:12Z</time>
      </trkpt>
      <trkpt lat="48.786012" lon="7.253869">
        <ele>298.0</ele>
        <time>2020-07-10T13:17:14Z</time>
      </trkpt>
      <trkpt lat="48.786007" lon="7.25382">
        <ele>298.0</ele>
        <time>2020-07-10T13:17:16Z</time>
      </trkpt>
      <trkpt lat="48.785994" lon="7.253766">
        <ele>298.0</ele>
        <time>2020-07-10T13:17:18Z</time>
      </trkpt>
      <trkpt lat="48.785978" lon="7.253712">
        <ele>298.0</ele>
        <time>2020-07-10T13:17:20Z</time>
      </trkpt>
      <trkpt lat="48.785961" lon="7.253662">
        <ele>299.0</ele>
        <time>2020-07-10T13:17:22Z</time>
      </trkpt>
      <trkpt lat="48.785946" lon="7.253607">
        <ele>299.0</ele>
        <time>2020-07-10T13:17:24Z</time>
      </trkpt>
      <trkpt lat="48.785932" lon="7.253553">
        <ele>299.0</ele>
        <time>2020-07-10T13:17:26Z</time>
      </trkpt>
      <trkpt lat="48.78592" lon="7.253506">
        <ele>299.0</ele>
        <time>2020-07-10T13:17:28Z</time>
      </trkpt>
      <trkpt lat="48.785907" lon="7.253457">
        <ele>299.0</ele>
        <time>2020-07-10T13:17:30Z</time>
      </trkpt>
      <trkpt lat="48.785892" lon="7.253409">
        <ele>299.0</ele>
        <time>2020-07-10T13:17:32Z</time>
      </trkpt>
      <trkpt lat="48.785877" lon="7.253366">
        <ele>300.0</ele>
        <time>2020-07-10T13:17:34Z</time>
      </trkpt>
      <trkpt lat="48.785869" lon="7.253322">
        <ele>300.0</ele>
        <time>2020-07-10T13:17:36Z</time>
      </trkpt>
      <trkpt lat="48.785862" lon="7.253282">
        <ele>301.0</ele>
        <time>2020-07-10T13:17:38Z</time>
      </trkpt>
      <trkpt lat="48.785847" lon="7.253247">
        <ele>301.0</ele>
        <time>2020-07-10T13:17:40Z</time>
      </trkpt>
      <trkpt lat="48.785831" lon="7.253183">
        <ele>301.0</ele>
        <time>2020-07-10T13:17:43Z</time>
      </trkpt>
      <trkpt lat="48.785826" lon="7.253159">
        <ele>301.0</ele>
        <time>2020-07-10T13:17:44Z</time>
      </trkpt>
      <trkpt lat="48.785811" lon="7.253119">
        <ele>301.0</ele>
        <time>2020-07-10T13:17:46Z</time>
      </trkpt>
      <trkpt lat="48.785798" lon="7.253082">
        <ele>302.0</ele>
        <time>2020-07-10T13:17:48Z</time>
      </trkpt>
      <trkpt lat="48.78579" lon="7.253041">
        <ele>303.0</ele>
        <time>2020-07-10T13:17:50Z</time>
      </trkpt>
      <trkpt lat="48.785778" lon="7.252969">
        <ele>304.0</ele>
        <time>2020-07-10T13:17:53Z</time>
      </trkpt>
      <trkpt lat="48.785775" lon="7.252925">
        <ele>305.0</ele>
        <time>2020-07-10T13:17:55Z</time>
      </trkpt>
      <trkpt lat="48.785772" lon="7.252874">
        <ele>305.0</ele>
        <time>2020-07-10T13:17:57Z</time>
      </trkpt>
      <trkpt lat="48.785768" lon="7.252833">
        <ele>305.0</ele>
        <time>2020-07-10T13:17:59Z</time>
      </trkpt>
      <trkpt lat="48.785765" lon="7.252796">
        <ele>305.0</ele>
        <time>2020-07-10T13:18:01Z</time>
      </trkpt>
      <trkpt lat="48.785765" lon="7.252746">
        <ele>305.0</ele>
        <time>2020-07-10T13:18:03Z</time>
      </trkpt>
      <trkpt lat="48.785764" lon="7.252701">
        <ele>305.0</ele>
        <time>2020-07-10T13:18:05Z</time>
      </trkpt>
      <trkpt lat="48.785759" lon="7.252656">
        <ele>305.0</ele>
        <time>2020-07-10T13:18:07Z</time>
      </trkpt>
      <trkpt lat="48.785747" lon="7.252611">
        <ele>306.0</ele>
        <time>2020-07-10T13:18:09Z</time>
      </trkpt>
      <trkpt lat="48.785745" lon="7.2526">
        <ele>307.0</ele>
        <time>2020-07-10T13:18:11Z</time>
      </trkpt>
      <trkpt lat="48.785742" lon="7.252602">
        <ele>306.0</ele>
        <time>2020-07-10T13:18:13Z</time>
      </trkpt>
      <trkpt lat="48.785742" lon="7.252602">
        <ele>306.0</ele>
        <time>2020-07-10T13:18:14Z</time>
      </trkpt>
      <trkpt lat="48.785742" lon="7.252602">
        <ele>306.0</ele>
        <time>2020-07-10T13:18:16Z</time>
      </trkpt>
      <trkpt lat="48.785742" lon="7.252602">
        <ele>306.0</ele>
        <time>2020-07-10T13:18:19Z</time>
      </trkpt>
      <trkpt lat="48.78574" lon="7.252578">
        <ele>307.0</ele>
        <time>2020-07-10T13:18:21Z</time>
      </trkpt>
      <trkpt lat="48.785737" lon="7.252547">
        <ele>308.0</ele>
        <time>2020-07-10T13:18:23Z</time>
      </trkpt>
      <trkpt lat="48.785734" lon="7.252518">
        <ele>308.0</ele>
        <time>2020-07-10T13:18:25Z</time>
      </trkpt>
      <trkpt lat="48.785723" lon="7.252471">
        <ele>309.0</ele>
        <time>2020-07-10T13:18:27Z</time>
      </trkpt>
      <trkpt lat="48.785712" lon="7.252429">
        <ele>309.0</ele>
        <time>2020-07-10T13:18:29Z</time>
      </trkpt>
      <trkpt lat="48.785705" lon="7.252398">
        <ele>310.0</ele>
        <time>2020-07-10T13:18:31Z</time>
      </trkpt>
      <trkpt lat="48.785702" lon="7.252367">
        <ele>310.0</ele>
        <time>2020-07-10T13:18:33Z</time>
      </trkpt>
      <trkpt lat="48.7857" lon="7.252338">
        <ele>310.0</ele>
        <time>2020-07-10T13:18:35Z</time>
      </trkpt>
      <trkpt lat="48.785692" lon="7.252305">
        <ele>310.0</ele>
        <time>2020-07-10T13:18:37Z</time>
      </trkpt>
      <trkpt lat="48.785688" lon="7.252272">
        <ele>310.0</ele>
        <time>2020-07-10T13:18:39Z</time>
      </trkpt>
      <trkpt lat="48.785681" lon="7.252238">
        <ele>311.0</ele>
        <time>2020-07-10T13:18:41Z</time>
      </trkpt>
      <trkpt lat="48.785677" lon="7.252204">
        <ele>311.0</ele>
        <time>2020-07-10T13:18:43Z</time>
      </trkpt>
      <trkpt lat="48.785667" lon="7.252173">
        <ele>312.0</ele>
        <time>2020-07-10T13:18:45Z</time>
      </trkpt>
      <trkpt lat="48.785668" lon="7.252137">
        <ele>312.0</ele>
        <time>2020-07-10T13:18:47Z</time>
      </trkpt>
      <trkpt lat="48.785665" lon="7.2521">
        <ele>312.0</ele>
        <time>2020-07-10T13:18:49Z</time>
      </trkpt>
      <trkpt lat="48.78566" lon="7.252065">
        <ele>312.0</ele>
        <time>2020-07-10T13:18:51Z</time>
      </trkpt>
      <trkpt lat="48.785653" lon="7.252016">
        <ele>311.0</ele>
        <time>2020-07-10T13:18:53Z</time>
      </trkpt>
      <trkpt lat="48.785647" lon="7.251984">
        <ele>312.0</ele>
        <time>2020-07-10T13:18:55Z</time>
      </trkpt>
      <trkpt lat="48.785646" lon="7.251947">
        <ele>312.0</ele>
        <time>2020-07-10T13:18:57Z</time>
      </trkpt>
      <trkpt lat="48.785638" lon="7.251917">
        <ele>313.0</ele>
        <time>2020-07-10T13:18:59Z</time>
      </trkpt>
      <trkpt lat="48.785629" lon="7.251885">
        <ele>314.0</ele>
        <time>2020-07-10T13:19:01Z</time>
      </trkpt>
      <trkpt lat="48.785624" lon="7.251854">
        <ele>313.0</ele>
        <time>2020-07-10T13:19:03Z</time>
      </trkpt>
      <trkpt lat="48.785621" lon="7.251813">
        <ele>312.0</ele>
        <time>2020-07-10T13:19:05Z</time>
      </trkpt>
      <trkpt lat="48.785618" lon="7.251775">
        <ele>313.0</ele>
        <time>2020-07-10T13:19:07Z</time>
      </trkpt>
      <trkpt lat="48.785617" lon="7.251739">
        <ele>312.0</ele>
        <time>2020-07-10T13:19:09Z</time>
      </trkpt>
      <trkpt lat="48.785607" lon="7.251705">
        <ele>313.0</ele>
        <time>2020-07-10T13:19:11Z</time>
      </trkpt>
      <trkpt lat="48.785599" lon="7.251665">
        <ele>313.0</ele>
        <time>2020-07-10T13:19:13Z</time>
      </trkpt>
      <trkpt lat="48.785592" lon="7.251626">
        <ele>313.0</ele>
        <time>2020-07-10T13:19:15Z</time>
      </trkpt>
      <trkpt lat="48.785576" lon="7.251587">
        <ele>314.0</ele>
        <time>2020-07-10T13:19:17Z</time>
      </trkpt>
      <trkpt lat="48.78557" lon="7.251554">
        <ele>314.0</ele>
        <time>2020-07-10T13:19:19Z</time>
      </trkpt>
      <trkpt lat="48.785567" lon="7.251521">
        <ele>314.0</ele>
        <time>2020-07-10T13:19:21Z</time>
      </trkpt>
      <trkpt lat="48.785563" lon="7.251488">
        <ele>314.0</ele>
        <time>2020-07-10T13:19:23Z</time>
      </trkpt>
      <trkpt lat="48.785559" lon="7.251454">
        <ele>315.0</ele>
        <time>2020-07-10T13:19:25Z</time>
      </trkpt>
      <trkpt lat="48.785555" lon="7.251411">
        <ele>316.0</ele>
        <time>2020-07-10T13:19:27Z</time>
      </trkpt>
      <trkpt lat="48.785556" lon="7.251372">
        <ele>316.0</ele>
        <time>2020-07-10T13:19:29Z</time>
      </trkpt>
      <trkpt lat="48.785554" lon="7.251345">
        <ele>316.0</ele>
        <time>2020-07-10T13:19:31Z</time>
      </trkpt>
      <trkpt lat="48.785552" lon="7.251341">
        <ele>316.0</ele>
        <time>2020-07-10T13:19:33Z</time>
      </trkpt>
      <trkpt lat="48.785556" lon="7.251326">
        <ele>317.0</ele>
        <time>2020-07-10T13:19:35Z</time>
      </trkpt>
      <trkpt lat="48.785558" lon="7.251325">
        <ele>318.0</ele>
        <time>2020-07-10T13:19:37Z</time>
      </trkpt>
      <trkpt lat="48.785548" lon="7.251301">
        <ele>318.0</ele>
        <time>2020-07-10T13:19:39Z</time>
      </trkpt>
      <trkpt lat="48.785535" lon="7.251267">
        <ele>318.0</ele>
        <time>2020-07-10T13:19:41Z</time>
      </trkpt>
      <trkpt lat="48.785518" lon="7.251209">
        <ele>319.0</ele>
        <time>2020-07-10T13:19:43Z</time>
      </trkpt>
      <trkpt lat="48.7855" lon="7.251147">
        <ele>319.0</ele>
        <time>2020-07-10T13:19:45Z</time>
      </trkpt>
      <trkpt lat="48.785481" lon="7.251081">
        <ele>319.0</ele>
        <time>2020-07-10T13:19:47Z</time>
      </trkpt>
      <trkpt lat="48.785455" lon="7.251018">
        <ele>319.0</ele>
        <time>2020-07-10T13:19:49Z</time>
      </trkpt>
      <trkpt lat="48.78542" lon="7.250962">
        <ele>320.0</ele>
        <time>2020-07-10T13:19:51Z</time>
      </trkpt>
      <trkpt lat="48.785398" lon="7.250901">
        <ele>321.0</ele>
        <time>2020-07-10T13:19:53Z</time>
      </trkpt>
      <trkpt lat="48.785376" lon="7.250842">
        <ele>321.0</ele>
        <time>2020-07-10T13:19:55Z</time>
      </trkpt>
      <trkpt lat="48.785352" lon="7.250789">
        <ele>321.0</ele>
        <time>2020-07-10T13:19:57Z</time>
      </trkpt>
      <trkpt lat="48.78533" lon="7.25073">
        <ele>321.0</ele>
        <time>2020-07-10T13:19:59Z</time>
      </trkpt>
      <trkpt lat="48.785312" lon="7.250676">
        <ele>322.0</ele>
        <time>2020-07-10T13:20:01Z</time>
      </trkpt>
      <trkpt lat="48.785284" lon="7.250623">
        <ele>322.0</ele>
        <time>2020-07-10T13:20:03Z</time>
      </trkpt>
      <trkpt lat="48.785258" lon="7.25058">
        <ele>322.0</ele>
        <time>2020-07-10T13:20:05Z</time>
      </trkpt>
      <trkpt lat="48.785233" lon="7.250529">
        <ele>322.0</ele>
        <time>2020-07-10T13:20:07Z</time>
      </trkpt>
      <trkpt lat="48.785203" lon="7.250473">
        <ele>322.0</ele>
        <time>2020-07-10T13:20:09Z</time>
      </trkpt>
      <trkpt lat="48.785173" lon="7.250423">
        <ele>323.0</ele>
        <time>2020-07-10T13:20:11Z</time>
      </trkpt>
      <trkpt lat="48.785142" lon="7.250382">
        <ele>323.0</ele>
        <time>2020-07-10T13:20:13Z</time>
      </trkpt>
      <trkpt lat="48.785107" lon="7.250339">
        <ele>323.0</ele>
        <time>2020-07-10T13:20:15Z</time>
      </trkpt>
      <trkpt lat="48.785072" lon="7.250286">
        <ele>323.0</ele>
        <time>2020-07-10T13:20:17Z</time>
      </trkpt>
      <trkpt lat="48.785039" lon="7.250212">
        <ele>324.0</ele>
        <time>2020-07-10T13:20:19Z</time>
      </trkpt>
      <trkpt lat="48.785007" lon="7.250148">
        <ele>324.0</ele>
        <time>2020-07-10T13:20:21Z</time>
      </trkpt>
      <trkpt lat="48.784971" lon="7.250084">
        <ele>325.0</ele>
        <time>2020-07-10T13:20:23Z</time>
      </trkpt>
      <trkpt lat="48.78493" lon="7.249995">
        <ele>325.0</ele>
        <time>2020-07-10T13:20:25Z</time>
      </trkpt>
      <trkpt lat="48.78489" lon="7.249906">
        <ele>324.0</ele>
        <time>2020-07-10T13:20:27Z</time>
      </trkpt>
      <trkpt lat="48.784856" lon="7.249828">
        <ele>325.0</ele>
        <time>2020-07-10T13:20:29Z</time>
      </trkpt>
      <trkpt lat="48.78482" lon="7.249743">
        <ele>324.0</ele>
        <time>2020-07-10T13:20:31Z</time>
      </trkpt>
      <trkpt lat="48.784787" lon="7.249659">
        <ele>325.0</ele>
        <time>2020-07-10T13:20:33Z</time>
      </trkpt>
      <trkpt lat="48.784759" lon="7.249567">
        <ele>325.0</ele>
        <time>2020-07-10T13:20:35Z</time>
      </trkpt>
      <trkpt lat="48.784722" lon="7.249483">
        <ele>325.0</ele>
        <time>2020-07-10T13:20:37Z</time>
      </trkpt>
      <trkpt lat="48.784689" lon="7.249398">
        <ele>325.0</ele>
        <time>2020-07-10T13:20:39Z</time>
      </trkpt>
      <trkpt lat="48.784653" lon="7.249321">
        <ele>326.0</ele>
        <time>2020-07-10T13:20:41Z</time>
      </trkpt>
      <trkpt lat="48.784614" lon="7.249242">
        <ele>327.0</ele>
        <time>2020-07-10T13:20:43Z</time>
      </trkpt>
      <trkpt lat="48.784581" lon="7.24916">
        <ele>327.0</ele>
        <time>2020-07-10T13:20:45Z</time>
      </trkpt>
      <trkpt lat="48.78455" lon="7.249091">
        <ele>328.0</ele>
        <time>2020-07-10T13:20:47Z</time>
      </trkpt>
      <trkpt lat="48.784522" lon="7.249022">
        <ele>328.0</ele>
        <time>2020-07-10T13:20:49Z</time>
      </trkpt>
      <trkpt lat="48.784466" lon="7.248967">
        <ele>329.0</ele>
        <time>2020-07-10T13:20:52Z</time>
      </trkpt>
      <trkpt lat="48.784433" lon="7.248955">
        <ele>329.0</ele>
        <time>2020-07-10T13:20:54Z</time>
      </trkpt>
      <trkpt lat="48.78439" lon="7.248949">
        <ele>329.0</ele>
        <time>2020-07-10T13:20:56Z</time>
      </trkpt>
      <trkpt lat="48.784346" lon="7.248959">
        <ele>329.0</ele>
        <time>2020-07-10T13:20:58Z</time>
      </trkpt>
      <trkpt lat="48.784313" lon="7.248999">
        <ele>329.0</ele>
        <time>2020-07-10T13:21:00Z</time>
      </trkpt>
      <trkpt lat="48.784278" lon="7.249043">
        <ele>329.0</ele>
        <time>2020-07-10T13:21:02Z</time>
      </trkpt>
      <trkpt lat="48.784241" lon="7.249075">
        <ele>329.0</ele>
        <time>2020-07-10T13:21:04Z</time>
      </trkpt>
      <trkpt lat="48.784203" lon="7.249104">
        <ele>329.0</ele>
        <time>2020-07-10T13:21:06Z</time>
      </trkpt>
      <trkpt lat="48.784164" lon="7.24914">
        <ele>329.0</ele>
        <time>2020-07-10T13:21:08Z</time>
      </trkpt>
      <trkpt lat="48.784132" lon="7.249178">
        <ele>330.0</ele>
        <time>2020-07-10T13:21:10Z</time>
      </trkpt>
      <trkpt lat="48.784092" lon="7.249207">
        <ele>329.0</ele>
        <time>2020-07-10T13:21:12Z</time>
      </trkpt>
      <trkpt lat="48.784055" lon="7.249239">
        <ele>329.0</ele>
        <time>2020-07-10T13:21:14Z</time>
      </trkpt>
      <trkpt lat="48.784011" lon="7.249271">
        <ele>329.0</ele>
        <time>2020-07-10T13:21:16Z</time>
      </trkpt>
      <trkpt lat="48.783967" lon="7.249296">
        <ele>330.0</ele>
        <time>2020-07-10T13:21:18Z</time>
      </trkpt>
      <trkpt lat="48.783916" lon="7.249314">
        <ele>330.0</ele>
        <time>2020-07-10T13:21:20Z</time>
      </trkpt>
      <trkpt lat="48.783874" lon="7.249336">
        <ele>330.0</ele>
        <time>2020-07-10T13:21:22Z</time>
      </trkpt>
      <trkpt lat="48.783832" lon="7.249361">
        <ele>331.0</ele>
        <time>2020-07-10T13:21:24Z</time>
      </trkpt>
      <trkpt lat="48.783784" lon="7.249382">
        <ele>331.0</ele>
        <time>2020-07-10T13:21:26Z</time>
      </trkpt>
      <trkpt lat="48.783714" lon="7.2494">
        <ele>331.0</ele>
        <time>2020-07-10T13:21:28Z</time>
      </trkpt>
      <trkpt lat="48.783618" lon="7.249407">
        <ele>330.0</ele>
        <time>2020-07-10T13:21:30Z</time>
      </trkpt>
      <trkpt lat="48.783551" lon="7.249413">
        <ele>329.0</ele>
        <time>2020-07-10T13:21:32Z</time>
      </trkpt>
      <trkpt lat="48.78349" lon="7.249424">
        <ele>328.0</ele>
        <time>2020-07-10T13:21:34Z</time>
      </trkpt>
      <trkpt lat="48.783448" lon="7.249417">
        <ele>328.0</ele>
        <time>2020-07-10T13:21:36Z</time>
      </trkpt>
      <trkpt lat="48.783418" lon="7.249424">
        <ele>328.0</ele>
        <time>2020-07-10T13:21:38Z</time>
      </trkpt>
      <trkpt lat="48.783375" lon="7.249449">
        <ele>328.0</ele>
        <time>2020-07-10T13:21:40Z</time>
      </trkpt>
      <trkpt lat="48.783324" lon="7.249464">
        <ele>328.0</ele>
        <time>2020-07-10T13:21:42Z</time>
      </trkpt>
      <trkpt lat="48.783281" lon="7.249483">
        <ele>328.0</ele>
        <time>2020-07-10T13:21:44Z</time>
      </trkpt>
      <trkpt lat="48.783249" lon="7.249511">
        <ele>328.0</ele>
        <time>2020-07-10T13:21:46Z</time>
      </trkpt>
      <trkpt lat="48.783212" lon="7.24951">
        <ele>328.0</ele>
        <time>2020-07-10T13:21:48Z</time>
      </trkpt>
      <trkpt lat="48.78318" lon="7.249504">
        <ele>328.0</ele>
        <time>2020-07-10T13:21:50Z</time>
      </trkpt>
      <trkpt lat="48.78314" lon="7.249494">
        <ele>328.0</ele>
        <time>2020-07-10T13:21:52Z</time>
      </trkpt>
      <trkpt lat="48.783112" lon="7.249505">
        <ele>328.0</ele>
        <time>2020-07-10T13:21:54Z</time>
      </trkpt>
      <trkpt lat="48.78309" lon="7.24951">
        <ele>328.0</ele>
        <time>2020-07-10T13:21:56Z</time>
      </trkpt>
      <trkpt lat="48.783086" lon="7.249513">
        <ele>329.0</ele>
        <time>2020-07-10T13:21:58Z</time>
      </trkpt>
      <trkpt lat="48.78309" lon="7.249523">
        <ele>329.0</ele>
        <time>2020-07-10T13:22:00Z</time>
      </trkpt>
      <trkpt lat="48.78309" lon="7.249523">
        <ele>329.0</ele>
        <time>2020-07-10T13:22:02Z</time>
      </trkpt>
    </trkseg>
  </trk>
</gpx>
